<?xml version="1.0" encoding="UTF-8" standalone="no" ?>
<gpx xmlns="http://www.topografix.com/GPX/1/1" xmlns:xsi="http://www.w3.org/2001/XMLSchema-instance" xsi:schemaLocation="http://www.topografix.com/GPX/1/1 http://www.topografix.com/GPX/1/1/gpx.xsd" version="1.1" creator="VisuGPX - https://www.visugpx.com">
  <metadata>
    <name>Enregistrement du 05/11/2024</name>
  </metadata>
  <trk>
    <name><![CDATA[Enregistrement du 05/11/2024_1]]></name>
    <trkseg>
      <trkpt lat="45.86512" lon="1.23777">
        <ele>338.8</ele>
        <time>2024-11-05T14:32:10Z</time>
      </trkpt>
      <trkpt lat="45.86511" lon="1.23776">
        <ele>338.8</ele>
        <time>2024-11-05T14:32:30Z</time>
      </trkpt>
      <trkpt lat="45.86511" lon="1.23777">
        <ele>338.9</ele>
        <time>2024-11-05T14:32:33Z</time>
      </trkpt>
      <trkpt lat="45.86512" lon="1.23774">
        <ele>338.9</ele>
        <time>2024-11-05T14:32:58Z</time>
      </trkpt>
      <trkpt lat="45.86515" lon="1.23774">
        <ele>338.9</ele>
        <time>2024-11-05T14:33:00Z</time>
      </trkpt>
      <trkpt lat="45.86519" lon="1.23777">
        <ele>339</ele>
        <time>2024-11-05T14:33:02Z</time>
      </trkpt>
      <trkpt lat="45.86521" lon="1.23781">
        <ele>339.1</ele>
        <time>2024-11-05T14:33:03Z</time>
      </trkpt>
      <trkpt lat="45.86521" lon="1.23786">
        <ele>339.1</ele>
        <time>2024-11-05T14:33:04Z</time>
      </trkpt>
      <trkpt lat="45.86521" lon="1.2379">
        <ele>339.2</ele>
        <time>2024-11-05T14:33:05Z</time>
      </trkpt>
      <trkpt lat="45.86521" lon="1.23796">
        <ele>339.2</ele>
        <time>2024-11-05T14:33:07Z</time>
      </trkpt>
      <trkpt lat="45.86524" lon="1.238">
        <ele>339.3</ele>
        <time>2024-11-05T14:33:09Z</time>
      </trkpt>
      <trkpt lat="45.86528" lon="1.23802">
        <ele>339.4</ele>
        <time>2024-11-05T14:33:11Z</time>
      </trkpt>
      <trkpt lat="45.86533" lon="1.23803">
        <ele>339.5</ele>
        <time>2024-11-05T14:33:13Z</time>
      </trkpt>
      <trkpt lat="45.86536" lon="1.23804">
        <ele>339.5</ele>
        <time>2024-11-05T14:33:14Z</time>
      </trkpt>
      <trkpt lat="45.8654" lon="1.23805">
        <ele>339.6</ele>
        <time>2024-11-05T14:33:15Z</time>
      </trkpt>
      <trkpt lat="45.86543" lon="1.23806">
        <ele>339.7</ele>
        <time>2024-11-05T14:33:16Z</time>
      </trkpt>
      <trkpt lat="45.86546" lon="1.23807">
        <ele>339.7</ele>
        <time>2024-11-05T14:33:17Z</time>
      </trkpt>
      <trkpt lat="45.8655" lon="1.23807">
        <ele>339.8</ele>
        <time>2024-11-05T14:33:19Z</time>
      </trkpt>
      <trkpt lat="45.86553" lon="1.23809">
        <ele>339.9</ele>
        <time>2024-11-05T14:33:21Z</time>
      </trkpt>
      <trkpt lat="45.86554" lon="1.23813">
        <ele>339.9</ele>
        <time>2024-11-05T14:33:24Z</time>
      </trkpt>
      <trkpt lat="45.86558" lon="1.23816">
        <ele>340</ele>
        <time>2024-11-05T14:33:26Z</time>
      </trkpt>
      <trkpt lat="45.86562" lon="1.23818">
        <ele>340.1</ele>
        <time>2024-11-05T14:33:27Z</time>
      </trkpt>
      <trkpt lat="45.86565" lon="1.23819">
        <ele>340.1</ele>
        <time>2024-11-05T14:33:28Z</time>
      </trkpt>
      <trkpt lat="45.86569" lon="1.2382">
        <ele>340.2</ele>
        <time>2024-11-05T14:33:29Z</time>
      </trkpt>
      <trkpt lat="45.86573" lon="1.23821">
        <ele>340.3</ele>
        <time>2024-11-05T14:33:30Z</time>
      </trkpt>
      <trkpt lat="45.86577" lon="1.23822">
        <ele>340.4</ele>
        <time>2024-11-05T14:33:31Z</time>
      </trkpt>
      <trkpt lat="45.86582" lon="1.23822">
        <ele>340.5</ele>
        <time>2024-11-05T14:33:32Z</time>
      </trkpt>
      <trkpt lat="45.86585" lon="1.23823">
        <ele>340.5</ele>
        <time>2024-11-05T14:33:33Z</time>
      </trkpt>
      <trkpt lat="45.86589" lon="1.23823">
        <ele>340.6</ele>
        <time>2024-11-05T14:33:34Z</time>
      </trkpt>
      <trkpt lat="45.86593" lon="1.23823">
        <ele>340.7</ele>
        <time>2024-11-05T14:33:35Z</time>
      </trkpt>
      <trkpt lat="45.86597" lon="1.23824">
        <ele>340.7</ele>
        <time>2024-11-05T14:33:36Z</time>
      </trkpt>
      <trkpt lat="45.86601" lon="1.23824">
        <ele>340.8</ele>
        <time>2024-11-05T14:33:37Z</time>
      </trkpt>
      <trkpt lat="45.86605" lon="1.23824">
        <ele>340.9</ele>
        <time>2024-11-05T14:33:38Z</time>
      </trkpt>
      <trkpt lat="45.86609" lon="1.23825">
        <ele>341</ele>
        <time>2024-11-05T14:33:39Z</time>
      </trkpt>
      <trkpt lat="45.86613" lon="1.23825">
        <ele>341</ele>
        <time>2024-11-05T14:33:40Z</time>
      </trkpt>
      <trkpt lat="45.86617" lon="1.23825">
        <ele>341.1</ele>
        <time>2024-11-05T14:33:42Z</time>
      </trkpt>
      <trkpt lat="45.86621" lon="1.23825">
        <ele>341.2</ele>
        <time>2024-11-05T14:33:43Z</time>
      </trkpt>
      <trkpt lat="45.86625" lon="1.23825">
        <ele>341.3</ele>
        <time>2024-11-05T14:33:44Z</time>
      </trkpt>
      <trkpt lat="45.86628" lon="1.23825">
        <ele>341.4</ele>
        <time>2024-11-05T14:33:45Z</time>
      </trkpt>
      <trkpt lat="45.86631" lon="1.23824">
        <ele>341.5</ele>
        <time>2024-11-05T14:33:46Z</time>
      </trkpt>
      <trkpt lat="45.86635" lon="1.23825">
        <ele>341.6</ele>
        <time>2024-11-05T14:33:47Z</time>
      </trkpt>
      <trkpt lat="45.86639" lon="1.23825">
        <ele>341.7</ele>
        <time>2024-11-05T14:33:48Z</time>
      </trkpt>
      <trkpt lat="45.86642" lon="1.23825">
        <ele>341.8</ele>
        <time>2024-11-05T14:33:49Z</time>
      </trkpt>
      <trkpt lat="45.86646" lon="1.23826">
        <ele>342</ele>
        <time>2024-11-05T14:33:50Z</time>
      </trkpt>
      <trkpt lat="45.8665" lon="1.23827">
        <ele>342.1</ele>
        <time>2024-11-05T14:33:51Z</time>
      </trkpt>
      <trkpt lat="45.86653" lon="1.23827">
        <ele>342.2</ele>
        <time>2024-11-05T14:33:52Z</time>
      </trkpt>
      <trkpt lat="45.86656" lon="1.23828">
        <ele>342.3</ele>
        <time>2024-11-05T14:33:53Z</time>
      </trkpt>
      <trkpt lat="45.86659" lon="1.23829">
        <ele>342.4</ele>
        <time>2024-11-05T14:33:54Z</time>
      </trkpt>
      <trkpt lat="45.86664" lon="1.23829">
        <ele>342.6</ele>
        <time>2024-11-05T14:33:56Z</time>
      </trkpt>
      <trkpt lat="45.86668" lon="1.23829">
        <ele>342.8</ele>
        <time>2024-11-05T14:33:57Z</time>
      </trkpt>
      <trkpt lat="45.86671" lon="1.2383">
        <ele>343</ele>
        <time>2024-11-05T14:33:58Z</time>
      </trkpt>
      <trkpt lat="45.86676" lon="1.2383">
        <ele>343.2</ele>
        <time>2024-11-05T14:34:00Z</time>
      </trkpt>
      <trkpt lat="45.8668" lon="1.2383">
        <ele>343.5</ele>
        <time>2024-11-05T14:34:01Z</time>
      </trkpt>
      <trkpt lat="45.86683" lon="1.23831">
        <ele>343.6</ele>
        <time>2024-11-05T14:34:02Z</time>
      </trkpt>
      <trkpt lat="45.86686" lon="1.23831">
        <ele>343.8</ele>
        <time>2024-11-05T14:34:03Z</time>
      </trkpt>
      <trkpt lat="45.86689" lon="1.23831">
        <ele>344</ele>
        <time>2024-11-05T14:34:04Z</time>
      </trkpt>
      <trkpt lat="45.86692" lon="1.23831">
        <ele>344.1</ele>
        <time>2024-11-05T14:34:05Z</time>
      </trkpt>
      <trkpt lat="45.86696" lon="1.23831">
        <ele>344.3</ele>
        <time>2024-11-05T14:34:06Z</time>
      </trkpt>
      <trkpt lat="45.86699" lon="1.23832">
        <ele>344.5</ele>
        <time>2024-11-05T14:34:07Z</time>
      </trkpt>
      <trkpt lat="45.86702" lon="1.23832">
        <ele>344.7</ele>
        <time>2024-11-05T14:34:08Z</time>
      </trkpt>
      <trkpt lat="45.86707" lon="1.23831">
        <ele>344.9</ele>
        <time>2024-11-05T14:34:10Z</time>
      </trkpt>
      <trkpt lat="45.86712" lon="1.2383">
        <ele>345.2</ele>
        <time>2024-11-05T14:34:12Z</time>
      </trkpt>
      <trkpt lat="45.86716" lon="1.2383">
        <ele>345.4</ele>
        <time>2024-11-05T14:34:13Z</time>
      </trkpt>
      <trkpt lat="45.86719" lon="1.2383">
        <ele>345.6</ele>
        <time>2024-11-05T14:34:14Z</time>
      </trkpt>
      <trkpt lat="45.86723" lon="1.2383">
        <ele>345.7</ele>
        <time>2024-11-05T14:34:15Z</time>
      </trkpt>
      <trkpt lat="45.86726" lon="1.23831">
        <ele>345.9</ele>
        <time>2024-11-05T14:34:16Z</time>
      </trkpt>
      <trkpt lat="45.8673" lon="1.23831">
        <ele>346</ele>
        <time>2024-11-05T14:34:18Z</time>
      </trkpt>
      <trkpt lat="45.86735" lon="1.23832">
        <ele>346.2</ele>
        <time>2024-11-05T14:34:20Z</time>
      </trkpt>
      <trkpt lat="45.86739" lon="1.23833">
        <ele>346.4</ele>
        <time>2024-11-05T14:34:22Z</time>
      </trkpt>
      <trkpt lat="45.86744" lon="1.23834">
        <ele>346.6</ele>
        <time>2024-11-05T14:34:24Z</time>
      </trkpt>
      <trkpt lat="45.86747" lon="1.23837">
        <ele>346.7</ele>
        <time>2024-11-05T14:34:26Z</time>
      </trkpt>
      <trkpt lat="45.86748" lon="1.23843">
        <ele>346.6</ele>
        <time>2024-11-05T14:34:28Z</time>
      </trkpt>
      <trkpt lat="45.86749" lon="1.23849">
        <ele>346.6</ele>
        <time>2024-11-05T14:34:30Z</time>
      </trkpt>
      <trkpt lat="45.86749" lon="1.23854">
        <ele>346.5</ele>
        <time>2024-11-05T14:34:31Z</time>
      </trkpt>
      <trkpt lat="45.86749" lon="1.23862">
        <ele>346.5</ele>
        <time>2024-11-05T14:34:33Z</time>
      </trkpt>
      <trkpt lat="45.86748" lon="1.23868">
        <ele>346.4</ele>
        <time>2024-11-05T14:34:34Z</time>
      </trkpt>
      <trkpt lat="45.86749" lon="1.23873">
        <ele>346.4</ele>
        <time>2024-11-05T14:34:35Z</time>
      </trkpt>
      <trkpt lat="45.86749" lon="1.23878">
        <ele>346.3</ele>
        <time>2024-11-05T14:34:36Z</time>
      </trkpt>
      <trkpt lat="45.86749" lon="1.23884">
        <ele>346.3</ele>
        <time>2024-11-05T14:34:37Z</time>
      </trkpt>
      <trkpt lat="45.8675" lon="1.2389">
        <ele>346.2</ele>
        <time>2024-11-05T14:34:38Z</time>
      </trkpt>
      <trkpt lat="45.8675" lon="1.23896">
        <ele>346.2</ele>
        <time>2024-11-05T14:34:39Z</time>
      </trkpt>
      <trkpt lat="45.8675" lon="1.23903">
        <ele>346.1</ele>
        <time>2024-11-05T14:34:40Z</time>
      </trkpt>
      <trkpt lat="45.8675" lon="1.23909">
        <ele>346.1</ele>
        <time>2024-11-05T14:34:41Z</time>
      </trkpt>
      <trkpt lat="45.8675" lon="1.23915">
        <ele>346</ele>
        <time>2024-11-05T14:34:42Z</time>
      </trkpt>
      <trkpt lat="45.86751" lon="1.2392">
        <ele>346</ele>
        <time>2024-11-05T14:34:43Z</time>
      </trkpt>
      <trkpt lat="45.86752" lon="1.23926">
        <ele>346</ele>
        <time>2024-11-05T14:34:44Z</time>
      </trkpt>
      <trkpt lat="45.86752" lon="1.23931">
        <ele>346</ele>
        <time>2024-11-05T14:34:45Z</time>
      </trkpt>
      <trkpt lat="45.86752" lon="1.23937">
        <ele>345.9</ele>
        <time>2024-11-05T14:34:46Z</time>
      </trkpt>
      <trkpt lat="45.86753" lon="1.23943">
        <ele>345.9</ele>
        <time>2024-11-05T14:34:47Z</time>
      </trkpt>
      <trkpt lat="45.86753" lon="1.23949">
        <ele>345.9</ele>
        <time>2024-11-05T14:34:48Z</time>
      </trkpt>
      <trkpt lat="45.86753" lon="1.23954">
        <ele>345.9</ele>
        <time>2024-11-05T14:34:49Z</time>
      </trkpt>
      <trkpt lat="45.86753" lon="1.23959">
        <ele>345.9</ele>
        <time>2024-11-05T14:34:50Z</time>
      </trkpt>
      <trkpt lat="45.86756" lon="1.23964">
        <ele>345.9</ele>
        <time>2024-11-05T14:34:52Z</time>
      </trkpt>
      <trkpt lat="45.86759" lon="1.23967">
        <ele>345.8</ele>
        <time>2024-11-05T14:34:53Z</time>
      </trkpt>
      <trkpt lat="45.86763" lon="1.23967">
        <ele>345.8</ele>
        <time>2024-11-05T14:34:54Z</time>
      </trkpt>
      <trkpt lat="45.86766" lon="1.23967">
        <ele>345.8</ele>
        <time>2024-11-05T14:34:55Z</time>
      </trkpt>
      <trkpt lat="45.8677" lon="1.23967">
        <ele>345.8</ele>
        <time>2024-11-05T14:34:56Z</time>
      </trkpt>
      <trkpt lat="45.86774" lon="1.23967">
        <ele>345.9</ele>
        <time>2024-11-05T14:34:57Z</time>
      </trkpt>
      <trkpt lat="45.86777" lon="1.23967">
        <ele>345.9</ele>
        <time>2024-11-05T14:34:58Z</time>
      </trkpt>
      <trkpt lat="45.8678" lon="1.23967">
        <ele>346</ele>
        <time>2024-11-05T14:34:59Z</time>
      </trkpt>
      <trkpt lat="45.86784" lon="1.23967">
        <ele>346</ele>
        <time>2024-11-05T14:35:00Z</time>
      </trkpt>
      <trkpt lat="45.86787" lon="1.23967">
        <ele>346.1</ele>
        <time>2024-11-05T14:35:01Z</time>
      </trkpt>
      <trkpt lat="45.8679" lon="1.23968">
        <ele>346.2</ele>
        <time>2024-11-05T14:35:02Z</time>
      </trkpt>
      <trkpt lat="45.86794" lon="1.23968">
        <ele>346.2</ele>
        <time>2024-11-05T14:35:03Z</time>
      </trkpt>
      <trkpt lat="45.86797" lon="1.23968">
        <ele>346.3</ele>
        <time>2024-11-05T14:35:04Z</time>
      </trkpt>
      <trkpt lat="45.86801" lon="1.23968">
        <ele>346.4</ele>
        <time>2024-11-05T14:35:05Z</time>
      </trkpt>
      <trkpt lat="45.86805" lon="1.23968">
        <ele>346.5</ele>
        <time>2024-11-05T14:35:06Z</time>
      </trkpt>
      <trkpt lat="45.86808" lon="1.23968">
        <ele>346.6</ele>
        <time>2024-11-05T14:35:07Z</time>
      </trkpt>
      <trkpt lat="45.86812" lon="1.23968">
        <ele>346.7</ele>
        <time>2024-11-05T14:35:08Z</time>
      </trkpt>
      <trkpt lat="45.86815" lon="1.23968">
        <ele>346.7</ele>
        <time>2024-11-05T14:35:09Z</time>
      </trkpt>
      <trkpt lat="45.86818" lon="1.23968">
        <ele>346.8</ele>
        <time>2024-11-05T14:35:10Z</time>
      </trkpt>
      <trkpt lat="45.86821" lon="1.23968">
        <ele>346.9</ele>
        <time>2024-11-05T14:35:11Z</time>
      </trkpt>
      <trkpt lat="45.86824" lon="1.23969">
        <ele>347</ele>
        <time>2024-11-05T14:35:12Z</time>
      </trkpt>
      <trkpt lat="45.86827" lon="1.23969">
        <ele>347.1</ele>
        <time>2024-11-05T14:35:13Z</time>
      </trkpt>
      <trkpt lat="45.86831" lon="1.23969">
        <ele>347.2</ele>
        <time>2024-11-05T14:35:14Z</time>
      </trkpt>
      <trkpt lat="45.86834" lon="1.23969">
        <ele>347.3</ele>
        <time>2024-11-05T14:35:15Z</time>
      </trkpt>
      <trkpt lat="45.86838" lon="1.23969">
        <ele>347.4</ele>
        <time>2024-11-05T14:35:17Z</time>
      </trkpt>
      <trkpt lat="45.86842" lon="1.23969">
        <ele>347.6</ele>
        <time>2024-11-05T14:35:18Z</time>
      </trkpt>
      <trkpt lat="45.86846" lon="1.23969">
        <ele>347.7</ele>
        <time>2024-11-05T14:35:19Z</time>
      </trkpt>
      <trkpt lat="45.86849" lon="1.2397">
        <ele>347.8</ele>
        <time>2024-11-05T14:35:20Z</time>
      </trkpt>
      <trkpt lat="45.86853" lon="1.23973">
        <ele>348</ele>
        <time>2024-11-05T14:35:22Z</time>
      </trkpt>
      <trkpt lat="45.86855" lon="1.23979">
        <ele>347.9</ele>
        <time>2024-11-05T14:35:24Z</time>
      </trkpt>
      <trkpt lat="45.86856" lon="1.23985">
        <ele>347.8</ele>
        <time>2024-11-05T14:35:25Z</time>
      </trkpt>
      <trkpt lat="45.86855" lon="1.2399">
        <ele>347.7</ele>
        <time>2024-11-05T14:35:26Z</time>
      </trkpt>
      <trkpt lat="45.86855" lon="1.23997">
        <ele>347.5</ele>
        <time>2024-11-05T14:35:27Z</time>
      </trkpt>
      <trkpt lat="45.86855" lon="1.24003">
        <ele>347.3</ele>
        <time>2024-11-05T14:35:28Z</time>
      </trkpt>
      <trkpt lat="45.86854" lon="1.2401">
        <ele>347.1</ele>
        <time>2024-11-05T14:35:29Z</time>
      </trkpt>
      <trkpt lat="45.86854" lon="1.24016">
        <ele>347</ele>
        <time>2024-11-05T14:35:30Z</time>
      </trkpt>
      <trkpt lat="45.86854" lon="1.24023">
        <ele>346.7</ele>
        <time>2024-11-05T14:35:31Z</time>
      </trkpt>
      <trkpt lat="45.86854" lon="1.24028">
        <ele>346.6</ele>
        <time>2024-11-05T14:35:32Z</time>
      </trkpt>
      <trkpt lat="45.86856" lon="1.24032">
        <ele>346.4</ele>
        <time>2024-11-05T14:35:33Z</time>
      </trkpt>
      <trkpt lat="45.86858" lon="1.24036">
        <ele>346.2</ele>
        <time>2024-11-05T14:35:35Z</time>
      </trkpt>
      <trkpt lat="45.86862" lon="1.2404">
        <ele>346</ele>
        <time>2024-11-05T14:35:37Z</time>
      </trkpt>
      <trkpt lat="45.86866" lon="1.24042">
        <ele>345.8</ele>
        <time>2024-11-05T14:35:38Z</time>
      </trkpt>
      <trkpt lat="45.86869" lon="1.24043">
        <ele>345.7</ele>
        <time>2024-11-05T14:35:39Z</time>
      </trkpt>
      <trkpt lat="45.86873" lon="1.24044">
        <ele>345.5</ele>
        <time>2024-11-05T14:35:40Z</time>
      </trkpt>
      <trkpt lat="45.86877" lon="1.24045">
        <ele>345.4</ele>
        <time>2024-11-05T14:35:41Z</time>
      </trkpt>
      <trkpt lat="45.86881" lon="1.24047">
        <ele>345.3</ele>
        <time>2024-11-05T14:35:42Z</time>
      </trkpt>
      <trkpt lat="45.86886" lon="1.24049">
        <ele>345.2</ele>
        <time>2024-11-05T14:35:43Z</time>
      </trkpt>
      <trkpt lat="45.8689" lon="1.24051">
        <ele>345.1</ele>
        <time>2024-11-05T14:35:44Z</time>
      </trkpt>
      <trkpt lat="45.86893" lon="1.24053">
        <ele>345.1</ele>
        <time>2024-11-05T14:35:45Z</time>
      </trkpt>
      <trkpt lat="45.86897" lon="1.24055">
        <ele>345</ele>
        <time>2024-11-05T14:35:46Z</time>
      </trkpt>
      <trkpt lat="45.869" lon="1.24057">
        <ele>345</ele>
        <time>2024-11-05T14:35:47Z</time>
      </trkpt>
      <trkpt lat="45.86903" lon="1.24059">
        <ele>345</ele>
        <time>2024-11-05T14:35:48Z</time>
      </trkpt>
      <trkpt lat="45.86907" lon="1.24061">
        <ele>345</ele>
        <time>2024-11-05T14:35:49Z</time>
      </trkpt>
      <trkpt lat="45.86911" lon="1.24063">
        <ele>345</ele>
        <time>2024-11-05T14:35:50Z</time>
      </trkpt>
      <trkpt lat="45.86914" lon="1.24065">
        <ele>345</ele>
        <time>2024-11-05T14:35:51Z</time>
      </trkpt>
      <trkpt lat="45.86918" lon="1.24067">
        <ele>345.1</ele>
        <time>2024-11-05T14:35:52Z</time>
      </trkpt>
      <trkpt lat="45.86921" lon="1.24069">
        <ele>345.2</ele>
        <time>2024-11-05T14:35:53Z</time>
      </trkpt>
      <trkpt lat="45.86923" lon="1.2407">
        <ele>345.3</ele>
        <time>2024-11-05T14:35:54Z</time>
      </trkpt>
      <trkpt lat="45.86927" lon="1.24072">
        <ele>345.4</ele>
        <time>2024-11-05T14:35:55Z</time>
      </trkpt>
      <trkpt lat="45.8693" lon="1.24074">
        <ele>345.5</ele>
        <time>2024-11-05T14:35:56Z</time>
      </trkpt>
      <trkpt lat="45.86935" lon="1.24076">
        <ele>345.6</ele>
        <time>2024-11-05T14:35:57Z</time>
      </trkpt>
      <trkpt lat="45.86938" lon="1.24078">
        <ele>345.6</ele>
        <time>2024-11-05T14:35:58Z</time>
      </trkpt>
      <trkpt lat="45.86942" lon="1.2408">
        <ele>345.6</ele>
        <time>2024-11-05T14:35:59Z</time>
      </trkpt>
      <trkpt lat="45.86945" lon="1.24082">
        <ele>345.6</ele>
        <time>2024-11-05T14:36:00Z</time>
      </trkpt>
      <trkpt lat="45.86948" lon="1.24084">
        <ele>345.6</ele>
        <time>2024-11-05T14:36:01Z</time>
      </trkpt>
      <trkpt lat="45.86951" lon="1.24086">
        <ele>345.5</ele>
        <time>2024-11-05T14:36:02Z</time>
      </trkpt>
      <trkpt lat="45.86954" lon="1.24088">
        <ele>345.4</ele>
        <time>2024-11-05T14:36:03Z</time>
      </trkpt>
      <trkpt lat="45.86958" lon="1.2409">
        <ele>345.2</ele>
        <time>2024-11-05T14:36:04Z</time>
      </trkpt>
      <trkpt lat="45.86962" lon="1.24092">
        <ele>345</ele>
        <time>2024-11-05T14:36:05Z</time>
      </trkpt>
      <trkpt lat="45.86966" lon="1.24094">
        <ele>344.8</ele>
        <time>2024-11-05T14:36:06Z</time>
      </trkpt>
      <trkpt lat="45.8697" lon="1.24096">
        <ele>344.6</ele>
        <time>2024-11-05T14:36:07Z</time>
      </trkpt>
      <trkpt lat="45.86974" lon="1.24097">
        <ele>344.3</ele>
        <time>2024-11-05T14:36:08Z</time>
      </trkpt>
      <trkpt lat="45.86978" lon="1.24099">
        <ele>344.1</ele>
        <time>2024-11-05T14:36:09Z</time>
      </trkpt>
      <trkpt lat="45.86982" lon="1.24101">
        <ele>343.9</ele>
        <time>2024-11-05T14:36:10Z</time>
      </trkpt>
      <trkpt lat="45.86986" lon="1.24104">
        <ele>343.7</ele>
        <time>2024-11-05T14:36:11Z</time>
      </trkpt>
      <trkpt lat="45.86991" lon="1.24107">
        <ele>343.5</ele>
        <time>2024-11-05T14:36:12Z</time>
      </trkpt>
      <trkpt lat="45.86995" lon="1.24112">
        <ele>343.4</ele>
        <time>2024-11-05T14:36:13Z</time>
      </trkpt>
      <trkpt lat="45.86999" lon="1.24116">
        <ele>343.3</ele>
        <time>2024-11-05T14:36:14Z</time>
      </trkpt>
      <trkpt lat="45.87003" lon="1.2412">
        <ele>343.2</ele>
        <time>2024-11-05T14:36:15Z</time>
      </trkpt>
      <trkpt lat="45.87007" lon="1.24123">
        <ele>343.1</ele>
        <time>2024-11-05T14:36:16Z</time>
      </trkpt>
      <trkpt lat="45.8701" lon="1.24126">
        <ele>343</ele>
        <time>2024-11-05T14:36:17Z</time>
      </trkpt>
      <trkpt lat="45.87013" lon="1.2413">
        <ele>343</ele>
        <time>2024-11-05T14:36:18Z</time>
      </trkpt>
      <trkpt lat="45.87016" lon="1.24133">
        <ele>342.9</ele>
        <time>2024-11-05T14:36:19Z</time>
      </trkpt>
      <trkpt lat="45.87019" lon="1.24136">
        <ele>342.8</ele>
        <time>2024-11-05T14:36:20Z</time>
      </trkpt>
      <trkpt lat="45.87022" lon="1.24139">
        <ele>342.8</ele>
        <time>2024-11-05T14:36:21Z</time>
      </trkpt>
      <trkpt lat="45.87025" lon="1.24143">
        <ele>342.7</ele>
        <time>2024-11-05T14:36:22Z</time>
      </trkpt>
      <trkpt lat="45.87029" lon="1.24146">
        <ele>342.6</ele>
        <time>2024-11-05T14:36:23Z</time>
      </trkpt>
      <trkpt lat="45.87031" lon="1.24149">
        <ele>342.5</ele>
        <time>2024-11-05T14:36:24Z</time>
      </trkpt>
      <trkpt lat="45.87034" lon="1.24152">
        <ele>342.4</ele>
        <time>2024-11-05T14:36:25Z</time>
      </trkpt>
      <trkpt lat="45.87037" lon="1.24155">
        <ele>342.4</ele>
        <time>2024-11-05T14:36:26Z</time>
      </trkpt>
      <trkpt lat="45.87039" lon="1.24158">
        <ele>342.3</ele>
        <time>2024-11-05T14:36:27Z</time>
      </trkpt>
      <trkpt lat="45.87042" lon="1.24161">
        <ele>342.3</ele>
        <time>2024-11-05T14:36:28Z</time>
      </trkpt>
      <trkpt lat="45.87044" lon="1.24163">
        <ele>342.2</ele>
        <time>2024-11-05T14:36:29Z</time>
      </trkpt>
      <trkpt lat="45.87047" lon="1.24166">
        <ele>342.2</ele>
        <time>2024-11-05T14:36:30Z</time>
      </trkpt>
      <trkpt lat="45.8705" lon="1.24169">
        <ele>342.1</ele>
        <time>2024-11-05T14:36:31Z</time>
      </trkpt>
      <trkpt lat="45.87054" lon="1.24172">
        <ele>342.1</ele>
        <time>2024-11-05T14:36:32Z</time>
      </trkpt>
      <trkpt lat="45.87057" lon="1.24175">
        <ele>342.1</ele>
        <time>2024-11-05T14:36:33Z</time>
      </trkpt>
      <trkpt lat="45.87061" lon="1.24178">
        <ele>342.1</ele>
        <time>2024-11-05T14:36:34Z</time>
      </trkpt>
      <trkpt lat="45.87064" lon="1.24181">
        <ele>342.1</ele>
        <time>2024-11-05T14:36:35Z</time>
      </trkpt>
      <trkpt lat="45.87066" lon="1.24183">
        <ele>342.1</ele>
        <time>2024-11-05T14:36:36Z</time>
      </trkpt>
      <trkpt lat="45.87069" lon="1.24185">
        <ele>342.1</ele>
        <time>2024-11-05T14:36:37Z</time>
      </trkpt>
      <trkpt lat="45.87073" lon="1.24187">
        <ele>342.2</ele>
        <time>2024-11-05T14:36:39Z</time>
      </trkpt>
      <trkpt lat="45.87076" lon="1.2419">
        <ele>342.2</ele>
        <time>2024-11-05T14:36:42Z</time>
      </trkpt>
      <trkpt lat="45.87079" lon="1.24192">
        <ele>342.3</ele>
        <time>2024-11-05T14:36:45Z</time>
      </trkpt>
      <trkpt lat="45.87081" lon="1.24195">
        <ele>342.4</ele>
        <time>2024-11-05T14:36:46Z</time>
      </trkpt>
      <trkpt lat="45.87084" lon="1.24197">
        <ele>342.5</ele>
        <time>2024-11-05T14:36:47Z</time>
      </trkpt>
      <trkpt lat="45.87086" lon="1.242">
        <ele>342.6</ele>
        <time>2024-11-05T14:36:48Z</time>
      </trkpt>
      <trkpt lat="45.87089" lon="1.24202">
        <ele>342.6</ele>
        <time>2024-11-05T14:36:49Z</time>
      </trkpt>
      <trkpt lat="45.87091" lon="1.24206">
        <ele>342.7</ele>
        <time>2024-11-05T14:36:51Z</time>
      </trkpt>
      <trkpt lat="45.87094" lon="1.24212">
        <ele>342.7</ele>
        <time>2024-11-05T14:36:53Z</time>
      </trkpt>
      <trkpt lat="45.87097" lon="1.24216">
        <ele>342.7</ele>
        <time>2024-11-05T14:36:54Z</time>
      </trkpt>
      <trkpt lat="45.87099" lon="1.24221">
        <ele>342.6</ele>
        <time>2024-11-05T14:36:55Z</time>
      </trkpt>
      <trkpt lat="45.87101" lon="1.24227">
        <ele>342.5</ele>
        <time>2024-11-05T14:36:56Z</time>
      </trkpt>
      <trkpt lat="45.87103" lon="1.24232">
        <ele>342.4</ele>
        <time>2024-11-05T14:36:57Z</time>
      </trkpt>
      <trkpt lat="45.87106" lon="1.24238">
        <ele>342.2</ele>
        <time>2024-11-05T14:36:58Z</time>
      </trkpt>
      <trkpt lat="45.87108" lon="1.24244">
        <ele>342</ele>
        <time>2024-11-05T14:36:59Z</time>
      </trkpt>
      <trkpt lat="45.87111" lon="1.24251">
        <ele>341.7</ele>
        <time>2024-11-05T14:37:00Z</time>
      </trkpt>
      <trkpt lat="45.87113" lon="1.24259">
        <ele>341.4</ele>
        <time>2024-11-05T14:37:01Z</time>
      </trkpt>
      <trkpt lat="45.87114" lon="1.24266">
        <ele>341.1</ele>
        <time>2024-11-05T14:37:02Z</time>
      </trkpt>
      <trkpt lat="45.87114" lon="1.24274">
        <ele>340.8</ele>
        <time>2024-11-05T14:37:03Z</time>
      </trkpt>
      <trkpt lat="45.87113" lon="1.24282">
        <ele>340.4</ele>
        <time>2024-11-05T14:37:04Z</time>
      </trkpt>
      <trkpt lat="45.87113" lon="1.24291">
        <ele>340.1</ele>
        <time>2024-11-05T14:37:05Z</time>
      </trkpt>
      <trkpt lat="45.87112" lon="1.243">
        <ele>339.7</ele>
        <time>2024-11-05T14:37:06Z</time>
      </trkpt>
      <trkpt lat="45.87112" lon="1.24309">
        <ele>339.4</ele>
        <time>2024-11-05T14:37:07Z</time>
      </trkpt>
      <trkpt lat="45.87111" lon="1.24319">
        <ele>339</ele>
        <time>2024-11-05T14:37:08Z</time>
      </trkpt>
      <trkpt lat="45.87112" lon="1.24329">
        <ele>338.6</ele>
        <time>2024-11-05T14:37:09Z</time>
      </trkpt>
      <trkpt lat="45.87112" lon="1.2434">
        <ele>338.3</ele>
        <time>2024-11-05T14:37:10Z</time>
      </trkpt>
      <trkpt lat="45.87113" lon="1.24351">
        <ele>338</ele>
        <time>2024-11-05T14:37:11Z</time>
      </trkpt>
      <trkpt lat="45.87114" lon="1.24361">
        <ele>337.8</ele>
        <time>2024-11-05T14:37:12Z</time>
      </trkpt>
      <trkpt lat="45.87116" lon="1.24371">
        <ele>337.8</ele>
        <time>2024-11-05T14:37:13Z</time>
      </trkpt>
      <trkpt lat="45.87118" lon="1.24381">
        <ele>337.8</ele>
        <time>2024-11-05T14:37:14Z</time>
      </trkpt>
      <trkpt lat="45.8712" lon="1.24389">
        <ele>338</ele>
        <time>2024-11-05T14:37:15Z</time>
      </trkpt>
      <trkpt lat="45.87123" lon="1.24397">
        <ele>338.1</ele>
        <time>2024-11-05T14:37:16Z</time>
      </trkpt>
      <trkpt lat="45.87126" lon="1.24403">
        <ele>338.2</ele>
        <time>2024-11-05T14:37:17Z</time>
      </trkpt>
      <trkpt lat="45.87128" lon="1.24409">
        <ele>338.4</ele>
        <time>2024-11-05T14:37:18Z</time>
      </trkpt>
      <trkpt lat="45.87131" lon="1.24415">
        <ele>338.6</ele>
        <time>2024-11-05T14:37:19Z</time>
      </trkpt>
      <trkpt lat="45.87133" lon="1.2442">
        <ele>338.9</ele>
        <time>2024-11-05T14:37:20Z</time>
      </trkpt>
      <trkpt lat="45.87136" lon="1.24425">
        <ele>339.2</ele>
        <time>2024-11-05T14:37:21Z</time>
      </trkpt>
      <trkpt lat="45.87138" lon="1.2443">
        <ele>339.4</ele>
        <time>2024-11-05T14:37:22Z</time>
      </trkpt>
      <trkpt lat="45.87141" lon="1.24434">
        <ele>339.7</ele>
        <time>2024-11-05T14:37:23Z</time>
      </trkpt>
      <trkpt lat="45.87144" lon="1.24438">
        <ele>339.9</ele>
        <time>2024-11-05T14:37:24Z</time>
      </trkpt>
      <trkpt lat="45.87147" lon="1.24441">
        <ele>340.2</ele>
        <time>2024-11-05T14:37:25Z</time>
      </trkpt>
      <trkpt lat="45.8715" lon="1.24444">
        <ele>340.4</ele>
        <time>2024-11-05T14:37:26Z</time>
      </trkpt>
      <trkpt lat="45.87152" lon="1.24446">
        <ele>340.5</ele>
        <time>2024-11-05T14:37:27Z</time>
      </trkpt>
      <trkpt lat="45.87155" lon="1.24449">
        <ele>340.7</ele>
        <time>2024-11-05T14:37:28Z</time>
      </trkpt>
      <trkpt lat="45.87159" lon="1.24453">
        <ele>340.9</ele>
        <time>2024-11-05T14:37:30Z</time>
      </trkpt>
      <trkpt lat="45.87162" lon="1.24456">
        <ele>341</ele>
        <time>2024-11-05T14:37:31Z</time>
      </trkpt>
      <trkpt lat="45.87165" lon="1.24459">
        <ele>341.1</ele>
        <time>2024-11-05T14:37:32Z</time>
      </trkpt>
      <trkpt lat="45.87168" lon="1.24461">
        <ele>341.2</ele>
        <time>2024-11-05T14:37:33Z</time>
      </trkpt>
      <trkpt lat="45.87172" lon="1.24464">
        <ele>341.2</ele>
        <time>2024-11-05T14:37:34Z</time>
      </trkpt>
      <trkpt lat="45.87176" lon="1.24467">
        <ele>341.1</ele>
        <time>2024-11-05T14:37:35Z</time>
      </trkpt>
      <trkpt lat="45.87181" lon="1.2447">
        <ele>341</ele>
        <time>2024-11-05T14:37:36Z</time>
      </trkpt>
      <trkpt lat="45.87185" lon="1.24472">
        <ele>340.9</ele>
        <time>2024-11-05T14:37:37Z</time>
      </trkpt>
      <trkpt lat="45.8719" lon="1.24473">
        <ele>340.6</ele>
        <time>2024-11-05T14:37:38Z</time>
      </trkpt>
      <trkpt lat="45.87196" lon="1.24475">
        <ele>340.3</ele>
        <time>2024-11-05T14:37:39Z</time>
      </trkpt>
      <trkpt lat="45.87202" lon="1.24476">
        <ele>339.9</ele>
        <time>2024-11-05T14:37:40Z</time>
      </trkpt>
      <trkpt lat="45.87209" lon="1.24477">
        <ele>339.4</ele>
        <time>2024-11-05T14:37:41Z</time>
      </trkpt>
      <trkpt lat="45.87215" lon="1.24477">
        <ele>339</ele>
        <time>2024-11-05T14:37:42Z</time>
      </trkpt>
      <trkpt lat="45.87222" lon="1.24477">
        <ele>338.6</ele>
        <time>2024-11-05T14:37:43Z</time>
      </trkpt>
      <trkpt lat="45.87229" lon="1.24477">
        <ele>338.1</ele>
        <time>2024-11-05T14:37:44Z</time>
      </trkpt>
      <trkpt lat="45.87237" lon="1.24476">
        <ele>337.7</ele>
        <time>2024-11-05T14:37:45Z</time>
      </trkpt>
      <trkpt lat="45.87244" lon="1.24474">
        <ele>337.5</ele>
        <time>2024-11-05T14:37:46Z</time>
      </trkpt>
      <trkpt lat="45.8725" lon="1.24472">
        <ele>337.3</ele>
        <time>2024-11-05T14:37:47Z</time>
      </trkpt>
      <trkpt lat="45.87257" lon="1.24469">
        <ele>337.2</ele>
        <time>2024-11-05T14:37:48Z</time>
      </trkpt>
      <trkpt lat="45.87263" lon="1.24465">
        <ele>337.3</ele>
        <time>2024-11-05T14:37:49Z</time>
      </trkpt>
      <trkpt lat="45.87269" lon="1.2446">
        <ele>337.4</ele>
        <time>2024-11-05T14:37:50Z</time>
      </trkpt>
      <trkpt lat="45.87274" lon="1.24455">
        <ele>337.5</ele>
        <time>2024-11-05T14:37:51Z</time>
      </trkpt>
      <trkpt lat="45.87278" lon="1.2445">
        <ele>337.6</ele>
        <time>2024-11-05T14:37:52Z</time>
      </trkpt>
      <trkpt lat="45.87283" lon="1.24445">
        <ele>337.8</ele>
        <time>2024-11-05T14:37:53Z</time>
      </trkpt>
      <trkpt lat="45.87287" lon="1.24441">
        <ele>338</ele>
        <time>2024-11-05T14:37:54Z</time>
      </trkpt>
      <trkpt lat="45.8729" lon="1.24436">
        <ele>338.1</ele>
        <time>2024-11-05T14:37:55Z</time>
      </trkpt>
      <trkpt lat="45.87292" lon="1.24431">
        <ele>338.3</ele>
        <time>2024-11-05T14:37:56Z</time>
      </trkpt>
      <trkpt lat="45.87294" lon="1.24426">
        <ele>338.5</ele>
        <time>2024-11-05T14:37:57Z</time>
      </trkpt>
      <trkpt lat="45.87295" lon="1.24422">
        <ele>338.6</ele>
        <time>2024-11-05T14:37:58Z</time>
      </trkpt>
      <trkpt lat="45.87298" lon="1.24417">
        <ele>338.8</ele>
        <time>2024-11-05T14:38:00Z</time>
      </trkpt>
      <trkpt lat="45.873" lon="1.24415">
        <ele>339</ele>
        <time>2024-11-05T14:38:01Z</time>
      </trkpt>
      <trkpt lat="45.87304" lon="1.24415">
        <ele>339.1</ele>
        <time>2024-11-05T14:38:02Z</time>
      </trkpt>
      <trkpt lat="45.87307" lon="1.24415">
        <ele>339.3</ele>
        <time>2024-11-05T14:38:03Z</time>
      </trkpt>
      <trkpt lat="45.8731" lon="1.24415">
        <ele>339.5</ele>
        <time>2024-11-05T14:38:04Z</time>
      </trkpt>
      <trkpt lat="45.87313" lon="1.24414">
        <ele>339.6</ele>
        <time>2024-11-05T14:38:05Z</time>
      </trkpt>
      <trkpt lat="45.87317" lon="1.24414">
        <ele>339.9</ele>
        <time>2024-11-05T14:38:06Z</time>
      </trkpt>
      <trkpt lat="45.8732" lon="1.24414">
        <ele>340.1</ele>
        <time>2024-11-05T14:38:07Z</time>
      </trkpt>
      <trkpt lat="45.87323" lon="1.24414">
        <ele>340.3</ele>
        <time>2024-11-05T14:38:08Z</time>
      </trkpt>
      <trkpt lat="45.87327" lon="1.24414">
        <ele>340.5</ele>
        <time>2024-11-05T14:38:09Z</time>
      </trkpt>
      <trkpt lat="45.8733" lon="1.24414">
        <ele>340.7</ele>
        <time>2024-11-05T14:38:10Z</time>
      </trkpt>
      <trkpt lat="45.87334" lon="1.24414">
        <ele>340.9</ele>
        <time>2024-11-05T14:38:11Z</time>
      </trkpt>
      <trkpt lat="45.87338" lon="1.24415">
        <ele>341.1</ele>
        <time>2024-11-05T14:38:12Z</time>
      </trkpt>
      <trkpt lat="45.87342" lon="1.24415">
        <ele>341.3</ele>
        <time>2024-11-05T14:38:13Z</time>
      </trkpt>
      <trkpt lat="45.87346" lon="1.24416">
        <ele>341.5</ele>
        <time>2024-11-05T14:38:14Z</time>
      </trkpt>
      <trkpt lat="45.87349" lon="1.24417">
        <ele>341.6</ele>
        <time>2024-11-05T14:38:15Z</time>
      </trkpt>
      <trkpt lat="45.87353" lon="1.24417">
        <ele>341.8</ele>
        <time>2024-11-05T14:38:16Z</time>
      </trkpt>
      <trkpt lat="45.87357" lon="1.24418">
        <ele>341.9</ele>
        <time>2024-11-05T14:38:17Z</time>
      </trkpt>
      <trkpt lat="45.87361" lon="1.24418">
        <ele>342</ele>
        <time>2024-11-05T14:38:18Z</time>
      </trkpt>
      <trkpt lat="45.87366" lon="1.24418">
        <ele>342.1</ele>
        <time>2024-11-05T14:38:19Z</time>
      </trkpt>
      <trkpt lat="45.8737" lon="1.24416">
        <ele>342.1</ele>
        <time>2024-11-05T14:38:20Z</time>
      </trkpt>
      <trkpt lat="45.87374" lon="1.24415">
        <ele>342.2</ele>
        <time>2024-11-05T14:38:21Z</time>
      </trkpt>
      <trkpt lat="45.87378" lon="1.24413">
        <ele>342.2</ele>
        <time>2024-11-05T14:38:22Z</time>
      </trkpt>
      <trkpt lat="45.87382" lon="1.2441">
        <ele>342.2</ele>
        <time>2024-11-05T14:38:23Z</time>
      </trkpt>
      <trkpt lat="45.87386" lon="1.24406">
        <ele>342.1</ele>
        <time>2024-11-05T14:38:24Z</time>
      </trkpt>
      <trkpt lat="45.87389" lon="1.24402">
        <ele>342</ele>
        <time>2024-11-05T14:38:25Z</time>
      </trkpt>
      <trkpt lat="45.87392" lon="1.24398">
        <ele>341.9</ele>
        <time>2024-11-05T14:38:26Z</time>
      </trkpt>
      <trkpt lat="45.87395" lon="1.24393">
        <ele>341.7</ele>
        <time>2024-11-05T14:38:27Z</time>
      </trkpt>
      <trkpt lat="45.87398" lon="1.24388">
        <ele>341.6</ele>
        <time>2024-11-05T14:38:28Z</time>
      </trkpt>
      <trkpt lat="45.87401" lon="1.24384">
        <ele>341.4</ele>
        <time>2024-11-05T14:38:29Z</time>
      </trkpt>
      <trkpt lat="45.87403" lon="1.24379">
        <ele>341.2</ele>
        <time>2024-11-05T14:38:30Z</time>
      </trkpt>
      <trkpt lat="45.87405" lon="1.24375">
        <ele>341</ele>
        <time>2024-11-05T14:38:31Z</time>
      </trkpt>
      <trkpt lat="45.87406" lon="1.24371">
        <ele>340.9</ele>
        <time>2024-11-05T14:38:32Z</time>
      </trkpt>
      <trkpt lat="45.87409" lon="1.24367">
        <ele>340.6</ele>
        <time>2024-11-05T14:38:34Z</time>
      </trkpt>
      <trkpt lat="45.87414" lon="1.24365">
        <ele>340.4</ele>
        <time>2024-11-05T14:38:36Z</time>
      </trkpt>
      <trkpt lat="45.87418" lon="1.24364">
        <ele>340.2</ele>
        <time>2024-11-05T14:38:37Z</time>
      </trkpt>
      <trkpt lat="45.87423" lon="1.24364">
        <ele>339.9</ele>
        <time>2024-11-05T14:38:38Z</time>
      </trkpt>
      <trkpt lat="45.87429" lon="1.24364">
        <ele>339.7</ele>
        <time>2024-11-05T14:38:39Z</time>
      </trkpt>
      <trkpt lat="45.87434" lon="1.24363">
        <ele>339.5</ele>
        <time>2024-11-05T14:38:40Z</time>
      </trkpt>
      <trkpt lat="45.8744" lon="1.24363">
        <ele>339.2</ele>
        <time>2024-11-05T14:38:41Z</time>
      </trkpt>
      <trkpt lat="45.87446" lon="1.24363">
        <ele>339</ele>
        <time>2024-11-05T14:38:42Z</time>
      </trkpt>
      <trkpt lat="45.87453" lon="1.24364">
        <ele>338.7</ele>
        <time>2024-11-05T14:38:43Z</time>
      </trkpt>
      <trkpt lat="45.87459" lon="1.24364">
        <ele>338.6</ele>
        <time>2024-11-05T14:38:44Z</time>
      </trkpt>
      <trkpt lat="45.87467" lon="1.24363">
        <ele>338.4</ele>
        <time>2024-11-05T14:38:45Z</time>
      </trkpt>
      <trkpt lat="45.87474" lon="1.24364">
        <ele>338.4</ele>
        <time>2024-11-05T14:38:46Z</time>
      </trkpt>
      <trkpt lat="45.8748" lon="1.24365">
        <ele>338.4</ele>
        <time>2024-11-05T14:38:47Z</time>
      </trkpt>
      <trkpt lat="45.87486" lon="1.24366">
        <ele>338.4</ele>
        <time>2024-11-05T14:38:48Z</time>
      </trkpt>
      <trkpt lat="45.87492" lon="1.24368">
        <ele>338.4</ele>
        <time>2024-11-05T14:38:49Z</time>
      </trkpt>
      <trkpt lat="45.87497" lon="1.2437">
        <ele>338.4</ele>
        <time>2024-11-05T14:38:50Z</time>
      </trkpt>
      <trkpt lat="45.87503" lon="1.24372">
        <ele>338.5</ele>
        <time>2024-11-05T14:38:51Z</time>
      </trkpt>
      <trkpt lat="45.87508" lon="1.24373">
        <ele>338.6</ele>
        <time>2024-11-05T14:38:52Z</time>
      </trkpt>
      <trkpt lat="45.87513" lon="1.24374">
        <ele>338.7</ele>
        <time>2024-11-05T14:38:53Z</time>
      </trkpt>
      <trkpt lat="45.87518" lon="1.24376">
        <ele>338.8</ele>
        <time>2024-11-05T14:38:54Z</time>
      </trkpt>
      <trkpt lat="45.87522" lon="1.24377">
        <ele>338.9</ele>
        <time>2024-11-05T14:38:55Z</time>
      </trkpt>
      <trkpt lat="45.87527" lon="1.24378">
        <ele>339</ele>
        <time>2024-11-05T14:38:56Z</time>
      </trkpt>
      <trkpt lat="45.87531" lon="1.24379">
        <ele>339.1</ele>
        <time>2024-11-05T14:38:57Z</time>
      </trkpt>
      <trkpt lat="45.87535" lon="1.24381">
        <ele>339.3</ele>
        <time>2024-11-05T14:38:58Z</time>
      </trkpt>
      <trkpt lat="45.87539" lon="1.24384">
        <ele>339.4</ele>
        <time>2024-11-05T14:38:59Z</time>
      </trkpt>
      <trkpt lat="45.87544" lon="1.24387">
        <ele>339.6</ele>
        <time>2024-11-05T14:39:00Z</time>
      </trkpt>
      <trkpt lat="45.87548" lon="1.2439">
        <ele>339.7</ele>
        <time>2024-11-05T14:39:01Z</time>
      </trkpt>
      <trkpt lat="45.87552" lon="1.24393">
        <ele>339.9</ele>
        <time>2024-11-05T14:39:02Z</time>
      </trkpt>
      <trkpt lat="45.87555" lon="1.24397">
        <ele>340</ele>
        <time>2024-11-05T14:39:03Z</time>
      </trkpt>
      <trkpt lat="45.87558" lon="1.24401">
        <ele>340.1</ele>
        <time>2024-11-05T14:39:04Z</time>
      </trkpt>
      <trkpt lat="45.87562" lon="1.24405">
        <ele>340.2</ele>
        <time>2024-11-05T14:39:05Z</time>
      </trkpt>
      <trkpt lat="45.87564" lon="1.2441">
        <ele>340.4</ele>
        <time>2024-11-05T14:39:06Z</time>
      </trkpt>
      <trkpt lat="45.87567" lon="1.24413">
        <ele>340.5</ele>
        <time>2024-11-05T14:39:07Z</time>
      </trkpt>
      <trkpt lat="45.8757" lon="1.24416">
        <ele>340.7</ele>
        <time>2024-11-05T14:39:08Z</time>
      </trkpt>
      <trkpt lat="45.87573" lon="1.24419">
        <ele>340.9</ele>
        <time>2024-11-05T14:39:09Z</time>
      </trkpt>
      <trkpt lat="45.87577" lon="1.24421">
        <ele>341.1</ele>
        <time>2024-11-05T14:39:10Z</time>
      </trkpt>
      <trkpt lat="45.8758" lon="1.24423">
        <ele>341.3</ele>
        <time>2024-11-05T14:39:11Z</time>
      </trkpt>
      <trkpt lat="45.87584" lon="1.24425">
        <ele>341.6</ele>
        <time>2024-11-05T14:39:12Z</time>
      </trkpt>
      <trkpt lat="45.87587" lon="1.24426">
        <ele>341.8</ele>
        <time>2024-11-05T14:39:13Z</time>
      </trkpt>
      <trkpt lat="45.87591" lon="1.24426">
        <ele>342.1</ele>
        <time>2024-11-05T14:39:14Z</time>
      </trkpt>
      <trkpt lat="45.87595" lon="1.24426">
        <ele>342.4</ele>
        <time>2024-11-05T14:39:15Z</time>
      </trkpt>
      <trkpt lat="45.87598" lon="1.24426">
        <ele>342.6</ele>
        <time>2024-11-05T14:39:16Z</time>
      </trkpt>
      <trkpt lat="45.87602" lon="1.24425">
        <ele>343</ele>
        <time>2024-11-05T14:39:17Z</time>
      </trkpt>
      <trkpt lat="45.87605" lon="1.24425">
        <ele>343.2</ele>
        <time>2024-11-05T14:39:18Z</time>
      </trkpt>
      <trkpt lat="45.87608" lon="1.24424">
        <ele>343.5</ele>
        <time>2024-11-05T14:39:19Z</time>
      </trkpt>
      <trkpt lat="45.87611" lon="1.24422">
        <ele>343.8</ele>
        <time>2024-11-05T14:39:20Z</time>
      </trkpt>
      <trkpt lat="45.87614" lon="1.24421">
        <ele>344.1</ele>
        <time>2024-11-05T14:39:21Z</time>
      </trkpt>
      <trkpt lat="45.87617" lon="1.24419">
        <ele>344.5</ele>
        <time>2024-11-05T14:39:22Z</time>
      </trkpt>
      <trkpt lat="45.8762" lon="1.24417">
        <ele>344.8</ele>
        <time>2024-11-05T14:39:23Z</time>
      </trkpt>
      <trkpt lat="45.87622" lon="1.24414">
        <ele>345.1</ele>
        <time>2024-11-05T14:39:24Z</time>
      </trkpt>
      <trkpt lat="45.87626" lon="1.24411">
        <ele>345.7</ele>
        <time>2024-11-05T14:39:26Z</time>
      </trkpt>
      <trkpt lat="45.87629" lon="1.24406">
        <ele>346.2</ele>
        <time>2024-11-05T14:39:28Z</time>
      </trkpt>
      <trkpt lat="45.87634" lon="1.24403">
        <ele>346.8</ele>
        <time>2024-11-05T14:39:30Z</time>
      </trkpt>
      <trkpt lat="45.87638" lon="1.244">
        <ele>347.4</ele>
        <time>2024-11-05T14:39:32Z</time>
      </trkpt>
      <trkpt lat="45.87642" lon="1.24398">
        <ele>347.9</ele>
        <time>2024-11-05T14:39:34Z</time>
      </trkpt>
      <trkpt lat="45.87647" lon="1.24396">
        <ele>348.5</ele>
        <time>2024-11-05T14:39:36Z</time>
      </trkpt>
      <trkpt lat="45.87651" lon="1.24394">
        <ele>349.1</ele>
        <time>2024-11-05T14:39:38Z</time>
      </trkpt>
      <trkpt lat="45.87656" lon="1.24392">
        <ele>349.7</ele>
        <time>2024-11-05T14:39:40Z</time>
      </trkpt>
      <trkpt lat="45.8766" lon="1.24391">
        <ele>350.2</ele>
        <time>2024-11-05T14:39:42Z</time>
      </trkpt>
      <trkpt lat="45.87665" lon="1.2439">
        <ele>350.8</ele>
        <time>2024-11-05T14:39:44Z</time>
      </trkpt>
      <trkpt lat="45.87669" lon="1.2439">
        <ele>351.3</ele>
        <time>2024-11-05T14:39:46Z</time>
      </trkpt>
      <trkpt lat="45.87673" lon="1.2439">
        <ele>351.7</ele>
        <time>2024-11-05T14:39:48Z</time>
      </trkpt>
      <trkpt lat="45.87676" lon="1.2439">
        <ele>352</ele>
        <time>2024-11-05T14:39:50Z</time>
      </trkpt>
      <trkpt lat="45.87679" lon="1.2439">
        <ele>352.3</ele>
        <time>2024-11-05T14:40:02Z</time>
      </trkpt>
      <trkpt lat="45.87684" lon="1.24391">
        <ele>352.8</ele>
        <time>2024-11-05T14:40:04Z</time>
      </trkpt>
      <trkpt lat="45.87688" lon="1.24391">
        <ele>353</ele>
        <time>2024-11-05T14:40:05Z</time>
      </trkpt>
      <trkpt lat="45.87691" lon="1.24392">
        <ele>353.2</ele>
        <time>2024-11-05T14:40:06Z</time>
      </trkpt>
      <trkpt lat="45.87695" lon="1.24392">
        <ele>353.5</ele>
        <time>2024-11-05T14:40:07Z</time>
      </trkpt>
      <trkpt lat="45.87698" lon="1.24394">
        <ele>353.7</ele>
        <time>2024-11-05T14:40:08Z</time>
      </trkpt>
      <trkpt lat="45.87701" lon="1.24395">
        <ele>353.9</ele>
        <time>2024-11-05T14:40:09Z</time>
      </trkpt>
      <trkpt lat="45.87704" lon="1.24396">
        <ele>354.2</ele>
        <time>2024-11-05T14:40:10Z</time>
      </trkpt>
      <trkpt lat="45.87708" lon="1.24399">
        <ele>354.6</ele>
        <time>2024-11-05T14:40:12Z</time>
      </trkpt>
      <trkpt lat="45.87711" lon="1.244">
        <ele>354.8</ele>
        <time>2024-11-05T14:40:13Z</time>
      </trkpt>
      <trkpt lat="45.87714" lon="1.24402">
        <ele>355.1</ele>
        <time>2024-11-05T14:40:14Z</time>
      </trkpt>
      <trkpt lat="45.87717" lon="1.24403">
        <ele>355.4</ele>
        <time>2024-11-05T14:40:15Z</time>
      </trkpt>
      <trkpt lat="45.8772" lon="1.24405">
        <ele>355.7</ele>
        <time>2024-11-05T14:40:16Z</time>
      </trkpt>
      <trkpt lat="45.87723" lon="1.24406">
        <ele>355.9</ele>
        <time>2024-11-05T14:40:17Z</time>
      </trkpt>
      <trkpt lat="45.87727" lon="1.24408">
        <ele>356.3</ele>
        <time>2024-11-05T14:40:19Z</time>
      </trkpt>
      <trkpt lat="45.87731" lon="1.24411">
        <ele>356.7</ele>
        <time>2024-11-05T14:40:21Z</time>
      </trkpt>
      <trkpt lat="45.87736" lon="1.24413">
        <ele>357.1</ele>
        <time>2024-11-05T14:40:23Z</time>
      </trkpt>
      <trkpt lat="45.87739" lon="1.24415">
        <ele>357.4</ele>
        <time>2024-11-05T14:40:24Z</time>
      </trkpt>
      <trkpt lat="45.87742" lon="1.24417">
        <ele>357.6</ele>
        <time>2024-11-05T14:40:25Z</time>
      </trkpt>
      <trkpt lat="45.87746" lon="1.24419">
        <ele>357.6</ele>
        <time>2024-11-05T14:40:27Z</time>
      </trkpt>
      <trkpt lat="45.87749" lon="1.24421">
        <ele>357.7</ele>
        <time>2024-11-05T14:40:28Z</time>
      </trkpt>
      <trkpt lat="45.87752" lon="1.24422">
        <ele>357.8</ele>
        <time>2024-11-05T14:40:29Z</time>
      </trkpt>
      <trkpt lat="45.87755" lon="1.24424">
        <ele>357.9</ele>
        <time>2024-11-05T14:40:30Z</time>
      </trkpt>
      <trkpt lat="45.87759" lon="1.24426">
        <ele>358.3</ele>
        <time>2024-11-05T14:40:32Z</time>
      </trkpt>
      <trkpt lat="45.87763" lon="1.24428">
        <ele>358.6</ele>
        <time>2024-11-05T14:40:34Z</time>
      </trkpt>
      <trkpt lat="45.87767" lon="1.2443">
        <ele>359</ele>
        <time>2024-11-05T14:40:36Z</time>
      </trkpt>
      <trkpt lat="45.87771" lon="1.24432">
        <ele>359.3</ele>
        <time>2024-11-05T14:40:37Z</time>
      </trkpt>
      <trkpt lat="45.87774" lon="1.24434">
        <ele>359.6</ele>
        <time>2024-11-05T14:40:38Z</time>
      </trkpt>
      <trkpt lat="45.87778" lon="1.24436">
        <ele>359.9</ele>
        <time>2024-11-05T14:40:40Z</time>
      </trkpt>
      <trkpt lat="45.87781" lon="1.24438">
        <ele>360.2</ele>
        <time>2024-11-05T14:40:41Z</time>
      </trkpt>
      <trkpt lat="45.87784" lon="1.2444">
        <ele>360.5</ele>
        <time>2024-11-05T14:40:42Z</time>
      </trkpt>
      <trkpt lat="45.87787" lon="1.24442">
        <ele>360.7</ele>
        <time>2024-11-05T14:40:43Z</time>
      </trkpt>
      <trkpt lat="45.87791" lon="1.24444">
        <ele>361.1</ele>
        <time>2024-11-05T14:40:45Z</time>
      </trkpt>
      <trkpt lat="45.87794" lon="1.24447">
        <ele>361.4</ele>
        <time>2024-11-05T14:40:46Z</time>
      </trkpt>
      <trkpt lat="45.87797" lon="1.24448">
        <ele>361.6</ele>
        <time>2024-11-05T14:40:47Z</time>
      </trkpt>
      <trkpt lat="45.87801" lon="1.24451">
        <ele>362</ele>
        <time>2024-11-05T14:40:49Z</time>
      </trkpt>
      <trkpt lat="45.87806" lon="1.24453">
        <ele>362.4</ele>
        <time>2024-11-05T14:40:51Z</time>
      </trkpt>
      <trkpt lat="45.87809" lon="1.24455">
        <ele>362.7</ele>
        <time>2024-11-05T14:40:52Z</time>
      </trkpt>
      <trkpt lat="45.87813" lon="1.24457">
        <ele>363</ele>
        <time>2024-11-05T14:40:54Z</time>
      </trkpt>
      <trkpt lat="45.87817" lon="1.2446">
        <ele>363.4</ele>
        <time>2024-11-05T14:40:57Z</time>
      </trkpt>
      <trkpt lat="45.87819" lon="1.24463">
        <ele>363.6</ele>
        <time>2024-11-05T14:40:58Z</time>
      </trkpt>
      <trkpt lat="45.87822" lon="1.24465">
        <ele>363.8</ele>
        <time>2024-11-05T14:40:59Z</time>
      </trkpt>
      <trkpt lat="45.87824" lon="1.24468">
        <ele>364</ele>
        <time>2024-11-05T14:41:00Z</time>
      </trkpt>
      <trkpt lat="45.87827" lon="1.24471">
        <ele>364.2</ele>
        <time>2024-11-05T14:41:01Z</time>
      </trkpt>
      <trkpt lat="45.8783" lon="1.24476">
        <ele>364.5</ele>
        <time>2024-11-05T14:41:03Z</time>
      </trkpt>
      <trkpt lat="45.87833" lon="1.24481">
        <ele>364.8</ele>
        <time>2024-11-05T14:41:05Z</time>
      </trkpt>
      <trkpt lat="45.87836" lon="1.24485">
        <ele>365.1</ele>
        <time>2024-11-05T14:41:06Z</time>
      </trkpt>
      <trkpt lat="45.87838" lon="1.24489">
        <ele>365.3</ele>
        <time>2024-11-05T14:41:07Z</time>
      </trkpt>
      <trkpt lat="45.8784" lon="1.24492">
        <ele>365.5</ele>
        <time>2024-11-05T14:41:08Z</time>
      </trkpt>
      <trkpt lat="45.87842" lon="1.24497">
        <ele>365.8</ele>
        <time>2024-11-05T14:41:10Z</time>
      </trkpt>
      <trkpt lat="45.87845" lon="1.24502">
        <ele>366.1</ele>
        <time>2024-11-05T14:41:12Z</time>
      </trkpt>
      <trkpt lat="45.87848" lon="1.24506">
        <ele>366.4</ele>
        <time>2024-11-05T14:41:14Z</time>
      </trkpt>
      <trkpt lat="45.87851" lon="1.24512">
        <ele>366.8</ele>
        <time>2024-11-05T14:41:16Z</time>
      </trkpt>
      <trkpt lat="45.87854" lon="1.24517">
        <ele>367.1</ele>
        <time>2024-11-05T14:41:18Z</time>
      </trkpt>
      <trkpt lat="45.87857" lon="1.24521">
        <ele>367.4</ele>
        <time>2024-11-05T14:41:19Z</time>
      </trkpt>
      <trkpt lat="45.8786" lon="1.24526">
        <ele>367.8</ele>
        <time>2024-11-05T14:41:21Z</time>
      </trkpt>
      <trkpt lat="45.87862" lon="1.24529">
        <ele>368</ele>
        <time>2024-11-05T14:41:22Z</time>
      </trkpt>
      <trkpt lat="45.87865" lon="1.24535">
        <ele>368.4</ele>
        <time>2024-11-05T14:41:24Z</time>
      </trkpt>
      <trkpt lat="45.87867" lon="1.24539">
        <ele>368.7</ele>
        <time>2024-11-05T14:41:25Z</time>
      </trkpt>
      <trkpt lat="45.87869" lon="1.24544">
        <ele>369.1</ele>
        <time>2024-11-05T14:41:27Z</time>
      </trkpt>
      <trkpt lat="45.87871" lon="1.24548">
        <ele>369.4</ele>
        <time>2024-11-05T14:41:28Z</time>
      </trkpt>
      <trkpt lat="45.87874" lon="1.24552">
        <ele>369.8</ele>
        <time>2024-11-05T14:41:30Z</time>
      </trkpt>
      <trkpt lat="45.87876" lon="1.24556">
        <ele>370.1</ele>
        <time>2024-11-05T14:41:32Z</time>
      </trkpt>
      <trkpt lat="45.87879" lon="1.24562">
        <ele>370.6</ele>
        <time>2024-11-05T14:41:34Z</time>
      </trkpt>
      <trkpt lat="45.87882" lon="1.24567">
        <ele>371</ele>
        <time>2024-11-05T14:41:36Z</time>
      </trkpt>
      <trkpt lat="45.87885" lon="1.24573">
        <ele>371.5</ele>
        <time>2024-11-05T14:41:38Z</time>
      </trkpt>
      <trkpt lat="45.87887" lon="1.24579">
        <ele>371.9</ele>
        <time>2024-11-05T14:41:40Z</time>
      </trkpt>
      <trkpt lat="45.87889" lon="1.24584">
        <ele>372.2</ele>
        <time>2024-11-05T14:41:41Z</time>
      </trkpt>
      <trkpt lat="45.87891" lon="1.24588">
        <ele>372.5</ele>
        <time>2024-11-05T14:41:42Z</time>
      </trkpt>
      <trkpt lat="45.87892" lon="1.24591">
        <ele>372.7</ele>
        <time>2024-11-05T14:41:43Z</time>
      </trkpt>
      <trkpt lat="45.87894" lon="1.24595">
        <ele>372.9</ele>
        <time>2024-11-05T14:41:44Z</time>
      </trkpt>
      <trkpt lat="45.87896" lon="1.24598">
        <ele>373.2</ele>
        <time>2024-11-05T14:41:45Z</time>
      </trkpt>
      <trkpt lat="45.87899" lon="1.24603">
        <ele>373.5</ele>
        <time>2024-11-05T14:41:47Z</time>
      </trkpt>
      <trkpt lat="45.87902" lon="1.24608">
        <ele>373.9</ele>
        <time>2024-11-05T14:41:49Z</time>
      </trkpt>
      <trkpt lat="45.87905" lon="1.24613">
        <ele>374.2</ele>
        <time>2024-11-05T14:41:51Z</time>
      </trkpt>
      <trkpt lat="45.87908" lon="1.24617">
        <ele>374.5</ele>
        <time>2024-11-05T14:41:52Z</time>
      </trkpt>
      <trkpt lat="45.8791" lon="1.24621">
        <ele>374.7</ele>
        <time>2024-11-05T14:41:53Z</time>
      </trkpt>
      <trkpt lat="45.87911" lon="1.24624">
        <ele>374.9</ele>
        <time>2024-11-05T14:41:54Z</time>
      </trkpt>
      <trkpt lat="45.87913" lon="1.24628">
        <ele>375.1</ele>
        <time>2024-11-05T14:41:55Z</time>
      </trkpt>
      <trkpt lat="45.87915" lon="1.24634">
        <ele>375.3</ele>
        <time>2024-11-05T14:41:57Z</time>
      </trkpt>
      <trkpt lat="45.87917" lon="1.24638">
        <ele>375.5</ele>
        <time>2024-11-05T14:41:58Z</time>
      </trkpt>
      <trkpt lat="45.87918" lon="1.24643">
        <ele>375.7</ele>
        <time>2024-11-05T14:41:59Z</time>
      </trkpt>
      <trkpt lat="45.87919" lon="1.24647">
        <ele>375.8</ele>
        <time>2024-11-05T14:42:00Z</time>
      </trkpt>
      <trkpt lat="45.8792" lon="1.24651">
        <ele>375.9</ele>
        <time>2024-11-05T14:42:01Z</time>
      </trkpt>
      <trkpt lat="45.87921" lon="1.24655">
        <ele>376</ele>
        <time>2024-11-05T14:42:02Z</time>
      </trkpt>
      <trkpt lat="45.87921" lon="1.24659">
        <ele>376</ele>
        <time>2024-11-05T14:42:03Z</time>
      </trkpt>
      <trkpt lat="45.87921" lon="1.24665">
        <ele>376</ele>
        <time>2024-11-05T14:42:05Z</time>
      </trkpt>
      <trkpt lat="45.87921" lon="1.2467">
        <ele>376</ele>
        <time>2024-11-05T14:42:06Z</time>
      </trkpt>
      <trkpt lat="45.87921" lon="1.24675">
        <ele>376</ele>
        <time>2024-11-05T14:42:07Z</time>
      </trkpt>
      <trkpt lat="45.8792" lon="1.2468">
        <ele>376</ele>
        <time>2024-11-05T14:42:08Z</time>
      </trkpt>
      <trkpt lat="45.87919" lon="1.24684">
        <ele>375.9</ele>
        <time>2024-11-05T14:42:09Z</time>
      </trkpt>
      <trkpt lat="45.87918" lon="1.24689">
        <ele>375.8</ele>
        <time>2024-11-05T14:42:10Z</time>
      </trkpt>
      <trkpt lat="45.87917" lon="1.24694">
        <ele>375.6</ele>
        <time>2024-11-05T14:42:11Z</time>
      </trkpt>
      <trkpt lat="45.87916" lon="1.24699">
        <ele>375.4</ele>
        <time>2024-11-05T14:42:12Z</time>
      </trkpt>
      <trkpt lat="45.87915" lon="1.24704">
        <ele>375.3</ele>
        <time>2024-11-05T14:42:13Z</time>
      </trkpt>
      <trkpt lat="45.87913" lon="1.24709">
        <ele>375</ele>
        <time>2024-11-05T14:42:14Z</time>
      </trkpt>
      <trkpt lat="45.87912" lon="1.24713">
        <ele>374.9</ele>
        <time>2024-11-05T14:42:15Z</time>
      </trkpt>
      <trkpt lat="45.8791" lon="1.24719">
        <ele>374.6</ele>
        <time>2024-11-05T14:42:16Z</time>
      </trkpt>
      <trkpt lat="45.87909" lon="1.24725">
        <ele>374.3</ele>
        <time>2024-11-05T14:42:17Z</time>
      </trkpt>
      <trkpt lat="45.87909" lon="1.24731">
        <ele>374</ele>
        <time>2024-11-05T14:42:18Z</time>
      </trkpt>
      <trkpt lat="45.87909" lon="1.24738">
        <ele>373.7</ele>
        <time>2024-11-05T14:42:19Z</time>
      </trkpt>
      <trkpt lat="45.87909" lon="1.24746">
        <ele>373.3</ele>
        <time>2024-11-05T14:42:20Z</time>
      </trkpt>
      <trkpt lat="45.87908" lon="1.24755">
        <ele>372.8</ele>
        <time>2024-11-05T14:42:21Z</time>
      </trkpt>
      <trkpt lat="45.87908" lon="1.24762">
        <ele>372.4</ele>
        <time>2024-11-05T14:42:22Z</time>
      </trkpt>
      <trkpt lat="45.87908" lon="1.2477">
        <ele>372</ele>
        <time>2024-11-05T14:42:23Z</time>
      </trkpt>
      <trkpt lat="45.87907" lon="1.24778">
        <ele>371.6</ele>
        <time>2024-11-05T14:42:24Z</time>
      </trkpt>
      <trkpt lat="45.87907" lon="1.24787">
        <ele>371.1</ele>
        <time>2024-11-05T14:42:25Z</time>
      </trkpt>
      <trkpt lat="45.87907" lon="1.24795">
        <ele>370.6</ele>
        <time>2024-11-05T14:42:26Z</time>
      </trkpt>
      <trkpt lat="45.87907" lon="1.24804">
        <ele>370.1</ele>
        <time>2024-11-05T14:42:27Z</time>
      </trkpt>
      <trkpt lat="45.87907" lon="1.24813">
        <ele>369.6</ele>
        <time>2024-11-05T14:42:28Z</time>
      </trkpt>
      <trkpt lat="45.87906" lon="1.24822">
        <ele>369.1</ele>
        <time>2024-11-05T14:42:29Z</time>
      </trkpt>
      <trkpt lat="45.87906" lon="1.2483">
        <ele>368.6</ele>
        <time>2024-11-05T14:42:30Z</time>
      </trkpt>
      <trkpt lat="45.87906" lon="1.24839">
        <ele>368</ele>
        <time>2024-11-05T14:42:31Z</time>
      </trkpt>
      <trkpt lat="45.87907" lon="1.24848">
        <ele>367.5</ele>
        <time>2024-11-05T14:42:32Z</time>
      </trkpt>
      <trkpt lat="45.87907" lon="1.24858">
        <ele>366.9</ele>
        <time>2024-11-05T14:42:33Z</time>
      </trkpt>
      <trkpt lat="45.87906" lon="1.24868">
        <ele>366.4</ele>
        <time>2024-11-05T14:42:34Z</time>
      </trkpt>
      <trkpt lat="45.87906" lon="1.24879">
        <ele>365.8</ele>
        <time>2024-11-05T14:42:35Z</time>
      </trkpt>
      <trkpt lat="45.87906" lon="1.2489">
        <ele>365.3</ele>
        <time>2024-11-05T14:42:36Z</time>
      </trkpt>
      <trkpt lat="45.87907" lon="1.24901">
        <ele>364.7</ele>
        <time>2024-11-05T14:42:37Z</time>
      </trkpt>
      <trkpt lat="45.87907" lon="1.24913">
        <ele>364.1</ele>
        <time>2024-11-05T14:42:38Z</time>
      </trkpt>
      <trkpt lat="45.87906" lon="1.24924">
        <ele>363.6</ele>
        <time>2024-11-05T14:42:39Z</time>
      </trkpt>
      <trkpt lat="45.87906" lon="1.24935">
        <ele>363.1</ele>
        <time>2024-11-05T14:42:40Z</time>
      </trkpt>
      <trkpt lat="45.87906" lon="1.24946">
        <ele>362.6</ele>
        <time>2024-11-05T14:42:41Z</time>
      </trkpt>
      <trkpt lat="45.87906" lon="1.24958">
        <ele>362.1</ele>
        <time>2024-11-05T14:42:42Z</time>
      </trkpt>
      <trkpt lat="45.87906" lon="1.24969">
        <ele>361.6</ele>
        <time>2024-11-05T14:42:43Z</time>
      </trkpt>
      <trkpt lat="45.87906" lon="1.2498">
        <ele>361.1</ele>
        <time>2024-11-05T14:42:44Z</time>
      </trkpt>
      <trkpt lat="45.87907" lon="1.24992">
        <ele>360.7</ele>
        <time>2024-11-05T14:42:45Z</time>
      </trkpt>
      <trkpt lat="45.87907" lon="1.25005">
        <ele>360.2</ele>
        <time>2024-11-05T14:42:46Z</time>
      </trkpt>
      <trkpt lat="45.87907" lon="1.25017">
        <ele>359.9</ele>
        <time>2024-11-05T14:42:47Z</time>
      </trkpt>
      <trkpt lat="45.87907" lon="1.25029">
        <ele>359.5</ele>
        <time>2024-11-05T14:42:48Z</time>
      </trkpt>
      <trkpt lat="45.87907" lon="1.25041">
        <ele>359.1</ele>
        <time>2024-11-05T14:42:49Z</time>
      </trkpt>
      <trkpt lat="45.87907" lon="1.25053">
        <ele>358.8</ele>
        <time>2024-11-05T14:42:50Z</time>
      </trkpt>
      <trkpt lat="45.87907" lon="1.25064">
        <ele>358.6</ele>
        <time>2024-11-05T14:42:51Z</time>
      </trkpt>
      <trkpt lat="45.87907" lon="1.25075">
        <ele>358.4</ele>
        <time>2024-11-05T14:42:52Z</time>
      </trkpt>
      <trkpt lat="45.87907" lon="1.25087">
        <ele>358.2</ele>
        <time>2024-11-05T14:42:53Z</time>
      </trkpt>
      <trkpt lat="45.87907" lon="1.25098">
        <ele>358</ele>
        <time>2024-11-05T14:42:54Z</time>
      </trkpt>
      <trkpt lat="45.87907" lon="1.25109">
        <ele>357.8</ele>
        <time>2024-11-05T14:42:55Z</time>
      </trkpt>
      <trkpt lat="45.87907" lon="1.2512">
        <ele>357.7</ele>
        <time>2024-11-05T14:42:56Z</time>
      </trkpt>
      <trkpt lat="45.87907" lon="1.25131">
        <ele>357.5</ele>
        <time>2024-11-05T14:42:57Z</time>
      </trkpt>
      <trkpt lat="45.87907" lon="1.25141">
        <ele>357.4</ele>
        <time>2024-11-05T14:42:58Z</time>
      </trkpt>
      <trkpt lat="45.87907" lon="1.2515">
        <ele>357.2</ele>
        <time>2024-11-05T14:42:59Z</time>
      </trkpt>
      <trkpt lat="45.87907" lon="1.25159">
        <ele>357.1</ele>
        <time>2024-11-05T14:43:00Z</time>
      </trkpt>
      <trkpt lat="45.87907" lon="1.25169">
        <ele>356.9</ele>
        <time>2024-11-05T14:43:01Z</time>
      </trkpt>
      <trkpt lat="45.87907" lon="1.25178">
        <ele>356.8</ele>
        <time>2024-11-05T14:43:02Z</time>
      </trkpt>
      <trkpt lat="45.87907" lon="1.25186">
        <ele>356.7</ele>
        <time>2024-11-05T14:43:03Z</time>
      </trkpt>
      <trkpt lat="45.87907" lon="1.25193">
        <ele>356.5</ele>
        <time>2024-11-05T14:43:04Z</time>
      </trkpt>
      <trkpt lat="45.87907" lon="1.25199">
        <ele>356.4</ele>
        <time>2024-11-05T14:43:05Z</time>
      </trkpt>
      <trkpt lat="45.87907" lon="1.25206">
        <ele>356.3</ele>
        <time>2024-11-05T14:43:06Z</time>
      </trkpt>
      <trkpt lat="45.87907" lon="1.25213">
        <ele>356.2</ele>
        <time>2024-11-05T14:43:07Z</time>
      </trkpt>
      <trkpt lat="45.87907" lon="1.25219">
        <ele>356.1</ele>
        <time>2024-11-05T14:43:08Z</time>
      </trkpt>
      <trkpt lat="45.87907" lon="1.25227">
        <ele>356</ele>
        <time>2024-11-05T14:43:09Z</time>
      </trkpt>
      <trkpt lat="45.87907" lon="1.25235">
        <ele>355.9</ele>
        <time>2024-11-05T14:43:10Z</time>
      </trkpt>
      <trkpt lat="45.87907" lon="1.25242">
        <ele>355.8</ele>
        <time>2024-11-05T14:43:11Z</time>
      </trkpt>
      <trkpt lat="45.87908" lon="1.25249">
        <ele>355.8</ele>
        <time>2024-11-05T14:43:12Z</time>
      </trkpt>
      <trkpt lat="45.87908" lon="1.25256">
        <ele>355.8</ele>
        <time>2024-11-05T14:43:13Z</time>
      </trkpt>
      <trkpt lat="45.87908" lon="1.25262">
        <ele>355.8</ele>
        <time>2024-11-05T14:43:14Z</time>
      </trkpt>
      <trkpt lat="45.87909" lon="1.25268">
        <ele>355.9</ele>
        <time>2024-11-05T14:43:15Z</time>
      </trkpt>
      <trkpt lat="45.87909" lon="1.25274">
        <ele>355.9</ele>
        <time>2024-11-05T14:43:16Z</time>
      </trkpt>
      <trkpt lat="45.8791" lon="1.2528">
        <ele>356</ele>
        <time>2024-11-05T14:43:17Z</time>
      </trkpt>
      <trkpt lat="45.87912" lon="1.25285">
        <ele>356.2</ele>
        <time>2024-11-05T14:43:18Z</time>
      </trkpt>
      <trkpt lat="45.87913" lon="1.2529">
        <ele>356.3</ele>
        <time>2024-11-05T14:43:19Z</time>
      </trkpt>
      <trkpt lat="45.87914" lon="1.25295">
        <ele>356.5</ele>
        <time>2024-11-05T14:43:20Z</time>
      </trkpt>
      <trkpt lat="45.87915" lon="1.25301">
        <ele>356.7</ele>
        <time>2024-11-05T14:43:21Z</time>
      </trkpt>
      <trkpt lat="45.87916" lon="1.25306">
        <ele>356.9</ele>
        <time>2024-11-05T14:43:22Z</time>
      </trkpt>
      <trkpt lat="45.87917" lon="1.25311">
        <ele>357.1</ele>
        <time>2024-11-05T14:43:23Z</time>
      </trkpt>
      <trkpt lat="45.87918" lon="1.25316">
        <ele>357.4</ele>
        <time>2024-11-05T14:43:24Z</time>
      </trkpt>
      <trkpt lat="45.8792" lon="1.25321">
        <ele>357.6</ele>
        <time>2024-11-05T14:43:25Z</time>
      </trkpt>
      <trkpt lat="45.87921" lon="1.25326">
        <ele>357.9</ele>
        <time>2024-11-05T14:43:26Z</time>
      </trkpt>
      <trkpt lat="45.87922" lon="1.2533">
        <ele>358.1</ele>
        <time>2024-11-05T14:43:27Z</time>
      </trkpt>
      <trkpt lat="45.87923" lon="1.25335">
        <ele>358.4</ele>
        <time>2024-11-05T14:43:28Z</time>
      </trkpt>
      <trkpt lat="45.87924" lon="1.25339">
        <ele>358.5</ele>
        <time>2024-11-05T14:43:29Z</time>
      </trkpt>
      <trkpt lat="45.87925" lon="1.25344">
        <ele>358.7</ele>
        <time>2024-11-05T14:43:30Z</time>
      </trkpt>
      <trkpt lat="45.87926" lon="1.25349">
        <ele>359</ele>
        <time>2024-11-05T14:43:31Z</time>
      </trkpt>
      <trkpt lat="45.87928" lon="1.25353">
        <ele>359.1</ele>
        <time>2024-11-05T14:43:32Z</time>
      </trkpt>
      <trkpt lat="45.87929" lon="1.25357">
        <ele>359.3</ele>
        <time>2024-11-05T14:43:33Z</time>
      </trkpt>
      <trkpt lat="45.87931" lon="1.25361">
        <ele>359.5</ele>
        <time>2024-11-05T14:43:34Z</time>
      </trkpt>
      <trkpt lat="45.87932" lon="1.25366">
        <ele>359.6</ele>
        <time>2024-11-05T14:43:35Z</time>
      </trkpt>
      <trkpt lat="45.87934" lon="1.2537">
        <ele>359.8</ele>
        <time>2024-11-05T14:43:36Z</time>
      </trkpt>
      <trkpt lat="45.87937" lon="1.25375">
        <ele>360</ele>
        <time>2024-11-05T14:43:37Z</time>
      </trkpt>
      <trkpt lat="45.87939" lon="1.25379">
        <ele>360.1</ele>
        <time>2024-11-05T14:43:38Z</time>
      </trkpt>
      <trkpt lat="45.87942" lon="1.25383">
        <ele>360.3</ele>
        <time>2024-11-05T14:43:39Z</time>
      </trkpt>
      <trkpt lat="45.87944" lon="1.25387">
        <ele>360.4</ele>
        <time>2024-11-05T14:43:40Z</time>
      </trkpt>
      <trkpt lat="45.87947" lon="1.25391">
        <ele>360.5</ele>
        <time>2024-11-05T14:43:41Z</time>
      </trkpt>
      <trkpt lat="45.87949" lon="1.25394">
        <ele>360.6</ele>
        <time>2024-11-05T14:43:42Z</time>
      </trkpt>
      <trkpt lat="45.87952" lon="1.25398">
        <ele>360.8</ele>
        <time>2024-11-05T14:43:43Z</time>
      </trkpt>
      <trkpt lat="45.87954" lon="1.25402">
        <ele>360.9</ele>
        <time>2024-11-05T14:43:44Z</time>
      </trkpt>
      <trkpt lat="45.87957" lon="1.25405">
        <ele>361</ele>
        <time>2024-11-05T14:43:45Z</time>
      </trkpt>
      <trkpt lat="45.8796" lon="1.25409">
        <ele>361.1</ele>
        <time>2024-11-05T14:43:46Z</time>
      </trkpt>
      <trkpt lat="45.87963" lon="1.25412">
        <ele>361.2</ele>
        <time>2024-11-05T14:43:47Z</time>
      </trkpt>
      <trkpt lat="45.87966" lon="1.25416">
        <ele>361.4</ele>
        <time>2024-11-05T14:43:48Z</time>
      </trkpt>
      <trkpt lat="45.87969" lon="1.25419">
        <ele>361.5</ele>
        <time>2024-11-05T14:43:49Z</time>
      </trkpt>
      <trkpt lat="45.87972" lon="1.25422">
        <ele>361.6</ele>
        <time>2024-11-05T14:43:50Z</time>
      </trkpt>
      <trkpt lat="45.87975" lon="1.25425">
        <ele>361.7</ele>
        <time>2024-11-05T14:43:51Z</time>
      </trkpt>
      <trkpt lat="45.87978" lon="1.25428">
        <ele>361.8</ele>
        <time>2024-11-05T14:43:52Z</time>
      </trkpt>
      <trkpt lat="45.8798" lon="1.25431">
        <ele>361.9</ele>
        <time>2024-11-05T14:43:53Z</time>
      </trkpt>
      <trkpt lat="45.87983" lon="1.25435">
        <ele>362</ele>
        <time>2024-11-05T14:43:54Z</time>
      </trkpt>
      <trkpt lat="45.87985" lon="1.25438">
        <ele>362.1</ele>
        <time>2024-11-05T14:43:55Z</time>
      </trkpt>
      <trkpt lat="45.87987" lon="1.25441">
        <ele>362.2</ele>
        <time>2024-11-05T14:43:56Z</time>
      </trkpt>
      <trkpt lat="45.8799" lon="1.25444">
        <ele>362.2</ele>
        <time>2024-11-05T14:43:57Z</time>
      </trkpt>
      <trkpt lat="45.87992" lon="1.25447">
        <ele>362.3</ele>
        <time>2024-11-05T14:43:58Z</time>
      </trkpt>
      <trkpt lat="45.87995" lon="1.25451">
        <ele>362.4</ele>
        <time>2024-11-05T14:43:59Z</time>
      </trkpt>
      <trkpt lat="45.87997" lon="1.25454">
        <ele>362.4</ele>
        <time>2024-11-05T14:44:00Z</time>
      </trkpt>
      <trkpt lat="45.88" lon="1.25457">
        <ele>362.5</ele>
        <time>2024-11-05T14:44:01Z</time>
      </trkpt>
      <trkpt lat="45.88002" lon="1.2546">
        <ele>362.5</ele>
        <time>2024-11-05T14:44:02Z</time>
      </trkpt>
      <trkpt lat="45.88005" lon="1.25463">
        <ele>362.6</ele>
        <time>2024-11-05T14:44:03Z</time>
      </trkpt>
      <trkpt lat="45.88008" lon="1.25467">
        <ele>362.7</ele>
        <time>2024-11-05T14:44:04Z</time>
      </trkpt>
      <trkpt lat="45.8801" lon="1.2547">
        <ele>362.7</ele>
        <time>2024-11-05T14:44:05Z</time>
      </trkpt>
      <trkpt lat="45.88013" lon="1.25474">
        <ele>362.7</ele>
        <time>2024-11-05T14:44:06Z</time>
      </trkpt>
      <trkpt lat="45.88015" lon="1.25477">
        <ele>362.8</ele>
        <time>2024-11-05T14:44:07Z</time>
      </trkpt>
      <trkpt lat="45.88018" lon="1.2548">
        <ele>362.8</ele>
        <time>2024-11-05T14:44:08Z</time>
      </trkpt>
      <trkpt lat="45.88021" lon="1.25484">
        <ele>362.9</ele>
        <time>2024-11-05T14:44:09Z</time>
      </trkpt>
      <trkpt lat="45.88023" lon="1.25487">
        <ele>362.9</ele>
        <time>2024-11-05T14:44:10Z</time>
      </trkpt>
      <trkpt lat="45.88026" lon="1.25491">
        <ele>362.9</ele>
        <time>2024-11-05T14:44:11Z</time>
      </trkpt>
      <trkpt lat="45.88029" lon="1.25494">
        <ele>363</ele>
        <time>2024-11-05T14:44:12Z</time>
      </trkpt>
      <trkpt lat="45.88031" lon="1.25498">
        <ele>363</ele>
        <time>2024-11-05T14:44:13Z</time>
      </trkpt>
      <trkpt lat="45.88034" lon="1.25502">
        <ele>363.1</ele>
        <time>2024-11-05T14:44:14Z</time>
      </trkpt>
      <trkpt lat="45.88036" lon="1.25505">
        <ele>363.2</ele>
        <time>2024-11-05T14:44:15Z</time>
      </trkpt>
      <trkpt lat="45.88039" lon="1.2551">
        <ele>363.2</ele>
        <time>2024-11-05T14:44:16Z</time>
      </trkpt>
      <trkpt lat="45.88042" lon="1.25514">
        <ele>363.3</ele>
        <time>2024-11-05T14:44:17Z</time>
      </trkpt>
      <trkpt lat="45.88044" lon="1.25519">
        <ele>363.4</ele>
        <time>2024-11-05T14:44:18Z</time>
      </trkpt>
      <trkpt lat="45.88047" lon="1.25523">
        <ele>363.4</ele>
        <time>2024-11-05T14:44:19Z</time>
      </trkpt>
      <trkpt lat="45.88049" lon="1.25528">
        <ele>363.5</ele>
        <time>2024-11-05T14:44:20Z</time>
      </trkpt>
      <trkpt lat="45.88051" lon="1.25532">
        <ele>363.6</ele>
        <time>2024-11-05T14:44:21Z</time>
      </trkpt>
      <trkpt lat="45.88053" lon="1.25537">
        <ele>363.7</ele>
        <time>2024-11-05T14:44:22Z</time>
      </trkpt>
      <trkpt lat="45.88055" lon="1.25541">
        <ele>363.7</ele>
        <time>2024-11-05T14:44:23Z</time>
      </trkpt>
      <trkpt lat="45.88056" lon="1.25545">
        <ele>363.8</ele>
        <time>2024-11-05T14:44:24Z</time>
      </trkpt>
      <trkpt lat="45.88057" lon="1.2555">
        <ele>363.8</ele>
        <time>2024-11-05T14:44:25Z</time>
      </trkpt>
      <trkpt lat="45.88059" lon="1.25554">
        <ele>363.9</ele>
        <time>2024-11-05T14:44:26Z</time>
      </trkpt>
      <trkpt lat="45.8806" lon="1.25563">
        <ele>364</ele>
        <time>2024-11-05T14:44:27Z</time>
      </trkpt>
      <trkpt lat="45.88061" lon="1.25565">
        <ele>364</ele>
        <time>2024-11-05T14:44:28Z</time>
      </trkpt>
      <trkpt lat="45.88062" lon="1.2557">
        <ele>364</ele>
        <time>2024-11-05T14:44:29Z</time>
      </trkpt>
      <trkpt lat="45.88063" lon="1.25575">
        <ele>364</ele>
        <time>2024-11-05T14:44:30Z</time>
      </trkpt>
      <trkpt lat="45.88064" lon="1.2558">
        <ele>364.1</ele>
        <time>2024-11-05T14:44:31Z</time>
      </trkpt>
      <trkpt lat="45.88065" lon="1.25585">
        <ele>364.1</ele>
        <time>2024-11-05T14:44:32Z</time>
      </trkpt>
      <trkpt lat="45.88065" lon="1.2559">
        <ele>364.1</ele>
        <time>2024-11-05T14:44:33Z</time>
      </trkpt>
      <trkpt lat="45.88066" lon="1.25596">
        <ele>364.1</ele>
        <time>2024-11-05T14:44:34Z</time>
      </trkpt>
      <trkpt lat="45.88066" lon="1.25601">
        <ele>364.1</ele>
        <time>2024-11-05T14:44:35Z</time>
      </trkpt>
      <trkpt lat="45.88067" lon="1.25607">
        <ele>364.1</ele>
        <time>2024-11-05T14:44:36Z</time>
      </trkpt>
      <trkpt lat="45.88067" lon="1.25613">
        <ele>364</ele>
        <time>2024-11-05T14:44:37Z</time>
      </trkpt>
      <trkpt lat="45.88068" lon="1.25619">
        <ele>364</ele>
        <time>2024-11-05T14:44:38Z</time>
      </trkpt>
      <trkpt lat="45.88068" lon="1.25625">
        <ele>364</ele>
        <time>2024-11-05T14:44:39Z</time>
      </trkpt>
      <trkpt lat="45.88068" lon="1.25631">
        <ele>364</ele>
        <time>2024-11-05T14:44:40Z</time>
      </trkpt>
      <trkpt lat="45.88069" lon="1.25637">
        <ele>363.9</ele>
        <time>2024-11-05T14:44:41Z</time>
      </trkpt>
      <trkpt lat="45.8807" lon="1.25643">
        <ele>363.9</ele>
        <time>2024-11-05T14:44:42Z</time>
      </trkpt>
      <trkpt lat="45.8807" lon="1.25649">
        <ele>363.8</ele>
        <time>2024-11-05T14:44:43Z</time>
      </trkpt>
      <trkpt lat="45.88071" lon="1.25655">
        <ele>363.7</ele>
        <time>2024-11-05T14:44:44Z</time>
      </trkpt>
      <trkpt lat="45.88071" lon="1.25661">
        <ele>363.7</ele>
        <time>2024-11-05T14:44:45Z</time>
      </trkpt>
      <trkpt lat="45.88072" lon="1.25667">
        <ele>363.6</ele>
        <time>2024-11-05T14:44:46Z</time>
      </trkpt>
      <trkpt lat="45.88073" lon="1.25673">
        <ele>363.6</ele>
        <time>2024-11-05T14:44:47Z</time>
      </trkpt>
      <trkpt lat="45.88074" lon="1.25679">
        <ele>363.5</ele>
        <time>2024-11-05T14:44:48Z</time>
      </trkpt>
      <trkpt lat="45.88074" lon="1.25685">
        <ele>363.5</ele>
        <time>2024-11-05T14:44:49Z</time>
      </trkpt>
      <trkpt lat="45.88075" lon="1.25691">
        <ele>363.4</ele>
        <time>2024-11-05T14:44:50Z</time>
      </trkpt>
      <trkpt lat="45.88076" lon="1.25697">
        <ele>363.4</ele>
        <time>2024-11-05T14:44:51Z</time>
      </trkpt>
      <trkpt lat="45.88076" lon="1.25703">
        <ele>363.3</ele>
        <time>2024-11-05T14:44:52Z</time>
      </trkpt>
      <trkpt lat="45.88077" lon="1.25709">
        <ele>363.3</ele>
        <time>2024-11-05T14:44:53Z</time>
      </trkpt>
      <trkpt lat="45.88077" lon="1.25715">
        <ele>363.2</ele>
        <time>2024-11-05T14:44:54Z</time>
      </trkpt>
      <trkpt lat="45.88078" lon="1.2572">
        <ele>363.2</ele>
        <time>2024-11-05T14:44:55Z</time>
      </trkpt>
      <trkpt lat="45.88078" lon="1.25726">
        <ele>363.2</ele>
        <time>2024-11-05T14:44:56Z</time>
      </trkpt>
      <trkpt lat="45.88079" lon="1.25731">
        <ele>363.2</ele>
        <time>2024-11-05T14:44:57Z</time>
      </trkpt>
      <trkpt lat="45.8808" lon="1.25737">
        <ele>363.3</ele>
        <time>2024-11-05T14:44:58Z</time>
      </trkpt>
      <trkpt lat="45.8808" lon="1.25742">
        <ele>363.3</ele>
        <time>2024-11-05T14:44:59Z</time>
      </trkpt>
      <trkpt lat="45.88081" lon="1.25747">
        <ele>363.4</ele>
        <time>2024-11-05T14:45:00Z</time>
      </trkpt>
      <trkpt lat="45.88081" lon="1.25752">
        <ele>363.4</ele>
        <time>2024-11-05T14:45:01Z</time>
      </trkpt>
      <trkpt lat="45.88081" lon="1.25758">
        <ele>363.5</ele>
        <time>2024-11-05T14:45:02Z</time>
      </trkpt>
      <trkpt lat="45.88081" lon="1.25763">
        <ele>363.5</ele>
        <time>2024-11-05T14:45:03Z</time>
      </trkpt>
      <trkpt lat="45.88082" lon="1.25768">
        <ele>363.6</ele>
        <time>2024-11-05T14:45:04Z</time>
      </trkpt>
      <trkpt lat="45.88082" lon="1.25773">
        <ele>363.6</ele>
        <time>2024-11-05T14:45:05Z</time>
      </trkpt>
      <trkpt lat="45.88082" lon="1.25778">
        <ele>363.7</ele>
        <time>2024-11-05T14:45:06Z</time>
      </trkpt>
      <trkpt lat="45.88083" lon="1.25782">
        <ele>363.7</ele>
        <time>2024-11-05T14:45:07Z</time>
      </trkpt>
      <trkpt lat="45.88083" lon="1.25787">
        <ele>363.7</ele>
        <time>2024-11-05T14:45:08Z</time>
      </trkpt>
      <trkpt lat="45.88083" lon="1.25792">
        <ele>363.7</ele>
        <time>2024-11-05T14:45:09Z</time>
      </trkpt>
      <trkpt lat="45.88083" lon="1.25797">
        <ele>363.8</ele>
        <time>2024-11-05T14:45:10Z</time>
      </trkpt>
      <trkpt lat="45.88084" lon="1.25803">
        <ele>363.7</ele>
        <time>2024-11-05T14:45:11Z</time>
      </trkpt>
      <trkpt lat="45.88084" lon="1.25808">
        <ele>363.7</ele>
        <time>2024-11-05T14:45:12Z</time>
      </trkpt>
      <trkpt lat="45.88084" lon="1.25814">
        <ele>363.7</ele>
        <time>2024-11-05T14:45:13Z</time>
      </trkpt>
      <trkpt lat="45.88085" lon="1.25819">
        <ele>363.6</ele>
        <time>2024-11-05T14:45:14Z</time>
      </trkpt>
      <trkpt lat="45.88085" lon="1.25824">
        <ele>363.5</ele>
        <time>2024-11-05T14:45:15Z</time>
      </trkpt>
      <trkpt lat="45.88085" lon="1.25829">
        <ele>363.4</ele>
        <time>2024-11-05T14:45:16Z</time>
      </trkpt>
      <trkpt lat="45.88085" lon="1.25834">
        <ele>363.3</ele>
        <time>2024-11-05T14:45:17Z</time>
      </trkpt>
      <trkpt lat="45.88086" lon="1.25838">
        <ele>363.2</ele>
        <time>2024-11-05T14:45:18Z</time>
      </trkpt>
      <trkpt lat="45.88086" lon="1.25843">
        <ele>363</ele>
        <time>2024-11-05T14:45:19Z</time>
      </trkpt>
      <trkpt lat="45.88085" lon="1.25848">
        <ele>362.8</ele>
        <time>2024-11-05T14:45:20Z</time>
      </trkpt>
      <trkpt lat="45.88085" lon="1.25853">
        <ele>362.6</ele>
        <time>2024-11-05T14:45:21Z</time>
      </trkpt>
      <trkpt lat="45.88085" lon="1.25858">
        <ele>362.4</ele>
        <time>2024-11-05T14:45:22Z</time>
      </trkpt>
      <trkpt lat="45.88084" lon="1.25864">
        <ele>362.2</ele>
        <time>2024-11-05T14:45:23Z</time>
      </trkpt>
      <trkpt lat="45.88084" lon="1.2587">
        <ele>361.9</ele>
        <time>2024-11-05T14:45:24Z</time>
      </trkpt>
      <trkpt lat="45.88083" lon="1.25877">
        <ele>361.5</ele>
        <time>2024-11-05T14:45:25Z</time>
      </trkpt>
      <trkpt lat="45.88082" lon="1.25884">
        <ele>361.2</ele>
        <time>2024-11-05T14:45:26Z</time>
      </trkpt>
      <trkpt lat="45.88081" lon="1.25892">
        <ele>360.7</ele>
        <time>2024-11-05T14:45:27Z</time>
      </trkpt>
      <trkpt lat="45.8808" lon="1.25901">
        <ele>360.2</ele>
        <time>2024-11-05T14:45:28Z</time>
      </trkpt>
      <trkpt lat="45.88079" lon="1.2591">
        <ele>359.7</ele>
        <time>2024-11-05T14:45:29Z</time>
      </trkpt>
      <trkpt lat="45.88078" lon="1.2592">
        <ele>359.1</ele>
        <time>2024-11-05T14:45:30Z</time>
      </trkpt>
      <trkpt lat="45.88076" lon="1.2593">
        <ele>358.6</ele>
        <time>2024-11-05T14:45:31Z</time>
      </trkpt>
      <trkpt lat="45.88074" lon="1.2594">
        <ele>358</ele>
        <time>2024-11-05T14:45:32Z</time>
      </trkpt>
      <trkpt lat="45.88073" lon="1.2595">
        <ele>357.4</ele>
        <time>2024-11-05T14:45:33Z</time>
      </trkpt>
      <trkpt lat="45.88071" lon="1.25961">
        <ele>356.7</ele>
        <time>2024-11-05T14:45:34Z</time>
      </trkpt>
      <trkpt lat="45.8807" lon="1.25972">
        <ele>356.1</ele>
        <time>2024-11-05T14:45:35Z</time>
      </trkpt>
      <trkpt lat="45.88069" lon="1.25984">
        <ele>355.4</ele>
        <time>2024-11-05T14:45:36Z</time>
      </trkpt>
      <trkpt lat="45.88068" lon="1.25995">
        <ele>354.9</ele>
        <time>2024-11-05T14:45:37Z</time>
      </trkpt>
      <trkpt lat="45.88067" lon="1.26007">
        <ele>354.3</ele>
        <time>2024-11-05T14:45:38Z</time>
      </trkpt>
      <trkpt lat="45.88068" lon="1.26018">
        <ele>353.9</ele>
        <time>2024-11-05T14:45:39Z</time>
      </trkpt>
      <trkpt lat="45.8807" lon="1.2603">
        <ele>353.5</ele>
        <time>2024-11-05T14:45:40Z</time>
      </trkpt>
      <trkpt lat="45.88073" lon="1.26041">
        <ele>353.1</ele>
        <time>2024-11-05T14:45:41Z</time>
      </trkpt>
      <trkpt lat="45.88077" lon="1.26052">
        <ele>353.1</ele>
        <time>2024-11-05T14:45:42Z</time>
      </trkpt>
      <trkpt lat="45.88081" lon="1.26063">
        <ele>353</ele>
        <time>2024-11-05T14:45:43Z</time>
      </trkpt>
      <trkpt lat="45.88085" lon="1.26073">
        <ele>352.8</ele>
        <time>2024-11-05T14:45:44Z</time>
      </trkpt>
      <trkpt lat="45.8809" lon="1.26082">
        <ele>352.5</ele>
        <time>2024-11-05T14:45:45Z</time>
      </trkpt>
      <trkpt lat="45.88094" lon="1.26091">
        <ele>352.3</ele>
        <time>2024-11-05T14:45:46Z</time>
      </trkpt>
      <trkpt lat="45.881" lon="1.26099">
        <ele>352.1</ele>
        <time>2024-11-05T14:45:47Z</time>
      </trkpt>
      <trkpt lat="45.88106" lon="1.26106">
        <ele>351.8</ele>
        <time>2024-11-05T14:45:48Z</time>
      </trkpt>
      <trkpt lat="45.88112" lon="1.26114">
        <ele>351.5</ele>
        <time>2024-11-05T14:45:49Z</time>
      </trkpt>
      <trkpt lat="45.88118" lon="1.26122">
        <ele>351.2</ele>
        <time>2024-11-05T14:45:50Z</time>
      </trkpt>
      <trkpt lat="45.88124" lon="1.26129">
        <ele>351</ele>
        <time>2024-11-05T14:45:51Z</time>
      </trkpt>
      <trkpt lat="45.88129" lon="1.26136">
        <ele>350.7</ele>
        <time>2024-11-05T14:45:52Z</time>
      </trkpt>
      <trkpt lat="45.88134" lon="1.26144">
        <ele>350.4</ele>
        <time>2024-11-05T14:45:53Z</time>
      </trkpt>
      <trkpt lat="45.88139" lon="1.26152">
        <ele>350.2</ele>
        <time>2024-11-05T14:45:54Z</time>
      </trkpt>
      <trkpt lat="45.88145" lon="1.2616">
        <ele>349.9</ele>
        <time>2024-11-05T14:45:55Z</time>
      </trkpt>
      <trkpt lat="45.8815" lon="1.26166">
        <ele>349.7</ele>
        <time>2024-11-05T14:45:56Z</time>
      </trkpt>
      <trkpt lat="45.88154" lon="1.26171">
        <ele>349.6</ele>
        <time>2024-11-05T14:45:57Z</time>
      </trkpt>
      <trkpt lat="45.88159" lon="1.26177">
        <ele>349.4</ele>
        <time>2024-11-05T14:45:58Z</time>
      </trkpt>
      <trkpt lat="45.88166" lon="1.26185">
        <ele>349.1</ele>
        <time>2024-11-05T14:45:59Z</time>
      </trkpt>
      <trkpt lat="45.88172" lon="1.26192">
        <ele>348.9</ele>
        <time>2024-11-05T14:46:00Z</time>
      </trkpt>
      <trkpt lat="45.88177" lon="1.26199">
        <ele>348.7</ele>
        <time>2024-11-05T14:46:01Z</time>
      </trkpt>
      <trkpt lat="45.88182" lon="1.26207">
        <ele>348.5</ele>
        <time>2024-11-05T14:46:02Z</time>
      </trkpt>
      <trkpt lat="45.88188" lon="1.26215">
        <ele>348.3</ele>
        <time>2024-11-05T14:46:03Z</time>
      </trkpt>
      <trkpt lat="45.88194" lon="1.26221">
        <ele>348.1</ele>
        <time>2024-11-05T14:46:04Z</time>
      </trkpt>
      <trkpt lat="45.88198" lon="1.26227">
        <ele>348</ele>
        <time>2024-11-05T14:46:05Z</time>
      </trkpt>
      <trkpt lat="45.88203" lon="1.26233">
        <ele>347.9</ele>
        <time>2024-11-05T14:46:06Z</time>
      </trkpt>
      <trkpt lat="45.88208" lon="1.26239">
        <ele>347.7</ele>
        <time>2024-11-05T14:46:07Z</time>
      </trkpt>
      <trkpt lat="45.88212" lon="1.26246">
        <ele>347.6</ele>
        <time>2024-11-05T14:46:08Z</time>
      </trkpt>
      <trkpt lat="45.88215" lon="1.26251">
        <ele>347.5</ele>
        <time>2024-11-05T14:46:09Z</time>
      </trkpt>
      <trkpt lat="45.8822" lon="1.26257">
        <ele>347.4</ele>
        <time>2024-11-05T14:46:10Z</time>
      </trkpt>
      <trkpt lat="45.88224" lon="1.26264">
        <ele>347.3</ele>
        <time>2024-11-05T14:46:11Z</time>
      </trkpt>
      <trkpt lat="45.88228" lon="1.2627">
        <ele>347.3</ele>
        <time>2024-11-05T14:46:12Z</time>
      </trkpt>
      <trkpt lat="45.88231" lon="1.26275">
        <ele>347.2</ele>
        <time>2024-11-05T14:46:13Z</time>
      </trkpt>
      <trkpt lat="45.88235" lon="1.26281">
        <ele>347.1</ele>
        <time>2024-11-05T14:46:14Z</time>
      </trkpt>
      <trkpt lat="45.88239" lon="1.26286">
        <ele>347.1</ele>
        <time>2024-11-05T14:46:15Z</time>
      </trkpt>
      <trkpt lat="45.88242" lon="1.26291">
        <ele>347</ele>
        <time>2024-11-05T14:46:16Z</time>
      </trkpt>
      <trkpt lat="45.88246" lon="1.26296">
        <ele>346.9</ele>
        <time>2024-11-05T14:46:17Z</time>
      </trkpt>
      <trkpt lat="45.8825" lon="1.26302">
        <ele>346.8</ele>
        <time>2024-11-05T14:46:18Z</time>
      </trkpt>
      <trkpt lat="45.88253" lon="1.26308">
        <ele>346.7</ele>
        <time>2024-11-05T14:46:19Z</time>
      </trkpt>
      <trkpt lat="45.88256" lon="1.26314">
        <ele>346.6</ele>
        <time>2024-11-05T14:46:20Z</time>
      </trkpt>
      <trkpt lat="45.8826" lon="1.2632">
        <ele>346.5</ele>
        <time>2024-11-05T14:46:21Z</time>
      </trkpt>
      <trkpt lat="45.88263" lon="1.26327">
        <ele>346.4</ele>
        <time>2024-11-05T14:46:22Z</time>
      </trkpt>
      <trkpt lat="45.88267" lon="1.26333">
        <ele>346.2</ele>
        <time>2024-11-05T14:46:23Z</time>
      </trkpt>
      <trkpt lat="45.88271" lon="1.26341">
        <ele>346</ele>
        <time>2024-11-05T14:46:24Z</time>
      </trkpt>
      <trkpt lat="45.88275" lon="1.26348">
        <ele>345.8</ele>
        <time>2024-11-05T14:46:25Z</time>
      </trkpt>
      <trkpt lat="45.88279" lon="1.26356">
        <ele>345.5</ele>
        <time>2024-11-05T14:46:26Z</time>
      </trkpt>
      <trkpt lat="45.88283" lon="1.26363">
        <ele>345.3</ele>
        <time>2024-11-05T14:46:27Z</time>
      </trkpt>
      <trkpt lat="45.88286" lon="1.26371">
        <ele>345.1</ele>
        <time>2024-11-05T14:46:28Z</time>
      </trkpt>
      <trkpt lat="45.8829" lon="1.26379">
        <ele>344.8</ele>
        <time>2024-11-05T14:46:29Z</time>
      </trkpt>
      <trkpt lat="45.88294" lon="1.26386">
        <ele>344.6</ele>
        <time>2024-11-05T14:46:30Z</time>
      </trkpt>
      <trkpt lat="45.88298" lon="1.26393">
        <ele>344.4</ele>
        <time>2024-11-05T14:46:31Z</time>
      </trkpt>
      <trkpt lat="45.88301" lon="1.26402">
        <ele>344.2</ele>
        <time>2024-11-05T14:46:32Z</time>
      </trkpt>
      <trkpt lat="45.88305" lon="1.26409">
        <ele>344</ele>
        <time>2024-11-05T14:46:33Z</time>
      </trkpt>
      <trkpt lat="45.88308" lon="1.26417">
        <ele>343.9</ele>
        <time>2024-11-05T14:46:34Z</time>
      </trkpt>
      <trkpt lat="45.88312" lon="1.26425">
        <ele>343.7</ele>
        <time>2024-11-05T14:46:35Z</time>
      </trkpt>
      <trkpt lat="45.88316" lon="1.26432">
        <ele>343.6</ele>
        <time>2024-11-05T14:46:36Z</time>
      </trkpt>
      <trkpt lat="45.88319" lon="1.26439">
        <ele>343.5</ele>
        <time>2024-11-05T14:46:37Z</time>
      </trkpt>
      <trkpt lat="45.88323" lon="1.26447">
        <ele>343.3</ele>
        <time>2024-11-05T14:46:38Z</time>
      </trkpt>
      <trkpt lat="45.88329" lon="1.26453">
        <ele>343.2</ele>
        <time>2024-11-05T14:46:39Z</time>
      </trkpt>
      <trkpt lat="45.88334" lon="1.26459">
        <ele>343.1</ele>
        <time>2024-11-05T14:46:40Z</time>
      </trkpt>
      <trkpt lat="45.8834" lon="1.26465">
        <ele>342.9</ele>
        <time>2024-11-05T14:46:41Z</time>
      </trkpt>
      <trkpt lat="45.88345" lon="1.26471">
        <ele>342.8</ele>
        <time>2024-11-05T14:46:42Z</time>
      </trkpt>
      <trkpt lat="45.8835" lon="1.26476">
        <ele>342.7</ele>
        <time>2024-11-05T14:46:43Z</time>
      </trkpt>
      <trkpt lat="45.88355" lon="1.2648">
        <ele>342.7</ele>
        <time>2024-11-05T14:46:44Z</time>
      </trkpt>
      <trkpt lat="45.8836" lon="1.26485">
        <ele>342.6</ele>
        <time>2024-11-05T14:46:45Z</time>
      </trkpt>
      <trkpt lat="45.88366" lon="1.26489">
        <ele>342.5</ele>
        <time>2024-11-05T14:46:46Z</time>
      </trkpt>
      <trkpt lat="45.88371" lon="1.26494">
        <ele>342.5</ele>
        <time>2024-11-05T14:46:47Z</time>
      </trkpt>
      <trkpt lat="45.88376" lon="1.26498">
        <ele>342.4</ele>
        <time>2024-11-05T14:46:48Z</time>
      </trkpt>
      <trkpt lat="45.88381" lon="1.26502">
        <ele>342.4</ele>
        <time>2024-11-05T14:46:49Z</time>
      </trkpt>
      <trkpt lat="45.88386" lon="1.26505">
        <ele>342.4</ele>
        <time>2024-11-05T14:46:50Z</time>
      </trkpt>
      <trkpt lat="45.88391" lon="1.26509">
        <ele>342.4</ele>
        <time>2024-11-05T14:46:51Z</time>
      </trkpt>
      <trkpt lat="45.88396" lon="1.26512">
        <ele>342.4</ele>
        <time>2024-11-05T14:46:52Z</time>
      </trkpt>
      <trkpt lat="45.88401" lon="1.26515">
        <ele>342.5</ele>
        <time>2024-11-05T14:46:53Z</time>
      </trkpt>
      <trkpt lat="45.88406" lon="1.26518">
        <ele>342.5</ele>
        <time>2024-11-05T14:46:54Z</time>
      </trkpt>
      <trkpt lat="45.8841" lon="1.26521">
        <ele>342.5</ele>
        <time>2024-11-05T14:46:55Z</time>
      </trkpt>
      <trkpt lat="45.88415" lon="1.26524">
        <ele>342.5</ele>
        <time>2024-11-05T14:46:56Z</time>
      </trkpt>
      <trkpt lat="45.88419" lon="1.26526">
        <ele>342.6</ele>
        <time>2024-11-05T14:46:57Z</time>
      </trkpt>
      <trkpt lat="45.88424" lon="1.26528">
        <ele>342.6</ele>
        <time>2024-11-05T14:46:58Z</time>
      </trkpt>
      <trkpt lat="45.88429" lon="1.26531">
        <ele>342.6</ele>
        <time>2024-11-05T14:46:59Z</time>
      </trkpt>
      <trkpt lat="45.88434" lon="1.26533">
        <ele>342.5</ele>
        <time>2024-11-05T14:47:00Z</time>
      </trkpt>
      <trkpt lat="45.88439" lon="1.26536">
        <ele>342.5</ele>
        <time>2024-11-05T14:47:01Z</time>
      </trkpt>
      <trkpt lat="45.88444" lon="1.26539">
        <ele>342.5</ele>
        <time>2024-11-05T14:47:02Z</time>
      </trkpt>
      <trkpt lat="45.88449" lon="1.26543">
        <ele>342.5</ele>
        <time>2024-11-05T14:47:03Z</time>
      </trkpt>
      <trkpt lat="45.88454" lon="1.26547">
        <ele>342.5</ele>
        <time>2024-11-05T14:47:04Z</time>
      </trkpt>
      <trkpt lat="45.88459" lon="1.26552">
        <ele>342.4</ele>
        <time>2024-11-05T14:47:05Z</time>
      </trkpt>
      <trkpt lat="45.88464" lon="1.26555">
        <ele>342.3</ele>
        <time>2024-11-05T14:47:06Z</time>
      </trkpt>
      <trkpt lat="45.88469" lon="1.2656">
        <ele>342.2</ele>
        <time>2024-11-05T14:47:07Z</time>
      </trkpt>
      <trkpt lat="45.88474" lon="1.26564">
        <ele>342.1</ele>
        <time>2024-11-05T14:47:08Z</time>
      </trkpt>
      <trkpt lat="45.88479" lon="1.26568">
        <ele>341.9</ele>
        <time>2024-11-05T14:47:09Z</time>
      </trkpt>
      <trkpt lat="45.88484" lon="1.26572">
        <ele>341.8</ele>
        <time>2024-11-05T14:47:10Z</time>
      </trkpt>
      <trkpt lat="45.88489" lon="1.26575">
        <ele>341.8</ele>
        <time>2024-11-05T14:47:11Z</time>
      </trkpt>
      <trkpt lat="45.88494" lon="1.26577">
        <ele>341.7</ele>
        <time>2024-11-05T14:47:12Z</time>
      </trkpt>
      <trkpt lat="45.88499" lon="1.2658">
        <ele>341.7</ele>
        <time>2024-11-05T14:47:13Z</time>
      </trkpt>
      <trkpt lat="45.88504" lon="1.26582">
        <ele>341.7</ele>
        <time>2024-11-05T14:47:14Z</time>
      </trkpt>
      <trkpt lat="45.88509" lon="1.26583">
        <ele>341.6</ele>
        <time>2024-11-05T14:47:15Z</time>
      </trkpt>
      <trkpt lat="45.88514" lon="1.26584">
        <ele>341.5</ele>
        <time>2024-11-05T14:47:16Z</time>
      </trkpt>
      <trkpt lat="45.8852" lon="1.26586">
        <ele>341.3</ele>
        <time>2024-11-05T14:47:17Z</time>
      </trkpt>
      <trkpt lat="45.88525" lon="1.26587">
        <ele>341.2</ele>
        <time>2024-11-05T14:47:18Z</time>
      </trkpt>
      <trkpt lat="45.8853" lon="1.26588">
        <ele>341</ele>
        <time>2024-11-05T14:47:19Z</time>
      </trkpt>
      <trkpt lat="45.88536" lon="1.2659">
        <ele>340.8</ele>
        <time>2024-11-05T14:47:20Z</time>
      </trkpt>
      <trkpt lat="45.88541" lon="1.26593">
        <ele>340.6</ele>
        <time>2024-11-05T14:47:21Z</time>
      </trkpt>
      <trkpt lat="45.88546" lon="1.26596">
        <ele>340.3</ele>
        <time>2024-11-05T14:47:22Z</time>
      </trkpt>
      <trkpt lat="45.8855" lon="1.26605">
        <ele>339.9</ele>
        <time>2024-11-05T14:47:23Z</time>
      </trkpt>
      <trkpt lat="45.88553" lon="1.26615">
        <ele>339.5</ele>
        <time>2024-11-05T14:47:24Z</time>
      </trkpt>
      <trkpt lat="45.88556" lon="1.26624">
        <ele>339</ele>
        <time>2024-11-05T14:47:25Z</time>
      </trkpt>
      <trkpt lat="45.88559" lon="1.26631">
        <ele>338.6</ele>
        <time>2024-11-05T14:47:26Z</time>
      </trkpt>
      <trkpt lat="45.88561" lon="1.26638">
        <ele>338.2</ele>
        <time>2024-11-05T14:47:27Z</time>
      </trkpt>
      <trkpt lat="45.88564" lon="1.26645">
        <ele>337.8</ele>
        <time>2024-11-05T14:47:28Z</time>
      </trkpt>
      <trkpt lat="45.88565" lon="1.2665">
        <ele>337.5</ele>
        <time>2024-11-05T14:47:29Z</time>
      </trkpt>
      <trkpt lat="45.88567" lon="1.26655">
        <ele>337.2</ele>
        <time>2024-11-05T14:47:30Z</time>
      </trkpt>
      <trkpt lat="45.88568" lon="1.26659">
        <ele>337</ele>
        <time>2024-11-05T14:47:33Z</time>
      </trkpt>
      <trkpt lat="45.88571" lon="1.2666">
        <ele>336.7</ele>
        <time>2024-11-05T14:47:35Z</time>
      </trkpt>
      <trkpt lat="45.88573" lon="1.26657">
        <ele>336.5</ele>
        <time>2024-11-05T14:47:37Z</time>
      </trkpt>
      <trkpt lat="45.88572" lon="1.26652">
        <ele>336.2</ele>
        <time>2024-11-05T14:47:39Z</time>
      </trkpt>
      <trkpt lat="45.88571" lon="1.26647">
        <ele>336</ele>
        <time>2024-11-05T14:47:41Z</time>
      </trkpt>
      <trkpt lat="45.88569" lon="1.26646">
        <ele>335.8</ele>
        <time>2024-11-05T14:47:44Z</time>
      </trkpt>
      <trkpt lat="45.88567" lon="1.26649">
        <ele>335.6</ele>
        <time>2024-11-05T14:47:46Z</time>
      </trkpt>
      <trkpt lat="45.88566" lon="1.26655">
        <ele>335.3</ele>
        <time>2024-11-05T14:47:48Z</time>
      </trkpt>
      <trkpt lat="45.88567" lon="1.2666">
        <ele>335.1</ele>
        <time>2024-11-05T14:47:49Z</time>
      </trkpt>
      <trkpt lat="45.88568" lon="1.26664">
        <ele>334.9</ele>
        <time>2024-11-05T14:47:50Z</time>
      </trkpt>
      <trkpt lat="45.88571" lon="1.26669">
        <ele>334.7</ele>
        <time>2024-11-05T14:47:51Z</time>
      </trkpt>
      <trkpt lat="45.88582" lon="1.2667">
        <ele>334.4</ele>
        <time>2024-11-05T14:47:52Z</time>
      </trkpt>
      <trkpt lat="45.8859" lon="1.2667">
        <ele>334.2</ele>
        <time>2024-11-05T14:47:53Z</time>
      </trkpt>
      <trkpt lat="45.88597" lon="1.26671">
        <ele>334.2</ele>
        <time>2024-11-05T14:47:54Z</time>
      </trkpt>
      <trkpt lat="45.88603" lon="1.26672">
        <ele>334.1</ele>
        <time>2024-11-05T14:47:55Z</time>
      </trkpt>
      <trkpt lat="45.8861" lon="1.26674">
        <ele>334.2</ele>
        <time>2024-11-05T14:47:56Z</time>
      </trkpt>
      <trkpt lat="45.88615" lon="1.26678">
        <ele>334.2</ele>
        <time>2024-11-05T14:47:57Z</time>
      </trkpt>
      <trkpt lat="45.88621" lon="1.26681">
        <ele>334.1</ele>
        <time>2024-11-05T14:47:58Z</time>
      </trkpt>
      <trkpt lat="45.88627" lon="1.26684">
        <ele>334.1</ele>
        <time>2024-11-05T14:47:59Z</time>
      </trkpt>
      <trkpt lat="45.88632" lon="1.26686">
        <ele>334.1</ele>
        <time>2024-11-05T14:48:00Z</time>
      </trkpt>
      <trkpt lat="45.88636" lon="1.26689">
        <ele>334.1</ele>
        <time>2024-11-05T14:48:01Z</time>
      </trkpt>
      <trkpt lat="45.88641" lon="1.26692">
        <ele>334.1</ele>
        <time>2024-11-05T14:48:02Z</time>
      </trkpt>
      <trkpt lat="45.88646" lon="1.26696">
        <ele>334.2</ele>
        <time>2024-11-05T14:48:03Z</time>
      </trkpt>
      <trkpt lat="45.8865" lon="1.26698">
        <ele>334.3</ele>
        <time>2024-11-05T14:48:04Z</time>
      </trkpt>
      <trkpt lat="45.88655" lon="1.267">
        <ele>334.4</ele>
        <time>2024-11-05T14:48:05Z</time>
      </trkpt>
      <trkpt lat="45.88659" lon="1.26702">
        <ele>334.6</ele>
        <time>2024-11-05T14:48:06Z</time>
      </trkpt>
      <trkpt lat="45.88664" lon="1.26705">
        <ele>334.8</ele>
        <time>2024-11-05T14:48:07Z</time>
      </trkpt>
      <trkpt lat="45.88668" lon="1.26709">
        <ele>335</ele>
        <time>2024-11-05T14:48:08Z</time>
      </trkpt>
      <trkpt lat="45.88671" lon="1.26713">
        <ele>335.1</ele>
        <time>2024-11-05T14:48:09Z</time>
      </trkpt>
      <trkpt lat="45.88674" lon="1.26717">
        <ele>335.3</ele>
        <time>2024-11-05T14:48:10Z</time>
      </trkpt>
      <trkpt lat="45.88677" lon="1.26722">
        <ele>335.5</ele>
        <time>2024-11-05T14:48:11Z</time>
      </trkpt>
      <trkpt lat="45.8868" lon="1.26727">
        <ele>335.7</ele>
        <time>2024-11-05T14:48:12Z</time>
      </trkpt>
      <trkpt lat="45.88682" lon="1.26732">
        <ele>335.9</ele>
        <time>2024-11-05T14:48:13Z</time>
      </trkpt>
      <trkpt lat="45.88685" lon="1.26737">
        <ele>336.1</ele>
        <time>2024-11-05T14:48:14Z</time>
      </trkpt>
      <trkpt lat="45.88687" lon="1.26742">
        <ele>336.3</ele>
        <time>2024-11-05T14:48:15Z</time>
      </trkpt>
      <trkpt lat="45.88689" lon="1.26747">
        <ele>336.5</ele>
        <time>2024-11-05T14:48:16Z</time>
      </trkpt>
      <trkpt lat="45.88691" lon="1.26752">
        <ele>336.7</ele>
        <time>2024-11-05T14:48:17Z</time>
      </trkpt>
      <trkpt lat="45.88693" lon="1.26757">
        <ele>336.9</ele>
        <time>2024-11-05T14:48:18Z</time>
      </trkpt>
      <trkpt lat="45.88695" lon="1.26762">
        <ele>337</ele>
        <time>2024-11-05T14:48:19Z</time>
      </trkpt>
      <trkpt lat="45.88698" lon="1.26767">
        <ele>337.2</ele>
        <time>2024-11-05T14:48:20Z</time>
      </trkpt>
      <trkpt lat="45.887" lon="1.26771">
        <ele>337.4</ele>
        <time>2024-11-05T14:48:21Z</time>
      </trkpt>
      <trkpt lat="45.88702" lon="1.26776">
        <ele>337.6</ele>
        <time>2024-11-05T14:48:22Z</time>
      </trkpt>
      <trkpt lat="45.88704" lon="1.26781">
        <ele>337.8</ele>
        <time>2024-11-05T14:48:23Z</time>
      </trkpt>
      <trkpt lat="45.88706" lon="1.26786">
        <ele>338</ele>
        <time>2024-11-05T14:48:24Z</time>
      </trkpt>
      <trkpt lat="45.88709" lon="1.26791">
        <ele>338.2</ele>
        <time>2024-11-05T14:48:25Z</time>
      </trkpt>
      <trkpt lat="45.88711" lon="1.26795">
        <ele>338.3</ele>
        <time>2024-11-05T14:48:26Z</time>
      </trkpt>
      <trkpt lat="45.88713" lon="1.26799">
        <ele>338.5</ele>
        <time>2024-11-05T14:48:27Z</time>
      </trkpt>
      <trkpt lat="45.88716" lon="1.26803">
        <ele>338.7</ele>
        <time>2024-11-05T14:48:28Z</time>
      </trkpt>
      <trkpt lat="45.88718" lon="1.26806">
        <ele>338.9</ele>
        <time>2024-11-05T14:48:29Z</time>
      </trkpt>
      <trkpt lat="45.8872" lon="1.26811">
        <ele>339.1</ele>
        <time>2024-11-05T14:48:31Z</time>
      </trkpt>
      <trkpt lat="45.88724" lon="1.26814">
        <ele>339.3</ele>
        <time>2024-11-05T14:48:33Z</time>
      </trkpt>
      <trkpt lat="45.88727" lon="1.26817">
        <ele>339.5</ele>
        <time>2024-11-05T14:48:34Z</time>
      </trkpt>
      <trkpt lat="45.88729" lon="1.2682">
        <ele>339.6</ele>
        <time>2024-11-05T14:48:35Z</time>
      </trkpt>
      <trkpt lat="45.88732" lon="1.26822">
        <ele>339.8</ele>
        <time>2024-11-05T14:48:36Z</time>
      </trkpt>
      <trkpt lat="45.88735" lon="1.26825">
        <ele>339.9</ele>
        <time>2024-11-05T14:48:37Z</time>
      </trkpt>
      <trkpt lat="45.88737" lon="1.26828">
        <ele>340.1</ele>
        <time>2024-11-05T14:48:38Z</time>
      </trkpt>
      <trkpt lat="45.8874" lon="1.26831">
        <ele>340.3</ele>
        <time>2024-11-05T14:48:39Z</time>
      </trkpt>
      <trkpt lat="45.88743" lon="1.26834">
        <ele>340.4</ele>
        <time>2024-11-05T14:48:40Z</time>
      </trkpt>
      <trkpt lat="45.88745" lon="1.26838">
        <ele>340.6</ele>
        <time>2024-11-05T14:48:42Z</time>
      </trkpt>
      <trkpt lat="45.88748" lon="1.26841">
        <ele>340.7</ele>
        <time>2024-11-05T14:48:43Z</time>
      </trkpt>
      <trkpt lat="45.88751" lon="1.26844">
        <ele>340.9</ele>
        <time>2024-11-05T14:48:44Z</time>
      </trkpt>
      <trkpt lat="45.88754" lon="1.26847">
        <ele>341.1</ele>
        <time>2024-11-05T14:48:45Z</time>
      </trkpt>
      <trkpt lat="45.88757" lon="1.2685">
        <ele>341.2</ele>
        <time>2024-11-05T14:48:46Z</time>
      </trkpt>
      <trkpt lat="45.8876" lon="1.26853">
        <ele>341.4</ele>
        <time>2024-11-05T14:48:47Z</time>
      </trkpt>
      <trkpt lat="45.88764" lon="1.26855">
        <ele>341.6</ele>
        <time>2024-11-05T14:48:48Z</time>
      </trkpt>
      <trkpt lat="45.88767" lon="1.26859">
        <ele>341.7</ele>
        <time>2024-11-05T14:48:49Z</time>
      </trkpt>
      <trkpt lat="45.88769" lon="1.26862">
        <ele>341.8</ele>
        <time>2024-11-05T14:48:50Z</time>
      </trkpt>
      <trkpt lat="45.88772" lon="1.26865">
        <ele>342</ele>
        <time>2024-11-05T14:48:51Z</time>
      </trkpt>
      <trkpt lat="45.88775" lon="1.26869">
        <ele>342.1</ele>
        <time>2024-11-05T14:48:52Z</time>
      </trkpt>
      <trkpt lat="45.88778" lon="1.26871">
        <ele>342.2</ele>
        <time>2024-11-05T14:48:53Z</time>
      </trkpt>
      <trkpt lat="45.8878" lon="1.26874">
        <ele>342.3</ele>
        <time>2024-11-05T14:48:54Z</time>
      </trkpt>
      <trkpt lat="45.88782" lon="1.26877">
        <ele>342.4</ele>
        <time>2024-11-05T14:48:55Z</time>
      </trkpt>
      <trkpt lat="45.88784" lon="1.26881">
        <ele>342.5</ele>
        <time>2024-11-05T14:48:56Z</time>
      </trkpt>
      <trkpt lat="45.88786" lon="1.26884">
        <ele>342.6</ele>
        <time>2024-11-05T14:48:57Z</time>
      </trkpt>
      <trkpt lat="45.88789" lon="1.26888">
        <ele>342.7</ele>
        <time>2024-11-05T14:48:58Z</time>
      </trkpt>
      <trkpt lat="45.88791" lon="1.26891">
        <ele>342.8</ele>
        <time>2024-11-05T14:48:59Z</time>
      </trkpt>
      <trkpt lat="45.88794" lon="1.26894">
        <ele>342.8</ele>
        <time>2024-11-05T14:49:00Z</time>
      </trkpt>
      <trkpt lat="45.88797" lon="1.26898">
        <ele>342.9</ele>
        <time>2024-11-05T14:49:01Z</time>
      </trkpt>
      <trkpt lat="45.88801" lon="1.26901">
        <ele>343</ele>
        <time>2024-11-05T14:49:02Z</time>
      </trkpt>
      <trkpt lat="45.88804" lon="1.26905">
        <ele>343</ele>
        <time>2024-11-05T14:49:03Z</time>
      </trkpt>
      <trkpt lat="45.88808" lon="1.26908">
        <ele>343.1</ele>
        <time>2024-11-05T14:49:04Z</time>
      </trkpt>
      <trkpt lat="45.88811" lon="1.26912">
        <ele>343.1</ele>
        <time>2024-11-05T14:49:05Z</time>
      </trkpt>
      <trkpt lat="45.88815" lon="1.26915">
        <ele>343.1</ele>
        <time>2024-11-05T14:49:06Z</time>
      </trkpt>
      <trkpt lat="45.88819" lon="1.2692">
        <ele>343.2</ele>
        <time>2024-11-05T14:49:07Z</time>
      </trkpt>
      <trkpt lat="45.88823" lon="1.26923">
        <ele>343.2</ele>
        <time>2024-11-05T14:49:08Z</time>
      </trkpt>
      <trkpt lat="45.88827" lon="1.26927">
        <ele>343.2</ele>
        <time>2024-11-05T14:49:09Z</time>
      </trkpt>
      <trkpt lat="45.88831" lon="1.2693">
        <ele>343.2</ele>
        <time>2024-11-05T14:49:10Z</time>
      </trkpt>
      <trkpt lat="45.88835" lon="1.26934">
        <ele>343.2</ele>
        <time>2024-11-05T14:49:11Z</time>
      </trkpt>
      <trkpt lat="45.88839" lon="1.26938">
        <ele>343.3</ele>
        <time>2024-11-05T14:49:12Z</time>
      </trkpt>
      <trkpt lat="45.88844" lon="1.26941">
        <ele>343.4</ele>
        <time>2024-11-05T14:49:13Z</time>
      </trkpt>
      <trkpt lat="45.88848" lon="1.26945">
        <ele>343.4</ele>
        <time>2024-11-05T14:49:14Z</time>
      </trkpt>
      <trkpt lat="45.88853" lon="1.26949">
        <ele>343.5</ele>
        <time>2024-11-05T14:49:15Z</time>
      </trkpt>
      <trkpt lat="45.88858" lon="1.26953">
        <ele>343.5</ele>
        <time>2024-11-05T14:49:16Z</time>
      </trkpt>
      <trkpt lat="45.88862" lon="1.26956">
        <ele>343.6</ele>
        <time>2024-11-05T14:49:17Z</time>
      </trkpt>
      <trkpt lat="45.88868" lon="1.26961">
        <ele>343.7</ele>
        <time>2024-11-05T14:49:18Z</time>
      </trkpt>
      <trkpt lat="45.88873" lon="1.26965">
        <ele>343.7</ele>
        <time>2024-11-05T14:49:19Z</time>
      </trkpt>
      <trkpt lat="45.88877" lon="1.26969">
        <ele>343.8</ele>
        <time>2024-11-05T14:49:20Z</time>
      </trkpt>
      <trkpt lat="45.88882" lon="1.26973">
        <ele>343.9</ele>
        <time>2024-11-05T14:49:21Z</time>
      </trkpt>
      <trkpt lat="45.88886" lon="1.26977">
        <ele>344.1</ele>
        <time>2024-11-05T14:49:22Z</time>
      </trkpt>
      <trkpt lat="45.8889" lon="1.2698">
        <ele>344.3</ele>
        <time>2024-11-05T14:49:23Z</time>
      </trkpt>
      <trkpt lat="45.88894" lon="1.26983">
        <ele>344.5</ele>
        <time>2024-11-05T14:49:24Z</time>
      </trkpt>
      <trkpt lat="45.88897" lon="1.26986">
        <ele>344.7</ele>
        <time>2024-11-05T14:49:25Z</time>
      </trkpt>
      <trkpt lat="45.889" lon="1.26988">
        <ele>344.8</ele>
        <time>2024-11-05T14:49:26Z</time>
      </trkpt>
      <trkpt lat="45.88903" lon="1.26991">
        <ele>345</ele>
        <time>2024-11-05T14:49:27Z</time>
      </trkpt>
      <trkpt lat="45.88906" lon="1.26993">
        <ele>345.2</ele>
        <time>2024-11-05T14:49:28Z</time>
      </trkpt>
      <trkpt lat="45.88909" lon="1.26995">
        <ele>345.4</ele>
        <time>2024-11-05T14:49:29Z</time>
      </trkpt>
      <trkpt lat="45.88911" lon="1.26997">
        <ele>345.6</ele>
        <time>2024-11-05T14:49:30Z</time>
      </trkpt>
      <trkpt lat="45.88914" lon="1.26999">
        <ele>345.8</ele>
        <time>2024-11-05T14:49:31Z</time>
      </trkpt>
      <trkpt lat="45.88917" lon="1.27">
        <ele>346</ele>
        <time>2024-11-05T14:49:32Z</time>
      </trkpt>
      <trkpt lat="45.8892" lon="1.27002">
        <ele>346.2</ele>
        <time>2024-11-05T14:49:33Z</time>
      </trkpt>
      <trkpt lat="45.88923" lon="1.27003">
        <ele>346.4</ele>
        <time>2024-11-05T14:49:34Z</time>
      </trkpt>
      <trkpt lat="45.88926" lon="1.27004">
        <ele>346.6</ele>
        <time>2024-11-05T14:49:35Z</time>
      </trkpt>
      <trkpt lat="45.88929" lon="1.27006">
        <ele>346.8</ele>
        <time>2024-11-05T14:49:36Z</time>
      </trkpt>
      <trkpt lat="45.88932" lon="1.27007">
        <ele>347</ele>
        <time>2024-11-05T14:49:37Z</time>
      </trkpt>
      <trkpt lat="45.88935" lon="1.27007">
        <ele>347.2</ele>
        <time>2024-11-05T14:49:38Z</time>
      </trkpt>
      <trkpt lat="45.88938" lon="1.27008">
        <ele>347.4</ele>
        <time>2024-11-05T14:49:39Z</time>
      </trkpt>
      <trkpt lat="45.88941" lon="1.27008">
        <ele>347.6</ele>
        <time>2024-11-05T14:49:40Z</time>
      </trkpt>
      <trkpt lat="45.88944" lon="1.27009">
        <ele>347.9</ele>
        <time>2024-11-05T14:49:41Z</time>
      </trkpt>
      <trkpt lat="45.88948" lon="1.27011">
        <ele>348.1</ele>
        <time>2024-11-05T14:49:43Z</time>
      </trkpt>
      <trkpt lat="45.88951" lon="1.27013">
        <ele>348.3</ele>
        <time>2024-11-05T14:49:44Z</time>
      </trkpt>
      <trkpt lat="45.88954" lon="1.27017">
        <ele>348.6</ele>
        <time>2024-11-05T14:49:46Z</time>
      </trkpt>
      <trkpt lat="45.88957" lon="1.27019">
        <ele>348.8</ele>
        <time>2024-11-05T14:49:48Z</time>
      </trkpt>
      <trkpt lat="45.88961" lon="1.27018">
        <ele>349.1</ele>
        <time>2024-11-05T14:49:50Z</time>
      </trkpt>
      <trkpt lat="45.88966" lon="1.27016">
        <ele>349.4</ele>
        <time>2024-11-05T14:49:52Z</time>
      </trkpt>
      <trkpt lat="45.8897" lon="1.27015">
        <ele>349.7</ele>
        <time>2024-11-05T14:49:53Z</time>
      </trkpt>
      <trkpt lat="45.88973" lon="1.27015">
        <ele>349.9</ele>
        <time>2024-11-05T14:49:54Z</time>
      </trkpt>
      <trkpt lat="45.88976" lon="1.27015">
        <ele>350.1</ele>
        <time>2024-11-05T14:49:55Z</time>
      </trkpt>
      <trkpt lat="45.88979" lon="1.27015">
        <ele>350.2</ele>
        <time>2024-11-05T14:49:56Z</time>
      </trkpt>
      <trkpt lat="45.88982" lon="1.27015">
        <ele>350.4</ele>
        <time>2024-11-05T14:49:57Z</time>
      </trkpt>
      <trkpt lat="45.88985" lon="1.27015">
        <ele>350.6</ele>
        <time>2024-11-05T14:49:58Z</time>
      </trkpt>
      <trkpt lat="45.88989" lon="1.27016">
        <ele>350.8</ele>
        <time>2024-11-05T14:49:59Z</time>
      </trkpt>
      <trkpt lat="45.88992" lon="1.27016">
        <ele>351</ele>
        <time>2024-11-05T14:50:00Z</time>
      </trkpt>
      <trkpt lat="45.88996" lon="1.27016">
        <ele>351.1</ele>
        <time>2024-11-05T14:50:01Z</time>
      </trkpt>
      <trkpt lat="45.89" lon="1.27016">
        <ele>351.3</ele>
        <time>2024-11-05T14:50:02Z</time>
      </trkpt>
      <trkpt lat="45.89003" lon="1.27015">
        <ele>351.4</ele>
        <time>2024-11-05T14:50:03Z</time>
      </trkpt>
      <trkpt lat="45.89007" lon="1.27015">
        <ele>351.5</ele>
        <time>2024-11-05T14:50:04Z</time>
      </trkpt>
      <trkpt lat="45.8901" lon="1.27015">
        <ele>351.5</ele>
        <time>2024-11-05T14:50:05Z</time>
      </trkpt>
      <trkpt lat="45.89014" lon="1.27015">
        <ele>351.6</ele>
        <time>2024-11-05T14:50:06Z</time>
      </trkpt>
      <trkpt lat="45.89018" lon="1.27015">
        <ele>351.6</ele>
        <time>2024-11-05T14:50:07Z</time>
      </trkpt>
      <trkpt lat="45.89021" lon="1.27015">
        <ele>351.7</ele>
        <time>2024-11-05T14:50:08Z</time>
      </trkpt>
      <trkpt lat="45.89025" lon="1.27015">
        <ele>351.7</ele>
        <time>2024-11-05T14:50:09Z</time>
      </trkpt>
      <trkpt lat="45.89029" lon="1.27015">
        <ele>351.8</ele>
        <time>2024-11-05T14:50:10Z</time>
      </trkpt>
      <trkpt lat="45.89033" lon="1.27015">
        <ele>351.8</ele>
        <time>2024-11-05T14:50:11Z</time>
      </trkpt>
      <trkpt lat="45.89037" lon="1.27015">
        <ele>351.8</ele>
        <time>2024-11-05T14:50:12Z</time>
      </trkpt>
      <trkpt lat="45.89041" lon="1.27015">
        <ele>351.8</ele>
        <time>2024-11-05T14:50:13Z</time>
      </trkpt>
      <trkpt lat="45.89045" lon="1.27015">
        <ele>351.8</ele>
        <time>2024-11-05T14:50:14Z</time>
      </trkpt>
      <trkpt lat="45.89049" lon="1.27015">
        <ele>351.8</ele>
        <time>2024-11-05T14:50:15Z</time>
      </trkpt>
      <trkpt lat="45.89053" lon="1.27014">
        <ele>351.8</ele>
        <time>2024-11-05T14:50:16Z</time>
      </trkpt>
      <trkpt lat="45.89058" lon="1.27014">
        <ele>351.8</ele>
        <time>2024-11-05T14:50:17Z</time>
      </trkpt>
      <trkpt lat="45.89062" lon="1.27014">
        <ele>351.8</ele>
        <time>2024-11-05T14:50:18Z</time>
      </trkpt>
      <trkpt lat="45.89067" lon="1.27013">
        <ele>351.8</ele>
        <time>2024-11-05T14:50:19Z</time>
      </trkpt>
      <trkpt lat="45.89072" lon="1.27012">
        <ele>351.8</ele>
        <time>2024-11-05T14:50:20Z</time>
      </trkpt>
      <trkpt lat="45.89077" lon="1.27012">
        <ele>351.8</ele>
        <time>2024-11-05T14:50:21Z</time>
      </trkpt>
      <trkpt lat="45.89082" lon="1.27011">
        <ele>351.7</ele>
        <time>2024-11-05T14:50:22Z</time>
      </trkpt>
      <trkpt lat="45.89088" lon="1.2701">
        <ele>351.7</ele>
        <time>2024-11-05T14:50:23Z</time>
      </trkpt>
      <trkpt lat="45.89093" lon="1.27009">
        <ele>351.6</ele>
        <time>2024-11-05T14:50:24Z</time>
      </trkpt>
      <trkpt lat="45.89098" lon="1.27008">
        <ele>351.5</ele>
        <time>2024-11-05T14:50:25Z</time>
      </trkpt>
      <trkpt lat="45.89104" lon="1.27007">
        <ele>351.4</ele>
        <time>2024-11-05T14:50:26Z</time>
      </trkpt>
      <trkpt lat="45.89109" lon="1.27006">
        <ele>351.4</ele>
        <time>2024-11-05T14:50:27Z</time>
      </trkpt>
      <trkpt lat="45.89114" lon="1.27005">
        <ele>351.4</ele>
        <time>2024-11-05T14:50:28Z</time>
      </trkpt>
      <trkpt lat="45.89119" lon="1.27004">
        <ele>351.4</ele>
        <time>2024-11-05T14:50:29Z</time>
      </trkpt>
      <trkpt lat="45.89124" lon="1.27003">
        <ele>351.4</ele>
        <time>2024-11-05T14:50:30Z</time>
      </trkpt>
      <trkpt lat="45.89129" lon="1.27002">
        <ele>351.5</ele>
        <time>2024-11-05T14:50:31Z</time>
      </trkpt>
      <trkpt lat="45.89134" lon="1.27002">
        <ele>351.6</ele>
        <time>2024-11-05T14:50:32Z</time>
      </trkpt>
      <trkpt lat="45.89138" lon="1.27001">
        <ele>351.6</ele>
        <time>2024-11-05T14:50:33Z</time>
      </trkpt>
      <trkpt lat="45.89143" lon="1.27">
        <ele>351.7</ele>
        <time>2024-11-05T14:50:34Z</time>
      </trkpt>
      <trkpt lat="45.89147" lon="1.26999">
        <ele>351.8</ele>
        <time>2024-11-05T14:50:35Z</time>
      </trkpt>
      <trkpt lat="45.89152" lon="1.26997">
        <ele>351.9</ele>
        <time>2024-11-05T14:50:36Z</time>
      </trkpt>
      <trkpt lat="45.89157" lon="1.26996">
        <ele>352.1</ele>
        <time>2024-11-05T14:50:37Z</time>
      </trkpt>
      <trkpt lat="45.89161" lon="1.26995">
        <ele>352.2</ele>
        <time>2024-11-05T14:50:38Z</time>
      </trkpt>
      <trkpt lat="45.89166" lon="1.26994">
        <ele>352.3</ele>
        <time>2024-11-05T14:50:39Z</time>
      </trkpt>
      <trkpt lat="45.8917" lon="1.26992">
        <ele>352.4</ele>
        <time>2024-11-05T14:50:40Z</time>
      </trkpt>
      <trkpt lat="45.89175" lon="1.26991">
        <ele>352.6</ele>
        <time>2024-11-05T14:50:41Z</time>
      </trkpt>
      <trkpt lat="45.89179" lon="1.2699">
        <ele>352.6</ele>
        <time>2024-11-05T14:50:42Z</time>
      </trkpt>
      <trkpt lat="45.89184" lon="1.26988">
        <ele>352.8</ele>
        <time>2024-11-05T14:50:43Z</time>
      </trkpt>
      <trkpt lat="45.89188" lon="1.26987">
        <ele>352.9</ele>
        <time>2024-11-05T14:50:44Z</time>
      </trkpt>
      <trkpt lat="45.89193" lon="1.26986">
        <ele>353</ele>
        <time>2024-11-05T14:50:45Z</time>
      </trkpt>
      <trkpt lat="45.89197" lon="1.26985">
        <ele>353.1</ele>
        <time>2024-11-05T14:50:46Z</time>
      </trkpt>
      <trkpt lat="45.89202" lon="1.26984">
        <ele>353.2</ele>
        <time>2024-11-05T14:50:47Z</time>
      </trkpt>
      <trkpt lat="45.89206" lon="1.26983">
        <ele>353.2</ele>
        <time>2024-11-05T14:50:48Z</time>
      </trkpt>
      <trkpt lat="45.8921" lon="1.26982">
        <ele>353.3</ele>
        <time>2024-11-05T14:50:49Z</time>
      </trkpt>
      <trkpt lat="45.89213" lon="1.26983">
        <ele>353.4</ele>
        <time>2024-11-05T14:50:50Z</time>
      </trkpt>
      <trkpt lat="45.89217" lon="1.26985">
        <ele>353.4</ele>
        <time>2024-11-05T14:50:51Z</time>
      </trkpt>
      <trkpt lat="45.89219" lon="1.26988">
        <ele>353.3</ele>
        <time>2024-11-05T14:50:52Z</time>
      </trkpt>
      <trkpt lat="45.89221" lon="1.26992">
        <ele>353.2</ele>
        <time>2024-11-05T14:50:54Z</time>
      </trkpt>
      <trkpt lat="45.89221" lon="1.26998">
        <ele>352.9</ele>
        <time>2024-11-05T14:50:56Z</time>
      </trkpt>
      <trkpt lat="45.8922" lon="1.27003">
        <ele>352.6</ele>
        <time>2024-11-05T14:50:57Z</time>
      </trkpt>
      <trkpt lat="45.89218" lon="1.27009">
        <ele>352.2</ele>
        <time>2024-11-05T14:50:58Z</time>
      </trkpt>
      <trkpt lat="45.89216" lon="1.27014">
        <ele>351.9</ele>
        <time>2024-11-05T14:50:59Z</time>
      </trkpt>
      <trkpt lat="45.89213" lon="1.2702">
        <ele>351.6</ele>
        <time>2024-11-05T14:51:00Z</time>
      </trkpt>
      <trkpt lat="45.89211" lon="1.27026">
        <ele>351.3</ele>
        <time>2024-11-05T14:51:01Z</time>
      </trkpt>
      <trkpt lat="45.89208" lon="1.27032">
        <ele>351</ele>
        <time>2024-11-05T14:51:02Z</time>
      </trkpt>
      <trkpt lat="45.89205" lon="1.27039">
        <ele>350.7</ele>
        <time>2024-11-05T14:51:03Z</time>
      </trkpt>
      <trkpt lat="45.89202" lon="1.27046">
        <ele>350.5</ele>
        <time>2024-11-05T14:51:04Z</time>
      </trkpt>
      <trkpt lat="45.89199" lon="1.27053">
        <ele>350.2</ele>
        <time>2024-11-05T14:51:05Z</time>
      </trkpt>
      <trkpt lat="45.89197" lon="1.2706">
        <ele>350</ele>
        <time>2024-11-05T14:51:06Z</time>
      </trkpt>
      <trkpt lat="45.89194" lon="1.27067">
        <ele>349.8</ele>
        <time>2024-11-05T14:51:07Z</time>
      </trkpt>
      <trkpt lat="45.89191" lon="1.27074">
        <ele>349.6</ele>
        <time>2024-11-05T14:51:08Z</time>
      </trkpt>
      <trkpt lat="45.89189" lon="1.27081">
        <ele>349.4</ele>
        <time>2024-11-05T14:51:09Z</time>
      </trkpt>
      <trkpt lat="45.89186" lon="1.27088">
        <ele>349.1</ele>
        <time>2024-11-05T14:51:10Z</time>
      </trkpt>
      <trkpt lat="45.89183" lon="1.27095">
        <ele>348.9</ele>
        <time>2024-11-05T14:51:11Z</time>
      </trkpt>
      <trkpt lat="45.8918" lon="1.27101">
        <ele>348.7</ele>
        <time>2024-11-05T14:51:12Z</time>
      </trkpt>
      <trkpt lat="45.89177" lon="1.27108">
        <ele>348.6</ele>
        <time>2024-11-05T14:51:13Z</time>
      </trkpt>
      <trkpt lat="45.89174" lon="1.27115">
        <ele>348.5</ele>
        <time>2024-11-05T14:51:14Z</time>
      </trkpt>
      <trkpt lat="45.89172" lon="1.27122">
        <ele>348.4</ele>
        <time>2024-11-05T14:51:15Z</time>
      </trkpt>
      <trkpt lat="45.89169" lon="1.27129">
        <ele>348.3</ele>
        <time>2024-11-05T14:51:16Z</time>
      </trkpt>
      <trkpt lat="45.89167" lon="1.27135">
        <ele>348.2</ele>
        <time>2024-11-05T14:51:17Z</time>
      </trkpt>
      <trkpt lat="45.89164" lon="1.27142">
        <ele>348.1</ele>
        <time>2024-11-05T14:51:18Z</time>
      </trkpt>
      <trkpt lat="45.8916" lon="1.27149">
        <ele>347.9</ele>
        <time>2024-11-05T14:51:19Z</time>
      </trkpt>
      <trkpt lat="45.89158" lon="1.27155">
        <ele>347.8</ele>
        <time>2024-11-05T14:51:20Z</time>
      </trkpt>
      <trkpt lat="45.89155" lon="1.27161">
        <ele>347.7</ele>
        <time>2024-11-05T14:51:21Z</time>
      </trkpt>
      <trkpt lat="45.89151" lon="1.27167">
        <ele>347.5</ele>
        <time>2024-11-05T14:51:22Z</time>
      </trkpt>
      <trkpt lat="45.89147" lon="1.27171">
        <ele>347.5</ele>
        <time>2024-11-05T14:51:23Z</time>
      </trkpt>
      <trkpt lat="45.89144" lon="1.27176">
        <ele>347.4</ele>
        <time>2024-11-05T14:51:24Z</time>
      </trkpt>
      <trkpt lat="45.89141" lon="1.27181">
        <ele>347.4</ele>
        <time>2024-11-05T14:51:25Z</time>
      </trkpt>
      <trkpt lat="45.89138" lon="1.27185">
        <ele>347.4</ele>
        <time>2024-11-05T14:51:26Z</time>
      </trkpt>
      <trkpt lat="45.89134" lon="1.27191">
        <ele>347.5</ele>
        <time>2024-11-05T14:51:27Z</time>
      </trkpt>
      <trkpt lat="45.89132" lon="1.27196">
        <ele>347.6</ele>
        <time>2024-11-05T14:51:28Z</time>
      </trkpt>
      <trkpt lat="45.89128" lon="1.272">
        <ele>347.6</ele>
        <time>2024-11-05T14:51:29Z</time>
      </trkpt>
      <trkpt lat="45.89126" lon="1.27205">
        <ele>347.6</ele>
        <time>2024-11-05T14:51:30Z</time>
      </trkpt>
      <trkpt lat="45.89122" lon="1.2721">
        <ele>347.6</ele>
        <time>2024-11-05T14:51:31Z</time>
      </trkpt>
      <trkpt lat="45.89119" lon="1.27215">
        <ele>347.5</ele>
        <time>2024-11-05T14:51:33Z</time>
      </trkpt>
      <trkpt lat="45.89117" lon="1.27219">
        <ele>347.4</ele>
        <time>2024-11-05T14:51:34Z</time>
      </trkpt>
      <trkpt lat="45.89113" lon="1.27224">
        <ele>347.1</ele>
        <time>2024-11-05T14:51:35Z</time>
      </trkpt>
      <trkpt lat="45.8911" lon="1.27229">
        <ele>346.7</ele>
        <time>2024-11-05T14:51:36Z</time>
      </trkpt>
      <trkpt lat="45.89107" lon="1.27235">
        <ele>346.4</ele>
        <time>2024-11-05T14:51:38Z</time>
      </trkpt>
      <trkpt lat="45.89104" lon="1.2724">
        <ele>346.2</ele>
        <time>2024-11-05T14:51:39Z</time>
      </trkpt>
      <trkpt lat="45.89102" lon="1.27244">
        <ele>346.2</ele>
        <time>2024-11-05T14:51:40Z</time>
      </trkpt>
      <trkpt lat="45.89099" lon="1.27247">
        <ele>346.2</ele>
        <time>2024-11-05T14:51:41Z</time>
      </trkpt>
      <trkpt lat="45.89096" lon="1.2725">
        <ele>346.3</ele>
        <time>2024-11-05T14:51:42Z</time>
      </trkpt>
      <trkpt lat="45.89092" lon="1.27254">
        <ele>346.5</ele>
        <time>2024-11-05T14:51:43Z</time>
      </trkpt>
      <trkpt lat="45.89089" lon="1.27258">
        <ele>346.7</ele>
        <time>2024-11-05T14:51:44Z</time>
      </trkpt>
      <trkpt lat="45.89086" lon="1.27263">
        <ele>346.9</ele>
        <time>2024-11-05T14:51:45Z</time>
      </trkpt>
      <trkpt lat="45.89083" lon="1.27268">
        <ele>347.2</ele>
        <time>2024-11-05T14:51:46Z</time>
      </trkpt>
      <trkpt lat="45.89082" lon="1.27272">
        <ele>347.3</ele>
        <time>2024-11-05T14:51:47Z</time>
      </trkpt>
      <trkpt lat="45.89081" lon="1.27278">
        <ele>347.5</ele>
        <time>2024-11-05T14:51:48Z</time>
      </trkpt>
      <trkpt lat="45.8908" lon="1.27283">
        <ele>347.6</ele>
        <time>2024-11-05T14:51:49Z</time>
      </trkpt>
      <trkpt lat="45.8908" lon="1.27287">
        <ele>347.6</ele>
        <time>2024-11-05T14:51:50Z</time>
      </trkpt>
      <trkpt lat="45.8908" lon="1.27293">
        <ele>347.6</ele>
        <time>2024-11-05T14:51:51Z</time>
      </trkpt>
      <trkpt lat="45.89081" lon="1.27298">
        <ele>347.7</ele>
        <time>2024-11-05T14:51:52Z</time>
      </trkpt>
      <trkpt lat="45.89082" lon="1.27302">
        <ele>347.7</ele>
        <time>2024-11-05T14:51:53Z</time>
      </trkpt>
      <trkpt lat="45.89083" lon="1.27307">
        <ele>347.8</ele>
        <time>2024-11-05T14:51:54Z</time>
      </trkpt>
      <trkpt lat="45.89084" lon="1.27311">
        <ele>347.9</ele>
        <time>2024-11-05T14:51:55Z</time>
      </trkpt>
      <trkpt lat="45.89086" lon="1.27315">
        <ele>348</ele>
        <time>2024-11-05T14:51:56Z</time>
      </trkpt>
      <trkpt lat="45.89087" lon="1.27319">
        <ele>348.2</ele>
        <time>2024-11-05T14:51:57Z</time>
      </trkpt>
      <trkpt lat="45.89089" lon="1.27322">
        <ele>348.3</ele>
        <time>2024-11-05T14:51:58Z</time>
      </trkpt>
      <trkpt lat="45.89091" lon="1.27326">
        <ele>348.3</ele>
        <time>2024-11-05T14:51:59Z</time>
      </trkpt>
      <trkpt lat="45.89093" lon="1.2733">
        <ele>348.4</ele>
        <time>2024-11-05T14:52:00Z</time>
      </trkpt>
      <trkpt lat="45.89095" lon="1.27335">
        <ele>348.5</ele>
        <time>2024-11-05T14:52:01Z</time>
      </trkpt>
      <trkpt lat="45.89098" lon="1.27339">
        <ele>348.6</ele>
        <time>2024-11-05T14:52:02Z</time>
      </trkpt>
      <trkpt lat="45.891" lon="1.27343">
        <ele>348.6</ele>
        <time>2024-11-05T14:52:03Z</time>
      </trkpt>
      <trkpt lat="45.89102" lon="1.27346">
        <ele>348.7</ele>
        <time>2024-11-05T14:52:04Z</time>
      </trkpt>
      <trkpt lat="45.89104" lon="1.2735">
        <ele>348.9</ele>
        <time>2024-11-05T14:52:05Z</time>
      </trkpt>
      <trkpt lat="45.89105" lon="1.27353">
        <ele>349</ele>
        <time>2024-11-05T14:52:06Z</time>
      </trkpt>
      <trkpt lat="45.89107" lon="1.27357">
        <ele>349.2</ele>
        <time>2024-11-05T14:52:07Z</time>
      </trkpt>
      <trkpt lat="45.89109" lon="1.27361">
        <ele>349.3</ele>
        <time>2024-11-05T14:52:08Z</time>
      </trkpt>
      <trkpt lat="45.89111" lon="1.27364">
        <ele>349.4</ele>
        <time>2024-11-05T14:52:09Z</time>
      </trkpt>
      <trkpt lat="45.89113" lon="1.27369">
        <ele>349.4</ele>
        <time>2024-11-05T14:52:10Z</time>
      </trkpt>
      <trkpt lat="45.89115" lon="1.27374">
        <ele>349.4</ele>
        <time>2024-11-05T14:52:11Z</time>
      </trkpt>
      <trkpt lat="45.89117" lon="1.27379">
        <ele>349.5</ele>
        <time>2024-11-05T14:52:12Z</time>
      </trkpt>
      <trkpt lat="45.8912" lon="1.27383">
        <ele>349.5</ele>
        <time>2024-11-05T14:52:13Z</time>
      </trkpt>
      <trkpt lat="45.89122" lon="1.27388">
        <ele>349.5</ele>
        <time>2024-11-05T14:52:14Z</time>
      </trkpt>
      <trkpt lat="45.89125" lon="1.27393">
        <ele>349.6</ele>
        <time>2024-11-05T14:52:15Z</time>
      </trkpt>
      <trkpt lat="45.89127" lon="1.27397">
        <ele>349.6</ele>
        <time>2024-11-05T14:52:16Z</time>
      </trkpt>
      <trkpt lat="45.8913" lon="1.27402">
        <ele>349.6</ele>
        <time>2024-11-05T14:52:17Z</time>
      </trkpt>
      <trkpt lat="45.89133" lon="1.27406">
        <ele>349.5</ele>
        <time>2024-11-05T14:52:18Z</time>
      </trkpt>
      <trkpt lat="45.89135" lon="1.2741">
        <ele>349.4</ele>
        <time>2024-11-05T14:52:19Z</time>
      </trkpt>
      <trkpt lat="45.89137" lon="1.27414">
        <ele>349.3</ele>
        <time>2024-11-05T14:52:20Z</time>
      </trkpt>
      <trkpt lat="45.8914" lon="1.27417">
        <ele>349.1</ele>
        <time>2024-11-05T14:52:21Z</time>
      </trkpt>
      <trkpt lat="45.89142" lon="1.27419">
        <ele>349</ele>
        <time>2024-11-05T14:52:22Z</time>
      </trkpt>
      <trkpt lat="45.89145" lon="1.27422">
        <ele>348.8</ele>
        <time>2024-11-05T14:52:24Z</time>
      </trkpt>
      <trkpt lat="45.89149" lon="1.27426">
        <ele>348.5</ele>
        <time>2024-11-05T14:52:25Z</time>
      </trkpt>
      <trkpt lat="45.89152" lon="1.27431">
        <ele>348.3</ele>
        <time>2024-11-05T14:52:26Z</time>
      </trkpt>
      <trkpt lat="45.89154" lon="1.27434">
        <ele>348.2</ele>
        <time>2024-11-05T14:52:27Z</time>
      </trkpt>
      <trkpt lat="45.89156" lon="1.27437">
        <ele>348</ele>
        <time>2024-11-05T14:52:28Z</time>
      </trkpt>
      <trkpt lat="45.89159" lon="1.27441">
        <ele>347.8</ele>
        <time>2024-11-05T14:52:29Z</time>
      </trkpt>
      <trkpt lat="45.89161" lon="1.27444">
        <ele>347.7</ele>
        <time>2024-11-05T14:52:30Z</time>
      </trkpt>
      <trkpt lat="45.89164" lon="1.27447">
        <ele>347.6</ele>
        <time>2024-11-05T14:52:31Z</time>
      </trkpt>
      <trkpt lat="45.89167" lon="1.2745">
        <ele>347.4</ele>
        <time>2024-11-05T14:52:32Z</time>
      </trkpt>
      <trkpt lat="45.89169" lon="1.27453">
        <ele>347.4</ele>
        <time>2024-11-05T14:52:33Z</time>
      </trkpt>
      <trkpt lat="45.89172" lon="1.27457">
        <ele>347.3</ele>
        <time>2024-11-05T14:52:34Z</time>
      </trkpt>
      <trkpt lat="45.89174" lon="1.2746">
        <ele>347.3</ele>
        <time>2024-11-05T14:52:35Z</time>
      </trkpt>
      <trkpt lat="45.89177" lon="1.27464">
        <ele>347.3</ele>
        <time>2024-11-05T14:52:36Z</time>
      </trkpt>
      <trkpt lat="45.89179" lon="1.27468">
        <ele>347.2</ele>
        <time>2024-11-05T14:52:37Z</time>
      </trkpt>
      <trkpt lat="45.89181" lon="1.27473">
        <ele>347.2</ele>
        <time>2024-11-05T14:52:38Z</time>
      </trkpt>
      <trkpt lat="45.89184" lon="1.27477">
        <ele>347.1</ele>
        <time>2024-11-05T14:52:39Z</time>
      </trkpt>
      <trkpt lat="45.89186" lon="1.27482">
        <ele>346.9</ele>
        <time>2024-11-05T14:52:40Z</time>
      </trkpt>
      <trkpt lat="45.89189" lon="1.27486">
        <ele>347</ele>
        <time>2024-11-05T14:52:41Z</time>
      </trkpt>
      <trkpt lat="45.89191" lon="1.2749">
        <ele>346.9</ele>
        <time>2024-11-05T14:52:42Z</time>
      </trkpt>
      <trkpt lat="45.89194" lon="1.27494">
        <ele>346.9</ele>
        <time>2024-11-05T14:52:43Z</time>
      </trkpt>
      <trkpt lat="45.89197" lon="1.27499">
        <ele>346.8</ele>
        <time>2024-11-05T14:52:45Z</time>
      </trkpt>
      <trkpt lat="45.89199" lon="1.27503">
        <ele>346.8</ele>
        <time>2024-11-05T14:52:46Z</time>
      </trkpt>
      <trkpt lat="45.89201" lon="1.2751">
        <ele>346.8</ele>
        <time>2024-11-05T14:52:48Z</time>
      </trkpt>
      <trkpt lat="45.89202" lon="1.27514">
        <ele>346.6</ele>
        <time>2024-11-05T14:52:49Z</time>
      </trkpt>
      <trkpt lat="45.89204" lon="1.27519">
        <ele>346.4</ele>
        <time>2024-11-05T14:52:50Z</time>
      </trkpt>
      <trkpt lat="45.89204" lon="1.27523">
        <ele>346.2</ele>
        <time>2024-11-05T14:52:51Z</time>
      </trkpt>
      <trkpt lat="45.89205" lon="1.27528">
        <ele>346</ele>
        <time>2024-11-05T14:52:52Z</time>
      </trkpt>
      <trkpt lat="45.89206" lon="1.27532">
        <ele>345.8</ele>
        <time>2024-11-05T14:52:53Z</time>
      </trkpt>
      <trkpt lat="45.89207" lon="1.27536">
        <ele>345.8</ele>
        <time>2024-11-05T14:52:54Z</time>
      </trkpt>
      <trkpt lat="45.89209" lon="1.27541">
        <ele>345.6</ele>
        <time>2024-11-05T14:52:55Z</time>
      </trkpt>
      <trkpt lat="45.89212" lon="1.27545">
        <ele>345.6</ele>
        <time>2024-11-05T14:52:56Z</time>
      </trkpt>
      <trkpt lat="45.89213" lon="1.27549">
        <ele>345.6</ele>
        <time>2024-11-05T14:52:57Z</time>
      </trkpt>
      <trkpt lat="45.89215" lon="1.27553">
        <ele>345.4</ele>
        <time>2024-11-05T14:52:58Z</time>
      </trkpt>
      <trkpt lat="45.89217" lon="1.27557">
        <ele>345.6</ele>
        <time>2024-11-05T14:52:59Z</time>
      </trkpt>
      <trkpt lat="45.89218" lon="1.27561">
        <ele>345.4</ele>
        <time>2024-11-05T14:53:00Z</time>
      </trkpt>
      <trkpt lat="45.89222" lon="1.27564">
        <ele>345.4</ele>
        <time>2024-11-05T14:53:02Z</time>
      </trkpt>
      <trkpt lat="45.89226" lon="1.27566">
        <ele>345.3</ele>
        <time>2024-11-05T14:53:04Z</time>
      </trkpt>
      <trkpt lat="45.89231" lon="1.27567">
        <ele>345.5</ele>
        <time>2024-11-05T14:53:06Z</time>
      </trkpt>
      <trkpt lat="45.89236" lon="1.27569">
        <ele>345.5</ele>
        <time>2024-11-05T14:53:08Z</time>
      </trkpt>
      <trkpt lat="45.89241" lon="1.2757">
        <ele>345.7</ele>
        <time>2024-11-05T14:53:10Z</time>
      </trkpt>
      <trkpt lat="45.89244" lon="1.27571">
        <ele>345.5</ele>
        <time>2024-11-05T14:53:11Z</time>
      </trkpt>
      <trkpt lat="45.89249" lon="1.27572">
        <ele>345.7</ele>
        <time>2024-11-05T14:53:13Z</time>
      </trkpt>
      <trkpt lat="45.89252" lon="1.27573">
        <ele>345.7</ele>
        <time>2024-11-05T14:53:14Z</time>
      </trkpt>
      <trkpt lat="45.89256" lon="1.27574">
        <ele>345.8</ele>
        <time>2024-11-05T14:53:15Z</time>
      </trkpt>
      <trkpt lat="45.89259" lon="1.27575">
        <ele>345.7</ele>
        <time>2024-11-05T14:53:16Z</time>
      </trkpt>
      <trkpt lat="45.89262" lon="1.27578">
        <ele>345.5</ele>
        <time>2024-11-05T14:53:18Z</time>
      </trkpt>
      <trkpt lat="45.89265" lon="1.27582">
        <ele>345.3</ele>
        <time>2024-11-05T14:53:19Z</time>
      </trkpt>
      <trkpt lat="45.89266" lon="1.27586">
        <ele>345.2</ele>
        <time>2024-11-05T14:53:20Z</time>
      </trkpt>
      <trkpt lat="45.89267" lon="1.27591">
        <ele>345</ele>
        <time>2024-11-05T14:53:22Z</time>
      </trkpt>
      <trkpt lat="45.89269" lon="1.27597">
        <ele>344.7</ele>
        <time>2024-11-05T14:53:24Z</time>
      </trkpt>
      <trkpt lat="45.8927" lon="1.27601">
        <ele>344.5</ele>
        <time>2024-11-05T14:53:38Z</time>
      </trkpt>
      <trkpt lat="45.89272" lon="1.27608">
        <ele>344.2</ele>
        <time>2024-11-05T14:53:40Z</time>
      </trkpt>
      <trkpt lat="45.89273" lon="1.27613">
        <ele>344</ele>
        <time>2024-11-05T14:53:41Z</time>
      </trkpt>
      <trkpt lat="45.89274" lon="1.27618">
        <ele>343.7</ele>
        <time>2024-11-05T14:53:42Z</time>
      </trkpt>
      <trkpt lat="45.89275" lon="1.27623">
        <ele>343.6</ele>
        <time>2024-11-05T14:53:43Z</time>
      </trkpt>
      <trkpt lat="45.89275" lon="1.27628">
        <ele>343.4</ele>
        <time>2024-11-05T14:53:44Z</time>
      </trkpt>
      <trkpt lat="45.89276" lon="1.27633">
        <ele>343.2</ele>
        <time>2024-11-05T14:53:45Z</time>
      </trkpt>
      <trkpt lat="45.89276" lon="1.27638">
        <ele>343.1</ele>
        <time>2024-11-05T14:53:46Z</time>
      </trkpt>
      <trkpt lat="45.89277" lon="1.27643">
        <ele>343</ele>
        <time>2024-11-05T14:53:47Z</time>
      </trkpt>
      <trkpt lat="45.89279" lon="1.27646">
        <ele>342.9</ele>
        <time>2024-11-05T14:53:48Z</time>
      </trkpt>
      <trkpt lat="45.89282" lon="1.27649">
        <ele>342.7</ele>
        <time>2024-11-05T14:53:49Z</time>
      </trkpt>
      <trkpt lat="45.89285" lon="1.2765">
        <ele>342.7</ele>
        <time>2024-11-05T14:53:50Z</time>
      </trkpt>
      <trkpt lat="45.89288" lon="1.2765">
        <ele>342.7</ele>
        <time>2024-11-05T14:53:51Z</time>
      </trkpt>
      <trkpt lat="45.89291" lon="1.2765">
        <ele>342.7</ele>
        <time>2024-11-05T14:53:52Z</time>
      </trkpt>
      <trkpt lat="45.89295" lon="1.27649">
        <ele>342.7</ele>
        <time>2024-11-05T14:53:53Z</time>
      </trkpt>
      <trkpt lat="45.89299" lon="1.27649">
        <ele>342.7</ele>
        <time>2024-11-05T14:53:54Z</time>
      </trkpt>
      <trkpt lat="45.89303" lon="1.27649">
        <ele>342.6</ele>
        <time>2024-11-05T14:53:55Z</time>
      </trkpt>
      <trkpt lat="45.89306" lon="1.27648">
        <ele>342.6</ele>
        <time>2024-11-05T14:53:56Z</time>
      </trkpt>
      <trkpt lat="45.8931" lon="1.27648">
        <ele>342.6</ele>
        <time>2024-11-05T14:53:57Z</time>
      </trkpt>
      <trkpt lat="45.89314" lon="1.27647">
        <ele>342.6</ele>
        <time>2024-11-05T14:53:58Z</time>
      </trkpt>
      <trkpt lat="45.89318" lon="1.27647">
        <ele>342.6</ele>
        <time>2024-11-05T14:53:59Z</time>
      </trkpt>
      <trkpt lat="45.89322" lon="1.27647">
        <ele>342.5</ele>
        <time>2024-11-05T14:54:00Z</time>
      </trkpt>
      <trkpt lat="45.89325" lon="1.27647">
        <ele>342.5</ele>
        <time>2024-11-05T14:54:01Z</time>
      </trkpt>
      <trkpt lat="45.89329" lon="1.27646">
        <ele>342.5</ele>
        <time>2024-11-05T14:54:02Z</time>
      </trkpt>
      <trkpt lat="45.89334" lon="1.27645">
        <ele>342.5</ele>
        <time>2024-11-05T14:54:03Z</time>
      </trkpt>
      <trkpt lat="45.89338" lon="1.27645">
        <ele>342.4</ele>
        <time>2024-11-05T14:54:04Z</time>
      </trkpt>
      <trkpt lat="45.89342" lon="1.27645">
        <ele>342.4</ele>
        <time>2024-11-05T14:54:05Z</time>
      </trkpt>
      <trkpt lat="45.89347" lon="1.27645">
        <ele>342.4</ele>
        <time>2024-11-05T14:54:06Z</time>
      </trkpt>
      <trkpt lat="45.89351" lon="1.27644">
        <ele>342.3</ele>
        <time>2024-11-05T14:54:07Z</time>
      </trkpt>
      <trkpt lat="45.89356" lon="1.27645">
        <ele>342.3</ele>
        <time>2024-11-05T14:54:08Z</time>
      </trkpt>
      <trkpt lat="45.89361" lon="1.27644">
        <ele>342.2</ele>
        <time>2024-11-05T14:54:09Z</time>
      </trkpt>
      <trkpt lat="45.89365" lon="1.27643">
        <ele>342.2</ele>
        <time>2024-11-05T14:54:10Z</time>
      </trkpt>
      <trkpt lat="45.8937" lon="1.27643">
        <ele>342.1</ele>
        <time>2024-11-05T14:54:11Z</time>
      </trkpt>
      <trkpt lat="45.89375" lon="1.27643">
        <ele>342</ele>
        <time>2024-11-05T14:54:12Z</time>
      </trkpt>
      <trkpt lat="45.89379" lon="1.27643">
        <ele>342</ele>
        <time>2024-11-05T14:54:13Z</time>
      </trkpt>
      <trkpt lat="45.89384" lon="1.27644">
        <ele>341.9</ele>
        <time>2024-11-05T14:54:14Z</time>
      </trkpt>
      <trkpt lat="45.89389" lon="1.27645">
        <ele>341.8</ele>
        <time>2024-11-05T14:54:15Z</time>
      </trkpt>
      <trkpt lat="45.89394" lon="1.27645">
        <ele>341.7</ele>
        <time>2024-11-05T14:54:16Z</time>
      </trkpt>
      <trkpt lat="45.89398" lon="1.27646">
        <ele>341.7</ele>
        <time>2024-11-05T14:54:17Z</time>
      </trkpt>
      <trkpt lat="45.89403" lon="1.27647">
        <ele>341.5</ele>
        <time>2024-11-05T14:54:18Z</time>
      </trkpt>
      <trkpt lat="45.89408" lon="1.27647">
        <ele>341.4</ele>
        <time>2024-11-05T14:54:19Z</time>
      </trkpt>
      <trkpt lat="45.89412" lon="1.27649">
        <ele>341.3</ele>
        <time>2024-11-05T14:54:20Z</time>
      </trkpt>
      <trkpt lat="45.89418" lon="1.27651">
        <ele>341.2</ele>
        <time>2024-11-05T14:54:21Z</time>
      </trkpt>
      <trkpt lat="45.89423" lon="1.27652">
        <ele>341.1</ele>
        <time>2024-11-05T14:54:22Z</time>
      </trkpt>
      <trkpt lat="45.89427" lon="1.27654">
        <ele>341</ele>
        <time>2024-11-05T14:54:23Z</time>
      </trkpt>
      <trkpt lat="45.89432" lon="1.27655">
        <ele>340.9</ele>
        <time>2024-11-05T14:54:24Z</time>
      </trkpt>
      <trkpt lat="45.89437" lon="1.27657">
        <ele>340.8</ele>
        <time>2024-11-05T14:54:25Z</time>
      </trkpt>
      <trkpt lat="45.89441" lon="1.27658">
        <ele>340.7</ele>
        <time>2024-11-05T14:54:26Z</time>
      </trkpt>
      <trkpt lat="45.89446" lon="1.2766">
        <ele>340.5</ele>
        <time>2024-11-05T14:54:27Z</time>
      </trkpt>
      <trkpt lat="45.89451" lon="1.27662">
        <ele>340.4</ele>
        <time>2024-11-05T14:54:28Z</time>
      </trkpt>
      <trkpt lat="45.89456" lon="1.27664">
        <ele>340.3</ele>
        <time>2024-11-05T14:54:29Z</time>
      </trkpt>
      <trkpt lat="45.8946" lon="1.27666">
        <ele>340.2</ele>
        <time>2024-11-05T14:54:30Z</time>
      </trkpt>
      <trkpt lat="45.89463" lon="1.27668">
        <ele>340.1</ele>
        <time>2024-11-05T14:54:31Z</time>
      </trkpt>
      <trkpt lat="45.89466" lon="1.27671">
        <ele>340</ele>
        <time>2024-11-05T14:54:32Z</time>
      </trkpt>
      <trkpt lat="45.89468" lon="1.27676">
        <ele>339.9</ele>
        <time>2024-11-05T14:54:34Z</time>
      </trkpt>
      <trkpt lat="45.89472" lon="1.2768">
        <ele>339.8</ele>
        <time>2024-11-05T14:54:36Z</time>
      </trkpt>
      <trkpt lat="45.89476" lon="1.27683">
        <ele>339.8</ele>
        <time>2024-11-05T14:54:37Z</time>
      </trkpt>
      <trkpt lat="45.89479" lon="1.27684">
        <ele>339.7</ele>
        <time>2024-11-05T14:54:38Z</time>
      </trkpt>
      <trkpt lat="45.89482" lon="1.27686">
        <ele>339.6</ele>
        <time>2024-11-05T14:54:39Z</time>
      </trkpt>
      <trkpt lat="45.89485" lon="1.27687">
        <ele>339.6</ele>
        <time>2024-11-05T14:54:40Z</time>
      </trkpt>
      <trkpt lat="45.89489" lon="1.27688">
        <ele>339.5</ele>
        <time>2024-11-05T14:54:42Z</time>
      </trkpt>
      <trkpt lat="45.89493" lon="1.27689">
        <ele>339.4</ele>
        <time>2024-11-05T14:54:44Z</time>
      </trkpt>
      <trkpt lat="45.89497" lon="1.2769">
        <ele>339.3</ele>
        <time>2024-11-05T14:54:46Z</time>
      </trkpt>
      <trkpt lat="45.89502" lon="1.2769">
        <ele>339.2</ele>
        <time>2024-11-05T14:54:48Z</time>
      </trkpt>
      <trkpt lat="45.89506" lon="1.2769">
        <ele>339.1</ele>
        <time>2024-11-05T14:54:50Z</time>
      </trkpt>
      <trkpt lat="45.89511" lon="1.2769">
        <ele>339</ele>
        <time>2024-11-05T14:54:52Z</time>
      </trkpt>
      <trkpt lat="45.89514" lon="1.2769">
        <ele>338.9</ele>
        <time>2024-11-05T14:54:53Z</time>
      </trkpt>
      <trkpt lat="45.89517" lon="1.2769">
        <ele>338.8</ele>
        <time>2024-11-05T14:54:54Z</time>
      </trkpt>
      <trkpt lat="45.89521" lon="1.2769">
        <ele>338.7</ele>
        <time>2024-11-05T14:54:55Z</time>
      </trkpt>
      <trkpt lat="45.89524" lon="1.27691">
        <ele>338.7</ele>
        <time>2024-11-05T14:54:56Z</time>
      </trkpt>
      <trkpt lat="45.89528" lon="1.27691">
        <ele>338.6</ele>
        <time>2024-11-05T14:54:57Z</time>
      </trkpt>
      <trkpt lat="45.89532" lon="1.27691">
        <ele>338.5</ele>
        <time>2024-11-05T14:54:58Z</time>
      </trkpt>
      <trkpt lat="45.89537" lon="1.2769">
        <ele>338.3</ele>
        <time>2024-11-05T14:54:59Z</time>
      </trkpt>
      <trkpt lat="45.89541" lon="1.27689">
        <ele>338.2</ele>
        <time>2024-11-05T14:55:00Z</time>
      </trkpt>
      <trkpt lat="45.89545" lon="1.27687">
        <ele>338.1</ele>
        <time>2024-11-05T14:55:01Z</time>
      </trkpt>
      <trkpt lat="45.89549" lon="1.27685">
        <ele>338.1</ele>
        <time>2024-11-05T14:55:02Z</time>
      </trkpt>
      <trkpt lat="45.89554" lon="1.27682">
        <ele>338</ele>
        <time>2024-11-05T14:55:03Z</time>
      </trkpt>
      <trkpt lat="45.89559" lon="1.27679">
        <ele>337.9</ele>
        <time>2024-11-05T14:55:04Z</time>
      </trkpt>
      <trkpt lat="45.89564" lon="1.27678">
        <ele>337.8</ele>
        <time>2024-11-05T14:55:05Z</time>
      </trkpt>
      <trkpt lat="45.89569" lon="1.27678">
        <ele>337.7</ele>
        <time>2024-11-05T14:55:06Z</time>
      </trkpt>
      <trkpt lat="45.89574" lon="1.27678">
        <ele>337.5</ele>
        <time>2024-11-05T14:55:07Z</time>
      </trkpt>
      <trkpt lat="45.8958" lon="1.27679">
        <ele>337.4</ele>
        <time>2024-11-05T14:55:08Z</time>
      </trkpt>
      <trkpt lat="45.89585" lon="1.2768">
        <ele>337.2</ele>
        <time>2024-11-05T14:55:09Z</time>
      </trkpt>
      <trkpt lat="45.89591" lon="1.27681">
        <ele>337.1</ele>
        <time>2024-11-05T14:55:10Z</time>
      </trkpt>
      <trkpt lat="45.89597" lon="1.27682">
        <ele>336.9</ele>
        <time>2024-11-05T14:55:11Z</time>
      </trkpt>
      <trkpt lat="45.89602" lon="1.27683">
        <ele>336.8</ele>
        <time>2024-11-05T14:55:12Z</time>
      </trkpt>
      <trkpt lat="45.89607" lon="1.27685">
        <ele>336.7</ele>
        <time>2024-11-05T14:55:13Z</time>
      </trkpt>
      <trkpt lat="45.89613" lon="1.27686">
        <ele>336.6</ele>
        <time>2024-11-05T14:55:14Z</time>
      </trkpt>
      <trkpt lat="45.89619" lon="1.27688">
        <ele>336.4</ele>
        <time>2024-11-05T14:55:15Z</time>
      </trkpt>
      <trkpt lat="45.89624" lon="1.2769">
        <ele>336.4</ele>
        <time>2024-11-05T14:55:16Z</time>
      </trkpt>
      <trkpt lat="45.8963" lon="1.27692">
        <ele>336.3</ele>
        <time>2024-11-05T14:55:17Z</time>
      </trkpt>
      <trkpt lat="45.89635" lon="1.27695">
        <ele>336.2</ele>
        <time>2024-11-05T14:55:18Z</time>
      </trkpt>
      <trkpt lat="45.8964" lon="1.27698">
        <ele>336.1</ele>
        <time>2024-11-05T14:55:19Z</time>
      </trkpt>
      <trkpt lat="45.89645" lon="1.27701">
        <ele>336</ele>
        <time>2024-11-05T14:55:20Z</time>
      </trkpt>
      <trkpt lat="45.8965" lon="1.27705">
        <ele>335.9</ele>
        <time>2024-11-05T14:55:21Z</time>
      </trkpt>
      <trkpt lat="45.89655" lon="1.27708">
        <ele>335.7</ele>
        <time>2024-11-05T14:55:22Z</time>
      </trkpt>
      <trkpt lat="45.8966" lon="1.27712">
        <ele>335.5</ele>
        <time>2024-11-05T14:55:23Z</time>
      </trkpt>
      <trkpt lat="45.89665" lon="1.27715">
        <ele>335.4</ele>
        <time>2024-11-05T14:55:24Z</time>
      </trkpt>
      <trkpt lat="45.8967" lon="1.27718">
        <ele>335.3</ele>
        <time>2024-11-05T14:55:25Z</time>
      </trkpt>
      <trkpt lat="45.89675" lon="1.27721">
        <ele>335.2</ele>
        <time>2024-11-05T14:55:26Z</time>
      </trkpt>
      <trkpt lat="45.89679" lon="1.27725">
        <ele>335</ele>
        <time>2024-11-05T14:55:27Z</time>
      </trkpt>
      <trkpt lat="45.89684" lon="1.27729">
        <ele>334.9</ele>
        <time>2024-11-05T14:55:28Z</time>
      </trkpt>
      <trkpt lat="45.89689" lon="1.27732">
        <ele>334.8</ele>
        <time>2024-11-05T14:55:29Z</time>
      </trkpt>
      <trkpt lat="45.89695" lon="1.27735">
        <ele>334.6</ele>
        <time>2024-11-05T14:55:30Z</time>
      </trkpt>
      <trkpt lat="45.897" lon="1.27738">
        <ele>334.5</ele>
        <time>2024-11-05T14:55:31Z</time>
      </trkpt>
      <trkpt lat="45.89705" lon="1.27741">
        <ele>334.4</ele>
        <time>2024-11-05T14:55:32Z</time>
      </trkpt>
      <trkpt lat="45.8971" lon="1.27745">
        <ele>334.2</ele>
        <time>2024-11-05T14:55:33Z</time>
      </trkpt>
      <trkpt lat="45.89715" lon="1.27748">
        <ele>334.1</ele>
        <time>2024-11-05T14:55:34Z</time>
      </trkpt>
      <trkpt lat="45.89719" lon="1.27751">
        <ele>334</ele>
        <time>2024-11-05T14:55:35Z</time>
      </trkpt>
      <trkpt lat="45.89723" lon="1.27755">
        <ele>333.9</ele>
        <time>2024-11-05T14:55:36Z</time>
      </trkpt>
      <trkpt lat="45.89728" lon="1.27759">
        <ele>333.8</ele>
        <time>2024-11-05T14:55:37Z</time>
      </trkpt>
      <trkpt lat="45.89733" lon="1.27764">
        <ele>333.7</ele>
        <time>2024-11-05T14:55:38Z</time>
      </trkpt>
      <trkpt lat="45.89737" lon="1.27768">
        <ele>333.6</ele>
        <time>2024-11-05T14:55:39Z</time>
      </trkpt>
      <trkpt lat="45.89741" lon="1.27774">
        <ele>333.5</ele>
        <time>2024-11-05T14:55:40Z</time>
      </trkpt>
      <trkpt lat="45.89744" lon="1.2778">
        <ele>333.4</ele>
        <time>2024-11-05T14:55:41Z</time>
      </trkpt>
      <trkpt lat="45.89748" lon="1.27787">
        <ele>333.3</ele>
        <time>2024-11-05T14:55:42Z</time>
      </trkpt>
      <trkpt lat="45.89751" lon="1.27794">
        <ele>333.2</ele>
        <time>2024-11-05T14:55:43Z</time>
      </trkpt>
      <trkpt lat="45.89754" lon="1.278">
        <ele>333.1</ele>
        <time>2024-11-05T14:55:44Z</time>
      </trkpt>
      <trkpt lat="45.89757" lon="1.27805">
        <ele>333</ele>
        <time>2024-11-05T14:55:45Z</time>
      </trkpt>
      <trkpt lat="45.89762" lon="1.27808">
        <ele>332.9</ele>
        <time>2024-11-05T14:55:46Z</time>
      </trkpt>
      <trkpt lat="45.89766" lon="1.27811">
        <ele>332.8</ele>
        <time>2024-11-05T14:55:47Z</time>
      </trkpt>
      <trkpt lat="45.89771" lon="1.27812">
        <ele>332.7</ele>
        <time>2024-11-05T14:55:48Z</time>
      </trkpt>
      <trkpt lat="45.89775" lon="1.27816">
        <ele>332.6</ele>
        <time>2024-11-05T14:55:50Z</time>
      </trkpt>
      <trkpt lat="45.89777" lon="1.27821">
        <ele>332.5</ele>
        <time>2024-11-05T14:55:51Z</time>
      </trkpt>
      <trkpt lat="45.89779" lon="1.27825">
        <ele>332.4</ele>
        <time>2024-11-05T14:55:52Z</time>
      </trkpt>
      <trkpt lat="45.8978" lon="1.2783">
        <ele>332.4</ele>
        <time>2024-11-05T14:55:53Z</time>
      </trkpt>
      <trkpt lat="45.89781" lon="1.27836">
        <ele>332.3</ele>
        <time>2024-11-05T14:55:54Z</time>
      </trkpt>
      <trkpt lat="45.89782" lon="1.27842">
        <ele>332.2</ele>
        <time>2024-11-05T14:55:55Z</time>
      </trkpt>
      <trkpt lat="45.89783" lon="1.27848">
        <ele>332.1</ele>
        <time>2024-11-05T14:55:56Z</time>
      </trkpt>
      <trkpt lat="45.89784" lon="1.27853">
        <ele>332.1</ele>
        <time>2024-11-05T14:55:57Z</time>
      </trkpt>
      <trkpt lat="45.89785" lon="1.27857">
        <ele>332</ele>
        <time>2024-11-05T14:55:58Z</time>
      </trkpt>
      <trkpt lat="45.89785" lon="1.27862">
        <ele>332</ele>
        <time>2024-11-05T14:56:00Z</time>
      </trkpt>
      <trkpt lat="45.89783" lon="1.27866">
        <ele>331.9</ele>
        <time>2024-11-05T14:56:02Z</time>
      </trkpt>
      <trkpt lat="45.8978" lon="1.27872">
        <ele>331.8</ele>
        <time>2024-11-05T14:56:04Z</time>
      </trkpt>
      <trkpt lat="45.89777" lon="1.27875">
        <ele>331.8</ele>
        <time>2024-11-05T14:56:05Z</time>
      </trkpt>
      <trkpt lat="45.89774" lon="1.27876">
        <ele>331.8</ele>
        <time>2024-11-05T14:56:06Z</time>
      </trkpt>
      <trkpt lat="45.8977" lon="1.27878">
        <ele>331.8</ele>
        <time>2024-11-05T14:56:07Z</time>
      </trkpt>
      <trkpt lat="45.89768" lon="1.27881">
        <ele>331.8</ele>
        <time>2024-11-05T14:56:08Z</time>
      </trkpt>
      <trkpt lat="45.89766" lon="1.27886">
        <ele>331.8</ele>
        <time>2024-11-05T14:56:09Z</time>
      </trkpt>
      <trkpt lat="45.89766" lon="1.27891">
        <ele>331.7</ele>
        <time>2024-11-05T14:56:10Z</time>
      </trkpt>
      <trkpt lat="45.89765" lon="1.27897">
        <ele>331.7</ele>
        <time>2024-11-05T14:56:11Z</time>
      </trkpt>
      <trkpt lat="45.89763" lon="1.27904">
        <ele>331.6</ele>
        <time>2024-11-05T14:56:12Z</time>
      </trkpt>
      <trkpt lat="45.89761" lon="1.27911">
        <ele>331.5</ele>
        <time>2024-11-05T14:56:13Z</time>
      </trkpt>
      <trkpt lat="45.8976" lon="1.27918">
        <ele>331.4</ele>
        <time>2024-11-05T14:56:14Z</time>
      </trkpt>
      <trkpt lat="45.89759" lon="1.27925">
        <ele>331.3</ele>
        <time>2024-11-05T14:56:15Z</time>
      </trkpt>
      <trkpt lat="45.89758" lon="1.27933">
        <ele>331.2</ele>
        <time>2024-11-05T14:56:16Z</time>
      </trkpt>
      <trkpt lat="45.89756" lon="1.2794">
        <ele>331</ele>
        <time>2024-11-05T14:56:17Z</time>
      </trkpt>
      <trkpt lat="45.89755" lon="1.27948">
        <ele>330.9</ele>
        <time>2024-11-05T14:56:18Z</time>
      </trkpt>
      <trkpt lat="45.89753" lon="1.27956">
        <ele>330.7</ele>
        <time>2024-11-05T14:56:19Z</time>
      </trkpt>
      <trkpt lat="45.89752" lon="1.27964">
        <ele>330.5</ele>
        <time>2024-11-05T14:56:20Z</time>
      </trkpt>
      <trkpt lat="45.89751" lon="1.27973">
        <ele>330.3</ele>
        <time>2024-11-05T14:56:21Z</time>
      </trkpt>
      <trkpt lat="45.8975" lon="1.27981">
        <ele>330.2</ele>
        <time>2024-11-05T14:56:22Z</time>
      </trkpt>
      <trkpt lat="45.89749" lon="1.27989">
        <ele>330</ele>
        <time>2024-11-05T14:56:23Z</time>
      </trkpt>
      <trkpt lat="45.89748" lon="1.27997">
        <ele>329.8</ele>
        <time>2024-11-05T14:56:24Z</time>
      </trkpt>
      <trkpt lat="45.89746" lon="1.28005">
        <ele>329.6</ele>
        <time>2024-11-05T14:56:25Z</time>
      </trkpt>
      <trkpt lat="45.89745" lon="1.28013">
        <ele>329.5</ele>
        <time>2024-11-05T14:56:26Z</time>
      </trkpt>
      <trkpt lat="45.89743" lon="1.28021">
        <ele>329.3</ele>
        <time>2024-11-05T14:56:27Z</time>
      </trkpt>
      <trkpt lat="45.89742" lon="1.2803">
        <ele>329.2</ele>
        <time>2024-11-05T14:56:28Z</time>
      </trkpt>
      <trkpt lat="45.89741" lon="1.28038">
        <ele>329</ele>
        <time>2024-11-05T14:56:29Z</time>
      </trkpt>
      <trkpt lat="45.89739" lon="1.28046">
        <ele>328.8</ele>
        <time>2024-11-05T14:56:30Z</time>
      </trkpt>
      <trkpt lat="45.89738" lon="1.28055">
        <ele>328.6</ele>
        <time>2024-11-05T14:56:31Z</time>
      </trkpt>
      <trkpt lat="45.89736" lon="1.28064">
        <ele>328.4</ele>
        <time>2024-11-05T14:56:32Z</time>
      </trkpt>
      <trkpt lat="45.89735" lon="1.28073">
        <ele>328.2</ele>
        <time>2024-11-05T14:56:33Z</time>
      </trkpt>
      <trkpt lat="45.89733" lon="1.28082">
        <ele>327.9</ele>
        <time>2024-11-05T14:56:34Z</time>
      </trkpt>
      <trkpt lat="45.89731" lon="1.28091">
        <ele>327.7</ele>
        <time>2024-11-05T14:56:35Z</time>
      </trkpt>
      <trkpt lat="45.8973" lon="1.281">
        <ele>327.5</ele>
        <time>2024-11-05T14:56:36Z</time>
      </trkpt>
      <trkpt lat="45.89728" lon="1.2811">
        <ele>327.3</ele>
        <time>2024-11-05T14:56:37Z</time>
      </trkpt>
      <trkpt lat="45.89726" lon="1.28119">
        <ele>327.1</ele>
        <time>2024-11-05T14:56:38Z</time>
      </trkpt>
      <trkpt lat="45.89724" lon="1.28129">
        <ele>326.9</ele>
        <time>2024-11-05T14:56:39Z</time>
      </trkpt>
      <trkpt lat="45.89723" lon="1.28138">
        <ele>326.7</ele>
        <time>2024-11-05T14:56:40Z</time>
      </trkpt>
      <trkpt lat="45.89721" lon="1.28147">
        <ele>326.6</ele>
        <time>2024-11-05T14:56:41Z</time>
      </trkpt>
      <trkpt lat="45.8972" lon="1.28155">
        <ele>326.5</ele>
        <time>2024-11-05T14:56:42Z</time>
      </trkpt>
      <trkpt lat="45.89719" lon="1.28164">
        <ele>326.4</ele>
        <time>2024-11-05T14:56:43Z</time>
      </trkpt>
      <trkpt lat="45.89717" lon="1.28173">
        <ele>326.3</ele>
        <time>2024-11-05T14:56:44Z</time>
      </trkpt>
      <trkpt lat="45.89716" lon="1.28181">
        <ele>326.3</ele>
        <time>2024-11-05T14:56:45Z</time>
      </trkpt>
      <trkpt lat="45.89714" lon="1.2819">
        <ele>326.2</ele>
        <time>2024-11-05T14:56:46Z</time>
      </trkpt>
      <trkpt lat="45.89712" lon="1.28198">
        <ele>326.2</ele>
        <time>2024-11-05T14:56:47Z</time>
      </trkpt>
      <trkpt lat="45.8971" lon="1.28207">
        <ele>326.1</ele>
        <time>2024-11-05T14:56:48Z</time>
      </trkpt>
      <trkpt lat="45.89708" lon="1.28215">
        <ele>326.1</ele>
        <time>2024-11-05T14:56:49Z</time>
      </trkpt>
      <trkpt lat="45.89707" lon="1.28222">
        <ele>326.1</ele>
        <time>2024-11-05T14:56:50Z</time>
      </trkpt>
      <trkpt lat="45.89706" lon="1.2823">
        <ele>326.1</ele>
        <time>2024-11-05T14:56:51Z</time>
      </trkpt>
      <trkpt lat="45.89705" lon="1.28237">
        <ele>326.1</ele>
        <time>2024-11-05T14:56:52Z</time>
      </trkpt>
      <trkpt lat="45.89704" lon="1.28244">
        <ele>326</ele>
        <time>2024-11-05T14:56:53Z</time>
      </trkpt>
      <trkpt lat="45.89703" lon="1.28251">
        <ele>326</ele>
        <time>2024-11-05T14:56:54Z</time>
      </trkpt>
      <trkpt lat="45.89702" lon="1.28258">
        <ele>326</ele>
        <time>2024-11-05T14:56:55Z</time>
      </trkpt>
      <trkpt lat="45.89701" lon="1.28265">
        <ele>326</ele>
        <time>2024-11-05T14:56:56Z</time>
      </trkpt>
      <trkpt lat="45.89699" lon="1.28273">
        <ele>326.1</ele>
        <time>2024-11-05T14:56:57Z</time>
      </trkpt>
      <trkpt lat="45.89698" lon="1.28281">
        <ele>326.1</ele>
        <time>2024-11-05T14:56:58Z</time>
      </trkpt>
      <trkpt lat="45.89696" lon="1.28289">
        <ele>326.1</ele>
        <time>2024-11-05T14:56:59Z</time>
      </trkpt>
      <trkpt lat="45.89694" lon="1.28295">
        <ele>326.2</ele>
        <time>2024-11-05T14:57:00Z</time>
      </trkpt>
      <trkpt lat="45.89693" lon="1.28302">
        <ele>326.2</ele>
        <time>2024-11-05T14:57:01Z</time>
      </trkpt>
      <trkpt lat="45.89691" lon="1.28308">
        <ele>326.2</ele>
        <time>2024-11-05T14:57:02Z</time>
      </trkpt>
      <trkpt lat="45.8969" lon="1.28313">
        <ele>326.2</ele>
        <time>2024-11-05T14:57:03Z</time>
      </trkpt>
      <trkpt lat="45.89689" lon="1.28317">
        <ele>326.2</ele>
        <time>2024-11-05T14:57:04Z</time>
      </trkpt>
      <trkpt lat="45.89688" lon="1.28322">
        <ele>326.2</ele>
        <time>2024-11-05T14:57:05Z</time>
      </trkpt>
      <trkpt lat="45.89688" lon="1.28327">
        <ele>326.3</ele>
        <time>2024-11-05T14:57:06Z</time>
      </trkpt>
      <trkpt lat="45.89687" lon="1.28332">
        <ele>326.3</ele>
        <time>2024-11-05T14:57:07Z</time>
      </trkpt>
      <trkpt lat="45.89685" lon="1.28337">
        <ele>326.4</ele>
        <time>2024-11-05T14:57:08Z</time>
      </trkpt>
      <trkpt lat="45.89684" lon="1.28343">
        <ele>326.4</ele>
        <time>2024-11-05T14:57:09Z</time>
      </trkpt>
      <trkpt lat="45.89683" lon="1.28348">
        <ele>326.5</ele>
        <time>2024-11-05T14:57:10Z</time>
      </trkpt>
      <trkpt lat="45.89681" lon="1.28353">
        <ele>326.6</ele>
        <time>2024-11-05T14:57:11Z</time>
      </trkpt>
      <trkpt lat="45.89679" lon="1.28358">
        <ele>326.7</ele>
        <time>2024-11-05T14:57:12Z</time>
      </trkpt>
      <trkpt lat="45.89678" lon="1.28362">
        <ele>326.7</ele>
        <time>2024-11-05T14:57:13Z</time>
      </trkpt>
      <trkpt lat="45.89675" lon="1.28365">
        <ele>326.8</ele>
        <time>2024-11-05T14:57:14Z</time>
      </trkpt>
      <trkpt lat="45.89673" lon="1.28368">
        <ele>326.8</ele>
        <time>2024-11-05T14:57:15Z</time>
      </trkpt>
      <trkpt lat="45.89669" lon="1.2837">
        <ele>326.9</ele>
        <time>2024-11-05T14:57:16Z</time>
      </trkpt>
      <trkpt lat="45.89666" lon="1.28373">
        <ele>327</ele>
        <time>2024-11-05T14:57:17Z</time>
      </trkpt>
      <trkpt lat="45.89664" lon="1.28377">
        <ele>327.1</ele>
        <time>2024-11-05T14:57:18Z</time>
      </trkpt>
      <trkpt lat="45.89661" lon="1.28382">
        <ele>327.1</ele>
        <time>2024-11-05T14:57:19Z</time>
      </trkpt>
      <trkpt lat="45.89658" lon="1.28387">
        <ele>327.2</ele>
        <time>2024-11-05T14:57:20Z</time>
      </trkpt>
      <trkpt lat="45.89655" lon="1.28391">
        <ele>327.2</ele>
        <time>2024-11-05T14:57:21Z</time>
      </trkpt>
      <trkpt lat="45.89652" lon="1.28395">
        <ele>327.3</ele>
        <time>2024-11-05T14:57:22Z</time>
      </trkpt>
      <trkpt lat="45.89648" lon="1.28399">
        <ele>327.3</ele>
        <time>2024-11-05T14:57:23Z</time>
      </trkpt>
      <trkpt lat="45.89644" lon="1.28404">
        <ele>327.3</ele>
        <time>2024-11-05T14:57:24Z</time>
      </trkpt>
      <trkpt lat="45.8964" lon="1.28408">
        <ele>327.3</ele>
        <time>2024-11-05T14:57:25Z</time>
      </trkpt>
      <trkpt lat="45.89636" lon="1.28412">
        <ele>327.3</ele>
        <time>2024-11-05T14:57:26Z</time>
      </trkpt>
      <trkpt lat="45.89633" lon="1.28415">
        <ele>327.3</ele>
        <time>2024-11-05T14:57:27Z</time>
      </trkpt>
      <trkpt lat="45.89629" lon="1.28419">
        <ele>327.3</ele>
        <time>2024-11-05T14:57:28Z</time>
      </trkpt>
      <trkpt lat="45.89625" lon="1.28423">
        <ele>327.2</ele>
        <time>2024-11-05T14:57:29Z</time>
      </trkpt>
      <trkpt lat="45.89621" lon="1.28426">
        <ele>327.2</ele>
        <time>2024-11-05T14:57:30Z</time>
      </trkpt>
      <trkpt lat="45.89616" lon="1.28429">
        <ele>327.1</ele>
        <time>2024-11-05T14:57:31Z</time>
      </trkpt>
      <trkpt lat="45.89612" lon="1.28431">
        <ele>327</ele>
        <time>2024-11-05T14:57:32Z</time>
      </trkpt>
      <trkpt lat="45.89607" lon="1.28433">
        <ele>326.9</ele>
        <time>2024-11-05T14:57:33Z</time>
      </trkpt>
      <trkpt lat="45.89602" lon="1.28436">
        <ele>326.8</ele>
        <time>2024-11-05T14:57:34Z</time>
      </trkpt>
      <trkpt lat="45.89598" lon="1.28439">
        <ele>326.7</ele>
        <time>2024-11-05T14:57:35Z</time>
      </trkpt>
      <trkpt lat="45.89593" lon="1.28442">
        <ele>326.6</ele>
        <time>2024-11-05T14:57:36Z</time>
      </trkpt>
      <trkpt lat="45.89588" lon="1.28445">
        <ele>326.5</ele>
        <time>2024-11-05T14:57:37Z</time>
      </trkpt>
      <trkpt lat="45.89584" lon="1.28449">
        <ele>326.3</ele>
        <time>2024-11-05T14:57:38Z</time>
      </trkpt>
      <trkpt lat="45.89579" lon="1.28454">
        <ele>326.2</ele>
        <time>2024-11-05T14:57:39Z</time>
      </trkpt>
      <trkpt lat="45.89575" lon="1.28458">
        <ele>326</ele>
        <time>2024-11-05T14:57:40Z</time>
      </trkpt>
      <trkpt lat="45.8957" lon="1.28462">
        <ele>325.8</ele>
        <time>2024-11-05T14:57:41Z</time>
      </trkpt>
      <trkpt lat="45.89566" lon="1.28468">
        <ele>325.6</ele>
        <time>2024-11-05T14:57:42Z</time>
      </trkpt>
      <trkpt lat="45.89563" lon="1.28474">
        <ele>325.4</ele>
        <time>2024-11-05T14:57:43Z</time>
      </trkpt>
      <trkpt lat="45.89559" lon="1.2848">
        <ele>325.2</ele>
        <time>2024-11-05T14:57:44Z</time>
      </trkpt>
      <trkpt lat="45.89556" lon="1.28487">
        <ele>324.9</ele>
        <time>2024-11-05T14:57:45Z</time>
      </trkpt>
      <trkpt lat="45.89552" lon="1.28494">
        <ele>324.7</ele>
        <time>2024-11-05T14:57:46Z</time>
      </trkpt>
      <trkpt lat="45.89549" lon="1.28502">
        <ele>324.4</ele>
        <time>2024-11-05T14:57:47Z</time>
      </trkpt>
      <trkpt lat="45.89547" lon="1.2851">
        <ele>324.2</ele>
        <time>2024-11-05T14:57:48Z</time>
      </trkpt>
      <trkpt lat="45.89545" lon="1.28519">
        <ele>323.9</ele>
        <time>2024-11-05T14:57:49Z</time>
      </trkpt>
      <trkpt lat="45.89544" lon="1.28528">
        <ele>323.6</ele>
        <time>2024-11-05T14:57:50Z</time>
      </trkpt>
      <trkpt lat="45.89542" lon="1.28537">
        <ele>323.4</ele>
        <time>2024-11-05T14:57:51Z</time>
      </trkpt>
      <trkpt lat="45.8954" lon="1.28546">
        <ele>323.3</ele>
        <time>2024-11-05T14:57:52Z</time>
      </trkpt>
      <trkpt lat="45.89539" lon="1.28554">
        <ele>323.1</ele>
        <time>2024-11-05T14:57:53Z</time>
      </trkpt>
      <trkpt lat="45.89537" lon="1.28563">
        <ele>322.9</ele>
        <time>2024-11-05T14:57:54Z</time>
      </trkpt>
      <trkpt lat="45.89535" lon="1.28572">
        <ele>322.7</ele>
        <time>2024-11-05T14:57:55Z</time>
      </trkpt>
      <trkpt lat="45.89532" lon="1.28581">
        <ele>322.5</ele>
        <time>2024-11-05T14:57:56Z</time>
      </trkpt>
      <trkpt lat="45.8953" lon="1.2859">
        <ele>322.4</ele>
        <time>2024-11-05T14:57:57Z</time>
      </trkpt>
      <trkpt lat="45.89527" lon="1.28599">
        <ele>322.2</ele>
        <time>2024-11-05T14:57:58Z</time>
      </trkpt>
      <trkpt lat="45.89523" lon="1.28607">
        <ele>322</ele>
        <time>2024-11-05T14:57:59Z</time>
      </trkpt>
      <trkpt lat="45.8952" lon="1.28615">
        <ele>321.9</ele>
        <time>2024-11-05T14:58:00Z</time>
      </trkpt>
      <trkpt lat="45.89517" lon="1.28623">
        <ele>321.8</ele>
        <time>2024-11-05T14:58:01Z</time>
      </trkpt>
      <trkpt lat="45.89513" lon="1.2863">
        <ele>321.7</ele>
        <time>2024-11-05T14:58:02Z</time>
      </trkpt>
      <trkpt lat="45.8951" lon="1.28637">
        <ele>321.6</ele>
        <time>2024-11-05T14:58:03Z</time>
      </trkpt>
      <trkpt lat="45.89506" lon="1.28646">
        <ele>321.4</ele>
        <time>2024-11-05T14:58:04Z</time>
      </trkpt>
      <trkpt lat="45.89502" lon="1.28654">
        <ele>321.3</ele>
        <time>2024-11-05T14:58:05Z</time>
      </trkpt>
      <trkpt lat="45.89497" lon="1.28662">
        <ele>321.2</ele>
        <time>2024-11-05T14:58:06Z</time>
      </trkpt>
      <trkpt lat="45.89493" lon="1.28669">
        <ele>321.2</ele>
        <time>2024-11-05T14:58:07Z</time>
      </trkpt>
      <trkpt lat="45.89489" lon="1.28676">
        <ele>321.2</ele>
        <time>2024-11-05T14:58:08Z</time>
      </trkpt>
      <trkpt lat="45.89486" lon="1.28683">
        <ele>321.2</ele>
        <time>2024-11-05T14:58:09Z</time>
      </trkpt>
      <trkpt lat="45.89484" lon="1.28691">
        <ele>321.3</ele>
        <time>2024-11-05T14:58:10Z</time>
      </trkpt>
      <trkpt lat="45.89481" lon="1.28698">
        <ele>321.4</ele>
        <time>2024-11-05T14:58:11Z</time>
      </trkpt>
      <trkpt lat="45.89479" lon="1.28705">
        <ele>321.6</ele>
        <time>2024-11-05T14:58:12Z</time>
      </trkpt>
      <trkpt lat="45.89478" lon="1.28712">
        <ele>321.7</ele>
        <time>2024-11-05T14:58:13Z</time>
      </trkpt>
      <trkpt lat="45.89475" lon="1.28719">
        <ele>321.8</ele>
        <time>2024-11-05T14:58:14Z</time>
      </trkpt>
      <trkpt lat="45.89473" lon="1.28726">
        <ele>322</ele>
        <time>2024-11-05T14:58:15Z</time>
      </trkpt>
      <trkpt lat="45.89473" lon="1.28733">
        <ele>322</ele>
        <time>2024-11-05T14:58:16Z</time>
      </trkpt>
      <trkpt lat="45.89472" lon="1.28739">
        <ele>322.1</ele>
        <time>2024-11-05T14:58:17Z</time>
      </trkpt>
      <trkpt lat="45.89471" lon="1.28744">
        <ele>322.1</ele>
        <time>2024-11-05T14:58:18Z</time>
      </trkpt>
      <trkpt lat="45.89468" lon="1.28751">
        <ele>322.1</ele>
        <time>2024-11-05T14:58:19Z</time>
      </trkpt>
      <trkpt lat="45.89466" lon="1.28759">
        <ele>322</ele>
        <time>2024-11-05T14:58:20Z</time>
      </trkpt>
      <trkpt lat="45.89463" lon="1.28766">
        <ele>322</ele>
        <time>2024-11-05T14:58:21Z</time>
      </trkpt>
      <trkpt lat="45.89461" lon="1.28774">
        <ele>322.1</ele>
        <time>2024-11-05T14:58:22Z</time>
      </trkpt>
      <trkpt lat="45.89459" lon="1.28781">
        <ele>322.1</ele>
        <time>2024-11-05T14:58:23Z</time>
      </trkpt>
      <trkpt lat="45.89458" lon="1.28789">
        <ele>322.2</ele>
        <time>2024-11-05T14:58:24Z</time>
      </trkpt>
      <trkpt lat="45.89456" lon="1.28796">
        <ele>322.3</ele>
        <time>2024-11-05T14:58:25Z</time>
      </trkpt>
      <trkpt lat="45.89454" lon="1.28803">
        <ele>322.4</ele>
        <time>2024-11-05T14:58:26Z</time>
      </trkpt>
      <trkpt lat="45.89452" lon="1.28809">
        <ele>322.6</ele>
        <time>2024-11-05T14:58:27Z</time>
      </trkpt>
      <trkpt lat="45.8945" lon="1.28815">
        <ele>322.7</ele>
        <time>2024-11-05T14:58:28Z</time>
      </trkpt>
      <trkpt lat="45.89448" lon="1.28821">
        <ele>323</ele>
        <time>2024-11-05T14:58:29Z</time>
      </trkpt>
      <trkpt lat="45.89446" lon="1.28827">
        <ele>323.2</ele>
        <time>2024-11-05T14:58:30Z</time>
      </trkpt>
      <trkpt lat="45.89445" lon="1.28832">
        <ele>323.5</ele>
        <time>2024-11-05T14:58:31Z</time>
      </trkpt>
      <trkpt lat="45.89444" lon="1.28837">
        <ele>323.8</ele>
        <time>2024-11-05T14:58:32Z</time>
      </trkpt>
      <trkpt lat="45.89443" lon="1.28842">
        <ele>324.2</ele>
        <time>2024-11-05T14:58:33Z</time>
      </trkpt>
      <trkpt lat="45.89442" lon="1.28847">
        <ele>324.5</ele>
        <time>2024-11-05T14:58:34Z</time>
      </trkpt>
      <trkpt lat="45.89441" lon="1.28851">
        <ele>324.8</ele>
        <time>2024-11-05T14:58:35Z</time>
      </trkpt>
      <trkpt lat="45.8944" lon="1.28856">
        <ele>325.2</ele>
        <time>2024-11-05T14:58:36Z</time>
      </trkpt>
      <trkpt lat="45.89439" lon="1.28861">
        <ele>325.5</ele>
        <time>2024-11-05T14:58:37Z</time>
      </trkpt>
      <trkpt lat="45.89439" lon="1.28865">
        <ele>325.7</ele>
        <time>2024-11-05T14:58:38Z</time>
      </trkpt>
      <trkpt lat="45.89438" lon="1.2887">
        <ele>325.9</ele>
        <time>2024-11-05T14:58:39Z</time>
      </trkpt>
      <trkpt lat="45.89438" lon="1.28875">
        <ele>326.1</ele>
        <time>2024-11-05T14:58:40Z</time>
      </trkpt>
      <trkpt lat="45.89438" lon="1.28879">
        <ele>326.3</ele>
        <time>2024-11-05T14:58:41Z</time>
      </trkpt>
      <trkpt lat="45.89438" lon="1.28884">
        <ele>326.6</ele>
        <time>2024-11-05T14:58:42Z</time>
      </trkpt>
      <trkpt lat="45.89438" lon="1.28888">
        <ele>326.7</ele>
        <time>2024-11-05T14:58:43Z</time>
      </trkpt>
      <trkpt lat="45.89438" lon="1.28893">
        <ele>327</ele>
        <time>2024-11-05T14:58:44Z</time>
      </trkpt>
      <trkpt lat="45.89438" lon="1.28898">
        <ele>327.3</ele>
        <time>2024-11-05T14:58:45Z</time>
      </trkpt>
      <trkpt lat="45.89438" lon="1.28902">
        <ele>327.5</ele>
        <time>2024-11-05T14:58:46Z</time>
      </trkpt>
      <trkpt lat="45.89438" lon="1.28906">
        <ele>327.8</ele>
        <time>2024-11-05T14:58:47Z</time>
      </trkpt>
      <trkpt lat="45.89438" lon="1.28911">
        <ele>328.1</ele>
        <time>2024-11-05T14:58:48Z</time>
      </trkpt>
      <trkpt lat="45.89438" lon="1.28915">
        <ele>328.3</ele>
        <time>2024-11-05T14:58:49Z</time>
      </trkpt>
      <trkpt lat="45.89438" lon="1.2892">
        <ele>328.6</ele>
        <time>2024-11-05T14:58:50Z</time>
      </trkpt>
      <trkpt lat="45.89438" lon="1.28924">
        <ele>328.9</ele>
        <time>2024-11-05T14:58:51Z</time>
      </trkpt>
      <trkpt lat="45.89438" lon="1.28929">
        <ele>329.2</ele>
        <time>2024-11-05T14:58:52Z</time>
      </trkpt>
      <trkpt lat="45.89438" lon="1.28934">
        <ele>329.5</ele>
        <time>2024-11-05T14:58:53Z</time>
      </trkpt>
      <trkpt lat="45.89438" lon="1.28938">
        <ele>329.8</ele>
        <time>2024-11-05T14:58:54Z</time>
      </trkpt>
      <trkpt lat="45.89438" lon="1.28943">
        <ele>330.1</ele>
        <time>2024-11-05T14:58:55Z</time>
      </trkpt>
      <trkpt lat="45.89439" lon="1.28947">
        <ele>330.4</ele>
        <time>2024-11-05T14:58:56Z</time>
      </trkpt>
      <trkpt lat="45.8944" lon="1.28951">
        <ele>330.6</ele>
        <time>2024-11-05T14:58:57Z</time>
      </trkpt>
      <trkpt lat="45.89442" lon="1.28955">
        <ele>330.9</ele>
        <time>2024-11-05T14:58:58Z</time>
      </trkpt>
      <trkpt lat="45.89444" lon="1.28958">
        <ele>331.2</ele>
        <time>2024-11-05T14:58:59Z</time>
      </trkpt>
      <trkpt lat="45.89447" lon="1.28962">
        <ele>331.5</ele>
        <time>2024-11-05T14:59:01Z</time>
      </trkpt>
      <trkpt lat="45.8945" lon="1.28965">
        <ele>331.9</ele>
        <time>2024-11-05T14:59:02Z</time>
      </trkpt>
      <trkpt lat="45.89453" lon="1.28968">
        <ele>332.2</ele>
        <time>2024-11-05T14:59:03Z</time>
      </trkpt>
      <trkpt lat="45.89455" lon="1.28971">
        <ele>332.5</ele>
        <time>2024-11-05T14:59:04Z</time>
      </trkpt>
      <trkpt lat="45.89459" lon="1.28976">
        <ele>332.9</ele>
        <time>2024-11-05T14:59:06Z</time>
      </trkpt>
      <trkpt lat="45.89461" lon="1.2898">
        <ele>333.2</ele>
        <time>2024-11-05T14:59:07Z</time>
      </trkpt>
      <trkpt lat="45.89462" lon="1.28984">
        <ele>333.5</ele>
        <time>2024-11-05T14:59:08Z</time>
      </trkpt>
      <trkpt lat="45.89463" lon="1.28988">
        <ele>333.7</ele>
        <time>2024-11-05T14:59:09Z</time>
      </trkpt>
      <trkpt lat="45.89464" lon="1.28992">
        <ele>333.9</ele>
        <time>2024-11-05T14:59:10Z</time>
      </trkpt>
      <trkpt lat="45.89464" lon="1.28996">
        <ele>334.2</ele>
        <time>2024-11-05T14:59:11Z</time>
      </trkpt>
      <trkpt lat="45.89465" lon="1.28999">
        <ele>334.3</ele>
        <time>2024-11-05T14:59:12Z</time>
      </trkpt>
      <trkpt lat="45.89465" lon="1.29003">
        <ele>334.5</ele>
        <time>2024-11-05T14:59:13Z</time>
      </trkpt>
      <trkpt lat="45.89465" lon="1.29008">
        <ele>334.8</ele>
        <time>2024-11-05T14:59:14Z</time>
      </trkpt>
      <trkpt lat="45.89465" lon="1.29012">
        <ele>335</ele>
        <time>2024-11-05T14:59:15Z</time>
      </trkpt>
      <trkpt lat="45.89465" lon="1.29016">
        <ele>335.2</ele>
        <time>2024-11-05T14:59:16Z</time>
      </trkpt>
      <trkpt lat="45.89465" lon="1.2902">
        <ele>335.3</ele>
        <time>2024-11-05T14:59:17Z</time>
      </trkpt>
      <trkpt lat="45.89464" lon="1.29024">
        <ele>335.5</ele>
        <time>2024-11-05T14:59:18Z</time>
      </trkpt>
      <trkpt lat="45.89464" lon="1.29028">
        <ele>335.7</ele>
        <time>2024-11-05T14:59:19Z</time>
      </trkpt>
      <trkpt lat="45.89464" lon="1.29032">
        <ele>335.8</ele>
        <time>2024-11-05T14:59:20Z</time>
      </trkpt>
      <trkpt lat="45.89464" lon="1.29037">
        <ele>336</ele>
        <time>2024-11-05T14:59:21Z</time>
      </trkpt>
      <trkpt lat="45.89464" lon="1.29041">
        <ele>336.1</ele>
        <time>2024-11-05T14:59:22Z</time>
      </trkpt>
      <trkpt lat="45.89464" lon="1.29045">
        <ele>336.2</ele>
        <time>2024-11-05T14:59:23Z</time>
      </trkpt>
      <trkpt lat="45.89464" lon="1.2905">
        <ele>336.3</ele>
        <time>2024-11-05T14:59:24Z</time>
      </trkpt>
      <trkpt lat="45.89464" lon="1.29054">
        <ele>336.3</ele>
        <time>2024-11-05T14:59:25Z</time>
      </trkpt>
      <trkpt lat="45.89464" lon="1.29059">
        <ele>336.4</ele>
        <time>2024-11-05T14:59:26Z</time>
      </trkpt>
      <trkpt lat="45.89463" lon="1.29064">
        <ele>336.4</ele>
        <time>2024-11-05T14:59:27Z</time>
      </trkpt>
      <trkpt lat="45.89463" lon="1.29069">
        <ele>336.4</ele>
        <time>2024-11-05T14:59:28Z</time>
      </trkpt>
      <trkpt lat="45.89462" lon="1.29074">
        <ele>336.4</ele>
        <time>2024-11-05T14:59:29Z</time>
      </trkpt>
      <trkpt lat="45.89461" lon="1.29079">
        <ele>336.4</ele>
        <time>2024-11-05T14:59:30Z</time>
      </trkpt>
      <trkpt lat="45.89459" lon="1.29083">
        <ele>336.3</ele>
        <time>2024-11-05T14:59:31Z</time>
      </trkpt>
      <trkpt lat="45.89455" lon="1.29087">
        <ele>336.1</ele>
        <time>2024-11-05T14:59:32Z</time>
      </trkpt>
      <trkpt lat="45.89452" lon="1.29091">
        <ele>336</ele>
        <time>2024-11-05T14:59:33Z</time>
      </trkpt>
      <trkpt lat="45.89448" lon="1.29093">
        <ele>335.8</ele>
        <time>2024-11-05T14:59:34Z</time>
      </trkpt>
      <trkpt lat="45.89444" lon="1.29095">
        <ele>335.6</ele>
        <time>2024-11-05T14:59:35Z</time>
      </trkpt>
      <trkpt lat="45.89439" lon="1.29096">
        <ele>335.3</ele>
        <time>2024-11-05T14:59:36Z</time>
      </trkpt>
      <trkpt lat="45.89434" lon="1.29097">
        <ele>335</ele>
        <time>2024-11-05T14:59:37Z</time>
      </trkpt>
      <trkpt lat="45.89429" lon="1.29099">
        <ele>334.8</ele>
        <time>2024-11-05T14:59:38Z</time>
      </trkpt>
      <trkpt lat="45.89424" lon="1.291">
        <ele>334.5</ele>
        <time>2024-11-05T14:59:39Z</time>
      </trkpt>
      <trkpt lat="45.89418" lon="1.29102">
        <ele>334.2</ele>
        <time>2024-11-05T14:59:40Z</time>
      </trkpt>
      <trkpt lat="45.89412" lon="1.29104">
        <ele>334</ele>
        <time>2024-11-05T14:59:41Z</time>
      </trkpt>
      <trkpt lat="45.89406" lon="1.29107">
        <ele>333.8</ele>
        <time>2024-11-05T14:59:42Z</time>
      </trkpt>
      <trkpt lat="45.89399" lon="1.2911">
        <ele>333.6</ele>
        <time>2024-11-05T14:59:43Z</time>
      </trkpt>
      <trkpt lat="45.89393" lon="1.29114">
        <ele>333.5</ele>
        <time>2024-11-05T14:59:44Z</time>
      </trkpt>
      <trkpt lat="45.89388" lon="1.29118">
        <ele>333.4</ele>
        <time>2024-11-05T14:59:45Z</time>
      </trkpt>
      <trkpt lat="45.89383" lon="1.29122">
        <ele>333.4</ele>
        <time>2024-11-05T14:59:46Z</time>
      </trkpt>
      <trkpt lat="45.89379" lon="1.29125">
        <ele>333.4</ele>
        <time>2024-11-05T14:59:47Z</time>
      </trkpt>
      <trkpt lat="45.89375" lon="1.29127">
        <ele>333.4</ele>
        <time>2024-11-05T14:59:48Z</time>
      </trkpt>
      <trkpt lat="45.8937" lon="1.29128">
        <ele>333.3</ele>
        <time>2024-11-05T14:59:49Z</time>
      </trkpt>
      <trkpt lat="45.89366" lon="1.29128">
        <ele>333.2</ele>
        <time>2024-11-05T14:59:50Z</time>
      </trkpt>
      <trkpt lat="45.89361" lon="1.29128">
        <ele>333.1</ele>
        <time>2024-11-05T14:59:51Z</time>
      </trkpt>
      <trkpt lat="45.89356" lon="1.29129">
        <ele>333</ele>
        <time>2024-11-05T14:59:52Z</time>
      </trkpt>
      <trkpt lat="45.89351" lon="1.2913">
        <ele>332.9</ele>
        <time>2024-11-05T14:59:53Z</time>
      </trkpt>
      <trkpt lat="45.89346" lon="1.29133">
        <ele>332.8</ele>
        <time>2024-11-05T14:59:54Z</time>
      </trkpt>
      <trkpt lat="45.89341" lon="1.29137">
        <ele>332.8</ele>
        <time>2024-11-05T14:59:55Z</time>
      </trkpt>
      <trkpt lat="45.89337" lon="1.29142">
        <ele>332.7</ele>
        <time>2024-11-05T14:59:56Z</time>
      </trkpt>
      <trkpt lat="45.89335" lon="1.29149">
        <ele>332.7</ele>
        <time>2024-11-05T14:59:57Z</time>
      </trkpt>
      <trkpt lat="45.89333" lon="1.29156">
        <ele>332.7</ele>
        <time>2024-11-05T14:59:58Z</time>
      </trkpt>
      <trkpt lat="45.89333" lon="1.29163">
        <ele>332.8</ele>
        <time>2024-11-05T14:59:59Z</time>
      </trkpt>
      <trkpt lat="45.89333" lon="1.29171">
        <ele>332.8</ele>
        <time>2024-11-05T15:00:00Z</time>
      </trkpt>
      <trkpt lat="45.89334" lon="1.29178">
        <ele>332.9</ele>
        <time>2024-11-05T15:00:01Z</time>
      </trkpt>
      <trkpt lat="45.89336" lon="1.29185">
        <ele>333</ele>
        <time>2024-11-05T15:00:02Z</time>
      </trkpt>
      <trkpt lat="45.89339" lon="1.2919">
        <ele>333</ele>
        <time>2024-11-05T15:00:03Z</time>
      </trkpt>
      <trkpt lat="45.89344" lon="1.29194">
        <ele>333.1</ele>
        <time>2024-11-05T15:00:04Z</time>
      </trkpt>
      <trkpt lat="45.89349" lon="1.29198">
        <ele>333.2</ele>
        <time>2024-11-05T15:00:05Z</time>
      </trkpt>
      <trkpt lat="45.89353" lon="1.29203">
        <ele>333.3</ele>
        <time>2024-11-05T15:00:06Z</time>
      </trkpt>
      <trkpt lat="45.89357" lon="1.29208">
        <ele>333.4</ele>
        <time>2024-11-05T15:00:07Z</time>
      </trkpt>
      <trkpt lat="45.89361" lon="1.29214">
        <ele>333.5</ele>
        <time>2024-11-05T15:00:08Z</time>
      </trkpt>
      <trkpt lat="45.89364" lon="1.29222">
        <ele>333.6</ele>
        <time>2024-11-05T15:00:09Z</time>
      </trkpt>
      <trkpt lat="45.89366" lon="1.29229">
        <ele>333.7</ele>
        <time>2024-11-05T15:00:10Z</time>
      </trkpt>
      <trkpt lat="45.89368" lon="1.29238">
        <ele>333.8</ele>
        <time>2024-11-05T15:00:11Z</time>
      </trkpt>
      <trkpt lat="45.8937" lon="1.29246">
        <ele>333.9</ele>
        <time>2024-11-05T15:00:12Z</time>
      </trkpt>
      <trkpt lat="45.89372" lon="1.29254">
        <ele>333.9</ele>
        <time>2024-11-05T15:00:13Z</time>
      </trkpt>
      <trkpt lat="45.89374" lon="1.29262">
        <ele>334</ele>
        <time>2024-11-05T15:00:14Z</time>
      </trkpt>
      <trkpt lat="45.89376" lon="1.2927">
        <ele>334.2</ele>
        <time>2024-11-05T15:00:15Z</time>
      </trkpt>
      <trkpt lat="45.89378" lon="1.29279">
        <ele>334.3</ele>
        <time>2024-11-05T15:00:16Z</time>
      </trkpt>
      <trkpt lat="45.8938" lon="1.29286">
        <ele>334.4</ele>
        <time>2024-11-05T15:00:17Z</time>
      </trkpt>
      <trkpt lat="45.89381" lon="1.29294">
        <ele>334.6</ele>
        <time>2024-11-05T15:00:18Z</time>
      </trkpt>
      <trkpt lat="45.89383" lon="1.29302">
        <ele>334.8</ele>
        <time>2024-11-05T15:00:19Z</time>
      </trkpt>
      <trkpt lat="45.89384" lon="1.29309">
        <ele>334.9</ele>
        <time>2024-11-05T15:00:20Z</time>
      </trkpt>
      <trkpt lat="45.89383" lon="1.29317">
        <ele>335.1</ele>
        <time>2024-11-05T15:00:21Z</time>
      </trkpt>
      <trkpt lat="45.89382" lon="1.29325">
        <ele>335.3</ele>
        <time>2024-11-05T15:00:22Z</time>
      </trkpt>
      <trkpt lat="45.8938" lon="1.29331">
        <ele>335.4</ele>
        <time>2024-11-05T15:00:23Z</time>
      </trkpt>
      <trkpt lat="45.89378" lon="1.29338">
        <ele>335.4</ele>
        <time>2024-11-05T15:00:24Z</time>
      </trkpt>
      <trkpt lat="45.89376" lon="1.29346">
        <ele>335.4</ele>
        <time>2024-11-05T15:00:25Z</time>
      </trkpt>
      <trkpt lat="45.89374" lon="1.29354">
        <ele>335.5</ele>
        <time>2024-11-05T15:00:26Z</time>
      </trkpt>
      <trkpt lat="45.89374" lon="1.29362">
        <ele>335.5</ele>
        <time>2024-11-05T15:00:27Z</time>
      </trkpt>
      <trkpt lat="45.89375" lon="1.29369">
        <ele>335.6</ele>
        <time>2024-11-05T15:00:28Z</time>
      </trkpt>
      <trkpt lat="45.89377" lon="1.29376">
        <ele>335.6</ele>
        <time>2024-11-05T15:00:29Z</time>
      </trkpt>
      <trkpt lat="45.8938" lon="1.29382">
        <ele>335.6</ele>
        <time>2024-11-05T15:00:30Z</time>
      </trkpt>
      <trkpt lat="45.89383" lon="1.29388">
        <ele>335.6</ele>
        <time>2024-11-05T15:00:31Z</time>
      </trkpt>
      <trkpt lat="45.89387" lon="1.29392">
        <ele>335.6</ele>
        <time>2024-11-05T15:00:32Z</time>
      </trkpt>
      <trkpt lat="45.89392" lon="1.29395">
        <ele>335.6</ele>
        <time>2024-11-05T15:00:33Z</time>
      </trkpt>
      <trkpt lat="45.89398" lon="1.29397">
        <ele>335.6</ele>
        <time>2024-11-05T15:00:34Z</time>
      </trkpt>
      <trkpt lat="45.89403" lon="1.294">
        <ele>335.5</ele>
        <time>2024-11-05T15:00:35Z</time>
      </trkpt>
      <trkpt lat="45.89409" lon="1.29405">
        <ele>335.4</ele>
        <time>2024-11-05T15:00:36Z</time>
      </trkpt>
      <trkpt lat="45.89414" lon="1.29411">
        <ele>335.2</ele>
        <time>2024-11-05T15:00:37Z</time>
      </trkpt>
      <trkpt lat="45.89418" lon="1.29419">
        <ele>335.1</ele>
        <time>2024-11-05T15:00:38Z</time>
      </trkpt>
      <trkpt lat="45.8942" lon="1.29427">
        <ele>335</ele>
        <time>2024-11-05T15:00:39Z</time>
      </trkpt>
      <trkpt lat="45.89423" lon="1.29435">
        <ele>334.8</ele>
        <time>2024-11-05T15:00:40Z</time>
      </trkpt>
      <trkpt lat="45.89426" lon="1.29443">
        <ele>334.6</ele>
        <time>2024-11-05T15:00:41Z</time>
      </trkpt>
      <trkpt lat="45.89429" lon="1.29451">
        <ele>334.5</ele>
        <time>2024-11-05T15:00:42Z</time>
      </trkpt>
      <trkpt lat="45.89432" lon="1.29459">
        <ele>334.3</ele>
        <time>2024-11-05T15:00:43Z</time>
      </trkpt>
      <trkpt lat="45.89435" lon="1.29467">
        <ele>334.1</ele>
        <time>2024-11-05T15:00:44Z</time>
      </trkpt>
      <trkpt lat="45.89438" lon="1.29473">
        <ele>334</ele>
        <time>2024-11-05T15:00:45Z</time>
      </trkpt>
      <trkpt lat="45.8944" lon="1.29479">
        <ele>334</ele>
        <time>2024-11-05T15:00:46Z</time>
      </trkpt>
      <trkpt lat="45.89442" lon="1.29485">
        <ele>333.9</ele>
        <time>2024-11-05T15:00:47Z</time>
      </trkpt>
      <trkpt lat="45.89444" lon="1.29489">
        <ele>333.8</ele>
        <time>2024-11-05T15:00:48Z</time>
      </trkpt>
      <trkpt lat="45.89447" lon="1.29491">
        <ele>333.8</ele>
        <time>2024-11-05T15:00:49Z</time>
      </trkpt>
      <trkpt lat="45.8945" lon="1.29492">
        <ele>333.7</ele>
        <time>2024-11-05T15:00:50Z</time>
      </trkpt>
      <trkpt lat="45.89453" lon="1.29492">
        <ele>333.6</ele>
        <time>2024-11-05T15:00:51Z</time>
      </trkpt>
      <trkpt lat="45.89456" lon="1.29492">
        <ele>333.6</ele>
        <time>2024-11-05T15:00:52Z</time>
      </trkpt>
      <trkpt lat="45.8946" lon="1.29493">
        <ele>333.5</ele>
        <time>2024-11-05T15:00:53Z</time>
      </trkpt>
      <trkpt lat="45.89463" lon="1.29493">
        <ele>333.4</ele>
        <time>2024-11-05T15:00:54Z</time>
      </trkpt>
      <trkpt lat="45.89466" lon="1.29494">
        <ele>333.3</ele>
        <time>2024-11-05T15:00:55Z</time>
      </trkpt>
      <trkpt lat="45.89469" lon="1.29495">
        <ele>333.2</ele>
        <time>2024-11-05T15:00:56Z</time>
      </trkpt>
      <trkpt lat="45.89474" lon="1.29496">
        <ele>333.1</ele>
        <time>2024-11-05T15:00:58Z</time>
      </trkpt>
      <trkpt lat="45.89477" lon="1.29497">
        <ele>333</ele>
        <time>2024-11-05T15:00:59Z</time>
      </trkpt>
      <trkpt lat="45.8948" lon="1.29498">
        <ele>333</ele>
        <time>2024-11-05T15:01:00Z</time>
      </trkpt>
      <trkpt lat="45.89484" lon="1.29499">
        <ele>332.9</ele>
        <time>2024-11-05T15:01:02Z</time>
      </trkpt>
      <trkpt lat="45.89488" lon="1.295">
        <ele>332.7</ele>
        <time>2024-11-05T15:01:03Z</time>
      </trkpt>
      <trkpt lat="45.89492" lon="1.29501">
        <ele>332.6</ele>
        <time>2024-11-05T15:01:04Z</time>
      </trkpt>
      <trkpt lat="45.89496" lon="1.29501">
        <ele>332.5</ele>
        <time>2024-11-05T15:01:05Z</time>
      </trkpt>
      <trkpt lat="45.89499" lon="1.29501">
        <ele>332.5</ele>
        <time>2024-11-05T15:01:06Z</time>
      </trkpt>
      <trkpt lat="45.89502" lon="1.29501">
        <ele>332.4</ele>
        <time>2024-11-05T15:01:07Z</time>
      </trkpt>
      <trkpt lat="45.89506" lon="1.29502">
        <ele>332.3</ele>
        <time>2024-11-05T15:01:08Z</time>
      </trkpt>
      <trkpt lat="45.89509" lon="1.29502">
        <ele>332.2</ele>
        <time>2024-11-05T15:01:09Z</time>
      </trkpt>
      <trkpt lat="45.89512" lon="1.29503">
        <ele>332.1</ele>
        <time>2024-11-05T15:01:10Z</time>
      </trkpt>
      <trkpt lat="45.89515" lon="1.29503">
        <ele>332</ele>
        <time>2024-11-05T15:01:11Z</time>
      </trkpt>
      <trkpt lat="45.89518" lon="1.29504">
        <ele>332</ele>
        <time>2024-11-05T15:01:12Z</time>
      </trkpt>
      <trkpt lat="45.89521" lon="1.29504">
        <ele>331.9</ele>
        <time>2024-11-05T15:01:13Z</time>
      </trkpt>
      <trkpt lat="45.89524" lon="1.29505">
        <ele>331.8</ele>
        <time>2024-11-05T15:01:14Z</time>
      </trkpt>
      <trkpt lat="45.89526" lon="1.29505">
        <ele>331.8</ele>
        <time>2024-11-05T15:01:15Z</time>
      </trkpt>
      <trkpt lat="45.8953" lon="1.29505">
        <ele>331.7</ele>
        <time>2024-11-05T15:01:16Z</time>
      </trkpt>
      <trkpt lat="45.89533" lon="1.29506">
        <ele>331.6</ele>
        <time>2024-11-05T15:01:17Z</time>
      </trkpt>
      <trkpt lat="45.89536" lon="1.29508">
        <ele>331.5</ele>
        <time>2024-11-05T15:01:19Z</time>
      </trkpt>
      <trkpt lat="45.89538" lon="1.29511">
        <ele>331.4</ele>
        <time>2024-11-05T15:01:20Z</time>
      </trkpt>
      <trkpt lat="45.89539" lon="1.29515">
        <ele>331.2</ele>
        <time>2024-11-05T15:01:21Z</time>
      </trkpt>
      <trkpt lat="45.89539" lon="1.2952">
        <ele>331</ele>
        <time>2024-11-05T15:01:22Z</time>
      </trkpt>
      <trkpt lat="45.8954" lon="1.29524">
        <ele>330.9</ele>
        <time>2024-11-05T15:01:23Z</time>
      </trkpt>
      <trkpt lat="45.8954" lon="1.29529">
        <ele>330.7</ele>
        <time>2024-11-05T15:01:24Z</time>
      </trkpt>
      <trkpt lat="45.89541" lon="1.29533">
        <ele>330.6</ele>
        <time>2024-11-05T15:01:25Z</time>
      </trkpt>
      <trkpt lat="45.89541" lon="1.29537">
        <ele>330.5</ele>
        <time>2024-11-05T15:01:26Z</time>
      </trkpt>
      <trkpt lat="45.89542" lon="1.29541">
        <ele>330.4</ele>
        <time>2024-11-05T15:01:27Z</time>
      </trkpt>
      <trkpt lat="45.89543" lon="1.29546">
        <ele>330.2</ele>
        <time>2024-11-05T15:01:28Z</time>
      </trkpt>
      <trkpt lat="45.89544" lon="1.2955">
        <ele>330.2</ele>
        <time>2024-11-05T15:01:29Z</time>
      </trkpt>
      <trkpt lat="45.89546" lon="1.29555">
        <ele>330.1</ele>
        <time>2024-11-05T15:01:30Z</time>
      </trkpt>
      <trkpt lat="45.89547" lon="1.2956">
        <ele>330</ele>
        <time>2024-11-05T15:01:31Z</time>
      </trkpt>
      <trkpt lat="45.89549" lon="1.29565">
        <ele>330</ele>
        <time>2024-11-05T15:01:32Z</time>
      </trkpt>
      <trkpt lat="45.8955" lon="1.2957">
        <ele>329.9</ele>
        <time>2024-11-05T15:01:33Z</time>
      </trkpt>
      <trkpt lat="45.89551" lon="1.29575">
        <ele>329.8</ele>
        <time>2024-11-05T15:01:34Z</time>
      </trkpt>
      <trkpt lat="45.89553" lon="1.29581">
        <ele>329.7</ele>
        <time>2024-11-05T15:01:35Z</time>
      </trkpt>
      <trkpt lat="45.89555" lon="1.29586">
        <ele>329.7</ele>
        <time>2024-11-05T15:01:36Z</time>
      </trkpt>
      <trkpt lat="45.89557" lon="1.29591">
        <ele>329.6</ele>
        <time>2024-11-05T15:01:37Z</time>
      </trkpt>
      <trkpt lat="45.89559" lon="1.29597">
        <ele>329.5</ele>
        <time>2024-11-05T15:01:38Z</time>
      </trkpt>
      <trkpt lat="45.89561" lon="1.29602">
        <ele>329.5</ele>
        <time>2024-11-05T15:01:39Z</time>
      </trkpt>
      <trkpt lat="45.89563" lon="1.29607">
        <ele>329.4</ele>
        <time>2024-11-05T15:01:40Z</time>
      </trkpt>
      <trkpt lat="45.89564" lon="1.29612">
        <ele>329.4</ele>
        <time>2024-11-05T15:01:41Z</time>
      </trkpt>
      <trkpt lat="45.89565" lon="1.29617">
        <ele>329.4</ele>
        <time>2024-11-05T15:01:42Z</time>
      </trkpt>
      <trkpt lat="45.89565" lon="1.29623">
        <ele>329.3</ele>
        <time>2024-11-05T15:01:44Z</time>
      </trkpt>
      <trkpt lat="45.89567" lon="1.29629">
        <ele>329.3</ele>
        <time>2024-11-05T15:01:46Z</time>
      </trkpt>
      <trkpt lat="45.8957" lon="1.29634">
        <ele>329.2</ele>
        <time>2024-11-05T15:01:48Z</time>
      </trkpt>
      <trkpt lat="45.89572" lon="1.2964">
        <ele>329.2</ele>
        <time>2024-11-05T15:01:50Z</time>
      </trkpt>
      <trkpt lat="45.89574" lon="1.29646">
        <ele>329.1</ele>
        <time>2024-11-05T15:01:52Z</time>
      </trkpt>
      <trkpt lat="45.89577" lon="1.29651">
        <ele>329</ele>
        <time>2024-11-05T15:01:54Z</time>
      </trkpt>
      <trkpt lat="45.8958" lon="1.29654">
        <ele>329</ele>
        <time>2024-11-05T15:01:55Z</time>
      </trkpt>
      <trkpt lat="45.89583" lon="1.29655">
        <ele>328.9</ele>
        <time>2024-11-05T15:01:56Z</time>
      </trkpt>
      <trkpt lat="45.89585" lon="1.29656">
        <ele>328.9</ele>
        <time>2024-11-05T15:01:57Z</time>
      </trkpt>
      <trkpt lat="45.89588" lon="1.29656">
        <ele>328.8</ele>
        <time>2024-11-05T15:01:58Z</time>
      </trkpt>
      <trkpt lat="45.89593" lon="1.29656">
        <ele>328.7</ele>
        <time>2024-11-05T15:02:00Z</time>
      </trkpt>
      <trkpt lat="45.89596" lon="1.29657">
        <ele>328.7</ele>
        <time>2024-11-05T15:02:01Z</time>
      </trkpt>
      <trkpt lat="45.896" lon="1.29657">
        <ele>328.6</ele>
        <time>2024-11-05T15:02:02Z</time>
      </trkpt>
      <trkpt lat="45.89603" lon="1.29657">
        <ele>328.6</ele>
        <time>2024-11-05T15:02:03Z</time>
      </trkpt>
      <trkpt lat="45.89607" lon="1.29657">
        <ele>328.5</ele>
        <time>2024-11-05T15:02:04Z</time>
      </trkpt>
      <trkpt lat="45.8961" lon="1.29657">
        <ele>328.5</ele>
        <time>2024-11-05T15:02:05Z</time>
      </trkpt>
      <trkpt lat="45.89613" lon="1.29657">
        <ele>328.4</ele>
        <time>2024-11-05T15:02:06Z</time>
      </trkpt>
      <trkpt lat="45.89617" lon="1.29658">
        <ele>328.4</ele>
        <time>2024-11-05T15:02:08Z</time>
      </trkpt>
      <trkpt lat="45.89621" lon="1.29658">
        <ele>328.4</ele>
        <time>2024-11-05T15:02:10Z</time>
      </trkpt>
      <trkpt lat="45.89624" lon="1.29658">
        <ele>328.3</ele>
        <time>2024-11-05T15:02:12Z</time>
      </trkpt>
      <trkpt lat="45.89628" lon="1.29658">
        <ele>328.3</ele>
        <time>2024-11-05T15:02:14Z</time>
      </trkpt>
      <trkpt lat="45.89632" lon="1.29656">
        <ele>328.3</ele>
        <time>2024-11-05T15:02:16Z</time>
      </trkpt>
      <trkpt lat="45.89636" lon="1.29652">
        <ele>328.3</ele>
        <time>2024-11-05T15:02:18Z</time>
      </trkpt>
      <trkpt lat="45.89638" lon="1.29649">
        <ele>328.3</ele>
        <time>2024-11-05T15:02:19Z</time>
      </trkpt>
      <trkpt lat="45.89641" lon="1.29646">
        <ele>328.3</ele>
        <time>2024-11-05T15:02:20Z</time>
      </trkpt>
      <trkpt lat="45.89643" lon="1.29644">
        <ele>328.3</ele>
        <time>2024-11-05T15:02:21Z</time>
      </trkpt>
      <trkpt lat="45.89646" lon="1.29643">
        <ele>328.3</ele>
        <time>2024-11-05T15:02:22Z</time>
      </trkpt>
      <trkpt lat="45.89649" lon="1.29643">
        <ele>328.2</ele>
        <time>2024-11-05T15:02:23Z</time>
      </trkpt>
      <trkpt lat="45.89652" lon="1.29643">
        <ele>328.1</ele>
        <time>2024-11-05T15:02:24Z</time>
      </trkpt>
      <trkpt lat="45.89655" lon="1.29644">
        <ele>328.1</ele>
        <time>2024-11-05T15:02:25Z</time>
      </trkpt>
      <trkpt lat="45.89658" lon="1.29645">
        <ele>328</ele>
        <time>2024-11-05T15:02:26Z</time>
      </trkpt>
      <trkpt lat="45.89661" lon="1.29646">
        <ele>328</ele>
        <time>2024-11-05T15:02:27Z</time>
      </trkpt>
      <trkpt lat="45.89664" lon="1.29646">
        <ele>327.9</ele>
        <time>2024-11-05T15:02:28Z</time>
      </trkpt>
      <trkpt lat="45.89668" lon="1.29647">
        <ele>327.9</ele>
        <time>2024-11-05T15:02:29Z</time>
      </trkpt>
      <trkpt lat="45.89671" lon="1.29648">
        <ele>327.9</ele>
        <time>2024-11-05T15:02:30Z</time>
      </trkpt>
      <trkpt lat="45.89674" lon="1.29649">
        <ele>327.8</ele>
        <time>2024-11-05T15:02:31Z</time>
      </trkpt>
      <trkpt lat="45.89677" lon="1.29651">
        <ele>327.8</ele>
        <time>2024-11-05T15:02:32Z</time>
      </trkpt>
      <trkpt lat="45.8968" lon="1.29652">
        <ele>327.8</ele>
        <time>2024-11-05T15:02:33Z</time>
      </trkpt>
      <trkpt lat="45.89684" lon="1.29653">
        <ele>327.8</ele>
        <time>2024-11-05T15:02:34Z</time>
      </trkpt>
      <trkpt lat="45.89687" lon="1.29654">
        <ele>327.8</ele>
        <time>2024-11-05T15:02:35Z</time>
      </trkpt>
      <trkpt lat="45.8969" lon="1.29655">
        <ele>327.7</ele>
        <time>2024-11-05T15:02:36Z</time>
      </trkpt>
      <trkpt lat="45.89693" lon="1.29657">
        <ele>327.7</ele>
        <time>2024-11-05T15:02:37Z</time>
      </trkpt>
      <trkpt lat="45.89696" lon="1.29658">
        <ele>327.7</ele>
        <time>2024-11-05T15:02:38Z</time>
      </trkpt>
      <trkpt lat="45.89699" lon="1.2966">
        <ele>327.7</ele>
        <time>2024-11-05T15:02:39Z</time>
      </trkpt>
      <trkpt lat="45.89702" lon="1.29661">
        <ele>327.6</ele>
        <time>2024-11-05T15:02:40Z</time>
      </trkpt>
      <trkpt lat="45.89705" lon="1.29663">
        <ele>327.6</ele>
        <time>2024-11-05T15:02:41Z</time>
      </trkpt>
      <trkpt lat="45.89708" lon="1.29665">
        <ele>327.6</ele>
        <time>2024-11-05T15:02:42Z</time>
      </trkpt>
      <trkpt lat="45.89711" lon="1.29668">
        <ele>327.6</ele>
        <time>2024-11-05T15:02:43Z</time>
      </trkpt>
      <trkpt lat="45.89713" lon="1.29671">
        <ele>327.6</ele>
        <time>2024-11-05T15:02:44Z</time>
      </trkpt>
      <trkpt lat="45.89716" lon="1.29674">
        <ele>327.5</ele>
        <time>2024-11-05T15:02:45Z</time>
      </trkpt>
      <trkpt lat="45.89719" lon="1.29677">
        <ele>327.5</ele>
        <time>2024-11-05T15:02:46Z</time>
      </trkpt>
      <trkpt lat="45.89721" lon="1.29681">
        <ele>327.4</ele>
        <time>2024-11-05T15:02:47Z</time>
      </trkpt>
      <trkpt lat="45.89723" lon="1.29685">
        <ele>327.4</ele>
        <time>2024-11-05T15:02:48Z</time>
      </trkpt>
      <trkpt lat="45.89726" lon="1.29689">
        <ele>327.3</ele>
        <time>2024-11-05T15:02:49Z</time>
      </trkpt>
      <trkpt lat="45.89728" lon="1.29693">
        <ele>327.3</ele>
        <time>2024-11-05T15:02:50Z</time>
      </trkpt>
      <trkpt lat="45.8973" lon="1.29696">
        <ele>327.3</ele>
        <time>2024-11-05T15:02:51Z</time>
      </trkpt>
      <trkpt lat="45.89733" lon="1.297">
        <ele>327.2</ele>
        <time>2024-11-05T15:02:52Z</time>
      </trkpt>
      <trkpt lat="45.89735" lon="1.29704">
        <ele>327.2</ele>
        <time>2024-11-05T15:02:53Z</time>
      </trkpt>
      <trkpt lat="45.89738" lon="1.29707">
        <ele>327.2</ele>
        <time>2024-11-05T15:02:54Z</time>
      </trkpt>
      <trkpt lat="45.8974" lon="1.2971">
        <ele>327.2</ele>
        <time>2024-11-05T15:02:55Z</time>
      </trkpt>
      <trkpt lat="45.89743" lon="1.29713">
        <ele>327.2</ele>
        <time>2024-11-05T15:02:56Z</time>
      </trkpt>
      <trkpt lat="45.89746" lon="1.29716">
        <ele>327.2</ele>
        <time>2024-11-05T15:02:57Z</time>
      </trkpt>
      <trkpt lat="45.89748" lon="1.29719">
        <ele>327.2</ele>
        <time>2024-11-05T15:02:58Z</time>
      </trkpt>
      <trkpt lat="45.89751" lon="1.29722">
        <ele>327.1</ele>
        <time>2024-11-05T15:02:59Z</time>
      </trkpt>
      <trkpt lat="45.89755" lon="1.29724">
        <ele>327.1</ele>
        <time>2024-11-05T15:03:00Z</time>
      </trkpt>
      <trkpt lat="45.89758" lon="1.29726">
        <ele>327.1</ele>
        <time>2024-11-05T15:03:01Z</time>
      </trkpt>
      <trkpt lat="45.89761" lon="1.29727">
        <ele>327.1</ele>
        <time>2024-11-05T15:03:02Z</time>
      </trkpt>
      <trkpt lat="45.89763" lon="1.29729">
        <ele>327.1</ele>
        <time>2024-11-05T15:03:03Z</time>
      </trkpt>
      <trkpt lat="45.89766" lon="1.29731">
        <ele>327.1</ele>
        <time>2024-11-05T15:03:05Z</time>
      </trkpt>
      <trkpt lat="45.89769" lon="1.29733">
        <ele>327</ele>
        <time>2024-11-05T15:03:08Z</time>
      </trkpt>
      <trkpt lat="45.89773" lon="1.29733">
        <ele>327</ele>
        <time>2024-11-05T15:03:10Z</time>
      </trkpt>
      <trkpt lat="45.89778" lon="1.29734">
        <ele>327</ele>
        <time>2024-11-05T15:03:12Z</time>
      </trkpt>
      <trkpt lat="45.89782" lon="1.29735">
        <ele>327</ele>
        <time>2024-11-05T15:03:13Z</time>
      </trkpt>
      <trkpt lat="45.89785" lon="1.29736">
        <ele>327</ele>
        <time>2024-11-05T15:03:14Z</time>
      </trkpt>
      <trkpt lat="45.89789" lon="1.29736">
        <ele>327</ele>
        <time>2024-11-05T15:03:15Z</time>
      </trkpt>
      <trkpt lat="45.89792" lon="1.29736">
        <ele>327</ele>
        <time>2024-11-05T15:03:16Z</time>
      </trkpt>
      <trkpt lat="45.89796" lon="1.29737">
        <ele>327</ele>
        <time>2024-11-05T15:03:17Z</time>
      </trkpt>
      <trkpt lat="45.89799" lon="1.29737">
        <ele>326.9</ele>
        <time>2024-11-05T15:03:18Z</time>
      </trkpt>
      <trkpt lat="45.89803" lon="1.29737">
        <ele>326.9</ele>
        <time>2024-11-05T15:03:19Z</time>
      </trkpt>
      <trkpt lat="45.89806" lon="1.29736">
        <ele>326.9</ele>
        <time>2024-11-05T15:03:20Z</time>
      </trkpt>
      <trkpt lat="45.8981" lon="1.29736">
        <ele>326.9</ele>
        <time>2024-11-05T15:03:21Z</time>
      </trkpt>
      <trkpt lat="45.89813" lon="1.29736">
        <ele>326.9</ele>
        <time>2024-11-05T15:03:22Z</time>
      </trkpt>
      <trkpt lat="45.89817" lon="1.29736">
        <ele>326.9</ele>
        <time>2024-11-05T15:03:23Z</time>
      </trkpt>
      <trkpt lat="45.8982" lon="1.29736">
        <ele>326.9</ele>
        <time>2024-11-05T15:03:24Z</time>
      </trkpt>
      <trkpt lat="45.89823" lon="1.29735">
        <ele>326.9</ele>
        <time>2024-11-05T15:03:25Z</time>
      </trkpt>
      <trkpt lat="45.89826" lon="1.29735">
        <ele>326.9</ele>
        <time>2024-11-05T15:03:26Z</time>
      </trkpt>
      <trkpt lat="45.89829" lon="1.29735">
        <ele>326.8</ele>
        <time>2024-11-05T15:03:27Z</time>
      </trkpt>
      <trkpt lat="45.89833" lon="1.29734">
        <ele>326.8</ele>
        <time>2024-11-05T15:03:28Z</time>
      </trkpt>
      <trkpt lat="45.89836" lon="1.29735">
        <ele>326.8</ele>
        <time>2024-11-05T15:03:29Z</time>
      </trkpt>
      <trkpt lat="45.89839" lon="1.29735">
        <ele>326.8</ele>
        <time>2024-11-05T15:03:30Z</time>
      </trkpt>
      <trkpt lat="45.89843" lon="1.29736">
        <ele>326.8</ele>
        <time>2024-11-05T15:03:31Z</time>
      </trkpt>
      <trkpt lat="45.89847" lon="1.29738">
        <ele>326.8</ele>
        <time>2024-11-05T15:03:32Z</time>
      </trkpt>
      <trkpt lat="45.8985" lon="1.29739">
        <ele>326.8</ele>
        <time>2024-11-05T15:03:33Z</time>
      </trkpt>
      <trkpt lat="45.89854" lon="1.2974">
        <ele>326.8</ele>
        <time>2024-11-05T15:03:34Z</time>
      </trkpt>
      <trkpt lat="45.89857" lon="1.29742">
        <ele>326.8</ele>
        <time>2024-11-05T15:03:35Z</time>
      </trkpt>
      <trkpt lat="45.8986" lon="1.29743">
        <ele>326.8</ele>
        <time>2024-11-05T15:03:36Z</time>
      </trkpt>
      <trkpt lat="45.89862" lon="1.29745">
        <ele>326.8</ele>
        <time>2024-11-05T15:03:37Z</time>
      </trkpt>
      <trkpt lat="45.89865" lon="1.29747">
        <ele>326.8</ele>
        <time>2024-11-05T15:03:38Z</time>
      </trkpt>
      <trkpt lat="45.89868" lon="1.29749">
        <ele>326.8</ele>
        <time>2024-11-05T15:03:39Z</time>
      </trkpt>
      <trkpt lat="45.89872" lon="1.29752">
        <ele>326.8</ele>
        <time>2024-11-05T15:03:40Z</time>
      </trkpt>
      <trkpt lat="45.89875" lon="1.29754">
        <ele>326.9</ele>
        <time>2024-11-05T15:03:41Z</time>
      </trkpt>
      <trkpt lat="45.89878" lon="1.29755">
        <ele>326.9</ele>
        <time>2024-11-05T15:03:42Z</time>
      </trkpt>
      <trkpt lat="45.89882" lon="1.29757">
        <ele>326.9</ele>
        <time>2024-11-05T15:03:43Z</time>
      </trkpt>
      <trkpt lat="45.89885" lon="1.29759">
        <ele>327</ele>
        <time>2024-11-05T15:03:44Z</time>
      </trkpt>
      <trkpt lat="45.89889" lon="1.29761">
        <ele>327</ele>
        <time>2024-11-05T15:03:45Z</time>
      </trkpt>
      <trkpt lat="45.89892" lon="1.29763">
        <ele>327</ele>
        <time>2024-11-05T15:03:46Z</time>
      </trkpt>
      <trkpt lat="45.89896" lon="1.29765">
        <ele>327.1</ele>
        <time>2024-11-05T15:03:47Z</time>
      </trkpt>
      <trkpt lat="45.899" lon="1.29767">
        <ele>327.1</ele>
        <time>2024-11-05T15:03:48Z</time>
      </trkpt>
      <trkpt lat="45.89904" lon="1.29769">
        <ele>327.2</ele>
        <time>2024-11-05T15:03:49Z</time>
      </trkpt>
      <trkpt lat="45.89907" lon="1.29771">
        <ele>327.2</ele>
        <time>2024-11-05T15:03:50Z</time>
      </trkpt>
      <trkpt lat="45.89911" lon="1.29773">
        <ele>327.3</ele>
        <time>2024-11-05T15:03:51Z</time>
      </trkpt>
      <trkpt lat="45.89914" lon="1.29775">
        <ele>327.3</ele>
        <time>2024-11-05T15:03:52Z</time>
      </trkpt>
      <trkpt lat="45.89918" lon="1.29777">
        <ele>327.4</ele>
        <time>2024-11-05T15:03:53Z</time>
      </trkpt>
      <trkpt lat="45.89922" lon="1.29779">
        <ele>327.5</ele>
        <time>2024-11-05T15:03:54Z</time>
      </trkpt>
      <trkpt lat="45.89925" lon="1.29781">
        <ele>327.5</ele>
        <time>2024-11-05T15:03:55Z</time>
      </trkpt>
      <trkpt lat="45.89929" lon="1.29783">
        <ele>327.6</ele>
        <time>2024-11-05T15:03:56Z</time>
      </trkpt>
      <trkpt lat="45.89933" lon="1.29785">
        <ele>327.6</ele>
        <time>2024-11-05T15:03:57Z</time>
      </trkpt>
      <trkpt lat="45.89936" lon="1.29787">
        <ele>327.7</ele>
        <time>2024-11-05T15:03:58Z</time>
      </trkpt>
      <trkpt lat="45.8994" lon="1.29789">
        <ele>327.7</ele>
        <time>2024-11-05T15:03:59Z</time>
      </trkpt>
      <trkpt lat="45.89944" lon="1.29791">
        <ele>327.8</ele>
        <time>2024-11-05T15:04:00Z</time>
      </trkpt>
      <trkpt lat="45.89948" lon="1.29793">
        <ele>327.8</ele>
        <time>2024-11-05T15:04:01Z</time>
      </trkpt>
      <trkpt lat="45.89951" lon="1.29795">
        <ele>327.9</ele>
        <time>2024-11-05T15:04:02Z</time>
      </trkpt>
      <trkpt lat="45.89955" lon="1.29797">
        <ele>327.9</ele>
        <time>2024-11-05T15:04:03Z</time>
      </trkpt>
      <trkpt lat="45.89959" lon="1.29798">
        <ele>328</ele>
        <time>2024-11-05T15:04:04Z</time>
      </trkpt>
      <trkpt lat="45.89963" lon="1.298">
        <ele>328</ele>
        <time>2024-11-05T15:04:05Z</time>
      </trkpt>
      <trkpt lat="45.89966" lon="1.29802">
        <ele>328.1</ele>
        <time>2024-11-05T15:04:06Z</time>
      </trkpt>
      <trkpt lat="45.8997" lon="1.29804">
        <ele>328.1</ele>
        <time>2024-11-05T15:04:07Z</time>
      </trkpt>
      <trkpt lat="45.89974" lon="1.29806">
        <ele>328.2</ele>
        <time>2024-11-05T15:04:08Z</time>
      </trkpt>
      <trkpt lat="45.89978" lon="1.29809">
        <ele>328.3</ele>
        <time>2024-11-05T15:04:09Z</time>
      </trkpt>
      <trkpt lat="45.89982" lon="1.29811">
        <ele>328.3</ele>
        <time>2024-11-05T15:04:10Z</time>
      </trkpt>
      <trkpt lat="45.89986" lon="1.29812">
        <ele>328.4</ele>
        <time>2024-11-05T15:04:11Z</time>
      </trkpt>
      <trkpt lat="45.89989" lon="1.29814">
        <ele>328.5</ele>
        <time>2024-11-05T15:04:12Z</time>
      </trkpt>
      <trkpt lat="45.89993" lon="1.29816">
        <ele>328.5</ele>
        <time>2024-11-05T15:04:13Z</time>
      </trkpt>
      <trkpt lat="45.89997" lon="1.29818">
        <ele>328.6</ele>
        <time>2024-11-05T15:04:14Z</time>
      </trkpt>
      <trkpt lat="45.9" lon="1.2982">
        <ele>328.7</ele>
        <time>2024-11-05T15:04:15Z</time>
      </trkpt>
      <trkpt lat="45.90004" lon="1.29822">
        <ele>328.7</ele>
        <time>2024-11-05T15:04:16Z</time>
      </trkpt>
      <trkpt lat="45.90007" lon="1.29824">
        <ele>328.8</ele>
        <time>2024-11-05T15:04:17Z</time>
      </trkpt>
      <trkpt lat="45.90011" lon="1.29826">
        <ele>328.9</ele>
        <time>2024-11-05T15:04:18Z</time>
      </trkpt>
      <trkpt lat="45.90014" lon="1.2983">
        <ele>328.9</ele>
        <time>2024-11-05T15:04:19Z</time>
      </trkpt>
      <trkpt lat="45.90016" lon="1.29834">
        <ele>329</ele>
        <time>2024-11-05T15:04:20Z</time>
      </trkpt>
      <trkpt lat="45.90017" lon="1.29838">
        <ele>329.1</ele>
        <time>2024-11-05T15:04:21Z</time>
      </trkpt>
      <trkpt lat="45.90017" lon="1.29842">
        <ele>329.2</ele>
        <time>2024-11-05T15:04:22Z</time>
      </trkpt>
      <trkpt lat="45.90017" lon="1.29846">
        <ele>329.2</ele>
        <time>2024-11-05T15:04:23Z</time>
      </trkpt>
      <trkpt lat="45.90016" lon="1.2985">
        <ele>329.3</ele>
        <time>2024-11-05T15:04:24Z</time>
      </trkpt>
      <trkpt lat="45.90015" lon="1.29855">
        <ele>329.4</ele>
        <time>2024-11-05T15:04:25Z</time>
      </trkpt>
      <trkpt lat="45.90014" lon="1.2986">
        <ele>329.5</ele>
        <time>2024-11-05T15:04:26Z</time>
      </trkpt>
      <trkpt lat="45.90014" lon="1.29865">
        <ele>329.5</ele>
        <time>2024-11-05T15:04:27Z</time>
      </trkpt>
      <trkpt lat="45.90012" lon="1.2987">
        <ele>329.6</ele>
        <time>2024-11-05T15:04:28Z</time>
      </trkpt>
      <trkpt lat="45.90011" lon="1.29875">
        <ele>329.6</ele>
        <time>2024-11-05T15:04:29Z</time>
      </trkpt>
      <trkpt lat="45.9001" lon="1.2988">
        <ele>329.7</ele>
        <time>2024-11-05T15:04:30Z</time>
      </trkpt>
      <trkpt lat="45.90009" lon="1.29885">
        <ele>329.7</ele>
        <time>2024-11-05T15:04:31Z</time>
      </trkpt>
      <trkpt lat="45.90007" lon="1.2989">
        <ele>329.8</ele>
        <time>2024-11-05T15:04:32Z</time>
      </trkpt>
      <trkpt lat="45.90005" lon="1.29894">
        <ele>329.9</ele>
        <time>2024-11-05T15:04:33Z</time>
      </trkpt>
      <trkpt lat="45.90003" lon="1.29899">
        <ele>329.9</ele>
        <time>2024-11-05T15:04:34Z</time>
      </trkpt>
      <trkpt lat="45.90002" lon="1.29904">
        <ele>330</ele>
        <time>2024-11-05T15:04:35Z</time>
      </trkpt>
      <trkpt lat="45.90001" lon="1.29909">
        <ele>330.1</ele>
        <time>2024-11-05T15:04:36Z</time>
      </trkpt>
      <trkpt lat="45.9" lon="1.29914">
        <ele>330.1</ele>
        <time>2024-11-05T15:04:37Z</time>
      </trkpt>
      <trkpt lat="45.89999" lon="1.29919">
        <ele>330.2</ele>
        <time>2024-11-05T15:04:38Z</time>
      </trkpt>
      <trkpt lat="45.89998" lon="1.29924">
        <ele>330.3</ele>
        <time>2024-11-05T15:04:39Z</time>
      </trkpt>
      <trkpt lat="45.89996" lon="1.29929">
        <ele>330.4</ele>
        <time>2024-11-05T15:04:40Z</time>
      </trkpt>
      <trkpt lat="45.89995" lon="1.29935">
        <ele>330.4</ele>
        <time>2024-11-05T15:04:41Z</time>
      </trkpt>
      <trkpt lat="45.89993" lon="1.29939">
        <ele>330.5</ele>
        <time>2024-11-05T15:04:42Z</time>
      </trkpt>
      <trkpt lat="45.8999" lon="1.29942">
        <ele>330.5</ele>
        <time>2024-11-05T15:04:43Z</time>
      </trkpt>
      <trkpt lat="45.89986" lon="1.29944">
        <ele>330.5</ele>
        <time>2024-11-05T15:04:44Z</time>
      </trkpt>
      <trkpt lat="45.89983" lon="1.29945">
        <ele>330.6</ele>
        <time>2024-11-05T15:04:45Z</time>
      </trkpt>
      <trkpt lat="45.89979" lon="1.29945">
        <ele>330.6</ele>
        <time>2024-11-05T15:04:46Z</time>
      </trkpt>
      <trkpt lat="45.89976" lon="1.29947">
        <ele>330.6</ele>
        <time>2024-11-05T15:04:48Z</time>
      </trkpt>
      <trkpt lat="45.89973" lon="1.29951">
        <ele>330.5</ele>
        <time>2024-11-05T15:04:50Z</time>
      </trkpt>
      <trkpt lat="45.89972" lon="1.29956">
        <ele>330.6</ele>
        <time>2024-11-05T15:04:52Z</time>
      </trkpt>
      <trkpt lat="45.89973" lon="1.29959">
        <ele>330.6</ele>
        <time>2024-11-05T15:04:53Z</time>
      </trkpt>
      <trkpt lat="45.89976" lon="1.29961">
        <ele>330.6</ele>
        <time>2024-11-05T15:04:54Z</time>
      </trkpt>
      <trkpt lat="45.89978" lon="1.2996">
        <ele>330.6</ele>
        <time>2024-11-05T15:04:55Z</time>
      </trkpt>
      <trkpt lat="45.8998" lon="1.29958">
        <ele>330.6</ele>
        <time>2024-11-05T15:04:56Z</time>
      </trkpt>
      <trkpt lat="45.89983" lon="1.29955">
        <ele>330.6</ele>
        <time>2024-11-05T15:04:57Z</time>
      </trkpt>
      <trkpt lat="45.89985" lon="1.29952">
        <ele>330.6</ele>
        <time>2024-11-05T15:04:58Z</time>
      </trkpt>
      <trkpt lat="45.89988" lon="1.2995">
        <ele>330.5</ele>
        <time>2024-11-05T15:04:59Z</time>
      </trkpt>
      <trkpt lat="45.89991" lon="1.29948">
        <ele>330.5</ele>
        <time>2024-11-05T15:05:00Z</time>
      </trkpt>
      <trkpt lat="45.89994" lon="1.29947">
        <ele>330.5</ele>
        <time>2024-11-05T15:05:01Z</time>
      </trkpt>
      <trkpt lat="45.89997" lon="1.29945">
        <ele>330.5</ele>
        <time>2024-11-05T15:05:02Z</time>
      </trkpt>
      <trkpt lat="45.90001" lon="1.29943">
        <ele>330.4</ele>
        <time>2024-11-05T15:05:03Z</time>
      </trkpt>
      <trkpt lat="45.90004" lon="1.29941">
        <ele>330.3</ele>
        <time>2024-11-05T15:05:04Z</time>
      </trkpt>
      <trkpt lat="45.90007" lon="1.29939">
        <ele>330.3</ele>
        <time>2024-11-05T15:05:05Z</time>
      </trkpt>
      <trkpt lat="45.90009" lon="1.29935">
        <ele>330.2</ele>
        <time>2024-11-05T15:05:06Z</time>
      </trkpt>
      <trkpt lat="45.90011" lon="1.29932">
        <ele>330.2</ele>
        <time>2024-11-05T15:05:07Z</time>
      </trkpt>
      <trkpt lat="45.90013" lon="1.29928">
        <ele>330.1</ele>
        <time>2024-11-05T15:05:08Z</time>
      </trkpt>
      <trkpt lat="45.90014" lon="1.29924">
        <ele>330.1</ele>
        <time>2024-11-05T15:05:09Z</time>
      </trkpt>
      <trkpt lat="45.90015" lon="1.2992">
        <ele>330.1</ele>
        <time>2024-11-05T15:05:10Z</time>
      </trkpt>
      <trkpt lat="45.90018" lon="1.29914">
        <ele>330</ele>
        <time>2024-11-05T15:05:12Z</time>
      </trkpt>
      <trkpt lat="45.90019" lon="1.2991">
        <ele>330</ele>
        <time>2024-11-05T15:05:13Z</time>
      </trkpt>
      <trkpt lat="45.90021" lon="1.29906">
        <ele>329.9</ele>
        <time>2024-11-05T15:05:14Z</time>
      </trkpt>
      <trkpt lat="45.90023" lon="1.29902">
        <ele>329.9</ele>
        <time>2024-11-05T15:05:15Z</time>
      </trkpt>
      <trkpt lat="45.90024" lon="1.29898">
        <ele>329.9</ele>
        <time>2024-11-05T15:05:16Z</time>
      </trkpt>
      <trkpt lat="45.90025" lon="1.29893">
        <ele>329.8</ele>
        <time>2024-11-05T15:05:17Z</time>
      </trkpt>
      <trkpt lat="45.90027" lon="1.29889">
        <ele>329.8</ele>
        <time>2024-11-05T15:05:18Z</time>
      </trkpt>
      <trkpt lat="45.90028" lon="1.29884">
        <ele>329.7</ele>
        <time>2024-11-05T15:05:19Z</time>
      </trkpt>
      <trkpt lat="45.9003" lon="1.2988">
        <ele>329.7</ele>
        <time>2024-11-05T15:05:20Z</time>
      </trkpt>
      <trkpt lat="45.90032" lon="1.29875">
        <ele>329.7</ele>
        <time>2024-11-05T15:05:21Z</time>
      </trkpt>
      <trkpt lat="45.90033" lon="1.29871">
        <ele>329.6</ele>
        <time>2024-11-05T15:05:22Z</time>
      </trkpt>
      <trkpt lat="45.90035" lon="1.29867">
        <ele>329.6</ele>
        <time>2024-11-05T15:05:23Z</time>
      </trkpt>
      <trkpt lat="45.90037" lon="1.29863">
        <ele>329.6</ele>
        <time>2024-11-05T15:05:24Z</time>
      </trkpt>
      <trkpt lat="45.90039" lon="1.29859">
        <ele>329.5</ele>
        <time>2024-11-05T15:05:25Z</time>
      </trkpt>
      <trkpt lat="45.90042" lon="1.29856">
        <ele>329.5</ele>
        <time>2024-11-05T15:05:26Z</time>
      </trkpt>
      <trkpt lat="45.90045" lon="1.29853">
        <ele>329.5</ele>
        <time>2024-11-05T15:05:27Z</time>
      </trkpt>
      <trkpt lat="45.90048" lon="1.29852">
        <ele>329.5</ele>
        <time>2024-11-05T15:05:28Z</time>
      </trkpt>
      <trkpt lat="45.90051" lon="1.29852">
        <ele>329.5</ele>
        <time>2024-11-05T15:05:29Z</time>
      </trkpt>
      <trkpt lat="45.90054" lon="1.29854">
        <ele>329.6</ele>
        <time>2024-11-05T15:05:30Z</time>
      </trkpt>
      <trkpt lat="45.90057" lon="1.29856">
        <ele>329.7</ele>
        <time>2024-11-05T15:05:31Z</time>
      </trkpt>
      <trkpt lat="45.9006" lon="1.29858">
        <ele>329.8</ele>
        <time>2024-11-05T15:05:32Z</time>
      </trkpt>
      <trkpt lat="45.90064" lon="1.2986">
        <ele>329.9</ele>
        <time>2024-11-05T15:05:34Z</time>
      </trkpt>
      <trkpt lat="45.90067" lon="1.29864">
        <ele>330.1</ele>
        <time>2024-11-05T15:05:36Z</time>
      </trkpt>
      <trkpt lat="45.9007" lon="1.29867">
        <ele>330.2</ele>
        <time>2024-11-05T15:05:38Z</time>
      </trkpt>
      <trkpt lat="45.90073" lon="1.29865">
        <ele>330.3</ele>
        <time>2024-11-05T15:05:41Z</time>
      </trkpt>
      <trkpt lat="45.90072" lon="1.29863">
        <ele>330.3</ele>
        <time>2024-11-05T15:06:01Z</time>
      </trkpt>
      <trkpt lat="45.90071" lon="1.29861">
        <ele>330.4</ele>
        <time>2024-11-05T15:06:18Z</time>
      </trkpt>
      <trkpt lat="45.90069" lon="1.29858">
        <ele>330.5</ele>
        <time>2024-11-05T15:06:54Z</time>
      </trkpt>
      <trkpt lat="45.9007" lon="1.29858">
        <ele>330.5</ele>
        <time>2024-11-05T15:07:05Z</time>
      </trkpt>
      <trkpt lat="45.90073" lon="1.29858">
        <ele>330.6</ele>
        <time>2024-11-05T15:07:42Z</time>
      </trkpt>
      <trkpt lat="45.90076" lon="1.2986">
        <ele>330.7</ele>
        <time>2024-11-05T15:07:44Z</time>
      </trkpt>
      <trkpt lat="45.90079" lon="1.29863">
        <ele>330.7</ele>
        <time>2024-11-05T15:07:46Z</time>
      </trkpt>
      <trkpt lat="45.90082" lon="1.29866">
        <ele>330.8</ele>
        <time>2024-11-05T15:07:47Z</time>
      </trkpt>
      <trkpt lat="45.90085" lon="1.29868">
        <ele>330.8</ele>
        <time>2024-11-05T15:07:48Z</time>
      </trkpt>
      <trkpt lat="45.90087" lon="1.2987">
        <ele>330.8</ele>
        <time>2024-11-05T15:07:49Z</time>
      </trkpt>
      <trkpt lat="45.9009" lon="1.29873">
        <ele>330.8</ele>
        <time>2024-11-05T15:07:50Z</time>
      </trkpt>
      <trkpt lat="45.90093" lon="1.29875">
        <ele>330.8</ele>
        <time>2024-11-05T15:07:51Z</time>
      </trkpt>
      <trkpt lat="45.90096" lon="1.29879">
        <ele>330.9</ele>
        <time>2024-11-05T15:07:53Z</time>
      </trkpt>
      <trkpt lat="45.90101" lon="1.2988">
        <ele>330.8</ele>
        <time>2024-11-05T15:07:55Z</time>
      </trkpt>
      <trkpt lat="45.90104" lon="1.29879">
        <ele>330.8</ele>
        <time>2024-11-05T15:07:56Z</time>
      </trkpt>
      <trkpt lat="45.90106" lon="1.29876">
        <ele>330.8</ele>
        <time>2024-11-05T15:07:57Z</time>
      </trkpt>
      <trkpt lat="45.90107" lon="1.29872">
        <ele>330.7</ele>
        <time>2024-11-05T15:07:58Z</time>
      </trkpt>
      <trkpt lat="45.90108" lon="1.29869">
        <ele>330.6</ele>
        <time>2024-11-05T15:07:59Z</time>
      </trkpt>
      <trkpt lat="45.90111" lon="1.29865">
        <ele>330.5</ele>
        <time>2024-11-05T15:08:01Z</time>
      </trkpt>
      <trkpt lat="45.90115" lon="1.29862">
        <ele>330.4</ele>
        <time>2024-11-05T15:08:03Z</time>
      </trkpt>
      <trkpt lat="45.90115" lon="1.29857">
        <ele>330.3</ele>
        <time>2024-11-05T15:08:09Z</time>
      </trkpt>
      <trkpt lat="45.90117" lon="1.29851">
        <ele>330.2</ele>
        <time>2024-11-05T15:08:11Z</time>
      </trkpt>
      <trkpt lat="45.90119" lon="1.29847">
        <ele>330.1</ele>
        <time>2024-11-05T15:08:12Z</time>
      </trkpt>
      <trkpt lat="45.9012" lon="1.29843">
        <ele>330</ele>
        <time>2024-11-05T15:08:13Z</time>
      </trkpt>
      <trkpt lat="45.90122" lon="1.29838">
        <ele>329.9</ele>
        <time>2024-11-05T15:08:14Z</time>
      </trkpt>
      <trkpt lat="45.90124" lon="1.29834">
        <ele>329.9</ele>
        <time>2024-11-05T15:08:15Z</time>
      </trkpt>
      <trkpt lat="45.90126" lon="1.2983">
        <ele>329.9</ele>
        <time>2024-11-05T15:08:16Z</time>
      </trkpt>
      <trkpt lat="45.90128" lon="1.29825">
        <ele>329.9</ele>
        <time>2024-11-05T15:08:17Z</time>
      </trkpt>
      <trkpt lat="45.9013" lon="1.29821">
        <ele>329.9</ele>
        <time>2024-11-05T15:08:18Z</time>
      </trkpt>
      <trkpt lat="45.90132" lon="1.29816">
        <ele>329.9</ele>
        <time>2024-11-05T15:08:19Z</time>
      </trkpt>
      <trkpt lat="45.90134" lon="1.29812">
        <ele>329.9</ele>
        <time>2024-11-05T15:08:20Z</time>
      </trkpt>
      <trkpt lat="45.90135" lon="1.29807">
        <ele>329.9</ele>
        <time>2024-11-05T15:08:21Z</time>
      </trkpt>
      <trkpt lat="45.90137" lon="1.29802">
        <ele>330</ele>
        <time>2024-11-05T15:08:23Z</time>
      </trkpt>
      <trkpt lat="45.9014" lon="1.29799">
        <ele>330</ele>
        <time>2024-11-05T15:08:25Z</time>
      </trkpt>
      <trkpt lat="45.90144" lon="1.298">
        <ele>330.1</ele>
        <time>2024-11-05T15:08:27Z</time>
      </trkpt>
      <trkpt lat="45.90148" lon="1.29802">
        <ele>330.1</ele>
        <time>2024-11-05T15:08:28Z</time>
      </trkpt>
      <trkpt lat="45.90151" lon="1.29804">
        <ele>330.2</ele>
        <time>2024-11-05T15:08:29Z</time>
      </trkpt>
      <trkpt lat="45.90154" lon="1.29805">
        <ele>330.2</ele>
        <time>2024-11-05T15:08:30Z</time>
      </trkpt>
      <trkpt lat="45.90156" lon="1.29807">
        <ele>330.3</ele>
        <time>2024-11-05T15:08:31Z</time>
      </trkpt>
      <trkpt lat="45.90159" lon="1.29809">
        <ele>330.3</ele>
        <time>2024-11-05T15:08:32Z</time>
      </trkpt>
      <trkpt lat="45.90162" lon="1.29811">
        <ele>330.3</ele>
        <time>2024-11-05T15:08:33Z</time>
      </trkpt>
      <trkpt lat="45.90165" lon="1.29812">
        <ele>330.4</ele>
        <time>2024-11-05T15:08:34Z</time>
      </trkpt>
      <trkpt lat="45.90168" lon="1.29814">
        <ele>330.4</ele>
        <time>2024-11-05T15:08:35Z</time>
      </trkpt>
      <trkpt lat="45.90171" lon="1.29816">
        <ele>330.5</ele>
        <time>2024-11-05T15:08:36Z</time>
      </trkpt>
      <trkpt lat="45.90174" lon="1.29818">
        <ele>330.5</ele>
        <time>2024-11-05T15:08:37Z</time>
      </trkpt>
      <trkpt lat="45.90177" lon="1.2982">
        <ele>330.5</ele>
        <time>2024-11-05T15:08:38Z</time>
      </trkpt>
      <trkpt lat="45.90181" lon="1.29822">
        <ele>330.6</ele>
        <time>2024-11-05T15:08:39Z</time>
      </trkpt>
      <trkpt lat="45.90184" lon="1.29823">
        <ele>330.6</ele>
        <time>2024-11-05T15:08:40Z</time>
      </trkpt>
      <trkpt lat="45.90188" lon="1.29825">
        <ele>330.7</ele>
        <time>2024-11-05T15:08:41Z</time>
      </trkpt>
      <trkpt lat="45.90192" lon="1.29827">
        <ele>330.8</ele>
        <time>2024-11-05T15:08:42Z</time>
      </trkpt>
      <trkpt lat="45.90196" lon="1.29829">
        <ele>330.9</ele>
        <time>2024-11-05T15:08:43Z</time>
      </trkpt>
      <trkpt lat="45.902" lon="1.29832">
        <ele>330.9</ele>
        <time>2024-11-05T15:08:44Z</time>
      </trkpt>
      <trkpt lat="45.90204" lon="1.29835">
        <ele>331</ele>
        <time>2024-11-05T15:08:45Z</time>
      </trkpt>
      <trkpt lat="45.90208" lon="1.29838">
        <ele>331.2</ele>
        <time>2024-11-05T15:08:46Z</time>
      </trkpt>
      <trkpt lat="45.90211" lon="1.2984">
        <ele>331.3</ele>
        <time>2024-11-05T15:08:47Z</time>
      </trkpt>
      <trkpt lat="45.90214" lon="1.29842">
        <ele>331.3</ele>
        <time>2024-11-05T15:08:48Z</time>
      </trkpt>
      <trkpt lat="45.90217" lon="1.29844">
        <ele>331.5</ele>
        <time>2024-11-05T15:08:49Z</time>
      </trkpt>
      <trkpt lat="45.9022" lon="1.29846">
        <ele>331.6</ele>
        <time>2024-11-05T15:08:51Z</time>
      </trkpt>
      <trkpt lat="45.90223" lon="1.29849">
        <ele>331.7</ele>
        <time>2024-11-05T15:08:54Z</time>
      </trkpt>
      <trkpt lat="45.90226" lon="1.29851">
        <ele>331.8</ele>
        <time>2024-11-05T15:08:56Z</time>
      </trkpt>
      <trkpt lat="45.90229" lon="1.29854">
        <ele>331.9</ele>
        <time>2024-11-05T15:08:58Z</time>
      </trkpt>
      <trkpt lat="45.90234" lon="1.29857">
        <ele>332.1</ele>
        <time>2024-11-05T15:09:00Z</time>
      </trkpt>
      <trkpt lat="45.90237" lon="1.29859">
        <ele>332.2</ele>
        <time>2024-11-05T15:09:01Z</time>
      </trkpt>
      <trkpt lat="45.90242" lon="1.29863">
        <ele>332.4</ele>
        <time>2024-11-05T15:09:03Z</time>
      </trkpt>
      <trkpt lat="45.90245" lon="1.29866">
        <ele>332.5</ele>
        <time>2024-11-05T15:09:04Z</time>
      </trkpt>
      <trkpt lat="45.90248" lon="1.29868">
        <ele>332.6</ele>
        <time>2024-11-05T15:09:05Z</time>
      </trkpt>
      <trkpt lat="45.90251" lon="1.2987">
        <ele>332.7</ele>
        <time>2024-11-05T15:09:06Z</time>
      </trkpt>
      <trkpt lat="45.90255" lon="1.29872">
        <ele>332.8</ele>
        <time>2024-11-05T15:09:07Z</time>
      </trkpt>
      <trkpt lat="45.90258" lon="1.29875">
        <ele>333</ele>
        <time>2024-11-05T15:09:08Z</time>
      </trkpt>
      <trkpt lat="45.90261" lon="1.29878">
        <ele>333.1</ele>
        <time>2024-11-05T15:09:09Z</time>
      </trkpt>
      <trkpt lat="45.90266" lon="1.2988">
        <ele>333.3</ele>
        <time>2024-11-05T15:09:11Z</time>
      </trkpt>
      <trkpt lat="45.90269" lon="1.29882">
        <ele>333.4</ele>
        <time>2024-11-05T15:09:12Z</time>
      </trkpt>
      <trkpt lat="45.90273" lon="1.29884">
        <ele>333.5</ele>
        <time>2024-11-05T15:09:13Z</time>
      </trkpt>
      <trkpt lat="45.90277" lon="1.29886">
        <ele>333.7</ele>
        <time>2024-11-05T15:09:14Z</time>
      </trkpt>
      <trkpt lat="45.90281" lon="1.29889">
        <ele>333.9</ele>
        <time>2024-11-05T15:09:15Z</time>
      </trkpt>
      <trkpt lat="45.90284" lon="1.29891">
        <ele>334</ele>
        <time>2024-11-05T15:09:16Z</time>
      </trkpt>
      <trkpt lat="45.90288" lon="1.29893">
        <ele>334.2</ele>
        <time>2024-11-05T15:09:17Z</time>
      </trkpt>
      <trkpt lat="45.90291" lon="1.29895">
        <ele>334.3</ele>
        <time>2024-11-05T15:09:18Z</time>
      </trkpt>
      <trkpt lat="45.90294" lon="1.29897">
        <ele>334.4</ele>
        <time>2024-11-05T15:09:19Z</time>
      </trkpt>
      <trkpt lat="45.90297" lon="1.29899">
        <ele>334.6</ele>
        <time>2024-11-05T15:09:20Z</time>
      </trkpt>
      <trkpt lat="45.903" lon="1.29901">
        <ele>334.7</ele>
        <time>2024-11-05T15:09:21Z</time>
      </trkpt>
      <trkpt lat="45.90303" lon="1.29903">
        <ele>334.9</ele>
        <time>2024-11-05T15:09:22Z</time>
      </trkpt>
      <trkpt lat="45.90306" lon="1.29905">
        <ele>335.1</ele>
        <time>2024-11-05T15:09:23Z</time>
      </trkpt>
      <trkpt lat="45.90309" lon="1.29908">
        <ele>335.2</ele>
        <time>2024-11-05T15:09:24Z</time>
      </trkpt>
      <trkpt lat="45.90312" lon="1.2991">
        <ele>335.4</ele>
        <time>2024-11-05T15:09:25Z</time>
      </trkpt>
      <trkpt lat="45.90315" lon="1.29913">
        <ele>335.6</ele>
        <time>2024-11-05T15:09:26Z</time>
      </trkpt>
      <trkpt lat="45.90317" lon="1.29915">
        <ele>335.7</ele>
        <time>2024-11-05T15:09:27Z</time>
      </trkpt>
      <trkpt lat="45.9032" lon="1.29918">
        <ele>335.9</ele>
        <time>2024-11-05T15:09:28Z</time>
      </trkpt>
      <trkpt lat="45.90322" lon="1.2992">
        <ele>336</ele>
        <time>2024-11-05T15:09:29Z</time>
      </trkpt>
      <trkpt lat="45.90325" lon="1.29922">
        <ele>336.1</ele>
        <time>2024-11-05T15:09:30Z</time>
      </trkpt>
      <trkpt lat="45.90329" lon="1.29924">
        <ele>336.3</ele>
        <time>2024-11-05T15:09:31Z</time>
      </trkpt>
      <trkpt lat="45.90332" lon="1.29926">
        <ele>336.5</ele>
        <time>2024-11-05T15:09:32Z</time>
      </trkpt>
      <trkpt lat="45.90335" lon="1.29927">
        <ele>336.7</ele>
        <time>2024-11-05T15:09:33Z</time>
      </trkpt>
      <trkpt lat="45.90338" lon="1.29929">
        <ele>336.8</ele>
        <time>2024-11-05T15:09:34Z</time>
      </trkpt>
      <trkpt lat="45.90341" lon="1.2993">
        <ele>337</ele>
        <time>2024-11-05T15:09:35Z</time>
      </trkpt>
      <trkpt lat="45.90345" lon="1.29931">
        <ele>337.2</ele>
        <time>2024-11-05T15:09:36Z</time>
      </trkpt>
      <trkpt lat="45.9035" lon="1.29933">
        <ele>337.4</ele>
        <time>2024-11-05T15:09:37Z</time>
      </trkpt>
      <trkpt lat="45.90355" lon="1.29935">
        <ele>337.7</ele>
        <time>2024-11-05T15:09:38Z</time>
      </trkpt>
      <trkpt lat="45.90358" lon="1.29937">
        <ele>337.9</ele>
        <time>2024-11-05T15:09:40Z</time>
      </trkpt>
      <trkpt lat="45.90362" lon="1.2994">
        <ele>338.1</ele>
        <time>2024-11-05T15:09:41Z</time>
      </trkpt>
      <trkpt lat="45.90365" lon="1.29942">
        <ele>338.3</ele>
        <time>2024-11-05T15:09:42Z</time>
      </trkpt>
      <trkpt lat="45.90367" lon="1.29944">
        <ele>338.5</ele>
        <time>2024-11-05T15:09:43Z</time>
      </trkpt>
      <trkpt lat="45.90371" lon="1.29947">
        <ele>338.7</ele>
        <time>2024-11-05T15:09:45Z</time>
      </trkpt>
      <trkpt lat="45.90374" lon="1.29949">
        <ele>338.9</ele>
        <time>2024-11-05T15:09:46Z</time>
      </trkpt>
      <trkpt lat="45.90377" lon="1.29951">
        <ele>339.1</ele>
        <time>2024-11-05T15:09:47Z</time>
      </trkpt>
      <trkpt lat="45.9038" lon="1.29953">
        <ele>339.3</ele>
        <time>2024-11-05T15:09:48Z</time>
      </trkpt>
      <trkpt lat="45.90384" lon="1.29954">
        <ele>339.4</ele>
        <time>2024-11-05T15:09:49Z</time>
      </trkpt>
      <trkpt lat="45.90387" lon="1.29956">
        <ele>339.6</ele>
        <time>2024-11-05T15:09:50Z</time>
      </trkpt>
      <trkpt lat="45.9039" lon="1.29957">
        <ele>339.7</ele>
        <time>2024-11-05T15:09:51Z</time>
      </trkpt>
      <trkpt lat="45.90393" lon="1.29959">
        <ele>339.9</ele>
        <time>2024-11-05T15:09:52Z</time>
      </trkpt>
      <trkpt lat="45.90396" lon="1.29961">
        <ele>340</ele>
        <time>2024-11-05T15:09:53Z</time>
      </trkpt>
      <trkpt lat="45.90399" lon="1.29964">
        <ele>340.2</ele>
        <time>2024-11-05T15:09:54Z</time>
      </trkpt>
      <trkpt lat="45.90402" lon="1.29966">
        <ele>340.3</ele>
        <time>2024-11-05T15:09:55Z</time>
      </trkpt>
      <trkpt lat="45.90405" lon="1.29968">
        <ele>340.5</ele>
        <time>2024-11-05T15:09:56Z</time>
      </trkpt>
      <trkpt lat="45.90409" lon="1.29971">
        <ele>340.6</ele>
        <time>2024-11-05T15:09:57Z</time>
      </trkpt>
      <trkpt lat="45.90412" lon="1.29973">
        <ele>340.7</ele>
        <time>2024-11-05T15:09:58Z</time>
      </trkpt>
      <trkpt lat="45.90416" lon="1.29975">
        <ele>340.9</ele>
        <time>2024-11-05T15:09:59Z</time>
      </trkpt>
      <trkpt lat="45.90419" lon="1.29978">
        <ele>341</ele>
        <time>2024-11-05T15:10:00Z</time>
      </trkpt>
      <trkpt lat="45.90423" lon="1.29981">
        <ele>341.1</ele>
        <time>2024-11-05T15:10:01Z</time>
      </trkpt>
      <trkpt lat="45.90427" lon="1.29984">
        <ele>341.1</ele>
        <time>2024-11-05T15:10:02Z</time>
      </trkpt>
      <trkpt lat="45.9043" lon="1.29986">
        <ele>341.2</ele>
        <time>2024-11-05T15:10:03Z</time>
      </trkpt>
      <trkpt lat="45.90434" lon="1.29988">
        <ele>341.3</ele>
        <time>2024-11-05T15:10:04Z</time>
      </trkpt>
      <trkpt lat="45.90437" lon="1.2999">
        <ele>341.3</ele>
        <time>2024-11-05T15:10:05Z</time>
      </trkpt>
      <trkpt lat="45.9044" lon="1.29992">
        <ele>341.3</ele>
        <time>2024-11-05T15:10:06Z</time>
      </trkpt>
      <trkpt lat="45.90443" lon="1.29995">
        <ele>341.3</ele>
        <time>2024-11-05T15:10:07Z</time>
      </trkpt>
      <trkpt lat="45.90447" lon="1.29997">
        <ele>341.3</ele>
        <time>2024-11-05T15:10:08Z</time>
      </trkpt>
      <trkpt lat="45.9045" lon="1.3">
        <ele>341.3</ele>
        <time>2024-11-05T15:10:09Z</time>
      </trkpt>
      <trkpt lat="45.90454" lon="1.30003">
        <ele>341.3</ele>
        <time>2024-11-05T15:10:10Z</time>
      </trkpt>
      <trkpt lat="45.90458" lon="1.30006">
        <ele>341.2</ele>
        <time>2024-11-05T15:10:11Z</time>
      </trkpt>
      <trkpt lat="45.90462" lon="1.30009">
        <ele>341.2</ele>
        <time>2024-11-05T15:10:12Z</time>
      </trkpt>
      <trkpt lat="45.90466" lon="1.30012">
        <ele>341.2</ele>
        <time>2024-11-05T15:10:13Z</time>
      </trkpt>
      <trkpt lat="45.9047" lon="1.30015">
        <ele>341.2</ele>
        <time>2024-11-05T15:10:14Z</time>
      </trkpt>
      <trkpt lat="45.90474" lon="1.30018">
        <ele>341.2</ele>
        <time>2024-11-05T15:10:15Z</time>
      </trkpt>
      <trkpt lat="45.90478" lon="1.3002">
        <ele>341.2</ele>
        <time>2024-11-05T15:10:16Z</time>
      </trkpt>
      <trkpt lat="45.90482" lon="1.30022">
        <ele>341.2</ele>
        <time>2024-11-05T15:10:17Z</time>
      </trkpt>
      <trkpt lat="45.90485" lon="1.30024">
        <ele>341.2</ele>
        <time>2024-11-05T15:10:18Z</time>
      </trkpt>
      <trkpt lat="45.90489" lon="1.30027">
        <ele>341.2</ele>
        <time>2024-11-05T15:10:19Z</time>
      </trkpt>
      <trkpt lat="45.90492" lon="1.30031">
        <ele>341.2</ele>
        <time>2024-11-05T15:10:20Z</time>
      </trkpt>
      <trkpt lat="45.90495" lon="1.30033">
        <ele>341.2</ele>
        <time>2024-11-05T15:10:21Z</time>
      </trkpt>
      <trkpt lat="45.90498" lon="1.30035">
        <ele>341.2</ele>
        <time>2024-11-05T15:10:22Z</time>
      </trkpt>
      <trkpt lat="45.90501" lon="1.30037">
        <ele>341.2</ele>
        <time>2024-11-05T15:10:23Z</time>
      </trkpt>
      <trkpt lat="45.90504" lon="1.30039">
        <ele>341.2</ele>
        <time>2024-11-05T15:10:24Z</time>
      </trkpt>
      <trkpt lat="45.90507" lon="1.30041">
        <ele>341.2</ele>
        <time>2024-11-05T15:10:25Z</time>
      </trkpt>
      <trkpt lat="45.9051" lon="1.30043">
        <ele>341.2</ele>
        <time>2024-11-05T15:10:26Z</time>
      </trkpt>
      <trkpt lat="45.90513" lon="1.30045">
        <ele>341.2</ele>
        <time>2024-11-05T15:10:27Z</time>
      </trkpt>
      <trkpt lat="45.90517" lon="1.30047">
        <ele>341.2</ele>
        <time>2024-11-05T15:10:28Z</time>
      </trkpt>
      <trkpt lat="45.9052" lon="1.30049">
        <ele>341.2</ele>
        <time>2024-11-05T15:10:29Z</time>
      </trkpt>
      <trkpt lat="45.90524" lon="1.30051">
        <ele>341.2</ele>
        <time>2024-11-05T15:10:30Z</time>
      </trkpt>
      <trkpt lat="45.90528" lon="1.30053">
        <ele>341.2</ele>
        <time>2024-11-05T15:10:31Z</time>
      </trkpt>
      <trkpt lat="45.90532" lon="1.30054">
        <ele>341.2</ele>
        <time>2024-11-05T15:10:32Z</time>
      </trkpt>
      <trkpt lat="45.90536" lon="1.30054">
        <ele>341.2</ele>
        <time>2024-11-05T15:10:33Z</time>
      </trkpt>
      <trkpt lat="45.9054" lon="1.30055">
        <ele>341.2</ele>
        <time>2024-11-05T15:10:35Z</time>
      </trkpt>
      <trkpt lat="45.90545" lon="1.30055">
        <ele>341.2</ele>
        <time>2024-11-05T15:10:37Z</time>
      </trkpt>
      <trkpt lat="45.9055" lon="1.30055">
        <ele>341.2</ele>
        <time>2024-11-05T15:10:38Z</time>
      </trkpt>
      <trkpt lat="45.90554" lon="1.30055">
        <ele>341.2</ele>
        <time>2024-11-05T15:10:39Z</time>
      </trkpt>
      <trkpt lat="45.90558" lon="1.30055">
        <ele>341.2</ele>
        <time>2024-11-05T15:10:40Z</time>
      </trkpt>
      <trkpt lat="45.90562" lon="1.30055">
        <ele>341.2</ele>
        <time>2024-11-05T15:10:41Z</time>
      </trkpt>
      <trkpt lat="45.90566" lon="1.30055">
        <ele>341.2</ele>
        <time>2024-11-05T15:10:42Z</time>
      </trkpt>
      <trkpt lat="45.9057" lon="1.30054">
        <ele>341.2</ele>
        <time>2024-11-05T15:10:43Z</time>
      </trkpt>
      <trkpt lat="45.90575" lon="1.30054">
        <ele>341.2</ele>
        <time>2024-11-05T15:10:44Z</time>
      </trkpt>
      <trkpt lat="45.90579" lon="1.30053">
        <ele>341.2</ele>
        <time>2024-11-05T15:10:45Z</time>
      </trkpt>
      <trkpt lat="45.90583" lon="1.30052">
        <ele>341.2</ele>
        <time>2024-11-05T15:10:46Z</time>
      </trkpt>
      <trkpt lat="45.90588" lon="1.30051">
        <ele>341.1</ele>
        <time>2024-11-05T15:10:47Z</time>
      </trkpt>
      <trkpt lat="45.90593" lon="1.3005">
        <ele>341.1</ele>
        <time>2024-11-05T15:10:48Z</time>
      </trkpt>
      <trkpt lat="45.90598" lon="1.30049">
        <ele>341</ele>
        <time>2024-11-05T15:10:49Z</time>
      </trkpt>
      <trkpt lat="45.90603" lon="1.30049">
        <ele>340.9</ele>
        <time>2024-11-05T15:10:50Z</time>
      </trkpt>
      <trkpt lat="45.90608" lon="1.30049">
        <ele>340.9</ele>
        <time>2024-11-05T15:10:51Z</time>
      </trkpt>
      <trkpt lat="45.90613" lon="1.30048">
        <ele>340.8</ele>
        <time>2024-11-05T15:10:52Z</time>
      </trkpt>
      <trkpt lat="45.90617" lon="1.30047">
        <ele>340.8</ele>
        <time>2024-11-05T15:10:53Z</time>
      </trkpt>
      <trkpt lat="45.90621" lon="1.30047">
        <ele>340.7</ele>
        <time>2024-11-05T15:10:54Z</time>
      </trkpt>
      <trkpt lat="45.90626" lon="1.30046">
        <ele>340.7</ele>
        <time>2024-11-05T15:10:55Z</time>
      </trkpt>
      <trkpt lat="45.9063" lon="1.30045">
        <ele>340.7</ele>
        <time>2024-11-05T15:10:56Z</time>
      </trkpt>
      <trkpt lat="45.90633" lon="1.30045">
        <ele>340.7</ele>
        <time>2024-11-05T15:10:57Z</time>
      </trkpt>
      <trkpt lat="45.90637" lon="1.30044">
        <ele>340.7</ele>
        <time>2024-11-05T15:10:58Z</time>
      </trkpt>
      <trkpt lat="45.90641" lon="1.30044">
        <ele>340.8</ele>
        <time>2024-11-05T15:10:59Z</time>
      </trkpt>
      <trkpt lat="45.90644" lon="1.30043">
        <ele>340.8</ele>
        <time>2024-11-05T15:11:00Z</time>
      </trkpt>
      <trkpt lat="45.90646" lon="1.30043">
        <ele>340.8</ele>
        <time>2024-11-05T15:11:01Z</time>
      </trkpt>
      <trkpt lat="45.90649" lon="1.30042">
        <ele>340.8</ele>
        <time>2024-11-05T15:11:02Z</time>
      </trkpt>
      <trkpt lat="45.90653" lon="1.3004">
        <ele>340.8</ele>
        <time>2024-11-05T15:11:04Z</time>
      </trkpt>
      <trkpt lat="45.90657" lon="1.30038">
        <ele>340.8</ele>
        <time>2024-11-05T15:11:06Z</time>
      </trkpt>
      <trkpt lat="45.90661" lon="1.30037">
        <ele>340.9</ele>
        <time>2024-11-05T15:11:07Z</time>
      </trkpt>
      <trkpt lat="45.90665" lon="1.30036">
        <ele>340.9</ele>
        <time>2024-11-05T15:11:09Z</time>
      </trkpt>
      <trkpt lat="45.90669" lon="1.30035">
        <ele>340.9</ele>
        <time>2024-11-05T15:11:10Z</time>
      </trkpt>
      <trkpt lat="45.90672" lon="1.30033">
        <ele>340.9</ele>
        <time>2024-11-05T15:11:11Z</time>
      </trkpt>
      <trkpt lat="45.90676" lon="1.30032">
        <ele>341</ele>
        <time>2024-11-05T15:11:12Z</time>
      </trkpt>
      <trkpt lat="45.90679" lon="1.30031">
        <ele>341</ele>
        <time>2024-11-05T15:11:13Z</time>
      </trkpt>
      <trkpt lat="45.90682" lon="1.3003">
        <ele>341</ele>
        <time>2024-11-05T15:11:14Z</time>
      </trkpt>
      <trkpt lat="45.90686" lon="1.30029">
        <ele>341.1</ele>
        <time>2024-11-05T15:11:15Z</time>
      </trkpt>
      <trkpt lat="45.90689" lon="1.30028">
        <ele>341.1</ele>
        <time>2024-11-05T15:11:16Z</time>
      </trkpt>
      <trkpt lat="45.90693" lon="1.30026">
        <ele>341.1</ele>
        <time>2024-11-05T15:11:17Z</time>
      </trkpt>
      <trkpt lat="45.90697" lon="1.30025">
        <ele>341.2</ele>
        <time>2024-11-05T15:11:18Z</time>
      </trkpt>
      <trkpt lat="45.907" lon="1.30024">
        <ele>341.2</ele>
        <time>2024-11-05T15:11:19Z</time>
      </trkpt>
      <trkpt lat="45.90704" lon="1.30023">
        <ele>341.3</ele>
        <time>2024-11-05T15:11:20Z</time>
      </trkpt>
      <trkpt lat="45.90708" lon="1.30022">
        <ele>341.3</ele>
        <time>2024-11-05T15:11:21Z</time>
      </trkpt>
      <trkpt lat="45.90712" lon="1.30021">
        <ele>341.4</ele>
        <time>2024-11-05T15:11:22Z</time>
      </trkpt>
      <trkpt lat="45.90716" lon="1.3002">
        <ele>341.4</ele>
        <time>2024-11-05T15:11:23Z</time>
      </trkpt>
      <trkpt lat="45.9072" lon="1.30019">
        <ele>341.5</ele>
        <time>2024-11-05T15:11:24Z</time>
      </trkpt>
      <trkpt lat="45.90724" lon="1.30018">
        <ele>341.5</ele>
        <time>2024-11-05T15:11:25Z</time>
      </trkpt>
      <trkpt lat="45.90727" lon="1.30017">
        <ele>341.6</ele>
        <time>2024-11-05T15:11:26Z</time>
      </trkpt>
      <trkpt lat="45.90731" lon="1.30016">
        <ele>341.6</ele>
        <time>2024-11-05T15:11:27Z</time>
      </trkpt>
      <trkpt lat="45.90735" lon="1.30015">
        <ele>341.7</ele>
        <time>2024-11-05T15:11:28Z</time>
      </trkpt>
      <trkpt lat="45.90739" lon="1.30014">
        <ele>341.7</ele>
        <time>2024-11-05T15:11:29Z</time>
      </trkpt>
      <trkpt lat="45.90744" lon="1.30013">
        <ele>341.8</ele>
        <time>2024-11-05T15:11:30Z</time>
      </trkpt>
      <trkpt lat="45.90749" lon="1.30012">
        <ele>341.8</ele>
        <time>2024-11-05T15:11:31Z</time>
      </trkpt>
      <trkpt lat="45.90754" lon="1.3001">
        <ele>341.9</ele>
        <time>2024-11-05T15:11:32Z</time>
      </trkpt>
      <trkpt lat="45.90759" lon="1.30008">
        <ele>341.9</ele>
        <time>2024-11-05T15:11:33Z</time>
      </trkpt>
      <trkpt lat="45.90764" lon="1.30006">
        <ele>341.9</ele>
        <time>2024-11-05T15:11:34Z</time>
      </trkpt>
      <trkpt lat="45.90769" lon="1.30004">
        <ele>341.9</ele>
        <time>2024-11-05T15:11:35Z</time>
      </trkpt>
      <trkpt lat="45.90774" lon="1.30001">
        <ele>341.9</ele>
        <time>2024-11-05T15:11:36Z</time>
      </trkpt>
      <trkpt lat="45.90779" lon="1.29999">
        <ele>341.8</ele>
        <time>2024-11-05T15:11:37Z</time>
      </trkpt>
      <trkpt lat="45.90783" lon="1.29997">
        <ele>341.7</ele>
        <time>2024-11-05T15:11:38Z</time>
      </trkpt>
      <trkpt lat="45.90787" lon="1.29995">
        <ele>341.6</ele>
        <time>2024-11-05T15:11:39Z</time>
      </trkpt>
      <trkpt lat="45.90791" lon="1.29993">
        <ele>341.4</ele>
        <time>2024-11-05T15:11:40Z</time>
      </trkpt>
      <trkpt lat="45.90795" lon="1.29992">
        <ele>341.3</ele>
        <time>2024-11-05T15:11:41Z</time>
      </trkpt>
      <trkpt lat="45.90798" lon="1.2999">
        <ele>341.2</ele>
        <time>2024-11-05T15:11:42Z</time>
      </trkpt>
      <trkpt lat="45.90801" lon="1.29989">
        <ele>341.1</ele>
        <time>2024-11-05T15:11:43Z</time>
      </trkpt>
      <trkpt lat="45.90805" lon="1.29989">
        <ele>341</ele>
        <time>2024-11-05T15:11:45Z</time>
      </trkpt>
      <trkpt lat="45.90809" lon="1.29989">
        <ele>340.9</ele>
        <time>2024-11-05T15:11:47Z</time>
      </trkpt>
      <trkpt lat="45.90811" lon="1.29985">
        <ele>340.8</ele>
        <time>2024-11-05T15:11:49Z</time>
      </trkpt>
      <trkpt lat="45.9081" lon="1.29983">
        <ele>340.8</ele>
        <time>2024-11-05T15:11:51Z</time>
      </trkpt>
      <trkpt lat="45.90808" lon="1.29984">
        <ele>340.8</ele>
        <time>2024-11-05T15:11:52Z</time>
      </trkpt>
      <trkpt lat="45.90805" lon="1.29987">
        <ele>340.7</ele>
        <time>2024-11-05T15:11:53Z</time>
      </trkpt>
      <trkpt lat="45.90801" lon="1.29989">
        <ele>340.7</ele>
        <time>2024-11-05T15:11:54Z</time>
      </trkpt>
      <trkpt lat="45.90797" lon="1.29991">
        <ele>340.7</ele>
        <time>2024-11-05T15:11:55Z</time>
      </trkpt>
      <trkpt lat="45.90793" lon="1.29993">
        <ele>340.7</ele>
        <time>2024-11-05T15:11:56Z</time>
      </trkpt>
      <trkpt lat="45.90788" lon="1.29996">
        <ele>340.7</ele>
        <time>2024-11-05T15:11:57Z</time>
      </trkpt>
      <trkpt lat="45.90784" lon="1.29999">
        <ele>340.7</ele>
        <time>2024-11-05T15:11:58Z</time>
      </trkpt>
      <trkpt lat="45.90779" lon="1.30001">
        <ele>340.7</ele>
        <time>2024-11-05T15:11:59Z</time>
      </trkpt>
      <trkpt lat="45.90775" lon="1.30003">
        <ele>340.7</ele>
        <time>2024-11-05T15:12:00Z</time>
      </trkpt>
      <trkpt lat="45.90771" lon="1.30005">
        <ele>340.8</ele>
        <time>2024-11-05T15:12:01Z</time>
      </trkpt>
      <trkpt lat="45.90768" lon="1.30007">
        <ele>340.8</ele>
        <time>2024-11-05T15:12:02Z</time>
      </trkpt>
      <trkpt lat="45.90764" lon="1.30008">
        <ele>340.9</ele>
        <time>2024-11-05T15:12:03Z</time>
      </trkpt>
      <trkpt lat="45.9076" lon="1.30009">
        <ele>341</ele>
        <time>2024-11-05T15:12:05Z</time>
      </trkpt>
      <trkpt lat="45.90756" lon="1.30007">
        <ele>341.2</ele>
        <time>2024-11-05T15:12:07Z</time>
      </trkpt>
      <trkpt lat="45.90754" lon="1.30001">
        <ele>341.3</ele>
        <time>2024-11-05T15:12:09Z</time>
      </trkpt>
      <trkpt lat="45.90752" lon="1.29996">
        <ele>341.3</ele>
        <time>2024-11-05T15:12:10Z</time>
      </trkpt>
      <trkpt lat="45.90751" lon="1.29991">
        <ele>341.4</ele>
        <time>2024-11-05T15:12:11Z</time>
      </trkpt>
      <trkpt lat="45.9075" lon="1.29986">
        <ele>341.5</ele>
        <time>2024-11-05T15:12:12Z</time>
      </trkpt>
      <trkpt lat="45.90749" lon="1.29981">
        <ele>341.5</ele>
        <time>2024-11-05T15:12:13Z</time>
      </trkpt>
      <trkpt lat="45.90747" lon="1.29976">
        <ele>341.5</ele>
        <time>2024-11-05T15:12:14Z</time>
      </trkpt>
      <trkpt lat="45.90745" lon="1.29972">
        <ele>341.5</ele>
        <time>2024-11-05T15:12:15Z</time>
      </trkpt>
      <trkpt lat="45.90743" lon="1.29969">
        <ele>341.5</ele>
        <time>2024-11-05T15:12:16Z</time>
      </trkpt>
      <trkpt lat="45.9074" lon="1.29966">
        <ele>341.5</ele>
        <time>2024-11-05T15:12:17Z</time>
      </trkpt>
      <trkpt lat="45.90737" lon="1.29965">
        <ele>341.5</ele>
        <time>2024-11-05T15:12:18Z</time>
      </trkpt>
      <trkpt lat="45.90734" lon="1.29964">
        <ele>341.4</ele>
        <time>2024-11-05T15:12:19Z</time>
      </trkpt>
      <trkpt lat="45.9073" lon="1.29965">
        <ele>341.3</ele>
        <time>2024-11-05T15:12:20Z</time>
      </trkpt>
      <trkpt lat="45.90727" lon="1.29966">
        <ele>341.2</ele>
        <time>2024-11-05T15:12:21Z</time>
      </trkpt>
      <trkpt lat="45.90723" lon="1.29968">
        <ele>341</ele>
        <time>2024-11-05T15:12:22Z</time>
      </trkpt>
      <trkpt lat="45.90719" lon="1.29968">
        <ele>340.8</ele>
        <time>2024-11-05T15:12:23Z</time>
      </trkpt>
      <trkpt lat="45.90715" lon="1.29969">
        <ele>340.7</ele>
        <time>2024-11-05T15:12:24Z</time>
      </trkpt>
      <trkpt lat="45.90711" lon="1.2997">
        <ele>340.6</ele>
        <time>2024-11-05T15:12:25Z</time>
      </trkpt>
      <trkpt lat="45.90707" lon="1.29971">
        <ele>340.5</ele>
        <time>2024-11-05T15:12:26Z</time>
      </trkpt>
      <trkpt lat="45.90703" lon="1.29972">
        <ele>340.3</ele>
        <time>2024-11-05T15:12:27Z</time>
      </trkpt>
      <trkpt lat="45.90699" lon="1.29972">
        <ele>340.2</ele>
        <time>2024-11-05T15:12:28Z</time>
      </trkpt>
      <trkpt lat="45.90696" lon="1.29973">
        <ele>340.2</ele>
        <time>2024-11-05T15:12:29Z</time>
      </trkpt>
      <trkpt lat="45.90692" lon="1.29974">
        <ele>340.1</ele>
        <time>2024-11-05T15:12:30Z</time>
      </trkpt>
      <trkpt lat="45.90689" lon="1.29974">
        <ele>340.1</ele>
        <time>2024-11-05T15:12:31Z</time>
      </trkpt>
      <trkpt lat="45.90685" lon="1.29975">
        <ele>340</ele>
        <time>2024-11-05T15:12:32Z</time>
      </trkpt>
      <trkpt lat="45.90682" lon="1.29975">
        <ele>340</ele>
        <time>2024-11-05T15:12:33Z</time>
      </trkpt>
      <trkpt lat="45.90678" lon="1.29976">
        <ele>339.9</ele>
        <time>2024-11-05T15:12:35Z</time>
      </trkpt>
      <trkpt lat="45.90673" lon="1.29976">
        <ele>339.8</ele>
        <time>2024-11-05T15:12:37Z</time>
      </trkpt>
      <trkpt lat="45.90669" lon="1.29974">
        <ele>339.8</ele>
        <time>2024-11-05T15:12:39Z</time>
      </trkpt>
      <trkpt lat="45.90666" lon="1.29971">
        <ele>339.8</ele>
        <time>2024-11-05T15:12:41Z</time>
      </trkpt>
      <trkpt lat="45.90664" lon="1.29967">
        <ele>339.8</ele>
        <time>2024-11-05T15:12:42Z</time>
      </trkpt>
      <trkpt lat="45.90663" lon="1.29962">
        <ele>339.8</ele>
        <time>2024-11-05T15:12:43Z</time>
      </trkpt>
      <trkpt lat="45.90663" lon="1.29957">
        <ele>339.8</ele>
        <time>2024-11-05T15:12:44Z</time>
      </trkpt>
      <trkpt lat="45.90664" lon="1.29953">
        <ele>339.8</ele>
        <time>2024-11-05T15:12:45Z</time>
      </trkpt>
      <trkpt lat="45.90664" lon="1.29948">
        <ele>339.9</ele>
        <time>2024-11-05T15:12:46Z</time>
      </trkpt>
      <trkpt lat="45.90664" lon="1.29943">
        <ele>339.9</ele>
        <time>2024-11-05T15:12:47Z</time>
      </trkpt>
      <trkpt lat="45.90663" lon="1.29938">
        <ele>339.9</ele>
        <time>2024-11-05T15:12:48Z</time>
      </trkpt>
      <trkpt lat="45.90663" lon="1.29934">
        <ele>339.9</ele>
        <time>2024-11-05T15:12:49Z</time>
      </trkpt>
      <trkpt lat="45.90663" lon="1.29929">
        <ele>339.9</ele>
        <time>2024-11-05T15:12:50Z</time>
      </trkpt>
      <trkpt lat="45.90663" lon="1.29924">
        <ele>340</ele>
        <time>2024-11-05T15:12:51Z</time>
      </trkpt>
      <trkpt lat="45.90663" lon="1.2992">
        <ele>340</ele>
        <time>2024-11-05T15:12:52Z</time>
      </trkpt>
      <trkpt lat="45.90662" lon="1.29915">
        <ele>340</ele>
        <time>2024-11-05T15:12:53Z</time>
      </trkpt>
      <trkpt lat="45.90662" lon="1.2991">
        <ele>340</ele>
        <time>2024-11-05T15:12:54Z</time>
      </trkpt>
      <trkpt lat="45.90661" lon="1.29905">
        <ele>340</ele>
        <time>2024-11-05T15:12:55Z</time>
      </trkpt>
      <trkpt lat="45.90661" lon="1.299">
        <ele>340</ele>
        <time>2024-11-05T15:12:56Z</time>
      </trkpt>
      <trkpt lat="45.9066" lon="1.29894">
        <ele>340</ele>
        <time>2024-11-05T15:12:57Z</time>
      </trkpt>
      <trkpt lat="45.9066" lon="1.29888">
        <ele>340</ele>
        <time>2024-11-05T15:12:58Z</time>
      </trkpt>
      <trkpt lat="45.9066" lon="1.29882">
        <ele>339.9</ele>
        <time>2024-11-05T15:12:59Z</time>
      </trkpt>
      <trkpt lat="45.90659" lon="1.29876">
        <ele>339.8</ele>
        <time>2024-11-05T15:13:00Z</time>
      </trkpt>
      <trkpt lat="45.90659" lon="1.29871">
        <ele>339.7</ele>
        <time>2024-11-05T15:13:01Z</time>
      </trkpt>
      <trkpt lat="45.90658" lon="1.29866">
        <ele>339.5</ele>
        <time>2024-11-05T15:13:02Z</time>
      </trkpt>
      <trkpt lat="45.90657" lon="1.29861">
        <ele>339.4</ele>
        <time>2024-11-05T15:13:03Z</time>
      </trkpt>
      <trkpt lat="45.90654" lon="1.29857">
        <ele>339.3</ele>
        <time>2024-11-05T15:13:05Z</time>
      </trkpt>
      <trkpt lat="45.90652" lon="1.29855">
        <ele>339.2</ele>
        <time>2024-11-05T15:13:06Z</time>
      </trkpt>
      <trkpt lat="45.90648" lon="1.29854">
        <ele>339.1</ele>
        <time>2024-11-05T15:13:07Z</time>
      </trkpt>
      <trkpt lat="45.90645" lon="1.29854">
        <ele>339</ele>
        <time>2024-11-05T15:13:08Z</time>
      </trkpt>
      <trkpt lat="45.90641" lon="1.29854">
        <ele>338.9</ele>
        <time>2024-11-05T15:13:09Z</time>
      </trkpt>
      <trkpt lat="45.90637" lon="1.29855">
        <ele>338.9</ele>
        <time>2024-11-05T15:13:10Z</time>
      </trkpt>
      <trkpt lat="45.90633" lon="1.29855">
        <ele>338.8</ele>
        <time>2024-11-05T15:13:11Z</time>
      </trkpt>
      <trkpt lat="45.90629" lon="1.29856">
        <ele>338.8</ele>
        <time>2024-11-05T15:13:12Z</time>
      </trkpt>
      <trkpt lat="45.90625" lon="1.29857">
        <ele>338.7</ele>
        <time>2024-11-05T15:13:13Z</time>
      </trkpt>
      <trkpt lat="45.90621" lon="1.29858">
        <ele>338.6</ele>
        <time>2024-11-05T15:13:14Z</time>
      </trkpt>
      <trkpt lat="45.90617" lon="1.29859">
        <ele>338.5</ele>
        <time>2024-11-05T15:13:15Z</time>
      </trkpt>
      <trkpt lat="45.90613" lon="1.2986">
        <ele>338.4</ele>
        <time>2024-11-05T15:13:16Z</time>
      </trkpt>
      <trkpt lat="45.90609" lon="1.29861">
        <ele>338.3</ele>
        <time>2024-11-05T15:13:17Z</time>
      </trkpt>
      <trkpt lat="45.90604" lon="1.29862">
        <ele>338.1</ele>
        <time>2024-11-05T15:13:18Z</time>
      </trkpt>
      <trkpt lat="45.906" lon="1.29863">
        <ele>337.9</ele>
        <time>2024-11-05T15:13:19Z</time>
      </trkpt>
      <trkpt lat="45.90596" lon="1.29863">
        <ele>337.7</ele>
        <time>2024-11-05T15:13:20Z</time>
      </trkpt>
      <trkpt lat="45.90592" lon="1.29862">
        <ele>337.6</ele>
        <time>2024-11-05T15:13:21Z</time>
      </trkpt>
      <trkpt lat="45.90589" lon="1.2986">
        <ele>337.4</ele>
        <time>2024-11-05T15:13:23Z</time>
      </trkpt>
      <trkpt lat="45.90585" lon="1.29858">
        <ele>337.2</ele>
        <time>2024-11-05T15:13:25Z</time>
      </trkpt>
      <trkpt lat="45.90581" lon="1.29859">
        <ele>337.1</ele>
        <time>2024-11-05T15:13:27Z</time>
      </trkpt>
      <trkpt lat="45.90578" lon="1.2986">
        <ele>336.9</ele>
        <time>2024-11-05T15:13:29Z</time>
      </trkpt>
      <trkpt lat="45.90574" lon="1.29861">
        <ele>336.8</ele>
        <time>2024-11-05T15:13:31Z</time>
      </trkpt>
      <trkpt lat="45.9057" lon="1.29863">
        <ele>336.8</ele>
        <time>2024-11-05T15:13:32Z</time>
      </trkpt>
      <trkpt lat="45.90567" lon="1.29864">
        <ele>336.8</ele>
        <time>2024-11-05T15:13:33Z</time>
      </trkpt>
      <trkpt lat="45.90564" lon="1.29865">
        <ele>336.8</ele>
        <time>2024-11-05T15:13:34Z</time>
      </trkpt>
      <trkpt lat="45.9056" lon="1.29866">
        <ele>336.9</ele>
        <time>2024-11-05T15:13:35Z</time>
      </trkpt>
      <trkpt lat="45.90557" lon="1.29867">
        <ele>337</ele>
        <time>2024-11-05T15:13:36Z</time>
      </trkpt>
      <trkpt lat="45.90553" lon="1.29867">
        <ele>337</ele>
        <time>2024-11-05T15:13:37Z</time>
      </trkpt>
      <trkpt lat="45.90549" lon="1.29867">
        <ele>337.1</ele>
        <time>2024-11-05T15:13:38Z</time>
      </trkpt>
      <trkpt lat="45.90545" lon="1.29867">
        <ele>337.3</ele>
        <time>2024-11-05T15:13:39Z</time>
      </trkpt>
      <trkpt lat="45.90541" lon="1.29866">
        <ele>337.4</ele>
        <time>2024-11-05T15:13:40Z</time>
      </trkpt>
      <trkpt lat="45.90536" lon="1.29865">
        <ele>337.5</ele>
        <time>2024-11-05T15:13:41Z</time>
      </trkpt>
      <trkpt lat="45.90532" lon="1.29865">
        <ele>337.7</ele>
        <time>2024-11-05T15:13:42Z</time>
      </trkpt>
      <trkpt lat="45.90528" lon="1.29866">
        <ele>337.8</ele>
        <time>2024-11-05T15:13:43Z</time>
      </trkpt>
      <trkpt lat="45.90524" lon="1.29867">
        <ele>338</ele>
        <time>2024-11-05T15:13:44Z</time>
      </trkpt>
      <trkpt lat="45.9052" lon="1.29869">
        <ele>338.1</ele>
        <time>2024-11-05T15:13:45Z</time>
      </trkpt>
      <trkpt lat="45.90515" lon="1.29869">
        <ele>338.3</ele>
        <time>2024-11-05T15:13:46Z</time>
      </trkpt>
      <trkpt lat="45.90511" lon="1.29869">
        <ele>338.4</ele>
        <time>2024-11-05T15:13:47Z</time>
      </trkpt>
      <trkpt lat="45.90507" lon="1.29868">
        <ele>338.6</ele>
        <time>2024-11-05T15:13:48Z</time>
      </trkpt>
      <trkpt lat="45.90503" lon="1.29869">
        <ele>338.7</ele>
        <time>2024-11-05T15:13:49Z</time>
      </trkpt>
      <trkpt lat="45.905" lon="1.2987">
        <ele>338.8</ele>
        <time>2024-11-05T15:13:50Z</time>
      </trkpt>
      <trkpt lat="45.90497" lon="1.29872">
        <ele>339</ele>
        <time>2024-11-05T15:13:51Z</time>
      </trkpt>
      <trkpt lat="45.90494" lon="1.29876">
        <ele>339.1</ele>
        <time>2024-11-05T15:13:53Z</time>
      </trkpt>
      <trkpt lat="45.90492" lon="1.29881">
        <ele>339.2</ele>
        <time>2024-11-05T15:13:55Z</time>
      </trkpt>
      <trkpt lat="45.90492" lon="1.29887">
        <ele>339.3</ele>
        <time>2024-11-05T15:13:57Z</time>
      </trkpt>
      <trkpt lat="45.90492" lon="1.29892">
        <ele>339.3</ele>
        <time>2024-11-05T15:13:59Z</time>
      </trkpt>
      <trkpt lat="45.90494" lon="1.29894">
        <ele>339.3</ele>
        <time>2024-11-05T15:14:12Z</time>
      </trkpt>
      <trkpt lat="45.90497" lon="1.29895">
        <ele>339.3</ele>
        <time>2024-11-05T15:14:28Z</time>
      </trkpt>
      <trkpt lat="45.90499" lon="1.29899">
        <ele>339.4</ele>
        <time>2024-11-05T15:14:30Z</time>
      </trkpt>
      <trkpt lat="45.905" lon="1.29902">
        <ele>339.4</ele>
        <time>2024-11-05T15:14:31Z</time>
      </trkpt>
      <trkpt lat="45.90502" lon="1.29906">
        <ele>339.4</ele>
        <time>2024-11-05T15:14:32Z</time>
      </trkpt>
      <trkpt lat="45.90503" lon="1.29911">
        <ele>339.5</ele>
        <time>2024-11-05T15:14:33Z</time>
      </trkpt>
      <trkpt lat="45.90503" lon="1.29917">
        <ele>339.5</ele>
        <time>2024-11-05T15:14:34Z</time>
      </trkpt>
      <trkpt lat="45.90503" lon="1.29923">
        <ele>339.5</ele>
        <time>2024-11-05T15:14:35Z</time>
      </trkpt>
      <trkpt lat="45.90504" lon="1.29929">
        <ele>339.6</ele>
        <time>2024-11-05T15:14:36Z</time>
      </trkpt>
      <trkpt lat="45.90504" lon="1.29935">
        <ele>339.6</ele>
        <time>2024-11-05T15:14:37Z</time>
      </trkpt>
      <trkpt lat="45.90505" lon="1.29941">
        <ele>339.7</ele>
        <time>2024-11-05T15:14:38Z</time>
      </trkpt>
      <trkpt lat="45.90505" lon="1.29948">
        <ele>339.7</ele>
        <time>2024-11-05T15:14:39Z</time>
      </trkpt>
      <trkpt lat="45.90504" lon="1.29954">
        <ele>339.7</ele>
        <time>2024-11-05T15:14:40Z</time>
      </trkpt>
      <trkpt lat="45.90503" lon="1.2996">
        <ele>339.8</ele>
        <time>2024-11-05T15:14:41Z</time>
      </trkpt>
      <trkpt lat="45.90503" lon="1.29966">
        <ele>339.9</ele>
        <time>2024-11-05T15:14:42Z</time>
      </trkpt>
      <trkpt lat="45.90503" lon="1.29972">
        <ele>340</ele>
        <time>2024-11-05T15:14:43Z</time>
      </trkpt>
      <trkpt lat="45.90504" lon="1.29979">
        <ele>340.1</ele>
        <time>2024-11-05T15:14:44Z</time>
      </trkpt>
      <trkpt lat="45.90504" lon="1.29985">
        <ele>340.2</ele>
        <time>2024-11-05T15:14:45Z</time>
      </trkpt>
      <trkpt lat="45.90505" lon="1.29992">
        <ele>340.3</ele>
        <time>2024-11-05T15:14:46Z</time>
      </trkpt>
      <trkpt lat="45.90506" lon="1.29998">
        <ele>340.4</ele>
        <time>2024-11-05T15:14:47Z</time>
      </trkpt>
      <trkpt lat="45.90506" lon="1.30004">
        <ele>340.5</ele>
        <time>2024-11-05T15:14:48Z</time>
      </trkpt>
      <trkpt lat="45.90507" lon="1.3001">
        <ele>340.6</ele>
        <time>2024-11-05T15:14:49Z</time>
      </trkpt>
      <trkpt lat="45.90508" lon="1.30016">
        <ele>340.7</ele>
        <time>2024-11-05T15:14:50Z</time>
      </trkpt>
      <trkpt lat="45.90508" lon="1.30022">
        <ele>340.8</ele>
        <time>2024-11-05T15:14:51Z</time>
      </trkpt>
      <trkpt lat="45.90508" lon="1.30027">
        <ele>340.9</ele>
        <time>2024-11-05T15:14:52Z</time>
      </trkpt>
      <trkpt lat="45.90507" lon="1.30031">
        <ele>341</ele>
        <time>2024-11-05T15:14:53Z</time>
      </trkpt>
      <trkpt lat="45.90503" lon="1.30034">
        <ele>341.1</ele>
        <time>2024-11-05T15:14:55Z</time>
      </trkpt>
      <trkpt lat="45.90499" lon="1.30035">
        <ele>341.2</ele>
        <time>2024-11-05T15:14:56Z</time>
      </trkpt>
      <trkpt lat="45.90496" lon="1.30035">
        <ele>341.2</ele>
        <time>2024-11-05T15:14:57Z</time>
      </trkpt>
      <trkpt lat="45.90493" lon="1.30033">
        <ele>341.2</ele>
        <time>2024-11-05T15:14:58Z</time>
      </trkpt>
      <trkpt lat="45.9049" lon="1.30032">
        <ele>341.2</ele>
        <time>2024-11-05T15:14:59Z</time>
      </trkpt>
      <trkpt lat="45.90487" lon="1.30031">
        <ele>341.2</ele>
        <time>2024-11-05T15:15:00Z</time>
      </trkpt>
      <trkpt lat="45.90484" lon="1.30029">
        <ele>341.2</ele>
        <time>2024-11-05T15:15:01Z</time>
      </trkpt>
      <trkpt lat="45.90481" lon="1.30026">
        <ele>341.2</ele>
        <time>2024-11-05T15:15:02Z</time>
      </trkpt>
      <trkpt lat="45.90477" lon="1.30022">
        <ele>341.2</ele>
        <time>2024-11-05T15:15:03Z</time>
      </trkpt>
      <trkpt lat="45.90473" lon="1.30018">
        <ele>341.2</ele>
        <time>2024-11-05T15:15:04Z</time>
      </trkpt>
      <trkpt lat="45.90469" lon="1.30014">
        <ele>341.2</ele>
        <time>2024-11-05T15:15:05Z</time>
      </trkpt>
      <trkpt lat="45.90464" lon="1.30011">
        <ele>341.2</ele>
        <time>2024-11-05T15:15:06Z</time>
      </trkpt>
      <trkpt lat="45.90461" lon="1.30008">
        <ele>341.2</ele>
        <time>2024-11-05T15:15:07Z</time>
      </trkpt>
      <trkpt lat="45.90457" lon="1.30006">
        <ele>341.2</ele>
        <time>2024-11-05T15:15:08Z</time>
      </trkpt>
      <trkpt lat="45.90454" lon="1.30004">
        <ele>341.3</ele>
        <time>2024-11-05T15:15:09Z</time>
      </trkpt>
      <trkpt lat="45.9045" lon="1.30002">
        <ele>341.3</ele>
        <time>2024-11-05T15:15:10Z</time>
      </trkpt>
      <trkpt lat="45.90447" lon="1.3">
        <ele>341.3</ele>
        <time>2024-11-05T15:15:11Z</time>
      </trkpt>
      <trkpt lat="45.90444" lon="1.29998">
        <ele>341.3</ele>
        <time>2024-11-05T15:15:12Z</time>
      </trkpt>
      <trkpt lat="45.9044" lon="1.29995">
        <ele>341.3</ele>
        <time>2024-11-05T15:15:13Z</time>
      </trkpt>
      <trkpt lat="45.90436" lon="1.29992">
        <ele>341.3</ele>
        <time>2024-11-05T15:15:14Z</time>
      </trkpt>
      <trkpt lat="45.90432" lon="1.2999">
        <ele>341.2</ele>
        <time>2024-11-05T15:15:15Z</time>
      </trkpt>
      <trkpt lat="45.90429" lon="1.29987">
        <ele>341.2</ele>
        <time>2024-11-05T15:15:16Z</time>
      </trkpt>
      <trkpt lat="45.90424" lon="1.29984">
        <ele>341.1</ele>
        <time>2024-11-05T15:15:17Z</time>
      </trkpt>
      <trkpt lat="45.9042" lon="1.2998">
        <ele>341</ele>
        <time>2024-11-05T15:15:18Z</time>
      </trkpt>
      <trkpt lat="45.90415" lon="1.29974">
        <ele>340.8</ele>
        <time>2024-11-05T15:15:19Z</time>
      </trkpt>
      <trkpt lat="45.9041" lon="1.29971">
        <ele>340.7</ele>
        <time>2024-11-05T15:15:20Z</time>
      </trkpt>
      <trkpt lat="45.90405" lon="1.29967">
        <ele>340.4</ele>
        <time>2024-11-05T15:15:21Z</time>
      </trkpt>
      <trkpt lat="45.904" lon="1.29964">
        <ele>340.2</ele>
        <time>2024-11-05T15:15:22Z</time>
      </trkpt>
      <trkpt lat="45.90395" lon="1.2996">
        <ele>339.9</ele>
        <time>2024-11-05T15:15:23Z</time>
      </trkpt>
      <trkpt lat="45.90389" lon="1.29958">
        <ele>339.7</ele>
        <time>2024-11-05T15:15:24Z</time>
      </trkpt>
      <trkpt lat="45.90385" lon="1.29956">
        <ele>339.5</ele>
        <time>2024-11-05T15:15:25Z</time>
      </trkpt>
      <trkpt lat="45.90381" lon="1.29955">
        <ele>339.3</ele>
        <time>2024-11-05T15:15:26Z</time>
      </trkpt>
      <trkpt lat="45.90377" lon="1.29953">
        <ele>339.1</ele>
        <time>2024-11-05T15:15:27Z</time>
      </trkpt>
      <trkpt lat="45.90374" lon="1.29952">
        <ele>339</ele>
        <time>2024-11-05T15:15:28Z</time>
      </trkpt>
      <trkpt lat="45.9037" lon="1.29951">
        <ele>338.7</ele>
        <time>2024-11-05T15:15:29Z</time>
      </trkpt>
      <trkpt lat="45.90366" lon="1.29949">
        <ele>338.5</ele>
        <time>2024-11-05T15:15:30Z</time>
      </trkpt>
      <trkpt lat="45.90361" lon="1.29947">
        <ele>338.2</ele>
        <time>2024-11-05T15:15:31Z</time>
      </trkpt>
      <trkpt lat="45.90355" lon="1.29943">
        <ele>337.8</ele>
        <time>2024-11-05T15:15:32Z</time>
      </trkpt>
      <trkpt lat="45.90349" lon="1.2994">
        <ele>337.4</ele>
        <time>2024-11-05T15:15:33Z</time>
      </trkpt>
      <trkpt lat="45.90344" lon="1.29936">
        <ele>337.2</ele>
        <time>2024-11-05T15:15:34Z</time>
      </trkpt>
      <trkpt lat="45.9034" lon="1.29932">
        <ele>336.9</ele>
        <time>2024-11-05T15:15:35Z</time>
      </trkpt>
      <trkpt lat="45.90334" lon="1.29928">
        <ele>336.6</ele>
        <time>2024-11-05T15:15:36Z</time>
      </trkpt>
      <trkpt lat="45.90328" lon="1.29925">
        <ele>336.3</ele>
        <time>2024-11-05T15:15:37Z</time>
      </trkpt>
      <trkpt lat="45.90323" lon="1.29922">
        <ele>336</ele>
        <time>2024-11-05T15:15:38Z</time>
      </trkpt>
      <trkpt lat="45.90318" lon="1.29918">
        <ele>335.8</ele>
        <time>2024-11-05T15:15:39Z</time>
      </trkpt>
      <trkpt lat="45.90312" lon="1.29915">
        <ele>335.4</ele>
        <time>2024-11-05T15:15:40Z</time>
      </trkpt>
      <trkpt lat="45.90307" lon="1.29911">
        <ele>335.2</ele>
        <time>2024-11-05T15:15:41Z</time>
      </trkpt>
      <trkpt lat="45.90302" lon="1.29907">
        <ele>334.9</ele>
        <time>2024-11-05T15:15:42Z</time>
      </trkpt>
      <trkpt lat="45.90297" lon="1.29905">
        <ele>334.7</ele>
        <time>2024-11-05T15:15:43Z</time>
      </trkpt>
      <trkpt lat="45.90291" lon="1.29901">
        <ele>334.4</ele>
        <time>2024-11-05T15:15:44Z</time>
      </trkpt>
      <trkpt lat="45.90286" lon="1.29897">
        <ele>334.1</ele>
        <time>2024-11-05T15:15:45Z</time>
      </trkpt>
      <trkpt lat="45.9028" lon="1.29893">
        <ele>333.9</ele>
        <time>2024-11-05T15:15:46Z</time>
      </trkpt>
      <trkpt lat="45.90274" lon="1.29889">
        <ele>333.6</ele>
        <time>2024-11-05T15:15:47Z</time>
      </trkpt>
      <trkpt lat="45.90268" lon="1.29886">
        <ele>333.4</ele>
        <time>2024-11-05T15:15:48Z</time>
      </trkpt>
      <trkpt lat="45.90261" lon="1.29883">
        <ele>333.1</ele>
        <time>2024-11-05T15:15:49Z</time>
      </trkpt>
      <trkpt lat="45.90255" lon="1.29881">
        <ele>332.9</ele>
        <time>2024-11-05T15:15:50Z</time>
      </trkpt>
      <trkpt lat="45.90248" lon="1.29878">
        <ele>332.7</ele>
        <time>2024-11-05T15:15:51Z</time>
      </trkpt>
      <trkpt lat="45.90243" lon="1.29875">
        <ele>332.5</ele>
        <time>2024-11-05T15:15:52Z</time>
      </trkpt>
      <trkpt lat="45.90237" lon="1.2987">
        <ele>332.3</ele>
        <time>2024-11-05T15:15:53Z</time>
      </trkpt>
      <trkpt lat="45.90232" lon="1.29866">
        <ele>332.1</ele>
        <time>2024-11-05T15:15:54Z</time>
      </trkpt>
      <trkpt lat="45.90227" lon="1.29862">
        <ele>331.9</ele>
        <time>2024-11-05T15:15:55Z</time>
      </trkpt>
      <trkpt lat="45.90222" lon="1.29858">
        <ele>331.8</ele>
        <time>2024-11-05T15:15:56Z</time>
      </trkpt>
      <trkpt lat="45.90217" lon="1.29855">
        <ele>331.6</ele>
        <time>2024-11-05T15:15:57Z</time>
      </trkpt>
      <trkpt lat="45.90212" lon="1.29851">
        <ele>331.4</ele>
        <time>2024-11-05T15:15:58Z</time>
      </trkpt>
      <trkpt lat="45.90207" lon="1.29846">
        <ele>331.2</ele>
        <time>2024-11-05T15:15:59Z</time>
      </trkpt>
      <trkpt lat="45.90202" lon="1.29842">
        <ele>331</ele>
        <time>2024-11-05T15:16:00Z</time>
      </trkpt>
      <trkpt lat="45.90196" lon="1.29838">
        <ele>330.9</ele>
        <time>2024-11-05T15:16:01Z</time>
      </trkpt>
      <trkpt lat="45.90191" lon="1.29833">
        <ele>330.8</ele>
        <time>2024-11-05T15:16:02Z</time>
      </trkpt>
      <trkpt lat="45.90186" lon="1.2983">
        <ele>330.7</ele>
        <time>2024-11-05T15:16:03Z</time>
      </trkpt>
      <trkpt lat="45.90181" lon="1.29827">
        <ele>330.6</ele>
        <time>2024-11-05T15:16:04Z</time>
      </trkpt>
      <trkpt lat="45.90175" lon="1.29823">
        <ele>330.5</ele>
        <time>2024-11-05T15:16:05Z</time>
      </trkpt>
      <trkpt lat="45.9017" lon="1.29821">
        <ele>330.5</ele>
        <time>2024-11-05T15:16:06Z</time>
      </trkpt>
      <trkpt lat="45.90165" lon="1.29817">
        <ele>330.4</ele>
        <time>2024-11-05T15:16:07Z</time>
      </trkpt>
      <trkpt lat="45.9016" lon="1.29813">
        <ele>330.3</ele>
        <time>2024-11-05T15:16:08Z</time>
      </trkpt>
      <trkpt lat="45.90155" lon="1.2981">
        <ele>330.2</ele>
        <time>2024-11-05T15:16:09Z</time>
      </trkpt>
      <trkpt lat="45.90149" lon="1.29806">
        <ele>330.2</ele>
        <time>2024-11-05T15:16:10Z</time>
      </trkpt>
      <trkpt lat="45.90144" lon="1.29803">
        <ele>330.1</ele>
        <time>2024-11-05T15:16:11Z</time>
      </trkpt>
      <trkpt lat="45.9014" lon="1.29799">
        <ele>330</ele>
        <time>2024-11-05T15:16:12Z</time>
      </trkpt>
      <trkpt lat="45.90135" lon="1.29796">
        <ele>330</ele>
        <time>2024-11-05T15:16:13Z</time>
      </trkpt>
      <trkpt lat="45.90131" lon="1.29793">
        <ele>330</ele>
        <time>2024-11-05T15:16:14Z</time>
      </trkpt>
      <trkpt lat="45.90128" lon="1.2979">
        <ele>329.9</ele>
        <time>2024-11-05T15:16:17Z</time>
      </trkpt>
      <trkpt lat="45.90126" lon="1.29792">
        <ele>329.9</ele>
        <time>2024-11-05T15:16:23Z</time>
      </trkpt>
      <trkpt lat="45.90127" lon="1.29794">
        <ele>329.9</ele>
        <time>2024-11-05T15:16:25Z</time>
      </trkpt>
      <trkpt lat="45.9013" lon="1.29795">
        <ele>329.9</ele>
        <time>2024-11-05T15:16:31Z</time>
      </trkpt>
      <trkpt lat="45.90131" lon="1.29793">
        <ele>329.9</ele>
        <time>2024-11-05T15:16:34Z</time>
      </trkpt>
      <trkpt lat="45.9013" lon="1.29791">
        <ele>329.9</ele>
        <time>2024-11-05T15:16:36Z</time>
      </trkpt>
      <trkpt lat="45.90126" lon="1.29788">
        <ele>329.9</ele>
        <time>2024-11-05T15:16:38Z</time>
      </trkpt>
      <trkpt lat="45.90123" lon="1.29786">
        <ele>329.9</ele>
        <time>2024-11-05T15:16:39Z</time>
      </trkpt>
      <trkpt lat="45.9012" lon="1.29783">
        <ele>329.9</ele>
        <time>2024-11-05T15:16:40Z</time>
      </trkpt>
      <trkpt lat="45.90117" lon="1.29781">
        <ele>329.9</ele>
        <time>2024-11-05T15:16:41Z</time>
      </trkpt>
      <trkpt lat="45.90114" lon="1.29778">
        <ele>329.9</ele>
        <time>2024-11-05T15:16:43Z</time>
      </trkpt>
      <trkpt lat="45.90112" lon="1.29775">
        <ele>329.8</ele>
        <time>2024-11-05T15:16:45Z</time>
      </trkpt>
      <trkpt lat="45.90113" lon="1.29776">
        <ele>329.8</ele>
        <time>2024-11-05T15:16:50Z</time>
      </trkpt>
      <trkpt lat="45.90115" lon="1.29778">
        <ele>329.8</ele>
        <time>2024-11-05T15:16:53Z</time>
      </trkpt>
      <trkpt lat="45.90117" lon="1.2978">
        <ele>329.8</ele>
        <time>2024-11-05T15:16:57Z</time>
      </trkpt>
      <trkpt lat="45.9012" lon="1.29783">
        <ele>329.8</ele>
        <time>2024-11-05T15:17:16Z</time>
      </trkpt>
      <trkpt lat="45.90125" lon="1.29785">
        <ele>329.8</ele>
        <time>2024-11-05T15:17:18Z</time>
      </trkpt>
      <trkpt lat="45.90128" lon="1.29788">
        <ele>329.8</ele>
        <time>2024-11-05T15:17:20Z</time>
      </trkpt>
      <trkpt lat="45.90131" lon="1.2979">
        <ele>329.8</ele>
        <time>2024-11-05T15:17:24Z</time>
      </trkpt>
      <trkpt lat="45.90131" lon="1.29789">
        <ele>329.8</ele>
        <time>2024-11-05T15:17:31Z</time>
      </trkpt>
      <trkpt lat="45.90129" lon="1.29788">
        <ele>329.8</ele>
        <time>2024-11-05T15:17:33Z</time>
      </trkpt>
      <trkpt lat="45.90126" lon="1.29786">
        <ele>329.8</ele>
        <time>2024-11-05T15:17:35Z</time>
      </trkpt>
      <trkpt lat="45.90123" lon="1.29784">
        <ele>329.8</ele>
        <time>2024-11-05T15:17:37Z</time>
      </trkpt>
      <trkpt lat="45.9012" lon="1.29782">
        <ele>329.8</ele>
        <time>2024-11-05T15:17:39Z</time>
      </trkpt>
      <trkpt lat="45.90118" lon="1.29783">
        <ele>329.8</ele>
        <time>2024-11-05T15:17:55Z</time>
      </trkpt>
      <trkpt lat="45.90115" lon="1.29781">
        <ele>329.7</ele>
        <time>2024-11-05T15:18:24Z</time>
      </trkpt>
      <trkpt lat="45.90113" lon="1.29779">
        <ele>329.7</ele>
        <time>2024-11-05T15:18:26Z</time>
      </trkpt>
      <trkpt lat="45.9011" lon="1.29776">
        <ele>329.7</ele>
        <time>2024-11-05T15:18:28Z</time>
      </trkpt>
      <trkpt lat="45.90107" lon="1.29774">
        <ele>329.7</ele>
        <time>2024-11-05T15:18:29Z</time>
      </trkpt>
      <trkpt lat="45.90103" lon="1.29771">
        <ele>329.7</ele>
        <time>2024-11-05T15:18:31Z</time>
      </trkpt>
      <trkpt lat="45.90099" lon="1.29768">
        <ele>329.7</ele>
        <time>2024-11-05T15:18:33Z</time>
      </trkpt>
      <trkpt lat="45.90095" lon="1.29766">
        <ele>329.7</ele>
        <time>2024-11-05T15:18:35Z</time>
      </trkpt>
      <trkpt lat="45.90092" lon="1.29764">
        <ele>329.7</ele>
        <time>2024-11-05T15:18:37Z</time>
      </trkpt>
      <trkpt lat="45.90089" lon="1.29764">
        <ele>329.7</ele>
        <time>2024-11-05T15:18:40Z</time>
      </trkpt>
      <trkpt lat="45.9009" lon="1.29765">
        <ele>329.7</ele>
        <time>2024-11-05T15:18:53Z</time>
      </trkpt>
      <trkpt lat="45.90094" lon="1.29767">
        <ele>329.7</ele>
        <time>2024-11-05T15:18:55Z</time>
      </trkpt>
      <trkpt lat="45.90097" lon="1.29768">
        <ele>329.7</ele>
        <time>2024-11-05T15:18:56Z</time>
      </trkpt>
      <trkpt lat="45.901" lon="1.2977">
        <ele>329.7</ele>
        <time>2024-11-05T15:18:57Z</time>
      </trkpt>
      <trkpt lat="45.90102" lon="1.29771">
        <ele>329.7</ele>
        <time>2024-11-05T15:18:58Z</time>
      </trkpt>
      <trkpt lat="45.90106" lon="1.29773">
        <ele>329.6</ele>
        <time>2024-11-05T15:19:00Z</time>
      </trkpt>
      <trkpt lat="45.90111" lon="1.29776">
        <ele>329.7</ele>
        <time>2024-11-05T15:19:02Z</time>
      </trkpt>
      <trkpt lat="45.90114" lon="1.2978">
        <ele>329.7</ele>
        <time>2024-11-05T15:19:04Z</time>
      </trkpt>
      <trkpt lat="45.90116" lon="1.29782">
        <ele>329.7</ele>
        <time>2024-11-05T15:19:14Z</time>
      </trkpt>
      <trkpt lat="45.90118" lon="1.29781">
        <ele>329.8</ele>
        <time>2024-11-05T15:19:22Z</time>
      </trkpt>
      <trkpt lat="45.90122" lon="1.29783">
        <ele>329.8</ele>
        <time>2024-11-05T15:19:24Z</time>
      </trkpt>
      <trkpt lat="45.90125" lon="1.29785">
        <ele>329.8</ele>
        <time>2024-11-05T15:19:25Z</time>
      </trkpt>
      <trkpt lat="45.90129" lon="1.29787">
        <ele>329.9</ele>
        <time>2024-11-05T15:19:26Z</time>
      </trkpt>
      <trkpt lat="45.90132" lon="1.2979">
        <ele>329.9</ele>
        <time>2024-11-05T15:19:27Z</time>
      </trkpt>
      <trkpt lat="45.90135" lon="1.29793">
        <ele>329.9</ele>
        <time>2024-11-05T15:19:28Z</time>
      </trkpt>
      <trkpt lat="45.90137" lon="1.29797">
        <ele>330</ele>
        <time>2024-11-05T15:19:29Z</time>
      </trkpt>
      <trkpt lat="45.90138" lon="1.29801">
        <ele>330</ele>
        <time>2024-11-05T15:19:30Z</time>
      </trkpt>
      <trkpt lat="45.90137" lon="1.29805">
        <ele>330</ele>
        <time>2024-11-05T15:19:31Z</time>
      </trkpt>
      <trkpt lat="45.90136" lon="1.2981">
        <ele>330</ele>
        <time>2024-11-05T15:19:32Z</time>
      </trkpt>
      <trkpt lat="45.90134" lon="1.29815">
        <ele>329.9</ele>
        <time>2024-11-05T15:19:33Z</time>
      </trkpt>
      <trkpt lat="45.90133" lon="1.29819">
        <ele>329.9</ele>
        <time>2024-11-05T15:19:34Z</time>
      </trkpt>
      <trkpt lat="45.90132" lon="1.29824">
        <ele>329.9</ele>
        <time>2024-11-05T15:19:35Z</time>
      </trkpt>
      <trkpt lat="45.9013" lon="1.29828">
        <ele>329.9</ele>
        <time>2024-11-05T15:19:36Z</time>
      </trkpt>
      <trkpt lat="45.90129" lon="1.29833">
        <ele>329.9</ele>
        <time>2024-11-05T15:19:38Z</time>
      </trkpt>
      <trkpt lat="45.90127" lon="1.29837">
        <ele>329.9</ele>
        <time>2024-11-05T15:19:39Z</time>
      </trkpt>
      <trkpt lat="45.90125" lon="1.2984">
        <ele>329.9</ele>
        <time>2024-11-05T15:19:40Z</time>
      </trkpt>
      <trkpt lat="45.90123" lon="1.29844">
        <ele>329.9</ele>
        <time>2024-11-05T15:19:41Z</time>
      </trkpt>
      <trkpt lat="45.90121" lon="1.29849">
        <ele>330</ele>
        <time>2024-11-05T15:19:42Z</time>
      </trkpt>
      <trkpt lat="45.90118" lon="1.29854">
        <ele>330.1</ele>
        <time>2024-11-05T15:19:43Z</time>
      </trkpt>
      <trkpt lat="45.90116" lon="1.29859">
        <ele>330.2</ele>
        <time>2024-11-05T15:19:44Z</time>
      </trkpt>
      <trkpt lat="45.90114" lon="1.29864">
        <ele>330.3</ele>
        <time>2024-11-05T15:19:45Z</time>
      </trkpt>
      <trkpt lat="45.90112" lon="1.29869">
        <ele>330.4</ele>
        <time>2024-11-05T15:19:46Z</time>
      </trkpt>
      <trkpt lat="45.9011" lon="1.29874">
        <ele>330.5</ele>
        <time>2024-11-05T15:19:47Z</time>
      </trkpt>
      <trkpt lat="45.90108" lon="1.29879">
        <ele>330.7</ele>
        <time>2024-11-05T15:19:48Z</time>
      </trkpt>
      <trkpt lat="45.90104" lon="1.29882">
        <ele>330.8</ele>
        <time>2024-11-05T15:19:50Z</time>
      </trkpt>
      <trkpt lat="45.90102" lon="1.29882">
        <ele>330.8</ele>
        <time>2024-11-05T15:19:51Z</time>
      </trkpt>
      <trkpt lat="45.90099" lon="1.29881">
        <ele>330.8</ele>
        <time>2024-11-05T15:19:52Z</time>
      </trkpt>
      <trkpt lat="45.90096" lon="1.29879">
        <ele>330.9</ele>
        <time>2024-11-05T15:19:53Z</time>
      </trkpt>
      <trkpt lat="45.90093" lon="1.29877">
        <ele>330.8</ele>
        <time>2024-11-05T15:19:54Z</time>
      </trkpt>
      <trkpt lat="45.90091" lon="1.29875">
        <ele>330.8</ele>
        <time>2024-11-05T15:19:55Z</time>
      </trkpt>
      <trkpt lat="45.90088" lon="1.29873">
        <ele>330.8</ele>
        <time>2024-11-05T15:19:56Z</time>
      </trkpt>
      <trkpt lat="45.90085" lon="1.2987">
        <ele>330.8</ele>
        <time>2024-11-05T15:19:58Z</time>
      </trkpt>
      <trkpt lat="45.90081" lon="1.29867">
        <ele>330.7</ele>
        <time>2024-11-05T15:20:00Z</time>
      </trkpt>
      <trkpt lat="45.90077" lon="1.29864">
        <ele>330.7</ele>
        <time>2024-11-05T15:20:02Z</time>
      </trkpt>
      <trkpt lat="45.90073" lon="1.29862">
        <ele>330.6</ele>
        <time>2024-11-05T15:20:04Z</time>
      </trkpt>
      <trkpt lat="45.9007" lon="1.2986">
        <ele>330.6</ele>
        <time>2024-11-05T15:20:07Z</time>
      </trkpt>
      <trkpt lat="45.90066" lon="1.29858">
        <ele>330.6</ele>
        <time>2024-11-05T15:20:11Z</time>
      </trkpt>
      <trkpt lat="45.90063" lon="1.29857">
        <ele>330.6</ele>
        <time>2024-11-05T15:20:13Z</time>
      </trkpt>
      <trkpt lat="45.9006" lon="1.29855">
        <ele>330.5</ele>
        <time>2024-11-05T15:20:15Z</time>
      </trkpt>
      <trkpt lat="45.90058" lon="1.29852">
        <ele>330.5</ele>
        <time>2024-11-05T15:20:19Z</time>
      </trkpt>
      <trkpt lat="45.90056" lon="1.29849">
        <ele>330.5</ele>
        <time>2024-11-05T15:20:54Z</time>
      </trkpt>
      <trkpt lat="45.90054" lon="1.29851">
        <ele>330.5</ele>
        <time>2024-11-05T15:20:56Z</time>
      </trkpt>
      <trkpt lat="45.90055" lon="1.29854">
        <ele>330.5</ele>
        <time>2024-11-05T15:20:58Z</time>
      </trkpt>
      <trkpt lat="45.90059" lon="1.29855">
        <ele>330.5</ele>
        <time>2024-11-05T15:21:00Z</time>
      </trkpt>
      <trkpt lat="45.90063" lon="1.29855">
        <ele>330.5</ele>
        <time>2024-11-05T15:21:02Z</time>
      </trkpt>
      <trkpt lat="45.90067" lon="1.29854">
        <ele>330.5</ele>
        <time>2024-11-05T15:21:04Z</time>
      </trkpt>
      <trkpt lat="45.9007" lon="1.29854">
        <ele>330.5</ele>
        <time>2024-11-05T15:21:08Z</time>
      </trkpt>
      <trkpt lat="45.90073" lon="1.29854">
        <ele>330.6</ele>
        <time>2024-11-05T15:21:15Z</time>
      </trkpt>
      <trkpt lat="45.90078" lon="1.29857">
        <ele>330.7</ele>
        <time>2024-11-05T15:21:32Z</time>
      </trkpt>
      <trkpt lat="45.90081" lon="1.29859">
        <ele>330.7</ele>
        <time>2024-11-05T15:21:34Z</time>
      </trkpt>
      <trkpt lat="45.90083" lon="1.29864">
        <ele>330.8</ele>
        <time>2024-11-05T15:21:35Z</time>
      </trkpt>
      <trkpt lat="45.90085" lon="1.29868">
        <ele>330.8</ele>
        <time>2024-11-05T15:21:36Z</time>
      </trkpt>
      <trkpt lat="45.90087" lon="1.29871">
        <ele>330.8</ele>
        <time>2024-11-05T15:21:37Z</time>
      </trkpt>
      <trkpt lat="45.9009" lon="1.29873">
        <ele>330.8</ele>
        <time>2024-11-05T15:21:38Z</time>
      </trkpt>
      <trkpt lat="45.90093" lon="1.29876">
        <ele>330.9</ele>
        <time>2024-11-05T15:21:39Z</time>
      </trkpt>
      <trkpt lat="45.90095" lon="1.29878">
        <ele>330.9</ele>
        <time>2024-11-05T15:21:40Z</time>
      </trkpt>
      <trkpt lat="45.90099" lon="1.29881">
        <ele>330.8</ele>
        <time>2024-11-05T15:21:41Z</time>
      </trkpt>
      <trkpt lat="45.90102" lon="1.29882">
        <ele>330.8</ele>
        <time>2024-11-05T15:21:42Z</time>
      </trkpt>
      <trkpt lat="45.90105" lon="1.2988">
        <ele>330.7</ele>
        <time>2024-11-05T15:21:43Z</time>
      </trkpt>
      <trkpt lat="45.90107" lon="1.29877">
        <ele>330.6</ele>
        <time>2024-11-05T15:21:44Z</time>
      </trkpt>
      <trkpt lat="45.90109" lon="1.29872">
        <ele>330.5</ele>
        <time>2024-11-05T15:21:45Z</time>
      </trkpt>
      <trkpt lat="45.90111" lon="1.29867">
        <ele>330.4</ele>
        <time>2024-11-05T15:21:46Z</time>
      </trkpt>
      <trkpt lat="45.90114" lon="1.29862">
        <ele>330.3</ele>
        <time>2024-11-05T15:21:47Z</time>
      </trkpt>
      <trkpt lat="45.90116" lon="1.29856">
        <ele>330.2</ele>
        <time>2024-11-05T15:21:48Z</time>
      </trkpt>
      <trkpt lat="45.90119" lon="1.2985">
        <ele>330.1</ele>
        <time>2024-11-05T15:21:49Z</time>
      </trkpt>
      <trkpt lat="45.90121" lon="1.29843">
        <ele>330</ele>
        <time>2024-11-05T15:21:50Z</time>
      </trkpt>
      <trkpt lat="45.90124" lon="1.29837">
        <ele>329.9</ele>
        <time>2024-11-05T15:21:51Z</time>
      </trkpt>
      <trkpt lat="45.90126" lon="1.2983">
        <ele>329.9</ele>
        <time>2024-11-05T15:21:52Z</time>
      </trkpt>
      <trkpt lat="45.90128" lon="1.29825">
        <ele>329.9</ele>
        <time>2024-11-05T15:21:53Z</time>
      </trkpt>
      <trkpt lat="45.9013" lon="1.29819">
        <ele>329.9</ele>
        <time>2024-11-05T15:21:54Z</time>
      </trkpt>
      <trkpt lat="45.90133" lon="1.29813">
        <ele>329.9</ele>
        <time>2024-11-05T15:21:55Z</time>
      </trkpt>
      <trkpt lat="45.90135" lon="1.29807">
        <ele>329.9</ele>
        <time>2024-11-05T15:21:56Z</time>
      </trkpt>
      <trkpt lat="45.90136" lon="1.29802">
        <ele>330</ele>
        <time>2024-11-05T15:21:57Z</time>
      </trkpt>
      <trkpt lat="45.90134" lon="1.29795">
        <ele>330</ele>
        <time>2024-11-05T15:21:59Z</time>
      </trkpt>
      <trkpt lat="45.90131" lon="1.29792">
        <ele>330</ele>
        <time>2024-11-05T15:22:00Z</time>
      </trkpt>
      <trkpt lat="45.90127" lon="1.29789">
        <ele>329.9</ele>
        <time>2024-11-05T15:22:01Z</time>
      </trkpt>
      <trkpt lat="45.90123" lon="1.29787">
        <ele>329.9</ele>
        <time>2024-11-05T15:22:02Z</time>
      </trkpt>
      <trkpt lat="45.9012" lon="1.29785">
        <ele>329.9</ele>
        <time>2024-11-05T15:22:03Z</time>
      </trkpt>
      <trkpt lat="45.90116" lon="1.29782">
        <ele>329.8</ele>
        <time>2024-11-05T15:22:04Z</time>
      </trkpt>
      <trkpt lat="45.90112" lon="1.2978">
        <ele>329.8</ele>
        <time>2024-11-05T15:22:05Z</time>
      </trkpt>
      <trkpt lat="45.90109" lon="1.29778">
        <ele>329.8</ele>
        <time>2024-11-05T15:22:06Z</time>
      </trkpt>
      <trkpt lat="45.90105" lon="1.29776">
        <ele>329.7</ele>
        <time>2024-11-05T15:22:07Z</time>
      </trkpt>
      <trkpt lat="45.90102" lon="1.29774">
        <ele>329.7</ele>
        <time>2024-11-05T15:22:08Z</time>
      </trkpt>
      <trkpt lat="45.901" lon="1.29768">
        <ele>329.7</ele>
        <time>2024-11-05T15:22:26Z</time>
      </trkpt>
      <trkpt lat="45.90102" lon="1.2977">
        <ele>329.7</ele>
        <time>2024-11-05T15:22:52Z</time>
      </trkpt>
      <trkpt lat="45.90105" lon="1.29773">
        <ele>329.7</ele>
        <time>2024-11-05T15:22:54Z</time>
      </trkpt>
      <trkpt lat="45.90108" lon="1.29774">
        <ele>329.7</ele>
        <time>2024-11-05T15:22:55Z</time>
      </trkpt>
      <trkpt lat="45.90112" lon="1.29776">
        <ele>329.6</ele>
        <time>2024-11-05T15:22:56Z</time>
      </trkpt>
      <trkpt lat="45.90115" lon="1.29778">
        <ele>329.6</ele>
        <time>2024-11-05T15:23:20Z</time>
      </trkpt>
      <trkpt lat="45.90118" lon="1.2978">
        <ele>329.6</ele>
        <time>2024-11-05T15:23:36Z</time>
      </trkpt>
      <trkpt lat="45.90117" lon="1.29779">
        <ele>329.6</ele>
        <time>2024-11-05T15:24:11Z</time>
      </trkpt>
      <trkpt lat="45.90119" lon="1.29776">
        <ele>329.6</ele>
        <time>2024-11-05T15:24:32Z</time>
      </trkpt>
      <trkpt lat="45.90118" lon="1.29772">
        <ele>329.6</ele>
        <time>2024-11-05T15:24:35Z</time>
      </trkpt>
      <trkpt lat="45.90115" lon="1.29772">
        <ele>329.5</ele>
        <time>2024-11-05T15:24:37Z</time>
      </trkpt>
      <trkpt lat="45.90111" lon="1.29771">
        <ele>329.5</ele>
        <time>2024-11-05T15:24:38Z</time>
      </trkpt>
      <trkpt lat="45.90108" lon="1.2977">
        <ele>329.5</ele>
        <time>2024-11-05T15:24:39Z</time>
      </trkpt>
      <trkpt lat="45.90105" lon="1.29768">
        <ele>329.5</ele>
        <time>2024-11-05T15:24:40Z</time>
      </trkpt>
      <trkpt lat="45.90101" lon="1.29767">
        <ele>329.5</ele>
        <time>2024-11-05T15:24:41Z</time>
      </trkpt>
      <trkpt lat="45.90098" lon="1.29765">
        <ele>329.5</ele>
        <time>2024-11-05T15:24:42Z</time>
      </trkpt>
      <trkpt lat="45.90094" lon="1.29763">
        <ele>329.4</ele>
        <time>2024-11-05T15:24:43Z</time>
      </trkpt>
      <trkpt lat="45.9009" lon="1.29761">
        <ele>329.4</ele>
        <time>2024-11-05T15:24:44Z</time>
      </trkpt>
      <trkpt lat="45.90087" lon="1.2976">
        <ele>329.4</ele>
        <time>2024-11-05T15:24:45Z</time>
      </trkpt>
      <trkpt lat="45.90083" lon="1.29758">
        <ele>329.4</ele>
        <time>2024-11-05T15:24:46Z</time>
      </trkpt>
      <trkpt lat="45.9008" lon="1.29757">
        <ele>329.4</ele>
        <time>2024-11-05T15:24:47Z</time>
      </trkpt>
      <trkpt lat="45.90076" lon="1.29755">
        <ele>329.4</ele>
        <time>2024-11-05T15:24:49Z</time>
      </trkpt>
      <trkpt lat="45.90071" lon="1.29753">
        <ele>329.4</ele>
        <time>2024-11-05T15:24:51Z</time>
      </trkpt>
      <trkpt lat="45.90068" lon="1.29751">
        <ele>329.3</ele>
        <time>2024-11-05T15:24:52Z</time>
      </trkpt>
      <trkpt lat="45.90065" lon="1.29748">
        <ele>329.3</ele>
        <time>2024-11-05T15:24:53Z</time>
      </trkpt>
      <trkpt lat="45.90062" lon="1.29745">
        <ele>329.3</ele>
        <time>2024-11-05T15:24:54Z</time>
      </trkpt>
      <trkpt lat="45.90059" lon="1.29742">
        <ele>329.3</ele>
        <time>2024-11-05T15:24:55Z</time>
      </trkpt>
      <trkpt lat="45.90057" lon="1.29739">
        <ele>329.3</ele>
        <time>2024-11-05T15:24:56Z</time>
      </trkpt>
      <trkpt lat="45.90054" lon="1.29736">
        <ele>329.3</ele>
        <time>2024-11-05T15:24:57Z</time>
      </trkpt>
      <trkpt lat="45.90052" lon="1.29734">
        <ele>329.3</ele>
        <time>2024-11-05T15:24:58Z</time>
      </trkpt>
      <trkpt lat="45.90049" lon="1.29731">
        <ele>329.2</ele>
        <time>2024-11-05T15:24:59Z</time>
      </trkpt>
      <trkpt lat="45.90047" lon="1.29729">
        <ele>329.2</ele>
        <time>2024-11-05T15:25:00Z</time>
      </trkpt>
      <trkpt lat="45.90044" lon="1.29727">
        <ele>329.2</ele>
        <time>2024-11-05T15:25:01Z</time>
      </trkpt>
      <trkpt lat="45.90041" lon="1.29725">
        <ele>329.1</ele>
        <time>2024-11-05T15:25:03Z</time>
      </trkpt>
      <trkpt lat="45.90037" lon="1.29723">
        <ele>329.1</ele>
        <time>2024-11-05T15:25:04Z</time>
      </trkpt>
      <trkpt lat="45.90034" lon="1.29722">
        <ele>329.1</ele>
        <time>2024-11-05T15:25:05Z</time>
      </trkpt>
      <trkpt lat="45.9003" lon="1.2972">
        <ele>329</ele>
        <time>2024-11-05T15:25:07Z</time>
      </trkpt>
      <trkpt lat="45.90026" lon="1.29718">
        <ele>329</ele>
        <time>2024-11-05T15:25:08Z</time>
      </trkpt>
      <trkpt lat="45.90022" lon="1.29716">
        <ele>329</ele>
        <time>2024-11-05T15:25:09Z</time>
      </trkpt>
      <trkpt lat="45.90018" lon="1.29714">
        <ele>329</ele>
        <time>2024-11-05T15:25:10Z</time>
      </trkpt>
      <trkpt lat="45.90014" lon="1.29712">
        <ele>328.9</ele>
        <time>2024-11-05T15:25:11Z</time>
      </trkpt>
      <trkpt lat="45.90011" lon="1.2971">
        <ele>328.9</ele>
        <time>2024-11-05T15:25:12Z</time>
      </trkpt>
      <trkpt lat="45.90006" lon="1.29708">
        <ele>328.9</ele>
        <time>2024-11-05T15:25:13Z</time>
      </trkpt>
      <trkpt lat="45.90002" lon="1.29706">
        <ele>328.9</ele>
        <time>2024-11-05T15:25:14Z</time>
      </trkpt>
      <trkpt lat="45.89998" lon="1.29704">
        <ele>328.9</ele>
        <time>2024-11-05T15:25:15Z</time>
      </trkpt>
      <trkpt lat="45.89995" lon="1.29702">
        <ele>328.9</ele>
        <time>2024-11-05T15:25:16Z</time>
      </trkpt>
      <trkpt lat="45.89991" lon="1.29701">
        <ele>328.9</ele>
        <time>2024-11-05T15:25:17Z</time>
      </trkpt>
      <trkpt lat="45.89988" lon="1.29699">
        <ele>328.9</ele>
        <time>2024-11-05T15:25:18Z</time>
      </trkpt>
      <trkpt lat="45.89985" lon="1.29698">
        <ele>328.9</ele>
        <time>2024-11-05T15:25:19Z</time>
      </trkpt>
      <trkpt lat="45.89982" lon="1.29697">
        <ele>328.9</ele>
        <time>2024-11-05T15:25:20Z</time>
      </trkpt>
      <trkpt lat="45.89978" lon="1.29695">
        <ele>328.9</ele>
        <time>2024-11-05T15:25:21Z</time>
      </trkpt>
      <trkpt lat="45.89975" lon="1.29694">
        <ele>328.8</ele>
        <time>2024-11-05T15:25:22Z</time>
      </trkpt>
      <trkpt lat="45.89971" lon="1.29693">
        <ele>328.8</ele>
        <time>2024-11-05T15:25:23Z</time>
      </trkpt>
      <trkpt lat="45.89968" lon="1.29691">
        <ele>328.8</ele>
        <time>2024-11-05T15:25:24Z</time>
      </trkpt>
      <trkpt lat="45.89964" lon="1.29689">
        <ele>328.8</ele>
        <time>2024-11-05T15:25:25Z</time>
      </trkpt>
      <trkpt lat="45.89961" lon="1.29688">
        <ele>328.7</ele>
        <time>2024-11-05T15:25:26Z</time>
      </trkpt>
      <trkpt lat="45.89956" lon="1.29687">
        <ele>328.7</ele>
        <time>2024-11-05T15:25:28Z</time>
      </trkpt>
      <trkpt lat="45.89952" lon="1.29685">
        <ele>328.7</ele>
        <time>2024-11-05T15:25:30Z</time>
      </trkpt>
      <trkpt lat="45.89949" lon="1.29684">
        <ele>328.6</ele>
        <time>2024-11-05T15:25:31Z</time>
      </trkpt>
      <trkpt lat="45.89945" lon="1.29682">
        <ele>328.6</ele>
        <time>2024-11-05T15:25:32Z</time>
      </trkpt>
      <trkpt lat="45.89942" lon="1.29681">
        <ele>328.6</ele>
        <time>2024-11-05T15:25:33Z</time>
      </trkpt>
      <trkpt lat="45.89939" lon="1.2968">
        <ele>328.6</ele>
        <time>2024-11-05T15:25:34Z</time>
      </trkpt>
      <trkpt lat="45.89935" lon="1.29678">
        <ele>328.6</ele>
        <time>2024-11-05T15:25:36Z</time>
      </trkpt>
      <trkpt lat="45.8993" lon="1.29676">
        <ele>328.6</ele>
        <time>2024-11-05T15:25:38Z</time>
      </trkpt>
      <trkpt lat="45.89926" lon="1.29674">
        <ele>328.5</ele>
        <time>2024-11-05T15:25:39Z</time>
      </trkpt>
      <trkpt lat="45.89922" lon="1.29672">
        <ele>328.5</ele>
        <time>2024-11-05T15:25:40Z</time>
      </trkpt>
      <trkpt lat="45.89919" lon="1.29671">
        <ele>328.5</ele>
        <time>2024-11-05T15:25:41Z</time>
      </trkpt>
      <trkpt lat="45.89915" lon="1.29669">
        <ele>328.5</ele>
        <time>2024-11-05T15:25:42Z</time>
      </trkpt>
      <trkpt lat="45.89911" lon="1.29668">
        <ele>328.5</ele>
        <time>2024-11-05T15:25:43Z</time>
      </trkpt>
      <trkpt lat="45.89908" lon="1.29667">
        <ele>328.5</ele>
        <time>2024-11-05T15:25:44Z</time>
      </trkpt>
      <trkpt lat="45.89904" lon="1.29666">
        <ele>328.5</ele>
        <time>2024-11-05T15:25:45Z</time>
      </trkpt>
      <trkpt lat="45.899" lon="1.29664">
        <ele>328.5</ele>
        <time>2024-11-05T15:25:46Z</time>
      </trkpt>
      <trkpt lat="45.89896" lon="1.29662">
        <ele>328.5</ele>
        <time>2024-11-05T15:25:47Z</time>
      </trkpt>
      <trkpt lat="45.89893" lon="1.2966">
        <ele>328.5</ele>
        <time>2024-11-05T15:25:48Z</time>
      </trkpt>
      <trkpt lat="45.8989" lon="1.29659">
        <ele>328.5</ele>
        <time>2024-11-05T15:25:49Z</time>
      </trkpt>
      <trkpt lat="45.89886" lon="1.29658">
        <ele>328.5</ele>
        <time>2024-11-05T15:25:51Z</time>
      </trkpt>
      <trkpt lat="45.89882" lon="1.29656">
        <ele>328.4</ele>
        <time>2024-11-05T15:25:53Z</time>
      </trkpt>
      <trkpt lat="45.89878" lon="1.29654">
        <ele>328.4</ele>
        <time>2024-11-05T15:25:55Z</time>
      </trkpt>
      <trkpt lat="45.89875" lon="1.29651">
        <ele>328.4</ele>
        <time>2024-11-05T15:25:57Z</time>
      </trkpt>
      <trkpt lat="45.8987" lon="1.29649">
        <ele>328.4</ele>
        <time>2024-11-05T15:25:59Z</time>
      </trkpt>
      <trkpt lat="45.89867" lon="1.29647">
        <ele>328.4</ele>
        <time>2024-11-05T15:26:00Z</time>
      </trkpt>
      <trkpt lat="45.89864" lon="1.29646">
        <ele>328.4</ele>
        <time>2024-11-05T15:26:01Z</time>
      </trkpt>
      <trkpt lat="45.89861" lon="1.29644">
        <ele>328.5</ele>
        <time>2024-11-05T15:26:02Z</time>
      </trkpt>
      <trkpt lat="45.89858" lon="1.29642">
        <ele>328.5</ele>
        <time>2024-11-05T15:26:03Z</time>
      </trkpt>
      <trkpt lat="45.89855" lon="1.29641">
        <ele>328.5</ele>
        <time>2024-11-05T15:26:04Z</time>
      </trkpt>
      <trkpt lat="45.89851" lon="1.29639">
        <ele>328.5</ele>
        <time>2024-11-05T15:26:05Z</time>
      </trkpt>
      <trkpt lat="45.89848" lon="1.29637">
        <ele>328.5</ele>
        <time>2024-11-05T15:26:06Z</time>
      </trkpt>
      <trkpt lat="45.89845" lon="1.29636">
        <ele>328.5</ele>
        <time>2024-11-05T15:26:07Z</time>
      </trkpt>
      <trkpt lat="45.89842" lon="1.29635">
        <ele>328.6</ele>
        <time>2024-11-05T15:26:08Z</time>
      </trkpt>
      <trkpt lat="45.89839" lon="1.29633">
        <ele>328.6</ele>
        <time>2024-11-05T15:26:09Z</time>
      </trkpt>
      <trkpt lat="45.89835" lon="1.2963">
        <ele>328.6</ele>
        <time>2024-11-05T15:26:10Z</time>
      </trkpt>
      <trkpt lat="45.89832" lon="1.29628">
        <ele>328.6</ele>
        <time>2024-11-05T15:26:11Z</time>
      </trkpt>
      <trkpt lat="45.89828" lon="1.29626">
        <ele>328.6</ele>
        <time>2024-11-05T15:26:12Z</time>
      </trkpt>
      <trkpt lat="45.89825" lon="1.29624">
        <ele>328.7</ele>
        <time>2024-11-05T15:26:13Z</time>
      </trkpt>
      <trkpt lat="45.89821" lon="1.29622">
        <ele>328.7</ele>
        <time>2024-11-05T15:26:14Z</time>
      </trkpt>
      <trkpt lat="45.89818" lon="1.2962">
        <ele>328.7</ele>
        <time>2024-11-05T15:26:15Z</time>
      </trkpt>
      <trkpt lat="45.89815" lon="1.29618">
        <ele>328.7</ele>
        <time>2024-11-05T15:26:16Z</time>
      </trkpt>
      <trkpt lat="45.89812" lon="1.29616">
        <ele>328.7</ele>
        <time>2024-11-05T15:26:17Z</time>
      </trkpt>
      <trkpt lat="45.89809" lon="1.29614">
        <ele>328.8</ele>
        <time>2024-11-05T15:26:18Z</time>
      </trkpt>
      <trkpt lat="45.89805" lon="1.29613">
        <ele>328.8</ele>
        <time>2024-11-05T15:26:19Z</time>
      </trkpt>
      <trkpt lat="45.89802" lon="1.29611">
        <ele>328.8</ele>
        <time>2024-11-05T15:26:20Z</time>
      </trkpt>
      <trkpt lat="45.898" lon="1.29609">
        <ele>328.8</ele>
        <time>2024-11-05T15:26:21Z</time>
      </trkpt>
      <trkpt lat="45.89797" lon="1.29607">
        <ele>328.8</ele>
        <time>2024-11-05T15:26:22Z</time>
      </trkpt>
      <trkpt lat="45.89794" lon="1.29605">
        <ele>328.9</ele>
        <time>2024-11-05T15:26:23Z</time>
      </trkpt>
      <trkpt lat="45.8979" lon="1.29603">
        <ele>328.9</ele>
        <time>2024-11-05T15:26:24Z</time>
      </trkpt>
      <trkpt lat="45.89787" lon="1.29601">
        <ele>328.9</ele>
        <time>2024-11-05T15:26:25Z</time>
      </trkpt>
      <trkpt lat="45.89784" lon="1.29599">
        <ele>328.9</ele>
        <time>2024-11-05T15:26:26Z</time>
      </trkpt>
      <trkpt lat="45.8978" lon="1.29597">
        <ele>329</ele>
        <time>2024-11-05T15:26:27Z</time>
      </trkpt>
      <trkpt lat="45.89777" lon="1.29595">
        <ele>329</ele>
        <time>2024-11-05T15:26:28Z</time>
      </trkpt>
      <trkpt lat="45.89774" lon="1.29594">
        <ele>329</ele>
        <time>2024-11-05T15:26:29Z</time>
      </trkpt>
      <trkpt lat="45.8977" lon="1.29591">
        <ele>329.1</ele>
        <time>2024-11-05T15:26:31Z</time>
      </trkpt>
      <trkpt lat="45.89767" lon="1.29589">
        <ele>329.1</ele>
        <time>2024-11-05T15:26:32Z</time>
      </trkpt>
      <trkpt lat="45.89764" lon="1.29588">
        <ele>329.1</ele>
        <time>2024-11-05T15:26:33Z</time>
      </trkpt>
      <trkpt lat="45.89761" lon="1.29587">
        <ele>329.2</ele>
        <time>2024-11-05T15:26:34Z</time>
      </trkpt>
      <trkpt lat="45.89758" lon="1.29585">
        <ele>329.2</ele>
        <time>2024-11-05T15:26:35Z</time>
      </trkpt>
      <trkpt lat="45.89755" lon="1.29583">
        <ele>329.2</ele>
        <time>2024-11-05T15:26:36Z</time>
      </trkpt>
      <trkpt lat="45.89752" lon="1.29582">
        <ele>329.2</ele>
        <time>2024-11-05T15:26:37Z</time>
      </trkpt>
      <trkpt lat="45.89749" lon="1.2958">
        <ele>329.3</ele>
        <time>2024-11-05T15:26:38Z</time>
      </trkpt>
      <trkpt lat="45.89746" lon="1.29578">
        <ele>329.3</ele>
        <time>2024-11-05T15:26:39Z</time>
      </trkpt>
      <trkpt lat="45.89742" lon="1.29576">
        <ele>329.4</ele>
        <time>2024-11-05T15:26:41Z</time>
      </trkpt>
      <trkpt lat="45.89739" lon="1.29575">
        <ele>329.4</ele>
        <time>2024-11-05T15:26:42Z</time>
      </trkpt>
      <trkpt lat="45.89735" lon="1.29574">
        <ele>329.5</ele>
        <time>2024-11-05T15:26:43Z</time>
      </trkpt>
      <trkpt lat="45.89732" lon="1.29573">
        <ele>329.5</ele>
        <time>2024-11-05T15:26:44Z</time>
      </trkpt>
      <trkpt lat="45.89728" lon="1.29572">
        <ele>329.6</ele>
        <time>2024-11-05T15:26:45Z</time>
      </trkpt>
      <trkpt lat="45.89725" lon="1.29571">
        <ele>329.7</ele>
        <time>2024-11-05T15:26:46Z</time>
      </trkpt>
      <trkpt lat="45.89722" lon="1.2957">
        <ele>329.7</ele>
        <time>2024-11-05T15:26:47Z</time>
      </trkpt>
      <trkpt lat="45.89719" lon="1.29569">
        <ele>329.7</ele>
        <time>2024-11-05T15:26:48Z</time>
      </trkpt>
      <trkpt lat="45.89716" lon="1.29567">
        <ele>329.8</ele>
        <time>2024-11-05T15:26:49Z</time>
      </trkpt>
      <trkpt lat="45.89713" lon="1.29566">
        <ele>329.8</ele>
        <time>2024-11-05T15:26:50Z</time>
      </trkpt>
      <trkpt lat="45.8971" lon="1.29564">
        <ele>329.8</ele>
        <time>2024-11-05T15:26:51Z</time>
      </trkpt>
      <trkpt lat="45.89706" lon="1.29562">
        <ele>329.7</ele>
        <time>2024-11-05T15:26:52Z</time>
      </trkpt>
      <trkpt lat="45.89703" lon="1.2956">
        <ele>329.7</ele>
        <time>2024-11-05T15:26:53Z</time>
      </trkpt>
      <trkpt lat="45.89699" lon="1.29558">
        <ele>329.7</ele>
        <time>2024-11-05T15:26:54Z</time>
      </trkpt>
      <trkpt lat="45.89695" lon="1.29555">
        <ele>329.7</ele>
        <time>2024-11-05T15:26:55Z</time>
      </trkpt>
      <trkpt lat="45.89691" lon="1.29553">
        <ele>329.7</ele>
        <time>2024-11-05T15:26:56Z</time>
      </trkpt>
      <trkpt lat="45.89688" lon="1.29551">
        <ele>329.6</ele>
        <time>2024-11-05T15:26:57Z</time>
      </trkpt>
      <trkpt lat="45.89683" lon="1.29549">
        <ele>329.6</ele>
        <time>2024-11-05T15:26:58Z</time>
      </trkpt>
      <trkpt lat="45.89679" lon="1.29548">
        <ele>329.6</ele>
        <time>2024-11-05T15:26:59Z</time>
      </trkpt>
      <trkpt lat="45.89674" lon="1.29547">
        <ele>329.6</ele>
        <time>2024-11-05T15:27:00Z</time>
      </trkpt>
      <trkpt lat="45.8967" lon="1.29545">
        <ele>329.6</ele>
        <time>2024-11-05T15:27:01Z</time>
      </trkpt>
      <trkpt lat="45.89666" lon="1.29544">
        <ele>329.6</ele>
        <time>2024-11-05T15:27:02Z</time>
      </trkpt>
      <trkpt lat="45.89662" lon="1.29543">
        <ele>329.6</ele>
        <time>2024-11-05T15:27:03Z</time>
      </trkpt>
      <trkpt lat="45.89658" lon="1.29541">
        <ele>329.6</ele>
        <time>2024-11-05T15:27:04Z</time>
      </trkpt>
      <trkpt lat="45.89655" lon="1.2954">
        <ele>329.6</ele>
        <time>2024-11-05T15:27:05Z</time>
      </trkpt>
      <trkpt lat="45.89651" lon="1.29539">
        <ele>329.6</ele>
        <time>2024-11-05T15:27:06Z</time>
      </trkpt>
      <trkpt lat="45.89647" lon="1.29538">
        <ele>329.6</ele>
        <time>2024-11-05T15:27:07Z</time>
      </trkpt>
      <trkpt lat="45.89644" lon="1.29537">
        <ele>329.6</ele>
        <time>2024-11-05T15:27:08Z</time>
      </trkpt>
      <trkpt lat="45.8964" lon="1.29536">
        <ele>329.6</ele>
        <time>2024-11-05T15:27:09Z</time>
      </trkpt>
      <trkpt lat="45.89636" lon="1.29534">
        <ele>329.6</ele>
        <time>2024-11-05T15:27:10Z</time>
      </trkpt>
      <trkpt lat="45.89633" lon="1.29532">
        <ele>329.6</ele>
        <time>2024-11-05T15:27:11Z</time>
      </trkpt>
      <trkpt lat="45.89629" lon="1.29531">
        <ele>329.6</ele>
        <time>2024-11-05T15:27:12Z</time>
      </trkpt>
      <trkpt lat="45.89626" lon="1.2953">
        <ele>329.7</ele>
        <time>2024-11-05T15:27:13Z</time>
      </trkpt>
      <trkpt lat="45.89622" lon="1.29528">
        <ele>329.7</ele>
        <time>2024-11-05T15:27:14Z</time>
      </trkpt>
      <trkpt lat="45.89618" lon="1.29527">
        <ele>329.7</ele>
        <time>2024-11-05T15:27:15Z</time>
      </trkpt>
      <trkpt lat="45.89615" lon="1.29526">
        <ele>329.8</ele>
        <time>2024-11-05T15:27:16Z</time>
      </trkpt>
      <trkpt lat="45.89611" lon="1.29525">
        <ele>329.8</ele>
        <time>2024-11-05T15:27:17Z</time>
      </trkpt>
      <trkpt lat="45.89607" lon="1.29524">
        <ele>329.9</ele>
        <time>2024-11-05T15:27:18Z</time>
      </trkpt>
      <trkpt lat="45.89603" lon="1.29523">
        <ele>330</ele>
        <time>2024-11-05T15:27:19Z</time>
      </trkpt>
      <trkpt lat="45.896" lon="1.29522">
        <ele>330</ele>
        <time>2024-11-05T15:27:20Z</time>
      </trkpt>
      <trkpt lat="45.89596" lon="1.29521">
        <ele>330.1</ele>
        <time>2024-11-05T15:27:21Z</time>
      </trkpt>
      <trkpt lat="45.89592" lon="1.2952">
        <ele>330.2</ele>
        <time>2024-11-05T15:27:22Z</time>
      </trkpt>
      <trkpt lat="45.89588" lon="1.29519">
        <ele>330.2</ele>
        <time>2024-11-05T15:27:23Z</time>
      </trkpt>
      <trkpt lat="45.89584" lon="1.29518">
        <ele>330.3</ele>
        <time>2024-11-05T15:27:24Z</time>
      </trkpt>
      <trkpt lat="45.8958" lon="1.29517">
        <ele>330.4</ele>
        <time>2024-11-05T15:27:25Z</time>
      </trkpt>
      <trkpt lat="45.89577" lon="1.29516">
        <ele>330.5</ele>
        <time>2024-11-05T15:27:26Z</time>
      </trkpt>
      <trkpt lat="45.89573" lon="1.29515">
        <ele>330.6</ele>
        <time>2024-11-05T15:27:27Z</time>
      </trkpt>
      <trkpt lat="45.8957" lon="1.29514">
        <ele>330.7</ele>
        <time>2024-11-05T15:27:28Z</time>
      </trkpt>
      <trkpt lat="45.89567" lon="1.29512">
        <ele>330.7</ele>
        <time>2024-11-05T15:27:29Z</time>
      </trkpt>
      <trkpt lat="45.89564" lon="1.29511">
        <ele>330.8</ele>
        <time>2024-11-05T15:27:30Z</time>
      </trkpt>
      <trkpt lat="45.8956" lon="1.29509">
        <ele>330.9</ele>
        <time>2024-11-05T15:27:31Z</time>
      </trkpt>
      <trkpt lat="45.89557" lon="1.29508">
        <ele>331</ele>
        <time>2024-11-05T15:27:32Z</time>
      </trkpt>
      <trkpt lat="45.89554" lon="1.29508">
        <ele>331</ele>
        <time>2024-11-05T15:27:33Z</time>
      </trkpt>
      <trkpt lat="45.8955" lon="1.29507">
        <ele>331.1</ele>
        <time>2024-11-05T15:27:34Z</time>
      </trkpt>
      <trkpt lat="45.89546" lon="1.29508">
        <ele>331.2</ele>
        <time>2024-11-05T15:27:35Z</time>
      </trkpt>
      <trkpt lat="45.89543" lon="1.29508">
        <ele>331.3</ele>
        <time>2024-11-05T15:27:36Z</time>
      </trkpt>
      <trkpt lat="45.89539" lon="1.29508">
        <ele>331.4</ele>
        <time>2024-11-05T15:27:37Z</time>
      </trkpt>
      <trkpt lat="45.89535" lon="1.29507">
        <ele>331.5</ele>
        <time>2024-11-05T15:27:38Z</time>
      </trkpt>
      <trkpt lat="45.89532" lon="1.29506">
        <ele>331.6</ele>
        <time>2024-11-05T15:27:39Z</time>
      </trkpt>
      <trkpt lat="45.89528" lon="1.29506">
        <ele>331.7</ele>
        <time>2024-11-05T15:27:40Z</time>
      </trkpt>
      <trkpt lat="45.89524" lon="1.29506">
        <ele>331.8</ele>
        <time>2024-11-05T15:27:41Z</time>
      </trkpt>
      <trkpt lat="45.8952" lon="1.29505">
        <ele>331.9</ele>
        <time>2024-11-05T15:27:42Z</time>
      </trkpt>
      <trkpt lat="45.89517" lon="1.29504">
        <ele>332</ele>
        <time>2024-11-05T15:27:43Z</time>
      </trkpt>
      <trkpt lat="45.89513" lon="1.29503">
        <ele>332.1</ele>
        <time>2024-11-05T15:27:44Z</time>
      </trkpt>
      <trkpt lat="45.89509" lon="1.29503">
        <ele>332.2</ele>
        <time>2024-11-05T15:27:45Z</time>
      </trkpt>
      <trkpt lat="45.89506" lon="1.29502">
        <ele>332.3</ele>
        <time>2024-11-05T15:27:46Z</time>
      </trkpt>
      <trkpt lat="45.89502" lon="1.29502">
        <ele>332.4</ele>
        <time>2024-11-05T15:27:47Z</time>
      </trkpt>
      <trkpt lat="45.89499" lon="1.29502">
        <ele>332.5</ele>
        <time>2024-11-05T15:27:48Z</time>
      </trkpt>
      <trkpt lat="45.89496" lon="1.29502">
        <ele>332.5</ele>
        <time>2024-11-05T15:27:49Z</time>
      </trkpt>
      <trkpt lat="45.89493" lon="1.29501">
        <ele>332.6</ele>
        <time>2024-11-05T15:27:50Z</time>
      </trkpt>
      <trkpt lat="45.89489" lon="1.29501">
        <ele>332.7</ele>
        <time>2024-11-05T15:27:51Z</time>
      </trkpt>
      <trkpt lat="45.89486" lon="1.29501">
        <ele>332.8</ele>
        <time>2024-11-05T15:27:52Z</time>
      </trkpt>
      <trkpt lat="45.89482" lon="1.29501">
        <ele>332.9</ele>
        <time>2024-11-05T15:27:53Z</time>
      </trkpt>
      <trkpt lat="45.89478" lon="1.29501">
        <ele>333</ele>
        <time>2024-11-05T15:27:54Z</time>
      </trkpt>
      <trkpt lat="45.89475" lon="1.29501">
        <ele>333</ele>
        <time>2024-11-05T15:27:55Z</time>
      </trkpt>
      <trkpt lat="45.89471" lon="1.295">
        <ele>333.1</ele>
        <time>2024-11-05T15:27:56Z</time>
      </trkpt>
      <trkpt lat="45.89467" lon="1.295">
        <ele>333.2</ele>
        <time>2024-11-05T15:27:57Z</time>
      </trkpt>
      <trkpt lat="45.89464" lon="1.29499">
        <ele>333.3</ele>
        <time>2024-11-05T15:27:58Z</time>
      </trkpt>
      <trkpt lat="45.8946" lon="1.29499">
        <ele>333.4</ele>
        <time>2024-11-05T15:27:59Z</time>
      </trkpt>
      <trkpt lat="45.89457" lon="1.29498">
        <ele>333.5</ele>
        <time>2024-11-05T15:28:01Z</time>
      </trkpt>
      <trkpt lat="45.89455" lon="1.29498">
        <ele>333.5</ele>
        <time>2024-11-05T15:28:07Z</time>
      </trkpt>
      <trkpt lat="45.89453" lon="1.295">
        <ele>333.6</ele>
        <time>2024-11-05T15:28:09Z</time>
      </trkpt>
      <trkpt lat="45.89452" lon="1.29506">
        <ele>333.7</ele>
        <time>2024-11-05T15:28:11Z</time>
      </trkpt>
      <trkpt lat="45.89452" lon="1.29512">
        <ele>333.6</ele>
        <time>2024-11-05T15:28:12Z</time>
      </trkpt>
      <trkpt lat="45.89453" lon="1.29518">
        <ele>333.5</ele>
        <time>2024-11-05T15:28:13Z</time>
      </trkpt>
      <trkpt lat="45.89455" lon="1.29523">
        <ele>333.4</ele>
        <time>2024-11-05T15:28:14Z</time>
      </trkpt>
      <trkpt lat="45.89456" lon="1.29528">
        <ele>333.3</ele>
        <time>2024-11-05T15:28:15Z</time>
      </trkpt>
      <trkpt lat="45.89458" lon="1.29535">
        <ele>333.2</ele>
        <time>2024-11-05T15:28:16Z</time>
      </trkpt>
      <trkpt lat="45.89458" lon="1.29542">
        <ele>333.2</ele>
        <time>2024-11-05T15:28:17Z</time>
      </trkpt>
      <trkpt lat="45.89457" lon="1.29548">
        <ele>333.1</ele>
        <time>2024-11-05T15:28:18Z</time>
      </trkpt>
      <trkpt lat="45.89454" lon="1.29553">
        <ele>333.1</ele>
        <time>2024-11-05T15:28:19Z</time>
      </trkpt>
      <trkpt lat="45.89451" lon="1.29558">
        <ele>333.1</ele>
        <time>2024-11-05T15:28:20Z</time>
      </trkpt>
      <trkpt lat="45.89447" lon="1.2956">
        <ele>333.1</ele>
        <time>2024-11-05T15:28:21Z</time>
      </trkpt>
      <trkpt lat="45.89443" lon="1.29561">
        <ele>333.1</ele>
        <time>2024-11-05T15:28:22Z</time>
      </trkpt>
      <trkpt lat="45.89439" lon="1.29562">
        <ele>333.2</ele>
        <time>2024-11-05T15:28:23Z</time>
      </trkpt>
      <trkpt lat="45.89436" lon="1.29563">
        <ele>333.2</ele>
        <time>2024-11-05T15:28:24Z</time>
      </trkpt>
      <trkpt lat="45.89432" lon="1.29565">
        <ele>333.2</ele>
        <time>2024-11-05T15:28:26Z</time>
      </trkpt>
      <trkpt lat="45.8943" lon="1.2957">
        <ele>333.1</ele>
        <time>2024-11-05T15:28:28Z</time>
      </trkpt>
      <trkpt lat="45.89429" lon="1.29576">
        <ele>333.1</ele>
        <time>2024-11-05T15:28:29Z</time>
      </trkpt>
      <trkpt lat="45.89429" lon="1.29582">
        <ele>333</ele>
        <time>2024-11-05T15:28:30Z</time>
      </trkpt>
      <trkpt lat="45.89429" lon="1.29587">
        <ele>332.9</ele>
        <time>2024-11-05T15:28:31Z</time>
      </trkpt>
      <trkpt lat="45.8943" lon="1.29593">
        <ele>332.9</ele>
        <time>2024-11-05T15:28:32Z</time>
      </trkpt>
      <trkpt lat="45.8943" lon="1.29598">
        <ele>332.8</ele>
        <time>2024-11-05T15:28:33Z</time>
      </trkpt>
      <trkpt lat="45.89431" lon="1.29604">
        <ele>332.7</ele>
        <time>2024-11-05T15:28:34Z</time>
      </trkpt>
      <trkpt lat="45.89431" lon="1.2961">
        <ele>332.7</ele>
        <time>2024-11-05T15:28:35Z</time>
      </trkpt>
      <trkpt lat="45.89432" lon="1.29616">
        <ele>332.6</ele>
        <time>2024-11-05T15:28:36Z</time>
      </trkpt>
      <trkpt lat="45.89432" lon="1.29621">
        <ele>332.6</ele>
        <time>2024-11-05T15:28:37Z</time>
      </trkpt>
      <trkpt lat="45.89433" lon="1.29626">
        <ele>332.5</ele>
        <time>2024-11-05T15:28:38Z</time>
      </trkpt>
      <trkpt lat="45.89433" lon="1.29632">
        <ele>332.5</ele>
        <time>2024-11-05T15:28:39Z</time>
      </trkpt>
      <trkpt lat="45.89434" lon="1.29636">
        <ele>332.4</ele>
        <time>2024-11-05T15:28:40Z</time>
      </trkpt>
      <trkpt lat="45.89434" lon="1.29641">
        <ele>332.4</ele>
        <time>2024-11-05T15:28:41Z</time>
      </trkpt>
      <trkpt lat="45.89434" lon="1.29646">
        <ele>332.3</ele>
        <time>2024-11-05T15:28:42Z</time>
      </trkpt>
      <trkpt lat="45.89434" lon="1.2965">
        <ele>332.3</ele>
        <time>2024-11-05T15:28:43Z</time>
      </trkpt>
      <trkpt lat="45.89435" lon="1.29654">
        <ele>332.2</ele>
        <time>2024-11-05T15:28:44Z</time>
      </trkpt>
      <trkpt lat="45.89435" lon="1.29658">
        <ele>332.2</ele>
        <time>2024-11-05T15:28:45Z</time>
      </trkpt>
      <trkpt lat="45.89436" lon="1.29665">
        <ele>332.1</ele>
        <time>2024-11-05T15:28:47Z</time>
      </trkpt>
      <trkpt lat="45.89436" lon="1.29671">
        <ele>332</ele>
        <time>2024-11-05T15:28:48Z</time>
      </trkpt>
      <trkpt lat="45.89436" lon="1.29676">
        <ele>331.9</ele>
        <time>2024-11-05T15:28:49Z</time>
      </trkpt>
      <trkpt lat="45.89436" lon="1.29682">
        <ele>331.8</ele>
        <time>2024-11-05T15:28:50Z</time>
      </trkpt>
      <trkpt lat="45.89436" lon="1.29688">
        <ele>331.8</ele>
        <time>2024-11-05T15:28:51Z</time>
      </trkpt>
      <trkpt lat="45.89436" lon="1.29694">
        <ele>331.7</ele>
        <time>2024-11-05T15:28:52Z</time>
      </trkpt>
      <trkpt lat="45.89437" lon="1.297">
        <ele>331.6</ele>
        <time>2024-11-05T15:28:53Z</time>
      </trkpt>
      <trkpt lat="45.89437" lon="1.29707">
        <ele>331.5</ele>
        <time>2024-11-05T15:28:54Z</time>
      </trkpt>
      <trkpt lat="45.89438" lon="1.29714">
        <ele>331.4</ele>
        <time>2024-11-05T15:28:55Z</time>
      </trkpt>
      <trkpt lat="45.89439" lon="1.29721">
        <ele>331.3</ele>
        <time>2024-11-05T15:28:56Z</time>
      </trkpt>
      <trkpt lat="45.89439" lon="1.29727">
        <ele>331.2</ele>
        <time>2024-11-05T15:28:57Z</time>
      </trkpt>
      <trkpt lat="45.8944" lon="1.29734">
        <ele>331.1</ele>
        <time>2024-11-05T15:28:58Z</time>
      </trkpt>
      <trkpt lat="45.89441" lon="1.2974">
        <ele>331.1</ele>
        <time>2024-11-05T15:28:59Z</time>
      </trkpt>
      <trkpt lat="45.89441" lon="1.29746">
        <ele>331</ele>
        <time>2024-11-05T15:29:00Z</time>
      </trkpt>
      <trkpt lat="45.89442" lon="1.29752">
        <ele>330.9</ele>
        <time>2024-11-05T15:29:01Z</time>
      </trkpt>
      <trkpt lat="45.89442" lon="1.29758">
        <ele>330.8</ele>
        <time>2024-11-05T15:29:02Z</time>
      </trkpt>
      <trkpt lat="45.89442" lon="1.29764">
        <ele>330.7</ele>
        <time>2024-11-05T15:29:03Z</time>
      </trkpt>
      <trkpt lat="45.89442" lon="1.2977">
        <ele>330.6</ele>
        <time>2024-11-05T15:29:04Z</time>
      </trkpt>
      <trkpt lat="45.89442" lon="1.29775">
        <ele>330.5</ele>
        <time>2024-11-05T15:29:05Z</time>
      </trkpt>
      <trkpt lat="45.89441" lon="1.29781">
        <ele>330.4</ele>
        <time>2024-11-05T15:29:06Z</time>
      </trkpt>
      <trkpt lat="45.89439" lon="1.29786">
        <ele>330.3</ele>
        <time>2024-11-05T15:29:07Z</time>
      </trkpt>
      <trkpt lat="45.89436" lon="1.2979">
        <ele>330.2</ele>
        <time>2024-11-05T15:29:08Z</time>
      </trkpt>
      <trkpt lat="45.89433" lon="1.29793">
        <ele>329.5</ele>
        <time>2024-11-05T15:29:09Z</time>
      </trkpt>
      <trkpt lat="45.89429" lon="1.29794">
        <ele>329.4</ele>
        <time>2024-11-05T15:29:10Z</time>
      </trkpt>
      <trkpt lat="45.89426" lon="1.29794">
        <ele>329.3</ele>
        <time>2024-11-05T15:29:11Z</time>
      </trkpt>
      <trkpt lat="45.89423" lon="1.29793">
        <ele>329.3</ele>
        <time>2024-11-05T15:29:12Z</time>
      </trkpt>
      <trkpt lat="45.89419" lon="1.29792">
        <ele>329.2</ele>
        <time>2024-11-05T15:29:13Z</time>
      </trkpt>
      <trkpt lat="45.89416" lon="1.2979">
        <ele>329.2</ele>
        <time>2024-11-05T15:29:14Z</time>
      </trkpt>
      <trkpt lat="45.89413" lon="1.29789">
        <ele>329.1</ele>
        <time>2024-11-05T15:29:15Z</time>
      </trkpt>
      <trkpt lat="45.8941" lon="1.29788">
        <ele>329.1</ele>
        <time>2024-11-05T15:29:16Z</time>
      </trkpt>
      <trkpt lat="45.89407" lon="1.29786">
        <ele>329</ele>
        <time>2024-11-05T15:29:17Z</time>
      </trkpt>
      <trkpt lat="45.89404" lon="1.29784">
        <ele>329</ele>
        <time>2024-11-05T15:29:18Z</time>
      </trkpt>
      <trkpt lat="45.89401" lon="1.29782">
        <ele>328.9</ele>
        <time>2024-11-05T15:29:19Z</time>
      </trkpt>
      <trkpt lat="45.89399" lon="1.2978">
        <ele>328.9</ele>
        <time>2024-11-05T15:29:20Z</time>
      </trkpt>
      <trkpt lat="45.89396" lon="1.29779">
        <ele>328.8</ele>
        <time>2024-11-05T15:29:21Z</time>
      </trkpt>
      <trkpt lat="45.89392" lon="1.29776">
        <ele>328.8</ele>
        <time>2024-11-05T15:29:23Z</time>
      </trkpt>
      <trkpt lat="45.89388" lon="1.29773">
        <ele>328.7</ele>
        <time>2024-11-05T15:29:25Z</time>
      </trkpt>
      <trkpt lat="45.89385" lon="1.2977">
        <ele>328.6</ele>
        <time>2024-11-05T15:29:27Z</time>
      </trkpt>
      <trkpt lat="45.89381" lon="1.29768">
        <ele>328.6</ele>
        <time>2024-11-05T15:29:29Z</time>
      </trkpt>
      <trkpt lat="45.89378" lon="1.29768">
        <ele>328.6</ele>
        <time>2024-11-05T15:29:44Z</time>
      </trkpt>
      <trkpt lat="45.89375" lon="1.2977">
        <ele>328.6</ele>
        <time>2024-11-05T15:29:46Z</time>
      </trkpt>
      <trkpt lat="45.89374" lon="1.29774">
        <ele>328.6</ele>
        <time>2024-11-05T15:29:48Z</time>
      </trkpt>
      <trkpt lat="45.89375" lon="1.29776">
        <ele>328.6</ele>
        <time>2024-11-05T15:29:50Z</time>
      </trkpt>
      <trkpt lat="45.89377" lon="1.29774">
        <ele>328.6</ele>
        <time>2024-11-05T15:29:52Z</time>
      </trkpt>
      <trkpt lat="45.89376" lon="1.29772">
        <ele>328.6</ele>
        <time>2024-11-05T15:29:54Z</time>
      </trkpt>
      <trkpt lat="45.89374" lon="1.29773">
        <ele>328.6</ele>
        <time>2024-11-05T15:29:56Z</time>
      </trkpt>
      <trkpt lat="45.89375" lon="1.29776">
        <ele>328.6</ele>
        <time>2024-11-05T15:29:58Z</time>
      </trkpt>
      <trkpt lat="45.89377" lon="1.29776">
        <ele>328.6</ele>
        <time>2024-11-05T15:30:00Z</time>
      </trkpt>
      <trkpt lat="45.89381" lon="1.29776">
        <ele>328.6</ele>
        <time>2024-11-05T15:30:02Z</time>
      </trkpt>
      <trkpt lat="45.89385" lon="1.29777">
        <ele>328.7</ele>
        <time>2024-11-05T15:30:04Z</time>
      </trkpt>
      <trkpt lat="45.89388" lon="1.29781">
        <ele>328.7</ele>
        <time>2024-11-05T15:30:06Z</time>
      </trkpt>
      <trkpt lat="45.89393" lon="1.29784">
        <ele>328.8</ele>
        <time>2024-11-05T15:30:08Z</time>
      </trkpt>
      <trkpt lat="45.89397" lon="1.29786">
        <ele>328.9</ele>
        <time>2024-11-05T15:30:10Z</time>
      </trkpt>
      <trkpt lat="45.89401" lon="1.29787">
        <ele>328.9</ele>
        <time>2024-11-05T15:30:11Z</time>
      </trkpt>
      <trkpt lat="45.89404" lon="1.29789">
        <ele>329</ele>
        <time>2024-11-05T15:30:12Z</time>
      </trkpt>
      <trkpt lat="45.89408" lon="1.2979">
        <ele>329</ele>
        <time>2024-11-05T15:30:13Z</time>
      </trkpt>
      <trkpt lat="45.89411" lon="1.29792">
        <ele>329.1</ele>
        <time>2024-11-05T15:30:14Z</time>
      </trkpt>
      <trkpt lat="45.89414" lon="1.29795">
        <ele>329.1</ele>
        <time>2024-11-05T15:30:15Z</time>
      </trkpt>
      <trkpt lat="45.89417" lon="1.29797">
        <ele>329.2</ele>
        <time>2024-11-05T15:30:16Z</time>
      </trkpt>
      <trkpt lat="45.89421" lon="1.298">
        <ele>329.2</ele>
        <time>2024-11-05T15:30:17Z</time>
      </trkpt>
      <trkpt lat="45.89424" lon="1.29802">
        <ele>329.3</ele>
        <time>2024-11-05T15:30:18Z</time>
      </trkpt>
      <trkpt lat="45.89427" lon="1.29804">
        <ele>329.3</ele>
        <time>2024-11-05T15:30:19Z</time>
      </trkpt>
      <trkpt lat="45.8943" lon="1.29807">
        <ele>329.4</ele>
        <time>2024-11-05T15:30:21Z</time>
      </trkpt>
      <trkpt lat="45.89433" lon="1.29811">
        <ele>329.4</ele>
        <time>2024-11-05T15:30:24Z</time>
      </trkpt>
      <trkpt lat="45.89436" lon="1.29813">
        <ele>329.5</ele>
        <time>2024-11-05T15:30:26Z</time>
      </trkpt>
      <trkpt lat="45.8944" lon="1.29813">
        <ele>329.7</ele>
        <time>2024-11-05T15:30:28Z</time>
      </trkpt>
      <trkpt lat="45.89442" lon="1.29808">
        <ele>329.9</ele>
        <time>2024-11-05T15:30:30Z</time>
      </trkpt>
      <trkpt lat="45.89444" lon="1.29803">
        <ele>330.2</ele>
        <time>2024-11-05T15:30:31Z</time>
      </trkpt>
      <trkpt lat="45.89444" lon="1.29798">
        <ele>330.3</ele>
        <time>2024-11-05T15:30:32Z</time>
      </trkpt>
      <trkpt lat="45.89445" lon="1.29793">
        <ele>330.4</ele>
        <time>2024-11-05T15:30:33Z</time>
      </trkpt>
      <trkpt lat="45.89445" lon="1.29788">
        <ele>330.5</ele>
        <time>2024-11-05T15:30:34Z</time>
      </trkpt>
      <trkpt lat="45.89446" lon="1.29782">
        <ele>330.6</ele>
        <time>2024-11-05T15:30:35Z</time>
      </trkpt>
      <trkpt lat="45.89446" lon="1.29777">
        <ele>330.7</ele>
        <time>2024-11-05T15:30:36Z</time>
      </trkpt>
      <trkpt lat="45.89446" lon="1.29772">
        <ele>330.7</ele>
        <time>2024-11-05T15:30:37Z</time>
      </trkpt>
      <trkpt lat="45.89446" lon="1.29766">
        <ele>330.8</ele>
        <time>2024-11-05T15:30:38Z</time>
      </trkpt>
      <trkpt lat="45.89445" lon="1.29761">
        <ele>330.9</ele>
        <time>2024-11-05T15:30:39Z</time>
      </trkpt>
      <trkpt lat="45.89445" lon="1.29755">
        <ele>331</ele>
        <time>2024-11-05T15:30:40Z</time>
      </trkpt>
      <trkpt lat="45.89445" lon="1.29749">
        <ele>331</ele>
        <time>2024-11-05T15:30:41Z</time>
      </trkpt>
      <trkpt lat="45.89445" lon="1.29744">
        <ele>331.1</ele>
        <time>2024-11-05T15:30:42Z</time>
      </trkpt>
      <trkpt lat="45.89445" lon="1.29739">
        <ele>331.2</ele>
        <time>2024-11-05T15:30:43Z</time>
      </trkpt>
      <trkpt lat="45.89444" lon="1.29734">
        <ele>331.2</ele>
        <time>2024-11-05T15:30:44Z</time>
      </trkpt>
      <trkpt lat="45.89443" lon="1.29728">
        <ele>331.3</ele>
        <time>2024-11-05T15:30:45Z</time>
      </trkpt>
      <trkpt lat="45.89443" lon="1.29722">
        <ele>331.4</ele>
        <time>2024-11-05T15:30:46Z</time>
      </trkpt>
      <trkpt lat="45.89443" lon="1.29716">
        <ele>331.5</ele>
        <time>2024-11-05T15:30:47Z</time>
      </trkpt>
      <trkpt lat="45.89443" lon="1.2971">
        <ele>331.5</ele>
        <time>2024-11-05T15:30:48Z</time>
      </trkpt>
      <trkpt lat="45.89443" lon="1.29703">
        <ele>331.6</ele>
        <time>2024-11-05T15:30:49Z</time>
      </trkpt>
      <trkpt lat="45.89442" lon="1.29697">
        <ele>331.7</ele>
        <time>2024-11-05T15:30:50Z</time>
      </trkpt>
      <trkpt lat="45.89442" lon="1.29691">
        <ele>331.8</ele>
        <time>2024-11-05T15:30:51Z</time>
      </trkpt>
      <trkpt lat="45.89441" lon="1.29684">
        <ele>331.9</ele>
        <time>2024-11-05T15:30:52Z</time>
      </trkpt>
      <trkpt lat="45.8944" lon="1.29677">
        <ele>332</ele>
        <time>2024-11-05T15:30:53Z</time>
      </trkpt>
      <trkpt lat="45.89439" lon="1.2967">
        <ele>332.1</ele>
        <time>2024-11-05T15:30:54Z</time>
      </trkpt>
      <trkpt lat="45.89438" lon="1.29664">
        <ele>332.1</ele>
        <time>2024-11-05T15:30:55Z</time>
      </trkpt>
      <trkpt lat="45.89438" lon="1.29657">
        <ele>332.2</ele>
        <time>2024-11-05T15:30:56Z</time>
      </trkpt>
      <trkpt lat="45.89437" lon="1.29651">
        <ele>332.3</ele>
        <time>2024-11-05T15:30:57Z</time>
      </trkpt>
      <trkpt lat="45.89437" lon="1.29645">
        <ele>332.4</ele>
        <time>2024-11-05T15:30:58Z</time>
      </trkpt>
      <trkpt lat="45.89436" lon="1.29638">
        <ele>332.5</ele>
        <time>2024-11-05T15:30:59Z</time>
      </trkpt>
      <trkpt lat="45.89436" lon="1.29632">
        <ele>332.5</ele>
        <time>2024-11-05T15:31:00Z</time>
      </trkpt>
      <trkpt lat="45.89435" lon="1.29625">
        <ele>332.6</ele>
        <time>2024-11-05T15:31:01Z</time>
      </trkpt>
      <trkpt lat="45.89434" lon="1.29619">
        <ele>332.6</ele>
        <time>2024-11-05T15:31:02Z</time>
      </trkpt>
      <trkpt lat="45.89433" lon="1.29613">
        <ele>332.7</ele>
        <time>2024-11-05T15:31:03Z</time>
      </trkpt>
      <trkpt lat="45.89433" lon="1.29607">
        <ele>332.7</ele>
        <time>2024-11-05T15:31:04Z</time>
      </trkpt>
      <trkpt lat="45.89432" lon="1.296">
        <ele>332.8</ele>
        <time>2024-11-05T15:31:05Z</time>
      </trkpt>
      <trkpt lat="45.89431" lon="1.29594">
        <ele>332.9</ele>
        <time>2024-11-05T15:31:06Z</time>
      </trkpt>
      <trkpt lat="45.89431" lon="1.29588">
        <ele>332.9</ele>
        <time>2024-11-05T15:31:07Z</time>
      </trkpt>
      <trkpt lat="45.8943" lon="1.29582">
        <ele>333</ele>
        <time>2024-11-05T15:31:08Z</time>
      </trkpt>
      <trkpt lat="45.8943" lon="1.29577">
        <ele>333.1</ele>
        <time>2024-11-05T15:31:09Z</time>
      </trkpt>
      <trkpt lat="45.8943" lon="1.29572">
        <ele>333.1</ele>
        <time>2024-11-05T15:31:10Z</time>
      </trkpt>
      <trkpt lat="45.8943" lon="1.29567">
        <ele>333.2</ele>
        <time>2024-11-05T15:31:11Z</time>
      </trkpt>
      <trkpt lat="45.8943" lon="1.29563">
        <ele>333.2</ele>
        <time>2024-11-05T15:31:12Z</time>
      </trkpt>
      <trkpt lat="45.8943" lon="1.29558">
        <ele>333.2</ele>
        <time>2024-11-05T15:31:13Z</time>
      </trkpt>
      <trkpt lat="45.8943" lon="1.29553">
        <ele>333.2</ele>
        <time>2024-11-05T15:31:14Z</time>
      </trkpt>
      <trkpt lat="45.8943" lon="1.29547">
        <ele>333.2</ele>
        <time>2024-11-05T15:31:15Z</time>
      </trkpt>
      <trkpt lat="45.8943" lon="1.29542">
        <ele>333.2</ele>
        <time>2024-11-05T15:31:16Z</time>
      </trkpt>
      <trkpt lat="45.89429" lon="1.29537">
        <ele>333.2</ele>
        <time>2024-11-05T15:31:17Z</time>
      </trkpt>
      <trkpt lat="45.89429" lon="1.29532">
        <ele>333.2</ele>
        <time>2024-11-05T15:31:18Z</time>
      </trkpt>
      <trkpt lat="45.89428" lon="1.29527">
        <ele>333.2</ele>
        <time>2024-11-05T15:31:19Z</time>
      </trkpt>
      <trkpt lat="45.89427" lon="1.29522">
        <ele>333.2</ele>
        <time>2024-11-05T15:31:20Z</time>
      </trkpt>
      <trkpt lat="45.89427" lon="1.29515">
        <ele>333.3</ele>
        <time>2024-11-05T15:31:21Z</time>
      </trkpt>
      <trkpt lat="45.89424" lon="1.29506">
        <ele>333.3</ele>
        <time>2024-11-05T15:31:22Z</time>
      </trkpt>
      <trkpt lat="45.89423" lon="1.29499">
        <ele>333.4</ele>
        <time>2024-11-05T15:31:23Z</time>
      </trkpt>
      <trkpt lat="45.89423" lon="1.29493">
        <ele>333.4</ele>
        <time>2024-11-05T15:31:24Z</time>
      </trkpt>
      <trkpt lat="45.89423" lon="1.29487">
        <ele>333.4</ele>
        <time>2024-11-05T15:31:25Z</time>
      </trkpt>
      <trkpt lat="45.89423" lon="1.29482">
        <ele>333.5</ele>
        <time>2024-11-05T15:31:26Z</time>
      </trkpt>
      <trkpt lat="45.89423" lon="1.29476">
        <ele>333.6</ele>
        <time>2024-11-05T15:31:27Z</time>
      </trkpt>
      <trkpt lat="45.89423" lon="1.2947">
        <ele>333.6</ele>
        <time>2024-11-05T15:31:28Z</time>
      </trkpt>
      <trkpt lat="45.89422" lon="1.29464">
        <ele>333.7</ele>
        <time>2024-11-05T15:31:29Z</time>
      </trkpt>
      <trkpt lat="45.89422" lon="1.29459">
        <ele>333.8</ele>
        <time>2024-11-05T15:31:30Z</time>
      </trkpt>
      <trkpt lat="45.89421" lon="1.29453">
        <ele>333.9</ele>
        <time>2024-11-05T15:31:31Z</time>
      </trkpt>
      <trkpt lat="45.89421" lon="1.29447">
        <ele>334</ele>
        <time>2024-11-05T15:31:32Z</time>
      </trkpt>
      <trkpt lat="45.8942" lon="1.29442">
        <ele>334.1</ele>
        <time>2024-11-05T15:31:33Z</time>
      </trkpt>
      <trkpt lat="45.89419" lon="1.29436">
        <ele>334.2</ele>
        <time>2024-11-05T15:31:34Z</time>
      </trkpt>
      <trkpt lat="45.89417" lon="1.29431">
        <ele>334.4</ele>
        <time>2024-11-05T15:31:35Z</time>
      </trkpt>
      <trkpt lat="45.89415" lon="1.29426">
        <ele>334.5</ele>
        <time>2024-11-05T15:31:36Z</time>
      </trkpt>
      <trkpt lat="45.89413" lon="1.29422">
        <ele>334.6</ele>
        <time>2024-11-05T15:31:37Z</time>
      </trkpt>
      <trkpt lat="45.8941" lon="1.29418">
        <ele>334.7</ele>
        <time>2024-11-05T15:31:38Z</time>
      </trkpt>
      <trkpt lat="45.89406" lon="1.29414">
        <ele>334.8</ele>
        <time>2024-11-05T15:31:39Z</time>
      </trkpt>
      <trkpt lat="45.89403" lon="1.29412">
        <ele>334.9</ele>
        <time>2024-11-05T15:31:40Z</time>
      </trkpt>
      <trkpt lat="45.89399" lon="1.29409">
        <ele>335</ele>
        <time>2024-11-05T15:31:41Z</time>
      </trkpt>
      <trkpt lat="45.89395" lon="1.29407">
        <ele>335.1</ele>
        <time>2024-11-05T15:31:42Z</time>
      </trkpt>
      <trkpt lat="45.89391" lon="1.29405">
        <ele>335.1</ele>
        <time>2024-11-05T15:31:43Z</time>
      </trkpt>
      <trkpt lat="45.89387" lon="1.29403">
        <ele>335.2</ele>
        <time>2024-11-05T15:31:44Z</time>
      </trkpt>
      <trkpt lat="45.89382" lon="1.29403">
        <ele>335.2</ele>
        <time>2024-11-05T15:31:45Z</time>
      </trkpt>
      <trkpt lat="45.89377" lon="1.29402">
        <ele>335.3</ele>
        <time>2024-11-05T15:31:46Z</time>
      </trkpt>
      <trkpt lat="45.89372" lon="1.294">
        <ele>335.3</ele>
        <time>2024-11-05T15:31:47Z</time>
      </trkpt>
      <trkpt lat="45.89367" lon="1.294">
        <ele>335.3</ele>
        <time>2024-11-05T15:31:48Z</time>
      </trkpt>
      <trkpt lat="45.89363" lon="1.29399">
        <ele>335.3</ele>
        <time>2024-11-05T15:31:49Z</time>
      </trkpt>
      <trkpt lat="45.89358" lon="1.29398">
        <ele>335.4</ele>
        <time>2024-11-05T15:31:50Z</time>
      </trkpt>
      <trkpt lat="45.89353" lon="1.29397">
        <ele>335.4</ele>
        <time>2024-11-05T15:31:51Z</time>
      </trkpt>
      <trkpt lat="45.89349" lon="1.29395">
        <ele>335.4</ele>
        <time>2024-11-05T15:31:52Z</time>
      </trkpt>
      <trkpt lat="45.89344" lon="1.29394">
        <ele>335.3</ele>
        <time>2024-11-05T15:31:53Z</time>
      </trkpt>
      <trkpt lat="45.89339" lon="1.29393">
        <ele>335.3</ele>
        <time>2024-11-05T15:31:54Z</time>
      </trkpt>
      <trkpt lat="45.89334" lon="1.29391">
        <ele>335.3</ele>
        <time>2024-11-05T15:31:55Z</time>
      </trkpt>
      <trkpt lat="45.89329" lon="1.29391">
        <ele>335.3</ele>
        <time>2024-11-05T15:31:56Z</time>
      </trkpt>
      <trkpt lat="45.89325" lon="1.29389">
        <ele>335.3</ele>
        <time>2024-11-05T15:31:57Z</time>
      </trkpt>
      <trkpt lat="45.8932" lon="1.29388">
        <ele>335.3</ele>
        <time>2024-11-05T15:31:58Z</time>
      </trkpt>
      <trkpt lat="45.89315" lon="1.29387">
        <ele>335.2</ele>
        <time>2024-11-05T15:31:59Z</time>
      </trkpt>
      <trkpt lat="45.8931" lon="1.29385">
        <ele>335.2</ele>
        <time>2024-11-05T15:32:00Z</time>
      </trkpt>
      <trkpt lat="45.89305" lon="1.29383">
        <ele>335.1</ele>
        <time>2024-11-05T15:32:01Z</time>
      </trkpt>
      <trkpt lat="45.89299" lon="1.29382">
        <ele>335.1</ele>
        <time>2024-11-05T15:32:02Z</time>
      </trkpt>
      <trkpt lat="45.89294" lon="1.29379">
        <ele>335</ele>
        <time>2024-11-05T15:32:03Z</time>
      </trkpt>
      <trkpt lat="45.89288" lon="1.29378">
        <ele>335</ele>
        <time>2024-11-05T15:32:04Z</time>
      </trkpt>
      <trkpt lat="45.89283" lon="1.29376">
        <ele>335</ele>
        <time>2024-11-05T15:32:05Z</time>
      </trkpt>
      <trkpt lat="45.89278" lon="1.29374">
        <ele>334.9</ele>
        <time>2024-11-05T15:32:06Z</time>
      </trkpt>
      <trkpt lat="45.89273" lon="1.29373">
        <ele>334.8</ele>
        <time>2024-11-05T15:32:07Z</time>
      </trkpt>
      <trkpt lat="45.89268" lon="1.29371">
        <ele>334.8</ele>
        <time>2024-11-05T15:32:08Z</time>
      </trkpt>
      <trkpt lat="45.89264" lon="1.2937">
        <ele>334.7</ele>
        <time>2024-11-05T15:32:09Z</time>
      </trkpt>
      <trkpt lat="45.89259" lon="1.29369">
        <ele>334.7</ele>
        <time>2024-11-05T15:32:10Z</time>
      </trkpt>
      <trkpt lat="45.89255" lon="1.29367">
        <ele>334.6</ele>
        <time>2024-11-05T15:32:11Z</time>
      </trkpt>
      <trkpt lat="45.89252" lon="1.29367">
        <ele>334.6</ele>
        <time>2024-11-05T15:32:12Z</time>
      </trkpt>
      <trkpt lat="45.89249" lon="1.29366">
        <ele>334.6</ele>
        <time>2024-11-05T15:32:14Z</time>
      </trkpt>
      <trkpt lat="45.89245" lon="1.29363">
        <ele>334.5</ele>
        <time>2024-11-05T15:32:31Z</time>
      </trkpt>
      <trkpt lat="45.8924" lon="1.29361">
        <ele>334.5</ele>
        <time>2024-11-05T15:32:33Z</time>
      </trkpt>
      <trkpt lat="45.89236" lon="1.2936">
        <ele>334.4</ele>
        <time>2024-11-05T15:32:34Z</time>
      </trkpt>
      <trkpt lat="45.89232" lon="1.29359">
        <ele>334.4</ele>
        <time>2024-11-05T15:32:35Z</time>
      </trkpt>
      <trkpt lat="45.89229" lon="1.29358">
        <ele>334.3</ele>
        <time>2024-11-05T15:32:36Z</time>
      </trkpt>
      <trkpt lat="45.89225" lon="1.29358">
        <ele>334.3</ele>
        <time>2024-11-05T15:32:37Z</time>
      </trkpt>
      <trkpt lat="45.89221" lon="1.29357">
        <ele>334.2</ele>
        <time>2024-11-05T15:32:38Z</time>
      </trkpt>
      <trkpt lat="45.89217" lon="1.29357">
        <ele>334.2</ele>
        <time>2024-11-05T15:32:39Z</time>
      </trkpt>
      <trkpt lat="45.89213" lon="1.29356">
        <ele>334.1</ele>
        <time>2024-11-05T15:32:40Z</time>
      </trkpt>
      <trkpt lat="45.89208" lon="1.29355">
        <ele>334.1</ele>
        <time>2024-11-05T15:32:41Z</time>
      </trkpt>
      <trkpt lat="45.89203" lon="1.29354">
        <ele>334</ele>
        <time>2024-11-05T15:32:42Z</time>
      </trkpt>
      <trkpt lat="45.89199" lon="1.29353">
        <ele>333.9</ele>
        <time>2024-11-05T15:32:43Z</time>
      </trkpt>
      <trkpt lat="45.89195" lon="1.29352">
        <ele>333.9</ele>
        <time>2024-11-05T15:32:44Z</time>
      </trkpt>
      <trkpt lat="45.8919" lon="1.29351">
        <ele>333.8</ele>
        <time>2024-11-05T15:32:45Z</time>
      </trkpt>
      <trkpt lat="45.89186" lon="1.29349">
        <ele>333.8</ele>
        <time>2024-11-05T15:32:46Z</time>
      </trkpt>
      <trkpt lat="45.89182" lon="1.29347">
        <ele>333.7</ele>
        <time>2024-11-05T15:32:47Z</time>
      </trkpt>
      <trkpt lat="45.89178" lon="1.29346">
        <ele>333.7</ele>
        <time>2024-11-05T15:32:48Z</time>
      </trkpt>
      <trkpt lat="45.89174" lon="1.29345">
        <ele>333.6</ele>
        <time>2024-11-05T15:32:49Z</time>
      </trkpt>
      <trkpt lat="45.8917" lon="1.29344">
        <ele>333.6</ele>
        <time>2024-11-05T15:32:50Z</time>
      </trkpt>
      <trkpt lat="45.89166" lon="1.29343">
        <ele>333.5</ele>
        <time>2024-11-05T15:32:51Z</time>
      </trkpt>
      <trkpt lat="45.89162" lon="1.29343">
        <ele>333.5</ele>
        <time>2024-11-05T15:32:52Z</time>
      </trkpt>
      <trkpt lat="45.89158" lon="1.29343">
        <ele>333.4</ele>
        <time>2024-11-05T15:32:53Z</time>
      </trkpt>
      <trkpt lat="45.89154" lon="1.29343">
        <ele>333.3</ele>
        <time>2024-11-05T15:32:54Z</time>
      </trkpt>
      <trkpt lat="45.8915" lon="1.29343">
        <ele>333.3</ele>
        <time>2024-11-05T15:32:55Z</time>
      </trkpt>
      <trkpt lat="45.89146" lon="1.29343">
        <ele>333.2</ele>
        <time>2024-11-05T15:32:56Z</time>
      </trkpt>
      <trkpt lat="45.89143" lon="1.29343">
        <ele>333.2</ele>
        <time>2024-11-05T15:32:57Z</time>
      </trkpt>
      <trkpt lat="45.8914" lon="1.29344">
        <ele>333.1</ele>
        <time>2024-11-05T15:32:58Z</time>
      </trkpt>
      <trkpt lat="45.89137" lon="1.29346">
        <ele>333.1</ele>
        <time>2024-11-05T15:32:59Z</time>
      </trkpt>
      <trkpt lat="45.89135" lon="1.29349">
        <ele>333</ele>
        <time>2024-11-05T15:33:00Z</time>
      </trkpt>
      <trkpt lat="45.89134" lon="1.29353">
        <ele>332.9</ele>
        <time>2024-11-05T15:33:01Z</time>
      </trkpt>
      <trkpt lat="45.89133" lon="1.29357">
        <ele>332.8</ele>
        <time>2024-11-05T15:33:02Z</time>
      </trkpt>
      <trkpt lat="45.89133" lon="1.29362">
        <ele>332.8</ele>
        <time>2024-11-05T15:33:03Z</time>
      </trkpt>
      <trkpt lat="45.89134" lon="1.29368">
        <ele>332.8</ele>
        <time>2024-11-05T15:33:04Z</time>
      </trkpt>
      <trkpt lat="45.89134" lon="1.29373">
        <ele>332.7</ele>
        <time>2024-11-05T15:33:05Z</time>
      </trkpt>
      <trkpt lat="45.89135" lon="1.29378">
        <ele>332.7</ele>
        <time>2024-11-05T15:33:06Z</time>
      </trkpt>
      <trkpt lat="45.89135" lon="1.29384">
        <ele>332.7</ele>
        <time>2024-11-05T15:33:07Z</time>
      </trkpt>
      <trkpt lat="45.89136" lon="1.29389">
        <ele>332.7</ele>
        <time>2024-11-05T15:33:08Z</time>
      </trkpt>
      <trkpt lat="45.89136" lon="1.29395">
        <ele>332.7</ele>
        <time>2024-11-05T15:33:09Z</time>
      </trkpt>
      <trkpt lat="45.89137" lon="1.294">
        <ele>332.7</ele>
        <time>2024-11-05T15:33:10Z</time>
      </trkpt>
      <trkpt lat="45.89138" lon="1.29405">
        <ele>332.7</ele>
        <time>2024-11-05T15:33:11Z</time>
      </trkpt>
      <trkpt lat="45.89139" lon="1.29411">
        <ele>332.7</ele>
        <time>2024-11-05T15:33:12Z</time>
      </trkpt>
      <trkpt lat="45.89139" lon="1.29416">
        <ele>332.7</ele>
        <time>2024-11-05T15:33:13Z</time>
      </trkpt>
      <trkpt lat="45.8914" lon="1.29421">
        <ele>332.7</ele>
        <time>2024-11-05T15:33:14Z</time>
      </trkpt>
      <trkpt lat="45.89141" lon="1.29426">
        <ele>332.8</ele>
        <time>2024-11-05T15:33:15Z</time>
      </trkpt>
      <trkpt lat="45.89141" lon="1.29431">
        <ele>332.8</ele>
        <time>2024-11-05T15:33:16Z</time>
      </trkpt>
      <trkpt lat="45.89141" lon="1.29435">
        <ele>332.8</ele>
        <time>2024-11-05T15:33:17Z</time>
      </trkpt>
      <trkpt lat="45.89141" lon="1.2944">
        <ele>332.8</ele>
        <time>2024-11-05T15:33:18Z</time>
      </trkpt>
      <trkpt lat="45.8914" lon="1.29444">
        <ele>332.8</ele>
        <time>2024-11-05T15:33:19Z</time>
      </trkpt>
      <trkpt lat="45.8914" lon="1.29448">
        <ele>332.8</ele>
        <time>2024-11-05T15:33:20Z</time>
      </trkpt>
      <trkpt lat="45.89139" lon="1.29453">
        <ele>332.8</ele>
        <time>2024-11-05T15:33:22Z</time>
      </trkpt>
      <trkpt lat="45.89138" lon="1.29458">
        <ele>332.8</ele>
        <time>2024-11-05T15:33:24Z</time>
      </trkpt>
      <trkpt lat="45.89137" lon="1.29463">
        <ele>332.9</ele>
        <time>2024-11-05T15:33:26Z</time>
      </trkpt>
      <trkpt lat="45.89138" lon="1.29462">
        <ele>332.9</ele>
        <time>2024-11-05T15:33:31Z</time>
      </trkpt>
      <trkpt lat="45.89138" lon="1.29458">
        <ele>332.9</ele>
        <time>2024-11-05T15:33:33Z</time>
      </trkpt>
      <trkpt lat="45.89139" lon="1.29454">
        <ele>332.9</ele>
        <time>2024-11-05T15:33:34Z</time>
      </trkpt>
      <trkpt lat="45.8914" lon="1.29449">
        <ele>332.9</ele>
        <time>2024-11-05T15:33:35Z</time>
      </trkpt>
      <trkpt lat="45.89141" lon="1.29445">
        <ele>332.9</ele>
        <time>2024-11-05T15:33:36Z</time>
      </trkpt>
      <trkpt lat="45.89141" lon="1.2944">
        <ele>332.9</ele>
        <time>2024-11-05T15:33:37Z</time>
      </trkpt>
      <trkpt lat="45.89142" lon="1.29435">
        <ele>332.9</ele>
        <time>2024-11-05T15:33:38Z</time>
      </trkpt>
      <trkpt lat="45.89142" lon="1.29431">
        <ele>333</ele>
        <time>2024-11-05T15:33:39Z</time>
      </trkpt>
      <trkpt lat="45.89143" lon="1.29426">
        <ele>333</ele>
        <time>2024-11-05T15:33:40Z</time>
      </trkpt>
      <trkpt lat="45.89142" lon="1.29421">
        <ele>333</ele>
        <time>2024-11-05T15:33:42Z</time>
      </trkpt>
      <trkpt lat="45.89139" lon="1.29418">
        <ele>333</ele>
        <time>2024-11-05T15:33:44Z</time>
      </trkpt>
      <trkpt lat="45.89136" lon="1.29419">
        <ele>333.1</ele>
        <time>2024-11-05T15:33:45Z</time>
      </trkpt>
      <trkpt lat="45.89133" lon="1.29422">
        <ele>333.1</ele>
        <time>2024-11-05T15:33:46Z</time>
      </trkpt>
      <trkpt lat="45.89131" lon="1.29425">
        <ele>333.1</ele>
        <time>2024-11-05T15:33:47Z</time>
      </trkpt>
      <trkpt lat="45.89128" lon="1.29427">
        <ele>333.1</ele>
        <time>2024-11-05T15:33:48Z</time>
      </trkpt>
      <trkpt lat="45.89124" lon="1.29429">
        <ele>333.2</ele>
        <time>2024-11-05T15:33:49Z</time>
      </trkpt>
      <trkpt lat="45.89121" lon="1.29431">
        <ele>333.2</ele>
        <time>2024-11-05T15:33:50Z</time>
      </trkpt>
      <trkpt lat="45.89118" lon="1.29433">
        <ele>333.2</ele>
        <time>2024-11-05T15:33:51Z</time>
      </trkpt>
      <trkpt lat="45.89115" lon="1.29435">
        <ele>333.2</ele>
        <time>2024-11-05T15:33:52Z</time>
      </trkpt>
      <trkpt lat="45.89111" lon="1.29436">
        <ele>333.3</ele>
        <time>2024-11-05T15:33:53Z</time>
      </trkpt>
      <trkpt lat="45.89108" lon="1.29438">
        <ele>333.3</ele>
        <time>2024-11-05T15:33:54Z</time>
      </trkpt>
      <trkpt lat="45.89105" lon="1.2944">
        <ele>333.3</ele>
        <time>2024-11-05T15:33:55Z</time>
      </trkpt>
      <trkpt lat="45.89102" lon="1.29442">
        <ele>333.3</ele>
        <time>2024-11-05T15:33:56Z</time>
      </trkpt>
      <trkpt lat="45.89099" lon="1.29443">
        <ele>333.3</ele>
        <time>2024-11-05T15:33:57Z</time>
      </trkpt>
      <trkpt lat="45.89096" lon="1.29445">
        <ele>333.3</ele>
        <time>2024-11-05T15:33:58Z</time>
      </trkpt>
      <trkpt lat="45.89093" lon="1.29447">
        <ele>333.3</ele>
        <time>2024-11-05T15:33:59Z</time>
      </trkpt>
      <trkpt lat="45.8909" lon="1.29449">
        <ele>333.3</ele>
        <time>2024-11-05T15:34:00Z</time>
      </trkpt>
      <trkpt lat="45.89088" lon="1.29451">
        <ele>333.3</ele>
        <time>2024-11-05T15:34:01Z</time>
      </trkpt>
      <trkpt lat="45.89085" lon="1.29454">
        <ele>333.3</ele>
        <time>2024-11-05T15:34:02Z</time>
      </trkpt>
      <trkpt lat="45.89082" lon="1.29457">
        <ele>333.3</ele>
        <time>2024-11-05T15:34:03Z</time>
      </trkpt>
      <trkpt lat="45.89081" lon="1.29462">
        <ele>333.3</ele>
        <time>2024-11-05T15:34:04Z</time>
      </trkpt>
      <trkpt lat="45.89081" lon="1.29467">
        <ele>333.3</ele>
        <time>2024-11-05T15:34:05Z</time>
      </trkpt>
      <trkpt lat="45.8908" lon="1.29472">
        <ele>333.2</ele>
        <time>2024-11-05T15:34:06Z</time>
      </trkpt>
      <trkpt lat="45.8908" lon="1.29477">
        <ele>333.1</ele>
        <time>2024-11-05T15:34:07Z</time>
      </trkpt>
      <trkpt lat="45.89081" lon="1.29483">
        <ele>333</ele>
        <time>2024-11-05T15:34:08Z</time>
      </trkpt>
      <trkpt lat="45.89082" lon="1.29488">
        <ele>332.8</ele>
        <time>2024-11-05T15:34:09Z</time>
      </trkpt>
      <trkpt lat="45.89083" lon="1.29493">
        <ele>332.6</ele>
        <time>2024-11-05T15:34:10Z</time>
      </trkpt>
      <trkpt lat="45.89084" lon="1.29499">
        <ele>332.4</ele>
        <time>2024-11-05T15:34:11Z</time>
      </trkpt>
      <trkpt lat="45.89086" lon="1.29504">
        <ele>332.2</ele>
        <time>2024-11-05T15:34:12Z</time>
      </trkpt>
      <trkpt lat="45.89087" lon="1.2951">
        <ele>332</ele>
        <time>2024-11-05T15:34:13Z</time>
      </trkpt>
      <trkpt lat="45.8909" lon="1.29516">
        <ele>331.7</ele>
        <time>2024-11-05T15:34:14Z</time>
      </trkpt>
      <trkpt lat="45.89091" lon="1.29522">
        <ele>331.5</ele>
        <time>2024-11-05T15:34:15Z</time>
      </trkpt>
      <trkpt lat="45.89092" lon="1.29528">
        <ele>331.3</ele>
        <time>2024-11-05T15:34:16Z</time>
      </trkpt>
      <trkpt lat="45.8909" lon="1.29535">
        <ele>331</ele>
        <time>2024-11-05T15:34:17Z</time>
      </trkpt>
      <trkpt lat="45.89088" lon="1.29542">
        <ele>330.8</ele>
        <time>2024-11-05T15:34:18Z</time>
      </trkpt>
      <trkpt lat="45.89086" lon="1.29548">
        <ele>330.5</ele>
        <time>2024-11-05T15:34:19Z</time>
      </trkpt>
      <trkpt lat="45.89085" lon="1.29555">
        <ele>330.4</ele>
        <time>2024-11-05T15:34:20Z</time>
      </trkpt>
      <trkpt lat="45.89084" lon="1.29563">
        <ele>330.2</ele>
        <time>2024-11-05T15:34:21Z</time>
      </trkpt>
      <trkpt lat="45.89083" lon="1.2957">
        <ele>330.1</ele>
        <time>2024-11-05T15:34:22Z</time>
      </trkpt>
      <trkpt lat="45.89083" lon="1.29577">
        <ele>330</ele>
        <time>2024-11-05T15:34:23Z</time>
      </trkpt>
      <trkpt lat="45.89082" lon="1.29583">
        <ele>330</ele>
        <time>2024-11-05T15:34:24Z</time>
      </trkpt>
      <trkpt lat="45.89081" lon="1.29588">
        <ele>330</ele>
        <time>2024-11-05T15:34:25Z</time>
      </trkpt>
      <trkpt lat="45.8908" lon="1.29593">
        <ele>330</ele>
        <time>2024-11-05T15:34:26Z</time>
      </trkpt>
      <trkpt lat="45.89078" lon="1.29597">
        <ele>330</ele>
        <time>2024-11-05T15:34:27Z</time>
      </trkpt>
      <trkpt lat="45.89074" lon="1.29599">
        <ele>329.9</ele>
        <time>2024-11-05T15:34:29Z</time>
      </trkpt>
      <trkpt lat="45.8907" lon="1.296">
        <ele>329.9</ele>
        <time>2024-11-05T15:34:31Z</time>
      </trkpt>
      <trkpt lat="45.89065" lon="1.29601">
        <ele>330</ele>
        <time>2024-11-05T15:34:33Z</time>
      </trkpt>
      <trkpt lat="45.89061" lon="1.296">
        <ele>330.1</ele>
        <time>2024-11-05T15:34:34Z</time>
      </trkpt>
      <trkpt lat="45.89058" lon="1.296">
        <ele>330.2</ele>
        <time>2024-11-05T15:34:35Z</time>
      </trkpt>
      <trkpt lat="45.89054" lon="1.29602">
        <ele>330.3</ele>
        <time>2024-11-05T15:34:36Z</time>
      </trkpt>
      <trkpt lat="45.89051" lon="1.29604">
        <ele>330.4</ele>
        <time>2024-11-05T15:34:37Z</time>
      </trkpt>
      <trkpt lat="45.89048" lon="1.29607">
        <ele>330.5</ele>
        <time>2024-11-05T15:34:39Z</time>
      </trkpt>
      <trkpt lat="45.89044" lon="1.29609">
        <ele>330.6</ele>
        <time>2024-11-05T15:34:40Z</time>
      </trkpt>
      <trkpt lat="45.89041" lon="1.29609">
        <ele>330.6</ele>
        <time>2024-11-05T15:34:41Z</time>
      </trkpt>
      <trkpt lat="45.89038" lon="1.29609">
        <ele>330.7</ele>
        <time>2024-11-05T15:34:42Z</time>
      </trkpt>
      <trkpt lat="45.89034" lon="1.29608">
        <ele>330.8</ele>
        <time>2024-11-05T15:34:43Z</time>
      </trkpt>
      <trkpt lat="45.89031" lon="1.29608">
        <ele>330.8</ele>
        <time>2024-11-05T15:34:44Z</time>
      </trkpt>
      <trkpt lat="45.89026" lon="1.29606">
        <ele>331</ele>
        <time>2024-11-05T15:34:45Z</time>
      </trkpt>
      <trkpt lat="45.89023" lon="1.29604">
        <ele>331.1</ele>
        <time>2024-11-05T15:34:46Z</time>
      </trkpt>
      <trkpt lat="45.89019" lon="1.296">
        <ele>331.3</ele>
        <time>2024-11-05T15:34:47Z</time>
      </trkpt>
      <trkpt lat="45.89015" lon="1.29596">
        <ele>331.5</ele>
        <time>2024-11-05T15:34:48Z</time>
      </trkpt>
      <trkpt lat="45.89012" lon="1.29591">
        <ele>331.6</ele>
        <time>2024-11-05T15:34:49Z</time>
      </trkpt>
      <trkpt lat="45.8901" lon="1.29586">
        <ele>331.8</ele>
        <time>2024-11-05T15:34:50Z</time>
      </trkpt>
      <trkpt lat="45.89007" lon="1.29581">
        <ele>332</ele>
        <time>2024-11-05T15:34:51Z</time>
      </trkpt>
      <trkpt lat="45.89005" lon="1.29576">
        <ele>332.2</ele>
        <time>2024-11-05T15:34:52Z</time>
      </trkpt>
      <trkpt lat="45.89003" lon="1.29571">
        <ele>332.4</ele>
        <time>2024-11-05T15:34:53Z</time>
      </trkpt>
      <trkpt lat="45.89001" lon="1.29566">
        <ele>332.5</ele>
        <time>2024-11-05T15:34:54Z</time>
      </trkpt>
      <trkpt lat="45.88999" lon="1.29561">
        <ele>332.7</ele>
        <time>2024-11-05T15:34:55Z</time>
      </trkpt>
      <trkpt lat="45.88997" lon="1.29556">
        <ele>332.9</ele>
        <time>2024-11-05T15:34:56Z</time>
      </trkpt>
      <trkpt lat="45.88996" lon="1.29551">
        <ele>333</ele>
        <time>2024-11-05T15:34:57Z</time>
      </trkpt>
      <trkpt lat="45.88995" lon="1.29546">
        <ele>333.1</ele>
        <time>2024-11-05T15:34:58Z</time>
      </trkpt>
      <trkpt lat="45.88994" lon="1.2954">
        <ele>333.2</ele>
        <time>2024-11-05T15:34:59Z</time>
      </trkpt>
      <trkpt lat="45.88993" lon="1.29534">
        <ele>333.3</ele>
        <time>2024-11-05T15:35:00Z</time>
      </trkpt>
      <trkpt lat="45.88993" lon="1.29529">
        <ele>333.4</ele>
        <time>2024-11-05T15:35:01Z</time>
      </trkpt>
      <trkpt lat="45.88992" lon="1.29523">
        <ele>333.5</ele>
        <time>2024-11-05T15:35:02Z</time>
      </trkpt>
      <trkpt lat="45.88992" lon="1.29518">
        <ele>333.5</ele>
        <time>2024-11-05T15:35:03Z</time>
      </trkpt>
      <trkpt lat="45.88991" lon="1.29513">
        <ele>333.5</ele>
        <time>2024-11-05T15:35:04Z</time>
      </trkpt>
      <trkpt lat="45.88991" lon="1.29509">
        <ele>333.5</ele>
        <time>2024-11-05T15:35:05Z</time>
      </trkpt>
      <trkpt lat="45.8899" lon="1.29505">
        <ele>333.6</ele>
        <time>2024-11-05T15:35:06Z</time>
      </trkpt>
      <trkpt lat="45.8899" lon="1.29501">
        <ele>333.6</ele>
        <time>2024-11-05T15:35:07Z</time>
      </trkpt>
      <trkpt lat="45.88989" lon="1.29496">
        <ele>333.6</ele>
        <time>2024-11-05T15:35:08Z</time>
      </trkpt>
      <trkpt lat="45.88988" lon="1.29492">
        <ele>333.6</ele>
        <time>2024-11-05T15:35:09Z</time>
      </trkpt>
      <trkpt lat="45.88986" lon="1.2949">
        <ele>333.6</ele>
        <time>2024-11-05T15:35:10Z</time>
      </trkpt>
      <trkpt lat="45.88982" lon="1.29489">
        <ele>333.7</ele>
        <time>2024-11-05T15:35:11Z</time>
      </trkpt>
      <trkpt lat="45.88979" lon="1.29488">
        <ele>333.8</ele>
        <time>2024-11-05T15:35:12Z</time>
      </trkpt>
      <trkpt lat="45.88976" lon="1.29489">
        <ele>333.9</ele>
        <time>2024-11-05T15:35:13Z</time>
      </trkpt>
      <trkpt lat="45.88972" lon="1.29489">
        <ele>334</ele>
        <time>2024-11-05T15:35:14Z</time>
      </trkpt>
      <trkpt lat="45.88968" lon="1.29489">
        <ele>334.1</ele>
        <time>2024-11-05T15:35:15Z</time>
      </trkpt>
      <trkpt lat="45.88964" lon="1.2949">
        <ele>334.2</ele>
        <time>2024-11-05T15:35:16Z</time>
      </trkpt>
      <trkpt lat="45.88961" lon="1.2949">
        <ele>334.3</ele>
        <time>2024-11-05T15:35:17Z</time>
      </trkpt>
      <trkpt lat="45.88957" lon="1.2949">
        <ele>334.4</ele>
        <time>2024-11-05T15:35:18Z</time>
      </trkpt>
      <trkpt lat="45.88953" lon="1.29491">
        <ele>334.5</ele>
        <time>2024-11-05T15:35:19Z</time>
      </trkpt>
      <trkpt lat="45.88949" lon="1.29491">
        <ele>334.6</ele>
        <time>2024-11-05T15:35:20Z</time>
      </trkpt>
      <trkpt lat="45.88944" lon="1.29491">
        <ele>334.8</ele>
        <time>2024-11-05T15:35:21Z</time>
      </trkpt>
      <trkpt lat="45.8894" lon="1.29491">
        <ele>334.9</ele>
        <time>2024-11-05T15:35:22Z</time>
      </trkpt>
      <trkpt lat="45.88936" lon="1.29492">
        <ele>335</ele>
        <time>2024-11-05T15:35:23Z</time>
      </trkpt>
      <trkpt lat="45.88932" lon="1.29492">
        <ele>335.1</ele>
        <time>2024-11-05T15:35:24Z</time>
      </trkpt>
      <trkpt lat="45.88927" lon="1.29492">
        <ele>335.3</ele>
        <time>2024-11-05T15:35:25Z</time>
      </trkpt>
      <trkpt lat="45.88923" lon="1.29493">
        <ele>335.4</ele>
        <time>2024-11-05T15:35:26Z</time>
      </trkpt>
      <trkpt lat="45.88919" lon="1.29493">
        <ele>335.5</ele>
        <time>2024-11-05T15:35:27Z</time>
      </trkpt>
      <trkpt lat="45.88915" lon="1.29493">
        <ele>335.6</ele>
        <time>2024-11-05T15:35:28Z</time>
      </trkpt>
      <trkpt lat="45.88912" lon="1.29493">
        <ele>335.7</ele>
        <time>2024-11-05T15:35:29Z</time>
      </trkpt>
      <trkpt lat="45.88908" lon="1.29494">
        <ele>335.8</ele>
        <time>2024-11-05T15:35:30Z</time>
      </trkpt>
      <trkpt lat="45.88904" lon="1.29494">
        <ele>336</ele>
        <time>2024-11-05T15:35:31Z</time>
      </trkpt>
      <trkpt lat="45.889" lon="1.29495">
        <ele>336.1</ele>
        <time>2024-11-05T15:35:32Z</time>
      </trkpt>
      <trkpt lat="45.88896" lon="1.29495">
        <ele>336.3</ele>
        <time>2024-11-05T15:35:33Z</time>
      </trkpt>
      <trkpt lat="45.88892" lon="1.29497">
        <ele>336.4</ele>
        <time>2024-11-05T15:35:34Z</time>
      </trkpt>
      <trkpt lat="45.88888" lon="1.29499">
        <ele>336.6</ele>
        <time>2024-11-05T15:35:35Z</time>
      </trkpt>
      <trkpt lat="45.88885" lon="1.29501">
        <ele>336.7</ele>
        <time>2024-11-05T15:35:36Z</time>
      </trkpt>
      <trkpt lat="45.88881" lon="1.29504">
        <ele>336.8</ele>
        <time>2024-11-05T15:35:37Z</time>
      </trkpt>
      <trkpt lat="45.88878" lon="1.29507">
        <ele>336.9</ele>
        <time>2024-11-05T15:35:38Z</time>
      </trkpt>
      <trkpt lat="45.88876" lon="1.29511">
        <ele>336.9</ele>
        <time>2024-11-05T15:35:39Z</time>
      </trkpt>
      <trkpt lat="45.88873" lon="1.29515">
        <ele>336.9</ele>
        <time>2024-11-05T15:35:40Z</time>
      </trkpt>
      <trkpt lat="45.8887" lon="1.29519">
        <ele>336.9</ele>
        <time>2024-11-05T15:35:41Z</time>
      </trkpt>
      <trkpt lat="45.88868" lon="1.29523">
        <ele>337</ele>
        <time>2024-11-05T15:35:42Z</time>
      </trkpt>
      <trkpt lat="45.88865" lon="1.29528">
        <ele>337</ele>
        <time>2024-11-05T15:35:43Z</time>
      </trkpt>
      <trkpt lat="45.88862" lon="1.29533">
        <ele>337.1</ele>
        <time>2024-11-05T15:35:44Z</time>
      </trkpt>
      <trkpt lat="45.8886" lon="1.29538">
        <ele>337.1</ele>
        <time>2024-11-05T15:35:45Z</time>
      </trkpt>
      <trkpt lat="45.88857" lon="1.29542">
        <ele>337.2</ele>
        <time>2024-11-05T15:35:46Z</time>
      </trkpt>
      <trkpt lat="45.88854" lon="1.29547">
        <ele>337.2</ele>
        <time>2024-11-05T15:35:47Z</time>
      </trkpt>
      <trkpt lat="45.88851" lon="1.29552">
        <ele>337.2</ele>
        <time>2024-11-05T15:35:48Z</time>
      </trkpt>
      <trkpt lat="45.88847" lon="1.29558">
        <ele>337.2</ele>
        <time>2024-11-05T15:35:49Z</time>
      </trkpt>
      <trkpt lat="45.88844" lon="1.29563">
        <ele>337.2</ele>
        <time>2024-11-05T15:35:50Z</time>
      </trkpt>
      <trkpt lat="45.8884" lon="1.29568">
        <ele>337.1</ele>
        <time>2024-11-05T15:35:51Z</time>
      </trkpt>
      <trkpt lat="45.88837" lon="1.29573">
        <ele>337.1</ele>
        <time>2024-11-05T15:35:52Z</time>
      </trkpt>
      <trkpt lat="45.88834" lon="1.29577">
        <ele>337</ele>
        <time>2024-11-05T15:35:53Z</time>
      </trkpt>
      <trkpt lat="45.88831" lon="1.29582">
        <ele>337</ele>
        <time>2024-11-05T15:35:54Z</time>
      </trkpt>
      <trkpt lat="45.88827" lon="1.29587">
        <ele>336.9</ele>
        <time>2024-11-05T15:35:55Z</time>
      </trkpt>
      <trkpt lat="45.88824" lon="1.29592">
        <ele>336.8</ele>
        <time>2024-11-05T15:35:56Z</time>
      </trkpt>
      <trkpt lat="45.88821" lon="1.29597">
        <ele>336.7</ele>
        <time>2024-11-05T15:35:57Z</time>
      </trkpt>
      <trkpt lat="45.88817" lon="1.29602">
        <ele>336.6</ele>
        <time>2024-11-05T15:35:58Z</time>
      </trkpt>
      <trkpt lat="45.88814" lon="1.29607">
        <ele>336.5</ele>
        <time>2024-11-05T15:35:59Z</time>
      </trkpt>
      <trkpt lat="45.88811" lon="1.29611">
        <ele>336.4</ele>
        <time>2024-11-05T15:36:00Z</time>
      </trkpt>
      <trkpt lat="45.88808" lon="1.29616">
        <ele>336.4</ele>
        <time>2024-11-05T15:36:01Z</time>
      </trkpt>
      <trkpt lat="45.88805" lon="1.2962">
        <ele>336.3</ele>
        <time>2024-11-05T15:36:02Z</time>
      </trkpt>
      <trkpt lat="45.88801" lon="1.29626">
        <ele>336.2</ele>
        <time>2024-11-05T15:36:03Z</time>
      </trkpt>
      <trkpt lat="45.88798" lon="1.29631">
        <ele>336.1</ele>
        <time>2024-11-05T15:36:04Z</time>
      </trkpt>
      <trkpt lat="45.88795" lon="1.29635">
        <ele>336.1</ele>
        <time>2024-11-05T15:36:05Z</time>
      </trkpt>
      <trkpt lat="45.88792" lon="1.2964">
        <ele>336</ele>
        <time>2024-11-05T15:36:06Z</time>
      </trkpt>
      <trkpt lat="45.8879" lon="1.29644">
        <ele>335.9</ele>
        <time>2024-11-05T15:36:07Z</time>
      </trkpt>
      <trkpt lat="45.88787" lon="1.29647">
        <ele>335.9</ele>
        <time>2024-11-05T15:36:08Z</time>
      </trkpt>
      <trkpt lat="45.88784" lon="1.2965">
        <ele>335.8</ele>
        <time>2024-11-05T15:36:09Z</time>
      </trkpt>
      <trkpt lat="45.88781" lon="1.29655">
        <ele>335.8</ele>
        <time>2024-11-05T15:36:11Z</time>
      </trkpt>
      <trkpt lat="45.88779" lon="1.29659">
        <ele>335.8</ele>
        <time>2024-11-05T15:36:13Z</time>
      </trkpt>
      <trkpt lat="45.88776" lon="1.29663">
        <ele>335.8</ele>
        <time>2024-11-05T15:36:15Z</time>
      </trkpt>
      <trkpt lat="45.88773" lon="1.29666">
        <ele>335.7</ele>
        <time>2024-11-05T15:36:16Z</time>
      </trkpt>
      <trkpt lat="45.8877" lon="1.29666">
        <ele>335.7</ele>
        <time>2024-11-05T15:36:18Z</time>
      </trkpt>
      <trkpt lat="45.88766" lon="1.29664">
        <ele>336</ele>
        <time>2024-11-05T15:36:20Z</time>
      </trkpt>
      <trkpt lat="45.88762" lon="1.29661">
        <ele>336.2</ele>
        <time>2024-11-05T15:36:22Z</time>
      </trkpt>
      <trkpt lat="45.88758" lon="1.29659">
        <ele>336.5</ele>
        <time>2024-11-05T15:36:24Z</time>
      </trkpt>
      <trkpt lat="45.88755" lon="1.29659">
        <ele>336.6</ele>
        <time>2024-11-05T15:36:25Z</time>
      </trkpt>
      <trkpt lat="45.88752" lon="1.29659">
        <ele>336.8</ele>
        <time>2024-11-05T15:36:26Z</time>
      </trkpt>
      <trkpt lat="45.88747" lon="1.2966">
        <ele>337</ele>
        <time>2024-11-05T15:36:28Z</time>
      </trkpt>
      <trkpt lat="45.88742" lon="1.29662">
        <ele>337.3</ele>
        <time>2024-11-05T15:36:30Z</time>
      </trkpt>
      <trkpt lat="45.88738" lon="1.29662">
        <ele>337.5</ele>
        <time>2024-11-05T15:36:32Z</time>
      </trkpt>
      <trkpt lat="45.88734" lon="1.29661">
        <ele>337.7</ele>
        <time>2024-11-05T15:36:34Z</time>
      </trkpt>
      <trkpt lat="45.88731" lon="1.2966">
        <ele>337.9</ele>
        <time>2024-11-05T15:36:36Z</time>
      </trkpt>
      <trkpt lat="45.88731" lon="1.29663">
        <ele>337.9</ele>
        <time>2024-11-05T15:36:39Z</time>
      </trkpt>
      <trkpt lat="45.88732" lon="1.29663">
        <ele>337.8</ele>
        <time>2024-11-05T15:36:41Z</time>
      </trkpt>
      <trkpt lat="45.88735" lon="1.29663">
        <ele>337.7</ele>
        <time>2024-11-05T15:36:43Z</time>
      </trkpt>
      <trkpt lat="45.8874" lon="1.29662">
        <ele>337.4</ele>
        <time>2024-11-05T15:36:45Z</time>
      </trkpt>
      <trkpt lat="45.88744" lon="1.29661">
        <ele>337.2</ele>
        <time>2024-11-05T15:36:47Z</time>
      </trkpt>
      <trkpt lat="45.88749" lon="1.29661">
        <ele>337</ele>
        <time>2024-11-05T15:36:49Z</time>
      </trkpt>
      <trkpt lat="45.88754" lon="1.29661">
        <ele>336.7</ele>
        <time>2024-11-05T15:36:51Z</time>
      </trkpt>
      <trkpt lat="45.88758" lon="1.29661">
        <ele>336.5</ele>
        <time>2024-11-05T15:36:52Z</time>
      </trkpt>
      <trkpt lat="45.88762" lon="1.29663">
        <ele>336.3</ele>
        <time>2024-11-05T15:36:54Z</time>
      </trkpt>
      <trkpt lat="45.88765" lon="1.29665">
        <ele>336.1</ele>
        <time>2024-11-05T15:36:56Z</time>
      </trkpt>
      <trkpt lat="45.88769" lon="1.29668">
        <ele>335.9</ele>
        <time>2024-11-05T15:36:58Z</time>
      </trkpt>
      <trkpt lat="45.88773" lon="1.29669">
        <ele>335.7</ele>
        <time>2024-11-05T15:37:00Z</time>
      </trkpt>
      <trkpt lat="45.88777" lon="1.29666">
        <ele>335.7</ele>
        <time>2024-11-05T15:37:02Z</time>
      </trkpt>
      <trkpt lat="45.8878" lon="1.29661">
        <ele>335.8</ele>
        <time>2024-11-05T15:37:04Z</time>
      </trkpt>
      <trkpt lat="45.88784" lon="1.29656">
        <ele>335.8</ele>
        <time>2024-11-05T15:37:06Z</time>
      </trkpt>
      <trkpt lat="45.88786" lon="1.29652">
        <ele>335.8</ele>
        <time>2024-11-05T15:37:07Z</time>
      </trkpt>
      <trkpt lat="45.88788" lon="1.29648">
        <ele>335.9</ele>
        <time>2024-11-05T15:37:08Z</time>
      </trkpt>
      <trkpt lat="45.88791" lon="1.29644">
        <ele>335.9</ele>
        <time>2024-11-05T15:37:09Z</time>
      </trkpt>
      <trkpt lat="45.88793" lon="1.2964">
        <ele>336</ele>
        <time>2024-11-05T15:37:10Z</time>
      </trkpt>
      <trkpt lat="45.88796" lon="1.29636">
        <ele>336.1</ele>
        <time>2024-11-05T15:37:11Z</time>
      </trkpt>
      <trkpt lat="45.88798" lon="1.29633">
        <ele>336.1</ele>
        <time>2024-11-05T15:37:12Z</time>
      </trkpt>
      <trkpt lat="45.88801" lon="1.29629">
        <ele>336.2</ele>
        <time>2024-11-05T15:37:13Z</time>
      </trkpt>
      <trkpt lat="45.88804" lon="1.29624">
        <ele>336.2</ele>
        <time>2024-11-05T15:37:14Z</time>
      </trkpt>
      <trkpt lat="45.88806" lon="1.2962">
        <ele>336.3</ele>
        <time>2024-11-05T15:37:15Z</time>
      </trkpt>
      <trkpt lat="45.88808" lon="1.29615">
        <ele>336.4</ele>
        <time>2024-11-05T15:37:16Z</time>
      </trkpt>
      <trkpt lat="45.88811" lon="1.29611">
        <ele>336.4</ele>
        <time>2024-11-05T15:37:17Z</time>
      </trkpt>
      <trkpt lat="45.88814" lon="1.29607">
        <ele>336.5</ele>
        <time>2024-11-05T15:37:18Z</time>
      </trkpt>
      <trkpt lat="45.88816" lon="1.29603">
        <ele>336.6</ele>
        <time>2024-11-05T15:37:19Z</time>
      </trkpt>
      <trkpt lat="45.88818" lon="1.29599">
        <ele>336.6</ele>
        <time>2024-11-05T15:37:20Z</time>
      </trkpt>
      <trkpt lat="45.88821" lon="1.29595">
        <ele>336.7</ele>
        <time>2024-11-05T15:37:21Z</time>
      </trkpt>
      <trkpt lat="45.88824" lon="1.29591">
        <ele>336.8</ele>
        <time>2024-11-05T15:37:22Z</time>
      </trkpt>
      <trkpt lat="45.88827" lon="1.29587">
        <ele>336.9</ele>
        <time>2024-11-05T15:37:23Z</time>
      </trkpt>
      <trkpt lat="45.88829" lon="1.29583">
        <ele>336.9</ele>
        <time>2024-11-05T15:37:24Z</time>
      </trkpt>
      <trkpt lat="45.88832" lon="1.29579">
        <ele>337</ele>
        <time>2024-11-05T15:37:25Z</time>
      </trkpt>
      <trkpt lat="45.88835" lon="1.29574">
        <ele>337.1</ele>
        <time>2024-11-05T15:37:26Z</time>
      </trkpt>
      <trkpt lat="45.88838" lon="1.2957">
        <ele>337.1</ele>
        <time>2024-11-05T15:37:27Z</time>
      </trkpt>
      <trkpt lat="45.88841" lon="1.29565">
        <ele>337.2</ele>
        <time>2024-11-05T15:37:28Z</time>
      </trkpt>
      <trkpt lat="45.88844" lon="1.29561">
        <ele>337.2</ele>
        <time>2024-11-05T15:37:29Z</time>
      </trkpt>
      <trkpt lat="45.88847" lon="1.29556">
        <ele>337.2</ele>
        <time>2024-11-05T15:37:30Z</time>
      </trkpt>
      <trkpt lat="45.8885" lon="1.29552">
        <ele>337.2</ele>
        <time>2024-11-05T15:37:31Z</time>
      </trkpt>
      <trkpt lat="45.88853" lon="1.29547">
        <ele>337.2</ele>
        <time>2024-11-05T15:37:32Z</time>
      </trkpt>
      <trkpt lat="45.88856" lon="1.29542">
        <ele>337.2</ele>
        <time>2024-11-05T15:37:33Z</time>
      </trkpt>
      <trkpt lat="45.88858" lon="1.29537">
        <ele>337.1</ele>
        <time>2024-11-05T15:37:34Z</time>
      </trkpt>
      <trkpt lat="45.88861" lon="1.29533">
        <ele>337.1</ele>
        <time>2024-11-05T15:37:35Z</time>
      </trkpt>
      <trkpt lat="45.88863" lon="1.29529">
        <ele>337.1</ele>
        <time>2024-11-05T15:37:36Z</time>
      </trkpt>
      <trkpt lat="45.88864" lon="1.29523">
        <ele>337</ele>
        <time>2024-11-05T15:37:38Z</time>
      </trkpt>
      <trkpt lat="45.88864" lon="1.29518">
        <ele>337</ele>
        <time>2024-11-05T15:37:39Z</time>
      </trkpt>
      <trkpt lat="45.88863" lon="1.29513">
        <ele>337.1</ele>
        <time>2024-11-05T15:37:40Z</time>
      </trkpt>
      <trkpt lat="45.8886" lon="1.2951">
        <ele>337.1</ele>
        <time>2024-11-05T15:37:41Z</time>
      </trkpt>
      <trkpt lat="45.88856" lon="1.29508">
        <ele>337.2</ele>
        <time>2024-11-05T15:37:42Z</time>
      </trkpt>
      <trkpt lat="45.88852" lon="1.29507">
        <ele>337.3</ele>
        <time>2024-11-05T15:37:43Z</time>
      </trkpt>
      <trkpt lat="45.88848" lon="1.29507">
        <ele>337.4</ele>
        <time>2024-11-05T15:37:44Z</time>
      </trkpt>
      <trkpt lat="45.88844" lon="1.29507">
        <ele>337.4</ele>
        <time>2024-11-05T15:37:45Z</time>
      </trkpt>
      <trkpt lat="45.8884" lon="1.29508">
        <ele>337.5</ele>
        <time>2024-11-05T15:37:46Z</time>
      </trkpt>
      <trkpt lat="45.88836" lon="1.29508">
        <ele>337.6</ele>
        <time>2024-11-05T15:37:47Z</time>
      </trkpt>
      <trkpt lat="45.88831" lon="1.29509">
        <ele>337.8</ele>
        <time>2024-11-05T15:37:48Z</time>
      </trkpt>
      <trkpt lat="45.88828" lon="1.2951">
        <ele>337.9</ele>
        <time>2024-11-05T15:37:49Z</time>
      </trkpt>
      <trkpt lat="45.88824" lon="1.2951">
        <ele>338</ele>
        <time>2024-11-05T15:37:50Z</time>
      </trkpt>
      <trkpt lat="45.8882" lon="1.29511">
        <ele>338.1</ele>
        <time>2024-11-05T15:37:51Z</time>
      </trkpt>
      <trkpt lat="45.88816" lon="1.29512">
        <ele>338.3</ele>
        <time>2024-11-05T15:37:52Z</time>
      </trkpt>
      <trkpt lat="45.88812" lon="1.29512">
        <ele>338.4</ele>
        <time>2024-11-05T15:37:53Z</time>
      </trkpt>
      <trkpt lat="45.88809" lon="1.29513">
        <ele>338.5</ele>
        <time>2024-11-05T15:37:54Z</time>
      </trkpt>
      <trkpt lat="45.88805" lon="1.29513">
        <ele>338.7</ele>
        <time>2024-11-05T15:37:55Z</time>
      </trkpt>
      <trkpt lat="45.88802" lon="1.29514">
        <ele>338.8</ele>
        <time>2024-11-05T15:37:56Z</time>
      </trkpt>
      <trkpt lat="45.88798" lon="1.29514">
        <ele>339</ele>
        <time>2024-11-05T15:37:57Z</time>
      </trkpt>
      <trkpt lat="45.88795" lon="1.29514">
        <ele>339.1</ele>
        <time>2024-11-05T15:37:58Z</time>
      </trkpt>
      <trkpt lat="45.88792" lon="1.29514">
        <ele>339.3</ele>
        <time>2024-11-05T15:37:59Z</time>
      </trkpt>
      <trkpt lat="45.88788" lon="1.29514">
        <ele>339.4</ele>
        <time>2024-11-05T15:38:01Z</time>
      </trkpt>
      <trkpt lat="45.88784" lon="1.29514">
        <ele>339.6</ele>
        <time>2024-11-05T15:38:02Z</time>
      </trkpt>
      <trkpt lat="45.8878" lon="1.29515">
        <ele>339.7</ele>
        <time>2024-11-05T15:38:04Z</time>
      </trkpt>
      <trkpt lat="45.88776" lon="1.29516">
        <ele>339.8</ele>
        <time>2024-11-05T15:38:05Z</time>
      </trkpt>
      <trkpt lat="45.88772" lon="1.29516">
        <ele>339.8</ele>
        <time>2024-11-05T15:38:06Z</time>
      </trkpt>
      <trkpt lat="45.88769" lon="1.29517">
        <ele>339.9</ele>
        <time>2024-11-05T15:38:07Z</time>
      </trkpt>
      <trkpt lat="45.88765" lon="1.29517">
        <ele>340</ele>
        <time>2024-11-05T15:38:08Z</time>
      </trkpt>
      <trkpt lat="45.88761" lon="1.29516">
        <ele>340.1</ele>
        <time>2024-11-05T15:38:09Z</time>
      </trkpt>
      <trkpt lat="45.88758" lon="1.29516">
        <ele>340.2</ele>
        <time>2024-11-05T15:38:10Z</time>
      </trkpt>
      <trkpt lat="45.88755" lon="1.29516">
        <ele>340.3</ele>
        <time>2024-11-05T15:38:11Z</time>
      </trkpt>
      <trkpt lat="45.88752" lon="1.29516">
        <ele>340.4</ele>
        <time>2024-11-05T15:38:12Z</time>
      </trkpt>
      <trkpt lat="45.88749" lon="1.29515">
        <ele>340.6</ele>
        <time>2024-11-05T15:38:13Z</time>
      </trkpt>
      <trkpt lat="45.88745" lon="1.29515">
        <ele>340.8</ele>
        <time>2024-11-05T15:38:14Z</time>
      </trkpt>
      <trkpt lat="45.88741" lon="1.29515">
        <ele>341</ele>
        <time>2024-11-05T15:38:15Z</time>
      </trkpt>
      <trkpt lat="45.88738" lon="1.29515">
        <ele>341.1</ele>
        <time>2024-11-05T15:38:16Z</time>
      </trkpt>
      <trkpt lat="45.88734" lon="1.29515">
        <ele>341.3</ele>
        <time>2024-11-05T15:38:17Z</time>
      </trkpt>
      <trkpt lat="45.88731" lon="1.29515">
        <ele>341.5</ele>
        <time>2024-11-05T15:38:18Z</time>
      </trkpt>
      <trkpt lat="45.88728" lon="1.29515">
        <ele>341.7</ele>
        <time>2024-11-05T15:38:19Z</time>
      </trkpt>
      <trkpt lat="45.88724" lon="1.29514">
        <ele>341.9</ele>
        <time>2024-11-05T15:38:20Z</time>
      </trkpt>
      <trkpt lat="45.88721" lon="1.29514">
        <ele>342.1</ele>
        <time>2024-11-05T15:38:21Z</time>
      </trkpt>
      <trkpt lat="45.88718" lon="1.29514">
        <ele>342.3</ele>
        <time>2024-11-05T15:38:22Z</time>
      </trkpt>
      <trkpt lat="45.88715" lon="1.29513">
        <ele>342.5</ele>
        <time>2024-11-05T15:38:23Z</time>
      </trkpt>
      <trkpt lat="45.88711" lon="1.29512">
        <ele>342.8</ele>
        <time>2024-11-05T15:38:25Z</time>
      </trkpt>
      <trkpt lat="45.88706" lon="1.29512">
        <ele>343.1</ele>
        <time>2024-11-05T15:38:27Z</time>
      </trkpt>
      <trkpt lat="45.88702" lon="1.29511">
        <ele>343.4</ele>
        <time>2024-11-05T15:38:28Z</time>
      </trkpt>
      <trkpt lat="45.88698" lon="1.2951">
        <ele>343.7</ele>
        <time>2024-11-05T15:38:29Z</time>
      </trkpt>
      <trkpt lat="45.88695" lon="1.2951">
        <ele>343.9</ele>
        <time>2024-11-05T15:38:30Z</time>
      </trkpt>
      <trkpt lat="45.8869" lon="1.29509">
        <ele>344.3</ele>
        <time>2024-11-05T15:38:32Z</time>
      </trkpt>
      <trkpt lat="45.88687" lon="1.29508">
        <ele>344.5</ele>
        <time>2024-11-05T15:38:33Z</time>
      </trkpt>
      <trkpt lat="45.88684" lon="1.29508">
        <ele>344.8</ele>
        <time>2024-11-05T15:38:34Z</time>
      </trkpt>
      <trkpt lat="45.8868" lon="1.29506">
        <ele>345.1</ele>
        <time>2024-11-05T15:38:36Z</time>
      </trkpt>
      <trkpt lat="45.88675" lon="1.29504">
        <ele>345.6</ele>
        <time>2024-11-05T15:38:38Z</time>
      </trkpt>
      <trkpt lat="45.88671" lon="1.29503">
        <ele>345.9</ele>
        <time>2024-11-05T15:38:39Z</time>
      </trkpt>
      <trkpt lat="45.88667" lon="1.29502">
        <ele>346.2</ele>
        <time>2024-11-05T15:38:41Z</time>
      </trkpt>
      <trkpt lat="45.88663" lon="1.29502">
        <ele>346.6</ele>
        <time>2024-11-05T15:38:42Z</time>
      </trkpt>
      <trkpt lat="45.8866" lon="1.29501">
        <ele>346.8</ele>
        <time>2024-11-05T15:38:43Z</time>
      </trkpt>
      <trkpt lat="45.88656" lon="1.295">
        <ele>347.2</ele>
        <time>2024-11-05T15:38:45Z</time>
      </trkpt>
      <trkpt lat="45.88652" lon="1.29499">
        <ele>347.5</ele>
        <time>2024-11-05T15:38:46Z</time>
      </trkpt>
      <trkpt lat="45.88649" lon="1.29498">
        <ele>347.8</ele>
        <time>2024-11-05T15:38:47Z</time>
      </trkpt>
      <trkpt lat="45.88646" lon="1.29498">
        <ele>348</ele>
        <time>2024-11-05T15:38:48Z</time>
      </trkpt>
      <trkpt lat="45.88643" lon="1.29497">
        <ele>348.3</ele>
        <time>2024-11-05T15:38:49Z</time>
      </trkpt>
      <trkpt lat="45.88639" lon="1.29496">
        <ele>348.6</ele>
        <time>2024-11-05T15:38:50Z</time>
      </trkpt>
      <trkpt lat="45.88636" lon="1.29496">
        <ele>348.9</ele>
        <time>2024-11-05T15:38:51Z</time>
      </trkpt>
      <trkpt lat="45.88632" lon="1.29496">
        <ele>349.2</ele>
        <time>2024-11-05T15:38:52Z</time>
      </trkpt>
      <trkpt lat="45.88629" lon="1.29495">
        <ele>349.4</ele>
        <time>2024-11-05T15:38:53Z</time>
      </trkpt>
      <trkpt lat="45.88626" lon="1.29495">
        <ele>349.6</ele>
        <time>2024-11-05T15:38:54Z</time>
      </trkpt>
      <trkpt lat="45.88622" lon="1.29495">
        <ele>349.9</ele>
        <time>2024-11-05T15:38:55Z</time>
      </trkpt>
      <trkpt lat="45.88618" lon="1.29494">
        <ele>350.1</ele>
        <time>2024-11-05T15:38:56Z</time>
      </trkpt>
      <trkpt lat="45.88614" lon="1.29494">
        <ele>350.3</ele>
        <time>2024-11-05T15:38:57Z</time>
      </trkpt>
      <trkpt lat="45.8861" lon="1.29493">
        <ele>350.6</ele>
        <time>2024-11-05T15:38:58Z</time>
      </trkpt>
      <trkpt lat="45.88607" lon="1.29492">
        <ele>350.7</ele>
        <time>2024-11-05T15:38:59Z</time>
      </trkpt>
      <trkpt lat="45.88603" lon="1.29491">
        <ele>350.9</ele>
        <time>2024-11-05T15:39:00Z</time>
      </trkpt>
      <trkpt lat="45.886" lon="1.2949">
        <ele>351</ele>
        <time>2024-11-05T15:39:01Z</time>
      </trkpt>
      <trkpt lat="45.88596" lon="1.29489">
        <ele>351.1</ele>
        <time>2024-11-05T15:39:02Z</time>
      </trkpt>
      <trkpt lat="45.88592" lon="1.29489">
        <ele>351.3</ele>
        <time>2024-11-05T15:39:03Z</time>
      </trkpt>
      <trkpt lat="45.88588" lon="1.29488">
        <ele>351.4</ele>
        <time>2024-11-05T15:39:04Z</time>
      </trkpt>
      <trkpt lat="45.88585" lon="1.29487">
        <ele>351.5</ele>
        <time>2024-11-05T15:39:05Z</time>
      </trkpt>
      <trkpt lat="45.88581" lon="1.29487">
        <ele>351.6</ele>
        <time>2024-11-05T15:39:06Z</time>
      </trkpt>
      <trkpt lat="45.88578" lon="1.29486">
        <ele>351.6</ele>
        <time>2024-11-05T15:39:07Z</time>
      </trkpt>
      <trkpt lat="45.88575" lon="1.29485">
        <ele>351.7</ele>
        <time>2024-11-05T15:39:08Z</time>
      </trkpt>
      <trkpt lat="45.88571" lon="1.29483">
        <ele>351.8</ele>
        <time>2024-11-05T15:39:09Z</time>
      </trkpt>
      <trkpt lat="45.88568" lon="1.29482">
        <ele>351.9</ele>
        <time>2024-11-05T15:39:10Z</time>
      </trkpt>
      <trkpt lat="45.88564" lon="1.29481">
        <ele>351.9</ele>
        <time>2024-11-05T15:39:11Z</time>
      </trkpt>
      <trkpt lat="45.8856" lon="1.2948">
        <ele>352</ele>
        <time>2024-11-05T15:39:12Z</time>
      </trkpt>
      <trkpt lat="45.88556" lon="1.29479">
        <ele>352.1</ele>
        <time>2024-11-05T15:39:13Z</time>
      </trkpt>
      <trkpt lat="45.88553" lon="1.29477">
        <ele>352.1</ele>
        <time>2024-11-05T15:39:14Z</time>
      </trkpt>
      <trkpt lat="45.88549" lon="1.29476">
        <ele>352.1</ele>
        <time>2024-11-05T15:39:15Z</time>
      </trkpt>
      <trkpt lat="45.88546" lon="1.29476">
        <ele>352.2</ele>
        <time>2024-11-05T15:39:16Z</time>
      </trkpt>
      <trkpt lat="45.88543" lon="1.29475">
        <ele>352.2</ele>
        <time>2024-11-05T15:39:17Z</time>
      </trkpt>
      <trkpt lat="45.8854" lon="1.29473">
        <ele>352.2</ele>
        <time>2024-11-05T15:39:19Z</time>
      </trkpt>
      <trkpt lat="45.88537" lon="1.29474">
        <ele>352.2</ele>
        <time>2024-11-05T15:39:21Z</time>
      </trkpt>
      <trkpt lat="45.88534" lon="1.29478">
        <ele>352.2</ele>
        <time>2024-11-05T15:39:23Z</time>
      </trkpt>
      <trkpt lat="45.88534" lon="1.29483">
        <ele>352.1</ele>
        <time>2024-11-05T15:39:24Z</time>
      </trkpt>
      <trkpt lat="45.88534" lon="1.29489">
        <ele>352.1</ele>
        <time>2024-11-05T15:39:26Z</time>
      </trkpt>
      <trkpt lat="45.88534" lon="1.29496">
        <ele>352</ele>
        <time>2024-11-05T15:39:28Z</time>
      </trkpt>
      <trkpt lat="45.88534" lon="1.29501">
        <ele>351.8</ele>
        <time>2024-11-05T15:39:29Z</time>
      </trkpt>
      <trkpt lat="45.88534" lon="1.29506">
        <ele>351.6</ele>
        <time>2024-11-05T15:39:30Z</time>
      </trkpt>
      <trkpt lat="45.88535" lon="1.29511">
        <ele>351.4</ele>
        <time>2024-11-05T15:39:31Z</time>
      </trkpt>
      <trkpt lat="45.88535" lon="1.29517">
        <ele>351.2</ele>
        <time>2024-11-05T15:39:32Z</time>
      </trkpt>
      <trkpt lat="45.88536" lon="1.29522">
        <ele>351</ele>
        <time>2024-11-05T15:39:33Z</time>
      </trkpt>
      <trkpt lat="45.88536" lon="1.29527">
        <ele>350.8</ele>
        <time>2024-11-05T15:39:34Z</time>
      </trkpt>
      <trkpt lat="45.88537" lon="1.29533">
        <ele>350.5</ele>
        <time>2024-11-05T15:39:35Z</time>
      </trkpt>
      <trkpt lat="45.88537" lon="1.29539">
        <ele>350.3</ele>
        <time>2024-11-05T15:39:36Z</time>
      </trkpt>
      <trkpt lat="45.88538" lon="1.29545">
        <ele>350</ele>
        <time>2024-11-05T15:39:37Z</time>
      </trkpt>
      <trkpt lat="45.88538" lon="1.29551">
        <ele>349.7</ele>
        <time>2024-11-05T15:39:38Z</time>
      </trkpt>
      <trkpt lat="45.88538" lon="1.29557">
        <ele>349.4</ele>
        <time>2024-11-05T15:39:39Z</time>
      </trkpt>
      <trkpt lat="45.88539" lon="1.29563">
        <ele>349.2</ele>
        <time>2024-11-05T15:39:40Z</time>
      </trkpt>
      <trkpt lat="45.88539" lon="1.29568">
        <ele>349</ele>
        <time>2024-11-05T15:39:41Z</time>
      </trkpt>
      <trkpt lat="45.88539" lon="1.29574">
        <ele>348.7</ele>
        <time>2024-11-05T15:39:43Z</time>
      </trkpt>
      <trkpt lat="45.88539" lon="1.2958">
        <ele>348.5</ele>
        <time>2024-11-05T15:39:44Z</time>
      </trkpt>
      <trkpt lat="45.88539" lon="1.29585">
        <ele>348.5</ele>
        <time>2024-11-05T15:39:45Z</time>
      </trkpt>
      <trkpt lat="45.88539" lon="1.29591">
        <ele>348.2</ele>
        <time>2024-11-05T15:39:46Z</time>
      </trkpt>
      <trkpt lat="45.88538" lon="1.29597">
        <ele>348</ele>
        <time>2024-11-05T15:39:47Z</time>
      </trkpt>
      <trkpt lat="45.88538" lon="1.29603">
        <ele>347.7</ele>
        <time>2024-11-05T15:39:48Z</time>
      </trkpt>
      <trkpt lat="45.88538" lon="1.2961">
        <ele>347.4</ele>
        <time>2024-11-05T15:39:49Z</time>
      </trkpt>
      <trkpt lat="45.88538" lon="1.29617">
        <ele>347</ele>
        <time>2024-11-05T15:39:50Z</time>
      </trkpt>
      <trkpt lat="45.88538" lon="1.29623">
        <ele>346.7</ele>
        <time>2024-11-05T15:39:51Z</time>
      </trkpt>
      <trkpt lat="45.88538" lon="1.2963">
        <ele>346.3</ele>
        <time>2024-11-05T15:39:52Z</time>
      </trkpt>
      <trkpt lat="45.88539" lon="1.29636">
        <ele>345.9</ele>
        <time>2024-11-05T15:39:53Z</time>
      </trkpt>
      <trkpt lat="45.88539" lon="1.29643">
        <ele>345.5</ele>
        <time>2024-11-05T15:39:54Z</time>
      </trkpt>
      <trkpt lat="45.88539" lon="1.29649">
        <ele>345.1</ele>
        <time>2024-11-05T15:39:55Z</time>
      </trkpt>
      <trkpt lat="45.88539" lon="1.29656">
        <ele>344.9</ele>
        <time>2024-11-05T15:39:56Z</time>
      </trkpt>
      <trkpt lat="45.88539" lon="1.29662">
        <ele>344.6</ele>
        <time>2024-11-05T15:39:57Z</time>
      </trkpt>
      <trkpt lat="45.88538" lon="1.29668">
        <ele>344.4</ele>
        <time>2024-11-05T15:39:58Z</time>
      </trkpt>
      <trkpt lat="45.88538" lon="1.29673">
        <ele>344.2</ele>
        <time>2024-11-05T15:39:59Z</time>
      </trkpt>
      <trkpt lat="45.88537" lon="1.29678">
        <ele>344</ele>
        <time>2024-11-05T15:40:01Z</time>
      </trkpt>
      <trkpt lat="45.88535" lon="1.29684">
        <ele>343.8</ele>
        <time>2024-11-05T15:40:03Z</time>
      </trkpt>
      <trkpt lat="45.88534" lon="1.29689">
        <ele>343.6</ele>
        <time>2024-11-05T15:40:05Z</time>
      </trkpt>
      <trkpt lat="45.88535" lon="1.29694">
        <ele>343.4</ele>
        <time>2024-11-05T15:40:07Z</time>
      </trkpt>
      <trkpt lat="45.88537" lon="1.297">
        <ele>343.1</ele>
        <time>2024-11-05T15:40:09Z</time>
      </trkpt>
      <trkpt lat="45.88539" lon="1.29705">
        <ele>342.9</ele>
        <time>2024-11-05T15:40:10Z</time>
      </trkpt>
      <trkpt lat="45.88541" lon="1.29711">
        <ele>342.6</ele>
        <time>2024-11-05T15:40:11Z</time>
      </trkpt>
      <trkpt lat="45.88543" lon="1.29716">
        <ele>342.4</ele>
        <time>2024-11-05T15:40:12Z</time>
      </trkpt>
      <trkpt lat="45.88545" lon="1.2972">
        <ele>342.2</ele>
        <time>2024-11-05T15:40:13Z</time>
      </trkpt>
      <trkpt lat="45.88547" lon="1.29724">
        <ele>342</ele>
        <time>2024-11-05T15:40:14Z</time>
      </trkpt>
      <trkpt lat="45.88548" lon="1.29728">
        <ele>341.8</ele>
        <time>2024-11-05T15:40:15Z</time>
      </trkpt>
      <trkpt lat="45.88549" lon="1.29732">
        <ele>341.6</ele>
        <time>2024-11-05T15:40:16Z</time>
      </trkpt>
      <trkpt lat="45.8855" lon="1.29738">
        <ele>341.4</ele>
        <time>2024-11-05T15:40:18Z</time>
      </trkpt>
      <trkpt lat="45.8855" lon="1.29743">
        <ele>341.2</ele>
        <time>2024-11-05T15:40:20Z</time>
      </trkpt>
      <trkpt lat="45.88553" lon="1.29746">
        <ele>341</ele>
        <time>2024-11-05T15:40:22Z</time>
      </trkpt>
      <trkpt lat="45.88555" lon="1.29745">
        <ele>340.9</ele>
        <time>2024-11-05T15:40:23Z</time>
      </trkpt>
      <trkpt lat="45.88555" lon="1.29742">
        <ele>341.1</ele>
        <time>2024-11-05T15:40:24Z</time>
      </trkpt>
      <trkpt lat="45.88554" lon="1.29739">
        <ele>341.3</ele>
        <time>2024-11-05T15:40:25Z</time>
      </trkpt>
      <trkpt lat="45.88552" lon="1.29735">
        <ele>341.5</ele>
        <time>2024-11-05T15:40:26Z</time>
      </trkpt>
      <trkpt lat="45.88551" lon="1.29732">
        <ele>341.7</ele>
        <time>2024-11-05T15:40:27Z</time>
      </trkpt>
      <trkpt lat="45.88549" lon="1.29728">
        <ele>342</ele>
        <time>2024-11-05T15:40:28Z</time>
      </trkpt>
      <trkpt lat="45.88547" lon="1.29725">
        <ele>342.2</ele>
        <time>2024-11-05T15:40:29Z</time>
      </trkpt>
      <trkpt lat="45.88546" lon="1.29721">
        <ele>342.5</ele>
        <time>2024-11-05T15:40:30Z</time>
      </trkpt>
      <trkpt lat="45.88544" lon="1.29716">
        <ele>342.8</ele>
        <time>2024-11-05T15:40:31Z</time>
      </trkpt>
      <trkpt lat="45.88542" lon="1.29713">
        <ele>343</ele>
        <time>2024-11-05T15:40:32Z</time>
      </trkpt>
      <trkpt lat="45.8854" lon="1.29707">
        <ele>343.4</ele>
        <time>2024-11-05T15:40:34Z</time>
      </trkpt>
      <trkpt lat="45.88537" lon="1.29702">
        <ele>343.6</ele>
        <time>2024-11-05T15:40:36Z</time>
      </trkpt>
      <trkpt lat="45.88533" lon="1.29702">
        <ele>343.5</ele>
        <time>2024-11-05T15:40:38Z</time>
      </trkpt>
      <trkpt lat="45.88531" lon="1.29704">
        <ele>343.5</ele>
        <time>2024-11-05T15:40:39Z</time>
      </trkpt>
      <trkpt lat="45.88528" lon="1.29708">
        <ele>343.4</ele>
        <time>2024-11-05T15:40:40Z</time>
      </trkpt>
      <trkpt lat="45.88525" lon="1.29711">
        <ele>343.3</ele>
        <time>2024-11-05T15:40:41Z</time>
      </trkpt>
      <trkpt lat="45.88522" lon="1.29715">
        <ele>343.2</ele>
        <time>2024-11-05T15:40:42Z</time>
      </trkpt>
      <trkpt lat="45.88519" lon="1.29718">
        <ele>343.1</ele>
        <time>2024-11-05T15:40:43Z</time>
      </trkpt>
      <trkpt lat="45.88516" lon="1.29721">
        <ele>343</ele>
        <time>2024-11-05T15:40:44Z</time>
      </trkpt>
      <trkpt lat="45.88513" lon="1.29724">
        <ele>343</ele>
        <time>2024-11-05T15:40:45Z</time>
      </trkpt>
      <trkpt lat="45.8851" lon="1.29727">
        <ele>343</ele>
        <time>2024-11-05T15:40:46Z</time>
      </trkpt>
      <trkpt lat="45.88507" lon="1.29729">
        <ele>343</ele>
        <time>2024-11-05T15:40:47Z</time>
      </trkpt>
      <trkpt lat="45.88504" lon="1.29731">
        <ele>342.9</ele>
        <time>2024-11-05T15:40:48Z</time>
      </trkpt>
      <trkpt lat="45.88502" lon="1.29734">
        <ele>342.9</ele>
        <time>2024-11-05T15:40:50Z</time>
      </trkpt>
      <trkpt lat="45.88499" lon="1.29738">
        <ele>342.9</ele>
        <time>2024-11-05T15:40:53Z</time>
      </trkpt>
      <trkpt lat="45.88498" lon="1.29743">
        <ele>342.9</ele>
        <time>2024-11-05T15:40:54Z</time>
      </trkpt>
      <trkpt lat="45.88498" lon="1.29748">
        <ele>342.4</ele>
        <time>2024-11-05T15:40:55Z</time>
      </trkpt>
      <trkpt lat="45.88499" lon="1.29753">
        <ele>342</ele>
        <time>2024-11-05T15:40:56Z</time>
      </trkpt>
      <trkpt lat="45.885" lon="1.29758">
        <ele>341.5</ele>
        <time>2024-11-05T15:40:57Z</time>
      </trkpt>
      <trkpt lat="45.88501" lon="1.29763">
        <ele>341.1</ele>
        <time>2024-11-05T15:40:58Z</time>
      </trkpt>
      <trkpt lat="45.88502" lon="1.29769">
        <ele>340.6</ele>
        <time>2024-11-05T15:40:59Z</time>
      </trkpt>
      <trkpt lat="45.88503" lon="1.29775">
        <ele>340.2</ele>
        <time>2024-11-05T15:41:00Z</time>
      </trkpt>
      <trkpt lat="45.88503" lon="1.29781">
        <ele>339.7</ele>
        <time>2024-11-05T15:41:01Z</time>
      </trkpt>
      <trkpt lat="45.88503" lon="1.29787">
        <ele>339.3</ele>
        <time>2024-11-05T15:41:02Z</time>
      </trkpt>
      <trkpt lat="45.88503" lon="1.29791">
        <ele>339</ele>
        <time>2024-11-05T15:41:03Z</time>
      </trkpt>
      <trkpt lat="45.88503" lon="1.29797">
        <ele>338.5</ele>
        <time>2024-11-05T15:41:05Z</time>
      </trkpt>
      <trkpt lat="45.88504" lon="1.29802">
        <ele>338.1</ele>
        <time>2024-11-05T15:41:07Z</time>
      </trkpt>
      <trkpt lat="45.88504" lon="1.29807">
        <ele>337.9</ele>
        <time>2024-11-05T15:41:10Z</time>
      </trkpt>
      <trkpt lat="45.88504" lon="1.29812">
        <ele>337.7</ele>
        <time>2024-11-05T15:41:14Z</time>
      </trkpt>
      <trkpt lat="45.88504" lon="1.29817">
        <ele>337.5</ele>
        <time>2024-11-05T15:41:16Z</time>
      </trkpt>
      <trkpt lat="45.88504" lon="1.29823">
        <ele>337.3</ele>
        <time>2024-11-05T15:41:18Z</time>
      </trkpt>
      <trkpt lat="45.88504" lon="1.29828">
        <ele>337.1</ele>
        <time>2024-11-05T15:41:20Z</time>
      </trkpt>
      <trkpt lat="45.88505" lon="1.29834">
        <ele>337</ele>
        <time>2024-11-05T15:41:22Z</time>
      </trkpt>
      <trkpt lat="45.88505" lon="1.2984">
        <ele>336.8</ele>
        <time>2024-11-05T15:41:24Z</time>
      </trkpt>
      <trkpt lat="45.88505" lon="1.29846">
        <ele>336.6</ele>
        <time>2024-11-05T15:41:26Z</time>
      </trkpt>
      <trkpt lat="45.88505" lon="1.29852">
        <ele>336.5</ele>
        <time>2024-11-05T15:41:28Z</time>
      </trkpt>
      <trkpt lat="45.88505" lon="1.29857">
        <ele>336.3</ele>
        <time>2024-11-05T15:41:30Z</time>
      </trkpt>
      <trkpt lat="45.88505" lon="1.29863">
        <ele>336.2</ele>
        <time>2024-11-05T15:41:32Z</time>
      </trkpt>
      <trkpt lat="45.88506" lon="1.29868">
        <ele>336</ele>
        <time>2024-11-05T15:41:34Z</time>
      </trkpt>
      <trkpt lat="45.88507" lon="1.29874">
        <ele>335.8</ele>
        <time>2024-11-05T15:41:36Z</time>
      </trkpt>
      <trkpt lat="45.88507" lon="1.29881">
        <ele>335.7</ele>
        <time>2024-11-05T15:41:38Z</time>
      </trkpt>
      <trkpt lat="45.88506" lon="1.29887">
        <ele>335.5</ele>
        <time>2024-11-05T15:41:40Z</time>
      </trkpt>
      <trkpt lat="45.88506" lon="1.29894">
        <ele>335.3</ele>
        <time>2024-11-05T15:41:42Z</time>
      </trkpt>
      <trkpt lat="45.88507" lon="1.299">
        <ele>335.1</ele>
        <time>2024-11-05T15:41:43Z</time>
      </trkpt>
      <trkpt lat="45.88507" lon="1.29904">
        <ele>335</ele>
        <time>2024-11-05T15:41:44Z</time>
      </trkpt>
      <trkpt lat="45.88507" lon="1.29908">
        <ele>334.9</ele>
        <time>2024-11-05T15:41:45Z</time>
      </trkpt>
      <trkpt lat="45.88507" lon="1.29913">
        <ele>334.7</ele>
        <time>2024-11-05T15:41:46Z</time>
      </trkpt>
      <trkpt lat="45.88508" lon="1.29917">
        <ele>334.6</ele>
        <time>2024-11-05T15:41:47Z</time>
      </trkpt>
      <trkpt lat="45.88508" lon="1.29921">
        <ele>334.5</ele>
        <time>2024-11-05T15:41:48Z</time>
      </trkpt>
      <trkpt lat="45.88508" lon="1.29925">
        <ele>334.4</ele>
        <time>2024-11-05T15:41:49Z</time>
      </trkpt>
      <trkpt lat="45.88508" lon="1.2993">
        <ele>334.2</ele>
        <time>2024-11-05T15:41:50Z</time>
      </trkpt>
      <trkpt lat="45.88508" lon="1.29934">
        <ele>334</ele>
        <time>2024-11-05T15:41:51Z</time>
      </trkpt>
      <trkpt lat="45.88508" lon="1.29939">
        <ele>333.9</ele>
        <time>2024-11-05T15:41:52Z</time>
      </trkpt>
      <trkpt lat="45.88509" lon="1.29944">
        <ele>333.7</ele>
        <time>2024-11-05T15:41:53Z</time>
      </trkpt>
      <trkpt lat="45.88509" lon="1.29949">
        <ele>333.5</ele>
        <time>2024-11-05T15:41:54Z</time>
      </trkpt>
      <trkpt lat="45.8851" lon="1.29955">
        <ele>333.2</ele>
        <time>2024-11-05T15:41:55Z</time>
      </trkpt>
      <trkpt lat="45.8851" lon="1.2996">
        <ele>333.1</ele>
        <time>2024-11-05T15:41:56Z</time>
      </trkpt>
      <trkpt lat="45.8851" lon="1.29965">
        <ele>332.9</ele>
        <time>2024-11-05T15:41:57Z</time>
      </trkpt>
      <trkpt lat="45.8851" lon="1.2997">
        <ele>332.8</ele>
        <time>2024-11-05T15:41:58Z</time>
      </trkpt>
      <trkpt lat="45.8851" lon="1.29975">
        <ele>332.7</ele>
        <time>2024-11-05T15:41:59Z</time>
      </trkpt>
      <trkpt lat="45.88511" lon="1.29981">
        <ele>332.7</ele>
        <time>2024-11-05T15:42:01Z</time>
      </trkpt>
      <trkpt lat="45.88512" lon="1.29986">
        <ele>332.6</ele>
        <time>2024-11-05T15:42:03Z</time>
      </trkpt>
      <trkpt lat="45.88516" lon="1.29988">
        <ele>332.4</ele>
        <time>2024-11-05T15:42:05Z</time>
      </trkpt>
      <trkpt lat="45.88519" lon="1.29987">
        <ele>332.3</ele>
        <time>2024-11-05T15:42:06Z</time>
      </trkpt>
      <trkpt lat="45.88522" lon="1.29986">
        <ele>332.1</ele>
        <time>2024-11-05T15:42:07Z</time>
      </trkpt>
      <trkpt lat="45.88525" lon="1.29983">
        <ele>331.9</ele>
        <time>2024-11-05T15:42:08Z</time>
      </trkpt>
      <trkpt lat="45.88528" lon="1.2998">
        <ele>331.8</ele>
        <time>2024-11-05T15:42:09Z</time>
      </trkpt>
      <trkpt lat="45.88531" lon="1.29977">
        <ele>331.6</ele>
        <time>2024-11-05T15:42:10Z</time>
      </trkpt>
      <trkpt lat="45.88534" lon="1.29974">
        <ele>331.5</ele>
        <time>2024-11-05T15:42:12Z</time>
      </trkpt>
      <trkpt lat="45.88536" lon="1.29971">
        <ele>331.5</ele>
        <time>2024-11-05T15:42:14Z</time>
      </trkpt>
      <trkpt lat="45.8854" lon="1.29968">
        <ele>331.4</ele>
        <time>2024-11-05T15:42:16Z</time>
      </trkpt>
      <trkpt lat="45.88544" lon="1.29964">
        <ele>331.4</ele>
        <time>2024-11-05T15:42:18Z</time>
      </trkpt>
      <trkpt lat="45.88547" lon="1.29962">
        <ele>331.4</ele>
        <time>2024-11-05T15:42:19Z</time>
      </trkpt>
      <trkpt lat="45.8855" lon="1.29959">
        <ele>331.4</ele>
        <time>2024-11-05T15:42:20Z</time>
      </trkpt>
      <trkpt lat="45.88552" lon="1.29957">
        <ele>331.4</ele>
        <time>2024-11-05T15:42:21Z</time>
      </trkpt>
      <trkpt lat="45.88555" lon="1.29954">
        <ele>331.4</ele>
        <time>2024-11-05T15:42:22Z</time>
      </trkpt>
      <trkpt lat="45.88557" lon="1.29951">
        <ele>331.5</ele>
        <time>2024-11-05T15:42:23Z</time>
      </trkpt>
      <trkpt lat="45.88559" lon="1.29949">
        <ele>331.5</ele>
        <time>2024-11-05T15:42:24Z</time>
      </trkpt>
      <trkpt lat="45.88562" lon="1.29947">
        <ele>331.6</ele>
        <time>2024-11-05T15:42:25Z</time>
      </trkpt>
      <trkpt lat="45.88565" lon="1.29943">
        <ele>331.6</ele>
        <time>2024-11-05T15:42:27Z</time>
      </trkpt>
      <trkpt lat="45.88568" lon="1.29939">
        <ele>331.7</ele>
        <time>2024-11-05T15:42:29Z</time>
      </trkpt>
      <trkpt lat="45.88572" lon="1.29935">
        <ele>331.9</ele>
        <time>2024-11-05T15:42:31Z</time>
      </trkpt>
      <trkpt lat="45.88575" lon="1.29932">
        <ele>332</ele>
        <time>2024-11-05T15:42:33Z</time>
      </trkpt>
      <trkpt lat="45.88579" lon="1.29929">
        <ele>332.1</ele>
        <time>2024-11-05T15:42:35Z</time>
      </trkpt>
      <trkpt lat="45.88583" lon="1.29925">
        <ele>332.3</ele>
        <time>2024-11-05T15:42:37Z</time>
      </trkpt>
      <trkpt lat="45.88586" lon="1.29921">
        <ele>332.5</ele>
        <time>2024-11-05T15:42:39Z</time>
      </trkpt>
      <trkpt lat="45.88589" lon="1.29918">
        <ele>332.6</ele>
        <time>2024-11-05T15:42:40Z</time>
      </trkpt>
      <trkpt lat="45.88592" lon="1.29916">
        <ele>332.7</ele>
        <time>2024-11-05T15:42:41Z</time>
      </trkpt>
      <trkpt lat="45.88594" lon="1.29913">
        <ele>332.8</ele>
        <time>2024-11-05T15:42:43Z</time>
      </trkpt>
      <trkpt lat="45.88596" lon="1.29911">
        <ele>332.9</ele>
        <time>2024-11-05T15:42:44Z</time>
      </trkpt>
      <trkpt lat="45.88599" lon="1.29909">
        <ele>333</ele>
        <time>2024-11-05T15:42:45Z</time>
      </trkpt>
      <trkpt lat="45.88601" lon="1.29906">
        <ele>333.1</ele>
        <time>2024-11-05T15:42:46Z</time>
      </trkpt>
      <trkpt lat="45.88604" lon="1.29904">
        <ele>333.2</ele>
        <time>2024-11-05T15:42:47Z</time>
      </trkpt>
      <trkpt lat="45.88606" lon="1.29901">
        <ele>333.3</ele>
        <time>2024-11-05T15:42:49Z</time>
      </trkpt>
      <trkpt lat="45.88609" lon="1.29898">
        <ele>333.5</ele>
        <time>2024-11-05T15:42:51Z</time>
      </trkpt>
      <trkpt lat="45.88612" lon="1.29895">
        <ele>333.6</ele>
        <time>2024-11-05T15:42:53Z</time>
      </trkpt>
      <trkpt lat="45.88615" lon="1.29892">
        <ele>333.7</ele>
        <time>2024-11-05T15:42:55Z</time>
      </trkpt>
      <trkpt lat="45.88618" lon="1.29889">
        <ele>333.8</ele>
        <time>2024-11-05T15:42:57Z</time>
      </trkpt>
      <trkpt lat="45.88622" lon="1.29885">
        <ele>333.9</ele>
        <time>2024-11-05T15:42:59Z</time>
      </trkpt>
      <trkpt lat="45.88624" lon="1.29882">
        <ele>333.9</ele>
        <time>2024-11-05T15:43:00Z</time>
      </trkpt>
      <trkpt lat="45.88628" lon="1.29877">
        <ele>334.1</ele>
        <time>2024-11-05T15:43:02Z</time>
      </trkpt>
      <trkpt lat="45.8863" lon="1.29873">
        <ele>334.2</ele>
        <time>2024-11-05T15:43:03Z</time>
      </trkpt>
      <trkpt lat="45.88633" lon="1.2987">
        <ele>334.3</ele>
        <time>2024-11-05T15:43:04Z</time>
      </trkpt>
      <trkpt lat="45.88635" lon="1.29867">
        <ele>334.4</ele>
        <time>2024-11-05T15:43:05Z</time>
      </trkpt>
      <trkpt lat="45.88638" lon="1.29863">
        <ele>334.5</ele>
        <time>2024-11-05T15:43:07Z</time>
      </trkpt>
      <trkpt lat="45.88641" lon="1.29858">
        <ele>334.6</ele>
        <time>2024-11-05T15:43:09Z</time>
      </trkpt>
      <trkpt lat="45.88645" lon="1.29853">
        <ele>334.8</ele>
        <time>2024-11-05T15:43:11Z</time>
      </trkpt>
      <trkpt lat="45.88648" lon="1.29848">
        <ele>334.9</ele>
        <time>2024-11-05T15:43:13Z</time>
      </trkpt>
      <trkpt lat="45.88651" lon="1.29844">
        <ele>335</ele>
        <time>2024-11-05T15:43:16Z</time>
      </trkpt>
      <trkpt lat="45.88654" lon="1.29841">
        <ele>335.1</ele>
        <time>2024-11-05T15:43:18Z</time>
      </trkpt>
      <trkpt lat="45.88657" lon="1.29838">
        <ele>335.1</ele>
        <time>2024-11-05T15:43:20Z</time>
      </trkpt>
      <trkpt lat="45.8866" lon="1.29835">
        <ele>335.2</ele>
        <time>2024-11-05T15:43:22Z</time>
      </trkpt>
      <trkpt lat="45.88663" lon="1.29832">
        <ele>335.3</ele>
        <time>2024-11-05T15:43:24Z</time>
      </trkpt>
      <trkpt lat="45.88665" lon="1.29829">
        <ele>335.3</ele>
        <time>2024-11-05T15:43:26Z</time>
      </trkpt>
      <trkpt lat="45.88668" lon="1.29825">
        <ele>335.4</ele>
        <time>2024-11-05T15:43:28Z</time>
      </trkpt>
      <trkpt lat="45.88672" lon="1.2982">
        <ele>335.5</ele>
        <time>2024-11-05T15:43:30Z</time>
      </trkpt>
      <trkpt lat="45.88675" lon="1.29815">
        <ele>335.5</ele>
        <time>2024-11-05T15:43:31Z</time>
      </trkpt>
      <trkpt lat="45.88679" lon="1.29811">
        <ele>335.6</ele>
        <time>2024-11-05T15:43:32Z</time>
      </trkpt>
      <trkpt lat="45.88682" lon="1.29807">
        <ele>335.7</ele>
        <time>2024-11-05T15:43:33Z</time>
      </trkpt>
      <trkpt lat="45.88685" lon="1.29803">
        <ele>335.7</ele>
        <time>2024-11-05T15:43:34Z</time>
      </trkpt>
      <trkpt lat="45.88688" lon="1.29799">
        <ele>335.7</ele>
        <time>2024-11-05T15:43:35Z</time>
      </trkpt>
      <trkpt lat="45.88691" lon="1.29796">
        <ele>335.7</ele>
        <time>2024-11-05T15:43:36Z</time>
      </trkpt>
      <trkpt lat="45.88694" lon="1.29793">
        <ele>335.7</ele>
        <time>2024-11-05T15:43:37Z</time>
      </trkpt>
      <trkpt lat="45.88696" lon="1.29791">
        <ele>335.7</ele>
        <time>2024-11-05T15:43:38Z</time>
      </trkpt>
      <trkpt lat="45.887" lon="1.29787">
        <ele>335.7</ele>
        <time>2024-11-05T15:43:40Z</time>
      </trkpt>
      <trkpt lat="45.88704" lon="1.29782">
        <ele>335.7</ele>
        <time>2024-11-05T15:43:42Z</time>
      </trkpt>
      <trkpt lat="45.88703" lon="1.29784">
        <ele>335.8</ele>
        <time>2024-11-05T15:43:48Z</time>
      </trkpt>
      <trkpt lat="45.88702" lon="1.29788">
        <ele>335.8</ele>
        <time>2024-11-05T15:43:50Z</time>
      </trkpt>
      <trkpt lat="45.887" lon="1.29793">
        <ele>335.8</ele>
        <time>2024-11-05T15:43:52Z</time>
      </trkpt>
      <trkpt lat="45.88696" lon="1.29797">
        <ele>335.7</ele>
        <time>2024-11-05T15:43:54Z</time>
      </trkpt>
      <trkpt lat="45.88693" lon="1.298">
        <ele>335.7</ele>
        <time>2024-11-05T15:43:55Z</time>
      </trkpt>
      <trkpt lat="45.8869" lon="1.29803">
        <ele>335.7</ele>
        <time>2024-11-05T15:43:56Z</time>
      </trkpt>
      <trkpt lat="45.88687" lon="1.29806">
        <ele>335.7</ele>
        <time>2024-11-05T15:43:57Z</time>
      </trkpt>
      <trkpt lat="45.88684" lon="1.2981">
        <ele>335.7</ele>
        <time>2024-11-05T15:43:58Z</time>
      </trkpt>
      <trkpt lat="45.88682" lon="1.29813">
        <ele>335.7</ele>
        <time>2024-11-05T15:43:59Z</time>
      </trkpt>
      <trkpt lat="45.88679" lon="1.29816">
        <ele>335.7</ele>
        <time>2024-11-05T15:44:01Z</time>
      </trkpt>
      <trkpt lat="45.88677" lon="1.29819">
        <ele>335.7</ele>
        <time>2024-11-05T15:44:03Z</time>
      </trkpt>
      <trkpt lat="45.88674" lon="1.29823">
        <ele>335.7</ele>
        <time>2024-11-05T15:44:05Z</time>
      </trkpt>
      <trkpt lat="45.88671" lon="1.29826">
        <ele>335.7</ele>
        <time>2024-11-05T15:44:06Z</time>
      </trkpt>
      <trkpt lat="45.88668" lon="1.2983">
        <ele>335.7</ele>
        <time>2024-11-05T15:44:08Z</time>
      </trkpt>
      <trkpt lat="45.88664" lon="1.29834">
        <ele>335.6</ele>
        <time>2024-11-05T15:44:10Z</time>
      </trkpt>
      <trkpt lat="45.88665" lon="1.29838">
        <ele>335.6</ele>
        <time>2024-11-05T15:44:13Z</time>
      </trkpt>
      <trkpt lat="45.88667" lon="1.29837">
        <ele>335.6</ele>
        <time>2024-11-05T15:44:15Z</time>
      </trkpt>
      <trkpt lat="45.88669" lon="1.29834">
        <ele>335.6</ele>
        <time>2024-11-05T15:44:16Z</time>
      </trkpt>
      <trkpt lat="45.88672" lon="1.29829">
        <ele>335.5</ele>
        <time>2024-11-05T15:44:18Z</time>
      </trkpt>
      <trkpt lat="45.88675" lon="1.29825">
        <ele>335.5</ele>
        <time>2024-11-05T15:44:19Z</time>
      </trkpt>
      <trkpt lat="45.88678" lon="1.29822">
        <ele>335.4</ele>
        <time>2024-11-05T15:44:20Z</time>
      </trkpt>
      <trkpt lat="45.8868" lon="1.29818">
        <ele>335.4</ele>
        <time>2024-11-05T15:44:21Z</time>
      </trkpt>
      <trkpt lat="45.88682" lon="1.29815">
        <ele>335.4</ele>
        <time>2024-11-05T15:44:22Z</time>
      </trkpt>
      <trkpt lat="45.88684" lon="1.29812">
        <ele>335.3</ele>
        <time>2024-11-05T15:44:23Z</time>
      </trkpt>
      <trkpt lat="45.88687" lon="1.29808">
        <ele>335.3</ele>
        <time>2024-11-05T15:44:25Z</time>
      </trkpt>
      <trkpt lat="45.88689" lon="1.29805">
        <ele>335.2</ele>
        <time>2024-11-05T15:44:30Z</time>
      </trkpt>
      <trkpt lat="45.88688" lon="1.29806">
        <ele>335.2</ele>
        <time>2024-11-05T15:44:38Z</time>
      </trkpt>
      <trkpt lat="45.88686" lon="1.2981">
        <ele>335.2</ele>
        <time>2024-11-05T15:44:40Z</time>
      </trkpt>
      <trkpt lat="45.88684" lon="1.29815">
        <ele>335.1</ele>
        <time>2024-11-05T15:44:41Z</time>
      </trkpt>
      <trkpt lat="45.88682" lon="1.29819">
        <ele>335.1</ele>
        <time>2024-11-05T15:44:42Z</time>
      </trkpt>
      <trkpt lat="45.8868" lon="1.29822">
        <ele>335</ele>
        <time>2024-11-05T15:44:43Z</time>
      </trkpt>
      <trkpt lat="45.88677" lon="1.29825">
        <ele>335</ele>
        <time>2024-11-05T15:44:44Z</time>
      </trkpt>
      <trkpt lat="45.88674" lon="1.29829">
        <ele>334.9</ele>
        <time>2024-11-05T15:44:45Z</time>
      </trkpt>
      <trkpt lat="45.88672" lon="1.29832">
        <ele>334.9</ele>
        <time>2024-11-05T15:44:46Z</time>
      </trkpt>
      <trkpt lat="45.8867" lon="1.29836">
        <ele>334.8</ele>
        <time>2024-11-05T15:44:47Z</time>
      </trkpt>
      <trkpt lat="45.88667" lon="1.2984">
        <ele>334.8</ele>
        <time>2024-11-05T15:44:48Z</time>
      </trkpt>
      <trkpt lat="45.88663" lon="1.29844">
        <ele>334.7</ele>
        <time>2024-11-05T15:44:49Z</time>
      </trkpt>
      <trkpt lat="45.8866" lon="1.29848">
        <ele>334.6</ele>
        <time>2024-11-05T15:44:50Z</time>
      </trkpt>
      <trkpt lat="45.88657" lon="1.29852">
        <ele>334.5</ele>
        <time>2024-11-05T15:44:51Z</time>
      </trkpt>
      <trkpt lat="45.88654" lon="1.29855">
        <ele>334.4</ele>
        <time>2024-11-05T15:44:52Z</time>
      </trkpt>
      <trkpt lat="45.88652" lon="1.29859">
        <ele>334.4</ele>
        <time>2024-11-05T15:44:53Z</time>
      </trkpt>
      <trkpt lat="45.88649" lon="1.29862">
        <ele>334.3</ele>
        <time>2024-11-05T15:44:54Z</time>
      </trkpt>
      <trkpt lat="45.88646" lon="1.29866">
        <ele>334.2</ele>
        <time>2024-11-05T15:44:55Z</time>
      </trkpt>
      <trkpt lat="45.88643" lon="1.29869">
        <ele>334.1</ele>
        <time>2024-11-05T15:44:56Z</time>
      </trkpt>
      <trkpt lat="45.8864" lon="1.29872">
        <ele>334.1</ele>
        <time>2024-11-05T15:44:57Z</time>
      </trkpt>
      <trkpt lat="45.88637" lon="1.29875">
        <ele>334</ele>
        <time>2024-11-05T15:44:58Z</time>
      </trkpt>
      <trkpt lat="45.88635" lon="1.29877">
        <ele>334</ele>
        <time>2024-11-05T15:44:59Z</time>
      </trkpt>
      <trkpt lat="45.88632" lon="1.2988">
        <ele>333.9</ele>
        <time>2024-11-05T15:45:00Z</time>
      </trkpt>
      <trkpt lat="45.8863" lon="1.29882">
        <ele>333.9</ele>
        <time>2024-11-05T15:45:01Z</time>
      </trkpt>
      <trkpt lat="45.88628" lon="1.29886">
        <ele>333.8</ele>
        <time>2024-11-05T15:45:02Z</time>
      </trkpt>
      <trkpt lat="45.88626" lon="1.29892">
        <ele>333.7</ele>
        <time>2024-11-05T15:45:04Z</time>
      </trkpt>
      <trkpt lat="45.88625" lon="1.29897">
        <ele>333.7</ele>
        <time>2024-11-05T15:45:05Z</time>
      </trkpt>
      <trkpt lat="45.88626" lon="1.29902">
        <ele>333.1</ele>
        <time>2024-11-05T15:45:06Z</time>
      </trkpt>
      <trkpt lat="45.88627" lon="1.29907">
        <ele>332.8</ele>
        <time>2024-11-05T15:45:07Z</time>
      </trkpt>
      <trkpt lat="45.88629" lon="1.29913">
        <ele>332.4</ele>
        <time>2024-11-05T15:45:08Z</time>
      </trkpt>
      <trkpt lat="45.8863" lon="1.29918">
        <ele>332.1</ele>
        <time>2024-11-05T15:45:09Z</time>
      </trkpt>
      <trkpt lat="45.88632" lon="1.29924">
        <ele>331.8</ele>
        <time>2024-11-05T15:45:10Z</time>
      </trkpt>
      <trkpt lat="45.88634" lon="1.29929">
        <ele>331.4</ele>
        <time>2024-11-05T15:45:11Z</time>
      </trkpt>
      <trkpt lat="45.88636" lon="1.29934">
        <ele>331.1</ele>
        <time>2024-11-05T15:45:12Z</time>
      </trkpt>
      <trkpt lat="45.88637" lon="1.29938">
        <ele>330.9</ele>
        <time>2024-11-05T15:45:13Z</time>
      </trkpt>
      <trkpt lat="45.8864" lon="1.29943">
        <ele>330.5</ele>
        <time>2024-11-05T15:45:15Z</time>
      </trkpt>
      <trkpt lat="45.88643" lon="1.29948">
        <ele>330.1</ele>
        <time>2024-11-05T15:45:17Z</time>
      </trkpt>
      <trkpt lat="45.88646" lon="1.29953">
        <ele>329.8</ele>
        <time>2024-11-05T15:45:19Z</time>
      </trkpt>
      <trkpt lat="45.88648" lon="1.29957">
        <ele>329.5</ele>
        <time>2024-11-05T15:45:20Z</time>
      </trkpt>
      <trkpt lat="45.88649" lon="1.29961">
        <ele>329.2</ele>
        <time>2024-11-05T15:45:21Z</time>
      </trkpt>
      <trkpt lat="45.88651" lon="1.29966">
        <ele>328.9</ele>
        <time>2024-11-05T15:45:23Z</time>
      </trkpt>
      <trkpt lat="45.88653" lon="1.29971">
        <ele>328.6</ele>
        <time>2024-11-05T15:45:25Z</time>
      </trkpt>
      <trkpt lat="45.88656" lon="1.29972">
        <ele>328.4</ele>
        <time>2024-11-05T15:45:27Z</time>
      </trkpt>
      <trkpt lat="45.88656" lon="1.29969">
        <ele>328.6</ele>
        <time>2024-11-05T15:45:29Z</time>
      </trkpt>
      <trkpt lat="45.88654" lon="1.29965">
        <ele>328.8</ele>
        <time>2024-11-05T15:45:31Z</time>
      </trkpt>
      <trkpt lat="45.88652" lon="1.29962">
        <ele>329.1</ele>
        <time>2024-11-05T15:45:32Z</time>
      </trkpt>
      <trkpt lat="45.8865" lon="1.29958">
        <ele>329.3</ele>
        <time>2024-11-05T15:45:33Z</time>
      </trkpt>
      <trkpt lat="45.88648" lon="1.29955">
        <ele>329.6</ele>
        <time>2024-11-05T15:45:34Z</time>
      </trkpt>
      <trkpt lat="45.88646" lon="1.2995">
        <ele>329.9</ele>
        <time>2024-11-05T15:45:36Z</time>
      </trkpt>
      <trkpt lat="45.88643" lon="1.29945">
        <ele>330.3</ele>
        <time>2024-11-05T15:45:38Z</time>
      </trkpt>
      <trkpt lat="45.8864" lon="1.29939">
        <ele>330.7</ele>
        <time>2024-11-05T15:45:40Z</time>
      </trkpt>
      <trkpt lat="45.88637" lon="1.29935">
        <ele>331</ele>
        <time>2024-11-05T15:45:41Z</time>
      </trkpt>
      <trkpt lat="45.88635" lon="1.29931">
        <ele>331.3</ele>
        <time>2024-11-05T15:45:42Z</time>
      </trkpt>
      <trkpt lat="45.88634" lon="1.29928">
        <ele>331.4</ele>
        <time>2024-11-05T15:45:43Z</time>
      </trkpt>
      <trkpt lat="45.88632" lon="1.29924">
        <ele>331.7</ele>
        <time>2024-11-05T15:45:44Z</time>
      </trkpt>
      <trkpt lat="45.8863" lon="1.2992">
        <ele>332</ele>
        <time>2024-11-05T15:45:45Z</time>
      </trkpt>
      <trkpt lat="45.88629" lon="1.29917">
        <ele>332.2</ele>
        <time>2024-11-05T15:45:46Z</time>
      </trkpt>
      <trkpt lat="45.88627" lon="1.29913">
        <ele>332.4</ele>
        <time>2024-11-05T15:45:47Z</time>
      </trkpt>
      <trkpt lat="45.88626" lon="1.2991">
        <ele>332.6</ele>
        <time>2024-11-05T15:45:48Z</time>
      </trkpt>
      <trkpt lat="45.88624" lon="1.29907">
        <ele>332.8</ele>
        <time>2024-11-05T15:45:49Z</time>
      </trkpt>
      <trkpt lat="45.88622" lon="1.29904">
        <ele>333.1</ele>
        <time>2024-11-05T15:45:50Z</time>
      </trkpt>
      <trkpt lat="45.88619" lon="1.29901">
        <ele>333.4</ele>
        <time>2024-11-05T15:45:52Z</time>
      </trkpt>
      <trkpt lat="45.88616" lon="1.29898">
        <ele>333.6</ele>
        <time>2024-11-05T15:45:54Z</time>
      </trkpt>
      <trkpt lat="45.88612" lon="1.29898">
        <ele>333.5</ele>
        <time>2024-11-05T15:45:56Z</time>
      </trkpt>
      <trkpt lat="45.88608" lon="1.29902">
        <ele>333.4</ele>
        <time>2024-11-05T15:45:58Z</time>
      </trkpt>
      <trkpt lat="45.88605" lon="1.29905">
        <ele>333.3</ele>
        <time>2024-11-05T15:45:59Z</time>
      </trkpt>
      <trkpt lat="45.88602" lon="1.29908">
        <ele>333.1</ele>
        <time>2024-11-05T15:46:00Z</time>
      </trkpt>
      <trkpt lat="45.88598" lon="1.29911">
        <ele>333</ele>
        <time>2024-11-05T15:46:01Z</time>
      </trkpt>
      <trkpt lat="45.88595" lon="1.29915">
        <ele>332.8</ele>
        <time>2024-11-05T15:46:02Z</time>
      </trkpt>
      <trkpt lat="45.88592" lon="1.29918">
        <ele>332.7</ele>
        <time>2024-11-05T15:46:03Z</time>
      </trkpt>
      <trkpt lat="45.88588" lon="1.29921">
        <ele>332.6</ele>
        <time>2024-11-05T15:46:04Z</time>
      </trkpt>
      <trkpt lat="45.88585" lon="1.29924">
        <ele>332.4</ele>
        <time>2024-11-05T15:46:05Z</time>
      </trkpt>
      <trkpt lat="45.88581" lon="1.29927">
        <ele>332.3</ele>
        <time>2024-11-05T15:46:06Z</time>
      </trkpt>
      <trkpt lat="45.88578" lon="1.29931">
        <ele>332.1</ele>
        <time>2024-11-05T15:46:07Z</time>
      </trkpt>
      <trkpt lat="45.88575" lon="1.29934">
        <ele>332</ele>
        <time>2024-11-05T15:46:08Z</time>
      </trkpt>
      <trkpt lat="45.88572" lon="1.29938">
        <ele>331.9</ele>
        <time>2024-11-05T15:46:09Z</time>
      </trkpt>
      <trkpt lat="45.88568" lon="1.29941">
        <ele>331.8</ele>
        <time>2024-11-05T15:46:10Z</time>
      </trkpt>
      <trkpt lat="45.88565" lon="1.29945">
        <ele>331.7</ele>
        <time>2024-11-05T15:46:11Z</time>
      </trkpt>
      <trkpt lat="45.88561" lon="1.29948">
        <ele>331.6</ele>
        <time>2024-11-05T15:46:12Z</time>
      </trkpt>
      <trkpt lat="45.88558" lon="1.29952">
        <ele>331.5</ele>
        <time>2024-11-05T15:46:13Z</time>
      </trkpt>
      <trkpt lat="45.88554" lon="1.29955">
        <ele>331.4</ele>
        <time>2024-11-05T15:46:14Z</time>
      </trkpt>
      <trkpt lat="45.88551" lon="1.29959">
        <ele>331.4</ele>
        <time>2024-11-05T15:46:15Z</time>
      </trkpt>
      <trkpt lat="45.88547" lon="1.29962">
        <ele>331.4</ele>
        <time>2024-11-05T15:46:16Z</time>
      </trkpt>
      <trkpt lat="45.88543" lon="1.29965">
        <ele>331.4</ele>
        <time>2024-11-05T15:46:17Z</time>
      </trkpt>
      <trkpt lat="45.88539" lon="1.29968">
        <ele>331.4</ele>
        <time>2024-11-05T15:46:18Z</time>
      </trkpt>
      <trkpt lat="45.88536" lon="1.29971">
        <ele>331.4</ele>
        <time>2024-11-05T15:46:19Z</time>
      </trkpt>
      <trkpt lat="45.88532" lon="1.29974">
        <ele>331.5</ele>
        <time>2024-11-05T15:46:20Z</time>
      </trkpt>
      <trkpt lat="45.88529" lon="1.29977">
        <ele>331.6</ele>
        <time>2024-11-05T15:46:21Z</time>
      </trkpt>
      <trkpt lat="45.88525" lon="1.29981">
        <ele>331.7</ele>
        <time>2024-11-05T15:46:22Z</time>
      </trkpt>
      <trkpt lat="45.88522" lon="1.29984">
        <ele>331.8</ele>
        <time>2024-11-05T15:46:23Z</time>
      </trkpt>
      <trkpt lat="45.88519" lon="1.29987">
        <ele>332</ele>
        <time>2024-11-05T15:46:24Z</time>
      </trkpt>
      <trkpt lat="45.88516" lon="1.2999">
        <ele>332.2</ele>
        <time>2024-11-05T15:46:25Z</time>
      </trkpt>
      <trkpt lat="45.88513" lon="1.29993">
        <ele>332.4</ele>
        <time>2024-11-05T15:46:27Z</time>
      </trkpt>
      <trkpt lat="45.8851" lon="1.29995">
        <ele>332.5</ele>
        <time>2024-11-05T15:46:30Z</time>
      </trkpt>
      <trkpt lat="45.88507" lon="1.29998">
        <ele>332.7</ele>
        <time>2024-11-05T15:46:32Z</time>
      </trkpt>
      <trkpt lat="45.88505" lon="1.30001">
        <ele>332.8</ele>
        <time>2024-11-05T15:46:34Z</time>
      </trkpt>
      <trkpt lat="45.88501" lon="1.30001">
        <ele>332.9</ele>
        <time>2024-11-05T15:46:36Z</time>
      </trkpt>
      <trkpt lat="45.88497" lon="1.3">
        <ele>333</ele>
        <time>2024-11-05T15:46:38Z</time>
      </trkpt>
      <trkpt lat="45.88493" lon="1.29999">
        <ele>333.2</ele>
        <time>2024-11-05T15:46:40Z</time>
      </trkpt>
      <trkpt lat="45.8849" lon="1.29998">
        <ele>333.3</ele>
        <time>2024-11-05T15:46:41Z</time>
      </trkpt>
      <trkpt lat="45.88486" lon="1.29997">
        <ele>333.4</ele>
        <time>2024-11-05T15:46:42Z</time>
      </trkpt>
      <trkpt lat="45.88483" lon="1.29995">
        <ele>333.6</ele>
        <time>2024-11-05T15:46:43Z</time>
      </trkpt>
      <trkpt lat="45.8848" lon="1.29994">
        <ele>333.7</ele>
        <time>2024-11-05T15:46:44Z</time>
      </trkpt>
      <trkpt lat="45.88477" lon="1.29994">
        <ele>333.8</ele>
        <time>2024-11-05T15:46:45Z</time>
      </trkpt>
      <trkpt lat="45.88474" lon="1.29993">
        <ele>333.9</ele>
        <time>2024-11-05T15:46:46Z</time>
      </trkpt>
      <trkpt lat="45.88471" lon="1.29991">
        <ele>334</ele>
        <time>2024-11-05T15:46:47Z</time>
      </trkpt>
      <trkpt lat="45.88468" lon="1.2999">
        <ele>334.1</ele>
        <time>2024-11-05T15:46:48Z</time>
      </trkpt>
      <trkpt lat="45.88465" lon="1.29988">
        <ele>334.3</ele>
        <time>2024-11-05T15:46:49Z</time>
      </trkpt>
      <trkpt lat="45.88462" lon="1.29987">
        <ele>334.4</ele>
        <time>2024-11-05T15:46:50Z</time>
      </trkpt>
      <trkpt lat="45.88459" lon="1.29985">
        <ele>334.5</ele>
        <time>2024-11-05T15:46:51Z</time>
      </trkpt>
      <trkpt lat="45.88456" lon="1.29983">
        <ele>334.6</ele>
        <time>2024-11-05T15:46:52Z</time>
      </trkpt>
      <trkpt lat="45.88453" lon="1.29981">
        <ele>334.7</ele>
        <time>2024-11-05T15:46:53Z</time>
      </trkpt>
      <trkpt lat="45.8845" lon="1.2998">
        <ele>334.7</ele>
        <time>2024-11-05T15:46:54Z</time>
      </trkpt>
      <trkpt lat="45.88446" lon="1.29978">
        <ele>334.8</ele>
        <time>2024-11-05T15:46:55Z</time>
      </trkpt>
      <trkpt lat="45.88443" lon="1.29976">
        <ele>334.8</ele>
        <time>2024-11-05T15:46:56Z</time>
      </trkpt>
      <trkpt lat="45.88439" lon="1.29974">
        <ele>334.8</ele>
        <time>2024-11-05T15:46:57Z</time>
      </trkpt>
      <trkpt lat="45.88435" lon="1.29972">
        <ele>334.8</ele>
        <time>2024-11-05T15:46:58Z</time>
      </trkpt>
      <trkpt lat="45.88431" lon="1.2997">
        <ele>334.9</ele>
        <time>2024-11-05T15:46:59Z</time>
      </trkpt>
      <trkpt lat="45.88426" lon="1.29967">
        <ele>334.9</ele>
        <time>2024-11-05T15:47:00Z</time>
      </trkpt>
      <trkpt lat="45.88422" lon="1.29965">
        <ele>334.9</ele>
        <time>2024-11-05T15:47:01Z</time>
      </trkpt>
      <trkpt lat="45.88418" lon="1.29962">
        <ele>334.9</ele>
        <time>2024-11-05T15:47:02Z</time>
      </trkpt>
      <trkpt lat="45.88414" lon="1.2996">
        <ele>335</ele>
        <time>2024-11-05T15:47:03Z</time>
      </trkpt>
      <trkpt lat="45.88411" lon="1.29958">
        <ele>335.1</ele>
        <time>2024-11-05T15:47:04Z</time>
      </trkpt>
      <trkpt lat="45.88407" lon="1.29957">
        <ele>335.2</ele>
        <time>2024-11-05T15:47:05Z</time>
      </trkpt>
      <trkpt lat="45.88404" lon="1.29955">
        <ele>335.3</ele>
        <time>2024-11-05T15:47:06Z</time>
      </trkpt>
      <trkpt lat="45.884" lon="1.29953">
        <ele>335.4</ele>
        <time>2024-11-05T15:47:07Z</time>
      </trkpt>
      <trkpt lat="45.88397" lon="1.29951">
        <ele>335.5</ele>
        <time>2024-11-05T15:47:09Z</time>
      </trkpt>
      <trkpt lat="45.88392" lon="1.29949">
        <ele>335.8</ele>
        <time>2024-11-05T15:47:11Z</time>
      </trkpt>
      <trkpt lat="45.88389" lon="1.29947">
        <ele>336</ele>
        <time>2024-11-05T15:47:12Z</time>
      </trkpt>
      <trkpt lat="45.88386" lon="1.29946">
        <ele>336.2</ele>
        <time>2024-11-05T15:47:13Z</time>
      </trkpt>
      <trkpt lat="45.88383" lon="1.29944">
        <ele>336.4</ele>
        <time>2024-11-05T15:47:14Z</time>
      </trkpt>
      <trkpt lat="45.8838" lon="1.29943">
        <ele>336.7</ele>
        <time>2024-11-05T15:47:15Z</time>
      </trkpt>
      <trkpt lat="45.88376" lon="1.29942">
        <ele>337</ele>
        <time>2024-11-05T15:47:17Z</time>
      </trkpt>
      <trkpt lat="45.88373" lon="1.29945">
        <ele>337.2</ele>
        <time>2024-11-05T15:47:19Z</time>
      </trkpt>
      <trkpt lat="45.88369" lon="1.2995">
        <ele>337.6</ele>
        <time>2024-11-05T15:47:21Z</time>
      </trkpt>
      <trkpt lat="45.88366" lon="1.29954">
        <ele>337.8</ele>
        <time>2024-11-05T15:47:22Z</time>
      </trkpt>
      <trkpt lat="45.88364" lon="1.29957">
        <ele>337.9</ele>
        <time>2024-11-05T15:47:23Z</time>
      </trkpt>
      <trkpt lat="45.88361" lon="1.29959">
        <ele>338.1</ele>
        <time>2024-11-05T15:47:24Z</time>
      </trkpt>
      <trkpt lat="45.88359" lon="1.29962">
        <ele>338.3</ele>
        <time>2024-11-05T15:47:25Z</time>
      </trkpt>
      <trkpt lat="45.88356" lon="1.29965">
        <ele>338.4</ele>
        <time>2024-11-05T15:47:27Z</time>
      </trkpt>
      <trkpt lat="45.88353" lon="1.2997">
        <ele>338.6</ele>
        <time>2024-11-05T15:47:29Z</time>
      </trkpt>
      <trkpt lat="45.8835" lon="1.29973">
        <ele>338.7</ele>
        <time>2024-11-05T15:47:30Z</time>
      </trkpt>
      <trkpt lat="45.88347" lon="1.29976">
        <ele>338.8</ele>
        <time>2024-11-05T15:47:31Z</time>
      </trkpt>
      <trkpt lat="45.88345" lon="1.29979">
        <ele>338.9</ele>
        <time>2024-11-05T15:47:32Z</time>
      </trkpt>
      <trkpt lat="45.88342" lon="1.29982">
        <ele>339</ele>
        <time>2024-11-05T15:47:33Z</time>
      </trkpt>
      <trkpt lat="45.8834" lon="1.29985">
        <ele>339</ele>
        <time>2024-11-05T15:47:34Z</time>
      </trkpt>
      <trkpt lat="45.88337" lon="1.29988">
        <ele>339.1</ele>
        <time>2024-11-05T15:47:35Z</time>
      </trkpt>
      <trkpt lat="45.88334" lon="1.29992">
        <ele>339.1</ele>
        <time>2024-11-05T15:47:36Z</time>
      </trkpt>
      <trkpt lat="45.88331" lon="1.29995">
        <ele>339.2</ele>
        <time>2024-11-05T15:47:37Z</time>
      </trkpt>
      <trkpt lat="45.88329" lon="1.29998">
        <ele>339.2</ele>
        <time>2024-11-05T15:47:38Z</time>
      </trkpt>
      <trkpt lat="45.88326" lon="1.30001">
        <ele>339.3</ele>
        <time>2024-11-05T15:47:39Z</time>
      </trkpt>
      <trkpt lat="45.88324" lon="1.30005">
        <ele>339.3</ele>
        <time>2024-11-05T15:47:41Z</time>
      </trkpt>
      <trkpt lat="45.8832" lon="1.30009">
        <ele>339.2</ele>
        <time>2024-11-05T15:47:43Z</time>
      </trkpt>
      <trkpt lat="45.88316" lon="1.3001">
        <ele>339.1</ele>
        <time>2024-11-05T15:47:45Z</time>
      </trkpt>
      <trkpt lat="45.88312" lon="1.30011">
        <ele>339.1</ele>
        <time>2024-11-05T15:47:46Z</time>
      </trkpt>
      <trkpt lat="45.88309" lon="1.30011">
        <ele>339</ele>
        <time>2024-11-05T15:47:47Z</time>
      </trkpt>
      <trkpt lat="45.88306" lon="1.30011">
        <ele>339</ele>
        <time>2024-11-05T15:47:48Z</time>
      </trkpt>
      <trkpt lat="45.88302" lon="1.3001">
        <ele>338.9</ele>
        <time>2024-11-05T15:47:49Z</time>
      </trkpt>
      <trkpt lat="45.88299" lon="1.30009">
        <ele>338.9</ele>
        <time>2024-11-05T15:47:50Z</time>
      </trkpt>
      <trkpt lat="45.88296" lon="1.30009">
        <ele>338.8</ele>
        <time>2024-11-05T15:47:51Z</time>
      </trkpt>
      <trkpt lat="45.88292" lon="1.30009">
        <ele>338.8</ele>
        <time>2024-11-05T15:47:52Z</time>
      </trkpt>
      <trkpt lat="45.88289" lon="1.30009">
        <ele>338.7</ele>
        <time>2024-11-05T15:47:53Z</time>
      </trkpt>
      <trkpt lat="45.88286" lon="1.30009">
        <ele>338.7</ele>
        <time>2024-11-05T15:47:54Z</time>
      </trkpt>
      <trkpt lat="45.88282" lon="1.3001">
        <ele>338.6</ele>
        <time>2024-11-05T15:47:55Z</time>
      </trkpt>
      <trkpt lat="45.88279" lon="1.30011">
        <ele>338.6</ele>
        <time>2024-11-05T15:47:56Z</time>
      </trkpt>
      <trkpt lat="45.88276" lon="1.30012">
        <ele>338.5</ele>
        <time>2024-11-05T15:47:57Z</time>
      </trkpt>
      <trkpt lat="45.88273" lon="1.30014">
        <ele>338.5</ele>
        <time>2024-11-05T15:47:58Z</time>
      </trkpt>
      <trkpt lat="45.88269" lon="1.30016">
        <ele>338.4</ele>
        <time>2024-11-05T15:47:59Z</time>
      </trkpt>
      <trkpt lat="45.88265" lon="1.30018">
        <ele>338.3</ele>
        <time>2024-11-05T15:48:00Z</time>
      </trkpt>
      <trkpt lat="45.88261" lon="1.3002">
        <ele>338.2</ele>
        <time>2024-11-05T15:48:01Z</time>
      </trkpt>
      <trkpt lat="45.88258" lon="1.30023">
        <ele>338.2</ele>
        <time>2024-11-05T15:48:02Z</time>
      </trkpt>
      <trkpt lat="45.88254" lon="1.30025">
        <ele>338.1</ele>
        <time>2024-11-05T15:48:03Z</time>
      </trkpt>
      <trkpt lat="45.8825" lon="1.30029">
        <ele>337.9</ele>
        <time>2024-11-05T15:48:04Z</time>
      </trkpt>
      <trkpt lat="45.88247" lon="1.30033">
        <ele>337.8</ele>
        <time>2024-11-05T15:48:05Z</time>
      </trkpt>
      <trkpt lat="45.88245" lon="1.30037">
        <ele>337.7</ele>
        <time>2024-11-05T15:48:06Z</time>
      </trkpt>
      <trkpt lat="45.88242" lon="1.3004">
        <ele>337.5</ele>
        <time>2024-11-05T15:48:07Z</time>
      </trkpt>
      <trkpt lat="45.8824" lon="1.30043">
        <ele>337.4</ele>
        <time>2024-11-05T15:48:08Z</time>
      </trkpt>
      <trkpt lat="45.88236" lon="1.30045">
        <ele>337.1</ele>
        <time>2024-11-05T15:48:09Z</time>
      </trkpt>
      <trkpt lat="45.88232" lon="1.30048">
        <ele>336.8</ele>
        <time>2024-11-05T15:48:10Z</time>
      </trkpt>
      <trkpt lat="45.88229" lon="1.3005">
        <ele>336.6</ele>
        <time>2024-11-05T15:48:11Z</time>
      </trkpt>
      <trkpt lat="45.88225" lon="1.30053">
        <ele>336.2</ele>
        <time>2024-11-05T15:48:12Z</time>
      </trkpt>
      <trkpt lat="45.88223" lon="1.30055">
        <ele>336</ele>
        <time>2024-11-05T15:48:13Z</time>
      </trkpt>
      <trkpt lat="45.8822" lon="1.30059">
        <ele>335.7</ele>
        <time>2024-11-05T15:48:14Z</time>
      </trkpt>
      <trkpt lat="45.88218" lon="1.30063">
        <ele>335.5</ele>
        <time>2024-11-05T15:48:15Z</time>
      </trkpt>
      <trkpt lat="45.88217" lon="1.30067">
        <ele>335.2</ele>
        <time>2024-11-05T15:48:16Z</time>
      </trkpt>
      <trkpt lat="45.88216" lon="1.30072">
        <ele>334.9</ele>
        <time>2024-11-05T15:48:17Z</time>
      </trkpt>
      <trkpt lat="45.88216" lon="1.30077">
        <ele>334.7</ele>
        <time>2024-11-05T15:48:18Z</time>
      </trkpt>
      <trkpt lat="45.88216" lon="1.30084">
        <ele>334.4</ele>
        <time>2024-11-05T15:48:19Z</time>
      </trkpt>
      <trkpt lat="45.88217" lon="1.3009">
        <ele>334.1</ele>
        <time>2024-11-05T15:48:20Z</time>
      </trkpt>
      <trkpt lat="45.88219" lon="1.30097">
        <ele>333.9</ele>
        <time>2024-11-05T15:48:21Z</time>
      </trkpt>
      <trkpt lat="45.88221" lon="1.30104">
        <ele>333.6</ele>
        <time>2024-11-05T15:48:22Z</time>
      </trkpt>
      <trkpt lat="45.88223" lon="1.30112">
        <ele>333.4</ele>
        <time>2024-11-05T15:48:23Z</time>
      </trkpt>
      <trkpt lat="45.88225" lon="1.30119">
        <ele>333.3</ele>
        <time>2024-11-05T15:48:24Z</time>
      </trkpt>
      <trkpt lat="45.88227" lon="1.30126">
        <ele>333.1</ele>
        <time>2024-11-05T15:48:25Z</time>
      </trkpt>
      <trkpt lat="45.88228" lon="1.30132">
        <ele>333</ele>
        <time>2024-11-05T15:48:26Z</time>
      </trkpt>
      <trkpt lat="45.88229" lon="1.30139">
        <ele>332.8</ele>
        <time>2024-11-05T15:48:27Z</time>
      </trkpt>
      <trkpt lat="45.88231" lon="1.30146">
        <ele>332.7</ele>
        <time>2024-11-05T15:48:28Z</time>
      </trkpt>
      <trkpt lat="45.88234" lon="1.30152">
        <ele>332.5</ele>
        <time>2024-11-05T15:48:29Z</time>
      </trkpt>
      <trkpt lat="45.88237" lon="1.30159">
        <ele>332.4</ele>
        <time>2024-11-05T15:48:30Z</time>
      </trkpt>
      <trkpt lat="45.8824" lon="1.30165">
        <ele>332.3</ele>
        <time>2024-11-05T15:48:31Z</time>
      </trkpt>
      <trkpt lat="45.88243" lon="1.30172">
        <ele>332.2</ele>
        <time>2024-11-05T15:48:32Z</time>
      </trkpt>
      <trkpt lat="45.88246" lon="1.30178">
        <ele>332.1</ele>
        <time>2024-11-05T15:48:33Z</time>
      </trkpt>
      <trkpt lat="45.88249" lon="1.30185">
        <ele>332</ele>
        <time>2024-11-05T15:48:34Z</time>
      </trkpt>
      <trkpt lat="45.88252" lon="1.30191">
        <ele>331.9</ele>
        <time>2024-11-05T15:48:35Z</time>
      </trkpt>
      <trkpt lat="45.88255" lon="1.30198">
        <ele>331.9</ele>
        <time>2024-11-05T15:48:36Z</time>
      </trkpt>
      <trkpt lat="45.88258" lon="1.30204">
        <ele>331.8</ele>
        <time>2024-11-05T15:48:37Z</time>
      </trkpt>
      <trkpt lat="45.88261" lon="1.30209">
        <ele>331.8</ele>
        <time>2024-11-05T15:48:38Z</time>
      </trkpt>
      <trkpt lat="45.88264" lon="1.30213">
        <ele>331.8</ele>
        <time>2024-11-05T15:48:39Z</time>
      </trkpt>
      <trkpt lat="45.88267" lon="1.30216">
        <ele>331.8</ele>
        <time>2024-11-05T15:48:40Z</time>
      </trkpt>
      <trkpt lat="45.88268" lon="1.3022">
        <ele>331.8</ele>
        <time>2024-11-05T15:48:42Z</time>
      </trkpt>
      <trkpt lat="45.88268" lon="1.30225">
        <ele>332</ele>
        <time>2024-11-05T15:48:44Z</time>
      </trkpt>
      <trkpt lat="45.88267" lon="1.3023">
        <ele>332.2</ele>
        <time>2024-11-05T15:48:46Z</time>
      </trkpt>
      <trkpt lat="45.88266" lon="1.30234">
        <ele>332.5</ele>
        <time>2024-11-05T15:48:49Z</time>
      </trkpt>
      <trkpt lat="45.88265" lon="1.30239">
        <ele>332.8</ele>
        <time>2024-11-05T15:48:52Z</time>
      </trkpt>
      <trkpt lat="45.88266" lon="1.30244">
        <ele>332.8</ele>
        <time>2024-11-05T15:48:54Z</time>
      </trkpt>
      <trkpt lat="45.88267" lon="1.30251">
        <ele>332.7</ele>
        <time>2024-11-05T15:48:56Z</time>
      </trkpt>
      <trkpt lat="45.88268" lon="1.30256">
        <ele>332.6</ele>
        <time>2024-11-05T15:48:57Z</time>
      </trkpt>
      <trkpt lat="45.88269" lon="1.30261">
        <ele>332.6</ele>
        <time>2024-11-05T15:48:58Z</time>
      </trkpt>
      <trkpt lat="45.8827" lon="1.30266">
        <ele>332.5</ele>
        <time>2024-11-05T15:48:59Z</time>
      </trkpt>
      <trkpt lat="45.8827" lon="1.30272">
        <ele>332.5</ele>
        <time>2024-11-05T15:49:00Z</time>
      </trkpt>
      <trkpt lat="45.8827" lon="1.30277">
        <ele>332.5</ele>
        <time>2024-11-05T15:49:01Z</time>
      </trkpt>
      <trkpt lat="45.8827" lon="1.30282">
        <ele>332.5</ele>
        <time>2024-11-05T15:49:02Z</time>
      </trkpt>
      <trkpt lat="45.88269" lon="1.30286">
        <ele>332.5</ele>
        <time>2024-11-05T15:49:03Z</time>
      </trkpt>
      <trkpt lat="45.88267" lon="1.30291">
        <ele>332.6</ele>
        <time>2024-11-05T15:49:04Z</time>
      </trkpt>
      <trkpt lat="45.88265" lon="1.30295">
        <ele>332.6</ele>
        <time>2024-11-05T15:49:05Z</time>
      </trkpt>
      <trkpt lat="45.88262" lon="1.30299">
        <ele>332.6</ele>
        <time>2024-11-05T15:49:06Z</time>
      </trkpt>
      <trkpt lat="45.88259" lon="1.30302">
        <ele>332.6</ele>
        <time>2024-11-05T15:49:07Z</time>
      </trkpt>
      <trkpt lat="45.88255" lon="1.30306">
        <ele>332.7</ele>
        <time>2024-11-05T15:49:08Z</time>
      </trkpt>
      <trkpt lat="45.88252" lon="1.30308">
        <ele>332.7</ele>
        <time>2024-11-05T15:49:09Z</time>
      </trkpt>
      <trkpt lat="45.88248" lon="1.30311">
        <ele>332.7</ele>
        <time>2024-11-05T15:49:10Z</time>
      </trkpt>
      <trkpt lat="45.88244" lon="1.30314">
        <ele>332.8</ele>
        <time>2024-11-05T15:49:11Z</time>
      </trkpt>
      <trkpt lat="45.88241" lon="1.30316">
        <ele>332.8</ele>
        <time>2024-11-05T15:49:12Z</time>
      </trkpt>
      <trkpt lat="45.88237" lon="1.30318">
        <ele>332.8</ele>
        <time>2024-11-05T15:49:13Z</time>
      </trkpt>
      <trkpt lat="45.88234" lon="1.3032">
        <ele>332.8</ele>
        <time>2024-11-05T15:49:14Z</time>
      </trkpt>
      <trkpt lat="45.8823" lon="1.30322">
        <ele>332.8</ele>
        <time>2024-11-05T15:49:15Z</time>
      </trkpt>
      <trkpt lat="45.88227" lon="1.30323">
        <ele>332.8</ele>
        <time>2024-11-05T15:49:16Z</time>
      </trkpt>
      <trkpt lat="45.88223" lon="1.30323">
        <ele>332.8</ele>
        <time>2024-11-05T15:49:17Z</time>
      </trkpt>
      <trkpt lat="45.8822" lon="1.30324">
        <ele>332.7</ele>
        <time>2024-11-05T15:49:18Z</time>
      </trkpt>
      <trkpt lat="45.88216" lon="1.30324">
        <ele>332.7</ele>
        <time>2024-11-05T15:49:19Z</time>
      </trkpt>
      <trkpt lat="45.88212" lon="1.30325">
        <ele>332.7</ele>
        <time>2024-11-05T15:49:20Z</time>
      </trkpt>
      <trkpt lat="45.88208" lon="1.30326">
        <ele>332.7</ele>
        <time>2024-11-05T15:49:21Z</time>
      </trkpt>
      <trkpt lat="45.88203" lon="1.30327">
        <ele>332.7</ele>
        <time>2024-11-05T15:49:22Z</time>
      </trkpt>
      <trkpt lat="45.882" lon="1.30329">
        <ele>332.7</ele>
        <time>2024-11-05T15:49:23Z</time>
      </trkpt>
      <trkpt lat="45.88196" lon="1.3033">
        <ele>332.7</ele>
        <time>2024-11-05T15:49:24Z</time>
      </trkpt>
      <trkpt lat="45.88192" lon="1.30332">
        <ele>332.7</ele>
        <time>2024-11-05T15:49:25Z</time>
      </trkpt>
      <trkpt lat="45.88188" lon="1.30333">
        <ele>332.7</ele>
        <time>2024-11-05T15:49:26Z</time>
      </trkpt>
      <trkpt lat="45.88184" lon="1.30334">
        <ele>332.7</ele>
        <time>2024-11-05T15:49:27Z</time>
      </trkpt>
      <trkpt lat="45.8818" lon="1.30335">
        <ele>332.8</ele>
        <time>2024-11-05T15:49:28Z</time>
      </trkpt>
      <trkpt lat="45.88175" lon="1.30335">
        <ele>332.8</ele>
        <time>2024-11-05T15:49:29Z</time>
      </trkpt>
      <trkpt lat="45.88171" lon="1.30335">
        <ele>332.9</ele>
        <time>2024-11-05T15:49:30Z</time>
      </trkpt>
      <trkpt lat="45.88168" lon="1.30335">
        <ele>332.9</ele>
        <time>2024-11-05T15:49:31Z</time>
      </trkpt>
      <trkpt lat="45.88164" lon="1.30336">
        <ele>333</ele>
        <time>2024-11-05T15:49:32Z</time>
      </trkpt>
      <trkpt lat="45.8816" lon="1.30335">
        <ele>333.1</ele>
        <time>2024-11-05T15:49:33Z</time>
      </trkpt>
      <trkpt lat="45.88157" lon="1.30334">
        <ele>333.2</ele>
        <time>2024-11-05T15:49:34Z</time>
      </trkpt>
      <trkpt lat="45.88153" lon="1.30333">
        <ele>333.4</ele>
        <time>2024-11-05T15:49:35Z</time>
      </trkpt>
      <trkpt lat="45.8815" lon="1.30331">
        <ele>333.5</ele>
        <time>2024-11-05T15:49:36Z</time>
      </trkpt>
      <trkpt lat="45.88147" lon="1.30328">
        <ele>333.7</ele>
        <time>2024-11-05T15:49:37Z</time>
      </trkpt>
      <trkpt lat="45.88145" lon="1.30326">
        <ele>333.8</ele>
        <time>2024-11-05T15:49:38Z</time>
      </trkpt>
      <trkpt lat="45.88142" lon="1.30324">
        <ele>333.9</ele>
        <time>2024-11-05T15:49:39Z</time>
      </trkpt>
      <trkpt lat="45.8814" lon="1.30321">
        <ele>334</ele>
        <time>2024-11-05T15:49:40Z</time>
      </trkpt>
      <trkpt lat="45.88137" lon="1.30319">
        <ele>334.2</ele>
        <time>2024-11-05T15:49:41Z</time>
      </trkpt>
      <trkpt lat="45.88135" lon="1.30315">
        <ele>334.3</ele>
        <time>2024-11-05T15:49:42Z</time>
      </trkpt>
      <trkpt lat="45.88133" lon="1.30312">
        <ele>334.4</ele>
        <time>2024-11-05T15:49:43Z</time>
      </trkpt>
      <trkpt lat="45.88131" lon="1.30308">
        <ele>334.5</ele>
        <time>2024-11-05T15:49:44Z</time>
      </trkpt>
      <trkpt lat="45.88128" lon="1.30305">
        <ele>334.6</ele>
        <time>2024-11-05T15:49:45Z</time>
      </trkpt>
      <trkpt lat="45.88126" lon="1.30301">
        <ele>334.8</ele>
        <time>2024-11-05T15:49:46Z</time>
      </trkpt>
      <trkpt lat="45.88124" lon="1.30298">
        <ele>334.9</ele>
        <time>2024-11-05T15:49:47Z</time>
      </trkpt>
      <trkpt lat="45.88122" lon="1.30294">
        <ele>335</ele>
        <time>2024-11-05T15:49:48Z</time>
      </trkpt>
      <trkpt lat="45.8812" lon="1.30291">
        <ele>335.1</ele>
        <time>2024-11-05T15:49:49Z</time>
      </trkpt>
      <trkpt lat="45.88117" lon="1.30288">
        <ele>335.2</ele>
        <time>2024-11-05T15:49:50Z</time>
      </trkpt>
      <trkpt lat="45.88115" lon="1.30285">
        <ele>335.2</ele>
        <time>2024-11-05T15:49:51Z</time>
      </trkpt>
      <trkpt lat="45.88112" lon="1.30282">
        <ele>335.2</ele>
        <time>2024-11-05T15:49:52Z</time>
      </trkpt>
      <trkpt lat="45.8811" lon="1.30279">
        <ele>335.2</ele>
        <time>2024-11-05T15:49:53Z</time>
      </trkpt>
      <trkpt lat="45.88108" lon="1.30276">
        <ele>335.2</ele>
        <time>2024-11-05T15:49:54Z</time>
      </trkpt>
      <trkpt lat="45.88105" lon="1.30273">
        <ele>335.3</ele>
        <time>2024-11-05T15:49:55Z</time>
      </trkpt>
      <trkpt lat="45.88103" lon="1.3027">
        <ele>335.3</ele>
        <time>2024-11-05T15:49:56Z</time>
      </trkpt>
      <trkpt lat="45.88101" lon="1.30267">
        <ele>335.3</ele>
        <time>2024-11-05T15:49:57Z</time>
      </trkpt>
      <trkpt lat="45.88098" lon="1.30264">
        <ele>335.4</ele>
        <time>2024-11-05T15:49:58Z</time>
      </trkpt>
      <trkpt lat="45.88096" lon="1.30261">
        <ele>335.5</ele>
        <time>2024-11-05T15:49:59Z</time>
      </trkpt>
      <trkpt lat="45.88094" lon="1.30259">
        <ele>335.5</ele>
        <time>2024-11-05T15:50:00Z</time>
      </trkpt>
      <trkpt lat="45.88092" lon="1.30255">
        <ele>335.6</ele>
        <time>2024-11-05T15:50:01Z</time>
      </trkpt>
      <trkpt lat="45.8809" lon="1.30252">
        <ele>335.7</ele>
        <time>2024-11-05T15:50:02Z</time>
      </trkpt>
      <trkpt lat="45.88088" lon="1.30249">
        <ele>335.9</ele>
        <time>2024-11-05T15:50:03Z</time>
      </trkpt>
      <trkpt lat="45.88086" lon="1.30246">
        <ele>336</ele>
        <time>2024-11-05T15:50:04Z</time>
      </trkpt>
      <trkpt lat="45.88084" lon="1.30243">
        <ele>336.1</ele>
        <time>2024-11-05T15:50:05Z</time>
      </trkpt>
      <trkpt lat="45.88081" lon="1.30241">
        <ele>336.2</ele>
        <time>2024-11-05T15:50:06Z</time>
      </trkpt>
      <trkpt lat="45.88079" lon="1.30238">
        <ele>336.3</ele>
        <time>2024-11-05T15:50:07Z</time>
      </trkpt>
      <trkpt lat="45.88077" lon="1.30233">
        <ele>336.4</ele>
        <time>2024-11-05T15:50:09Z</time>
      </trkpt>
      <trkpt lat="45.88074" lon="1.30229">
        <ele>336.6</ele>
        <time>2024-11-05T15:50:11Z</time>
      </trkpt>
      <trkpt lat="45.88071" lon="1.30227">
        <ele>336.7</ele>
        <time>2024-11-05T15:50:13Z</time>
      </trkpt>
      <trkpt lat="45.88067" lon="1.30226">
        <ele>336.8</ele>
        <time>2024-11-05T15:50:15Z</time>
      </trkpt>
      <trkpt lat="45.88064" lon="1.30227">
        <ele>336.8</ele>
        <time>2024-11-05T15:50:16Z</time>
      </trkpt>
      <trkpt lat="45.88061" lon="1.30229">
        <ele>336.7</ele>
        <time>2024-11-05T15:50:17Z</time>
      </trkpt>
      <trkpt lat="45.88058" lon="1.30231">
        <ele>336.6</ele>
        <time>2024-11-05T15:50:18Z</time>
      </trkpt>
      <trkpt lat="45.88055" lon="1.30233">
        <ele>336.6</ele>
        <time>2024-11-05T15:50:19Z</time>
      </trkpt>
      <trkpt lat="45.88052" lon="1.30236">
        <ele>336.5</ele>
        <time>2024-11-05T15:50:20Z</time>
      </trkpt>
      <trkpt lat="45.88049" lon="1.3024">
        <ele>336.4</ele>
        <time>2024-11-05T15:50:21Z</time>
      </trkpt>
      <trkpt lat="45.88046" lon="1.30243">
        <ele>336.4</ele>
        <time>2024-11-05T15:50:22Z</time>
      </trkpt>
      <trkpt lat="45.88043" lon="1.30246">
        <ele>336.3</ele>
        <time>2024-11-05T15:50:23Z</time>
      </trkpt>
      <trkpt lat="45.8804" lon="1.30249">
        <ele>336.3</ele>
        <time>2024-11-05T15:50:24Z</time>
      </trkpt>
      <trkpt lat="45.88037" lon="1.30253">
        <ele>336.3</ele>
        <time>2024-11-05T15:50:25Z</time>
      </trkpt>
      <trkpt lat="45.88034" lon="1.30256">
        <ele>336.3</ele>
        <time>2024-11-05T15:50:26Z</time>
      </trkpt>
      <trkpt lat="45.88031" lon="1.30258">
        <ele>336.3</ele>
        <time>2024-11-05T15:50:27Z</time>
      </trkpt>
      <trkpt lat="45.88028" lon="1.30261">
        <ele>336.4</ele>
        <time>2024-11-05T15:50:28Z</time>
      </trkpt>
      <trkpt lat="45.88025" lon="1.30264">
        <ele>336.4</ele>
        <time>2024-11-05T15:50:29Z</time>
      </trkpt>
      <trkpt lat="45.88022" lon="1.30267">
        <ele>336.4</ele>
        <time>2024-11-05T15:50:30Z</time>
      </trkpt>
      <trkpt lat="45.88019" lon="1.30269">
        <ele>336.5</ele>
        <time>2024-11-05T15:50:31Z</time>
      </trkpt>
      <trkpt lat="45.88016" lon="1.30272">
        <ele>336.5</ele>
        <time>2024-11-05T15:50:32Z</time>
      </trkpt>
      <trkpt lat="45.88013" lon="1.30275">
        <ele>336.6</ele>
        <time>2024-11-05T15:50:33Z</time>
      </trkpt>
      <trkpt lat="45.8801" lon="1.30278">
        <ele>336.7</ele>
        <time>2024-11-05T15:50:34Z</time>
      </trkpt>
      <trkpt lat="45.88007" lon="1.30281">
        <ele>336.8</ele>
        <time>2024-11-05T15:50:35Z</time>
      </trkpt>
      <trkpt lat="45.88004" lon="1.30284">
        <ele>336.9</ele>
        <time>2024-11-05T15:50:36Z</time>
      </trkpt>
      <trkpt lat="45.88002" lon="1.30287">
        <ele>336.9</ele>
        <time>2024-11-05T15:50:37Z</time>
      </trkpt>
      <trkpt lat="45.87999" lon="1.3029">
        <ele>337</ele>
        <time>2024-11-05T15:50:38Z</time>
      </trkpt>
      <trkpt lat="45.87997" lon="1.30293">
        <ele>337.1</ele>
        <time>2024-11-05T15:50:39Z</time>
      </trkpt>
      <trkpt lat="45.87994" lon="1.30296">
        <ele>337.2</ele>
        <time>2024-11-05T15:50:40Z</time>
      </trkpt>
      <trkpt lat="45.87991" lon="1.30299">
        <ele>337.3</ele>
        <time>2024-11-05T15:50:41Z</time>
      </trkpt>
      <trkpt lat="45.87989" lon="1.30301">
        <ele>337.5</ele>
        <time>2024-11-05T15:50:42Z</time>
      </trkpt>
      <trkpt lat="45.87986" lon="1.30304">
        <ele>337.7</ele>
        <time>2024-11-05T15:50:43Z</time>
      </trkpt>
      <trkpt lat="45.87984" lon="1.30307">
        <ele>337.8</ele>
        <time>2024-11-05T15:50:44Z</time>
      </trkpt>
      <trkpt lat="45.87981" lon="1.30309">
        <ele>338</ele>
        <time>2024-11-05T15:50:45Z</time>
      </trkpt>
      <trkpt lat="45.87977" lon="1.30312">
        <ele>338.3</ele>
        <time>2024-11-05T15:50:47Z</time>
      </trkpt>
      <trkpt lat="45.87974" lon="1.30315">
        <ele>338.5</ele>
        <time>2024-11-05T15:50:48Z</time>
      </trkpt>
      <trkpt lat="45.87971" lon="1.30318">
        <ele>338.7</ele>
        <time>2024-11-05T15:50:49Z</time>
      </trkpt>
      <trkpt lat="45.87968" lon="1.3032">
        <ele>338.9</ele>
        <time>2024-11-05T15:50:50Z</time>
      </trkpt>
      <trkpt lat="45.87966" lon="1.30323">
        <ele>339.1</ele>
        <time>2024-11-05T15:50:51Z</time>
      </trkpt>
      <trkpt lat="45.87963" lon="1.30326">
        <ele>339.4</ele>
        <time>2024-11-05T15:50:52Z</time>
      </trkpt>
      <trkpt lat="45.8796" lon="1.30328">
        <ele>339.6</ele>
        <time>2024-11-05T15:50:53Z</time>
      </trkpt>
      <trkpt lat="45.87957" lon="1.30331">
        <ele>339.8</ele>
        <time>2024-11-05T15:50:54Z</time>
      </trkpt>
      <trkpt lat="45.87955" lon="1.30333">
        <ele>340</ele>
        <time>2024-11-05T15:50:55Z</time>
      </trkpt>
      <trkpt lat="45.87952" lon="1.30336">
        <ele>340.2</ele>
        <time>2024-11-05T15:50:56Z</time>
      </trkpt>
      <trkpt lat="45.8795" lon="1.30339">
        <ele>340.4</ele>
        <time>2024-11-05T15:50:57Z</time>
      </trkpt>
      <trkpt lat="45.87947" lon="1.30341">
        <ele>340.6</ele>
        <time>2024-11-05T15:50:58Z</time>
      </trkpt>
      <trkpt lat="45.87945" lon="1.30344">
        <ele>340.8</ele>
        <time>2024-11-05T15:50:59Z</time>
      </trkpt>
      <trkpt lat="45.87943" lon="1.30346">
        <ele>340.8</ele>
        <time>2024-11-05T15:51:00Z</time>
      </trkpt>
      <trkpt lat="45.87941" lon="1.30348">
        <ele>340.9</ele>
        <time>2024-11-05T15:51:01Z</time>
      </trkpt>
      <trkpt lat="45.87938" lon="1.30351">
        <ele>341</ele>
        <time>2024-11-05T15:51:02Z</time>
      </trkpt>
      <trkpt lat="45.87936" lon="1.30353">
        <ele>341</ele>
        <time>2024-11-05T15:51:03Z</time>
      </trkpt>
      <trkpt lat="45.87934" lon="1.30356">
        <ele>341.2</ele>
        <time>2024-11-05T15:51:04Z</time>
      </trkpt>
      <trkpt lat="45.87932" lon="1.30358">
        <ele>341.4</ele>
        <time>2024-11-05T15:51:05Z</time>
      </trkpt>
      <trkpt lat="45.87929" lon="1.30361">
        <ele>341.6</ele>
        <time>2024-11-05T15:51:06Z</time>
      </trkpt>
      <trkpt lat="45.87927" lon="1.30364">
        <ele>341.8</ele>
        <time>2024-11-05T15:51:07Z</time>
      </trkpt>
      <trkpt lat="45.87924" lon="1.30367">
        <ele>342</ele>
        <time>2024-11-05T15:51:08Z</time>
      </trkpt>
      <trkpt lat="45.87922" lon="1.30369">
        <ele>342.1</ele>
        <time>2024-11-05T15:51:09Z</time>
      </trkpt>
      <trkpt lat="45.87919" lon="1.30371">
        <ele>342.3</ele>
        <time>2024-11-05T15:51:10Z</time>
      </trkpt>
      <trkpt lat="45.87917" lon="1.30374">
        <ele>342.5</ele>
        <time>2024-11-05T15:51:11Z</time>
      </trkpt>
      <trkpt lat="45.87914" lon="1.30376">
        <ele>342.7</ele>
        <time>2024-11-05T15:51:12Z</time>
      </trkpt>
      <trkpt lat="45.87912" lon="1.30378">
        <ele>342.9</ele>
        <time>2024-11-05T15:51:13Z</time>
      </trkpt>
      <trkpt lat="45.87908" lon="1.30382">
        <ele>343.2</ele>
        <time>2024-11-05T15:51:15Z</time>
      </trkpt>
      <trkpt lat="45.87905" lon="1.30385">
        <ele>343.4</ele>
        <time>2024-11-05T15:51:16Z</time>
      </trkpt>
      <trkpt lat="45.87902" lon="1.30388">
        <ele>343.6</ele>
        <time>2024-11-05T15:51:17Z</time>
      </trkpt>
      <trkpt lat="45.87899" lon="1.3039">
        <ele>343.8</ele>
        <time>2024-11-05T15:51:18Z</time>
      </trkpt>
      <trkpt lat="45.87897" lon="1.30393">
        <ele>343.9</ele>
        <time>2024-11-05T15:51:19Z</time>
      </trkpt>
      <trkpt lat="45.87894" lon="1.30396">
        <ele>344.1</ele>
        <time>2024-11-05T15:51:20Z</time>
      </trkpt>
      <trkpt lat="45.87892" lon="1.30399">
        <ele>344.3</ele>
        <time>2024-11-05T15:51:21Z</time>
      </trkpt>
      <trkpt lat="45.87889" lon="1.30401">
        <ele>344.5</ele>
        <time>2024-11-05T15:51:22Z</time>
      </trkpt>
      <trkpt lat="45.87886" lon="1.30404">
        <ele>344.6</ele>
        <time>2024-11-05T15:51:23Z</time>
      </trkpt>
      <trkpt lat="45.87884" lon="1.30406">
        <ele>344.7</ele>
        <time>2024-11-05T15:51:24Z</time>
      </trkpt>
      <trkpt lat="45.87881" lon="1.30409">
        <ele>344.9</ele>
        <time>2024-11-05T15:51:25Z</time>
      </trkpt>
      <trkpt lat="45.87879" lon="1.30411">
        <ele>345</ele>
        <time>2024-11-05T15:51:26Z</time>
      </trkpt>
      <trkpt lat="45.87876" lon="1.30414">
        <ele>345.2</ele>
        <time>2024-11-05T15:51:27Z</time>
      </trkpt>
      <trkpt lat="45.87873" lon="1.30416">
        <ele>345.3</ele>
        <time>2024-11-05T15:51:28Z</time>
      </trkpt>
      <trkpt lat="45.8787" lon="1.30419">
        <ele>345.5</ele>
        <time>2024-11-05T15:51:29Z</time>
      </trkpt>
      <trkpt lat="45.87868" lon="1.30421">
        <ele>345.6</ele>
        <time>2024-11-05T15:51:30Z</time>
      </trkpt>
      <trkpt lat="45.87865" lon="1.30424">
        <ele>345.7</ele>
        <time>2024-11-05T15:51:31Z</time>
      </trkpt>
      <trkpt lat="45.87863" lon="1.30426">
        <ele>345.8</ele>
        <time>2024-11-05T15:51:32Z</time>
      </trkpt>
      <trkpt lat="45.8786" lon="1.30428">
        <ele>345.9</ele>
        <time>2024-11-05T15:51:33Z</time>
      </trkpt>
      <trkpt lat="45.87857" lon="1.30432">
        <ele>346</ele>
        <time>2024-11-05T15:51:35Z</time>
      </trkpt>
      <trkpt lat="45.87852" lon="1.30436">
        <ele>346.1</ele>
        <time>2024-11-05T15:51:37Z</time>
      </trkpt>
      <trkpt lat="45.87849" lon="1.30438">
        <ele>346.2</ele>
        <time>2024-11-05T15:51:38Z</time>
      </trkpt>
      <trkpt lat="45.87847" lon="1.30441">
        <ele>346.2</ele>
        <time>2024-11-05T15:51:39Z</time>
      </trkpt>
      <trkpt lat="45.87844" lon="1.30443">
        <ele>346.3</ele>
        <time>2024-11-05T15:51:40Z</time>
      </trkpt>
      <trkpt lat="45.87841" lon="1.30447">
        <ele>346.3</ele>
        <time>2024-11-05T15:51:42Z</time>
      </trkpt>
      <trkpt lat="45.87838" lon="1.3045">
        <ele>346.4</ele>
        <time>2024-11-05T15:51:43Z</time>
      </trkpt>
      <trkpt lat="45.87836" lon="1.30452">
        <ele>346.4</ele>
        <time>2024-11-05T15:51:44Z</time>
      </trkpt>
      <trkpt lat="45.87833" lon="1.30455">
        <ele>346.5</ele>
        <time>2024-11-05T15:51:45Z</time>
      </trkpt>
      <trkpt lat="45.8783" lon="1.30457">
        <ele>346.5</ele>
        <time>2024-11-05T15:51:46Z</time>
      </trkpt>
      <trkpt lat="45.87827" lon="1.3046">
        <ele>346.5</ele>
        <time>2024-11-05T15:51:47Z</time>
      </trkpt>
      <trkpt lat="45.87825" lon="1.30463">
        <ele>346.6</ele>
        <time>2024-11-05T15:51:48Z</time>
      </trkpt>
      <trkpt lat="45.87822" lon="1.30466">
        <ele>346.6</ele>
        <time>2024-11-05T15:51:49Z</time>
      </trkpt>
      <trkpt lat="45.87819" lon="1.30469">
        <ele>346.7</ele>
        <time>2024-11-05T15:51:50Z</time>
      </trkpt>
      <trkpt lat="45.87816" lon="1.30471">
        <ele>346.7</ele>
        <time>2024-11-05T15:51:51Z</time>
      </trkpt>
      <trkpt lat="45.87814" lon="1.30474">
        <ele>346.8</ele>
        <time>2024-11-05T15:51:52Z</time>
      </trkpt>
      <trkpt lat="45.87812" lon="1.30477">
        <ele>346.8</ele>
        <time>2024-11-05T15:51:53Z</time>
      </trkpt>
      <trkpt lat="45.8781" lon="1.30481">
        <ele>346.9</ele>
        <time>2024-11-05T15:51:55Z</time>
      </trkpt>
      <trkpt lat="45.87807" lon="1.30485">
        <ele>346.9</ele>
        <time>2024-11-05T15:52:14Z</time>
      </trkpt>
      <trkpt lat="45.87806" lon="1.30489">
        <ele>346.9</ele>
        <time>2024-11-05T15:52:16Z</time>
      </trkpt>
      <trkpt lat="45.87804" lon="1.30493">
        <ele>346.9</ele>
        <time>2024-11-05T15:52:18Z</time>
      </trkpt>
      <trkpt lat="45.87806" lon="1.30497">
        <ele>346.9</ele>
        <time>2024-11-05T15:52:20Z</time>
      </trkpt>
      <trkpt lat="45.87808" lon="1.30501">
        <ele>346.8</ele>
        <time>2024-11-05T15:52:21Z</time>
      </trkpt>
      <trkpt lat="45.87811" lon="1.30504">
        <ele>346.7</ele>
        <time>2024-11-05T15:52:22Z</time>
      </trkpt>
      <trkpt lat="45.87813" lon="1.30507">
        <ele>346.6</ele>
        <time>2024-11-05T15:52:23Z</time>
      </trkpt>
      <trkpt lat="45.87816" lon="1.30511">
        <ele>346.5</ele>
        <time>2024-11-05T15:52:24Z</time>
      </trkpt>
      <trkpt lat="45.87818" lon="1.30516">
        <ele>346.4</ele>
        <time>2024-11-05T15:52:25Z</time>
      </trkpt>
      <trkpt lat="45.8782" lon="1.3052">
        <ele>346.3</ele>
        <time>2024-11-05T15:52:26Z</time>
      </trkpt>
      <trkpt lat="45.87823" lon="1.30524">
        <ele>346.1</ele>
        <time>2024-11-05T15:52:27Z</time>
      </trkpt>
      <trkpt lat="45.87826" lon="1.30527">
        <ele>346</ele>
        <time>2024-11-05T15:52:28Z</time>
      </trkpt>
      <trkpt lat="45.8783" lon="1.3053">
        <ele>345.9</ele>
        <time>2024-11-05T15:52:29Z</time>
      </trkpt>
      <trkpt lat="45.87833" lon="1.30533">
        <ele>345.8</ele>
        <time>2024-11-05T15:52:30Z</time>
      </trkpt>
      <trkpt lat="45.87836" lon="1.30536">
        <ele>345.7</ele>
        <time>2024-11-05T15:52:31Z</time>
      </trkpt>
      <trkpt lat="45.87839" lon="1.30539">
        <ele>345.6</ele>
        <time>2024-11-05T15:52:32Z</time>
      </trkpt>
      <trkpt lat="45.87843" lon="1.30542">
        <ele>345.4</ele>
        <time>2024-11-05T15:52:33Z</time>
      </trkpt>
      <trkpt lat="45.87846" lon="1.30545">
        <ele>345.3</ele>
        <time>2024-11-05T15:52:34Z</time>
      </trkpt>
      <trkpt lat="45.8785" lon="1.30547">
        <ele>345.2</ele>
        <time>2024-11-05T15:52:35Z</time>
      </trkpt>
      <trkpt lat="45.87853" lon="1.30551">
        <ele>345.1</ele>
        <time>2024-11-05T15:52:36Z</time>
      </trkpt>
      <trkpt lat="45.87857" lon="1.30554">
        <ele>344.9</ele>
        <time>2024-11-05T15:52:37Z</time>
      </trkpt>
      <trkpt lat="45.87861" lon="1.30557">
        <ele>344.8</ele>
        <time>2024-11-05T15:52:38Z</time>
      </trkpt>
      <trkpt lat="45.87864" lon="1.3056">
        <ele>344.7</ele>
        <time>2024-11-05T15:52:39Z</time>
      </trkpt>
      <trkpt lat="45.87868" lon="1.30562">
        <ele>344.5</ele>
        <time>2024-11-05T15:52:40Z</time>
      </trkpt>
      <trkpt lat="45.87872" lon="1.30565">
        <ele>344.4</ele>
        <time>2024-11-05T15:52:41Z</time>
      </trkpt>
      <trkpt lat="45.87876" lon="1.30569">
        <ele>344.2</ele>
        <time>2024-11-05T15:52:42Z</time>
      </trkpt>
      <trkpt lat="45.87881" lon="1.30572">
        <ele>344</ele>
        <time>2024-11-05T15:52:43Z</time>
      </trkpt>
      <trkpt lat="45.87885" lon="1.30575">
        <ele>343.9</ele>
        <time>2024-11-05T15:52:44Z</time>
      </trkpt>
      <trkpt lat="45.8789" lon="1.30578">
        <ele>343.7</ele>
        <time>2024-11-05T15:52:45Z</time>
      </trkpt>
      <trkpt lat="45.87894" lon="1.30581">
        <ele>343.5</ele>
        <time>2024-11-05T15:52:46Z</time>
      </trkpt>
      <trkpt lat="45.87899" lon="1.30584">
        <ele>343.3</ele>
        <time>2024-11-05T15:52:47Z</time>
      </trkpt>
      <trkpt lat="45.87904" lon="1.30587">
        <ele>343.2</ele>
        <time>2024-11-05T15:52:48Z</time>
      </trkpt>
      <trkpt lat="45.87908" lon="1.3059">
        <ele>343</ele>
        <time>2024-11-05T15:52:49Z</time>
      </trkpt>
      <trkpt lat="45.87913" lon="1.30592">
        <ele>342.8</ele>
        <time>2024-11-05T15:52:50Z</time>
      </trkpt>
      <trkpt lat="45.87917" lon="1.30595">
        <ele>342.7</ele>
        <time>2024-11-05T15:52:51Z</time>
      </trkpt>
      <trkpt lat="45.87922" lon="1.30598">
        <ele>342.5</ele>
        <time>2024-11-05T15:52:52Z</time>
      </trkpt>
      <trkpt lat="45.87927" lon="1.30601">
        <ele>342.3</ele>
        <time>2024-11-05T15:52:53Z</time>
      </trkpt>
      <trkpt lat="45.87931" lon="1.30604">
        <ele>342.2</ele>
        <time>2024-11-05T15:52:54Z</time>
      </trkpt>
      <trkpt lat="45.87936" lon="1.30607">
        <ele>342.1</ele>
        <time>2024-11-05T15:52:55Z</time>
      </trkpt>
      <trkpt lat="45.87941" lon="1.3061">
        <ele>341.9</ele>
        <time>2024-11-05T15:52:56Z</time>
      </trkpt>
      <trkpt lat="45.87946" lon="1.30613">
        <ele>341.8</ele>
        <time>2024-11-05T15:52:57Z</time>
      </trkpt>
      <trkpt lat="45.8795" lon="1.30615">
        <ele>341.7</ele>
        <time>2024-11-05T15:52:58Z</time>
      </trkpt>
      <trkpt lat="45.87954" lon="1.30621">
        <ele>341.4</ele>
        <time>2024-11-05T15:53:00Z</time>
      </trkpt>
      <trkpt lat="45.87956" lon="1.30626">
        <ele>341.2</ele>
        <time>2024-11-05T15:53:01Z</time>
      </trkpt>
      <trkpt lat="45.87957" lon="1.30632">
        <ele>341</ele>
        <time>2024-11-05T15:53:02Z</time>
      </trkpt>
      <trkpt lat="45.87958" lon="1.30638">
        <ele>340.8</ele>
        <time>2024-11-05T15:53:03Z</time>
      </trkpt>
      <trkpt lat="45.87958" lon="1.30645">
        <ele>340.5</ele>
        <time>2024-11-05T15:53:04Z</time>
      </trkpt>
      <trkpt lat="45.87959" lon="1.30651">
        <ele>340.3</ele>
        <time>2024-11-05T15:53:05Z</time>
      </trkpt>
      <trkpt lat="45.87959" lon="1.30659">
        <ele>340.1</ele>
        <time>2024-11-05T15:53:06Z</time>
      </trkpt>
      <trkpt lat="45.87959" lon="1.30665">
        <ele>339.9</ele>
        <time>2024-11-05T15:53:07Z</time>
      </trkpt>
      <trkpt lat="45.8796" lon="1.30673">
        <ele>339.7</ele>
        <time>2024-11-05T15:53:08Z</time>
      </trkpt>
      <trkpt lat="45.8796" lon="1.30679">
        <ele>339.6</ele>
        <time>2024-11-05T15:53:09Z</time>
      </trkpt>
      <trkpt lat="45.87961" lon="1.30687">
        <ele>339.4</ele>
        <time>2024-11-05T15:53:10Z</time>
      </trkpt>
      <trkpt lat="45.87961" lon="1.30693">
        <ele>339.3</ele>
        <time>2024-11-05T15:53:11Z</time>
      </trkpt>
      <trkpt lat="45.87962" lon="1.30699">
        <ele>339.2</ele>
        <time>2024-11-05T15:53:12Z</time>
      </trkpt>
      <trkpt lat="45.87962" lon="1.30704">
        <ele>339.1</ele>
        <time>2024-11-05T15:53:13Z</time>
      </trkpt>
      <trkpt lat="45.87963" lon="1.3071">
        <ele>339</ele>
        <time>2024-11-05T15:53:15Z</time>
      </trkpt>
      <trkpt lat="45.87962" lon="1.30714">
        <ele>339</ele>
        <time>2024-11-05T15:53:17Z</time>
      </trkpt>
      <trkpt lat="45.87959" lon="1.30719">
        <ele>338.8</ele>
        <time>2024-11-05T15:53:19Z</time>
      </trkpt>
      <trkpt lat="45.87956" lon="1.30722">
        <ele>338.7</ele>
        <time>2024-11-05T15:53:20Z</time>
      </trkpt>
      <trkpt lat="45.87954" lon="1.30726">
        <ele>338.6</ele>
        <time>2024-11-05T15:53:21Z</time>
      </trkpt>
      <trkpt lat="45.87951" lon="1.30729">
        <ele>338.5</ele>
        <time>2024-11-05T15:53:22Z</time>
      </trkpt>
      <trkpt lat="45.87948" lon="1.30733">
        <ele>338.3</ele>
        <time>2024-11-05T15:53:23Z</time>
      </trkpt>
      <trkpt lat="45.87945" lon="1.30737">
        <ele>338.1</ele>
        <time>2024-11-05T15:53:24Z</time>
      </trkpt>
      <trkpt lat="45.87941" lon="1.30742">
        <ele>337.8</ele>
        <time>2024-11-05T15:53:25Z</time>
      </trkpt>
      <trkpt lat="45.87937" lon="1.30747">
        <ele>337.5</ele>
        <time>2024-11-05T15:53:26Z</time>
      </trkpt>
      <trkpt lat="45.87934" lon="1.30753">
        <ele>337.1</ele>
        <time>2024-11-05T15:53:27Z</time>
      </trkpt>
      <trkpt lat="45.87929" lon="1.30758">
        <ele>336.6</ele>
        <time>2024-11-05T15:53:28Z</time>
      </trkpt>
      <trkpt lat="45.87926" lon="1.30764">
        <ele>336.2</ele>
        <time>2024-11-05T15:53:29Z</time>
      </trkpt>
      <trkpt lat="45.87922" lon="1.30769">
        <ele>335.8</ele>
        <time>2024-11-05T15:53:30Z</time>
      </trkpt>
      <trkpt lat="45.87919" lon="1.30774">
        <ele>335.5</ele>
        <time>2024-11-05T15:53:31Z</time>
      </trkpt>
      <trkpt lat="45.87917" lon="1.30778">
        <ele>335.2</ele>
        <time>2024-11-05T15:53:32Z</time>
      </trkpt>
      <trkpt lat="45.87914" lon="1.30782">
        <ele>334.9</ele>
        <time>2024-11-05T15:53:33Z</time>
      </trkpt>
      <trkpt lat="45.87912" lon="1.30785">
        <ele>334.6</ele>
        <time>2024-11-05T15:53:34Z</time>
      </trkpt>
      <trkpt lat="45.8791" lon="1.30788">
        <ele>334.4</ele>
        <time>2024-11-05T15:53:35Z</time>
      </trkpt>
      <trkpt lat="45.87908" lon="1.30792">
        <ele>334.2</ele>
        <time>2024-11-05T15:53:37Z</time>
      </trkpt>
      <trkpt lat="45.87906" lon="1.30795">
        <ele>333.9</ele>
        <time>2024-11-05T15:53:39Z</time>
      </trkpt>
      <trkpt lat="45.87903" lon="1.30799">
        <ele>333.6</ele>
        <time>2024-11-05T15:53:41Z</time>
      </trkpt>
      <trkpt lat="45.879" lon="1.30803">
        <ele>333.3</ele>
        <time>2024-11-05T15:53:42Z</time>
      </trkpt>
      <trkpt lat="45.87897" lon="1.30807">
        <ele>333.1</ele>
        <time>2024-11-05T15:53:43Z</time>
      </trkpt>
      <trkpt lat="45.87894" lon="1.30811">
        <ele>332.8</ele>
        <time>2024-11-05T15:53:44Z</time>
      </trkpt>
      <trkpt lat="45.87891" lon="1.30816">
        <ele>332.4</ele>
        <time>2024-11-05T15:53:45Z</time>
      </trkpt>
      <trkpt lat="45.87887" lon="1.3082">
        <ele>332.1</ele>
        <time>2024-11-05T15:53:46Z</time>
      </trkpt>
      <trkpt lat="45.87884" lon="1.30826">
        <ele>331.7</ele>
        <time>2024-11-05T15:53:47Z</time>
      </trkpt>
      <trkpt lat="45.8788" lon="1.30831">
        <ele>331.4</ele>
        <time>2024-11-05T15:53:48Z</time>
      </trkpt>
      <trkpt lat="45.87876" lon="1.30836">
        <ele>331</ele>
        <time>2024-11-05T15:53:49Z</time>
      </trkpt>
      <trkpt lat="45.87872" lon="1.30843">
        <ele>330.5</ele>
        <time>2024-11-05T15:53:50Z</time>
      </trkpt>
      <trkpt lat="45.87869" lon="1.30847">
        <ele>330.2</ele>
        <time>2024-11-05T15:53:51Z</time>
      </trkpt>
      <trkpt lat="45.87867" lon="1.30851">
        <ele>330</ele>
        <time>2024-11-05T15:53:52Z</time>
      </trkpt>
      <trkpt lat="45.87865" lon="1.30854">
        <ele>329.8</ele>
        <time>2024-11-05T15:53:53Z</time>
      </trkpt>
      <trkpt lat="45.87862" lon="1.30858">
        <ele>329.5</ele>
        <time>2024-11-05T15:53:54Z</time>
      </trkpt>
      <trkpt lat="45.87859" lon="1.30862">
        <ele>329.2</ele>
        <time>2024-11-05T15:53:56Z</time>
      </trkpt>
      <trkpt lat="45.87856" lon="1.30867">
        <ele>328.8</ele>
        <time>2024-11-05T15:53:58Z</time>
      </trkpt>
      <trkpt lat="45.87853" lon="1.30871">
        <ele>328.5</ele>
        <time>2024-11-05T15:54:00Z</time>
      </trkpt>
      <trkpt lat="45.87849" lon="1.30875">
        <ele>328.2</ele>
        <time>2024-11-05T15:54:02Z</time>
      </trkpt>
      <trkpt lat="45.87845" lon="1.30878">
        <ele>327.9</ele>
        <time>2024-11-05T15:54:04Z</time>
      </trkpt>
      <trkpt lat="45.87843" lon="1.30881">
        <ele>327.7</ele>
        <time>2024-11-05T15:54:21Z</time>
      </trkpt>
      <trkpt lat="45.87844" lon="1.30881">
        <ele>327.7</ele>
        <time>2024-11-05T15:54:31Z</time>
      </trkpt>
      <trkpt lat="45.87842" lon="1.3088">
        <ele>327.5</ele>
        <time>2024-11-05T15:55:22Z</time>
      </trkpt>
      <trkpt lat="45.87841" lon="1.30882">
        <ele>327.4</ele>
        <time>2024-11-05T15:55:52Z</time>
      </trkpt>
      <trkpt lat="45.87838" lon="1.30885">
        <ele>327.3</ele>
        <time>2024-11-05T15:55:54Z</time>
      </trkpt>
      <trkpt lat="45.87836" lon="1.30887">
        <ele>327.3</ele>
        <time>2024-11-05T15:55:55Z</time>
      </trkpt>
      <trkpt lat="45.87833" lon="1.3089">
        <ele>327.2</ele>
        <time>2024-11-05T15:55:56Z</time>
      </trkpt>
      <trkpt lat="45.87831" lon="1.30893">
        <ele>327.2</ele>
        <time>2024-11-05T15:55:57Z</time>
      </trkpt>
      <trkpt lat="45.87828" lon="1.30896">
        <ele>327.2</ele>
        <time>2024-11-05T15:55:58Z</time>
      </trkpt>
      <trkpt lat="45.87826" lon="1.30899">
        <ele>327.3</ele>
        <time>2024-11-05T15:55:59Z</time>
      </trkpt>
      <trkpt lat="45.87823" lon="1.30904">
        <ele>327.4</ele>
        <time>2024-11-05T15:56:01Z</time>
      </trkpt>
      <trkpt lat="45.87822" lon="1.30909">
        <ele>327.5</ele>
        <time>2024-11-05T15:56:03Z</time>
      </trkpt>
      <trkpt lat="45.8782" lon="1.30914">
        <ele>327.7</ele>
        <time>2024-11-05T15:56:05Z</time>
      </trkpt>
      <trkpt lat="45.87819" lon="1.30919">
        <ele>328</ele>
        <time>2024-11-05T15:56:06Z</time>
      </trkpt>
      <trkpt lat="45.87816" lon="1.30924">
        <ele>328.3</ele>
        <time>2024-11-05T15:56:08Z</time>
      </trkpt>
      <trkpt lat="45.87814" lon="1.30928">
        <ele>328.6</ele>
        <time>2024-11-05T15:56:09Z</time>
      </trkpt>
      <trkpt lat="45.87811" lon="1.30931">
        <ele>329</ele>
        <time>2024-11-05T15:56:10Z</time>
      </trkpt>
      <trkpt lat="45.87809" lon="1.30935">
        <ele>329.4</ele>
        <time>2024-11-05T15:56:11Z</time>
      </trkpt>
      <trkpt lat="45.87806" lon="1.30939">
        <ele>330</ele>
        <time>2024-11-05T15:56:13Z</time>
      </trkpt>
      <trkpt lat="45.87803" lon="1.30944">
        <ele>330.6</ele>
        <time>2024-11-05T15:56:15Z</time>
      </trkpt>
      <trkpt lat="45.87799" lon="1.30948">
        <ele>331.4</ele>
        <time>2024-11-05T15:56:17Z</time>
      </trkpt>
      <trkpt lat="45.87796" lon="1.30949">
        <ele>331.8</ele>
        <time>2024-11-05T15:56:18Z</time>
      </trkpt>
      <trkpt lat="45.87793" lon="1.30951">
        <ele>332.3</ele>
        <time>2024-11-05T15:56:19Z</time>
      </trkpt>
      <trkpt lat="45.8779" lon="1.30952">
        <ele>332.8</ele>
        <time>2024-11-05T15:56:20Z</time>
      </trkpt>
      <trkpt lat="45.87787" lon="1.30954">
        <ele>333.3</ele>
        <time>2024-11-05T15:56:21Z</time>
      </trkpt>
      <trkpt lat="45.87784" lon="1.30957">
        <ele>333.8</ele>
        <time>2024-11-05T15:56:22Z</time>
      </trkpt>
      <trkpt lat="45.87781" lon="1.3096">
        <ele>334.3</ele>
        <time>2024-11-05T15:56:23Z</time>
      </trkpt>
      <trkpt lat="45.87778" lon="1.30963">
        <ele>334.8</ele>
        <time>2024-11-05T15:56:24Z</time>
      </trkpt>
      <trkpt lat="45.87776" lon="1.30967">
        <ele>335.2</ele>
        <time>2024-11-05T15:56:26Z</time>
      </trkpt>
      <trkpt lat="45.87773" lon="1.30971">
        <ele>335.7</ele>
        <time>2024-11-05T15:56:28Z</time>
      </trkpt>
      <trkpt lat="45.8777" lon="1.30976">
        <ele>336.2</ele>
        <time>2024-11-05T15:56:30Z</time>
      </trkpt>
      <trkpt lat="45.87767" lon="1.30981">
        <ele>336.6</ele>
        <time>2024-11-05T15:56:32Z</time>
      </trkpt>
      <trkpt lat="45.87764" lon="1.30985">
        <ele>336.9</ele>
        <time>2024-11-05T15:56:34Z</time>
      </trkpt>
      <trkpt lat="45.8776" lon="1.3099">
        <ele>337.4</ele>
        <time>2024-11-05T15:56:36Z</time>
      </trkpt>
      <trkpt lat="45.87757" lon="1.30994">
        <ele>337.7</ele>
        <time>2024-11-05T15:56:38Z</time>
      </trkpt>
      <trkpt lat="45.87754" lon="1.30999">
        <ele>338</ele>
        <time>2024-11-05T15:56:40Z</time>
      </trkpt>
      <trkpt lat="45.87751" lon="1.31002">
        <ele>338.2</ele>
        <time>2024-11-05T15:56:41Z</time>
      </trkpt>
      <trkpt lat="45.87749" lon="1.31005">
        <ele>338.3</ele>
        <time>2024-11-05T15:56:42Z</time>
      </trkpt>
      <trkpt lat="45.87746" lon="1.31008">
        <ele>338.5</ele>
        <time>2024-11-05T15:56:43Z</time>
      </trkpt>
      <trkpt lat="45.87744" lon="1.31011">
        <ele>338.6</ele>
        <time>2024-11-05T15:56:44Z</time>
      </trkpt>
      <trkpt lat="45.87741" lon="1.31015">
        <ele>338.7</ele>
        <time>2024-11-05T15:56:46Z</time>
      </trkpt>
      <trkpt lat="45.87738" lon="1.31019">
        <ele>338.8</ele>
        <time>2024-11-05T15:56:47Z</time>
      </trkpt>
      <trkpt lat="45.87734" lon="1.31022">
        <ele>338.9</ele>
        <time>2024-11-05T15:56:48Z</time>
      </trkpt>
      <trkpt lat="45.87731" lon="1.31026">
        <ele>339</ele>
        <time>2024-11-05T15:56:49Z</time>
      </trkpt>
      <trkpt lat="45.87727" lon="1.3103">
        <ele>339.1</ele>
        <time>2024-11-05T15:56:50Z</time>
      </trkpt>
      <trkpt lat="45.87724" lon="1.31034">
        <ele>339.2</ele>
        <time>2024-11-05T15:56:51Z</time>
      </trkpt>
      <trkpt lat="45.87721" lon="1.31038">
        <ele>339.2</ele>
        <time>2024-11-05T15:56:52Z</time>
      </trkpt>
      <trkpt lat="45.87718" lon="1.31042">
        <ele>339.3</ele>
        <time>2024-11-05T15:56:53Z</time>
      </trkpt>
      <trkpt lat="45.87715" lon="1.31045">
        <ele>339.3</ele>
        <time>2024-11-05T15:56:54Z</time>
      </trkpt>
      <trkpt lat="45.87712" lon="1.31049">
        <ele>339.4</ele>
        <time>2024-11-05T15:56:55Z</time>
      </trkpt>
      <trkpt lat="45.87709" lon="1.31052">
        <ele>339.5</ele>
        <time>2024-11-05T15:56:56Z</time>
      </trkpt>
      <trkpt lat="45.87707" lon="1.31055">
        <ele>339.5</ele>
        <time>2024-11-05T15:56:57Z</time>
      </trkpt>
      <trkpt lat="45.87704" lon="1.31058">
        <ele>339.6</ele>
        <time>2024-11-05T15:56:59Z</time>
      </trkpt>
      <trkpt lat="45.877" lon="1.31058">
        <ele>339.7</ele>
        <time>2024-11-05T15:57:01Z</time>
      </trkpt>
      <trkpt lat="45.87697" lon="1.31056">
        <ele>339.7</ele>
        <time>2024-11-05T15:57:03Z</time>
      </trkpt>
      <trkpt lat="45.87695" lon="1.31054">
        <ele>339.8</ele>
        <time>2024-11-05T15:57:05Z</time>
      </trkpt>
      <trkpt lat="45.87692" lon="1.3105">
        <ele>339.8</ele>
        <time>2024-11-05T15:57:07Z</time>
      </trkpt>
      <trkpt lat="45.87689" lon="1.31045">
        <ele>339.9</ele>
        <time>2024-11-05T15:57:09Z</time>
      </trkpt>
      <trkpt lat="45.87686" lon="1.31041">
        <ele>340</ele>
        <time>2024-11-05T15:57:11Z</time>
      </trkpt>
      <trkpt lat="45.87683" lon="1.31036">
        <ele>340</ele>
        <time>2024-11-05T15:57:13Z</time>
      </trkpt>
      <trkpt lat="45.8768" lon="1.31032">
        <ele>340.1</ele>
        <time>2024-11-05T15:57:15Z</time>
      </trkpt>
      <trkpt lat="45.87676" lon="1.31027">
        <ele>340.2</ele>
        <time>2024-11-05T15:57:17Z</time>
      </trkpt>
      <trkpt lat="45.87674" lon="1.31023">
        <ele>340.2</ele>
        <time>2024-11-05T15:57:18Z</time>
      </trkpt>
      <trkpt lat="45.87672" lon="1.3102">
        <ele>340.2</ele>
        <time>2024-11-05T15:57:19Z</time>
      </trkpt>
      <trkpt lat="45.87669" lon="1.31017">
        <ele>340.3</ele>
        <time>2024-11-05T15:57:20Z</time>
      </trkpt>
      <trkpt lat="45.87667" lon="1.31014">
        <ele>340.3</ele>
        <time>2024-11-05T15:57:21Z</time>
      </trkpt>
      <trkpt lat="45.87665" lon="1.3101">
        <ele>340.4</ele>
        <time>2024-11-05T15:57:22Z</time>
      </trkpt>
      <trkpt lat="45.87662" lon="1.31006">
        <ele>340.5</ele>
        <time>2024-11-05T15:57:23Z</time>
      </trkpt>
      <trkpt lat="45.8766" lon="1.31003">
        <ele>340.5</ele>
        <time>2024-11-05T15:57:24Z</time>
      </trkpt>
      <trkpt lat="45.87657" lon="1.30999">
        <ele>340.6</ele>
        <time>2024-11-05T15:57:25Z</time>
      </trkpt>
      <trkpt lat="45.87655" lon="1.30996">
        <ele>340.7</ele>
        <time>2024-11-05T15:57:26Z</time>
      </trkpt>
      <trkpt lat="45.87653" lon="1.30992">
        <ele>340.7</ele>
        <time>2024-11-05T15:57:27Z</time>
      </trkpt>
      <trkpt lat="45.87651" lon="1.30988">
        <ele>340.8</ele>
        <time>2024-11-05T15:57:28Z</time>
      </trkpt>
      <trkpt lat="45.87649" lon="1.30984">
        <ele>340.9</ele>
        <time>2024-11-05T15:57:29Z</time>
      </trkpt>
      <trkpt lat="45.87647" lon="1.30981">
        <ele>341</ele>
        <time>2024-11-05T15:57:30Z</time>
      </trkpt>
      <trkpt lat="45.87644" lon="1.30977">
        <ele>341.1</ele>
        <time>2024-11-05T15:57:31Z</time>
      </trkpt>
      <trkpt lat="45.87642" lon="1.30973">
        <ele>341.2</ele>
        <time>2024-11-05T15:57:32Z</time>
      </trkpt>
      <trkpt lat="45.8764" lon="1.3097">
        <ele>341.3</ele>
        <time>2024-11-05T15:57:33Z</time>
      </trkpt>
      <trkpt lat="45.87637" lon="1.30966">
        <ele>341.5</ele>
        <time>2024-11-05T15:57:34Z</time>
      </trkpt>
      <trkpt lat="45.87635" lon="1.30962">
        <ele>341.6</ele>
        <time>2024-11-05T15:57:35Z</time>
      </trkpt>
      <trkpt lat="45.87633" lon="1.30958">
        <ele>341.7</ele>
        <time>2024-11-05T15:57:36Z</time>
      </trkpt>
      <trkpt lat="45.87631" lon="1.30954">
        <ele>341.9</ele>
        <time>2024-11-05T15:57:37Z</time>
      </trkpt>
      <trkpt lat="45.87628" lon="1.3095">
        <ele>342.1</ele>
        <time>2024-11-05T15:57:38Z</time>
      </trkpt>
      <trkpt lat="45.87626" lon="1.30947">
        <ele>342.2</ele>
        <time>2024-11-05T15:57:39Z</time>
      </trkpt>
      <trkpt lat="45.87624" lon="1.30944">
        <ele>342.3</ele>
        <time>2024-11-05T15:57:40Z</time>
      </trkpt>
      <trkpt lat="45.87622" lon="1.3094">
        <ele>342.5</ele>
        <time>2024-11-05T15:57:41Z</time>
      </trkpt>
      <trkpt lat="45.87619" lon="1.30937">
        <ele>342.6</ele>
        <time>2024-11-05T15:57:42Z</time>
      </trkpt>
      <trkpt lat="45.87617" lon="1.30933">
        <ele>342.7</ele>
        <time>2024-11-05T15:57:43Z</time>
      </trkpt>
      <trkpt lat="45.87615" lon="1.30929">
        <ele>342.9</ele>
        <time>2024-11-05T15:57:44Z</time>
      </trkpt>
      <trkpt lat="45.87613" lon="1.30926">
        <ele>343</ele>
        <time>2024-11-05T15:57:45Z</time>
      </trkpt>
      <trkpt lat="45.87611" lon="1.30922">
        <ele>343.1</ele>
        <time>2024-11-05T15:57:46Z</time>
      </trkpt>
      <trkpt lat="45.87609" lon="1.30919">
        <ele>343.2</ele>
        <time>2024-11-05T15:57:47Z</time>
      </trkpt>
      <trkpt lat="45.87606" lon="1.30915">
        <ele>343.4</ele>
        <time>2024-11-05T15:57:48Z</time>
      </trkpt>
      <trkpt lat="45.87604" lon="1.30912">
        <ele>343.5</ele>
        <time>2024-11-05T15:57:49Z</time>
      </trkpt>
      <trkpt lat="45.87602" lon="1.30908">
        <ele>343.7</ele>
        <time>2024-11-05T15:57:50Z</time>
      </trkpt>
      <trkpt lat="45.87599" lon="1.30905">
        <ele>343.8</ele>
        <time>2024-11-05T15:57:51Z</time>
      </trkpt>
      <trkpt lat="45.87597" lon="1.30902">
        <ele>344</ele>
        <time>2024-11-05T15:57:52Z</time>
      </trkpt>
      <trkpt lat="45.87595" lon="1.30899">
        <ele>344.1</ele>
        <time>2024-11-05T15:57:53Z</time>
      </trkpt>
      <trkpt lat="45.87592" lon="1.30894">
        <ele>344.4</ele>
        <time>2024-11-05T15:57:55Z</time>
      </trkpt>
      <trkpt lat="45.87589" lon="1.30891">
        <ele>344.6</ele>
        <time>2024-11-05T15:57:56Z</time>
      </trkpt>
      <trkpt lat="45.87587" lon="1.30888">
        <ele>344.7</ele>
        <time>2024-11-05T15:57:57Z</time>
      </trkpt>
      <trkpt lat="45.87585" lon="1.30884">
        <ele>344.9</ele>
        <time>2024-11-05T15:57:58Z</time>
      </trkpt>
      <trkpt lat="45.87583" lon="1.30881">
        <ele>345</ele>
        <time>2024-11-05T15:57:59Z</time>
      </trkpt>
      <trkpt lat="45.8758" lon="1.30877">
        <ele>345.2</ele>
        <time>2024-11-05T15:58:00Z</time>
      </trkpt>
      <trkpt lat="45.87577" lon="1.30873">
        <ele>345.4</ele>
        <time>2024-11-05T15:58:02Z</time>
      </trkpt>
      <trkpt lat="45.87574" lon="1.30869">
        <ele>345.6</ele>
        <time>2024-11-05T15:58:03Z</time>
      </trkpt>
      <trkpt lat="45.87572" lon="1.30866">
        <ele>345.8</ele>
        <time>2024-11-05T15:58:04Z</time>
      </trkpt>
      <trkpt lat="45.87569" lon="1.30863">
        <ele>346</ele>
        <time>2024-11-05T15:58:05Z</time>
      </trkpt>
      <trkpt lat="45.87567" lon="1.30859">
        <ele>346.1</ele>
        <time>2024-11-05T15:58:06Z</time>
      </trkpt>
      <trkpt lat="45.87565" lon="1.30856">
        <ele>346.2</ele>
        <time>2024-11-05T15:58:07Z</time>
      </trkpt>
      <trkpt lat="45.87563" lon="1.30852">
        <ele>346.4</ele>
        <time>2024-11-05T15:58:08Z</time>
      </trkpt>
      <trkpt lat="45.87561" lon="1.30848">
        <ele>346.5</ele>
        <time>2024-11-05T15:58:09Z</time>
      </trkpt>
      <trkpt lat="45.87559" lon="1.30846">
        <ele>346.6</ele>
        <time>2024-11-05T15:58:10Z</time>
      </trkpt>
      <trkpt lat="45.87556" lon="1.30843">
        <ele>346.8</ele>
        <time>2024-11-05T15:58:11Z</time>
      </trkpt>
      <trkpt lat="45.87554" lon="1.3084">
        <ele>346.9</ele>
        <time>2024-11-05T15:58:12Z</time>
      </trkpt>
      <trkpt lat="45.87551" lon="1.30837">
        <ele>347</ele>
        <time>2024-11-05T15:58:13Z</time>
      </trkpt>
      <trkpt lat="45.87549" lon="1.30834">
        <ele>347.2</ele>
        <time>2024-11-05T15:58:14Z</time>
      </trkpt>
      <trkpt lat="45.87546" lon="1.30831">
        <ele>347.3</ele>
        <time>2024-11-05T15:58:15Z</time>
      </trkpt>
      <trkpt lat="45.87543" lon="1.30828">
        <ele>347.4</ele>
        <time>2024-11-05T15:58:16Z</time>
      </trkpt>
      <trkpt lat="45.8754" lon="1.30826">
        <ele>347.5</ele>
        <time>2024-11-05T15:58:17Z</time>
      </trkpt>
      <trkpt lat="45.87537" lon="1.30824">
        <ele>347.6</ele>
        <time>2024-11-05T15:58:18Z</time>
      </trkpt>
      <trkpt lat="45.87534" lon="1.30823">
        <ele>347.7</ele>
        <time>2024-11-05T15:58:19Z</time>
      </trkpt>
      <trkpt lat="45.87531" lon="1.30822">
        <ele>347.8</ele>
        <time>2024-11-05T15:58:20Z</time>
      </trkpt>
      <trkpt lat="45.87527" lon="1.30822">
        <ele>347.9</ele>
        <time>2024-11-05T15:58:21Z</time>
      </trkpt>
      <trkpt lat="45.87524" lon="1.30821">
        <ele>348</ele>
        <time>2024-11-05T15:58:22Z</time>
      </trkpt>
      <trkpt lat="45.87521" lon="1.3082">
        <ele>348</ele>
        <time>2024-11-05T15:58:23Z</time>
      </trkpt>
      <trkpt lat="45.87518" lon="1.30819">
        <ele>348.1</ele>
        <time>2024-11-05T15:58:24Z</time>
      </trkpt>
      <trkpt lat="45.87514" lon="1.30819">
        <ele>348.2</ele>
        <time>2024-11-05T15:58:25Z</time>
      </trkpt>
      <trkpt lat="45.8751" lon="1.30818">
        <ele>348.4</ele>
        <time>2024-11-05T15:58:26Z</time>
      </trkpt>
      <trkpt lat="45.87507" lon="1.30817">
        <ele>348.5</ele>
        <time>2024-11-05T15:58:27Z</time>
      </trkpt>
      <trkpt lat="45.87503" lon="1.30816">
        <ele>348.6</ele>
        <time>2024-11-05T15:58:28Z</time>
      </trkpt>
      <trkpt lat="45.87501" lon="1.30815">
        <ele>348.6</ele>
        <time>2024-11-05T15:58:29Z</time>
      </trkpt>
      <trkpt lat="45.87498" lon="1.30815">
        <ele>348.7</ele>
        <time>2024-11-05T15:58:30Z</time>
      </trkpt>
      <trkpt lat="45.87494" lon="1.30814">
        <ele>348.8</ele>
        <time>2024-11-05T15:58:32Z</time>
      </trkpt>
      <trkpt lat="45.8749" lon="1.30813">
        <ele>348.9</ele>
        <time>2024-11-05T15:58:34Z</time>
      </trkpt>
      <trkpt lat="45.87487" lon="1.30814">
        <ele>349</ele>
        <time>2024-11-05T15:58:36Z</time>
      </trkpt>
      <trkpt lat="45.87484" lon="1.30813">
        <ele>349.1</ele>
        <time>2024-11-05T15:58:43Z</time>
      </trkpt>
      <trkpt lat="45.87479" lon="1.30813">
        <ele>349.2</ele>
        <time>2024-11-05T15:58:45Z</time>
      </trkpt>
      <trkpt lat="45.87475" lon="1.30812">
        <ele>349.3</ele>
        <time>2024-11-05T15:58:47Z</time>
      </trkpt>
      <trkpt lat="45.87473" lon="1.30814">
        <ele>349.3</ele>
        <time>2024-11-05T15:59:00Z</time>
      </trkpt>
      <trkpt lat="45.87473" lon="1.30817">
        <ele>349.3</ele>
        <time>2024-11-05T15:59:03Z</time>
      </trkpt>
      <trkpt lat="45.87476" lon="1.30818">
        <ele>349.3</ele>
        <time>2024-11-05T15:59:05Z</time>
      </trkpt>
      <trkpt lat="45.87478" lon="1.30816">
        <ele>349.4</ele>
        <time>2024-11-05T15:59:06Z</time>
      </trkpt>
      <trkpt lat="45.8748" lon="1.30812">
        <ele>349.4</ele>
        <time>2024-11-05T15:59:07Z</time>
      </trkpt>
      <trkpt lat="45.87482" lon="1.30808">
        <ele>349.4</ele>
        <time>2024-11-05T15:59:08Z</time>
      </trkpt>
      <trkpt lat="45.87483" lon="1.30803">
        <ele>349.4</ele>
        <time>2024-11-05T15:59:09Z</time>
      </trkpt>
      <trkpt lat="45.87485" lon="1.30799">
        <ele>349.5</ele>
        <time>2024-11-05T15:59:10Z</time>
      </trkpt>
      <trkpt lat="45.87486" lon="1.30794">
        <ele>349.5</ele>
        <time>2024-11-05T15:59:11Z</time>
      </trkpt>
      <trkpt lat="45.87487" lon="1.30789">
        <ele>349.5</ele>
        <time>2024-11-05T15:59:12Z</time>
      </trkpt>
      <trkpt lat="45.87488" lon="1.30784">
        <ele>349.6</ele>
        <time>2024-11-05T15:59:13Z</time>
      </trkpt>
      <trkpt lat="45.87489" lon="1.30779">
        <ele>349.6</ele>
        <time>2024-11-05T15:59:14Z</time>
      </trkpt>
      <trkpt lat="45.8749" lon="1.30774">
        <ele>349.6</ele>
        <time>2024-11-05T15:59:15Z</time>
      </trkpt>
      <trkpt lat="45.87491" lon="1.30769">
        <ele>349.6</ele>
        <time>2024-11-05T15:59:16Z</time>
      </trkpt>
      <trkpt lat="45.87492" lon="1.30764">
        <ele>349.7</ele>
        <time>2024-11-05T15:59:17Z</time>
      </trkpt>
      <trkpt lat="45.87492" lon="1.30758">
        <ele>349.7</ele>
        <time>2024-11-05T15:59:18Z</time>
      </trkpt>
      <trkpt lat="45.87493" lon="1.30753">
        <ele>349.7</ele>
        <time>2024-11-05T15:59:19Z</time>
      </trkpt>
      <trkpt lat="45.87494" lon="1.30748">
        <ele>349.8</ele>
        <time>2024-11-05T15:59:20Z</time>
      </trkpt>
      <trkpt lat="45.87494" lon="1.30743">
        <ele>349.8</ele>
        <time>2024-11-05T15:59:21Z</time>
      </trkpt>
      <trkpt lat="45.87494" lon="1.30738">
        <ele>349.8</ele>
        <time>2024-11-05T15:59:22Z</time>
      </trkpt>
      <trkpt lat="45.87495" lon="1.30733">
        <ele>349.9</ele>
        <time>2024-11-05T15:59:23Z</time>
      </trkpt>
      <trkpt lat="45.87495" lon="1.30728">
        <ele>349.9</ele>
        <time>2024-11-05T15:59:24Z</time>
      </trkpt>
      <trkpt lat="45.87495" lon="1.30723">
        <ele>350</ele>
        <time>2024-11-05T15:59:25Z</time>
      </trkpt>
      <trkpt lat="45.87495" lon="1.30717">
        <ele>350.1</ele>
        <time>2024-11-05T15:59:26Z</time>
      </trkpt>
      <trkpt lat="45.87495" lon="1.30712">
        <ele>350.1</ele>
        <time>2024-11-05T15:59:27Z</time>
      </trkpt>
      <trkpt lat="45.87495" lon="1.30707">
        <ele>350.2</ele>
        <time>2024-11-05T15:59:28Z</time>
      </trkpt>
      <trkpt lat="45.87495" lon="1.30702">
        <ele>350.2</ele>
        <time>2024-11-05T15:59:29Z</time>
      </trkpt>
      <trkpt lat="45.87495" lon="1.30697">
        <ele>350.3</ele>
        <time>2024-11-05T15:59:30Z</time>
      </trkpt>
      <trkpt lat="45.87495" lon="1.30691">
        <ele>350.4</ele>
        <time>2024-11-05T15:59:31Z</time>
      </trkpt>
      <trkpt lat="45.87494" lon="1.30686">
        <ele>350.5</ele>
        <time>2024-11-05T15:59:32Z</time>
      </trkpt>
      <trkpt lat="45.87494" lon="1.30681">
        <ele>350.5</ele>
        <time>2024-11-05T15:59:33Z</time>
      </trkpt>
      <trkpt lat="45.87494" lon="1.30676">
        <ele>350.6</ele>
        <time>2024-11-05T15:59:34Z</time>
      </trkpt>
      <trkpt lat="45.87493" lon="1.30672">
        <ele>350.7</ele>
        <time>2024-11-05T15:59:35Z</time>
      </trkpt>
      <trkpt lat="45.87493" lon="1.30667">
        <ele>350.7</ele>
        <time>2024-11-05T15:59:36Z</time>
      </trkpt>
      <trkpt lat="45.87492" lon="1.30662">
        <ele>350.8</ele>
        <time>2024-11-05T15:59:37Z</time>
      </trkpt>
      <trkpt lat="45.87492" lon="1.30657">
        <ele>350.9</ele>
        <time>2024-11-05T15:59:38Z</time>
      </trkpt>
      <trkpt lat="45.87492" lon="1.30652">
        <ele>351</ele>
        <time>2024-11-05T15:59:39Z</time>
      </trkpt>
      <trkpt lat="45.87492" lon="1.30647">
        <ele>351</ele>
        <time>2024-11-05T15:59:40Z</time>
      </trkpt>
      <trkpt lat="45.87492" lon="1.30642">
        <ele>351.1</ele>
        <time>2024-11-05T15:59:41Z</time>
      </trkpt>
      <trkpt lat="45.87492" lon="1.30637">
        <ele>351.2</ele>
        <time>2024-11-05T15:59:42Z</time>
      </trkpt>
      <trkpt lat="45.87492" lon="1.30632">
        <ele>351.3</ele>
        <time>2024-11-05T15:59:43Z</time>
      </trkpt>
      <trkpt lat="45.87493" lon="1.30628">
        <ele>351.3</ele>
        <time>2024-11-05T15:59:44Z</time>
      </trkpt>
      <trkpt lat="45.87493" lon="1.30623">
        <ele>351.4</ele>
        <time>2024-11-05T15:59:45Z</time>
      </trkpt>
      <trkpt lat="45.87494" lon="1.30619">
        <ele>351.4</ele>
        <time>2024-11-05T15:59:46Z</time>
      </trkpt>
      <trkpt lat="45.87494" lon="1.30615">
        <ele>351.4</ele>
        <time>2024-11-05T15:59:47Z</time>
      </trkpt>
      <trkpt lat="45.87495" lon="1.3061">
        <ele>351.3</ele>
        <time>2024-11-05T15:59:49Z</time>
      </trkpt>
      <trkpt lat="45.87497" lon="1.30604">
        <ele>351.2</ele>
        <time>2024-11-05T15:59:51Z</time>
      </trkpt>
      <trkpt lat="45.87498" lon="1.306">
        <ele>351.1</ele>
        <time>2024-11-05T15:59:53Z</time>
      </trkpt>
      <trkpt lat="45.87499" lon="1.30596">
        <ele>351.1</ele>
        <time>2024-11-05T16:00:10Z</time>
      </trkpt>
      <trkpt lat="45.87499" lon="1.30591">
        <ele>351</ele>
        <time>2024-11-05T16:00:36Z</time>
      </trkpt>
      <trkpt lat="45.87498" lon="1.30587">
        <ele>351</ele>
        <time>2024-11-05T16:00:37Z</time>
      </trkpt>
      <trkpt lat="45.87497" lon="1.30583">
        <ele>351</ele>
        <time>2024-11-05T16:00:38Z</time>
      </trkpt>
      <trkpt lat="45.87494" lon="1.3058">
        <ele>350.9</ele>
        <time>2024-11-05T16:00:40Z</time>
      </trkpt>
      <trkpt lat="45.8749" lon="1.30578">
        <ele>350.9</ele>
        <time>2024-11-05T16:00:42Z</time>
      </trkpt>
      <trkpt lat="45.87486" lon="1.30577">
        <ele>350.9</ele>
        <time>2024-11-05T16:00:44Z</time>
      </trkpt>
      <trkpt lat="45.87481" lon="1.30575">
        <ele>351</ele>
        <time>2024-11-05T16:00:46Z</time>
      </trkpt>
      <trkpt lat="45.87476" lon="1.30573">
        <ele>351.1</ele>
        <time>2024-11-05T16:00:48Z</time>
      </trkpt>
      <trkpt lat="45.87473" lon="1.30572">
        <ele>351.2</ele>
        <time>2024-11-05T16:00:53Z</time>
      </trkpt>
      <trkpt lat="45.87469" lon="1.30573">
        <ele>351.2</ele>
        <time>2024-11-05T16:00:55Z</time>
      </trkpt>
      <trkpt lat="45.87466" lon="1.30575">
        <ele>351.4</ele>
        <time>2024-11-05T16:00:57Z</time>
      </trkpt>
      <trkpt lat="45.87464" lon="1.30576">
        <ele>351.5</ele>
        <time>2024-11-05T16:00:58Z</time>
      </trkpt>
      <trkpt lat="45.87461" lon="1.30579">
        <ele>351.6</ele>
        <time>2024-11-05T16:00:59Z</time>
      </trkpt>
      <trkpt lat="45.87459" lon="1.30583">
        <ele>351.6</ele>
        <time>2024-11-05T16:01:00Z</time>
      </trkpt>
      <trkpt lat="45.87458" lon="1.30587">
        <ele>351.7</ele>
        <time>2024-11-05T16:01:01Z</time>
      </trkpt>
      <trkpt lat="45.87456" lon="1.30592">
        <ele>351.8</ele>
        <time>2024-11-05T16:01:02Z</time>
      </trkpt>
      <trkpt lat="45.87454" lon="1.30596">
        <ele>351.9</ele>
        <time>2024-11-05T16:01:03Z</time>
      </trkpt>
      <trkpt lat="45.87451" lon="1.30599">
        <ele>352</ele>
        <time>2024-11-05T16:01:04Z</time>
      </trkpt>
      <trkpt lat="45.87447" lon="1.30601">
        <ele>352.2</ele>
        <time>2024-11-05T16:01:05Z</time>
      </trkpt>
      <trkpt lat="45.87444" lon="1.30602">
        <ele>352.3</ele>
        <time>2024-11-05T16:01:06Z</time>
      </trkpt>
      <trkpt lat="45.8744" lon="1.30603">
        <ele>352.4</ele>
        <time>2024-11-05T16:01:07Z</time>
      </trkpt>
      <trkpt lat="45.87436" lon="1.30604">
        <ele>352.5</ele>
        <time>2024-11-05T16:01:08Z</time>
      </trkpt>
      <trkpt lat="45.87433" lon="1.30605">
        <ele>352.6</ele>
        <time>2024-11-05T16:01:09Z</time>
      </trkpt>
      <trkpt lat="45.87429" lon="1.30605">
        <ele>352.7</ele>
        <time>2024-11-05T16:01:10Z</time>
      </trkpt>
      <trkpt lat="45.87426" lon="1.30605">
        <ele>352.8</ele>
        <time>2024-11-05T16:01:11Z</time>
      </trkpt>
      <trkpt lat="45.87423" lon="1.30605">
        <ele>352.9</ele>
        <time>2024-11-05T16:01:12Z</time>
      </trkpt>
      <trkpt lat="45.8742" lon="1.30605">
        <ele>353</ele>
        <time>2024-11-05T16:01:13Z</time>
      </trkpt>
      <trkpt lat="45.87417" lon="1.30605">
        <ele>353.1</ele>
        <time>2024-11-05T16:01:14Z</time>
      </trkpt>
      <trkpt lat="45.87414" lon="1.30604">
        <ele>353.2</ele>
        <time>2024-11-05T16:01:15Z</time>
      </trkpt>
      <trkpt lat="45.87411" lon="1.30604">
        <ele>353.2</ele>
        <time>2024-11-05T16:01:16Z</time>
      </trkpt>
      <trkpt lat="45.87408" lon="1.30604">
        <ele>353.3</ele>
        <time>2024-11-05T16:01:17Z</time>
      </trkpt>
      <trkpt lat="45.87404" lon="1.30604">
        <ele>353.3</ele>
        <time>2024-11-05T16:01:19Z</time>
      </trkpt>
      <trkpt lat="45.874" lon="1.30604">
        <ele>353.4</ele>
        <time>2024-11-05T16:01:20Z</time>
      </trkpt>
      <trkpt lat="45.87397" lon="1.30603">
        <ele>353.4</ele>
        <time>2024-11-05T16:01:21Z</time>
      </trkpt>
      <trkpt lat="45.87393" lon="1.30603">
        <ele>353.4</ele>
        <time>2024-11-05T16:01:22Z</time>
      </trkpt>
      <trkpt lat="45.8739" lon="1.30603">
        <ele>353.4</ele>
        <time>2024-11-05T16:01:23Z</time>
      </trkpt>
      <trkpt lat="45.87386" lon="1.30603">
        <ele>353.5</ele>
        <time>2024-11-05T16:01:24Z</time>
      </trkpt>
      <trkpt lat="45.87382" lon="1.30602">
        <ele>353.5</ele>
        <time>2024-11-05T16:01:25Z</time>
      </trkpt>
      <trkpt lat="45.87378" lon="1.30602">
        <ele>353.5</ele>
        <time>2024-11-05T16:01:26Z</time>
      </trkpt>
      <trkpt lat="45.87374" lon="1.30602">
        <ele>353.5</ele>
        <time>2024-11-05T16:01:27Z</time>
      </trkpt>
      <trkpt lat="45.8737" lon="1.30601">
        <ele>353.5</ele>
        <time>2024-11-05T16:01:28Z</time>
      </trkpt>
      <trkpt lat="45.87367" lon="1.30601">
        <ele>353.5</ele>
        <time>2024-11-05T16:01:29Z</time>
      </trkpt>
      <trkpt lat="45.87363" lon="1.30601">
        <ele>353.4</ele>
        <time>2024-11-05T16:01:30Z</time>
      </trkpt>
      <trkpt lat="45.87359" lon="1.30602">
        <ele>353.4</ele>
        <time>2024-11-05T16:01:31Z</time>
      </trkpt>
      <trkpt lat="45.87355" lon="1.30602">
        <ele>353.3</ele>
        <time>2024-11-05T16:01:32Z</time>
      </trkpt>
      <trkpt lat="45.87351" lon="1.30602">
        <ele>353.2</ele>
        <time>2024-11-05T16:01:33Z</time>
      </trkpt>
      <trkpt lat="45.87346" lon="1.30602">
        <ele>353.1</ele>
        <time>2024-11-05T16:01:34Z</time>
      </trkpt>
      <trkpt lat="45.87342" lon="1.30601">
        <ele>353.1</ele>
        <time>2024-11-05T16:01:35Z</time>
      </trkpt>
      <trkpt lat="45.87338" lon="1.30601">
        <ele>353</ele>
        <time>2024-11-05T16:01:36Z</time>
      </trkpt>
      <trkpt lat="45.87334" lon="1.30601">
        <ele>352.9</ele>
        <time>2024-11-05T16:01:37Z</time>
      </trkpt>
      <trkpt lat="45.8733" lon="1.306">
        <ele>352.8</ele>
        <time>2024-11-05T16:01:38Z</time>
      </trkpt>
      <trkpt lat="45.87326" lon="1.30599">
        <ele>352.6</ele>
        <time>2024-11-05T16:01:39Z</time>
      </trkpt>
      <trkpt lat="45.87321" lon="1.30599">
        <ele>352.5</ele>
        <time>2024-11-05T16:01:40Z</time>
      </trkpt>
      <trkpt lat="45.87317" lon="1.30598">
        <ele>352.3</ele>
        <time>2024-11-05T16:01:41Z</time>
      </trkpt>
      <trkpt lat="45.87312" lon="1.30598">
        <ele>352.1</ele>
        <time>2024-11-05T16:01:42Z</time>
      </trkpt>
      <trkpt lat="45.87307" lon="1.30597">
        <ele>352</ele>
        <time>2024-11-05T16:01:43Z</time>
      </trkpt>
      <trkpt lat="45.87301" lon="1.30596">
        <ele>351.7</ele>
        <time>2024-11-05T16:01:44Z</time>
      </trkpt>
      <trkpt lat="45.87296" lon="1.30594">
        <ele>351.6</ele>
        <time>2024-11-05T16:01:45Z</time>
      </trkpt>
      <trkpt lat="45.87291" lon="1.30592">
        <ele>351.4</ele>
        <time>2024-11-05T16:01:46Z</time>
      </trkpt>
      <trkpt lat="45.87286" lon="1.30591">
        <ele>351.2</ele>
        <time>2024-11-05T16:01:47Z</time>
      </trkpt>
      <trkpt lat="45.87281" lon="1.3059">
        <ele>351.1</ele>
        <time>2024-11-05T16:01:48Z</time>
      </trkpt>
      <trkpt lat="45.87275" lon="1.30589">
        <ele>350.9</ele>
        <time>2024-11-05T16:01:49Z</time>
      </trkpt>
      <trkpt lat="45.8727" lon="1.30587">
        <ele>350.7</ele>
        <time>2024-11-05T16:01:50Z</time>
      </trkpt>
      <trkpt lat="45.87265" lon="1.30586">
        <ele>350.6</ele>
        <time>2024-11-05T16:01:51Z</time>
      </trkpt>
      <trkpt lat="45.8726" lon="1.30584">
        <ele>350.4</ele>
        <time>2024-11-05T16:01:52Z</time>
      </trkpt>
      <trkpt lat="45.87255" lon="1.30582">
        <ele>350.3</ele>
        <time>2024-11-05T16:01:53Z</time>
      </trkpt>
      <trkpt lat="45.87251" lon="1.30581">
        <ele>350.1</ele>
        <time>2024-11-05T16:01:54Z</time>
      </trkpt>
      <trkpt lat="45.87246" lon="1.30579">
        <ele>350</ele>
        <time>2024-11-05T16:01:55Z</time>
      </trkpt>
      <trkpt lat="45.87242" lon="1.30577">
        <ele>349.9</ele>
        <time>2024-11-05T16:01:56Z</time>
      </trkpt>
      <trkpt lat="45.87238" lon="1.30576">
        <ele>349.8</ele>
        <time>2024-11-05T16:01:57Z</time>
      </trkpt>
      <trkpt lat="45.87234" lon="1.30574">
        <ele>349.8</ele>
        <time>2024-11-05T16:01:58Z</time>
      </trkpt>
      <trkpt lat="45.8723" lon="1.30572">
        <ele>349.8</ele>
        <time>2024-11-05T16:01:59Z</time>
      </trkpt>
      <trkpt lat="45.87226" lon="1.30569">
        <ele>349.8</ele>
        <time>2024-11-05T16:02:00Z</time>
      </trkpt>
      <trkpt lat="45.87223" lon="1.30566">
        <ele>349.8</ele>
        <time>2024-11-05T16:02:01Z</time>
      </trkpt>
      <trkpt lat="45.87221" lon="1.30561">
        <ele>349.9</ele>
        <time>2024-11-05T16:02:03Z</time>
      </trkpt>
      <trkpt lat="45.8722" lon="1.30557">
        <ele>350</ele>
        <time>2024-11-05T16:02:04Z</time>
      </trkpt>
      <trkpt lat="45.87219" lon="1.30553">
        <ele>350</ele>
        <time>2024-11-05T16:02:05Z</time>
      </trkpt>
      <trkpt lat="45.87219" lon="1.30549">
        <ele>350.1</ele>
        <time>2024-11-05T16:02:06Z</time>
      </trkpt>
      <trkpt lat="45.8722" lon="1.30545">
        <ele>350.2</ele>
        <time>2024-11-05T16:02:07Z</time>
      </trkpt>
      <trkpt lat="45.8722" lon="1.30541">
        <ele>350.3</ele>
        <time>2024-11-05T16:02:08Z</time>
      </trkpt>
      <trkpt lat="45.87221" lon="1.30537">
        <ele>350.4</ele>
        <time>2024-11-05T16:02:09Z</time>
      </trkpt>
      <trkpt lat="45.87222" lon="1.30533">
        <ele>350.4</ele>
        <time>2024-11-05T16:02:10Z</time>
      </trkpt>
      <trkpt lat="45.87224" lon="1.3053">
        <ele>350.5</ele>
        <time>2024-11-05T16:02:11Z</time>
      </trkpt>
      <trkpt lat="45.87226" lon="1.30524">
        <ele>350.7</ele>
        <time>2024-11-05T16:02:13Z</time>
      </trkpt>
      <trkpt lat="45.87227" lon="1.30519">
        <ele>350.8</ele>
        <time>2024-11-05T16:02:15Z</time>
      </trkpt>
      <trkpt lat="45.87229" lon="1.30514">
        <ele>350.9</ele>
        <time>2024-11-05T16:02:17Z</time>
      </trkpt>
      <trkpt lat="45.87231" lon="1.30509">
        <ele>351</ele>
        <time>2024-11-05T16:02:19Z</time>
      </trkpt>
      <trkpt lat="45.87232" lon="1.30503">
        <ele>351.1</ele>
        <time>2024-11-05T16:02:21Z</time>
      </trkpt>
      <trkpt lat="45.87233" lon="1.30498">
        <ele>351.2</ele>
        <time>2024-11-05T16:02:22Z</time>
      </trkpt>
      <trkpt lat="45.87233" lon="1.30494">
        <ele>351.3</ele>
        <time>2024-11-05T16:02:23Z</time>
      </trkpt>
      <trkpt lat="45.87234" lon="1.30488">
        <ele>351.4</ele>
        <time>2024-11-05T16:02:25Z</time>
      </trkpt>
      <trkpt lat="45.87235" lon="1.30481">
        <ele>351.6</ele>
        <time>2024-11-05T16:02:27Z</time>
      </trkpt>
      <trkpt lat="45.87236" lon="1.30473">
        <ele>351.8</ele>
        <time>2024-11-05T16:02:29Z</time>
      </trkpt>
      <trkpt lat="45.87237" lon="1.30468">
        <ele>351.9</ele>
        <time>2024-11-05T16:02:30Z</time>
      </trkpt>
      <trkpt lat="45.87237" lon="1.30464">
        <ele>352</ele>
        <time>2024-11-05T16:02:31Z</time>
      </trkpt>
      <trkpt lat="45.87238" lon="1.3046">
        <ele>352.1</ele>
        <time>2024-11-05T16:02:32Z</time>
      </trkpt>
      <trkpt lat="45.87238" lon="1.30454">
        <ele>352.2</ele>
        <time>2024-11-05T16:02:34Z</time>
      </trkpt>
      <trkpt lat="45.87239" lon="1.30448">
        <ele>352.2</ele>
        <time>2024-11-05T16:02:36Z</time>
      </trkpt>
      <trkpt lat="45.87236" lon="1.30447">
        <ele>352.2</ele>
        <time>2024-11-05T16:02:57Z</time>
      </trkpt>
      <trkpt lat="45.87234" lon="1.3045">
        <ele>352.2</ele>
        <time>2024-11-05T16:02:59Z</time>
      </trkpt>
      <trkpt lat="45.87232" lon="1.30453">
        <ele>352.2</ele>
        <time>2024-11-05T16:03:00Z</time>
      </trkpt>
      <trkpt lat="45.87231" lon="1.30458">
        <ele>352.1</ele>
        <time>2024-11-05T16:03:01Z</time>
      </trkpt>
      <trkpt lat="45.87231" lon="1.30463">
        <ele>352</ele>
        <time>2024-11-05T16:03:02Z</time>
      </trkpt>
      <trkpt lat="45.8723" lon="1.30468">
        <ele>351.8</ele>
        <time>2024-11-05T16:03:03Z</time>
      </trkpt>
      <trkpt lat="45.8723" lon="1.30474">
        <ele>351.7</ele>
        <time>2024-11-05T16:03:04Z</time>
      </trkpt>
      <trkpt lat="45.87229" lon="1.30479">
        <ele>351.6</ele>
        <time>2024-11-05T16:03:05Z</time>
      </trkpt>
      <trkpt lat="45.87229" lon="1.30486">
        <ele>351.4</ele>
        <time>2024-11-05T16:03:06Z</time>
      </trkpt>
      <trkpt lat="45.87227" lon="1.30492">
        <ele>351.3</ele>
        <time>2024-11-05T16:03:07Z</time>
      </trkpt>
      <trkpt lat="45.87226" lon="1.30498">
        <ele>351.2</ele>
        <time>2024-11-05T16:03:08Z</time>
      </trkpt>
      <trkpt lat="45.87225" lon="1.30504">
        <ele>351</ele>
        <time>2024-11-05T16:03:09Z</time>
      </trkpt>
      <trkpt lat="45.87224" lon="1.30511">
        <ele>350.9</ele>
        <time>2024-11-05T16:03:10Z</time>
      </trkpt>
      <trkpt lat="45.87223" lon="1.30518">
        <ele>350.7</ele>
        <time>2024-11-05T16:03:11Z</time>
      </trkpt>
      <trkpt lat="45.87222" lon="1.30524">
        <ele>350.6</ele>
        <time>2024-11-05T16:03:12Z</time>
      </trkpt>
      <trkpt lat="45.87221" lon="1.30532">
        <ele>350.4</ele>
        <time>2024-11-05T16:03:13Z</time>
      </trkpt>
      <trkpt lat="45.8722" lon="1.30539">
        <ele>350.3</ele>
        <time>2024-11-05T16:03:14Z</time>
      </trkpt>
      <trkpt lat="45.87219" lon="1.30547">
        <ele>350.1</ele>
        <time>2024-11-05T16:03:15Z</time>
      </trkpt>
      <trkpt lat="45.87217" lon="1.30554">
        <ele>350</ele>
        <time>2024-11-05T16:03:16Z</time>
      </trkpt>
      <trkpt lat="45.87215" lon="1.30562">
        <ele>349.8</ele>
        <time>2024-11-05T16:03:17Z</time>
      </trkpt>
      <trkpt lat="45.87214" lon="1.30569">
        <ele>349.6</ele>
        <time>2024-11-05T16:03:18Z</time>
      </trkpt>
      <trkpt lat="45.87212" lon="1.30577">
        <ele>349.3</ele>
        <time>2024-11-05T16:03:19Z</time>
      </trkpt>
      <trkpt lat="45.87211" lon="1.30585">
        <ele>349</ele>
        <time>2024-11-05T16:03:20Z</time>
      </trkpt>
      <trkpt lat="45.87209" lon="1.30593">
        <ele>348.8</ele>
        <time>2024-11-05T16:03:21Z</time>
      </trkpt>
      <trkpt lat="45.87208" lon="1.30601">
        <ele>348.5</ele>
        <time>2024-11-05T16:03:22Z</time>
      </trkpt>
      <trkpt lat="45.87207" lon="1.30608">
        <ele>348.3</ele>
        <time>2024-11-05T16:03:23Z</time>
      </trkpt>
      <trkpt lat="45.87206" lon="1.30616">
        <ele>348</ele>
        <time>2024-11-05T16:03:24Z</time>
      </trkpt>
      <trkpt lat="45.87204" lon="1.30623">
        <ele>347.8</ele>
        <time>2024-11-05T16:03:25Z</time>
      </trkpt>
      <trkpt lat="45.87203" lon="1.30629">
        <ele>347.5</ele>
        <time>2024-11-05T16:03:26Z</time>
      </trkpt>
      <trkpt lat="45.87201" lon="1.30635">
        <ele>347.3</ele>
        <time>2024-11-05T16:03:27Z</time>
      </trkpt>
      <trkpt lat="45.87199" lon="1.30641">
        <ele>347.1</ele>
        <time>2024-11-05T16:03:28Z</time>
      </trkpt>
      <trkpt lat="45.87197" lon="1.30646">
        <ele>346.9</ele>
        <time>2024-11-05T16:03:29Z</time>
      </trkpt>
      <trkpt lat="45.87195" lon="1.30651">
        <ele>346.7</ele>
        <time>2024-11-05T16:03:30Z</time>
      </trkpt>
      <trkpt lat="45.87193" lon="1.30656">
        <ele>346.5</ele>
        <time>2024-11-05T16:03:31Z</time>
      </trkpt>
      <trkpt lat="45.87191" lon="1.3066">
        <ele>346.3</ele>
        <time>2024-11-05T16:03:32Z</time>
      </trkpt>
      <trkpt lat="45.87188" lon="1.30663">
        <ele>346.1</ele>
        <time>2024-11-05T16:03:33Z</time>
      </trkpt>
      <trkpt lat="45.87185" lon="1.30666">
        <ele>345.8</ele>
        <time>2024-11-05T16:03:34Z</time>
      </trkpt>
      <trkpt lat="45.87183" lon="1.30668">
        <ele>345.7</ele>
        <time>2024-11-05T16:03:35Z</time>
      </trkpt>
      <trkpt lat="45.8718" lon="1.30669">
        <ele>345.5</ele>
        <time>2024-11-05T16:03:36Z</time>
      </trkpt>
      <trkpt lat="45.87176" lon="1.30671">
        <ele>345.2</ele>
        <time>2024-11-05T16:03:37Z</time>
      </trkpt>
      <trkpt lat="45.87172" lon="1.30673">
        <ele>344.9</ele>
        <time>2024-11-05T16:03:38Z</time>
      </trkpt>
      <trkpt lat="45.87168" lon="1.30674">
        <ele>344.6</ele>
        <time>2024-11-05T16:03:39Z</time>
      </trkpt>
      <trkpt lat="45.87163" lon="1.30675">
        <ele>344.3</ele>
        <time>2024-11-05T16:03:40Z</time>
      </trkpt>
      <trkpt lat="45.87159" lon="1.30677">
        <ele>344</ele>
        <time>2024-11-05T16:03:41Z</time>
      </trkpt>
      <trkpt lat="45.87155" lon="1.30678">
        <ele>343.7</ele>
        <time>2024-11-05T16:03:42Z</time>
      </trkpt>
      <trkpt lat="45.8715" lon="1.30679">
        <ele>343.4</ele>
        <time>2024-11-05T16:03:43Z</time>
      </trkpt>
      <trkpt lat="45.87146" lon="1.30681">
        <ele>343.2</ele>
        <time>2024-11-05T16:03:44Z</time>
      </trkpt>
      <trkpt lat="45.87141" lon="1.30682">
        <ele>342.9</ele>
        <time>2024-11-05T16:03:45Z</time>
      </trkpt>
      <trkpt lat="45.87137" lon="1.30684">
        <ele>342.7</ele>
        <time>2024-11-05T16:03:46Z</time>
      </trkpt>
      <trkpt lat="45.87133" lon="1.30686">
        <ele>342.5</ele>
        <time>2024-11-05T16:03:47Z</time>
      </trkpt>
      <trkpt lat="45.8713" lon="1.30685">
        <ele>342.3</ele>
        <time>2024-11-05T16:03:48Z</time>
      </trkpt>
      <trkpt lat="45.87127" lon="1.30685">
        <ele>342.2</ele>
        <time>2024-11-05T16:03:49Z</time>
      </trkpt>
      <trkpt lat="45.87124" lon="1.30685">
        <ele>342</ele>
        <time>2024-11-05T16:03:50Z</time>
      </trkpt>
      <trkpt lat="45.87122" lon="1.30686">
        <ele>342</ele>
        <time>2024-11-05T16:03:51Z</time>
      </trkpt>
      <trkpt lat="45.87119" lon="1.30689">
        <ele>341.8</ele>
        <time>2024-11-05T16:03:52Z</time>
      </trkpt>
      <trkpt lat="45.87116" lon="1.30692">
        <ele>341.6</ele>
        <time>2024-11-05T16:03:53Z</time>
      </trkpt>
      <trkpt lat="45.87114" lon="1.30696">
        <ele>341.5</ele>
        <time>2024-11-05T16:03:54Z</time>
      </trkpt>
      <trkpt lat="45.87112" lon="1.30699">
        <ele>341.4</ele>
        <time>2024-11-05T16:03:55Z</time>
      </trkpt>
      <trkpt lat="45.8711" lon="1.30703">
        <ele>341.2</ele>
        <time>2024-11-05T16:03:56Z</time>
      </trkpt>
      <trkpt lat="45.87107" lon="1.30707">
        <ele>341</ele>
        <time>2024-11-05T16:03:57Z</time>
      </trkpt>
      <trkpt lat="45.87104" lon="1.30711">
        <ele>340.8</ele>
        <time>2024-11-05T16:03:58Z</time>
      </trkpt>
      <trkpt lat="45.87101" lon="1.30715">
        <ele>340.7</ele>
        <time>2024-11-05T16:03:59Z</time>
      </trkpt>
      <trkpt lat="45.87098" lon="1.30718">
        <ele>340.5</ele>
        <time>2024-11-05T16:04:00Z</time>
      </trkpt>
      <trkpt lat="45.87094" lon="1.30723">
        <ele>340.3</ele>
        <time>2024-11-05T16:04:01Z</time>
      </trkpt>
      <trkpt lat="45.87091" lon="1.30728">
        <ele>340.1</ele>
        <time>2024-11-05T16:04:02Z</time>
      </trkpt>
      <trkpt lat="45.87088" lon="1.30732">
        <ele>339.9</ele>
        <time>2024-11-05T16:04:03Z</time>
      </trkpt>
      <trkpt lat="45.87085" lon="1.30737">
        <ele>339.7</ele>
        <time>2024-11-05T16:04:04Z</time>
      </trkpt>
      <trkpt lat="45.87082" lon="1.30741">
        <ele>339.6</ele>
        <time>2024-11-05T16:04:05Z</time>
      </trkpt>
      <trkpt lat="45.87079" lon="1.30747">
        <ele>339.4</ele>
        <time>2024-11-05T16:04:06Z</time>
      </trkpt>
      <trkpt lat="45.87076" lon="1.30752">
        <ele>339.2</ele>
        <time>2024-11-05T16:04:07Z</time>
      </trkpt>
      <trkpt lat="45.87072" lon="1.30757">
        <ele>339</ele>
        <time>2024-11-05T16:04:08Z</time>
      </trkpt>
      <trkpt lat="45.87068" lon="1.30763">
        <ele>338.8</ele>
        <time>2024-11-05T16:04:09Z</time>
      </trkpt>
      <trkpt lat="45.87065" lon="1.30768">
        <ele>338.6</ele>
        <time>2024-11-05T16:04:10Z</time>
      </trkpt>
      <trkpt lat="45.87062" lon="1.30773">
        <ele>338.4</ele>
        <time>2024-11-05T16:04:11Z</time>
      </trkpt>
      <trkpt lat="45.87059" lon="1.30779">
        <ele>338.2</ele>
        <time>2024-11-05T16:04:12Z</time>
      </trkpt>
      <trkpt lat="45.87056" lon="1.30784">
        <ele>338</ele>
        <time>2024-11-05T16:04:13Z</time>
      </trkpt>
      <trkpt lat="45.87052" lon="1.30788">
        <ele>337.8</ele>
        <time>2024-11-05T16:04:14Z</time>
      </trkpt>
      <trkpt lat="45.87049" lon="1.30793">
        <ele>337.6</ele>
        <time>2024-11-05T16:04:15Z</time>
      </trkpt>
      <trkpt lat="45.87045" lon="1.30797">
        <ele>337.4</ele>
        <time>2024-11-05T16:04:16Z</time>
      </trkpt>
      <trkpt lat="45.87042" lon="1.30802">
        <ele>337.2</ele>
        <time>2024-11-05T16:04:17Z</time>
      </trkpt>
      <trkpt lat="45.87038" lon="1.30806">
        <ele>337</ele>
        <time>2024-11-05T16:04:18Z</time>
      </trkpt>
      <trkpt lat="45.87035" lon="1.30811">
        <ele>336.7</ele>
        <time>2024-11-05T16:04:19Z</time>
      </trkpt>
      <trkpt lat="45.87031" lon="1.30815">
        <ele>336.5</ele>
        <time>2024-11-05T16:04:20Z</time>
      </trkpt>
      <trkpt lat="45.87028" lon="1.30819">
        <ele>336.3</ele>
        <time>2024-11-05T16:04:21Z</time>
      </trkpt>
      <trkpt lat="45.87025" lon="1.30823">
        <ele>336.1</ele>
        <time>2024-11-05T16:04:22Z</time>
      </trkpt>
      <trkpt lat="45.87022" lon="1.30827">
        <ele>335.9</ele>
        <time>2024-11-05T16:04:23Z</time>
      </trkpt>
      <trkpt lat="45.87018" lon="1.30831">
        <ele>335.6</ele>
        <time>2024-11-05T16:04:24Z</time>
      </trkpt>
      <trkpt lat="45.87015" lon="1.30836">
        <ele>335.4</ele>
        <time>2024-11-05T16:04:25Z</time>
      </trkpt>
      <trkpt lat="45.87011" lon="1.3084">
        <ele>335.1</ele>
        <time>2024-11-05T16:04:26Z</time>
      </trkpt>
      <trkpt lat="45.87008" lon="1.30844">
        <ele>334.8</ele>
        <time>2024-11-05T16:04:27Z</time>
      </trkpt>
      <trkpt lat="45.87004" lon="1.30848">
        <ele>334.5</ele>
        <time>2024-11-05T16:04:28Z</time>
      </trkpt>
      <trkpt lat="45.87001" lon="1.30852">
        <ele>334.2</ele>
        <time>2024-11-05T16:04:29Z</time>
      </trkpt>
      <trkpt lat="45.86997" lon="1.30857">
        <ele>333.9</ele>
        <time>2024-11-05T16:04:30Z</time>
      </trkpt>
      <trkpt lat="45.86994" lon="1.30861">
        <ele>333.6</ele>
        <time>2024-11-05T16:04:31Z</time>
      </trkpt>
      <trkpt lat="45.86991" lon="1.30865">
        <ele>333.3</ele>
        <time>2024-11-05T16:04:32Z</time>
      </trkpt>
      <trkpt lat="45.86988" lon="1.3087">
        <ele>333</ele>
        <time>2024-11-05T16:04:33Z</time>
      </trkpt>
      <trkpt lat="45.86985" lon="1.30873">
        <ele>332.8</ele>
        <time>2024-11-05T16:04:34Z</time>
      </trkpt>
      <trkpt lat="45.86982" lon="1.30876">
        <ele>332.5</ele>
        <time>2024-11-05T16:04:35Z</time>
      </trkpt>
      <trkpt lat="45.86979" lon="1.30879">
        <ele>332.2</ele>
        <time>2024-11-05T16:04:36Z</time>
      </trkpt>
      <trkpt lat="45.86976" lon="1.30883">
        <ele>331.9</ele>
        <time>2024-11-05T16:04:37Z</time>
      </trkpt>
      <trkpt lat="45.86973" lon="1.30888">
        <ele>331.5</ele>
        <time>2024-11-05T16:04:38Z</time>
      </trkpt>
      <trkpt lat="45.86969" lon="1.30893">
        <ele>331.1</ele>
        <time>2024-11-05T16:04:39Z</time>
      </trkpt>
      <trkpt lat="45.86966" lon="1.30898">
        <ele>330.7</ele>
        <time>2024-11-05T16:04:40Z</time>
      </trkpt>
      <trkpt lat="45.86963" lon="1.30903">
        <ele>330.3</ele>
        <time>2024-11-05T16:04:41Z</time>
      </trkpt>
      <trkpt lat="45.8696" lon="1.30908">
        <ele>329.9</ele>
        <time>2024-11-05T16:04:42Z</time>
      </trkpt>
      <trkpt lat="45.86957" lon="1.30912">
        <ele>329.5</ele>
        <time>2024-11-05T16:04:43Z</time>
      </trkpt>
      <trkpt lat="45.86955" lon="1.30916">
        <ele>329.2</ele>
        <time>2024-11-05T16:04:44Z</time>
      </trkpt>
      <trkpt lat="45.86953" lon="1.30921">
        <ele>328.9</ele>
        <time>2024-11-05T16:04:46Z</time>
      </trkpt>
      <trkpt lat="45.8695" lon="1.30925">
        <ele>328.5</ele>
        <time>2024-11-05T16:04:48Z</time>
      </trkpt>
      <trkpt lat="45.86948" lon="1.30929">
        <ele>328.2</ele>
        <time>2024-11-05T16:04:50Z</time>
      </trkpt>
      <trkpt lat="45.86946" lon="1.30932">
        <ele>328</ele>
        <time>2024-11-05T16:04:52Z</time>
      </trkpt>
      <trkpt lat="45.86947" lon="1.30934">
        <ele>328</ele>
        <time>2024-11-05T16:05:04Z</time>
      </trkpt>
      <trkpt lat="45.86949" lon="1.30933">
        <ele>328.1</ele>
        <time>2024-11-05T16:05:32Z</time>
      </trkpt>
      <trkpt lat="45.8695" lon="1.3093">
        <ele>328.3</ele>
        <time>2024-11-05T16:05:34Z</time>
      </trkpt>
      <trkpt lat="45.86952" lon="1.30926">
        <ele>328.6</ele>
        <time>2024-11-05T16:05:36Z</time>
      </trkpt>
      <trkpt lat="45.86955" lon="1.30921">
        <ele>329</ele>
        <time>2024-11-05T16:05:38Z</time>
      </trkpt>
      <trkpt lat="45.86957" lon="1.30917">
        <ele>329.3</ele>
        <time>2024-11-05T16:05:39Z</time>
      </trkpt>
      <trkpt lat="45.86959" lon="1.30913">
        <ele>329.6</ele>
        <time>2024-11-05T16:05:40Z</time>
      </trkpt>
      <trkpt lat="45.86962" lon="1.30909">
        <ele>330</ele>
        <time>2024-11-05T16:05:41Z</time>
      </trkpt>
      <trkpt lat="45.86964" lon="1.30905">
        <ele>330.3</ele>
        <time>2024-11-05T16:05:42Z</time>
      </trkpt>
      <trkpt lat="45.86966" lon="1.30902">
        <ele>330.5</ele>
        <time>2024-11-05T16:05:43Z</time>
      </trkpt>
      <trkpt lat="45.86968" lon="1.30899">
        <ele>330.8</ele>
        <time>2024-11-05T16:05:44Z</time>
      </trkpt>
      <trkpt lat="45.86971" lon="1.30896">
        <ele>331.1</ele>
        <time>2024-11-05T16:05:45Z</time>
      </trkpt>
      <trkpt lat="45.86973" lon="1.30893">
        <ele>331.3</ele>
        <time>2024-11-05T16:05:46Z</time>
      </trkpt>
      <trkpt lat="45.86975" lon="1.30889">
        <ele>331.6</ele>
        <time>2024-11-05T16:05:47Z</time>
      </trkpt>
      <trkpt lat="45.86977" lon="1.30886">
        <ele>331.8</ele>
        <time>2024-11-05T16:05:48Z</time>
      </trkpt>
      <trkpt lat="45.86979" lon="1.30882">
        <ele>332.1</ele>
        <time>2024-11-05T16:05:49Z</time>
      </trkpt>
      <trkpt lat="45.86982" lon="1.30879">
        <ele>332.4</ele>
        <time>2024-11-05T16:05:50Z</time>
      </trkpt>
      <trkpt lat="45.86984" lon="1.30875">
        <ele>332.6</ele>
        <time>2024-11-05T16:05:51Z</time>
      </trkpt>
      <trkpt lat="45.86986" lon="1.30871">
        <ele>332.9</ele>
        <time>2024-11-05T16:05:52Z</time>
      </trkpt>
      <trkpt lat="45.86989" lon="1.30867">
        <ele>333.1</ele>
        <time>2024-11-05T16:05:53Z</time>
      </trkpt>
      <trkpt lat="45.86991" lon="1.30864">
        <ele>333.3</ele>
        <time>2024-11-05T16:05:54Z</time>
      </trkpt>
      <trkpt lat="45.86993" lon="1.3086">
        <ele>333.6</ele>
        <time>2024-11-05T16:05:55Z</time>
      </trkpt>
      <trkpt lat="45.86995" lon="1.30857">
        <ele>333.8</ele>
        <time>2024-11-05T16:05:56Z</time>
      </trkpt>
      <trkpt lat="45.86998" lon="1.30853">
        <ele>334</ele>
        <time>2024-11-05T16:05:57Z</time>
      </trkpt>
      <trkpt lat="45.87" lon="1.3085">
        <ele>334.2</ele>
        <time>2024-11-05T16:05:58Z</time>
      </trkpt>
      <trkpt lat="45.87003" lon="1.30846">
        <ele>334.5</ele>
        <time>2024-11-05T16:05:59Z</time>
      </trkpt>
      <trkpt lat="45.87006" lon="1.30843">
        <ele>334.7</ele>
        <time>2024-11-05T16:06:00Z</time>
      </trkpt>
      <trkpt lat="45.87008" lon="1.30839">
        <ele>334.9</ele>
        <time>2024-11-05T16:06:01Z</time>
      </trkpt>
      <trkpt lat="45.87012" lon="1.30835">
        <ele>335.2</ele>
        <time>2024-11-05T16:06:03Z</time>
      </trkpt>
      <trkpt lat="45.87015" lon="1.30832">
        <ele>335.5</ele>
        <time>2024-11-05T16:06:04Z</time>
      </trkpt>
      <trkpt lat="45.87017" lon="1.30828">
        <ele>335.6</ele>
        <time>2024-11-05T16:06:05Z</time>
      </trkpt>
      <trkpt lat="45.8702" lon="1.30825">
        <ele>335.8</ele>
        <time>2024-11-05T16:06:06Z</time>
      </trkpt>
      <trkpt lat="45.87022" lon="1.30822">
        <ele>336</ele>
        <time>2024-11-05T16:06:07Z</time>
      </trkpt>
      <trkpt lat="45.87025" lon="1.30819">
        <ele>336.2</ele>
        <time>2024-11-05T16:06:08Z</time>
      </trkpt>
      <trkpt lat="45.87027" lon="1.30815">
        <ele>336.4</ele>
        <time>2024-11-05T16:06:09Z</time>
      </trkpt>
      <trkpt lat="45.8703" lon="1.30812">
        <ele>336.5</ele>
        <time>2024-11-05T16:06:10Z</time>
      </trkpt>
      <trkpt lat="45.87032" lon="1.30809">
        <ele>336.7</ele>
        <time>2024-11-05T16:06:11Z</time>
      </trkpt>
      <trkpt lat="45.87035" lon="1.30806">
        <ele>336.9</ele>
        <time>2024-11-05T16:06:12Z</time>
      </trkpt>
      <trkpt lat="45.87037" lon="1.30803">
        <ele>337</ele>
        <time>2024-11-05T16:06:13Z</time>
      </trkpt>
      <trkpt lat="45.87039" lon="1.308">
        <ele>337.1</ele>
        <time>2024-11-05T16:06:14Z</time>
      </trkpt>
      <trkpt lat="45.87042" lon="1.30798">
        <ele>337.3</ele>
        <time>2024-11-05T16:06:15Z</time>
      </trkpt>
      <trkpt lat="45.87044" lon="1.30794">
        <ele>337.4</ele>
        <time>2024-11-05T16:06:16Z</time>
      </trkpt>
      <trkpt lat="45.87047" lon="1.30791">
        <ele>337.6</ele>
        <time>2024-11-05T16:06:17Z</time>
      </trkpt>
      <trkpt lat="45.87049" lon="1.30788">
        <ele>337.7</ele>
        <time>2024-11-05T16:06:18Z</time>
      </trkpt>
      <trkpt lat="45.87052" lon="1.30784">
        <ele>337.9</ele>
        <time>2024-11-05T16:06:19Z</time>
      </trkpt>
      <trkpt lat="45.87054" lon="1.3078">
        <ele>338</ele>
        <time>2024-11-05T16:06:20Z</time>
      </trkpt>
      <trkpt lat="45.87057" lon="1.30776">
        <ele>338.2</ele>
        <time>2024-11-05T16:06:21Z</time>
      </trkpt>
      <trkpt lat="45.87059" lon="1.30772">
        <ele>338.4</ele>
        <time>2024-11-05T16:06:22Z</time>
      </trkpt>
      <trkpt lat="45.87062" lon="1.30768">
        <ele>338.5</ele>
        <time>2024-11-05T16:06:23Z</time>
      </trkpt>
      <trkpt lat="45.87065" lon="1.30764">
        <ele>338.7</ele>
        <time>2024-11-05T16:06:24Z</time>
      </trkpt>
      <trkpt lat="45.87067" lon="1.30761">
        <ele>338.8</ele>
        <time>2024-11-05T16:06:25Z</time>
      </trkpt>
      <trkpt lat="45.8707" lon="1.30757">
        <ele>338.9</ele>
        <time>2024-11-05T16:06:26Z</time>
      </trkpt>
      <trkpt lat="45.87073" lon="1.30753">
        <ele>339.1</ele>
        <time>2024-11-05T16:06:27Z</time>
      </trkpt>
      <trkpt lat="45.87075" lon="1.30749">
        <ele>339.2</ele>
        <time>2024-11-05T16:06:28Z</time>
      </trkpt>
      <trkpt lat="45.87078" lon="1.30745">
        <ele>339.4</ele>
        <time>2024-11-05T16:06:29Z</time>
      </trkpt>
      <trkpt lat="45.8708" lon="1.30741">
        <ele>339.5</ele>
        <time>2024-11-05T16:06:30Z</time>
      </trkpt>
      <trkpt lat="45.87083" lon="1.30737">
        <ele>339.7</ele>
        <time>2024-11-05T16:06:31Z</time>
      </trkpt>
      <trkpt lat="45.87085" lon="1.30733">
        <ele>339.8</ele>
        <time>2024-11-05T16:06:32Z</time>
      </trkpt>
      <trkpt lat="45.87088" lon="1.30729">
        <ele>340</ele>
        <time>2024-11-05T16:06:33Z</time>
      </trkpt>
      <trkpt lat="45.8709" lon="1.30725">
        <ele>340.1</ele>
        <time>2024-11-05T16:06:34Z</time>
      </trkpt>
      <trkpt lat="45.87093" lon="1.30721">
        <ele>340.3</ele>
        <time>2024-11-05T16:06:35Z</time>
      </trkpt>
      <trkpt lat="45.87096" lon="1.30717">
        <ele>340.5</ele>
        <time>2024-11-05T16:06:36Z</time>
      </trkpt>
      <trkpt lat="45.87098" lon="1.30713">
        <ele>340.6</ele>
        <time>2024-11-05T16:06:37Z</time>
      </trkpt>
      <trkpt lat="45.87101" lon="1.3071">
        <ele>340.8</ele>
        <time>2024-11-05T16:06:38Z</time>
      </trkpt>
      <trkpt lat="45.87104" lon="1.30706">
        <ele>341</ele>
        <time>2024-11-05T16:06:39Z</time>
      </trkpt>
      <trkpt lat="45.87107" lon="1.30703">
        <ele>341.1</ele>
        <time>2024-11-05T16:06:40Z</time>
      </trkpt>
      <trkpt lat="45.8711" lon="1.30701">
        <ele>341.3</ele>
        <time>2024-11-05T16:06:41Z</time>
      </trkpt>
      <trkpt lat="45.87112" lon="1.30697">
        <ele>341.4</ele>
        <time>2024-11-05T16:06:42Z</time>
      </trkpt>
      <trkpt lat="45.87114" lon="1.30694">
        <ele>341.6</ele>
        <time>2024-11-05T16:06:43Z</time>
      </trkpt>
      <trkpt lat="45.87117" lon="1.30691">
        <ele>341.7</ele>
        <time>2024-11-05T16:06:44Z</time>
      </trkpt>
      <trkpt lat="45.87119" lon="1.30688">
        <ele>341.9</ele>
        <time>2024-11-05T16:06:45Z</time>
      </trkpt>
      <trkpt lat="45.87123" lon="1.30687">
        <ele>342</ele>
        <time>2024-11-05T16:06:46Z</time>
      </trkpt>
      <trkpt lat="45.87126" lon="1.30686">
        <ele>342.2</ele>
        <time>2024-11-05T16:06:47Z</time>
      </trkpt>
      <trkpt lat="45.8713" lon="1.30686">
        <ele>342.4</ele>
        <time>2024-11-05T16:06:48Z</time>
      </trkpt>
      <trkpt lat="45.87133" lon="1.30685">
        <ele>342.5</ele>
        <time>2024-11-05T16:06:49Z</time>
      </trkpt>
      <trkpt lat="45.87137" lon="1.30684">
        <ele>342.7</ele>
        <time>2024-11-05T16:06:50Z</time>
      </trkpt>
      <trkpt lat="45.8714" lon="1.30682">
        <ele>342.9</ele>
        <time>2024-11-05T16:06:51Z</time>
      </trkpt>
      <trkpt lat="45.87144" lon="1.30681">
        <ele>343.1</ele>
        <time>2024-11-05T16:06:52Z</time>
      </trkpt>
      <trkpt lat="45.87148" lon="1.3068">
        <ele>343.3</ele>
        <time>2024-11-05T16:06:53Z</time>
      </trkpt>
      <trkpt lat="45.87153" lon="1.30679">
        <ele>343.7</ele>
        <time>2024-11-05T16:06:54Z</time>
      </trkpt>
      <trkpt lat="45.87157" lon="1.30677">
        <ele>343.9</ele>
        <time>2024-11-05T16:06:55Z</time>
      </trkpt>
      <trkpt lat="45.8716" lon="1.30676">
        <ele>344.1</ele>
        <time>2024-11-05T16:06:56Z</time>
      </trkpt>
      <trkpt lat="45.87164" lon="1.30674">
        <ele>344.4</ele>
        <time>2024-11-05T16:06:57Z</time>
      </trkpt>
      <trkpt lat="45.87168" lon="1.30673">
        <ele>344.7</ele>
        <time>2024-11-05T16:06:58Z</time>
      </trkpt>
      <trkpt lat="45.87171" lon="1.30672">
        <ele>344.9</ele>
        <time>2024-11-05T16:06:59Z</time>
      </trkpt>
      <trkpt lat="45.87175" lon="1.3067">
        <ele>345.2</ele>
        <time>2024-11-05T16:07:00Z</time>
      </trkpt>
      <trkpt lat="45.87178" lon="1.30669">
        <ele>345.4</ele>
        <time>2024-11-05T16:07:01Z</time>
      </trkpt>
      <trkpt lat="45.87181" lon="1.30667">
        <ele>345.6</ele>
        <time>2024-11-05T16:07:02Z</time>
      </trkpt>
      <trkpt lat="45.87184" lon="1.30664">
        <ele>345.9</ele>
        <time>2024-11-05T16:07:03Z</time>
      </trkpt>
      <trkpt lat="45.87187" lon="1.30661">
        <ele>346.1</ele>
        <time>2024-11-05T16:07:04Z</time>
      </trkpt>
      <trkpt lat="45.87189" lon="1.30657">
        <ele>346.3</ele>
        <time>2024-11-05T16:07:05Z</time>
      </trkpt>
      <trkpt lat="45.87192" lon="1.30652">
        <ele>346.6</ele>
        <time>2024-11-05T16:07:06Z</time>
      </trkpt>
      <trkpt lat="45.87194" lon="1.30648">
        <ele>346.8</ele>
        <time>2024-11-05T16:07:07Z</time>
      </trkpt>
      <trkpt lat="45.87195" lon="1.30643">
        <ele>346.9</ele>
        <time>2024-11-05T16:07:08Z</time>
      </trkpt>
      <trkpt lat="45.87197" lon="1.30639">
        <ele>347.1</ele>
        <time>2024-11-05T16:07:09Z</time>
      </trkpt>
      <trkpt lat="45.87198" lon="1.30634">
        <ele>347.3</ele>
        <time>2024-11-05T16:07:10Z</time>
      </trkpt>
      <trkpt lat="45.87199" lon="1.30629">
        <ele>347.5</ele>
        <time>2024-11-05T16:07:11Z</time>
      </trkpt>
      <trkpt lat="45.872" lon="1.30625">
        <ele>347.6</ele>
        <time>2024-11-05T16:07:12Z</time>
      </trkpt>
      <trkpt lat="45.87201" lon="1.30621">
        <ele>347.7</ele>
        <time>2024-11-05T16:07:13Z</time>
      </trkpt>
      <trkpt lat="45.87202" lon="1.30617">
        <ele>347.9</ele>
        <time>2024-11-05T16:07:14Z</time>
      </trkpt>
      <trkpt lat="45.87203" lon="1.30612">
        <ele>348.1</ele>
        <time>2024-11-05T16:07:15Z</time>
      </trkpt>
      <trkpt lat="45.87204" lon="1.30608">
        <ele>348.2</ele>
        <time>2024-11-05T16:07:16Z</time>
      </trkpt>
      <trkpt lat="45.87205" lon="1.30604">
        <ele>348.3</ele>
        <time>2024-11-05T16:07:17Z</time>
      </trkpt>
      <trkpt lat="45.87206" lon="1.306">
        <ele>348.5</ele>
        <time>2024-11-05T16:07:18Z</time>
      </trkpt>
      <trkpt lat="45.87206" lon="1.30595">
        <ele>348.6</ele>
        <time>2024-11-05T16:07:19Z</time>
      </trkpt>
      <trkpt lat="45.87207" lon="1.30591">
        <ele>348.8</ele>
        <time>2024-11-05T16:07:20Z</time>
      </trkpt>
      <trkpt lat="45.87208" lon="1.30586">
        <ele>348.9</ele>
        <time>2024-11-05T16:07:21Z</time>
      </trkpt>
      <trkpt lat="45.87209" lon="1.3058">
        <ele>349.2</ele>
        <time>2024-11-05T16:07:22Z</time>
      </trkpt>
      <trkpt lat="45.8721" lon="1.30575">
        <ele>349.3</ele>
        <time>2024-11-05T16:07:23Z</time>
      </trkpt>
      <trkpt lat="45.87212" lon="1.30569">
        <ele>349.5</ele>
        <time>2024-11-05T16:07:24Z</time>
      </trkpt>
      <trkpt lat="45.87213" lon="1.30564">
        <ele>349.7</ele>
        <time>2024-11-05T16:07:25Z</time>
      </trkpt>
      <trkpt lat="45.87214" lon="1.30559">
        <ele>349.8</ele>
        <time>2024-11-05T16:07:26Z</time>
      </trkpt>
      <trkpt lat="45.87215" lon="1.30554">
        <ele>349.9</ele>
        <time>2024-11-05T16:07:27Z</time>
      </trkpt>
      <trkpt lat="45.87216" lon="1.30549">
        <ele>350</ele>
        <time>2024-11-05T16:07:28Z</time>
      </trkpt>
      <trkpt lat="45.87217" lon="1.30543">
        <ele>350.2</ele>
        <time>2024-11-05T16:07:29Z</time>
      </trkpt>
      <trkpt lat="45.87218" lon="1.30538">
        <ele>350.3</ele>
        <time>2024-11-05T16:07:30Z</time>
      </trkpt>
      <trkpt lat="45.87219" lon="1.30533">
        <ele>350.4</ele>
        <time>2024-11-05T16:07:31Z</time>
      </trkpt>
      <trkpt lat="45.8722" lon="1.30528">
        <ele>350.5</ele>
        <time>2024-11-05T16:07:32Z</time>
      </trkpt>
      <trkpt lat="45.8722" lon="1.30522">
        <ele>350.6</ele>
        <time>2024-11-05T16:07:33Z</time>
      </trkpt>
      <trkpt lat="45.87221" lon="1.30516">
        <ele>350.7</ele>
        <time>2024-11-05T16:07:34Z</time>
      </trkpt>
      <trkpt lat="45.87222" lon="1.30511">
        <ele>350.9</ele>
        <time>2024-11-05T16:07:35Z</time>
      </trkpt>
      <trkpt lat="45.87222" lon="1.30506">
        <ele>351</ele>
        <time>2024-11-05T16:07:36Z</time>
      </trkpt>
      <trkpt lat="45.87223" lon="1.305">
        <ele>351.1</ele>
        <time>2024-11-05T16:07:37Z</time>
      </trkpt>
      <trkpt lat="45.87223" lon="1.30496">
        <ele>351.2</ele>
        <time>2024-11-05T16:07:38Z</time>
      </trkpt>
      <trkpt lat="45.87224" lon="1.30491">
        <ele>351.3</ele>
        <time>2024-11-05T16:07:39Z</time>
      </trkpt>
      <trkpt lat="45.87225" lon="1.30486">
        <ele>351.4</ele>
        <time>2024-11-05T16:07:40Z</time>
      </trkpt>
      <trkpt lat="45.87226" lon="1.3048">
        <ele>351.5</ele>
        <time>2024-11-05T16:07:41Z</time>
      </trkpt>
      <trkpt lat="45.87227" lon="1.30475">
        <ele>351.7</ele>
        <time>2024-11-05T16:07:42Z</time>
      </trkpt>
      <trkpt lat="45.87228" lon="1.3047">
        <ele>351.8</ele>
        <time>2024-11-05T16:07:43Z</time>
      </trkpt>
      <trkpt lat="45.87228" lon="1.30465">
        <ele>351.9</ele>
        <time>2024-11-05T16:07:44Z</time>
      </trkpt>
      <trkpt lat="45.87228" lon="1.30459">
        <ele>352</ele>
        <time>2024-11-05T16:07:45Z</time>
      </trkpt>
      <trkpt lat="45.87229" lon="1.30454">
        <ele>352.1</ele>
        <time>2024-11-05T16:07:46Z</time>
      </trkpt>
      <trkpt lat="45.87229" lon="1.30448">
        <ele>352.3</ele>
        <time>2024-11-05T16:07:47Z</time>
      </trkpt>
      <trkpt lat="45.8723" lon="1.30443">
        <ele>352.4</ele>
        <time>2024-11-05T16:07:48Z</time>
      </trkpt>
      <trkpt lat="45.87231" lon="1.30437">
        <ele>352.6</ele>
        <time>2024-11-05T16:07:49Z</time>
      </trkpt>
      <trkpt lat="45.87232" lon="1.30432">
        <ele>352.7</ele>
        <time>2024-11-05T16:07:50Z</time>
      </trkpt>
      <trkpt lat="45.87234" lon="1.30427">
        <ele>352.9</ele>
        <time>2024-11-05T16:07:51Z</time>
      </trkpt>
      <trkpt lat="45.87236" lon="1.30421">
        <ele>353</ele>
        <time>2024-11-05T16:07:52Z</time>
      </trkpt>
      <trkpt lat="45.87238" lon="1.30415">
        <ele>353.2</ele>
        <time>2024-11-05T16:07:53Z</time>
      </trkpt>
      <trkpt lat="45.87239" lon="1.30409">
        <ele>353.3</ele>
        <time>2024-11-05T16:07:54Z</time>
      </trkpt>
      <trkpt lat="45.87238" lon="1.30402">
        <ele>353.5</ele>
        <time>2024-11-05T16:07:55Z</time>
      </trkpt>
      <trkpt lat="45.87238" lon="1.30395">
        <ele>353.6</ele>
        <time>2024-11-05T16:07:56Z</time>
      </trkpt>
      <trkpt lat="45.87239" lon="1.30388">
        <ele>353.8</ele>
        <time>2024-11-05T16:07:57Z</time>
      </trkpt>
      <trkpt lat="45.87239" lon="1.30382">
        <ele>353.9</ele>
        <time>2024-11-05T16:07:58Z</time>
      </trkpt>
      <trkpt lat="45.87239" lon="1.30376">
        <ele>354.1</ele>
        <time>2024-11-05T16:07:59Z</time>
      </trkpt>
      <trkpt lat="45.87239" lon="1.3037">
        <ele>354.2</ele>
        <time>2024-11-05T16:08:00Z</time>
      </trkpt>
      <trkpt lat="45.87239" lon="1.30364">
        <ele>354.3</ele>
        <time>2024-11-05T16:08:01Z</time>
      </trkpt>
      <trkpt lat="45.87239" lon="1.30358">
        <ele>354.5</ele>
        <time>2024-11-05T16:08:02Z</time>
      </trkpt>
      <trkpt lat="45.87239" lon="1.30352">
        <ele>354.6</ele>
        <time>2024-11-05T16:08:03Z</time>
      </trkpt>
      <trkpt lat="45.87239" lon="1.30346">
        <ele>354.8</ele>
        <time>2024-11-05T16:08:04Z</time>
      </trkpt>
      <trkpt lat="45.87239" lon="1.30341">
        <ele>354.9</ele>
        <time>2024-11-05T16:08:05Z</time>
      </trkpt>
      <trkpt lat="45.87239" lon="1.30335">
        <ele>355.1</ele>
        <time>2024-11-05T16:08:06Z</time>
      </trkpt>
      <trkpt lat="45.87239" lon="1.30329">
        <ele>355.2</ele>
        <time>2024-11-05T16:08:07Z</time>
      </trkpt>
      <trkpt lat="45.87238" lon="1.30323">
        <ele>355.3</ele>
        <time>2024-11-05T16:08:08Z</time>
      </trkpt>
      <trkpt lat="45.87238" lon="1.30318">
        <ele>355.4</ele>
        <time>2024-11-05T16:08:09Z</time>
      </trkpt>
      <trkpt lat="45.87238" lon="1.30312">
        <ele>355.6</ele>
        <time>2024-11-05T16:08:10Z</time>
      </trkpt>
      <trkpt lat="45.87238" lon="1.30306">
        <ele>355.7</ele>
        <time>2024-11-05T16:08:11Z</time>
      </trkpt>
      <trkpt lat="45.87238" lon="1.303">
        <ele>355.9</ele>
        <time>2024-11-05T16:08:12Z</time>
      </trkpt>
      <trkpt lat="45.87238" lon="1.30294">
        <ele>356</ele>
        <time>2024-11-05T16:08:13Z</time>
      </trkpt>
      <trkpt lat="45.87237" lon="1.30288">
        <ele>356.2</ele>
        <time>2024-11-05T16:08:14Z</time>
      </trkpt>
      <trkpt lat="45.87237" lon="1.30283">
        <ele>356.3</ele>
        <time>2024-11-05T16:08:15Z</time>
      </trkpt>
      <trkpt lat="45.87237" lon="1.30277">
        <ele>356.5</ele>
        <time>2024-11-05T16:08:16Z</time>
      </trkpt>
      <trkpt lat="45.87237" lon="1.30271">
        <ele>356.7</ele>
        <time>2024-11-05T16:08:17Z</time>
      </trkpt>
      <trkpt lat="45.87237" lon="1.30266">
        <ele>356.8</ele>
        <time>2024-11-05T16:08:18Z</time>
      </trkpt>
      <trkpt lat="45.87236" lon="1.3026">
        <ele>357</ele>
        <time>2024-11-05T16:08:19Z</time>
      </trkpt>
      <trkpt lat="45.87236" lon="1.30255">
        <ele>357.1</ele>
        <time>2024-11-05T16:08:20Z</time>
      </trkpt>
      <trkpt lat="45.87236" lon="1.30249">
        <ele>357.3</ele>
        <time>2024-11-05T16:08:21Z</time>
      </trkpt>
      <trkpt lat="45.87236" lon="1.30244">
        <ele>357.5</ele>
        <time>2024-11-05T16:08:22Z</time>
      </trkpt>
      <trkpt lat="45.87236" lon="1.30238">
        <ele>357.7</ele>
        <time>2024-11-05T16:08:23Z</time>
      </trkpt>
      <trkpt lat="45.87236" lon="1.30233">
        <ele>357.8</ele>
        <time>2024-11-05T16:08:24Z</time>
      </trkpt>
      <trkpt lat="45.87236" lon="1.30228">
        <ele>358</ele>
        <time>2024-11-05T16:08:25Z</time>
      </trkpt>
      <trkpt lat="45.87236" lon="1.30222">
        <ele>358.2</ele>
        <time>2024-11-05T16:08:26Z</time>
      </trkpt>
      <trkpt lat="45.87236" lon="1.30217">
        <ele>358.4</ele>
        <time>2024-11-05T16:08:27Z</time>
      </trkpt>
      <trkpt lat="45.87236" lon="1.30212">
        <ele>358.6</ele>
        <time>2024-11-05T16:08:28Z</time>
      </trkpt>
      <trkpt lat="45.87236" lon="1.30207">
        <ele>358.8</ele>
        <time>2024-11-05T16:08:29Z</time>
      </trkpt>
      <trkpt lat="45.87236" lon="1.30201">
        <ele>359.1</ele>
        <time>2024-11-05T16:08:30Z</time>
      </trkpt>
      <trkpt lat="45.87237" lon="1.30196">
        <ele>359.3</ele>
        <time>2024-11-05T16:08:31Z</time>
      </trkpt>
      <trkpt lat="45.87237" lon="1.3019">
        <ele>359.6</ele>
        <time>2024-11-05T16:08:32Z</time>
      </trkpt>
      <trkpt lat="45.87236" lon="1.30185">
        <ele>359.9</ele>
        <time>2024-11-05T16:08:33Z</time>
      </trkpt>
      <trkpt lat="45.87236" lon="1.3018">
        <ele>360.1</ele>
        <time>2024-11-05T16:08:34Z</time>
      </trkpt>
      <trkpt lat="45.87236" lon="1.30175">
        <ele>360.4</ele>
        <time>2024-11-05T16:08:35Z</time>
      </trkpt>
      <trkpt lat="45.87236" lon="1.3017">
        <ele>360.6</ele>
        <time>2024-11-05T16:08:36Z</time>
      </trkpt>
      <trkpt lat="45.87235" lon="1.30165">
        <ele>360.9</ele>
        <time>2024-11-05T16:08:37Z</time>
      </trkpt>
      <trkpt lat="45.87235" lon="1.3016">
        <ele>361.1</ele>
        <time>2024-11-05T16:08:38Z</time>
      </trkpt>
      <trkpt lat="45.87235" lon="1.30156">
        <ele>361.4</ele>
        <time>2024-11-05T16:08:39Z</time>
      </trkpt>
      <trkpt lat="45.87235" lon="1.30151">
        <ele>361.6</ele>
        <time>2024-11-05T16:08:40Z</time>
      </trkpt>
      <trkpt lat="45.87236" lon="1.30146">
        <ele>361.8</ele>
        <time>2024-11-05T16:08:41Z</time>
      </trkpt>
      <trkpt lat="45.87237" lon="1.30142">
        <ele>362</ele>
        <time>2024-11-05T16:08:42Z</time>
      </trkpt>
      <trkpt lat="45.87238" lon="1.30138">
        <ele>362.2</ele>
        <time>2024-11-05T16:08:43Z</time>
      </trkpt>
      <trkpt lat="45.8724" lon="1.30133">
        <ele>362.4</ele>
        <time>2024-11-05T16:08:45Z</time>
      </trkpt>
      <trkpt lat="45.87242" lon="1.30128">
        <ele>362.6</ele>
        <time>2024-11-05T16:08:47Z</time>
      </trkpt>
      <trkpt lat="45.87246" lon="1.30125">
        <ele>362.9</ele>
        <time>2024-11-05T16:08:49Z</time>
      </trkpt>
      <trkpt lat="45.8725" lon="1.30123">
        <ele>362.8</ele>
        <time>2024-11-05T16:08:50Z</time>
      </trkpt>
      <trkpt lat="45.87253" lon="1.30123">
        <ele>362.7</ele>
        <time>2024-11-05T16:08:51Z</time>
      </trkpt>
      <trkpt lat="45.87257" lon="1.30123">
        <ele>362.7</ele>
        <time>2024-11-05T16:08:52Z</time>
      </trkpt>
      <trkpt lat="45.87261" lon="1.30122">
        <ele>362.6</ele>
        <time>2024-11-05T16:08:54Z</time>
      </trkpt>
      <trkpt lat="45.87264" lon="1.30121">
        <ele>362.5</ele>
        <time>2024-11-05T16:08:55Z</time>
      </trkpt>
      <trkpt lat="45.87267" lon="1.30119">
        <ele>362.4</ele>
        <time>2024-11-05T16:08:56Z</time>
      </trkpt>
      <trkpt lat="45.8727" lon="1.30116">
        <ele>362.3</ele>
        <time>2024-11-05T16:08:57Z</time>
      </trkpt>
      <trkpt lat="45.87272" lon="1.30112">
        <ele>362.3</ele>
        <time>2024-11-05T16:08:58Z</time>
      </trkpt>
      <trkpt lat="45.87272" lon="1.30108">
        <ele>362.2</ele>
        <time>2024-11-05T16:08:59Z</time>
      </trkpt>
      <trkpt lat="45.87272" lon="1.30103">
        <ele>362.2</ele>
        <time>2024-11-05T16:09:00Z</time>
      </trkpt>
      <trkpt lat="45.8727" lon="1.30097">
        <ele>362.2</ele>
        <time>2024-11-05T16:09:01Z</time>
      </trkpt>
      <trkpt lat="45.87269" lon="1.30092">
        <ele>362.3</ele>
        <time>2024-11-05T16:09:02Z</time>
      </trkpt>
      <trkpt lat="45.87268" lon="1.30088">
        <ele>362.4</ele>
        <time>2024-11-05T16:09:03Z</time>
      </trkpt>
      <trkpt lat="45.87268" lon="1.30083">
        <ele>362.5</ele>
        <time>2024-11-05T16:09:04Z</time>
      </trkpt>
      <trkpt lat="45.87268" lon="1.30079">
        <ele>362.5</ele>
        <time>2024-11-05T16:09:06Z</time>
      </trkpt>
      <trkpt lat="45.87267" lon="1.30074">
        <ele>362.7</ele>
        <time>2024-11-05T16:09:16Z</time>
      </trkpt>
      <trkpt lat="45.87265" lon="1.3007">
        <ele>362.8</ele>
        <time>2024-11-05T16:09:17Z</time>
      </trkpt>
      <trkpt lat="45.87261" lon="1.30067">
        <ele>362.9</ele>
        <time>2024-11-05T16:09:18Z</time>
      </trkpt>
      <trkpt lat="45.87257" lon="1.30065">
        <ele>363</ele>
        <time>2024-11-05T16:09:19Z</time>
      </trkpt>
      <trkpt lat="45.87252" lon="1.30065">
        <ele>363.1</ele>
        <time>2024-11-05T16:09:20Z</time>
      </trkpt>
      <trkpt lat="45.87247" lon="1.30066">
        <ele>363.2</ele>
        <time>2024-11-05T16:09:21Z</time>
      </trkpt>
      <trkpt lat="45.87243" lon="1.30067">
        <ele>363.2</ele>
        <time>2024-11-05T16:09:22Z</time>
      </trkpt>
      <trkpt lat="45.87238" lon="1.30068">
        <ele>363.3</ele>
        <time>2024-11-05T16:09:23Z</time>
      </trkpt>
      <trkpt lat="45.87233" lon="1.30067">
        <ele>363.4</ele>
        <time>2024-11-05T16:09:24Z</time>
      </trkpt>
      <trkpt lat="45.87229" lon="1.30064">
        <ele>363.5</ele>
        <time>2024-11-05T16:09:25Z</time>
      </trkpt>
      <trkpt lat="45.87225" lon="1.30061">
        <ele>363.6</ele>
        <time>2024-11-05T16:09:26Z</time>
      </trkpt>
      <trkpt lat="45.87221" lon="1.30058">
        <ele>363.7</ele>
        <time>2024-11-05T16:09:27Z</time>
      </trkpt>
      <trkpt lat="45.87217" lon="1.30054">
        <ele>363.8</ele>
        <time>2024-11-05T16:09:28Z</time>
      </trkpt>
      <trkpt lat="45.87214" lon="1.30051">
        <ele>363.8</ele>
        <time>2024-11-05T16:09:29Z</time>
      </trkpt>
      <trkpt lat="45.8721" lon="1.30047">
        <ele>363.9</ele>
        <time>2024-11-05T16:09:30Z</time>
      </trkpt>
      <trkpt lat="45.87207" lon="1.30044">
        <ele>364</ele>
        <time>2024-11-05T16:09:31Z</time>
      </trkpt>
      <trkpt lat="45.87203" lon="1.3004">
        <ele>364.1</ele>
        <time>2024-11-05T16:09:32Z</time>
      </trkpt>
      <trkpt lat="45.87199" lon="1.30037">
        <ele>364.2</ele>
        <time>2024-11-05T16:09:33Z</time>
      </trkpt>
      <trkpt lat="45.87196" lon="1.30034">
        <ele>364.3</ele>
        <time>2024-11-05T16:09:34Z</time>
      </trkpt>
      <trkpt lat="45.87193" lon="1.3003">
        <ele>364.4</ele>
        <time>2024-11-05T16:09:35Z</time>
      </trkpt>
      <trkpt lat="45.8719" lon="1.30026">
        <ele>364.5</ele>
        <time>2024-11-05T16:09:36Z</time>
      </trkpt>
      <trkpt lat="45.87188" lon="1.30021">
        <ele>364.6</ele>
        <time>2024-11-05T16:09:37Z</time>
      </trkpt>
      <trkpt lat="45.87187" lon="1.30016">
        <ele>364.7</ele>
        <time>2024-11-05T16:09:38Z</time>
      </trkpt>
      <trkpt lat="45.87187" lon="1.30011">
        <ele>364.8</ele>
        <time>2024-11-05T16:09:39Z</time>
      </trkpt>
      <trkpt lat="45.87187" lon="1.30006">
        <ele>364.9</ele>
        <time>2024-11-05T16:09:40Z</time>
      </trkpt>
      <trkpt lat="45.87187" lon="1.30002">
        <ele>365</ele>
        <time>2024-11-05T16:09:42Z</time>
      </trkpt>
      <trkpt lat="45.87187" lon="1.29997">
        <ele>365.1</ele>
        <time>2024-11-05T16:09:45Z</time>
      </trkpt>
      <trkpt lat="45.87187" lon="1.29991">
        <ele>365.2</ele>
        <time>2024-11-05T16:09:47Z</time>
      </trkpt>
      <trkpt lat="45.87185" lon="1.29987">
        <ele>365.3</ele>
        <time>2024-11-05T16:09:48Z</time>
      </trkpt>
      <trkpt lat="45.87182" lon="1.29985">
        <ele>365.4</ele>
        <time>2024-11-05T16:09:49Z</time>
      </trkpt>
      <trkpt lat="45.87179" lon="1.29983">
        <ele>365.4</ele>
        <time>2024-11-05T16:09:50Z</time>
      </trkpt>
      <trkpt lat="45.87175" lon="1.29982">
        <ele>365.4</ele>
        <time>2024-11-05T16:09:51Z</time>
      </trkpt>
      <trkpt lat="45.87171" lon="1.29981">
        <ele>365.4</ele>
        <time>2024-11-05T16:09:52Z</time>
      </trkpt>
      <trkpt lat="45.87167" lon="1.29979">
        <ele>365.5</ele>
        <time>2024-11-05T16:09:53Z</time>
      </trkpt>
      <trkpt lat="45.87162" lon="1.29977">
        <ele>365.5</ele>
        <time>2024-11-05T16:09:54Z</time>
      </trkpt>
      <trkpt lat="45.87158" lon="1.29976">
        <ele>365.5</ele>
        <time>2024-11-05T16:09:55Z</time>
      </trkpt>
      <trkpt lat="45.87154" lon="1.29975">
        <ele>365.5</ele>
        <time>2024-11-05T16:09:56Z</time>
      </trkpt>
      <trkpt lat="45.8715" lon="1.29974">
        <ele>365.5</ele>
        <time>2024-11-05T16:09:57Z</time>
      </trkpt>
      <trkpt lat="45.87146" lon="1.29971">
        <ele>365.5</ele>
        <time>2024-11-05T16:09:58Z</time>
      </trkpt>
      <trkpt lat="45.87142" lon="1.29967">
        <ele>365.4</ele>
        <time>2024-11-05T16:09:59Z</time>
      </trkpt>
      <trkpt lat="45.87138" lon="1.29962">
        <ele>365.4</ele>
        <time>2024-11-05T16:10:00Z</time>
      </trkpt>
      <trkpt lat="45.87135" lon="1.29958">
        <ele>365.4</ele>
        <time>2024-11-05T16:10:01Z</time>
      </trkpt>
      <trkpt lat="45.87131" lon="1.29953">
        <ele>365.4</ele>
        <time>2024-11-05T16:10:02Z</time>
      </trkpt>
      <trkpt lat="45.87127" lon="1.29948">
        <ele>365.3</ele>
        <time>2024-11-05T16:10:03Z</time>
      </trkpt>
      <trkpt lat="45.87124" lon="1.29943">
        <ele>365.3</ele>
        <time>2024-11-05T16:10:04Z</time>
      </trkpt>
      <trkpt lat="45.8712" lon="1.29937">
        <ele>365.3</ele>
        <time>2024-11-05T16:10:05Z</time>
      </trkpt>
      <trkpt lat="45.87117" lon="1.29932">
        <ele>365.2</ele>
        <time>2024-11-05T16:10:06Z</time>
      </trkpt>
      <trkpt lat="45.87113" lon="1.29927">
        <ele>365.2</ele>
        <time>2024-11-05T16:10:07Z</time>
      </trkpt>
      <trkpt lat="45.87108" lon="1.29922">
        <ele>365.1</ele>
        <time>2024-11-05T16:10:08Z</time>
      </trkpt>
      <trkpt lat="45.87104" lon="1.29918">
        <ele>365.1</ele>
        <time>2024-11-05T16:10:09Z</time>
      </trkpt>
      <trkpt lat="45.871" lon="1.29914">
        <ele>365</ele>
        <time>2024-11-05T16:10:10Z</time>
      </trkpt>
      <trkpt lat="45.87096" lon="1.2991">
        <ele>365</ele>
        <time>2024-11-05T16:10:11Z</time>
      </trkpt>
      <trkpt lat="45.87093" lon="1.29906">
        <ele>365</ele>
        <time>2024-11-05T16:10:12Z</time>
      </trkpt>
      <trkpt lat="45.87089" lon="1.29902">
        <ele>365</ele>
        <time>2024-11-05T16:10:13Z</time>
      </trkpt>
      <trkpt lat="45.87085" lon="1.29899">
        <ele>365</ele>
        <time>2024-11-05T16:10:14Z</time>
      </trkpt>
      <trkpt lat="45.87081" lon="1.29894">
        <ele>365</ele>
        <time>2024-11-05T16:10:15Z</time>
      </trkpt>
      <trkpt lat="45.87078" lon="1.2989">
        <ele>365</ele>
        <time>2024-11-05T16:10:16Z</time>
      </trkpt>
      <trkpt lat="45.87074" lon="1.29886">
        <ele>365</ele>
        <time>2024-11-05T16:10:17Z</time>
      </trkpt>
      <trkpt lat="45.8707" lon="1.2988">
        <ele>365</ele>
        <time>2024-11-05T16:10:18Z</time>
      </trkpt>
      <trkpt lat="45.87067" lon="1.29875">
        <ele>364.9</ele>
        <time>2024-11-05T16:10:19Z</time>
      </trkpt>
      <trkpt lat="45.87063" lon="1.2987">
        <ele>364.9</ele>
        <time>2024-11-05T16:10:20Z</time>
      </trkpt>
      <trkpt lat="45.87059" lon="1.29865">
        <ele>364.8</ele>
        <time>2024-11-05T16:10:21Z</time>
      </trkpt>
      <trkpt lat="45.87055" lon="1.29859">
        <ele>364.8</ele>
        <time>2024-11-05T16:10:22Z</time>
      </trkpt>
      <trkpt lat="45.87051" lon="1.29854">
        <ele>364.7</ele>
        <time>2024-11-05T16:10:23Z</time>
      </trkpt>
      <trkpt lat="45.87047" lon="1.29848">
        <ele>364.7</ele>
        <time>2024-11-05T16:10:24Z</time>
      </trkpt>
      <trkpt lat="45.87043" lon="1.29843">
        <ele>364.6</ele>
        <time>2024-11-05T16:10:25Z</time>
      </trkpt>
      <trkpt lat="45.87039" lon="1.29838">
        <ele>364.6</ele>
        <time>2024-11-05T16:10:26Z</time>
      </trkpt>
      <trkpt lat="45.87034" lon="1.29834">
        <ele>364.6</ele>
        <time>2024-11-05T16:10:27Z</time>
      </trkpt>
      <trkpt lat="45.8703" lon="1.2983">
        <ele>364.5</ele>
        <time>2024-11-05T16:10:28Z</time>
      </trkpt>
      <trkpt lat="45.87025" lon="1.29825">
        <ele>364.5</ele>
        <time>2024-11-05T16:10:29Z</time>
      </trkpt>
      <trkpt lat="45.87021" lon="1.29821">
        <ele>364.4</ele>
        <time>2024-11-05T16:10:30Z</time>
      </trkpt>
      <trkpt lat="45.87017" lon="1.29816">
        <ele>364.4</ele>
        <time>2024-11-05T16:10:31Z</time>
      </trkpt>
      <trkpt lat="45.87013" lon="1.29811">
        <ele>364.3</ele>
        <time>2024-11-05T16:10:32Z</time>
      </trkpt>
      <trkpt lat="45.8701" lon="1.29805">
        <ele>364.3</ele>
        <time>2024-11-05T16:10:33Z</time>
      </trkpt>
      <trkpt lat="45.87006" lon="1.298">
        <ele>364.2</ele>
        <time>2024-11-05T16:10:34Z</time>
      </trkpt>
      <trkpt lat="45.87001" lon="1.29796">
        <ele>364.2</ele>
        <time>2024-11-05T16:10:35Z</time>
      </trkpt>
      <trkpt lat="45.86997" lon="1.29791">
        <ele>364.1</ele>
        <time>2024-11-05T16:10:36Z</time>
      </trkpt>
      <trkpt lat="45.86993" lon="1.29786">
        <ele>364.1</ele>
        <time>2024-11-05T16:10:37Z</time>
      </trkpt>
      <trkpt lat="45.86988" lon="1.2978">
        <ele>364</ele>
        <time>2024-11-05T16:10:38Z</time>
      </trkpt>
      <trkpt lat="45.86984" lon="1.29775">
        <ele>364</ele>
        <time>2024-11-05T16:10:39Z</time>
      </trkpt>
      <trkpt lat="45.8698" lon="1.29769">
        <ele>363.9</ele>
        <time>2024-11-05T16:10:40Z</time>
      </trkpt>
      <trkpt lat="45.86976" lon="1.29764">
        <ele>363.8</ele>
        <time>2024-11-05T16:10:41Z</time>
      </trkpt>
      <trkpt lat="45.86971" lon="1.29757">
        <ele>363.7</ele>
        <time>2024-11-05T16:10:42Z</time>
      </trkpt>
      <trkpt lat="45.86968" lon="1.29751">
        <ele>363.6</ele>
        <time>2024-11-05T16:10:43Z</time>
      </trkpt>
      <trkpt lat="45.86964" lon="1.29745">
        <ele>363.6</ele>
        <time>2024-11-05T16:10:44Z</time>
      </trkpt>
      <trkpt lat="45.8696" lon="1.29739">
        <ele>363.5</ele>
        <time>2024-11-05T16:10:45Z</time>
      </trkpt>
      <trkpt lat="45.86955" lon="1.29734">
        <ele>363.5</ele>
        <time>2024-11-05T16:10:46Z</time>
      </trkpt>
      <trkpt lat="45.8695" lon="1.29728">
        <ele>363.4</ele>
        <time>2024-11-05T16:10:47Z</time>
      </trkpt>
      <trkpt lat="45.86946" lon="1.29722">
        <ele>363.4</ele>
        <time>2024-11-05T16:10:48Z</time>
      </trkpt>
      <trkpt lat="45.86942" lon="1.29716">
        <ele>363.3</ele>
        <time>2024-11-05T16:10:49Z</time>
      </trkpt>
      <trkpt lat="45.86938" lon="1.29709">
        <ele>363.3</ele>
        <time>2024-11-05T16:10:50Z</time>
      </trkpt>
      <trkpt lat="45.86934" lon="1.29703">
        <ele>363.3</ele>
        <time>2024-11-05T16:10:51Z</time>
      </trkpt>
      <trkpt lat="45.8693" lon="1.29698">
        <ele>363.2</ele>
        <time>2024-11-05T16:10:52Z</time>
      </trkpt>
      <trkpt lat="45.86926" lon="1.29692">
        <ele>363.2</ele>
        <time>2024-11-05T16:10:53Z</time>
      </trkpt>
      <trkpt lat="45.86922" lon="1.29685">
        <ele>363.2</ele>
        <time>2024-11-05T16:10:54Z</time>
      </trkpt>
      <trkpt lat="45.86918" lon="1.29679">
        <ele>363.2</ele>
        <time>2024-11-05T16:10:55Z</time>
      </trkpt>
      <trkpt lat="45.86914" lon="1.29674">
        <ele>363.2</ele>
        <time>2024-11-05T16:10:56Z</time>
      </trkpt>
      <trkpt lat="45.86911" lon="1.29668">
        <ele>363.3</ele>
        <time>2024-11-05T16:10:57Z</time>
      </trkpt>
      <trkpt lat="45.86907" lon="1.29663">
        <ele>363.3</ele>
        <time>2024-11-05T16:10:58Z</time>
      </trkpt>
      <trkpt lat="45.86904" lon="1.29657">
        <ele>363.4</ele>
        <time>2024-11-05T16:10:59Z</time>
      </trkpt>
      <trkpt lat="45.86902" lon="1.29651">
        <ele>363.5</ele>
        <time>2024-11-05T16:11:01Z</time>
      </trkpt>
      <trkpt lat="45.869" lon="1.29647">
        <ele>363.5</ele>
        <time>2024-11-05T16:11:02Z</time>
      </trkpt>
      <trkpt lat="45.86897" lon="1.29645">
        <ele>363.5</ele>
        <time>2024-11-05T16:11:04Z</time>
      </trkpt>
      <trkpt lat="45.86895" lon="1.29642">
        <ele>363.6</ele>
        <time>2024-11-05T16:11:22Z</time>
      </trkpt>
      <trkpt lat="45.86892" lon="1.29639">
        <ele>363.6</ele>
        <time>2024-11-05T16:11:24Z</time>
      </trkpt>
      <trkpt lat="45.8689" lon="1.29636">
        <ele>363.6</ele>
        <time>2024-11-05T16:11:25Z</time>
      </trkpt>
      <trkpt lat="45.86888" lon="1.29632">
        <ele>363.6</ele>
        <time>2024-11-05T16:11:26Z</time>
      </trkpt>
      <trkpt lat="45.86888" lon="1.29628">
        <ele>363.6</ele>
        <time>2024-11-05T16:11:27Z</time>
      </trkpt>
      <trkpt lat="45.86887" lon="1.29624">
        <ele>363.6</ele>
        <time>2024-11-05T16:11:28Z</time>
      </trkpt>
      <trkpt lat="45.86884" lon="1.29622">
        <ele>363.6</ele>
        <time>2024-11-05T16:11:29Z</time>
      </trkpt>
      <trkpt lat="45.86881" lon="1.2962">
        <ele>363.6</ele>
        <time>2024-11-05T16:11:30Z</time>
      </trkpt>
      <trkpt lat="45.86878" lon="1.29617">
        <ele>363.6</ele>
        <time>2024-11-05T16:11:31Z</time>
      </trkpt>
      <trkpt lat="45.86874" lon="1.29614">
        <ele>363.7</ele>
        <time>2024-11-05T16:11:32Z</time>
      </trkpt>
      <trkpt lat="45.86871" lon="1.29611">
        <ele>363.7</ele>
        <time>2024-11-05T16:11:33Z</time>
      </trkpt>
      <trkpt lat="45.86868" lon="1.29607">
        <ele>363.7</ele>
        <time>2024-11-05T16:11:34Z</time>
      </trkpt>
      <trkpt lat="45.86865" lon="1.29603">
        <ele>363.8</ele>
        <time>2024-11-05T16:11:35Z</time>
      </trkpt>
      <trkpt lat="45.86861" lon="1.29599">
        <ele>363.8</ele>
        <time>2024-11-05T16:11:36Z</time>
      </trkpt>
      <trkpt lat="45.86858" lon="1.29595">
        <ele>363.9</ele>
        <time>2024-11-05T16:11:37Z</time>
      </trkpt>
      <trkpt lat="45.86855" lon="1.29591">
        <ele>363.9</ele>
        <time>2024-11-05T16:11:38Z</time>
      </trkpt>
      <trkpt lat="45.86852" lon="1.29587">
        <ele>364</ele>
        <time>2024-11-05T16:11:39Z</time>
      </trkpt>
      <trkpt lat="45.86849" lon="1.29583">
        <ele>364</ele>
        <time>2024-11-05T16:11:40Z</time>
      </trkpt>
      <trkpt lat="45.86846" lon="1.29579">
        <ele>364.1</ele>
        <time>2024-11-05T16:11:41Z</time>
      </trkpt>
      <trkpt lat="45.86843" lon="1.29575">
        <ele>364.1</ele>
        <time>2024-11-05T16:11:42Z</time>
      </trkpt>
      <trkpt lat="45.8684" lon="1.29571">
        <ele>364.2</ele>
        <time>2024-11-05T16:11:43Z</time>
      </trkpt>
      <trkpt lat="45.86837" lon="1.29568">
        <ele>364.2</ele>
        <time>2024-11-05T16:11:44Z</time>
      </trkpt>
      <trkpt lat="45.86834" lon="1.29564">
        <ele>364.3</ele>
        <time>2024-11-05T16:11:45Z</time>
      </trkpt>
      <trkpt lat="45.86831" lon="1.2956">
        <ele>364.3</ele>
        <time>2024-11-05T16:11:46Z</time>
      </trkpt>
      <trkpt lat="45.86828" lon="1.29556">
        <ele>364.4</ele>
        <time>2024-11-05T16:11:47Z</time>
      </trkpt>
      <trkpt lat="45.86825" lon="1.29552">
        <ele>364.4</ele>
        <time>2024-11-05T16:11:48Z</time>
      </trkpt>
      <trkpt lat="45.86821" lon="1.29548">
        <ele>364.5</ele>
        <time>2024-11-05T16:11:49Z</time>
      </trkpt>
      <trkpt lat="45.86819" lon="1.29543">
        <ele>364.5</ele>
        <time>2024-11-05T16:11:50Z</time>
      </trkpt>
      <trkpt lat="45.86816" lon="1.2954">
        <ele>364.5</ele>
        <time>2024-11-05T16:11:51Z</time>
      </trkpt>
      <trkpt lat="45.86814" lon="1.29536">
        <ele>364.5</ele>
        <time>2024-11-05T16:11:53Z</time>
      </trkpt>
      <trkpt lat="45.86814" lon="1.29533">
        <ele>364.6</ele>
        <time>2024-11-05T16:12:04Z</time>
      </trkpt>
      <trkpt lat="45.86816" lon="1.29529">
        <ele>364.6</ele>
        <time>2024-11-05T16:12:09Z</time>
      </trkpt>
      <trkpt lat="45.86818" lon="1.29526">
        <ele>364.6</ele>
        <time>2024-11-05T16:12:12Z</time>
      </trkpt>
      <trkpt lat="45.8682" lon="1.29523">
        <ele>364.5</ele>
        <time>2024-11-05T16:12:15Z</time>
      </trkpt>
      <trkpt lat="45.86823" lon="1.29519">
        <ele>364.4</ele>
        <time>2024-11-05T16:12:17Z</time>
      </trkpt>
      <trkpt lat="45.86826" lon="1.29514">
        <ele>364.3</ele>
        <time>2024-11-05T16:12:19Z</time>
      </trkpt>
      <trkpt lat="45.86829" lon="1.2951">
        <ele>364</ele>
        <time>2024-11-05T16:12:20Z</time>
      </trkpt>
      <trkpt lat="45.86832" lon="1.29507">
        <ele>363.8</ele>
        <time>2024-11-05T16:12:21Z</time>
      </trkpt>
      <trkpt lat="45.86835" lon="1.29503">
        <ele>363.6</ele>
        <time>2024-11-05T16:12:23Z</time>
      </trkpt>
      <trkpt lat="45.86839" lon="1.29498">
        <ele>363.2</ele>
        <time>2024-11-05T16:12:25Z</time>
      </trkpt>
      <trkpt lat="45.86842" lon="1.29494">
        <ele>362.9</ele>
        <time>2024-11-05T16:12:26Z</time>
      </trkpt>
      <trkpt lat="45.86845" lon="1.2949">
        <ele>362.7</ele>
        <time>2024-11-05T16:12:27Z</time>
      </trkpt>
      <trkpt lat="45.86847" lon="1.29487">
        <ele>362.5</ele>
        <time>2024-11-05T16:12:28Z</time>
      </trkpt>
      <trkpt lat="45.8685" lon="1.29483">
        <ele>362.2</ele>
        <time>2024-11-05T16:12:29Z</time>
      </trkpt>
      <trkpt lat="45.86853" lon="1.29479">
        <ele>362</ele>
        <time>2024-11-05T16:12:30Z</time>
      </trkpt>
      <trkpt lat="45.86856" lon="1.29476">
        <ele>361.8</ele>
        <time>2024-11-05T16:12:31Z</time>
      </trkpt>
      <trkpt lat="45.86859" lon="1.29472">
        <ele>361.6</ele>
        <time>2024-11-05T16:12:32Z</time>
      </trkpt>
      <trkpt lat="45.86862" lon="1.29468">
        <ele>361.4</ele>
        <time>2024-11-05T16:12:33Z</time>
      </trkpt>
      <trkpt lat="45.86865" lon="1.29464">
        <ele>361.2</ele>
        <time>2024-11-05T16:12:34Z</time>
      </trkpt>
      <trkpt lat="45.86867" lon="1.29461">
        <ele>361.1</ele>
        <time>2024-11-05T16:12:35Z</time>
      </trkpt>
      <trkpt lat="45.86869" lon="1.29456">
        <ele>361</ele>
        <time>2024-11-05T16:12:49Z</time>
      </trkpt>
      <trkpt lat="45.8687" lon="1.29452">
        <ele>360.9</ele>
        <time>2024-11-05T16:12:50Z</time>
      </trkpt>
      <trkpt lat="45.8687" lon="1.29448">
        <ele>360.8</ele>
        <time>2024-11-05T16:12:51Z</time>
      </trkpt>
      <trkpt lat="45.86869" lon="1.29443">
        <ele>360.6</ele>
        <time>2024-11-05T16:12:52Z</time>
      </trkpt>
      <trkpt lat="45.86868" lon="1.29438">
        <ele>360.4</ele>
        <time>2024-11-05T16:12:53Z</time>
      </trkpt>
      <trkpt lat="45.86866" lon="1.29433">
        <ele>360.2</ele>
        <time>2024-11-05T16:12:54Z</time>
      </trkpt>
      <trkpt lat="45.86865" lon="1.29428">
        <ele>360</ele>
        <time>2024-11-05T16:12:55Z</time>
      </trkpt>
      <trkpt lat="45.86864" lon="1.29422">
        <ele>359.8</ele>
        <time>2024-11-05T16:12:56Z</time>
      </trkpt>
      <trkpt lat="45.86863" lon="1.29416">
        <ele>359.6</ele>
        <time>2024-11-05T16:12:57Z</time>
      </trkpt>
      <trkpt lat="45.86861" lon="1.29409">
        <ele>359.3</ele>
        <time>2024-11-05T16:12:58Z</time>
      </trkpt>
      <trkpt lat="45.86859" lon="1.29402">
        <ele>359</ele>
        <time>2024-11-05T16:12:59Z</time>
      </trkpt>
      <trkpt lat="45.86857" lon="1.29394">
        <ele>358.6</ele>
        <time>2024-11-05T16:13:00Z</time>
      </trkpt>
      <trkpt lat="45.86855" lon="1.29386">
        <ele>358.4</ele>
        <time>2024-11-05T16:13:01Z</time>
      </trkpt>
      <trkpt lat="45.86853" lon="1.29378">
        <ele>358.1</ele>
        <time>2024-11-05T16:13:02Z</time>
      </trkpt>
      <trkpt lat="45.86851" lon="1.29371">
        <ele>357.9</ele>
        <time>2024-11-05T16:13:03Z</time>
      </trkpt>
      <trkpt lat="45.86849" lon="1.29366">
        <ele>357.8</ele>
        <time>2024-11-05T16:13:04Z</time>
      </trkpt>
      <trkpt lat="45.86847" lon="1.29362">
        <ele>357.8</ele>
        <time>2024-11-05T16:13:05Z</time>
      </trkpt>
      <trkpt lat="45.86845" lon="1.29359">
        <ele>357.7</ele>
        <time>2024-11-05T16:13:06Z</time>
      </trkpt>
      <trkpt lat="45.86843" lon="1.29356">
        <ele>357.7</ele>
        <time>2024-11-05T16:13:14Z</time>
      </trkpt>
      <trkpt lat="45.8684" lon="1.29353">
        <ele>357.7</ele>
        <time>2024-11-05T16:13:16Z</time>
      </trkpt>
      <trkpt lat="45.86837" lon="1.29352">
        <ele>357.7</ele>
        <time>2024-11-05T16:13:17Z</time>
      </trkpt>
      <trkpt lat="45.86833" lon="1.29352">
        <ele>357.7</ele>
        <time>2024-11-05T16:13:18Z</time>
      </trkpt>
      <trkpt lat="45.86828" lon="1.29354">
        <ele>357.7</ele>
        <time>2024-11-05T16:13:19Z</time>
      </trkpt>
      <trkpt lat="45.86824" lon="1.29355">
        <ele>357.8</ele>
        <time>2024-11-05T16:13:20Z</time>
      </trkpt>
      <trkpt lat="45.86819" lon="1.29355">
        <ele>357.8</ele>
        <time>2024-11-05T16:13:21Z</time>
      </trkpt>
      <trkpt lat="45.86815" lon="1.29354">
        <ele>357.8</ele>
        <time>2024-11-05T16:13:22Z</time>
      </trkpt>
      <trkpt lat="45.86812" lon="1.29352">
        <ele>357.8</ele>
        <time>2024-11-05T16:13:23Z</time>
      </trkpt>
      <trkpt lat="45.86809" lon="1.2935">
        <ele>357.7</ele>
        <time>2024-11-05T16:13:24Z</time>
      </trkpt>
      <trkpt lat="45.86807" lon="1.29347">
        <ele>357.7</ele>
        <time>2024-11-05T16:13:25Z</time>
      </trkpt>
      <trkpt lat="45.86806" lon="1.29343">
        <ele>357.7</ele>
        <time>2024-11-05T16:13:26Z</time>
      </trkpt>
      <trkpt lat="45.86805" lon="1.29339">
        <ele>357.6</ele>
        <time>2024-11-05T16:13:27Z</time>
      </trkpt>
      <trkpt lat="45.86804" lon="1.29334">
        <ele>357.6</ele>
        <time>2024-11-05T16:13:28Z</time>
      </trkpt>
      <trkpt lat="45.86804" lon="1.2933">
        <ele>357.5</ele>
        <time>2024-11-05T16:13:29Z</time>
      </trkpt>
      <trkpt lat="45.86803" lon="1.29326">
        <ele>357.5</ele>
        <time>2024-11-05T16:13:30Z</time>
      </trkpt>
      <trkpt lat="45.86803" lon="1.29321">
        <ele>357.4</ele>
        <time>2024-11-05T16:13:31Z</time>
      </trkpt>
      <trkpt lat="45.86802" lon="1.29317">
        <ele>357.4</ele>
        <time>2024-11-05T16:13:32Z</time>
      </trkpt>
      <trkpt lat="45.86802" lon="1.29312">
        <ele>357.3</ele>
        <time>2024-11-05T16:13:33Z</time>
      </trkpt>
      <trkpt lat="45.86801" lon="1.29307">
        <ele>357.2</ele>
        <time>2024-11-05T16:13:34Z</time>
      </trkpt>
      <trkpt lat="45.86801" lon="1.29301">
        <ele>357.2</ele>
        <time>2024-11-05T16:13:36Z</time>
      </trkpt>
      <trkpt lat="45.86801" lon="1.29295">
        <ele>357.2</ele>
        <time>2024-11-05T16:13:38Z</time>
      </trkpt>
      <trkpt lat="45.86803" lon="1.29289">
        <ele>357</ele>
        <time>2024-11-05T16:13:40Z</time>
      </trkpt>
      <trkpt lat="45.86806" lon="1.29285">
        <ele>356.9</ele>
        <time>2024-11-05T16:13:41Z</time>
      </trkpt>
      <trkpt lat="45.8681" lon="1.29283">
        <ele>356.8</ele>
        <time>2024-11-05T16:13:42Z</time>
      </trkpt>
      <trkpt lat="45.86814" lon="1.29282">
        <ele>356.7</ele>
        <time>2024-11-05T16:13:43Z</time>
      </trkpt>
      <trkpt lat="45.86818" lon="1.29281">
        <ele>356.6</ele>
        <time>2024-11-05T16:13:44Z</time>
      </trkpt>
      <trkpt lat="45.86822" lon="1.2928">
        <ele>356.6</ele>
        <time>2024-11-05T16:13:45Z</time>
      </trkpt>
      <trkpt lat="45.86826" lon="1.29279">
        <ele>356.5</ele>
        <time>2024-11-05T16:13:46Z</time>
      </trkpt>
      <trkpt lat="45.8683" lon="1.29279">
        <ele>356.4</ele>
        <time>2024-11-05T16:13:47Z</time>
      </trkpt>
      <trkpt lat="45.86834" lon="1.29278">
        <ele>356.3</ele>
        <time>2024-11-05T16:13:48Z</time>
      </trkpt>
      <trkpt lat="45.86839" lon="1.29277">
        <ele>356.2</ele>
        <time>2024-11-05T16:13:49Z</time>
      </trkpt>
      <trkpt lat="45.86841" lon="1.29274">
        <ele>356.2</ele>
        <time>2024-11-05T16:13:55Z</time>
      </trkpt>
      <trkpt lat="45.86842" lon="1.2927">
        <ele>355.9</ele>
        <time>2024-11-05T16:14:01Z</time>
      </trkpt>
      <trkpt lat="45.86842" lon="1.29265">
        <ele>355.6</ele>
        <time>2024-11-05T16:14:03Z</time>
      </trkpt>
      <trkpt lat="45.86842" lon="1.2926">
        <ele>355.3</ele>
        <time>2024-11-05T16:14:04Z</time>
      </trkpt>
      <trkpt lat="45.86842" lon="1.29253">
        <ele>354.9</ele>
        <time>2024-11-05T16:14:05Z</time>
      </trkpt>
      <trkpt lat="45.86841" lon="1.29245">
        <ele>354.4</ele>
        <time>2024-11-05T16:14:06Z</time>
      </trkpt>
      <trkpt lat="45.86841" lon="1.29238">
        <ele>353.9</ele>
        <time>2024-11-05T16:14:07Z</time>
      </trkpt>
      <trkpt lat="45.86841" lon="1.2923">
        <ele>353.4</ele>
        <time>2024-11-05T16:14:08Z</time>
      </trkpt>
      <trkpt lat="45.86841" lon="1.29222">
        <ele>353</ele>
        <time>2024-11-05T16:14:09Z</time>
      </trkpt>
      <trkpt lat="45.8684" lon="1.29214">
        <ele>352.5</ele>
        <time>2024-11-05T16:14:10Z</time>
      </trkpt>
      <trkpt lat="45.86841" lon="1.29206">
        <ele>352.2</ele>
        <time>2024-11-05T16:14:11Z</time>
      </trkpt>
      <trkpt lat="45.86843" lon="1.29199">
        <ele>351.8</ele>
        <time>2024-11-05T16:14:12Z</time>
      </trkpt>
      <trkpt lat="45.86845" lon="1.29192">
        <ele>351.6</ele>
        <time>2024-11-05T16:14:13Z</time>
      </trkpt>
      <trkpt lat="45.86846" lon="1.29187">
        <ele>351.4</ele>
        <time>2024-11-05T16:14:14Z</time>
      </trkpt>
      <trkpt lat="45.86847" lon="1.29182">
        <ele>351.2</ele>
        <time>2024-11-05T16:14:17Z</time>
      </trkpt>
      <trkpt lat="45.86848" lon="1.29177">
        <ele>351</ele>
        <time>2024-11-05T16:14:42Z</time>
      </trkpt>
      <trkpt lat="45.86848" lon="1.29173">
        <ele>350.9</ele>
        <time>2024-11-05T16:14:43Z</time>
      </trkpt>
      <trkpt lat="45.86845" lon="1.29169">
        <ele>350.6</ele>
        <time>2024-11-05T16:14:44Z</time>
      </trkpt>
      <trkpt lat="45.86843" lon="1.29167">
        <ele>350.6</ele>
        <time>2024-11-05T16:14:45Z</time>
      </trkpt>
      <trkpt lat="45.86839" lon="1.29165">
        <ele>350.7</ele>
        <time>2024-11-05T16:14:46Z</time>
      </trkpt>
      <trkpt lat="45.86836" lon="1.29163">
        <ele>350.7</ele>
        <time>2024-11-05T16:14:47Z</time>
      </trkpt>
      <trkpt lat="45.86833" lon="1.29162">
        <ele>350.8</ele>
        <time>2024-11-05T16:14:51Z</time>
      </trkpt>
      <trkpt lat="45.8683" lon="1.2916">
        <ele>350.8</ele>
        <time>2024-11-05T16:14:53Z</time>
      </trkpt>
      <trkpt lat="45.86826" lon="1.29156">
        <ele>350.9</ele>
        <time>2024-11-05T16:14:55Z</time>
      </trkpt>
      <trkpt lat="45.86822" lon="1.29151">
        <ele>350.9</ele>
        <time>2024-11-05T16:14:57Z</time>
      </trkpt>
      <trkpt lat="45.86819" lon="1.29146">
        <ele>351</ele>
        <time>2024-11-05T16:14:58Z</time>
      </trkpt>
      <trkpt lat="45.86816" lon="1.29141">
        <ele>351.1</ele>
        <time>2024-11-05T16:14:59Z</time>
      </trkpt>
      <trkpt lat="45.86814" lon="1.29136">
        <ele>351.1</ele>
        <time>2024-11-05T16:15:00Z</time>
      </trkpt>
      <trkpt lat="45.86812" lon="1.29129">
        <ele>351.2</ele>
        <time>2024-11-05T16:15:01Z</time>
      </trkpt>
      <trkpt lat="45.86811" lon="1.29122">
        <ele>351.3</ele>
        <time>2024-11-05T16:15:02Z</time>
      </trkpt>
      <trkpt lat="45.86811" lon="1.29114">
        <ele>351.4</ele>
        <time>2024-11-05T16:15:03Z</time>
      </trkpt>
      <trkpt lat="45.8681" lon="1.29107">
        <ele>351.5</ele>
        <time>2024-11-05T16:15:04Z</time>
      </trkpt>
      <trkpt lat="45.86811" lon="1.29099">
        <ele>351.5</ele>
        <time>2024-11-05T16:15:05Z</time>
      </trkpt>
      <trkpt lat="45.8681" lon="1.29092">
        <ele>351.6</ele>
        <time>2024-11-05T16:15:06Z</time>
      </trkpt>
      <trkpt lat="45.8681" lon="1.29084">
        <ele>351.7</ele>
        <time>2024-11-05T16:15:07Z</time>
      </trkpt>
      <trkpt lat="45.8681" lon="1.29077">
        <ele>351.8</ele>
        <time>2024-11-05T16:15:08Z</time>
      </trkpt>
      <trkpt lat="45.86809" lon="1.2907">
        <ele>351.9</ele>
        <time>2024-11-05T16:15:09Z</time>
      </trkpt>
      <trkpt lat="45.86808" lon="1.29064">
        <ele>352</ele>
        <time>2024-11-05T16:15:10Z</time>
      </trkpt>
      <trkpt lat="45.86807" lon="1.29058">
        <ele>352.1</ele>
        <time>2024-11-05T16:15:11Z</time>
      </trkpt>
      <trkpt lat="45.86806" lon="1.29053">
        <ele>352.2</ele>
        <time>2024-11-05T16:15:12Z</time>
      </trkpt>
      <trkpt lat="45.86805" lon="1.29049">
        <ele>352.3</ele>
        <time>2024-11-05T16:15:13Z</time>
      </trkpt>
      <trkpt lat="45.86803" lon="1.29044">
        <ele>352.4</ele>
        <time>2024-11-05T16:15:14Z</time>
      </trkpt>
      <trkpt lat="45.86801" lon="1.2904">
        <ele>352.5</ele>
        <time>2024-11-05T16:15:15Z</time>
      </trkpt>
      <trkpt lat="45.86799" lon="1.29035">
        <ele>352.6</ele>
        <time>2024-11-05T16:15:16Z</time>
      </trkpt>
      <trkpt lat="45.86798" lon="1.29031">
        <ele>352.6</ele>
        <time>2024-11-05T16:15:17Z</time>
      </trkpt>
      <trkpt lat="45.86796" lon="1.29026">
        <ele>352.6</ele>
        <time>2024-11-05T16:15:18Z</time>
      </trkpt>
      <trkpt lat="45.86793" lon="1.29021">
        <ele>352.7</ele>
        <time>2024-11-05T16:15:19Z</time>
      </trkpt>
      <trkpt lat="45.86791" lon="1.29016">
        <ele>352.7</ele>
        <time>2024-11-05T16:15:20Z</time>
      </trkpt>
      <trkpt lat="45.86789" lon="1.29011">
        <ele>352.8</ele>
        <time>2024-11-05T16:15:21Z</time>
      </trkpt>
      <trkpt lat="45.86786" lon="1.29006">
        <ele>352.8</ele>
        <time>2024-11-05T16:15:22Z</time>
      </trkpt>
      <trkpt lat="45.86784" lon="1.29001">
        <ele>352.9</ele>
        <time>2024-11-05T16:15:23Z</time>
      </trkpt>
      <trkpt lat="45.86782" lon="1.28997">
        <ele>352.9</ele>
        <time>2024-11-05T16:15:24Z</time>
      </trkpt>
      <trkpt lat="45.86781" lon="1.28993">
        <ele>352.9</ele>
        <time>2024-11-05T16:15:25Z</time>
      </trkpt>
      <trkpt lat="45.86779" lon="1.28989">
        <ele>353</ele>
        <time>2024-11-05T16:15:26Z</time>
      </trkpt>
      <trkpt lat="45.86778" lon="1.28985">
        <ele>353</ele>
        <time>2024-11-05T16:15:27Z</time>
      </trkpt>
      <trkpt lat="45.86777" lon="1.2898">
        <ele>353</ele>
        <time>2024-11-05T16:15:29Z</time>
      </trkpt>
      <trkpt lat="45.86775" lon="1.28975">
        <ele>353.1</ele>
        <time>2024-11-05T16:15:31Z</time>
      </trkpt>
      <trkpt lat="45.86776" lon="1.28975">
        <ele>353</ele>
        <time>2024-11-05T16:15:36Z</time>
      </trkpt>
      <trkpt lat="45.86778" lon="1.28976">
        <ele>353</ele>
        <time>2024-11-05T16:15:39Z</time>
      </trkpt>
      <trkpt lat="45.86782" lon="1.28976">
        <ele>352.8</ele>
        <time>2024-11-05T16:15:42Z</time>
      </trkpt>
      <trkpt lat="45.86785" lon="1.28976">
        <ele>352.8</ele>
        <time>2024-11-05T16:15:43Z</time>
      </trkpt>
      <trkpt lat="45.86789" lon="1.28975">
        <ele>352.6</ele>
        <time>2024-11-05T16:15:44Z</time>
      </trkpt>
      <trkpt lat="45.86792" lon="1.28972">
        <ele>352.4</ele>
        <time>2024-11-05T16:15:45Z</time>
      </trkpt>
      <trkpt lat="45.86796" lon="1.28969">
        <ele>352.2</ele>
        <time>2024-11-05T16:15:46Z</time>
      </trkpt>
      <trkpt lat="45.868" lon="1.28966">
        <ele>352</ele>
        <time>2024-11-05T16:15:47Z</time>
      </trkpt>
      <trkpt lat="45.86804" lon="1.28963">
        <ele>351.7</ele>
        <time>2024-11-05T16:15:48Z</time>
      </trkpt>
      <trkpt lat="45.86813" lon="1.28961">
        <ele>351.2</ele>
        <time>2024-11-05T16:15:49Z</time>
      </trkpt>
      <trkpt lat="45.8682" lon="1.28957">
        <ele>350.7</ele>
        <time>2024-11-05T16:15:50Z</time>
      </trkpt>
      <trkpt lat="45.86826" lon="1.28953">
        <ele>350.3</ele>
        <time>2024-11-05T16:15:51Z</time>
      </trkpt>
      <trkpt lat="45.86832" lon="1.28948">
        <ele>349.9</ele>
        <time>2024-11-05T16:15:52Z</time>
      </trkpt>
      <trkpt lat="45.86837" lon="1.28945">
        <ele>349.6</ele>
        <time>2024-11-05T16:15:53Z</time>
      </trkpt>
      <trkpt lat="45.86843" lon="1.28941">
        <ele>349.2</ele>
        <time>2024-11-05T16:15:54Z</time>
      </trkpt>
      <trkpt lat="45.86849" lon="1.28939">
        <ele>348.9</ele>
        <time>2024-11-05T16:15:55Z</time>
      </trkpt>
      <trkpt lat="45.86855" lon="1.28939">
        <ele>348.6</ele>
        <time>2024-11-05T16:15:56Z</time>
      </trkpt>
      <trkpt lat="45.86862" lon="1.28939">
        <ele>348.3</ele>
        <time>2024-11-05T16:15:57Z</time>
      </trkpt>
      <trkpt lat="45.8687" lon="1.28941">
        <ele>347.9</ele>
        <time>2024-11-05T16:15:58Z</time>
      </trkpt>
      <trkpt lat="45.86878" lon="1.28944">
        <ele>347.8</ele>
        <time>2024-11-05T16:15:59Z</time>
      </trkpt>
      <trkpt lat="45.86885" lon="1.28946">
        <ele>347.6</ele>
        <time>2024-11-05T16:16:00Z</time>
      </trkpt>
      <trkpt lat="45.86892" lon="1.28948">
        <ele>347.3</ele>
        <time>2024-11-05T16:16:01Z</time>
      </trkpt>
      <trkpt lat="45.86898" lon="1.28948">
        <ele>346.9</ele>
        <time>2024-11-05T16:16:02Z</time>
      </trkpt>
      <trkpt lat="45.86904" lon="1.28946">
        <ele>346.6</ele>
        <time>2024-11-05T16:16:03Z</time>
      </trkpt>
      <trkpt lat="45.86911" lon="1.28945">
        <ele>346.2</ele>
        <time>2024-11-05T16:16:04Z</time>
      </trkpt>
      <trkpt lat="45.86919" lon="1.28943">
        <ele>345.7</ele>
        <time>2024-11-05T16:16:05Z</time>
      </trkpt>
      <trkpt lat="45.86928" lon="1.28942">
        <ele>345.2</ele>
        <time>2024-11-05T16:16:06Z</time>
      </trkpt>
      <trkpt lat="45.86937" lon="1.28939">
        <ele>344.9</ele>
        <time>2024-11-05T16:16:07Z</time>
      </trkpt>
      <trkpt lat="45.86944" lon="1.28937">
        <ele>344.6</ele>
        <time>2024-11-05T16:16:08Z</time>
      </trkpt>
      <trkpt lat="45.86951" lon="1.28936">
        <ele>344.5</ele>
        <time>2024-11-05T16:16:09Z</time>
      </trkpt>
      <trkpt lat="45.86958" lon="1.28935">
        <ele>344.4</ele>
        <time>2024-11-05T16:16:10Z</time>
      </trkpt>
      <trkpt lat="45.86965" lon="1.28934">
        <ele>344.4</ele>
        <time>2024-11-05T16:16:11Z</time>
      </trkpt>
      <trkpt lat="45.86971" lon="1.28934">
        <ele>344.4</ele>
        <time>2024-11-05T16:16:12Z</time>
      </trkpt>
      <trkpt lat="45.86976" lon="1.28934">
        <ele>344.4</ele>
        <time>2024-11-05T16:16:13Z</time>
      </trkpt>
      <trkpt lat="45.86982" lon="1.28934">
        <ele>344.4</ele>
        <time>2024-11-05T16:16:14Z</time>
      </trkpt>
      <trkpt lat="45.86987" lon="1.28934">
        <ele>344.5</ele>
        <time>2024-11-05T16:16:15Z</time>
      </trkpt>
      <trkpt lat="45.86993" lon="1.28935">
        <ele>344.5</ele>
        <time>2024-11-05T16:16:16Z</time>
      </trkpt>
      <trkpt lat="45.86999" lon="1.28934">
        <ele>344.6</ele>
        <time>2024-11-05T16:16:17Z</time>
      </trkpt>
      <trkpt lat="45.87005" lon="1.28932">
        <ele>344.7</ele>
        <time>2024-11-05T16:16:18Z</time>
      </trkpt>
      <trkpt lat="45.8701" lon="1.2893">
        <ele>344.7</ele>
        <time>2024-11-05T16:16:19Z</time>
      </trkpt>
      <trkpt lat="45.87016" lon="1.28931">
        <ele>344.7</ele>
        <time>2024-11-05T16:16:20Z</time>
      </trkpt>
      <trkpt lat="45.87022" lon="1.28932">
        <ele>344.7</ele>
        <time>2024-11-05T16:16:21Z</time>
      </trkpt>
      <trkpt lat="45.87028" lon="1.28933">
        <ele>344.7</ele>
        <time>2024-11-05T16:16:22Z</time>
      </trkpt>
      <trkpt lat="45.87033" lon="1.28933">
        <ele>344.7</ele>
        <time>2024-11-05T16:16:23Z</time>
      </trkpt>
      <trkpt lat="45.87039" lon="1.28931">
        <ele>344.7</ele>
        <time>2024-11-05T16:16:24Z</time>
      </trkpt>
      <trkpt lat="45.87045" lon="1.2893">
        <ele>344.6</ele>
        <time>2024-11-05T16:16:25Z</time>
      </trkpt>
      <trkpt lat="45.8705" lon="1.28929">
        <ele>344.5</ele>
        <time>2024-11-05T16:16:26Z</time>
      </trkpt>
      <trkpt lat="45.87054" lon="1.28928">
        <ele>344.4</ele>
        <time>2024-11-05T16:16:27Z</time>
      </trkpt>
      <trkpt lat="45.87059" lon="1.28927">
        <ele>344.3</ele>
        <time>2024-11-05T16:16:28Z</time>
      </trkpt>
      <trkpt lat="45.87065" lon="1.28925">
        <ele>344.1</ele>
        <time>2024-11-05T16:16:29Z</time>
      </trkpt>
      <trkpt lat="45.8707" lon="1.28922">
        <ele>343.9</ele>
        <time>2024-11-05T16:16:30Z</time>
      </trkpt>
      <trkpt lat="45.87075" lon="1.2892">
        <ele>343.7</ele>
        <time>2024-11-05T16:16:31Z</time>
      </trkpt>
      <trkpt lat="45.8708" lon="1.28917">
        <ele>343.5</ele>
        <time>2024-11-05T16:16:32Z</time>
      </trkpt>
      <trkpt lat="45.87085" lon="1.28916">
        <ele>343.3</ele>
        <time>2024-11-05T16:16:33Z</time>
      </trkpt>
      <trkpt lat="45.87089" lon="1.28915">
        <ele>343.2</ele>
        <time>2024-11-05T16:16:34Z</time>
      </trkpt>
      <trkpt lat="45.87093" lon="1.28914">
        <ele>343.1</ele>
        <time>2024-11-05T16:16:35Z</time>
      </trkpt>
      <trkpt lat="45.87097" lon="1.28912">
        <ele>343</ele>
        <time>2024-11-05T16:16:36Z</time>
      </trkpt>
      <trkpt lat="45.87102" lon="1.28911">
        <ele>342.8</ele>
        <time>2024-11-05T16:16:37Z</time>
      </trkpt>
      <trkpt lat="45.87108" lon="1.2891">
        <ele>342.6</ele>
        <time>2024-11-05T16:16:38Z</time>
      </trkpt>
      <trkpt lat="45.87115" lon="1.2891">
        <ele>342.3</ele>
        <time>2024-11-05T16:16:39Z</time>
      </trkpt>
      <trkpt lat="45.8712" lon="1.2891">
        <ele>342.2</ele>
        <time>2024-11-05T16:16:40Z</time>
      </trkpt>
      <trkpt lat="45.87126" lon="1.2891">
        <ele>341.9</ele>
        <time>2024-11-05T16:16:41Z</time>
      </trkpt>
      <trkpt lat="45.87131" lon="1.28911">
        <ele>341.7</ele>
        <time>2024-11-05T16:16:42Z</time>
      </trkpt>
      <trkpt lat="45.87137" lon="1.28914">
        <ele>341.4</ele>
        <time>2024-11-05T16:16:43Z</time>
      </trkpt>
      <trkpt lat="45.87142" lon="1.28915">
        <ele>341.2</ele>
        <time>2024-11-05T16:16:44Z</time>
      </trkpt>
      <trkpt lat="45.87147" lon="1.28915">
        <ele>341</ele>
        <time>2024-11-05T16:16:45Z</time>
      </trkpt>
      <trkpt lat="45.87151" lon="1.28913">
        <ele>340.8</ele>
        <time>2024-11-05T16:16:46Z</time>
      </trkpt>
      <trkpt lat="45.87154" lon="1.28909">
        <ele>340.6</ele>
        <time>2024-11-05T16:16:47Z</time>
      </trkpt>
      <trkpt lat="45.87156" lon="1.28904">
        <ele>340.5</ele>
        <time>2024-11-05T16:16:48Z</time>
      </trkpt>
      <trkpt lat="45.87158" lon="1.28897">
        <ele>340.2</ele>
        <time>2024-11-05T16:16:49Z</time>
      </trkpt>
      <trkpt lat="45.87158" lon="1.2889">
        <ele>340</ele>
        <time>2024-11-05T16:16:50Z</time>
      </trkpt>
      <trkpt lat="45.87159" lon="1.28883">
        <ele>339.8</ele>
        <time>2024-11-05T16:16:51Z</time>
      </trkpt>
      <trkpt lat="45.87159" lon="1.28876">
        <ele>339.6</ele>
        <time>2024-11-05T16:16:52Z</time>
      </trkpt>
      <trkpt lat="45.87159" lon="1.28867">
        <ele>339.4</ele>
        <time>2024-11-05T16:16:53Z</time>
      </trkpt>
      <trkpt lat="45.87159" lon="1.2886">
        <ele>339.3</ele>
        <time>2024-11-05T16:16:54Z</time>
      </trkpt>
      <trkpt lat="45.87158" lon="1.28853">
        <ele>339.2</ele>
        <time>2024-11-05T16:16:55Z</time>
      </trkpt>
      <trkpt lat="45.87158" lon="1.28847">
        <ele>339.1</ele>
        <time>2024-11-05T16:16:56Z</time>
      </trkpt>
      <trkpt lat="45.87158" lon="1.28842">
        <ele>339</ele>
        <time>2024-11-05T16:16:57Z</time>
      </trkpt>
      <trkpt lat="45.87158" lon="1.28836">
        <ele>339</ele>
        <time>2024-11-05T16:16:58Z</time>
      </trkpt>
      <trkpt lat="45.8716" lon="1.2883">
        <ele>338.9</ele>
        <time>2024-11-05T16:16:59Z</time>
      </trkpt>
      <trkpt lat="45.87161" lon="1.28823">
        <ele>338.9</ele>
        <time>2024-11-05T16:17:00Z</time>
      </trkpt>
      <trkpt lat="45.87161" lon="1.28815">
        <ele>338.8</ele>
        <time>2024-11-05T16:17:01Z</time>
      </trkpt>
      <trkpt lat="45.87161" lon="1.28807">
        <ele>338.8</ele>
        <time>2024-11-05T16:17:02Z</time>
      </trkpt>
      <trkpt lat="45.87162" lon="1.288">
        <ele>338.8</ele>
        <time>2024-11-05T16:17:03Z</time>
      </trkpt>
      <trkpt lat="45.87163" lon="1.28792">
        <ele>338.7</ele>
        <time>2024-11-05T16:17:04Z</time>
      </trkpt>
      <trkpt lat="45.87164" lon="1.28785">
        <ele>338.7</ele>
        <time>2024-11-05T16:17:05Z</time>
      </trkpt>
      <trkpt lat="45.87165" lon="1.28777">
        <ele>338.7</ele>
        <time>2024-11-05T16:17:06Z</time>
      </trkpt>
      <trkpt lat="45.87168" lon="1.28755">
        <ele>338.6</ele>
        <time>2024-11-05T16:17:10Z</time>
      </trkpt>
      <trkpt lat="45.87169" lon="1.28741">
        <ele>338.6</ele>
        <time>2024-11-05T16:17:11Z</time>
      </trkpt>
      <trkpt lat="45.87168" lon="1.28733">
        <ele>338.6</ele>
        <time>2024-11-05T16:17:12Z</time>
      </trkpt>
      <trkpt lat="45.87167" lon="1.28725">
        <ele>338.7</ele>
        <time>2024-11-05T16:17:13Z</time>
      </trkpt>
      <trkpt lat="45.87167" lon="1.28718">
        <ele>338.7</ele>
        <time>2024-11-05T16:17:14Z</time>
      </trkpt>
      <trkpt lat="45.87169" lon="1.28713">
        <ele>338.7</ele>
        <time>2024-11-05T16:17:15Z</time>
      </trkpt>
      <trkpt lat="45.87172" lon="1.2871">
        <ele>338.2</ele>
        <time>2024-11-05T16:17:16Z</time>
      </trkpt>
      <trkpt lat="45.87176" lon="1.2871">
        <ele>337.8</ele>
        <time>2024-11-05T16:17:17Z</time>
      </trkpt>
      <trkpt lat="45.8718" lon="1.28712">
        <ele>337.4</ele>
        <time>2024-11-05T16:17:18Z</time>
      </trkpt>
      <trkpt lat="45.87184" lon="1.28717">
        <ele>336.8</ele>
        <time>2024-11-05T16:17:19Z</time>
      </trkpt>
      <trkpt lat="45.87189" lon="1.2872">
        <ele>336.2</ele>
        <time>2024-11-05T16:17:20Z</time>
      </trkpt>
      <trkpt lat="45.87192" lon="1.28723">
        <ele>335.7</ele>
        <time>2024-11-05T16:17:21Z</time>
      </trkpt>
      <trkpt lat="45.87195" lon="1.28726">
        <ele>335.2</ele>
        <time>2024-11-05T16:17:22Z</time>
      </trkpt>
      <trkpt lat="45.872" lon="1.28727">
        <ele>334.4</ele>
        <time>2024-11-05T16:17:23Z</time>
      </trkpt>
      <trkpt lat="45.87203" lon="1.28725">
        <ele>334</ele>
        <time>2024-11-05T16:17:24Z</time>
      </trkpt>
      <trkpt lat="45.87206" lon="1.28721">
        <ele>333.4</ele>
        <time>2024-11-05T16:17:25Z</time>
      </trkpt>
      <trkpt lat="45.87208" lon="1.28716">
        <ele>332.8</ele>
        <time>2024-11-05T16:17:26Z</time>
      </trkpt>
      <trkpt lat="45.87211" lon="1.28709">
        <ele>332.2</ele>
        <time>2024-11-05T16:17:27Z</time>
      </trkpt>
      <trkpt lat="45.87213" lon="1.287">
        <ele>331.5</ele>
        <time>2024-11-05T16:17:28Z</time>
      </trkpt>
      <trkpt lat="45.87215" lon="1.28691">
        <ele>331</ele>
        <time>2024-11-05T16:17:29Z</time>
      </trkpt>
      <trkpt lat="45.87218" lon="1.28682">
        <ele>330.6</ele>
        <time>2024-11-05T16:17:30Z</time>
      </trkpt>
      <trkpt lat="45.87221" lon="1.28672">
        <ele>330.2</ele>
        <time>2024-11-05T16:17:31Z</time>
      </trkpt>
      <trkpt lat="45.87223" lon="1.28663">
        <ele>329.9</ele>
        <time>2024-11-05T16:17:32Z</time>
      </trkpt>
      <trkpt lat="45.87225" lon="1.28654">
        <ele>329.8</ele>
        <time>2024-11-05T16:17:33Z</time>
      </trkpt>
      <trkpt lat="45.87226" lon="1.28646">
        <ele>329.8</ele>
        <time>2024-11-05T16:17:34Z</time>
      </trkpt>
      <trkpt lat="45.87227" lon="1.28639">
        <ele>329.9</ele>
        <time>2024-11-05T16:17:35Z</time>
      </trkpt>
      <trkpt lat="45.8723" lon="1.28633">
        <ele>330.1</ele>
        <time>2024-11-05T16:17:36Z</time>
      </trkpt>
      <trkpt lat="45.87234" lon="1.28627">
        <ele>330.3</ele>
        <time>2024-11-05T16:17:37Z</time>
      </trkpt>
      <trkpt lat="45.87237" lon="1.28622">
        <ele>330.5</ele>
        <time>2024-11-05T16:17:38Z</time>
      </trkpt>
      <trkpt lat="45.87241" lon="1.28615">
        <ele>330.8</ele>
        <time>2024-11-05T16:17:39Z</time>
      </trkpt>
      <trkpt lat="45.87243" lon="1.2861">
        <ele>330.9</ele>
        <time>2024-11-05T16:17:40Z</time>
      </trkpt>
      <trkpt lat="45.87245" lon="1.28604">
        <ele>331</ele>
        <time>2024-11-05T16:17:41Z</time>
      </trkpt>
      <trkpt lat="45.87247" lon="1.28598">
        <ele>331.2</ele>
        <time>2024-11-05T16:17:42Z</time>
      </trkpt>
      <trkpt lat="45.87247" lon="1.28592">
        <ele>331.3</ele>
        <time>2024-11-05T16:17:43Z</time>
      </trkpt>
      <trkpt lat="45.87246" lon="1.28587">
        <ele>331.4</ele>
        <time>2024-11-05T16:17:44Z</time>
      </trkpt>
      <trkpt lat="45.87245" lon="1.28581">
        <ele>331.5</ele>
        <time>2024-11-05T16:17:45Z</time>
      </trkpt>
      <trkpt lat="45.87243" lon="1.28575">
        <ele>331.7</ele>
        <time>2024-11-05T16:17:46Z</time>
      </trkpt>
      <trkpt lat="45.87241" lon="1.28569">
        <ele>331.9</ele>
        <time>2024-11-05T16:17:47Z</time>
      </trkpt>
      <trkpt lat="45.8724" lon="1.28563">
        <ele>332.1</ele>
        <time>2024-11-05T16:17:48Z</time>
      </trkpt>
      <trkpt lat="45.87238" lon="1.28559">
        <ele>332.4</ele>
        <time>2024-11-05T16:17:49Z</time>
      </trkpt>
      <trkpt lat="45.87234" lon="1.28556">
        <ele>332.7</ele>
        <time>2024-11-05T16:17:50Z</time>
      </trkpt>
      <trkpt lat="45.87231" lon="1.28558">
        <ele>333.1</ele>
        <time>2024-11-05T16:17:51Z</time>
      </trkpt>
      <trkpt lat="45.87228" lon="1.28558">
        <ele>333.4</ele>
        <time>2024-11-05T16:17:52Z</time>
      </trkpt>
      <trkpt lat="45.87224" lon="1.28558">
        <ele>333.8</ele>
        <time>2024-11-05T16:17:53Z</time>
      </trkpt>
      <trkpt lat="45.87221" lon="1.28558">
        <ele>334.2</ele>
        <time>2024-11-05T16:17:54Z</time>
      </trkpt>
      <trkpt lat="45.87217" lon="1.28557">
        <ele>334.6</ele>
        <time>2024-11-05T16:17:56Z</time>
      </trkpt>
      <trkpt lat="45.87212" lon="1.28558">
        <ele>335.2</ele>
        <time>2024-11-05T16:17:58Z</time>
      </trkpt>
      <trkpt lat="45.87207" lon="1.28558">
        <ele>335.7</ele>
        <time>2024-11-05T16:18:00Z</time>
      </trkpt>
      <trkpt lat="45.87203" lon="1.28558">
        <ele>336.1</ele>
        <time>2024-11-05T16:18:01Z</time>
      </trkpt>
      <trkpt lat="45.872" lon="1.28558">
        <ele>336.3</ele>
        <time>2024-11-05T16:18:02Z</time>
      </trkpt>
      <trkpt lat="45.87197" lon="1.28559">
        <ele>336.6</ele>
        <time>2024-11-05T16:18:03Z</time>
      </trkpt>
      <trkpt lat="45.87193" lon="1.2856">
        <ele>336.9</ele>
        <time>2024-11-05T16:18:04Z</time>
      </trkpt>
      <trkpt lat="45.8719" lon="1.2856">
        <ele>337.1</ele>
        <time>2024-11-05T16:18:05Z</time>
      </trkpt>
      <trkpt lat="45.87186" lon="1.28562">
        <ele>337.3</ele>
        <time>2024-11-05T16:18:06Z</time>
      </trkpt>
      <trkpt lat="45.87183" lon="1.28563">
        <ele>337.5</ele>
        <time>2024-11-05T16:18:07Z</time>
      </trkpt>
      <trkpt lat="45.87179" lon="1.28564">
        <ele>337.7</ele>
        <time>2024-11-05T16:18:08Z</time>
      </trkpt>
      <trkpt lat="45.87176" lon="1.28565">
        <ele>337.8</ele>
        <time>2024-11-05T16:18:09Z</time>
      </trkpt>
      <trkpt lat="45.87172" lon="1.28566">
        <ele>337.9</ele>
        <time>2024-11-05T16:18:11Z</time>
      </trkpt>
      <trkpt lat="45.87168" lon="1.28565">
        <ele>338</ele>
        <time>2024-11-05T16:18:12Z</time>
      </trkpt>
      <trkpt lat="45.87163" lon="1.28564">
        <ele>338.1</ele>
        <time>2024-11-05T16:18:14Z</time>
      </trkpt>
      <trkpt lat="45.87159" lon="1.28564">
        <ele>338.2</ele>
        <time>2024-11-05T16:18:15Z</time>
      </trkpt>
      <trkpt lat="45.87155" lon="1.28564">
        <ele>338.2</ele>
        <time>2024-11-05T16:18:16Z</time>
      </trkpt>
      <trkpt lat="45.8715" lon="1.28564">
        <ele>338.2</ele>
        <time>2024-11-05T16:18:17Z</time>
      </trkpt>
      <trkpt lat="45.87145" lon="1.28564">
        <ele>338.2</ele>
        <time>2024-11-05T16:18:18Z</time>
      </trkpt>
      <trkpt lat="45.8714" lon="1.28564">
        <ele>338.1</ele>
        <time>2024-11-05T16:18:19Z</time>
      </trkpt>
      <trkpt lat="45.87135" lon="1.28564">
        <ele>338</ele>
        <time>2024-11-05T16:18:20Z</time>
      </trkpt>
      <trkpt lat="45.8713" lon="1.28564">
        <ele>337.8</ele>
        <time>2024-11-05T16:18:21Z</time>
      </trkpt>
      <trkpt lat="45.87125" lon="1.28565">
        <ele>337.7</ele>
        <time>2024-11-05T16:18:22Z</time>
      </trkpt>
      <trkpt lat="45.87119" lon="1.28566">
        <ele>337.4</ele>
        <time>2024-11-05T16:18:23Z</time>
      </trkpt>
      <trkpt lat="45.87114" lon="1.28566">
        <ele>337.1</ele>
        <time>2024-11-05T16:18:24Z</time>
      </trkpt>
      <trkpt lat="45.87106" lon="1.28567">
        <ele>336.7</ele>
        <time>2024-11-05T16:18:25Z</time>
      </trkpt>
      <trkpt lat="45.871" lon="1.28567">
        <ele>336.3</ele>
        <time>2024-11-05T16:18:26Z</time>
      </trkpt>
      <trkpt lat="45.87095" lon="1.28568">
        <ele>336</ele>
        <time>2024-11-05T16:18:27Z</time>
      </trkpt>
      <trkpt lat="45.8709" lon="1.28566">
        <ele>335.7</ele>
        <time>2024-11-05T16:18:28Z</time>
      </trkpt>
      <trkpt lat="45.87084" lon="1.28565">
        <ele>335.3</ele>
        <time>2024-11-05T16:18:29Z</time>
      </trkpt>
      <trkpt lat="45.87077" lon="1.28565">
        <ele>334.8</ele>
        <time>2024-11-05T16:18:30Z</time>
      </trkpt>
      <trkpt lat="45.87069" lon="1.28564">
        <ele>334.1</ele>
        <time>2024-11-05T16:18:31Z</time>
      </trkpt>
      <trkpt lat="45.87061" lon="1.28564">
        <ele>333.4</ele>
        <time>2024-11-05T16:18:32Z</time>
      </trkpt>
      <trkpt lat="45.87054" lon="1.28563">
        <ele>332.8</ele>
        <time>2024-11-05T16:18:33Z</time>
      </trkpt>
      <trkpt lat="45.87046" lon="1.28562">
        <ele>332.3</ele>
        <time>2024-11-05T16:18:34Z</time>
      </trkpt>
      <trkpt lat="45.87038" lon="1.28562">
        <ele>331.8</ele>
        <time>2024-11-05T16:18:35Z</time>
      </trkpt>
      <trkpt lat="45.87033" lon="1.28558">
        <ele>331.7</ele>
        <time>2024-11-05T16:18:36Z</time>
      </trkpt>
      <trkpt lat="45.87029" lon="1.28555">
        <ele>331.7</ele>
        <time>2024-11-05T16:18:37Z</time>
      </trkpt>
      <trkpt lat="45.87024" lon="1.28551">
        <ele>331.7</ele>
        <time>2024-11-05T16:18:38Z</time>
      </trkpt>
      <trkpt lat="45.87019" lon="1.28548">
        <ele>331.9</ele>
        <time>2024-11-05T16:18:39Z</time>
      </trkpt>
      <trkpt lat="45.87015" lon="1.28546">
        <ele>332.1</ele>
        <time>2024-11-05T16:18:40Z</time>
      </trkpt>
      <trkpt lat="45.87011" lon="1.28545">
        <ele>332.3</ele>
        <time>2024-11-05T16:18:42Z</time>
      </trkpt>
      <trkpt lat="45.87004" lon="1.28543">
        <ele>332.8</ele>
        <time>2024-11-05T16:18:43Z</time>
      </trkpt>
      <trkpt lat="45.86999" lon="1.28541">
        <ele>333.1</ele>
        <time>2024-11-05T16:18:44Z</time>
      </trkpt>
      <trkpt lat="45.86995" lon="1.2854">
        <ele>333.4</ele>
        <time>2024-11-05T16:18:45Z</time>
      </trkpt>
      <trkpt lat="45.86991" lon="1.28537">
        <ele>333.6</ele>
        <time>2024-11-05T16:18:46Z</time>
      </trkpt>
      <trkpt lat="45.86986" lon="1.28531">
        <ele>333.8</ele>
        <time>2024-11-05T16:18:47Z</time>
      </trkpt>
      <trkpt lat="45.8698" lon="1.28526">
        <ele>333.8</ele>
        <time>2024-11-05T16:18:48Z</time>
      </trkpt>
      <trkpt lat="45.86976" lon="1.28519">
        <ele>333.7</ele>
        <time>2024-11-05T16:18:49Z</time>
      </trkpt>
      <trkpt lat="45.86973" lon="1.28511">
        <ele>333.6</ele>
        <time>2024-11-05T16:18:50Z</time>
      </trkpt>
      <trkpt lat="45.86974" lon="1.28503">
        <ele>333.7</ele>
        <time>2024-11-05T16:18:51Z</time>
      </trkpt>
      <trkpt lat="45.86976" lon="1.28498">
        <ele>333.8</ele>
        <time>2024-11-05T16:18:53Z</time>
      </trkpt>
      <trkpt lat="45.86978" lon="1.28491">
        <ele>334</ele>
        <time>2024-11-05T16:18:55Z</time>
      </trkpt>
      <trkpt lat="45.86979" lon="1.28485">
        <ele>334.2</ele>
        <time>2024-11-05T16:18:56Z</time>
      </trkpt>
      <trkpt lat="45.8698" lon="1.28479">
        <ele>334.4</ele>
        <time>2024-11-05T16:18:57Z</time>
      </trkpt>
      <trkpt lat="45.86981" lon="1.28473">
        <ele>334.7</ele>
        <time>2024-11-05T16:18:58Z</time>
      </trkpt>
      <trkpt lat="45.86981" lon="1.28467">
        <ele>335</ele>
        <time>2024-11-05T16:18:59Z</time>
      </trkpt>
      <trkpt lat="45.86981" lon="1.28461">
        <ele>335.3</ele>
        <time>2024-11-05T16:19:00Z</time>
      </trkpt>
      <trkpt lat="45.86981" lon="1.28456">
        <ele>335.5</ele>
        <time>2024-11-05T16:19:01Z</time>
      </trkpt>
      <trkpt lat="45.8698" lon="1.2845">
        <ele>335.8</ele>
        <time>2024-11-05T16:19:02Z</time>
      </trkpt>
      <trkpt lat="45.86979" lon="1.28445">
        <ele>336</ele>
        <time>2024-11-05T16:19:03Z</time>
      </trkpt>
      <trkpt lat="45.86976" lon="1.28438">
        <ele>336.2</ele>
        <time>2024-11-05T16:19:05Z</time>
      </trkpt>
      <trkpt lat="45.86975" lon="1.28433">
        <ele>336.4</ele>
        <time>2024-11-05T16:19:06Z</time>
      </trkpt>
      <trkpt lat="45.86973" lon="1.28429">
        <ele>336.5</ele>
        <time>2024-11-05T16:19:07Z</time>
      </trkpt>
      <trkpt lat="45.8697" lon="1.28424">
        <ele>336.7</ele>
        <time>2024-11-05T16:19:08Z</time>
      </trkpt>
      <trkpt lat="45.86968" lon="1.2842">
        <ele>336.9</ele>
        <time>2024-11-05T16:19:09Z</time>
      </trkpt>
      <trkpt lat="45.86966" lon="1.28416">
        <ele>337</ele>
        <time>2024-11-05T16:19:10Z</time>
      </trkpt>
      <trkpt lat="45.86964" lon="1.28412">
        <ele>337.1</ele>
        <time>2024-11-05T16:19:11Z</time>
      </trkpt>
      <trkpt lat="45.86962" lon="1.28408">
        <ele>337.3</ele>
        <time>2024-11-05T16:19:12Z</time>
      </trkpt>
      <trkpt lat="45.86959" lon="1.28403">
        <ele>337.5</ele>
        <time>2024-11-05T16:19:13Z</time>
      </trkpt>
      <trkpt lat="45.86957" lon="1.28398">
        <ele>337.6</ele>
        <time>2024-11-05T16:19:14Z</time>
      </trkpt>
      <trkpt lat="45.86955" lon="1.28392">
        <ele>337.7</ele>
        <time>2024-11-05T16:19:15Z</time>
      </trkpt>
      <trkpt lat="45.86953" lon="1.28388">
        <ele>337.8</ele>
        <time>2024-11-05T16:19:16Z</time>
      </trkpt>
      <trkpt lat="45.86952" lon="1.28384">
        <ele>337.9</ele>
        <time>2024-11-05T16:19:17Z</time>
      </trkpt>
      <trkpt lat="45.8695" lon="1.2838">
        <ele>338</ele>
        <time>2024-11-05T16:19:18Z</time>
      </trkpt>
      <trkpt lat="45.86948" lon="1.28376">
        <ele>338.2</ele>
        <time>2024-11-05T16:19:19Z</time>
      </trkpt>
      <trkpt lat="45.86945" lon="1.28371">
        <ele>338.3</ele>
        <time>2024-11-05T16:19:20Z</time>
      </trkpt>
      <trkpt lat="45.86942" lon="1.28365">
        <ele>338.6</ele>
        <time>2024-11-05T16:19:21Z</time>
      </trkpt>
      <trkpt lat="45.8694" lon="1.2836">
        <ele>338.8</ele>
        <time>2024-11-05T16:19:22Z</time>
      </trkpt>
      <trkpt lat="45.86939" lon="1.28355">
        <ele>339</ele>
        <time>2024-11-05T16:19:23Z</time>
      </trkpt>
      <trkpt lat="45.86938" lon="1.2835">
        <ele>339.1</ele>
        <time>2024-11-05T16:19:24Z</time>
      </trkpt>
      <trkpt lat="45.86937" lon="1.28344">
        <ele>339.3</ele>
        <time>2024-11-05T16:19:25Z</time>
      </trkpt>
      <trkpt lat="45.86935" lon="1.28338">
        <ele>339.3</ele>
        <time>2024-11-05T16:19:26Z</time>
      </trkpt>
      <trkpt lat="45.86932" lon="1.28332">
        <ele>339.3</ele>
        <time>2024-11-05T16:19:27Z</time>
      </trkpt>
      <trkpt lat="45.8693" lon="1.28323">
        <ele>339.2</ele>
        <time>2024-11-05T16:19:28Z</time>
      </trkpt>
      <trkpt lat="45.86928" lon="1.28314">
        <ele>338.9</ele>
        <time>2024-11-05T16:19:29Z</time>
      </trkpt>
      <trkpt lat="45.86927" lon="1.28305">
        <ele>338.5</ele>
        <time>2024-11-05T16:19:30Z</time>
      </trkpt>
      <trkpt lat="45.86925" lon="1.28297">
        <ele>337.9</ele>
        <time>2024-11-05T16:19:31Z</time>
      </trkpt>
      <trkpt lat="45.86924" lon="1.28288">
        <ele>337.2</ele>
        <time>2024-11-05T16:19:32Z</time>
      </trkpt>
      <trkpt lat="45.86921" lon="1.28278">
        <ele>336.1</ele>
        <time>2024-11-05T16:19:33Z</time>
      </trkpt>
      <trkpt lat="45.8692" lon="1.28272">
        <ele>335.4</ele>
        <time>2024-11-05T16:19:34Z</time>
      </trkpt>
      <trkpt lat="45.86918" lon="1.28266">
        <ele>334.6</ele>
        <time>2024-11-05T16:19:35Z</time>
      </trkpt>
      <trkpt lat="45.86916" lon="1.28259">
        <ele>333.8</ele>
        <time>2024-11-05T16:19:36Z</time>
      </trkpt>
      <trkpt lat="45.86913" lon="1.28251">
        <ele>332.8</ele>
        <time>2024-11-05T16:19:37Z</time>
      </trkpt>
      <trkpt lat="45.86911" lon="1.28246">
        <ele>332.2</ele>
        <time>2024-11-05T16:19:38Z</time>
      </trkpt>
      <trkpt lat="45.86908" lon="1.28241">
        <ele>331.5</ele>
        <time>2024-11-05T16:19:39Z</time>
      </trkpt>
      <trkpt lat="45.86903" lon="1.28234">
        <ele>330.6</ele>
        <time>2024-11-05T16:19:40Z</time>
      </trkpt>
      <trkpt lat="45.86898" lon="1.28228">
        <ele>329.8</ele>
        <time>2024-11-05T16:19:41Z</time>
      </trkpt>
      <trkpt lat="45.86894" lon="1.28224">
        <ele>329.2</ele>
        <time>2024-11-05T16:19:42Z</time>
      </trkpt>
      <trkpt lat="45.86888" lon="1.28219">
        <ele>328.6</ele>
        <time>2024-11-05T16:19:43Z</time>
      </trkpt>
      <trkpt lat="45.86882" lon="1.28213">
        <ele>328.1</ele>
        <time>2024-11-05T16:19:44Z</time>
      </trkpt>
      <trkpt lat="45.86877" lon="1.28206">
        <ele>327.8</ele>
        <time>2024-11-05T16:19:45Z</time>
      </trkpt>
      <trkpt lat="45.86873" lon="1.28197">
        <ele>327.7</ele>
        <time>2024-11-05T16:19:46Z</time>
      </trkpt>
      <trkpt lat="45.8687" lon="1.28187">
        <ele>327.8</ele>
        <time>2024-11-05T16:19:47Z</time>
      </trkpt>
      <trkpt lat="45.8687" lon="1.2818">
        <ele>328</ele>
        <time>2024-11-05T16:19:48Z</time>
      </trkpt>
      <trkpt lat="45.8687" lon="1.28173">
        <ele>328.2</ele>
        <time>2024-11-05T16:19:49Z</time>
      </trkpt>
      <trkpt lat="45.86871" lon="1.28166">
        <ele>328.6</ele>
        <time>2024-11-05T16:19:50Z</time>
      </trkpt>
      <trkpt lat="45.86872" lon="1.2816">
        <ele>328.9</ele>
        <time>2024-11-05T16:19:51Z</time>
      </trkpt>
      <trkpt lat="45.86872" lon="1.28155">
        <ele>329.3</ele>
        <time>2024-11-05T16:19:52Z</time>
      </trkpt>
      <trkpt lat="45.86871" lon="1.2815">
        <ele>329.7</ele>
        <time>2024-11-05T16:19:53Z</time>
      </trkpt>
      <trkpt lat="45.86871" lon="1.28143">
        <ele>330.4</ele>
        <time>2024-11-05T16:19:55Z</time>
      </trkpt>
      <trkpt lat="45.86873" lon="1.28138">
        <ele>330.9</ele>
        <time>2024-11-05T16:19:56Z</time>
      </trkpt>
      <trkpt lat="45.86874" lon="1.28132">
        <ele>331.5</ele>
        <time>2024-11-05T16:19:57Z</time>
      </trkpt>
      <trkpt lat="45.86874" lon="1.28127">
        <ele>332</ele>
        <time>2024-11-05T16:19:58Z</time>
      </trkpt>
      <trkpt lat="45.86873" lon="1.28122">
        <ele>332.6</ele>
        <time>2024-11-05T16:20:00Z</time>
      </trkpt>
      <trkpt lat="45.8687" lon="1.28121">
        <ele>333</ele>
        <time>2024-11-05T16:20:02Z</time>
      </trkpt>
      <trkpt lat="45.86868" lon="1.28122">
        <ele>333.3</ele>
        <time>2024-11-05T16:20:03Z</time>
      </trkpt>
      <trkpt lat="45.86864" lon="1.28122">
        <ele>333.9</ele>
        <time>2024-11-05T16:20:05Z</time>
      </trkpt>
      <trkpt lat="45.86861" lon="1.2812">
        <ele>334.4</ele>
        <time>2024-11-05T16:20:06Z</time>
      </trkpt>
      <trkpt lat="45.86859" lon="1.28118">
        <ele>334.6</ele>
        <time>2024-11-05T16:20:07Z</time>
      </trkpt>
      <trkpt lat="45.86856" lon="1.28115">
        <ele>334.6</ele>
        <time>2024-11-05T16:20:08Z</time>
      </trkpt>
      <trkpt lat="45.86854" lon="1.28111">
        <ele>334.7</ele>
        <time>2024-11-05T16:20:09Z</time>
      </trkpt>
      <trkpt lat="45.8685" lon="1.28107">
        <ele>334.8</ele>
        <time>2024-11-05T16:20:11Z</time>
      </trkpt>
      <trkpt lat="45.86848" lon="1.28104">
        <ele>334.8</ele>
        <time>2024-11-05T16:20:12Z</time>
      </trkpt>
      <trkpt lat="45.86845" lon="1.28101">
        <ele>334.9</ele>
        <time>2024-11-05T16:20:13Z</time>
      </trkpt>
      <trkpt lat="45.86842" lon="1.28098">
        <ele>334.9</ele>
        <time>2024-11-05T16:20:14Z</time>
      </trkpt>
      <trkpt lat="45.86839" lon="1.28095">
        <ele>335</ele>
        <time>2024-11-05T16:20:15Z</time>
      </trkpt>
      <trkpt lat="45.86835" lon="1.28093">
        <ele>335</ele>
        <time>2024-11-05T16:20:16Z</time>
      </trkpt>
      <trkpt lat="45.8683" lon="1.28089">
        <ele>335.1</ele>
        <time>2024-11-05T16:20:17Z</time>
      </trkpt>
      <trkpt lat="45.86826" lon="1.28087">
        <ele>335.1</ele>
        <time>2024-11-05T16:20:18Z</time>
      </trkpt>
      <trkpt lat="45.86822" lon="1.28086">
        <ele>335.2</ele>
        <time>2024-11-05T16:20:19Z</time>
      </trkpt>
      <trkpt lat="45.86819" lon="1.28085">
        <ele>335.2</ele>
        <time>2024-11-05T16:20:20Z</time>
      </trkpt>
      <trkpt lat="45.86814" lon="1.28082">
        <ele>335.2</ele>
        <time>2024-11-05T16:20:21Z</time>
      </trkpt>
      <trkpt lat="45.86809" lon="1.28079">
        <ele>335.3</ele>
        <time>2024-11-05T16:20:22Z</time>
      </trkpt>
      <trkpt lat="45.86804" lon="1.28076">
        <ele>335.4</ele>
        <time>2024-11-05T16:20:23Z</time>
      </trkpt>
      <trkpt lat="45.868" lon="1.28073">
        <ele>335.4</ele>
        <time>2024-11-05T16:20:24Z</time>
      </trkpt>
      <trkpt lat="45.86795" lon="1.28071">
        <ele>335.4</ele>
        <time>2024-11-05T16:20:25Z</time>
      </trkpt>
      <trkpt lat="45.86792" lon="1.28067">
        <ele>335.4</ele>
        <time>2024-11-05T16:20:26Z</time>
      </trkpt>
      <trkpt lat="45.86788" lon="1.28065">
        <ele>335.4</ele>
        <time>2024-11-05T16:20:27Z</time>
      </trkpt>
      <trkpt lat="45.86785" lon="1.28063">
        <ele>335.4</ele>
        <time>2024-11-05T16:20:28Z</time>
      </trkpt>
      <trkpt lat="45.8678" lon="1.28059">
        <ele>335.4</ele>
        <time>2024-11-05T16:20:29Z</time>
      </trkpt>
      <trkpt lat="45.86774" lon="1.28056">
        <ele>335.4</ele>
        <time>2024-11-05T16:20:30Z</time>
      </trkpt>
      <trkpt lat="45.86768" lon="1.28054">
        <ele>335.4</ele>
        <time>2024-11-05T16:20:31Z</time>
      </trkpt>
      <trkpt lat="45.86762" lon="1.28052">
        <ele>335.4</ele>
        <time>2024-11-05T16:20:32Z</time>
      </trkpt>
      <trkpt lat="45.86756" lon="1.28051">
        <ele>335.4</ele>
        <time>2024-11-05T16:20:33Z</time>
      </trkpt>
      <trkpt lat="45.86751" lon="1.28051">
        <ele>335.4</ele>
        <time>2024-11-05T16:20:34Z</time>
      </trkpt>
      <trkpt lat="45.86746" lon="1.28052">
        <ele>335.4</ele>
        <time>2024-11-05T16:20:35Z</time>
      </trkpt>
      <trkpt lat="45.86742" lon="1.28054">
        <ele>335.4</ele>
        <time>2024-11-05T16:20:36Z</time>
      </trkpt>
      <trkpt lat="45.86737" lon="1.28055">
        <ele>335.4</ele>
        <time>2024-11-05T16:20:37Z</time>
      </trkpt>
      <trkpt lat="45.86732" lon="1.28057">
        <ele>335.4</ele>
        <time>2024-11-05T16:20:38Z</time>
      </trkpt>
      <trkpt lat="45.86728" lon="1.28059">
        <ele>335.4</ele>
        <time>2024-11-05T16:20:39Z</time>
      </trkpt>
      <trkpt lat="45.86723" lon="1.2806">
        <ele>335.4</ele>
        <time>2024-11-05T16:20:40Z</time>
      </trkpt>
      <trkpt lat="45.86719" lon="1.28063">
        <ele>335.4</ele>
        <time>2024-11-05T16:20:41Z</time>
      </trkpt>
      <trkpt lat="45.86714" lon="1.28063">
        <ele>335.3</ele>
        <time>2024-11-05T16:20:42Z</time>
      </trkpt>
      <trkpt lat="45.86709" lon="1.28064">
        <ele>335.3</ele>
        <time>2024-11-05T16:20:43Z</time>
      </trkpt>
      <trkpt lat="45.86704" lon="1.28065">
        <ele>335.3</ele>
        <time>2024-11-05T16:20:44Z</time>
      </trkpt>
      <trkpt lat="45.867" lon="1.28064">
        <ele>335.3</ele>
        <time>2024-11-05T16:20:45Z</time>
      </trkpt>
      <trkpt lat="45.86696" lon="1.2806">
        <ele>335.2</ele>
        <time>2024-11-05T16:20:46Z</time>
      </trkpt>
      <trkpt lat="45.86694" lon="1.28056">
        <ele>335.2</ele>
        <time>2024-11-05T16:20:47Z</time>
      </trkpt>
      <trkpt lat="45.86691" lon="1.28049">
        <ele>334.6</ele>
        <time>2024-11-05T16:20:48Z</time>
      </trkpt>
      <trkpt lat="45.8669" lon="1.28043">
        <ele>334.3</ele>
        <time>2024-11-05T16:20:49Z</time>
      </trkpt>
      <trkpt lat="45.86691" lon="1.28035">
        <ele>333.9</ele>
        <time>2024-11-05T16:20:50Z</time>
      </trkpt>
      <trkpt lat="45.86692" lon="1.28028">
        <ele>333.4</ele>
        <time>2024-11-05T16:20:51Z</time>
      </trkpt>
      <trkpt lat="45.86693" lon="1.2802">
        <ele>332.9</ele>
        <time>2024-11-05T16:20:52Z</time>
      </trkpt>
      <trkpt lat="45.86693" lon="1.28014">
        <ele>332.5</ele>
        <time>2024-11-05T16:20:53Z</time>
      </trkpt>
      <trkpt lat="45.86693" lon="1.28008">
        <ele>332.1</ele>
        <time>2024-11-05T16:20:54Z</time>
      </trkpt>
      <trkpt lat="45.86692" lon="1.28003">
        <ele>331.7</ele>
        <time>2024-11-05T16:20:55Z</time>
      </trkpt>
      <trkpt lat="45.86689" lon="1.27997">
        <ele>331.2</ele>
        <time>2024-11-05T16:20:56Z</time>
      </trkpt>
      <trkpt lat="45.86684" lon="1.27992">
        <ele>330.7</ele>
        <time>2024-11-05T16:20:57Z</time>
      </trkpt>
      <trkpt lat="45.86681" lon="1.27988">
        <ele>330.4</ele>
        <time>2024-11-05T16:20:58Z</time>
      </trkpt>
      <trkpt lat="45.86677" lon="1.27982">
        <ele>330</ele>
        <time>2024-11-05T16:20:59Z</time>
      </trkpt>
      <trkpt lat="45.86673" lon="1.27977">
        <ele>329.6</ele>
        <time>2024-11-05T16:21:00Z</time>
      </trkpt>
      <trkpt lat="45.86668" lon="1.27971">
        <ele>329.1</ele>
        <time>2024-11-05T16:21:01Z</time>
      </trkpt>
      <trkpt lat="45.86664" lon="1.27966">
        <ele>328.7</ele>
        <time>2024-11-05T16:21:02Z</time>
      </trkpt>
      <trkpt lat="45.86659" lon="1.27962">
        <ele>328.3</ele>
        <time>2024-11-05T16:21:03Z</time>
      </trkpt>
      <trkpt lat="45.86655" lon="1.27956">
        <ele>327.8</ele>
        <time>2024-11-05T16:21:04Z</time>
      </trkpt>
      <trkpt lat="45.86652" lon="1.27949">
        <ele>327.3</ele>
        <time>2024-11-05T16:21:05Z</time>
      </trkpt>
      <trkpt lat="45.86649" lon="1.27941">
        <ele>326.7</ele>
        <time>2024-11-05T16:21:06Z</time>
      </trkpt>
      <trkpt lat="45.86649" lon="1.27932">
        <ele>326.2</ele>
        <time>2024-11-05T16:21:07Z</time>
      </trkpt>
      <trkpt lat="45.86651" lon="1.27922">
        <ele>325.5</ele>
        <time>2024-11-05T16:21:08Z</time>
      </trkpt>
      <trkpt lat="45.86653" lon="1.27912">
        <ele>324.7</ele>
        <time>2024-11-05T16:21:09Z</time>
      </trkpt>
      <trkpt lat="45.86655" lon="1.27903">
        <ele>324.1</ele>
        <time>2024-11-05T16:21:10Z</time>
      </trkpt>
      <trkpt lat="45.86657" lon="1.27891">
        <ele>323.4</ele>
        <time>2024-11-05T16:21:11Z</time>
      </trkpt>
      <trkpt lat="45.86659" lon="1.27879">
        <ele>322.7</ele>
        <time>2024-11-05T16:21:12Z</time>
      </trkpt>
      <trkpt lat="45.86658" lon="1.27867">
        <ele>322.1</ele>
        <time>2024-11-05T16:21:13Z</time>
      </trkpt>
      <trkpt lat="45.86654" lon="1.27856">
        <ele>321.5</ele>
        <time>2024-11-05T16:21:14Z</time>
      </trkpt>
      <trkpt lat="45.8665" lon="1.27844">
        <ele>321</ele>
        <time>2024-11-05T16:21:15Z</time>
      </trkpt>
      <trkpt lat="45.86646" lon="1.27833">
        <ele>320.6</ele>
        <time>2024-11-05T16:21:16Z</time>
      </trkpt>
      <trkpt lat="45.86643" lon="1.27823">
        <ele>320.5</ele>
        <time>2024-11-05T16:21:17Z</time>
      </trkpt>
      <trkpt lat="45.86639" lon="1.27814">
        <ele>320.4</ele>
        <time>2024-11-05T16:21:18Z</time>
      </trkpt>
      <trkpt lat="45.86637" lon="1.27807">
        <ele>320.3</ele>
        <time>2024-11-05T16:21:19Z</time>
      </trkpt>
      <trkpt lat="45.86636" lon="1.278">
        <ele>320.2</ele>
        <time>2024-11-05T16:21:20Z</time>
      </trkpt>
      <trkpt lat="45.86638" lon="1.27793">
        <ele>320.1</ele>
        <time>2024-11-05T16:21:21Z</time>
      </trkpt>
      <trkpt lat="45.86641" lon="1.27785">
        <ele>319.8</ele>
        <time>2024-11-05T16:21:22Z</time>
      </trkpt>
      <trkpt lat="45.86643" lon="1.27778">
        <ele>319.6</ele>
        <time>2024-11-05T16:21:23Z</time>
      </trkpt>
      <trkpt lat="45.86647" lon="1.2777">
        <ele>319.4</ele>
        <time>2024-11-05T16:21:24Z</time>
      </trkpt>
      <trkpt lat="45.8665" lon="1.27763">
        <ele>319.3</ele>
        <time>2024-11-05T16:21:25Z</time>
      </trkpt>
      <trkpt lat="45.86653" lon="1.27754">
        <ele>319.2</ele>
        <time>2024-11-05T16:21:26Z</time>
      </trkpt>
      <trkpt lat="45.86653" lon="1.27747">
        <ele>319.1</ele>
        <time>2024-11-05T16:21:27Z</time>
      </trkpt>
      <trkpt lat="45.86652" lon="1.27739">
        <ele>319</ele>
        <time>2024-11-05T16:21:28Z</time>
      </trkpt>
      <trkpt lat="45.86651" lon="1.2773">
        <ele>319</ele>
        <time>2024-11-05T16:21:29Z</time>
      </trkpt>
      <trkpt lat="45.86651" lon="1.27722">
        <ele>318.9</ele>
        <time>2024-11-05T16:21:30Z</time>
      </trkpt>
      <trkpt lat="45.86653" lon="1.27714">
        <ele>318.9</ele>
        <time>2024-11-05T16:21:31Z</time>
      </trkpt>
      <trkpt lat="45.86655" lon="1.27707">
        <ele>318.9</ele>
        <time>2024-11-05T16:21:32Z</time>
      </trkpt>
      <trkpt lat="45.86658" lon="1.277">
        <ele>318.9</ele>
        <time>2024-11-05T16:21:33Z</time>
      </trkpt>
      <trkpt lat="45.86659" lon="1.27693">
        <ele>318.9</ele>
        <time>2024-11-05T16:21:34Z</time>
      </trkpt>
      <trkpt lat="45.86662" lon="1.27687">
        <ele>318.9</ele>
        <time>2024-11-05T16:21:35Z</time>
      </trkpt>
      <trkpt lat="45.86664" lon="1.27681">
        <ele>318.9</ele>
        <time>2024-11-05T16:21:36Z</time>
      </trkpt>
      <trkpt lat="45.86666" lon="1.27674">
        <ele>318.8</ele>
        <time>2024-11-05T16:21:37Z</time>
      </trkpt>
      <trkpt lat="45.86668" lon="1.27667">
        <ele>318.7</ele>
        <time>2024-11-05T16:21:38Z</time>
      </trkpt>
      <trkpt lat="45.86671" lon="1.27661">
        <ele>318.6</ele>
        <time>2024-11-05T16:21:39Z</time>
      </trkpt>
      <trkpt lat="45.86674" lon="1.27657">
        <ele>318.4</ele>
        <time>2024-11-05T16:21:40Z</time>
      </trkpt>
      <trkpt lat="45.86677" lon="1.27656">
        <ele>318.2</ele>
        <time>2024-11-05T16:21:41Z</time>
      </trkpt>
      <trkpt lat="45.86681" lon="1.27658">
        <ele>318.1</ele>
        <time>2024-11-05T16:21:42Z</time>
      </trkpt>
      <trkpt lat="45.86685" lon="1.2766">
        <ele>317.9</ele>
        <time>2024-11-05T16:21:43Z</time>
      </trkpt>
      <trkpt lat="45.86689" lon="1.27664">
        <ele>317.7</ele>
        <time>2024-11-05T16:21:44Z</time>
      </trkpt>
      <trkpt lat="45.86694" lon="1.27668">
        <ele>317.5</ele>
        <time>2024-11-05T16:21:45Z</time>
      </trkpt>
      <trkpt lat="45.86699" lon="1.27672">
        <ele>317.2</ele>
        <time>2024-11-05T16:21:46Z</time>
      </trkpt>
      <trkpt lat="45.86705" lon="1.27676">
        <ele>316.9</ele>
        <time>2024-11-05T16:21:47Z</time>
      </trkpt>
      <trkpt lat="45.86711" lon="1.27681">
        <ele>316.6</ele>
        <time>2024-11-05T16:21:48Z</time>
      </trkpt>
      <trkpt lat="45.86717" lon="1.27685">
        <ele>316.3</ele>
        <time>2024-11-05T16:21:49Z</time>
      </trkpt>
      <trkpt lat="45.86723" lon="1.27689">
        <ele>316.1</ele>
        <time>2024-11-05T16:21:50Z</time>
      </trkpt>
      <trkpt lat="45.86729" lon="1.27695">
        <ele>315.7</ele>
        <time>2024-11-05T16:21:51Z</time>
      </trkpt>
      <trkpt lat="45.86735" lon="1.277">
        <ele>315.4</ele>
        <time>2024-11-05T16:21:52Z</time>
      </trkpt>
      <trkpt lat="45.86741" lon="1.27705">
        <ele>315.1</ele>
        <time>2024-11-05T16:21:53Z</time>
      </trkpt>
      <trkpt lat="45.86747" lon="1.2771">
        <ele>314.9</ele>
        <time>2024-11-05T16:21:54Z</time>
      </trkpt>
      <trkpt lat="45.86753" lon="1.27715">
        <ele>314.6</ele>
        <time>2024-11-05T16:21:55Z</time>
      </trkpt>
      <trkpt lat="45.8676" lon="1.27719">
        <ele>314.3</ele>
        <time>2024-11-05T16:21:56Z</time>
      </trkpt>
      <trkpt lat="45.86766" lon="1.27724">
        <ele>314</ele>
        <time>2024-11-05T16:21:57Z</time>
      </trkpt>
      <trkpt lat="45.86773" lon="1.27729">
        <ele>313.7</ele>
        <time>2024-11-05T16:21:58Z</time>
      </trkpt>
      <trkpt lat="45.8678" lon="1.27734">
        <ele>313.3</ele>
        <time>2024-11-05T16:21:59Z</time>
      </trkpt>
      <trkpt lat="45.86787" lon="1.2774">
        <ele>313</ele>
        <time>2024-11-05T16:22:00Z</time>
      </trkpt>
      <trkpt lat="45.86794" lon="1.27744">
        <ele>312.7</ele>
        <time>2024-11-05T16:22:01Z</time>
      </trkpt>
      <trkpt lat="45.86802" lon="1.27747">
        <ele>312.3</ele>
        <time>2024-11-05T16:22:02Z</time>
      </trkpt>
      <trkpt lat="45.86809" lon="1.2775">
        <ele>312</ele>
        <time>2024-11-05T16:22:03Z</time>
      </trkpt>
      <trkpt lat="45.86817" lon="1.27752">
        <ele>311.6</ele>
        <time>2024-11-05T16:22:04Z</time>
      </trkpt>
      <trkpt lat="45.86825" lon="1.27752">
        <ele>311.3</ele>
        <time>2024-11-05T16:22:05Z</time>
      </trkpt>
      <trkpt lat="45.86833" lon="1.27753">
        <ele>311</ele>
        <time>2024-11-05T16:22:06Z</time>
      </trkpt>
      <trkpt lat="45.86841" lon="1.27753">
        <ele>310.6</ele>
        <time>2024-11-05T16:22:07Z</time>
      </trkpt>
      <trkpt lat="45.86849" lon="1.27753">
        <ele>310.3</ele>
        <time>2024-11-05T16:22:08Z</time>
      </trkpt>
      <trkpt lat="45.86857" lon="1.27754">
        <ele>309.9</ele>
        <time>2024-11-05T16:22:09Z</time>
      </trkpt>
      <trkpt lat="45.86864" lon="1.27754">
        <ele>309.6</ele>
        <time>2024-11-05T16:22:10Z</time>
      </trkpt>
      <trkpt lat="45.86872" lon="1.27753">
        <ele>309.3</ele>
        <time>2024-11-05T16:22:11Z</time>
      </trkpt>
      <trkpt lat="45.86881" lon="1.27753">
        <ele>308.9</ele>
        <time>2024-11-05T16:22:12Z</time>
      </trkpt>
      <trkpt lat="45.86888" lon="1.27753">
        <ele>308.5</ele>
        <time>2024-11-05T16:22:13Z</time>
      </trkpt>
      <trkpt lat="45.86894" lon="1.27753">
        <ele>308.3</ele>
        <time>2024-11-05T16:22:14Z</time>
      </trkpt>
      <trkpt lat="45.869" lon="1.27753">
        <ele>308</ele>
        <time>2024-11-05T16:22:15Z</time>
      </trkpt>
      <trkpt lat="45.86905" lon="1.27752">
        <ele>307.8</ele>
        <time>2024-11-05T16:22:16Z</time>
      </trkpt>
      <trkpt lat="45.8691" lon="1.27751">
        <ele>307.6</ele>
        <time>2024-11-05T16:22:17Z</time>
      </trkpt>
      <trkpt lat="45.86913" lon="1.2775">
        <ele>307.5</ele>
        <time>2024-11-05T16:22:18Z</time>
      </trkpt>
      <trkpt lat="45.86917" lon="1.27746">
        <ele>307.3</ele>
        <time>2024-11-05T16:22:21Z</time>
      </trkpt>
      <trkpt lat="45.86916" lon="1.27742">
        <ele>307.4</ele>
        <time>2024-11-05T16:22:23Z</time>
      </trkpt>
      <trkpt lat="45.86913" lon="1.2774">
        <ele>307.6</ele>
        <time>2024-11-05T16:22:25Z</time>
      </trkpt>
      <trkpt lat="45.86908" lon="1.27738">
        <ele>307.8</ele>
        <time>2024-11-05T16:22:26Z</time>
      </trkpt>
      <trkpt lat="45.86903" lon="1.27738">
        <ele>308</ele>
        <time>2024-11-05T16:22:27Z</time>
      </trkpt>
      <trkpt lat="45.86898" lon="1.27737">
        <ele>308.2</ele>
        <time>2024-11-05T16:22:28Z</time>
      </trkpt>
      <trkpt lat="45.86893" lon="1.27736">
        <ele>308.4</ele>
        <time>2024-11-05T16:22:29Z</time>
      </trkpt>
      <trkpt lat="45.86889" lon="1.27736">
        <ele>308.5</ele>
        <time>2024-11-05T16:22:30Z</time>
      </trkpt>
      <trkpt lat="45.86884" lon="1.27736">
        <ele>308.7</ele>
        <time>2024-11-05T16:22:31Z</time>
      </trkpt>
      <trkpt lat="45.86879" lon="1.27734">
        <ele>309</ele>
        <time>2024-11-05T16:22:32Z</time>
      </trkpt>
      <trkpt lat="45.86874" lon="1.27733">
        <ele>309.2</ele>
        <time>2024-11-05T16:22:33Z</time>
      </trkpt>
      <trkpt lat="45.86868" lon="1.27731">
        <ele>309.4</ele>
        <time>2024-11-05T16:22:34Z</time>
      </trkpt>
      <trkpt lat="45.86863" lon="1.27729">
        <ele>309.7</ele>
        <time>2024-11-05T16:22:35Z</time>
      </trkpt>
      <trkpt lat="45.86857" lon="1.27727">
        <ele>309.9</ele>
        <time>2024-11-05T16:22:36Z</time>
      </trkpt>
      <trkpt lat="45.86852" lon="1.27727">
        <ele>310.1</ele>
        <time>2024-11-05T16:22:37Z</time>
      </trkpt>
      <trkpt lat="45.86846" lon="1.27726">
        <ele>310.4</ele>
        <time>2024-11-05T16:22:38Z</time>
      </trkpt>
      <trkpt lat="45.86841" lon="1.27724">
        <ele>310.6</ele>
        <time>2024-11-05T16:22:39Z</time>
      </trkpt>
      <trkpt lat="45.86835" lon="1.27722">
        <ele>310.9</ele>
        <time>2024-11-05T16:22:40Z</time>
      </trkpt>
      <trkpt lat="45.8683" lon="1.27721">
        <ele>311.1</ele>
        <time>2024-11-05T16:22:41Z</time>
      </trkpt>
      <trkpt lat="45.86825" lon="1.27719">
        <ele>310.2</ele>
        <time>2024-11-05T16:22:42Z</time>
      </trkpt>
      <trkpt lat="45.8682" lon="1.27716">
        <ele>309.5</ele>
        <time>2024-11-05T16:22:43Z</time>
      </trkpt>
      <trkpt lat="45.86816" lon="1.27712">
        <ele>309.4</ele>
        <time>2024-11-05T16:22:44Z</time>
      </trkpt>
      <trkpt lat="45.86813" lon="1.27706">
        <ele>308.1</ele>
        <time>2024-11-05T16:22:45Z</time>
      </trkpt>
      <trkpt lat="45.8681" lon="1.27699">
        <ele>307.5</ele>
        <time>2024-11-05T16:22:46Z</time>
      </trkpt>
      <trkpt lat="45.86807" lon="1.27691">
        <ele>306.5</ele>
        <time>2024-11-05T16:22:47Z</time>
      </trkpt>
      <trkpt lat="45.86804" lon="1.27685">
        <ele>305.7</ele>
        <time>2024-11-05T16:22:48Z</time>
      </trkpt>
      <trkpt lat="45.86801" lon="1.2768">
        <ele>305.3</ele>
        <time>2024-11-05T16:22:49Z</time>
      </trkpt>
      <trkpt lat="45.86798" lon="1.27677">
        <ele>304.9</ele>
        <time>2024-11-05T16:22:50Z</time>
      </trkpt>
      <trkpt lat="45.86794" lon="1.27674">
        <ele>304.9</ele>
        <time>2024-11-05T16:22:51Z</time>
      </trkpt>
      <trkpt lat="45.8679" lon="1.27672">
        <ele>304.4</ele>
        <time>2024-11-05T16:22:52Z</time>
      </trkpt>
      <trkpt lat="45.86787" lon="1.27669">
        <ele>304.4</ele>
        <time>2024-11-05T16:22:53Z</time>
      </trkpt>
      <trkpt lat="45.86785" lon="1.27668">
        <ele>303.9</ele>
        <time>2024-11-05T16:22:54Z</time>
      </trkpt>
      <trkpt lat="45.8678" lon="1.27665">
        <ele>303.8</ele>
        <time>2024-11-05T16:22:56Z</time>
      </trkpt>
      <trkpt lat="45.86777" lon="1.27662">
        <ele>303.9</ele>
        <time>2024-11-05T16:22:57Z</time>
      </trkpt>
      <trkpt lat="45.86773" lon="1.27659">
        <ele>303.9</ele>
        <time>2024-11-05T16:22:58Z</time>
      </trkpt>
      <trkpt lat="45.8677" lon="1.27655">
        <ele>303.9</ele>
        <time>2024-11-05T16:22:59Z</time>
      </trkpt>
      <trkpt lat="45.86766" lon="1.27651">
        <ele>303.9</ele>
        <time>2024-11-05T16:23:00Z</time>
      </trkpt>
      <trkpt lat="45.86763" lon="1.27646">
        <ele>303.9</ele>
        <time>2024-11-05T16:23:01Z</time>
      </trkpt>
      <trkpt lat="45.86761" lon="1.27639">
        <ele>303.9</ele>
        <time>2024-11-05T16:23:02Z</time>
      </trkpt>
      <trkpt lat="45.86761" lon="1.27631">
        <ele>303.9</ele>
        <time>2024-11-05T16:23:03Z</time>
      </trkpt>
      <trkpt lat="45.86761" lon="1.27624">
        <ele>303.8</ele>
        <time>2024-11-05T16:23:04Z</time>
      </trkpt>
      <trkpt lat="45.86761" lon="1.27616">
        <ele>303.8</ele>
        <time>2024-11-05T16:23:05Z</time>
      </trkpt>
      <trkpt lat="45.86758" lon="1.27608">
        <ele>303.7</ele>
        <time>2024-11-05T16:23:06Z</time>
      </trkpt>
      <trkpt lat="45.86754" lon="1.27603">
        <ele>303.7</ele>
        <time>2024-11-05T16:23:07Z</time>
      </trkpt>
      <trkpt lat="45.8675" lon="1.27598">
        <ele>303.7</ele>
        <time>2024-11-05T16:23:08Z</time>
      </trkpt>
      <trkpt lat="45.86745" lon="1.27593">
        <ele>303.8</ele>
        <time>2024-11-05T16:23:09Z</time>
      </trkpt>
      <trkpt lat="45.86741" lon="1.27586">
        <ele>303.8</ele>
        <time>2024-11-05T16:23:10Z</time>
      </trkpt>
      <trkpt lat="45.86738" lon="1.2758">
        <ele>303.8</ele>
        <time>2024-11-05T16:23:11Z</time>
      </trkpt>
      <trkpt lat="45.86734" lon="1.27574">
        <ele>303.8</ele>
        <time>2024-11-05T16:23:12Z</time>
      </trkpt>
      <trkpt lat="45.86732" lon="1.27566">
        <ele>303.8</ele>
        <time>2024-11-05T16:23:13Z</time>
      </trkpt>
      <trkpt lat="45.86729" lon="1.27558">
        <ele>303.7</ele>
        <time>2024-11-05T16:23:14Z</time>
      </trkpt>
      <trkpt lat="45.86727" lon="1.27551">
        <ele>303.6</ele>
        <time>2024-11-05T16:23:15Z</time>
      </trkpt>
      <trkpt lat="45.86725" lon="1.27543">
        <ele>303.4</ele>
        <time>2024-11-05T16:23:16Z</time>
      </trkpt>
      <trkpt lat="45.86723" lon="1.27535">
        <ele>303.2</ele>
        <time>2024-11-05T16:23:17Z</time>
      </trkpt>
      <trkpt lat="45.86722" lon="1.27527">
        <ele>302.9</ele>
        <time>2024-11-05T16:23:18Z</time>
      </trkpt>
      <trkpt lat="45.8672" lon="1.27519">
        <ele>302.6</ele>
        <time>2024-11-05T16:23:19Z</time>
      </trkpt>
      <trkpt lat="45.86719" lon="1.2751">
        <ele>302.2</ele>
        <time>2024-11-05T16:23:20Z</time>
      </trkpt>
      <trkpt lat="45.86717" lon="1.27502">
        <ele>301.9</ele>
        <time>2024-11-05T16:23:21Z</time>
      </trkpt>
      <trkpt lat="45.86714" lon="1.27493">
        <ele>301.5</ele>
        <time>2024-11-05T16:23:22Z</time>
      </trkpt>
      <trkpt lat="45.86711" lon="1.27486">
        <ele>301.2</ele>
        <time>2024-11-05T16:23:23Z</time>
      </trkpt>
      <trkpt lat="45.86708" lon="1.2748">
        <ele>301</ele>
        <time>2024-11-05T16:23:24Z</time>
      </trkpt>
      <trkpt lat="45.86704" lon="1.27475">
        <ele>300.8</ele>
        <time>2024-11-05T16:23:25Z</time>
      </trkpt>
      <trkpt lat="45.86701" lon="1.27469">
        <ele>300.7</ele>
        <time>2024-11-05T16:23:26Z</time>
      </trkpt>
      <trkpt lat="45.86697" lon="1.27464">
        <ele>300.6</ele>
        <time>2024-11-05T16:23:27Z</time>
      </trkpt>
      <trkpt lat="45.86693" lon="1.27458">
        <ele>300.5</ele>
        <time>2024-11-05T16:23:28Z</time>
      </trkpt>
      <trkpt lat="45.8669" lon="1.27453">
        <ele>300.5</ele>
        <time>2024-11-05T16:23:29Z</time>
      </trkpt>
      <trkpt lat="45.86687" lon="1.2745">
        <ele>300.5</ele>
        <time>2024-11-05T16:23:30Z</time>
      </trkpt>
      <trkpt lat="45.86685" lon="1.27446">
        <ele>300.5</ele>
        <time>2024-11-05T16:23:31Z</time>
      </trkpt>
      <trkpt lat="45.86682" lon="1.27443">
        <ele>300.5</ele>
        <time>2024-11-05T16:23:32Z</time>
      </trkpt>
      <trkpt lat="45.86679" lon="1.27441">
        <ele>300.5</ele>
        <time>2024-11-05T16:23:33Z</time>
      </trkpt>
      <trkpt lat="45.86676" lon="1.27438">
        <ele>300.5</ele>
        <time>2024-11-05T16:23:34Z</time>
      </trkpt>
      <trkpt lat="45.86673" lon="1.27436">
        <ele>300.5</ele>
        <time>2024-11-05T16:23:35Z</time>
      </trkpt>
      <trkpt lat="45.8667" lon="1.27433">
        <ele>300.6</ele>
        <time>2024-11-05T16:23:36Z</time>
      </trkpt>
      <trkpt lat="45.86667" lon="1.2743">
        <ele>300.6</ele>
        <time>2024-11-05T16:23:37Z</time>
      </trkpt>
      <trkpt lat="45.86664" lon="1.27428">
        <ele>300.7</ele>
        <time>2024-11-05T16:23:38Z</time>
      </trkpt>
      <trkpt lat="45.8666" lon="1.27426">
        <ele>300.8</ele>
        <time>2024-11-05T16:23:39Z</time>
      </trkpt>
      <trkpt lat="45.86657" lon="1.27424">
        <ele>300.9</ele>
        <time>2024-11-05T16:23:40Z</time>
      </trkpt>
      <trkpt lat="45.86653" lon="1.27423">
        <ele>301</ele>
        <time>2024-11-05T16:23:41Z</time>
      </trkpt>
      <trkpt lat="45.8665" lon="1.27422">
        <ele>301.2</ele>
        <time>2024-11-05T16:23:42Z</time>
      </trkpt>
      <trkpt lat="45.86646" lon="1.27421">
        <ele>301.3</ele>
        <time>2024-11-05T16:23:43Z</time>
      </trkpt>
      <trkpt lat="45.86642" lon="1.27422">
        <ele>301.4</ele>
        <time>2024-11-05T16:23:44Z</time>
      </trkpt>
      <trkpt lat="45.86638" lon="1.27422">
        <ele>301.6</ele>
        <time>2024-11-05T16:23:45Z</time>
      </trkpt>
      <trkpt lat="45.86635" lon="1.27423">
        <ele>301.6</ele>
        <time>2024-11-05T16:23:46Z</time>
      </trkpt>
      <trkpt lat="45.86631" lon="1.27425">
        <ele>301.8</ele>
        <time>2024-11-05T16:23:47Z</time>
      </trkpt>
      <trkpt lat="45.86626" lon="1.27426">
        <ele>301.9</ele>
        <time>2024-11-05T16:23:48Z</time>
      </trkpt>
      <trkpt lat="45.86621" lon="1.27426">
        <ele>301.9</ele>
        <time>2024-11-05T16:23:49Z</time>
      </trkpt>
      <trkpt lat="45.86616" lon="1.27425">
        <ele>301.9</ele>
        <time>2024-11-05T16:23:50Z</time>
      </trkpt>
      <trkpt lat="45.86611" lon="1.27423">
        <ele>301.9</ele>
        <time>2024-11-05T16:23:51Z</time>
      </trkpt>
      <trkpt lat="45.86607" lon="1.2742">
        <ele>301.9</ele>
        <time>2024-11-05T16:23:52Z</time>
      </trkpt>
      <trkpt lat="45.86603" lon="1.27416">
        <ele>301.9</ele>
        <time>2024-11-05T16:23:53Z</time>
      </trkpt>
      <trkpt lat="45.86599" lon="1.27412">
        <ele>301.8</ele>
        <time>2024-11-05T16:23:54Z</time>
      </trkpt>
      <trkpt lat="45.86595" lon="1.27407">
        <ele>301.7</ele>
        <time>2024-11-05T16:23:55Z</time>
      </trkpt>
      <trkpt lat="45.86591" lon="1.27402">
        <ele>301.6</ele>
        <time>2024-11-05T16:23:56Z</time>
      </trkpt>
      <trkpt lat="45.86587" lon="1.27396">
        <ele>301.4</ele>
        <time>2024-11-05T16:23:57Z</time>
      </trkpt>
      <trkpt lat="45.86584" lon="1.27389">
        <ele>301.2</ele>
        <time>2024-11-05T16:23:58Z</time>
      </trkpt>
      <trkpt lat="45.86581" lon="1.27383">
        <ele>301</ele>
        <time>2024-11-05T16:23:59Z</time>
      </trkpt>
      <trkpt lat="45.86577" lon="1.27376">
        <ele>300.8</ele>
        <time>2024-11-05T16:24:00Z</time>
      </trkpt>
      <trkpt lat="45.86573" lon="1.2737">
        <ele>300.6</ele>
        <time>2024-11-05T16:24:01Z</time>
      </trkpt>
      <trkpt lat="45.86569" lon="1.27365">
        <ele>300.5</ele>
        <time>2024-11-05T16:24:02Z</time>
      </trkpt>
      <trkpt lat="45.86564" lon="1.27361">
        <ele>300.4</ele>
        <time>2024-11-05T16:24:03Z</time>
      </trkpt>
      <trkpt lat="45.86558" lon="1.27358">
        <ele>300.3</ele>
        <time>2024-11-05T16:24:04Z</time>
      </trkpt>
      <trkpt lat="45.86553" lon="1.27356">
        <ele>300.2</ele>
        <time>2024-11-05T16:24:05Z</time>
      </trkpt>
      <trkpt lat="45.86548" lon="1.27354">
        <ele>300.1</ele>
        <time>2024-11-05T16:24:06Z</time>
      </trkpt>
      <trkpt lat="45.86542" lon="1.27352">
        <ele>300.1</ele>
        <time>2024-11-05T16:24:07Z</time>
      </trkpt>
      <trkpt lat="45.86537" lon="1.27351">
        <ele>300.1</ele>
        <time>2024-11-05T16:24:08Z</time>
      </trkpt>
      <trkpt lat="45.86531" lon="1.2735">
        <ele>300.1</ele>
        <time>2024-11-05T16:24:09Z</time>
      </trkpt>
      <trkpt lat="45.86525" lon="1.27349">
        <ele>300.1</ele>
        <time>2024-11-05T16:24:10Z</time>
      </trkpt>
      <trkpt lat="45.8652" lon="1.27349">
        <ele>300.1</ele>
        <time>2024-11-05T16:24:11Z</time>
      </trkpt>
      <trkpt lat="45.86514" lon="1.27348">
        <ele>300.2</ele>
        <time>2024-11-05T16:24:12Z</time>
      </trkpt>
      <trkpt lat="45.86508" lon="1.27348">
        <ele>300.2</ele>
        <time>2024-11-05T16:24:13Z</time>
      </trkpt>
      <trkpt lat="45.86503" lon="1.27348">
        <ele>300.3</ele>
        <time>2024-11-05T16:24:14Z</time>
      </trkpt>
      <trkpt lat="45.86498" lon="1.27349">
        <ele>300.3</ele>
        <time>2024-11-05T16:24:15Z</time>
      </trkpt>
      <trkpt lat="45.86494" lon="1.2735">
        <ele>300.4</ele>
        <time>2024-11-05T16:24:16Z</time>
      </trkpt>
      <trkpt lat="45.86489" lon="1.27351">
        <ele>300.4</ele>
        <time>2024-11-05T16:24:17Z</time>
      </trkpt>
      <trkpt lat="45.86485" lon="1.27352">
        <ele>300.4</ele>
        <time>2024-11-05T16:24:18Z</time>
      </trkpt>
      <trkpt lat="45.86481" lon="1.27352">
        <ele>300.4</ele>
        <time>2024-11-05T16:24:19Z</time>
      </trkpt>
      <trkpt lat="45.86476" lon="1.27353">
        <ele>300.4</ele>
        <time>2024-11-05T16:24:20Z</time>
      </trkpt>
      <trkpt lat="45.86471" lon="1.27353">
        <ele>300.4</ele>
        <time>2024-11-05T16:24:21Z</time>
      </trkpt>
      <trkpt lat="45.86466" lon="1.27353">
        <ele>300.3</ele>
        <time>2024-11-05T16:24:22Z</time>
      </trkpt>
      <trkpt lat="45.86462" lon="1.27351">
        <ele>300.3</ele>
        <time>2024-11-05T16:24:23Z</time>
      </trkpt>
      <trkpt lat="45.86458" lon="1.27348">
        <ele>300.2</ele>
        <time>2024-11-05T16:24:24Z</time>
      </trkpt>
      <trkpt lat="45.86454" lon="1.27344">
        <ele>300.2</ele>
        <time>2024-11-05T16:24:25Z</time>
      </trkpt>
      <trkpt lat="45.86451" lon="1.27339">
        <ele>300.1</ele>
        <time>2024-11-05T16:24:26Z</time>
      </trkpt>
      <trkpt lat="45.86447" lon="1.27334">
        <ele>300.1</ele>
        <time>2024-11-05T16:24:27Z</time>
      </trkpt>
      <trkpt lat="45.86444" lon="1.27328">
        <ele>300.1</ele>
        <time>2024-11-05T16:24:28Z</time>
      </trkpt>
      <trkpt lat="45.86442" lon="1.27322">
        <ele>300</ele>
        <time>2024-11-05T16:24:29Z</time>
      </trkpt>
      <trkpt lat="45.86439" lon="1.27315">
        <ele>300</ele>
        <time>2024-11-05T16:24:30Z</time>
      </trkpt>
      <trkpt lat="45.86437" lon="1.27308">
        <ele>300</ele>
        <time>2024-11-05T16:24:31Z</time>
      </trkpt>
      <trkpt lat="45.86436" lon="1.27301">
        <ele>300</ele>
        <time>2024-11-05T16:24:32Z</time>
      </trkpt>
      <trkpt lat="45.86437" lon="1.27294">
        <ele>300.1</ele>
        <time>2024-11-05T16:24:33Z</time>
      </trkpt>
      <trkpt lat="45.86438" lon="1.27288">
        <ele>300.1</ele>
        <time>2024-11-05T16:24:34Z</time>
      </trkpt>
      <trkpt lat="45.8644" lon="1.27282">
        <ele>300.1</ele>
        <time>2024-11-05T16:24:35Z</time>
      </trkpt>
      <trkpt lat="45.86442" lon="1.27276">
        <ele>300.1</ele>
        <time>2024-11-05T16:24:36Z</time>
      </trkpt>
      <trkpt lat="45.86445" lon="1.27269">
        <ele>300.1</ele>
        <time>2024-11-05T16:24:37Z</time>
      </trkpt>
      <trkpt lat="45.86449" lon="1.27264">
        <ele>300.1</ele>
        <time>2024-11-05T16:24:38Z</time>
      </trkpt>
      <trkpt lat="45.86452" lon="1.27258">
        <ele>300.1</ele>
        <time>2024-11-05T16:24:39Z</time>
      </trkpt>
      <trkpt lat="45.86456" lon="1.27253">
        <ele>300</ele>
        <time>2024-11-05T16:24:40Z</time>
      </trkpt>
      <trkpt lat="45.86459" lon="1.27248">
        <ele>300</ele>
        <time>2024-11-05T16:24:41Z</time>
      </trkpt>
      <trkpt lat="45.86463" lon="1.27243">
        <ele>300</ele>
        <time>2024-11-05T16:24:42Z</time>
      </trkpt>
      <trkpt lat="45.86467" lon="1.27238">
        <ele>300</ele>
        <time>2024-11-05T16:24:43Z</time>
      </trkpt>
      <trkpt lat="45.86472" lon="1.27233">
        <ele>300.1</ele>
        <time>2024-11-05T16:24:44Z</time>
      </trkpt>
      <trkpt lat="45.86476" lon="1.27228">
        <ele>300.1</ele>
        <time>2024-11-05T16:24:45Z</time>
      </trkpt>
      <trkpt lat="45.8648" lon="1.27223">
        <ele>300.2</ele>
        <time>2024-11-05T16:24:46Z</time>
      </trkpt>
      <trkpt lat="45.86483" lon="1.27219">
        <ele>300.3</ele>
        <time>2024-11-05T16:24:47Z</time>
      </trkpt>
      <trkpt lat="45.86488" lon="1.27215">
        <ele>300.5</ele>
        <time>2024-11-05T16:24:48Z</time>
      </trkpt>
      <trkpt lat="45.86492" lon="1.27212">
        <ele>300.7</ele>
        <time>2024-11-05T16:24:49Z</time>
      </trkpt>
      <trkpt lat="45.86495" lon="1.27208">
        <ele>301</ele>
        <time>2024-11-05T16:24:50Z</time>
      </trkpt>
      <trkpt lat="45.865" lon="1.27204">
        <ele>301.3</ele>
        <time>2024-11-05T16:24:51Z</time>
      </trkpt>
      <trkpt lat="45.86503" lon="1.27199">
        <ele>301.6</ele>
        <time>2024-11-05T16:24:52Z</time>
      </trkpt>
      <trkpt lat="45.86506" lon="1.27195">
        <ele>301.8</ele>
        <time>2024-11-05T16:24:53Z</time>
      </trkpt>
      <trkpt lat="45.86508" lon="1.27192">
        <ele>302</ele>
        <time>2024-11-05T16:24:54Z</time>
      </trkpt>
      <trkpt lat="45.8651" lon="1.27189">
        <ele>302.1</ele>
        <time>2024-11-05T16:24:55Z</time>
      </trkpt>
      <trkpt lat="45.86513" lon="1.27186">
        <ele>302.2</ele>
        <time>2024-11-05T16:24:56Z</time>
      </trkpt>
      <trkpt lat="45.86515" lon="1.27184">
        <ele>302.3</ele>
        <time>2024-11-05T16:24:57Z</time>
      </trkpt>
      <trkpt lat="45.86518" lon="1.27181">
        <ele>302.4</ele>
        <time>2024-11-05T16:24:58Z</time>
      </trkpt>
      <trkpt lat="45.86521" lon="1.27178">
        <ele>302.4</ele>
        <time>2024-11-05T16:24:59Z</time>
      </trkpt>
      <trkpt lat="45.86524" lon="1.27175">
        <ele>302.4</ele>
        <time>2024-11-05T16:25:00Z</time>
      </trkpt>
      <trkpt lat="45.86527" lon="1.27172">
        <ele>302.3</ele>
        <time>2024-11-05T16:25:01Z</time>
      </trkpt>
      <trkpt lat="45.8653" lon="1.27168">
        <ele>302.3</ele>
        <time>2024-11-05T16:25:02Z</time>
      </trkpt>
      <trkpt lat="45.86533" lon="1.27164">
        <ele>302.2</ele>
        <time>2024-11-05T16:25:03Z</time>
      </trkpt>
      <trkpt lat="45.86536" lon="1.27161">
        <ele>302.2</ele>
        <time>2024-11-05T16:25:04Z</time>
      </trkpt>
      <trkpt lat="45.86539" lon="1.27157">
        <ele>302.1</ele>
        <time>2024-11-05T16:25:05Z</time>
      </trkpt>
      <trkpt lat="45.86543" lon="1.27154">
        <ele>302.1</ele>
        <time>2024-11-05T16:25:06Z</time>
      </trkpt>
      <trkpt lat="45.86547" lon="1.27151">
        <ele>302.1</ele>
        <time>2024-11-05T16:25:07Z</time>
      </trkpt>
      <trkpt lat="45.8655" lon="1.27148">
        <ele>302.2</ele>
        <time>2024-11-05T16:25:08Z</time>
      </trkpt>
      <trkpt lat="45.86554" lon="1.27145">
        <ele>302.4</ele>
        <time>2024-11-05T16:25:09Z</time>
      </trkpt>
      <trkpt lat="45.86557" lon="1.27141">
        <ele>302.9</ele>
        <time>2024-11-05T16:25:10Z</time>
      </trkpt>
      <trkpt lat="45.8656" lon="1.27138">
        <ele>303.5</ele>
        <time>2024-11-05T16:25:11Z</time>
      </trkpt>
      <trkpt lat="45.86563" lon="1.27134">
        <ele>304.1</ele>
        <time>2024-11-05T16:25:12Z</time>
      </trkpt>
      <trkpt lat="45.86566" lon="1.27131">
        <ele>304.7</ele>
        <time>2024-11-05T16:25:13Z</time>
      </trkpt>
      <trkpt lat="45.86569" lon="1.27128">
        <ele>305.3</ele>
        <time>2024-11-05T16:25:14Z</time>
      </trkpt>
      <trkpt lat="45.86571" lon="1.27124">
        <ele>305.9</ele>
        <time>2024-11-05T16:25:15Z</time>
      </trkpt>
      <trkpt lat="45.86574" lon="1.27121">
        <ele>306.5</ele>
        <time>2024-11-05T16:25:16Z</time>
      </trkpt>
      <trkpt lat="45.86576" lon="1.27118">
        <ele>307</ele>
        <time>2024-11-05T16:25:17Z</time>
      </trkpt>
      <trkpt lat="45.86578" lon="1.27115">
        <ele>307.5</ele>
        <time>2024-11-05T16:25:18Z</time>
      </trkpt>
      <trkpt lat="45.86581" lon="1.27109">
        <ele>308.2</ele>
        <time>2024-11-05T16:25:20Z</time>
      </trkpt>
      <trkpt lat="45.8658" lon="1.27105">
        <ele>308.3</ele>
        <time>2024-11-05T16:25:22Z</time>
      </trkpt>
      <trkpt lat="45.86577" lon="1.27105">
        <ele>308.3</ele>
        <time>2024-11-05T16:25:24Z</time>
      </trkpt>
      <trkpt lat="45.86574" lon="1.27107">
        <ele>308.4</ele>
        <time>2024-11-05T16:25:25Z</time>
      </trkpt>
      <trkpt lat="45.86571" lon="1.27109">
        <ele>308.4</ele>
        <time>2024-11-05T16:25:26Z</time>
      </trkpt>
      <trkpt lat="45.86568" lon="1.27112">
        <ele>308.5</ele>
        <time>2024-11-05T16:25:27Z</time>
      </trkpt>
      <trkpt lat="45.86565" lon="1.27114">
        <ele>308.5</ele>
        <time>2024-11-05T16:25:29Z</time>
      </trkpt>
      <trkpt lat="45.86562" lon="1.27113">
        <ele>308.6</ele>
        <time>2024-11-05T16:25:33Z</time>
      </trkpt>
      <trkpt lat="45.8656" lon="1.2711">
        <ele>308.6</ele>
        <time>2024-11-05T16:25:36Z</time>
      </trkpt>
      <trkpt lat="45.86559" lon="1.27105">
        <ele>308.6</ele>
        <time>2024-11-05T16:25:39Z</time>
      </trkpt>
      <trkpt lat="45.86558" lon="1.27099">
        <ele>308.6</ele>
        <time>2024-11-05T16:25:41Z</time>
      </trkpt>
      <trkpt lat="45.86557" lon="1.27094">
        <ele>308.6</ele>
        <time>2024-11-05T16:25:42Z</time>
      </trkpt>
      <trkpt lat="45.86556" lon="1.27091">
        <ele>308.5</ele>
        <time>2024-11-05T16:25:43Z</time>
      </trkpt>
      <trkpt lat="45.86555" lon="1.27086">
        <ele>308.3</ele>
        <time>2024-11-05T16:25:44Z</time>
      </trkpt>
      <trkpt lat="45.86553" lon="1.27082">
        <ele>308.1</ele>
        <time>2024-11-05T16:25:45Z</time>
      </trkpt>
      <trkpt lat="45.8655" lon="1.27077">
        <ele>307.7</ele>
        <time>2024-11-05T16:25:46Z</time>
      </trkpt>
      <trkpt lat="45.86546" lon="1.2707">
        <ele>307.1</ele>
        <time>2024-11-05T16:25:47Z</time>
      </trkpt>
      <trkpt lat="45.86542" lon="1.27064">
        <ele>306.5</ele>
        <time>2024-11-05T16:25:48Z</time>
      </trkpt>
      <trkpt lat="45.86537" lon="1.27058">
        <ele>305.8</ele>
        <time>2024-11-05T16:25:49Z</time>
      </trkpt>
      <trkpt lat="45.86533" lon="1.27054">
        <ele>305.2</ele>
        <time>2024-11-05T16:25:50Z</time>
      </trkpt>
      <trkpt lat="45.86528" lon="1.27049">
        <ele>304.6</ele>
        <time>2024-11-05T16:25:51Z</time>
      </trkpt>
      <trkpt lat="45.86524" lon="1.27041">
        <ele>303.9</ele>
        <time>2024-11-05T16:25:52Z</time>
      </trkpt>
      <trkpt lat="45.86519" lon="1.27034">
        <ele>303.4</ele>
        <time>2024-11-05T16:25:53Z</time>
      </trkpt>
      <trkpt lat="45.86514" lon="1.27027">
        <ele>302.9</ele>
        <time>2024-11-05T16:25:54Z</time>
      </trkpt>
      <trkpt lat="45.86508" lon="1.27018">
        <ele>302.5</ele>
        <time>2024-11-05T16:25:55Z</time>
      </trkpt>
      <trkpt lat="45.86502" lon="1.27009">
        <ele>302.1</ele>
        <time>2024-11-05T16:25:56Z</time>
      </trkpt>
      <trkpt lat="45.86497" lon="1.26999">
        <ele>301.9</ele>
        <time>2024-11-05T16:25:57Z</time>
      </trkpt>
      <trkpt lat="45.86492" lon="1.26989">
        <ele>301.8</ele>
        <time>2024-11-05T16:25:58Z</time>
      </trkpt>
      <trkpt lat="45.86488" lon="1.26979">
        <ele>301.7</ele>
        <time>2024-11-05T16:25:59Z</time>
      </trkpt>
      <trkpt lat="45.86484" lon="1.2697">
        <ele>301.6</ele>
        <time>2024-11-05T16:26:00Z</time>
      </trkpt>
      <trkpt lat="45.86482" lon="1.26961">
        <ele>301.4</ele>
        <time>2024-11-05T16:26:01Z</time>
      </trkpt>
      <trkpt lat="45.8648" lon="1.26954">
        <ele>301.3</ele>
        <time>2024-11-05T16:26:02Z</time>
      </trkpt>
      <trkpt lat="45.86479" lon="1.26949">
        <ele>301.1</ele>
        <time>2024-11-05T16:26:03Z</time>
      </trkpt>
      <trkpt lat="45.86478" lon="1.26944">
        <ele>301</ele>
        <time>2024-11-05T16:26:04Z</time>
      </trkpt>
      <trkpt lat="45.86475" lon="1.26939">
        <ele>300.7</ele>
        <time>2024-11-05T16:26:06Z</time>
      </trkpt>
      <trkpt lat="45.86472" lon="1.26935">
        <ele>300.4</ele>
        <time>2024-11-05T16:26:07Z</time>
      </trkpt>
      <trkpt lat="45.86469" lon="1.26932">
        <ele>300.1</ele>
        <time>2024-11-05T16:26:08Z</time>
      </trkpt>
      <trkpt lat="45.86464" lon="1.26931">
        <ele>299.7</ele>
        <time>2024-11-05T16:26:09Z</time>
      </trkpt>
      <trkpt lat="45.86459" lon="1.2693">
        <ele>299.3</ele>
        <time>2024-11-05T16:26:10Z</time>
      </trkpt>
      <trkpt lat="45.86453" lon="1.2693">
        <ele>298.8</ele>
        <time>2024-11-05T16:26:11Z</time>
      </trkpt>
      <trkpt lat="45.86446" lon="1.26932">
        <ele>298.3</ele>
        <time>2024-11-05T16:26:12Z</time>
      </trkpt>
      <trkpt lat="45.8644" lon="1.26934">
        <ele>298.1</ele>
        <time>2024-11-05T16:26:13Z</time>
      </trkpt>
      <trkpt lat="45.86433" lon="1.26937">
        <ele>297.8</ele>
        <time>2024-11-05T16:26:14Z</time>
      </trkpt>
      <trkpt lat="45.86428" lon="1.26939">
        <ele>297.7</ele>
        <time>2024-11-05T16:26:15Z</time>
      </trkpt>
      <trkpt lat="45.86423" lon="1.2694">
        <ele>297.6</ele>
        <time>2024-11-05T16:26:16Z</time>
      </trkpt>
      <trkpt lat="45.86419" lon="1.26938">
        <ele>297.4</ele>
        <time>2024-11-05T16:26:18Z</time>
      </trkpt>
      <trkpt lat="45.86417" lon="1.26934">
        <ele>297.2</ele>
        <time>2024-11-05T16:26:19Z</time>
      </trkpt>
      <trkpt lat="45.86415" lon="1.26928">
        <ele>296.9</ele>
        <time>2024-11-05T16:26:20Z</time>
      </trkpt>
      <trkpt lat="45.86412" lon="1.26922">
        <ele>296.6</ele>
        <time>2024-11-05T16:26:21Z</time>
      </trkpt>
      <trkpt lat="45.86408" lon="1.26919">
        <ele>296.5</ele>
        <time>2024-11-05T16:26:22Z</time>
      </trkpt>
      <trkpt lat="45.86403" lon="1.26918">
        <ele>296.2</ele>
        <time>2024-11-05T16:26:23Z</time>
      </trkpt>
      <trkpt lat="45.86399" lon="1.26918">
        <ele>295.9</ele>
        <time>2024-11-05T16:26:24Z</time>
      </trkpt>
      <trkpt lat="45.86394" lon="1.26918">
        <ele>295.7</ele>
        <time>2024-11-05T16:26:25Z</time>
      </trkpt>
      <trkpt lat="45.86388" lon="1.26916">
        <ele>295.4</ele>
        <time>2024-11-05T16:26:26Z</time>
      </trkpt>
      <trkpt lat="45.86384" lon="1.26913">
        <ele>295.2</ele>
        <time>2024-11-05T16:26:27Z</time>
      </trkpt>
      <trkpt lat="45.86379" lon="1.26907">
        <ele>295</ele>
        <time>2024-11-05T16:26:28Z</time>
      </trkpt>
      <trkpt lat="45.86376" lon="1.269">
        <ele>294.8</ele>
        <time>2024-11-05T16:26:29Z</time>
      </trkpt>
      <trkpt lat="45.86373" lon="1.26893">
        <ele>294.7</ele>
        <time>2024-11-05T16:26:30Z</time>
      </trkpt>
      <trkpt lat="45.8637" lon="1.26885">
        <ele>294.7</ele>
        <time>2024-11-05T16:26:31Z</time>
      </trkpt>
      <trkpt lat="45.86367" lon="1.26877">
        <ele>294.6</ele>
        <time>2024-11-05T16:26:32Z</time>
      </trkpt>
      <trkpt lat="45.86363" lon="1.26869">
        <ele>294.6</ele>
        <time>2024-11-05T16:26:33Z</time>
      </trkpt>
      <trkpt lat="45.8636" lon="1.26861">
        <ele>294.6</ele>
        <time>2024-11-05T16:26:34Z</time>
      </trkpt>
      <trkpt lat="45.86357" lon="1.26854">
        <ele>294.6</ele>
        <time>2024-11-05T16:26:35Z</time>
      </trkpt>
      <trkpt lat="45.86355" lon="1.26848">
        <ele>294.6</ele>
        <time>2024-11-05T16:26:36Z</time>
      </trkpt>
      <trkpt lat="45.86352" lon="1.2684">
        <ele>294.6</ele>
        <time>2024-11-05T16:26:37Z</time>
      </trkpt>
      <trkpt lat="45.86351" lon="1.26833">
        <ele>294.6</ele>
        <time>2024-11-05T16:26:38Z</time>
      </trkpt>
      <trkpt lat="45.86349" lon="1.26826">
        <ele>294.6</ele>
        <time>2024-11-05T16:26:39Z</time>
      </trkpt>
      <trkpt lat="45.86348" lon="1.26819">
        <ele>294.5</ele>
        <time>2024-11-05T16:26:40Z</time>
      </trkpt>
      <trkpt lat="45.86346" lon="1.26813">
        <ele>294.5</ele>
        <time>2024-11-05T16:26:41Z</time>
      </trkpt>
      <trkpt lat="45.86344" lon="1.26807">
        <ele>294.4</ele>
        <time>2024-11-05T16:26:42Z</time>
      </trkpt>
      <trkpt lat="45.86342" lon="1.26802">
        <ele>294.3</ele>
        <time>2024-11-05T16:26:43Z</time>
      </trkpt>
      <trkpt lat="45.8634" lon="1.26796">
        <ele>294.3</ele>
        <time>2024-11-05T16:26:44Z</time>
      </trkpt>
      <trkpt lat="45.86338" lon="1.26793">
        <ele>294.3</ele>
        <time>2024-11-05T16:26:45Z</time>
      </trkpt>
      <trkpt lat="45.86335" lon="1.26792">
        <ele>294.3</ele>
        <time>2024-11-05T16:26:47Z</time>
      </trkpt>
      <trkpt lat="45.86332" lon="1.26794">
        <ele>294.4</ele>
        <time>2024-11-05T16:26:49Z</time>
      </trkpt>
      <trkpt lat="45.86329" lon="1.26797">
        <ele>294.6</ele>
        <time>2024-11-05T16:26:50Z</time>
      </trkpt>
      <trkpt lat="45.86326" lon="1.268">
        <ele>294.7</ele>
        <time>2024-11-05T16:26:51Z</time>
      </trkpt>
      <trkpt lat="45.86322" lon="1.26804">
        <ele>294.8</ele>
        <time>2024-11-05T16:26:52Z</time>
      </trkpt>
      <trkpt lat="45.86318" lon="1.26808">
        <ele>294.9</ele>
        <time>2024-11-05T16:26:53Z</time>
      </trkpt>
      <trkpt lat="45.86315" lon="1.26812">
        <ele>295</ele>
        <time>2024-11-05T16:26:54Z</time>
      </trkpt>
      <trkpt lat="45.86313" lon="1.26816">
        <ele>295.1</ele>
        <time>2024-11-05T16:26:55Z</time>
      </trkpt>
      <trkpt lat="45.86311" lon="1.26821">
        <ele>295.2</ele>
        <time>2024-11-05T16:26:56Z</time>
      </trkpt>
      <trkpt lat="45.8631" lon="1.26826">
        <ele>295.3</ele>
        <time>2024-11-05T16:26:57Z</time>
      </trkpt>
      <trkpt lat="45.86309" lon="1.26831">
        <ele>295.4</ele>
        <time>2024-11-05T16:26:58Z</time>
      </trkpt>
      <trkpt lat="45.86307" lon="1.26833">
        <ele>295.5</ele>
        <time>2024-11-05T16:26:59Z</time>
      </trkpt>
      <trkpt lat="45.86304" lon="1.26834">
        <ele>295.7</ele>
        <time>2024-11-05T16:27:00Z</time>
      </trkpt>
      <trkpt lat="45.863" lon="1.26833">
        <ele>295.8</ele>
        <time>2024-11-05T16:27:01Z</time>
      </trkpt>
      <trkpt lat="45.86297" lon="1.26832">
        <ele>295.7</ele>
        <time>2024-11-05T16:27:02Z</time>
      </trkpt>
      <trkpt lat="45.86293" lon="1.2683">
        <ele>295.6</ele>
        <time>2024-11-05T16:27:03Z</time>
      </trkpt>
      <trkpt lat="45.86289" lon="1.26829">
        <ele>295.5</ele>
        <time>2024-11-05T16:27:04Z</time>
      </trkpt>
      <trkpt lat="45.86283" lon="1.26828">
        <ele>295.3</ele>
        <time>2024-11-05T16:27:05Z</time>
      </trkpt>
      <trkpt lat="45.86277" lon="1.26828">
        <ele>295</ele>
        <time>2024-11-05T16:27:06Z</time>
      </trkpt>
      <trkpt lat="45.86272" lon="1.26831">
        <ele>294.8</ele>
        <time>2024-11-05T16:27:07Z</time>
      </trkpt>
      <trkpt lat="45.86266" lon="1.26833">
        <ele>294.8</ele>
        <time>2024-11-05T16:27:08Z</time>
      </trkpt>
      <trkpt lat="45.86262" lon="1.26837">
        <ele>294.7</ele>
        <time>2024-11-05T16:27:09Z</time>
      </trkpt>
      <trkpt lat="45.86257" lon="1.2684">
        <ele>294.6</ele>
        <time>2024-11-05T16:27:10Z</time>
      </trkpt>
      <trkpt lat="45.86252" lon="1.26843">
        <ele>294.5</ele>
        <time>2024-11-05T16:27:11Z</time>
      </trkpt>
      <trkpt lat="45.86247" lon="1.26846">
        <ele>294.4</ele>
        <time>2024-11-05T16:27:12Z</time>
      </trkpt>
      <trkpt lat="45.86241" lon="1.2685">
        <ele>294.3</ele>
        <time>2024-11-05T16:27:13Z</time>
      </trkpt>
      <trkpt lat="45.86236" lon="1.26853">
        <ele>294.2</ele>
        <time>2024-11-05T16:27:14Z</time>
      </trkpt>
      <trkpt lat="45.8623" lon="1.26856">
        <ele>294</ele>
        <time>2024-11-05T16:27:15Z</time>
      </trkpt>
      <trkpt lat="45.86225" lon="1.26858">
        <ele>293.9</ele>
        <time>2024-11-05T16:27:16Z</time>
      </trkpt>
      <trkpt lat="45.86218" lon="1.2686">
        <ele>293.7</ele>
        <time>2024-11-05T16:27:17Z</time>
      </trkpt>
      <trkpt lat="45.86212" lon="1.2686">
        <ele>293.6</ele>
        <time>2024-11-05T16:27:18Z</time>
      </trkpt>
      <trkpt lat="45.86206" lon="1.26863">
        <ele>293.5</ele>
        <time>2024-11-05T16:27:19Z</time>
      </trkpt>
      <trkpt lat="45.862" lon="1.26865">
        <ele>293.4</ele>
        <time>2024-11-05T16:27:20Z</time>
      </trkpt>
      <trkpt lat="45.86194" lon="1.26867">
        <ele>293.3</ele>
        <time>2024-11-05T16:27:21Z</time>
      </trkpt>
      <trkpt lat="45.86188" lon="1.26868">
        <ele>293.3</ele>
        <time>2024-11-05T16:27:22Z</time>
      </trkpt>
      <trkpt lat="45.86183" lon="1.26868">
        <ele>293.3</ele>
        <time>2024-11-05T16:27:23Z</time>
      </trkpt>
      <trkpt lat="45.86177" lon="1.26869">
        <ele>293.2</ele>
        <time>2024-11-05T16:27:24Z</time>
      </trkpt>
      <trkpt lat="45.86171" lon="1.26869">
        <ele>293.2</ele>
        <time>2024-11-05T16:27:25Z</time>
      </trkpt>
      <trkpt lat="45.86163" lon="1.26868">
        <ele>293.1</ele>
        <time>2024-11-05T16:27:26Z</time>
      </trkpt>
      <trkpt lat="45.86157" lon="1.26867">
        <ele>293</ele>
        <time>2024-11-05T16:27:27Z</time>
      </trkpt>
      <trkpt lat="45.86151" lon="1.26867">
        <ele>292.9</ele>
        <time>2024-11-05T16:27:28Z</time>
      </trkpt>
      <trkpt lat="45.86144" lon="1.26865">
        <ele>292.7</ele>
        <time>2024-11-05T16:27:29Z</time>
      </trkpt>
      <trkpt lat="45.8614" lon="1.26865">
        <ele>292.6</ele>
        <time>2024-11-05T16:27:30Z</time>
      </trkpt>
      <trkpt lat="45.86135" lon="1.26865">
        <ele>292.6</ele>
        <time>2024-11-05T16:27:31Z</time>
      </trkpt>
      <trkpt lat="45.86129" lon="1.26865">
        <ele>292.5</ele>
        <time>2024-11-05T16:27:32Z</time>
      </trkpt>
      <trkpt lat="45.86124" lon="1.26864">
        <ele>292.4</ele>
        <time>2024-11-05T16:27:33Z</time>
      </trkpt>
      <trkpt lat="45.86118" lon="1.26862">
        <ele>292.4</ele>
        <time>2024-11-05T16:27:34Z</time>
      </trkpt>
      <trkpt lat="45.86112" lon="1.26862">
        <ele>292.4</ele>
        <time>2024-11-05T16:27:35Z</time>
      </trkpt>
      <trkpt lat="45.86105" lon="1.26862">
        <ele>292.4</ele>
        <time>2024-11-05T16:27:36Z</time>
      </trkpt>
      <trkpt lat="45.86098" lon="1.26862">
        <ele>292.4</ele>
        <time>2024-11-05T16:27:37Z</time>
      </trkpt>
      <trkpt lat="45.86093" lon="1.26863">
        <ele>292.5</ele>
        <time>2024-11-05T16:27:38Z</time>
      </trkpt>
      <trkpt lat="45.86087" lon="1.26864">
        <ele>292.5</ele>
        <time>2024-11-05T16:27:39Z</time>
      </trkpt>
      <trkpt lat="45.86082" lon="1.26865">
        <ele>292.6</ele>
        <time>2024-11-05T16:27:40Z</time>
      </trkpt>
      <trkpt lat="45.86077" lon="1.26866">
        <ele>292.6</ele>
        <time>2024-11-05T16:27:41Z</time>
      </trkpt>
      <trkpt lat="45.86072" lon="1.26867">
        <ele>292.6</ele>
        <time>2024-11-05T16:27:42Z</time>
      </trkpt>
      <trkpt lat="45.86067" lon="1.26867">
        <ele>292.7</ele>
        <time>2024-11-05T16:27:43Z</time>
      </trkpt>
      <trkpt lat="45.86062" lon="1.26866">
        <ele>292.7</ele>
        <time>2024-11-05T16:27:44Z</time>
      </trkpt>
      <trkpt lat="45.86057" lon="1.26864">
        <ele>292.7</ele>
        <time>2024-11-05T16:27:45Z</time>
      </trkpt>
      <trkpt lat="45.86052" lon="1.26861">
        <ele>292.7</ele>
        <time>2024-11-05T16:27:46Z</time>
      </trkpt>
      <trkpt lat="45.86048" lon="1.26859">
        <ele>292.7</ele>
        <time>2024-11-05T16:27:47Z</time>
      </trkpt>
      <trkpt lat="45.86043" lon="1.26857">
        <ele>292.7</ele>
        <time>2024-11-05T16:27:48Z</time>
      </trkpt>
      <trkpt lat="45.86039" lon="1.26856">
        <ele>292.7</ele>
        <time>2024-11-05T16:27:49Z</time>
      </trkpt>
      <trkpt lat="45.86036" lon="1.26856">
        <ele>292.7</ele>
        <time>2024-11-05T16:27:50Z</time>
      </trkpt>
      <trkpt lat="45.86033" lon="1.26856">
        <ele>292.7</ele>
        <time>2024-11-05T16:27:51Z</time>
      </trkpt>
      <trkpt lat="45.86029" lon="1.26855">
        <ele>292.7</ele>
        <time>2024-11-05T16:27:52Z</time>
      </trkpt>
      <trkpt lat="45.86027" lon="1.26852">
        <ele>292.6</ele>
        <time>2024-11-05T16:27:53Z</time>
      </trkpt>
      <trkpt lat="45.86026" lon="1.26847">
        <ele>292.6</ele>
        <time>2024-11-05T16:27:55Z</time>
      </trkpt>
      <trkpt lat="45.86026" lon="1.26842">
        <ele>292.4</ele>
        <time>2024-11-05T16:27:57Z</time>
      </trkpt>
      <trkpt lat="45.86025" lon="1.26838">
        <ele>292.3</ele>
        <time>2024-11-05T16:28:00Z</time>
      </trkpt>
      <trkpt lat="45.86009" lon="1.26806">
        <ele>292.3</ele>
        <time>2024-11-05T16:28:10Z</time>
      </trkpt>
      <trkpt lat="45.86002" lon="1.26794">
        <ele>292.5</ele>
        <time>2024-11-05T16:28:11Z</time>
      </trkpt>
      <trkpt lat="45.85997" lon="1.26788">
        <ele>292.8</ele>
        <time>2024-11-05T16:28:12Z</time>
      </trkpt>
      <trkpt lat="45.85992" lon="1.26783">
        <ele>293.3</ele>
        <time>2024-11-05T16:28:14Z</time>
      </trkpt>
      <trkpt lat="45.85988" lon="1.2678">
        <ele>293.8</ele>
        <time>2024-11-05T16:28:15Z</time>
      </trkpt>
      <trkpt lat="45.85985" lon="1.26778">
        <ele>294.1</ele>
        <time>2024-11-05T16:28:16Z</time>
      </trkpt>
      <trkpt lat="45.85982" lon="1.26775">
        <ele>294.5</ele>
        <time>2024-11-05T16:28:17Z</time>
      </trkpt>
      <trkpt lat="45.8598" lon="1.26773">
        <ele>294.6</ele>
        <time>2024-11-05T16:28:18Z</time>
      </trkpt>
      <trkpt lat="45.85978" lon="1.26769">
        <ele>294.8</ele>
        <time>2024-11-05T16:28:20Z</time>
      </trkpt>
      <trkpt lat="45.85977" lon="1.26762">
        <ele>295</ele>
        <time>2024-11-05T16:28:22Z</time>
      </trkpt>
      <trkpt lat="45.85976" lon="1.26756">
        <ele>295.2</ele>
        <time>2024-11-05T16:28:23Z</time>
      </trkpt>
      <trkpt lat="45.85976" lon="1.2675">
        <ele>295.5</ele>
        <time>2024-11-05T16:28:24Z</time>
      </trkpt>
      <trkpt lat="45.85976" lon="1.26743">
        <ele>295.4</ele>
        <time>2024-11-05T16:28:25Z</time>
      </trkpt>
      <trkpt lat="45.85976" lon="1.26735">
        <ele>295.3</ele>
        <time>2024-11-05T16:28:26Z</time>
      </trkpt>
      <trkpt lat="45.85976" lon="1.26726">
        <ele>295</ele>
        <time>2024-11-05T16:28:27Z</time>
      </trkpt>
      <trkpt lat="45.85976" lon="1.26719">
        <ele>294.8</ele>
        <time>2024-11-05T16:28:28Z</time>
      </trkpt>
      <trkpt lat="45.85976" lon="1.26712">
        <ele>294.6</ele>
        <time>2024-11-05T16:28:29Z</time>
      </trkpt>
      <trkpt lat="45.85979" lon="1.26703">
        <ele>294.3</ele>
        <time>2024-11-05T16:28:30Z</time>
      </trkpt>
      <trkpt lat="45.85982" lon="1.26696">
        <ele>294</ele>
        <time>2024-11-05T16:28:31Z</time>
      </trkpt>
      <trkpt lat="45.85985" lon="1.26689">
        <ele>293.8</ele>
        <time>2024-11-05T16:28:32Z</time>
      </trkpt>
      <trkpt lat="45.85987" lon="1.26684">
        <ele>293.6</ele>
        <time>2024-11-05T16:28:33Z</time>
      </trkpt>
      <trkpt lat="45.85992" lon="1.26677">
        <ele>293.4</ele>
        <time>2024-11-05T16:28:34Z</time>
      </trkpt>
      <trkpt lat="45.85996" lon="1.26669">
        <ele>293.2</ele>
        <time>2024-11-05T16:28:35Z</time>
      </trkpt>
      <trkpt lat="45.85999" lon="1.26661">
        <ele>293.2</ele>
        <time>2024-11-05T16:28:36Z</time>
      </trkpt>
      <trkpt lat="45.86001" lon="1.26654">
        <ele>293.3</ele>
        <time>2024-11-05T16:28:37Z</time>
      </trkpt>
      <trkpt lat="45.86003" lon="1.26649">
        <ele>293.3</ele>
        <time>2024-11-05T16:28:38Z</time>
      </trkpt>
      <trkpt lat="45.86004" lon="1.26644">
        <ele>293.5</ele>
        <time>2024-11-05T16:28:39Z</time>
      </trkpt>
      <trkpt lat="45.86007" lon="1.26638">
        <ele>293.6</ele>
        <time>2024-11-05T16:28:40Z</time>
      </trkpt>
      <trkpt lat="45.8601" lon="1.26632">
        <ele>293.5</ele>
        <time>2024-11-05T16:28:41Z</time>
      </trkpt>
      <trkpt lat="45.86012" lon="1.26625">
        <ele>293.4</ele>
        <time>2024-11-05T16:28:42Z</time>
      </trkpt>
      <trkpt lat="45.86014" lon="1.26619">
        <ele>293.3</ele>
        <time>2024-11-05T16:28:43Z</time>
      </trkpt>
      <trkpt lat="45.86017" lon="1.2661">
        <ele>293.1</ele>
        <time>2024-11-05T16:28:44Z</time>
      </trkpt>
      <trkpt lat="45.8602" lon="1.26602">
        <ele>293</ele>
        <time>2024-11-05T16:28:45Z</time>
      </trkpt>
      <trkpt lat="45.86023" lon="1.26594">
        <ele>293</ele>
        <time>2024-11-05T16:28:46Z</time>
      </trkpt>
      <trkpt lat="45.86025" lon="1.26587">
        <ele>293</ele>
        <time>2024-11-05T16:28:47Z</time>
      </trkpt>
      <trkpt lat="45.86027" lon="1.2658">
        <ele>293</ele>
        <time>2024-11-05T16:28:48Z</time>
      </trkpt>
      <trkpt lat="45.86029" lon="1.26575">
        <ele>293</ele>
        <time>2024-11-05T16:28:49Z</time>
      </trkpt>
      <trkpt lat="45.86032" lon="1.26569">
        <ele>293</ele>
        <time>2024-11-05T16:28:50Z</time>
      </trkpt>
      <trkpt lat="45.86034" lon="1.26563">
        <ele>293.1</ele>
        <time>2024-11-05T16:28:51Z</time>
      </trkpt>
      <trkpt lat="45.86035" lon="1.26558">
        <ele>293.1</ele>
        <time>2024-11-05T16:28:52Z</time>
      </trkpt>
      <trkpt lat="45.86037" lon="1.26553">
        <ele>293.2</ele>
        <time>2024-11-05T16:28:53Z</time>
      </trkpt>
      <trkpt lat="45.86039" lon="1.26546">
        <ele>293.3</ele>
        <time>2024-11-05T16:28:54Z</time>
      </trkpt>
      <trkpt lat="45.8604" lon="1.2654">
        <ele>293.4</ele>
        <time>2024-11-05T16:28:55Z</time>
      </trkpt>
      <trkpt lat="45.8604" lon="1.26534">
        <ele>293.5</ele>
        <time>2024-11-05T16:28:56Z</time>
      </trkpt>
      <trkpt lat="45.86039" lon="1.26528">
        <ele>293.7</ele>
        <time>2024-11-05T16:28:57Z</time>
      </trkpt>
      <trkpt lat="45.86037" lon="1.26522">
        <ele>293.9</ele>
        <time>2024-11-05T16:28:58Z</time>
      </trkpt>
      <trkpt lat="45.86037" lon="1.26517">
        <ele>294</ele>
        <time>2024-11-05T16:28:59Z</time>
      </trkpt>
      <trkpt lat="45.86036" lon="1.26512">
        <ele>294</ele>
        <time>2024-11-05T16:29:00Z</time>
      </trkpt>
      <trkpt lat="45.86035" lon="1.26508">
        <ele>294.1</ele>
        <time>2024-11-05T16:29:01Z</time>
      </trkpt>
      <trkpt lat="45.86034" lon="1.26503">
        <ele>294</ele>
        <time>2024-11-05T16:29:03Z</time>
      </trkpt>
      <trkpt lat="45.86034" lon="1.26498">
        <ele>294</ele>
        <time>2024-11-05T16:29:05Z</time>
      </trkpt>
      <trkpt lat="45.86034" lon="1.26492">
        <ele>293.9</ele>
        <time>2024-11-05T16:29:06Z</time>
      </trkpt>
      <trkpt lat="45.86034" lon="1.26487">
        <ele>293.9</ele>
        <time>2024-11-05T16:29:07Z</time>
      </trkpt>
      <trkpt lat="45.86034" lon="1.26481">
        <ele>293.9</ele>
        <time>2024-11-05T16:29:08Z</time>
      </trkpt>
      <trkpt lat="45.86035" lon="1.26475">
        <ele>294</ele>
        <time>2024-11-05T16:29:09Z</time>
      </trkpt>
      <trkpt lat="45.86036" lon="1.26468">
        <ele>294</ele>
        <time>2024-11-05T16:29:10Z</time>
      </trkpt>
      <trkpt lat="45.86038" lon="1.26462">
        <ele>294.1</ele>
        <time>2024-11-05T16:29:11Z</time>
      </trkpt>
      <trkpt lat="45.86043" lon="1.26457">
        <ele>294.1</ele>
        <time>2024-11-05T16:29:12Z</time>
      </trkpt>
      <trkpt lat="45.86047" lon="1.26454">
        <ele>293.3</ele>
        <time>2024-11-05T16:29:13Z</time>
      </trkpt>
      <trkpt lat="45.86054" lon="1.26452">
        <ele>292.3</ele>
        <time>2024-11-05T16:29:14Z</time>
      </trkpt>
      <trkpt lat="45.86061" lon="1.26449">
        <ele>291.3</ele>
        <time>2024-11-05T16:29:15Z</time>
      </trkpt>
      <trkpt lat="45.86068" lon="1.26441">
        <ele>290.3</ele>
        <time>2024-11-05T16:29:16Z</time>
      </trkpt>
      <trkpt lat="45.86073" lon="1.2643">
        <ele>289.5</ele>
        <time>2024-11-05T16:29:17Z</time>
      </trkpt>
      <trkpt lat="45.86076" lon="1.26418">
        <ele>289</ele>
        <time>2024-11-05T16:29:18Z</time>
      </trkpt>
      <trkpt lat="45.86078" lon="1.26405">
        <ele>288.8</ele>
        <time>2024-11-05T16:29:19Z</time>
      </trkpt>
      <trkpt lat="45.86079" lon="1.26393">
        <ele>288.7</ele>
        <time>2024-11-05T16:29:20Z</time>
      </trkpt>
      <trkpt lat="45.8608" lon="1.26382">
        <ele>288.7</ele>
        <time>2024-11-05T16:29:21Z</time>
      </trkpt>
      <trkpt lat="45.8608" lon="1.2637">
        <ele>288.7</ele>
        <time>2024-11-05T16:29:22Z</time>
      </trkpt>
      <trkpt lat="45.86079" lon="1.26359">
        <ele>288.7</ele>
        <time>2024-11-05T16:29:23Z</time>
      </trkpt>
      <trkpt lat="45.86079" lon="1.26348">
        <ele>288.8</ele>
        <time>2024-11-05T16:29:24Z</time>
      </trkpt>
      <trkpt lat="45.86078" lon="1.26338">
        <ele>288.9</ele>
        <time>2024-11-05T16:29:25Z</time>
      </trkpt>
      <trkpt lat="45.86078" lon="1.26329">
        <ele>289</ele>
        <time>2024-11-05T16:29:26Z</time>
      </trkpt>
      <trkpt lat="45.86078" lon="1.2632">
        <ele>289.1</ele>
        <time>2024-11-05T16:29:27Z</time>
      </trkpt>
      <trkpt lat="45.86077" lon="1.26311">
        <ele>289.2</ele>
        <time>2024-11-05T16:29:28Z</time>
      </trkpt>
      <trkpt lat="45.86076" lon="1.26301">
        <ele>289.3</ele>
        <time>2024-11-05T16:29:29Z</time>
      </trkpt>
      <trkpt lat="45.86075" lon="1.26293">
        <ele>289.4</ele>
        <time>2024-11-05T16:29:30Z</time>
      </trkpt>
      <trkpt lat="45.86074" lon="1.26284">
        <ele>289.4</ele>
        <time>2024-11-05T16:29:31Z</time>
      </trkpt>
      <trkpt lat="45.86072" lon="1.26276">
        <ele>289.5</ele>
        <time>2024-11-05T16:29:32Z</time>
      </trkpt>
      <trkpt lat="45.86069" lon="1.26267">
        <ele>289.5</ele>
        <time>2024-11-05T16:29:33Z</time>
      </trkpt>
      <trkpt lat="45.86066" lon="1.2626">
        <ele>289.5</ele>
        <time>2024-11-05T16:29:34Z</time>
      </trkpt>
      <trkpt lat="45.86063" lon="1.26253">
        <ele>289.5</ele>
        <time>2024-11-05T16:29:35Z</time>
      </trkpt>
      <trkpt lat="45.8606" lon="1.26246">
        <ele>289.5</ele>
        <time>2024-11-05T16:29:36Z</time>
      </trkpt>
      <trkpt lat="45.86056" lon="1.26239">
        <ele>289.5</ele>
        <time>2024-11-05T16:29:37Z</time>
      </trkpt>
      <trkpt lat="45.86052" lon="1.26232">
        <ele>289.5</ele>
        <time>2024-11-05T16:29:38Z</time>
      </trkpt>
      <trkpt lat="45.8605" lon="1.26226">
        <ele>289.5</ele>
        <time>2024-11-05T16:29:39Z</time>
      </trkpt>
      <trkpt lat="45.86045" lon="1.26219">
        <ele>289.5</ele>
        <time>2024-11-05T16:29:40Z</time>
      </trkpt>
      <trkpt lat="45.86041" lon="1.26212">
        <ele>289.5</ele>
        <time>2024-11-05T16:29:41Z</time>
      </trkpt>
      <trkpt lat="45.86037" lon="1.26205">
        <ele>289.5</ele>
        <time>2024-11-05T16:29:42Z</time>
      </trkpt>
      <trkpt lat="45.86032" lon="1.26199">
        <ele>289.5</ele>
        <time>2024-11-05T16:29:43Z</time>
      </trkpt>
      <trkpt lat="45.86028" lon="1.26192">
        <ele>289.4</ele>
        <time>2024-11-05T16:29:44Z</time>
      </trkpt>
      <trkpt lat="45.86024" lon="1.26186">
        <ele>289.4</ele>
        <time>2024-11-05T16:29:45Z</time>
      </trkpt>
      <trkpt lat="45.86019" lon="1.2618">
        <ele>289.4</ele>
        <time>2024-11-05T16:29:46Z</time>
      </trkpt>
      <trkpt lat="45.86015" lon="1.26173">
        <ele>289.4</ele>
        <time>2024-11-05T16:29:47Z</time>
      </trkpt>
      <trkpt lat="45.8601" lon="1.26166">
        <ele>289.4</ele>
        <time>2024-11-05T16:29:48Z</time>
      </trkpt>
      <trkpt lat="45.86004" lon="1.2616">
        <ele>289.4</ele>
        <time>2024-11-05T16:29:49Z</time>
      </trkpt>
      <trkpt lat="45.85999" lon="1.26154">
        <ele>289.4</ele>
        <time>2024-11-05T16:29:50Z</time>
      </trkpt>
      <trkpt lat="45.85994" lon="1.26148">
        <ele>289.4</ele>
        <time>2024-11-05T16:29:51Z</time>
      </trkpt>
      <trkpt lat="45.85987" lon="1.26141">
        <ele>289.4</ele>
        <time>2024-11-05T16:29:52Z</time>
      </trkpt>
      <trkpt lat="45.8598" lon="1.26135">
        <ele>289.3</ele>
        <time>2024-11-05T16:29:53Z</time>
      </trkpt>
      <trkpt lat="45.85975" lon="1.2613">
        <ele>289.3</ele>
        <time>2024-11-05T16:29:54Z</time>
      </trkpt>
      <trkpt lat="45.85971" lon="1.26127">
        <ele>289.3</ele>
        <time>2024-11-05T16:29:55Z</time>
      </trkpt>
      <trkpt lat="45.85966" lon="1.26122">
        <ele>289.3</ele>
        <time>2024-11-05T16:29:56Z</time>
      </trkpt>
      <trkpt lat="45.85961" lon="1.26117">
        <ele>289.2</ele>
        <time>2024-11-05T16:29:57Z</time>
      </trkpt>
      <trkpt lat="45.85958" lon="1.26113">
        <ele>289.2</ele>
        <time>2024-11-05T16:29:58Z</time>
      </trkpt>
      <trkpt lat="45.85954" lon="1.26108">
        <ele>289.2</ele>
        <time>2024-11-05T16:29:59Z</time>
      </trkpt>
      <trkpt lat="45.85949" lon="1.26103">
        <ele>289.1</ele>
        <time>2024-11-05T16:30:00Z</time>
      </trkpt>
      <trkpt lat="45.85945" lon="1.26095">
        <ele>289</ele>
        <time>2024-11-05T16:30:01Z</time>
      </trkpt>
      <trkpt lat="45.85941" lon="1.26088">
        <ele>289</ele>
        <time>2024-11-05T16:30:02Z</time>
      </trkpt>
      <trkpt lat="45.85937" lon="1.26082">
        <ele>289</ele>
        <time>2024-11-05T16:30:03Z</time>
      </trkpt>
      <trkpt lat="45.85934" lon="1.26075">
        <ele>289</ele>
        <time>2024-11-05T16:30:04Z</time>
      </trkpt>
      <trkpt lat="45.8593" lon="1.26069">
        <ele>289</ele>
        <time>2024-11-05T16:30:05Z</time>
      </trkpt>
      <trkpt lat="45.85927" lon="1.26063">
        <ele>288.9</ele>
        <time>2024-11-05T16:30:06Z</time>
      </trkpt>
      <trkpt lat="45.85923" lon="1.26055">
        <ele>288.9</ele>
        <time>2024-11-05T16:30:07Z</time>
      </trkpt>
      <trkpt lat="45.85919" lon="1.26045">
        <ele>288.9</ele>
        <time>2024-11-05T16:30:08Z</time>
      </trkpt>
      <trkpt lat="45.85917" lon="1.26036">
        <ele>288.9</ele>
        <time>2024-11-05T16:30:09Z</time>
      </trkpt>
      <trkpt lat="45.85915" lon="1.26027">
        <ele>288.9</ele>
        <time>2024-11-05T16:30:10Z</time>
      </trkpt>
      <trkpt lat="45.85913" lon="1.26018">
        <ele>288.8</ele>
        <time>2024-11-05T16:30:11Z</time>
      </trkpt>
      <trkpt lat="45.85911" lon="1.26008">
        <ele>288.8</ele>
        <time>2024-11-05T16:30:12Z</time>
      </trkpt>
      <trkpt lat="45.8591" lon="1.26">
        <ele>288.7</ele>
        <time>2024-11-05T16:30:13Z</time>
      </trkpt>
      <trkpt lat="45.85911" lon="1.25991">
        <ele>288.7</ele>
        <time>2024-11-05T16:30:14Z</time>
      </trkpt>
      <trkpt lat="45.85912" lon="1.25983">
        <ele>288.6</ele>
        <time>2024-11-05T16:30:15Z</time>
      </trkpt>
      <trkpt lat="45.85915" lon="1.25975">
        <ele>288.4</ele>
        <time>2024-11-05T16:30:16Z</time>
      </trkpt>
      <trkpt lat="45.85918" lon="1.25968">
        <ele>288.3</ele>
        <time>2024-11-05T16:30:17Z</time>
      </trkpt>
      <trkpt lat="45.85922" lon="1.25959">
        <ele>288</ele>
        <time>2024-11-05T16:30:18Z</time>
      </trkpt>
      <trkpt lat="45.85926" lon="1.25952">
        <ele>287.8</ele>
        <time>2024-11-05T16:30:19Z</time>
      </trkpt>
      <trkpt lat="45.8593" lon="1.25944">
        <ele>287.6</ele>
        <time>2024-11-05T16:30:20Z</time>
      </trkpt>
      <trkpt lat="45.85934" lon="1.25936">
        <ele>287.3</ele>
        <time>2024-11-05T16:30:21Z</time>
      </trkpt>
      <trkpt lat="45.85937" lon="1.25928">
        <ele>287.1</ele>
        <time>2024-11-05T16:30:22Z</time>
      </trkpt>
      <trkpt lat="45.8594" lon="1.2592">
        <ele>287.1</ele>
        <time>2024-11-05T16:30:23Z</time>
      </trkpt>
      <trkpt lat="45.85944" lon="1.25912">
        <ele>287</ele>
        <time>2024-11-05T16:30:24Z</time>
      </trkpt>
      <trkpt lat="45.85948" lon="1.25904">
        <ele>286.9</ele>
        <time>2024-11-05T16:30:25Z</time>
      </trkpt>
      <trkpt lat="45.85953" lon="1.25896">
        <ele>286.8</ele>
        <time>2024-11-05T16:30:26Z</time>
      </trkpt>
      <trkpt lat="45.85958" lon="1.2589">
        <ele>286.8</ele>
        <time>2024-11-05T16:30:27Z</time>
      </trkpt>
      <trkpt lat="45.85963" lon="1.25884">
        <ele>286.6</ele>
        <time>2024-11-05T16:30:28Z</time>
      </trkpt>
      <trkpt lat="45.85969" lon="1.2588">
        <ele>286.5</ele>
        <time>2024-11-05T16:30:29Z</time>
      </trkpt>
      <trkpt lat="45.85974" lon="1.25877">
        <ele>286.4</ele>
        <time>2024-11-05T16:30:30Z</time>
      </trkpt>
      <trkpt lat="45.85979" lon="1.25871">
        <ele>286.2</ele>
        <time>2024-11-05T16:30:31Z</time>
      </trkpt>
      <trkpt lat="45.85984" lon="1.25864">
        <ele>286.1</ele>
        <time>2024-11-05T16:30:32Z</time>
      </trkpt>
      <trkpt lat="45.85988" lon="1.25858">
        <ele>286</ele>
        <time>2024-11-05T16:30:33Z</time>
      </trkpt>
      <trkpt lat="45.85992" lon="1.25854">
        <ele>286</ele>
        <time>2024-11-05T16:30:34Z</time>
      </trkpt>
      <trkpt lat="45.85996" lon="1.25853">
        <ele>285.9</ele>
        <time>2024-11-05T16:30:35Z</time>
      </trkpt>
      <trkpt lat="45.86" lon="1.25854">
        <ele>285.8</ele>
        <time>2024-11-05T16:30:36Z</time>
      </trkpt>
      <trkpt lat="45.86004" lon="1.25855">
        <ele>285.8</ele>
        <time>2024-11-05T16:30:37Z</time>
      </trkpt>
      <trkpt lat="45.86007" lon="1.25855">
        <ele>285.8</ele>
        <time>2024-11-05T16:30:38Z</time>
      </trkpt>
      <trkpt lat="45.86011" lon="1.25854">
        <ele>285.7</ele>
        <time>2024-11-05T16:30:39Z</time>
      </trkpt>
      <trkpt lat="45.86014" lon="1.25849">
        <ele>285.7</ele>
        <time>2024-11-05T16:30:40Z</time>
      </trkpt>
      <trkpt lat="45.86017" lon="1.25843">
        <ele>285.2</ele>
        <time>2024-11-05T16:30:41Z</time>
      </trkpt>
      <trkpt lat="45.86018" lon="1.25836">
        <ele>285</ele>
        <time>2024-11-05T16:30:42Z</time>
      </trkpt>
      <trkpt lat="45.86019" lon="1.25828">
        <ele>284.9</ele>
        <time>2024-11-05T16:30:43Z</time>
      </trkpt>
      <trkpt lat="45.8602" lon="1.2582">
        <ele>284.7</ele>
        <time>2024-11-05T16:30:44Z</time>
      </trkpt>
      <trkpt lat="45.86022" lon="1.25811">
        <ele>284.6</ele>
        <time>2024-11-05T16:30:45Z</time>
      </trkpt>
      <trkpt lat="45.86024" lon="1.25804">
        <ele>284.6</ele>
        <time>2024-11-05T16:30:46Z</time>
      </trkpt>
      <trkpt lat="45.86026" lon="1.25796">
        <ele>284.5</ele>
        <time>2024-11-05T16:30:47Z</time>
      </trkpt>
      <trkpt lat="45.86028" lon="1.25788">
        <ele>284.6</ele>
        <time>2024-11-05T16:30:48Z</time>
      </trkpt>
      <trkpt lat="45.86029" lon="1.2578">
        <ele>284.8</ele>
        <time>2024-11-05T16:30:49Z</time>
      </trkpt>
      <trkpt lat="45.86032" lon="1.25772">
        <ele>285.2</ele>
        <time>2024-11-05T16:30:50Z</time>
      </trkpt>
      <trkpt lat="45.86033" lon="1.25765">
        <ele>285.5</ele>
        <time>2024-11-05T16:30:51Z</time>
      </trkpt>
      <trkpt lat="45.86035" lon="1.25759">
        <ele>285.7</ele>
        <time>2024-11-05T16:30:52Z</time>
      </trkpt>
      <trkpt lat="45.86036" lon="1.25754">
        <ele>285.9</ele>
        <time>2024-11-05T16:30:53Z</time>
      </trkpt>
      <trkpt lat="45.86037" lon="1.25749">
        <ele>286</ele>
        <time>2024-11-05T16:30:54Z</time>
      </trkpt>
      <trkpt lat="45.86039" lon="1.25744">
        <ele>286.2</ele>
        <time>2024-11-05T16:30:56Z</time>
      </trkpt>
      <trkpt lat="45.86041" lon="1.25742">
        <ele>286.2</ele>
        <time>2024-11-05T16:30:58Z</time>
      </trkpt>
      <trkpt lat="45.86046" lon="1.25744">
        <ele>286.2</ele>
        <time>2024-11-05T16:31:00Z</time>
      </trkpt>
      <trkpt lat="45.86049" lon="1.25747">
        <ele>286.1</ele>
        <time>2024-11-05T16:31:01Z</time>
      </trkpt>
      <trkpt lat="45.86053" lon="1.25749">
        <ele>286.1</ele>
        <time>2024-11-05T16:31:02Z</time>
      </trkpt>
      <trkpt lat="45.86057" lon="1.25752">
        <ele>286.1</ele>
        <time>2024-11-05T16:31:03Z</time>
      </trkpt>
      <trkpt lat="45.86061" lon="1.25755">
        <ele>286.1</ele>
        <time>2024-11-05T16:31:04Z</time>
      </trkpt>
      <trkpt lat="45.86066" lon="1.25757">
        <ele>286.1</ele>
        <time>2024-11-05T16:31:05Z</time>
      </trkpt>
      <trkpt lat="45.8607" lon="1.25761">
        <ele>286.1</ele>
        <time>2024-11-05T16:31:06Z</time>
      </trkpt>
      <trkpt lat="45.86074" lon="1.25764">
        <ele>286.1</ele>
        <time>2024-11-05T16:31:07Z</time>
      </trkpt>
      <trkpt lat="45.86078" lon="1.25767">
        <ele>286.2</ele>
        <time>2024-11-05T16:31:08Z</time>
      </trkpt>
      <trkpt lat="45.86082" lon="1.2577">
        <ele>286.2</ele>
        <time>2024-11-05T16:31:09Z</time>
      </trkpt>
      <trkpt lat="45.86086" lon="1.25773">
        <ele>286.3</ele>
        <time>2024-11-05T16:31:10Z</time>
      </trkpt>
      <trkpt lat="45.8609" lon="1.25776">
        <ele>286.4</ele>
        <time>2024-11-05T16:31:11Z</time>
      </trkpt>
      <trkpt lat="45.86094" lon="1.25779">
        <ele>286.5</ele>
        <time>2024-11-05T16:31:12Z</time>
      </trkpt>
      <trkpt lat="45.86099" lon="1.25782">
        <ele>286.6</ele>
        <time>2024-11-05T16:31:13Z</time>
      </trkpt>
      <trkpt lat="45.86103" lon="1.25785">
        <ele>286.7</ele>
        <time>2024-11-05T16:31:14Z</time>
      </trkpt>
      <trkpt lat="45.86108" lon="1.25788">
        <ele>286.8</ele>
        <time>2024-11-05T16:31:15Z</time>
      </trkpt>
      <trkpt lat="45.86112" lon="1.2579">
        <ele>286.9</ele>
        <time>2024-11-05T16:31:16Z</time>
      </trkpt>
      <trkpt lat="45.86116" lon="1.25793">
        <ele>287</ele>
        <time>2024-11-05T16:31:17Z</time>
      </trkpt>
      <trkpt lat="45.8612" lon="1.25796">
        <ele>287.1</ele>
        <time>2024-11-05T16:31:18Z</time>
      </trkpt>
      <trkpt lat="45.86125" lon="1.258">
        <ele>287.3</ele>
        <time>2024-11-05T16:31:19Z</time>
      </trkpt>
      <trkpt lat="45.86129" lon="1.25803">
        <ele>287.4</ele>
        <time>2024-11-05T16:31:20Z</time>
      </trkpt>
      <trkpt lat="45.86134" lon="1.25807">
        <ele>287.6</ele>
        <time>2024-11-05T16:31:21Z</time>
      </trkpt>
      <trkpt lat="45.86139" lon="1.25811">
        <ele>287.7</ele>
        <time>2024-11-05T16:31:22Z</time>
      </trkpt>
      <trkpt lat="45.86143" lon="1.25814">
        <ele>287.8</ele>
        <time>2024-11-05T16:31:23Z</time>
      </trkpt>
      <trkpt lat="45.86148" lon="1.25818">
        <ele>288</ele>
        <time>2024-11-05T16:31:24Z</time>
      </trkpt>
      <trkpt lat="45.86152" lon="1.25821">
        <ele>288.2</ele>
        <time>2024-11-05T16:31:25Z</time>
      </trkpt>
      <trkpt lat="45.86156" lon="1.25824">
        <ele>288.4</ele>
        <time>2024-11-05T16:31:26Z</time>
      </trkpt>
      <trkpt lat="45.86161" lon="1.25827">
        <ele>288.7</ele>
        <time>2024-11-05T16:31:27Z</time>
      </trkpt>
      <trkpt lat="45.86165" lon="1.2583">
        <ele>288.9</ele>
        <time>2024-11-05T16:31:28Z</time>
      </trkpt>
      <trkpt lat="45.86168" lon="1.25833">
        <ele>289</ele>
        <time>2024-11-05T16:31:29Z</time>
      </trkpt>
      <trkpt lat="45.86172" lon="1.25836">
        <ele>289.2</ele>
        <time>2024-11-05T16:31:30Z</time>
      </trkpt>
      <trkpt lat="45.86176" lon="1.25839">
        <ele>289.4</ele>
        <time>2024-11-05T16:31:31Z</time>
      </trkpt>
      <trkpt lat="45.8618" lon="1.25842">
        <ele>289.6</ele>
        <time>2024-11-05T16:31:32Z</time>
      </trkpt>
      <trkpt lat="45.86183" lon="1.25845">
        <ele>289.8</ele>
        <time>2024-11-05T16:31:33Z</time>
      </trkpt>
      <trkpt lat="45.86187" lon="1.25848">
        <ele>290</ele>
        <time>2024-11-05T16:31:34Z</time>
      </trkpt>
      <trkpt lat="45.86192" lon="1.25851">
        <ele>290.2</ele>
        <time>2024-11-05T16:31:35Z</time>
      </trkpt>
      <trkpt lat="45.86195" lon="1.25854">
        <ele>290.4</ele>
        <time>2024-11-05T16:31:36Z</time>
      </trkpt>
      <trkpt lat="45.86199" lon="1.25856">
        <ele>290.6</ele>
        <time>2024-11-05T16:31:37Z</time>
      </trkpt>
      <trkpt lat="45.86203" lon="1.25859">
        <ele>290.8</ele>
        <time>2024-11-05T16:31:38Z</time>
      </trkpt>
      <trkpt lat="45.86206" lon="1.25861">
        <ele>290.9</ele>
        <time>2024-11-05T16:31:39Z</time>
      </trkpt>
      <trkpt lat="45.8621" lon="1.25863">
        <ele>291.1</ele>
        <time>2024-11-05T16:31:40Z</time>
      </trkpt>
      <trkpt lat="45.86213" lon="1.25865">
        <ele>291.3</ele>
        <time>2024-11-05T16:31:41Z</time>
      </trkpt>
      <trkpt lat="45.86217" lon="1.25868">
        <ele>291.5</ele>
        <time>2024-11-05T16:31:42Z</time>
      </trkpt>
      <trkpt lat="45.8622" lon="1.2587">
        <ele>291.6</ele>
        <time>2024-11-05T16:31:43Z</time>
      </trkpt>
      <trkpt lat="45.86224" lon="1.25873">
        <ele>291.8</ele>
        <time>2024-11-05T16:31:44Z</time>
      </trkpt>
      <trkpt lat="45.86229" lon="1.25875">
        <ele>292</ele>
        <time>2024-11-05T16:31:45Z</time>
      </trkpt>
      <trkpt lat="45.86233" lon="1.25878">
        <ele>292.2</ele>
        <time>2024-11-05T16:31:46Z</time>
      </trkpt>
      <trkpt lat="45.86238" lon="1.2588">
        <ele>292.4</ele>
        <time>2024-11-05T16:31:47Z</time>
      </trkpt>
      <trkpt lat="45.86242" lon="1.25882">
        <ele>292.6</ele>
        <time>2024-11-05T16:31:48Z</time>
      </trkpt>
      <trkpt lat="45.86247" lon="1.25884">
        <ele>292.8</ele>
        <time>2024-11-05T16:31:49Z</time>
      </trkpt>
      <trkpt lat="45.86252" lon="1.25887">
        <ele>293</ele>
        <time>2024-11-05T16:31:50Z</time>
      </trkpt>
      <trkpt lat="45.86256" lon="1.25888">
        <ele>293.2</ele>
        <time>2024-11-05T16:31:51Z</time>
      </trkpt>
      <trkpt lat="45.8626" lon="1.2589">
        <ele>293.3</ele>
        <time>2024-11-05T16:31:52Z</time>
      </trkpt>
      <trkpt lat="45.86265" lon="1.25891">
        <ele>293.5</ele>
        <time>2024-11-05T16:31:53Z</time>
      </trkpt>
      <trkpt lat="45.86269" lon="1.25893">
        <ele>293.7</ele>
        <time>2024-11-05T16:31:54Z</time>
      </trkpt>
      <trkpt lat="45.86273" lon="1.25895">
        <ele>293.9</ele>
        <time>2024-11-05T16:31:55Z</time>
      </trkpt>
      <trkpt lat="45.86277" lon="1.25896">
        <ele>294</ele>
        <time>2024-11-05T16:31:56Z</time>
      </trkpt>
      <trkpt lat="45.86281" lon="1.25898">
        <ele>294.2</ele>
        <time>2024-11-05T16:31:57Z</time>
      </trkpt>
      <trkpt lat="45.86285" lon="1.259">
        <ele>294.4</ele>
        <time>2024-11-05T16:31:58Z</time>
      </trkpt>
      <trkpt lat="45.8629" lon="1.25901">
        <ele>294.6</ele>
        <time>2024-11-05T16:31:59Z</time>
      </trkpt>
      <trkpt lat="45.86295" lon="1.25902">
        <ele>294.8</ele>
        <time>2024-11-05T16:32:00Z</time>
      </trkpt>
      <trkpt lat="45.863" lon="1.25903">
        <ele>295</ele>
        <time>2024-11-05T16:32:01Z</time>
      </trkpt>
      <trkpt lat="45.86304" lon="1.25903">
        <ele>295.2</ele>
        <time>2024-11-05T16:32:02Z</time>
      </trkpt>
      <trkpt lat="45.86308" lon="1.25904">
        <ele>295.4</ele>
        <time>2024-11-05T16:32:03Z</time>
      </trkpt>
      <trkpt lat="45.86312" lon="1.25905">
        <ele>295.6</ele>
        <time>2024-11-05T16:32:04Z</time>
      </trkpt>
      <trkpt lat="45.86317" lon="1.25904">
        <ele>295.8</ele>
        <time>2024-11-05T16:32:05Z</time>
      </trkpt>
      <trkpt lat="45.86322" lon="1.25904">
        <ele>296</ele>
        <time>2024-11-05T16:32:06Z</time>
      </trkpt>
      <trkpt lat="45.86326" lon="1.25905">
        <ele>296.1</ele>
        <time>2024-11-05T16:32:07Z</time>
      </trkpt>
      <trkpt lat="45.8633" lon="1.25905">
        <ele>296.3</ele>
        <time>2024-11-05T16:32:08Z</time>
      </trkpt>
      <trkpt lat="45.86335" lon="1.25905">
        <ele>296.5</ele>
        <time>2024-11-05T16:32:09Z</time>
      </trkpt>
      <trkpt lat="45.86339" lon="1.25905">
        <ele>296.7</ele>
        <time>2024-11-05T16:32:10Z</time>
      </trkpt>
      <trkpt lat="45.86344" lon="1.25904">
        <ele>296.9</ele>
        <time>2024-11-05T16:32:11Z</time>
      </trkpt>
      <trkpt lat="45.86349" lon="1.25904">
        <ele>297.1</ele>
        <time>2024-11-05T16:32:12Z</time>
      </trkpt>
      <trkpt lat="45.86353" lon="1.25905">
        <ele>297.2</ele>
        <time>2024-11-05T16:32:13Z</time>
      </trkpt>
      <trkpt lat="45.86358" lon="1.25905">
        <ele>297.4</ele>
        <time>2024-11-05T16:32:14Z</time>
      </trkpt>
      <trkpt lat="45.86362" lon="1.25905">
        <ele>297.6</ele>
        <time>2024-11-05T16:32:15Z</time>
      </trkpt>
      <trkpt lat="45.86366" lon="1.25905">
        <ele>297.7</ele>
        <time>2024-11-05T16:32:16Z</time>
      </trkpt>
      <trkpt lat="45.8637" lon="1.25905">
        <ele>297.9</ele>
        <time>2024-11-05T16:32:17Z</time>
      </trkpt>
      <trkpt lat="45.86375" lon="1.25906">
        <ele>298.1</ele>
        <time>2024-11-05T16:32:18Z</time>
      </trkpt>
      <trkpt lat="45.86379" lon="1.25906">
        <ele>298.3</ele>
        <time>2024-11-05T16:32:19Z</time>
      </trkpt>
      <trkpt lat="45.86384" lon="1.25906">
        <ele>298.5</ele>
        <time>2024-11-05T16:32:20Z</time>
      </trkpt>
      <trkpt lat="45.86388" lon="1.25906">
        <ele>298.7</ele>
        <time>2024-11-05T16:32:21Z</time>
      </trkpt>
      <trkpt lat="45.86392" lon="1.25906">
        <ele>298.9</ele>
        <time>2024-11-05T16:32:22Z</time>
      </trkpt>
      <trkpt lat="45.86397" lon="1.25906">
        <ele>299.1</ele>
        <time>2024-11-05T16:32:23Z</time>
      </trkpt>
      <trkpt lat="45.86401" lon="1.25906">
        <ele>299.3</ele>
        <time>2024-11-05T16:32:24Z</time>
      </trkpt>
      <trkpt lat="45.86407" lon="1.25907">
        <ele>299.5</ele>
        <time>2024-11-05T16:32:25Z</time>
      </trkpt>
      <trkpt lat="45.86411" lon="1.25907">
        <ele>299.7</ele>
        <time>2024-11-05T16:32:26Z</time>
      </trkpt>
      <trkpt lat="45.86416" lon="1.25907">
        <ele>299.9</ele>
        <time>2024-11-05T16:32:27Z</time>
      </trkpt>
      <trkpt lat="45.8642" lon="1.25907">
        <ele>300.1</ele>
        <time>2024-11-05T16:32:28Z</time>
      </trkpt>
      <trkpt lat="45.86425" lon="1.25908">
        <ele>300.4</ele>
        <time>2024-11-05T16:32:29Z</time>
      </trkpt>
      <trkpt lat="45.86429" lon="1.25907">
        <ele>300.6</ele>
        <time>2024-11-05T16:32:30Z</time>
      </trkpt>
      <trkpt lat="45.86434" lon="1.25907">
        <ele>300.8</ele>
        <time>2024-11-05T16:32:31Z</time>
      </trkpt>
      <trkpt lat="45.86438" lon="1.25908">
        <ele>301</ele>
        <time>2024-11-05T16:32:32Z</time>
      </trkpt>
      <trkpt lat="45.86442" lon="1.25908">
        <ele>301.2</ele>
        <time>2024-11-05T16:32:33Z</time>
      </trkpt>
      <trkpt lat="45.86446" lon="1.25908">
        <ele>301.4</ele>
        <time>2024-11-05T16:32:34Z</time>
      </trkpt>
      <trkpt lat="45.8645" lon="1.2591">
        <ele>301.6</ele>
        <time>2024-11-05T16:32:35Z</time>
      </trkpt>
      <trkpt lat="45.86453" lon="1.25909">
        <ele>301.8</ele>
        <time>2024-11-05T16:32:36Z</time>
      </trkpt>
      <trkpt lat="45.86457" lon="1.25909">
        <ele>302</ele>
        <time>2024-11-05T16:32:37Z</time>
      </trkpt>
      <trkpt lat="45.8646" lon="1.25909">
        <ele>302.1</ele>
        <time>2024-11-05T16:32:38Z</time>
      </trkpt>
      <trkpt lat="45.86464" lon="1.25909">
        <ele>302.4</ele>
        <time>2024-11-05T16:32:40Z</time>
      </trkpt>
      <trkpt lat="45.86466" lon="1.25906">
        <ele>302.5</ele>
        <time>2024-11-05T16:32:50Z</time>
      </trkpt>
      <trkpt lat="45.86468" lon="1.25901">
        <ele>302.7</ele>
        <time>2024-11-05T16:32:52Z</time>
      </trkpt>
      <trkpt lat="45.86468" lon="1.25896">
        <ele>302.4</ele>
        <time>2024-11-05T16:32:53Z</time>
      </trkpt>
      <trkpt lat="45.86469" lon="1.25891">
        <ele>302.2</ele>
        <time>2024-11-05T16:32:54Z</time>
      </trkpt>
      <trkpt lat="45.8647" lon="1.25887">
        <ele>302</ele>
        <time>2024-11-05T16:32:55Z</time>
      </trkpt>
      <trkpt lat="45.86472" lon="1.25881">
        <ele>301.7</ele>
        <time>2024-11-05T16:32:56Z</time>
      </trkpt>
      <trkpt lat="45.86471" lon="1.25874">
        <ele>301.4</ele>
        <time>2024-11-05T16:32:57Z</time>
      </trkpt>
      <trkpt lat="45.8647" lon="1.25867">
        <ele>301.2</ele>
        <time>2024-11-05T16:32:58Z</time>
      </trkpt>
      <trkpt lat="45.86471" lon="1.25861">
        <ele>301.1</ele>
        <time>2024-11-05T16:32:59Z</time>
      </trkpt>
      <trkpt lat="45.86471" lon="1.25855">
        <ele>300.9</ele>
        <time>2024-11-05T16:33:00Z</time>
      </trkpt>
      <trkpt lat="45.86472" lon="1.25848">
        <ele>300.8</ele>
        <time>2024-11-05T16:33:01Z</time>
      </trkpt>
      <trkpt lat="45.86472" lon="1.25842">
        <ele>300.6</ele>
        <time>2024-11-05T16:33:02Z</time>
      </trkpt>
      <trkpt lat="45.86473" lon="1.25837">
        <ele>300.4</ele>
        <time>2024-11-05T16:33:03Z</time>
      </trkpt>
      <trkpt lat="45.86474" lon="1.25832">
        <ele>300.2</ele>
        <time>2024-11-05T16:33:04Z</time>
      </trkpt>
      <trkpt lat="45.86475" lon="1.25826">
        <ele>300</ele>
        <time>2024-11-05T16:33:05Z</time>
      </trkpt>
      <trkpt lat="45.86474" lon="1.25819">
        <ele>299.7</ele>
        <time>2024-11-05T16:33:06Z</time>
      </trkpt>
      <trkpt lat="45.86473" lon="1.2581">
        <ele>299.2</ele>
        <time>2024-11-05T16:33:07Z</time>
      </trkpt>
      <trkpt lat="45.86473" lon="1.25801">
        <ele>298.8</ele>
        <time>2024-11-05T16:33:08Z</time>
      </trkpt>
      <trkpt lat="45.86474" lon="1.25792">
        <ele>298.4</ele>
        <time>2024-11-05T16:33:09Z</time>
      </trkpt>
      <trkpt lat="45.86474" lon="1.25781">
        <ele>298.1</ele>
        <time>2024-11-05T16:33:10Z</time>
      </trkpt>
      <trkpt lat="45.86474" lon="1.2577">
        <ele>297.9</ele>
        <time>2024-11-05T16:33:11Z</time>
      </trkpt>
      <trkpt lat="45.86473" lon="1.2576">
        <ele>297.8</ele>
        <time>2024-11-05T16:33:12Z</time>
      </trkpt>
      <trkpt lat="45.86474" lon="1.25751">
        <ele>297.8</ele>
        <time>2024-11-05T16:33:13Z</time>
      </trkpt>
      <trkpt lat="45.86475" lon="1.25745">
        <ele>297.9</ele>
        <time>2024-11-05T16:33:14Z</time>
      </trkpt>
      <trkpt lat="45.86476" lon="1.25738">
        <ele>297.9</ele>
        <time>2024-11-05T16:33:15Z</time>
      </trkpt>
      <trkpt lat="45.86476" lon="1.2573">
        <ele>298</ele>
        <time>2024-11-05T16:33:16Z</time>
      </trkpt>
      <trkpt lat="45.86476" lon="1.25722">
        <ele>298.1</ele>
        <time>2024-11-05T16:33:17Z</time>
      </trkpt>
      <trkpt lat="45.86475" lon="1.25713">
        <ele>298.1</ele>
        <time>2024-11-05T16:33:18Z</time>
      </trkpt>
      <trkpt lat="45.86475" lon="1.25705">
        <ele>298</ele>
        <time>2024-11-05T16:33:19Z</time>
      </trkpt>
      <trkpt lat="45.86475" lon="1.25697">
        <ele>297.8</ele>
        <time>2024-11-05T16:33:20Z</time>
      </trkpt>
      <trkpt lat="45.86474" lon="1.2569">
        <ele>297.6</ele>
        <time>2024-11-05T16:33:21Z</time>
      </trkpt>
      <trkpt lat="45.86475" lon="1.25682">
        <ele>297.3</ele>
        <time>2024-11-05T16:33:22Z</time>
      </trkpt>
      <trkpt lat="45.86475" lon="1.25675">
        <ele>296.9</ele>
        <time>2024-11-05T16:33:23Z</time>
      </trkpt>
      <trkpt lat="45.86475" lon="1.25668">
        <ele>296.5</ele>
        <time>2024-11-05T16:33:24Z</time>
      </trkpt>
      <trkpt lat="45.86478" lon="1.2566">
        <ele>295.9</ele>
        <time>2024-11-05T16:33:25Z</time>
      </trkpt>
      <trkpt lat="45.8648" lon="1.25653">
        <ele>295.3</ele>
        <time>2024-11-05T16:33:26Z</time>
      </trkpt>
      <trkpt lat="45.86481" lon="1.25646">
        <ele>294.7</ele>
        <time>2024-11-05T16:33:27Z</time>
      </trkpt>
      <trkpt lat="45.8648" lon="1.25639">
        <ele>294</ele>
        <time>2024-11-05T16:33:28Z</time>
      </trkpt>
      <trkpt lat="45.86479" lon="1.25632">
        <ele>293.4</ele>
        <time>2024-11-05T16:33:29Z</time>
      </trkpt>
      <trkpt lat="45.86476" lon="1.25625">
        <ele>292.7</ele>
        <time>2024-11-05T16:33:30Z</time>
      </trkpt>
      <trkpt lat="45.86474" lon="1.25619">
        <ele>292.1</ele>
        <time>2024-11-05T16:33:31Z</time>
      </trkpt>
      <trkpt lat="45.8647" lon="1.25614">
        <ele>291.6</ele>
        <time>2024-11-05T16:33:32Z</time>
      </trkpt>
      <trkpt lat="45.86466" lon="1.25608">
        <ele>291.3</ele>
        <time>2024-11-05T16:33:33Z</time>
      </trkpt>
      <trkpt lat="45.86464" lon="1.25602">
        <ele>291.1</ele>
        <time>2024-11-05T16:33:34Z</time>
      </trkpt>
      <trkpt lat="45.8646" lon="1.25598">
        <ele>291.1</ele>
        <time>2024-11-05T16:33:35Z</time>
      </trkpt>
      <trkpt lat="45.86456" lon="1.25594">
        <ele>291.1</ele>
        <time>2024-11-05T16:33:36Z</time>
      </trkpt>
      <trkpt lat="45.86451" lon="1.2559">
        <ele>291.1</ele>
        <time>2024-11-05T16:33:37Z</time>
      </trkpt>
      <trkpt lat="45.86447" lon="1.25585">
        <ele>291.2</ele>
        <time>2024-11-05T16:33:38Z</time>
      </trkpt>
      <trkpt lat="45.86444" lon="1.25581">
        <ele>291.4</ele>
        <time>2024-11-05T16:33:39Z</time>
      </trkpt>
      <trkpt lat="45.86439" lon="1.25576">
        <ele>291.6</ele>
        <time>2024-11-05T16:33:40Z</time>
      </trkpt>
      <trkpt lat="45.86433" lon="1.25572">
        <ele>292</ele>
        <time>2024-11-05T16:33:41Z</time>
      </trkpt>
      <trkpt lat="45.86429" lon="1.25569">
        <ele>292.4</ele>
        <time>2024-11-05T16:33:42Z</time>
      </trkpt>
      <trkpt lat="45.86425" lon="1.25565">
        <ele>292.8</ele>
        <time>2024-11-05T16:33:43Z</time>
      </trkpt>
      <trkpt lat="45.86422" lon="1.25561">
        <ele>293.2</ele>
        <time>2024-11-05T16:33:44Z</time>
      </trkpt>
      <trkpt lat="45.86418" lon="1.25556">
        <ele>293.8</ele>
        <time>2024-11-05T16:33:45Z</time>
      </trkpt>
      <trkpt lat="45.86415" lon="1.25552">
        <ele>294.2</ele>
        <time>2024-11-05T16:33:46Z</time>
      </trkpt>
      <trkpt lat="45.86413" lon="1.25547">
        <ele>294.7</ele>
        <time>2024-11-05T16:33:47Z</time>
      </trkpt>
      <trkpt lat="45.86412" lon="1.25541">
        <ele>295.1</ele>
        <time>2024-11-05T16:33:49Z</time>
      </trkpt>
      <trkpt lat="45.8641" lon="1.25536">
        <ele>295.5</ele>
        <time>2024-11-05T16:33:50Z</time>
      </trkpt>
      <trkpt lat="45.86408" lon="1.25532">
        <ele>295.8</ele>
        <time>2024-11-05T16:33:51Z</time>
      </trkpt>
      <trkpt lat="45.86406" lon="1.25526">
        <ele>296.2</ele>
        <time>2024-11-05T16:33:53Z</time>
      </trkpt>
      <trkpt lat="45.86403" lon="1.25522">
        <ele>296.5</ele>
        <time>2024-11-05T16:33:54Z</time>
      </trkpt>
      <trkpt lat="45.86401" lon="1.25518">
        <ele>296.7</ele>
        <time>2024-11-05T16:33:55Z</time>
      </trkpt>
      <trkpt lat="45.864" lon="1.25513">
        <ele>297</ele>
        <time>2024-11-05T16:33:56Z</time>
      </trkpt>
      <trkpt lat="45.86398" lon="1.25508">
        <ele>297.3</ele>
        <time>2024-11-05T16:33:57Z</time>
      </trkpt>
      <trkpt lat="45.86397" lon="1.25505">
        <ele>297.5</ele>
        <time>2024-11-05T16:33:58Z</time>
      </trkpt>
      <trkpt lat="45.86396" lon="1.25501">
        <ele>297.7</ele>
        <time>2024-11-05T16:33:59Z</time>
      </trkpt>
      <trkpt lat="45.86393" lon="1.25496">
        <ele>298</ele>
        <time>2024-11-05T16:34:01Z</time>
      </trkpt>
      <trkpt lat="45.86392" lon="1.25491">
        <ele>298.3</ele>
        <time>2024-11-05T16:34:02Z</time>
      </trkpt>
      <trkpt lat="45.8639" lon="1.25485">
        <ele>298.7</ele>
        <time>2024-11-05T16:34:04Z</time>
      </trkpt>
      <trkpt lat="45.86389" lon="1.25479">
        <ele>299</ele>
        <time>2024-11-05T16:34:06Z</time>
      </trkpt>
      <trkpt lat="45.86387" lon="1.25473">
        <ele>299.4</ele>
        <time>2024-11-05T16:34:08Z</time>
      </trkpt>
      <trkpt lat="45.86385" lon="1.25466">
        <ele>299.8</ele>
        <time>2024-11-05T16:34:10Z</time>
      </trkpt>
      <trkpt lat="45.86383" lon="1.2546">
        <ele>300.1</ele>
        <time>2024-11-05T16:34:11Z</time>
      </trkpt>
      <trkpt lat="45.86381" lon="1.25455">
        <ele>300.3</ele>
        <time>2024-11-05T16:34:12Z</time>
      </trkpt>
      <trkpt lat="45.86379" lon="1.25449">
        <ele>300.6</ele>
        <time>2024-11-05T16:34:13Z</time>
      </trkpt>
      <trkpt lat="45.86378" lon="1.25444">
        <ele>300.8</ele>
        <time>2024-11-05T16:34:14Z</time>
      </trkpt>
      <trkpt lat="45.86376" lon="1.25438">
        <ele>301</ele>
        <time>2024-11-05T16:34:15Z</time>
      </trkpt>
      <trkpt lat="45.86374" lon="1.25433">
        <ele>301.2</ele>
        <time>2024-11-05T16:34:16Z</time>
      </trkpt>
      <trkpt lat="45.86372" lon="1.25426">
        <ele>301.5</ele>
        <time>2024-11-05T16:34:17Z</time>
      </trkpt>
      <trkpt lat="45.86371" lon="1.2542">
        <ele>301.7</ele>
        <time>2024-11-05T16:34:18Z</time>
      </trkpt>
      <trkpt lat="45.8637" lon="1.25414">
        <ele>302</ele>
        <time>2024-11-05T16:34:19Z</time>
      </trkpt>
      <trkpt lat="45.8637" lon="1.25409">
        <ele>302.2</ele>
        <time>2024-11-05T16:34:20Z</time>
      </trkpt>
      <trkpt lat="45.8637" lon="1.25405">
        <ele>302.3</ele>
        <time>2024-11-05T16:34:21Z</time>
      </trkpt>
      <trkpt lat="45.8637" lon="1.25399">
        <ele>302.6</ele>
        <time>2024-11-05T16:34:23Z</time>
      </trkpt>
      <trkpt lat="45.86369" lon="1.25394">
        <ele>302.8</ele>
        <time>2024-11-05T16:34:24Z</time>
      </trkpt>
      <trkpt lat="45.86369" lon="1.2539">
        <ele>303</ele>
        <time>2024-11-05T16:34:25Z</time>
      </trkpt>
      <trkpt lat="45.86368" lon="1.25385">
        <ele>303.2</ele>
        <time>2024-11-05T16:34:26Z</time>
      </trkpt>
      <trkpt lat="45.86368" lon="1.25378">
        <ele>303.5</ele>
        <time>2024-11-05T16:34:28Z</time>
      </trkpt>
      <trkpt lat="45.86367" lon="1.25372">
        <ele>303.8</ele>
        <time>2024-11-05T16:34:29Z</time>
      </trkpt>
      <trkpt lat="45.86367" lon="1.25366">
        <ele>304</ele>
        <time>2024-11-05T16:34:30Z</time>
      </trkpt>
      <trkpt lat="45.86367" lon="1.2536">
        <ele>304.2</ele>
        <time>2024-11-05T16:34:31Z</time>
      </trkpt>
      <trkpt lat="45.86367" lon="1.25354">
        <ele>304.4</ele>
        <time>2024-11-05T16:34:32Z</time>
      </trkpt>
      <trkpt lat="45.86368" lon="1.25348">
        <ele>304.5</ele>
        <time>2024-11-05T16:34:33Z</time>
      </trkpt>
      <trkpt lat="45.86368" lon="1.25343">
        <ele>304.6</ele>
        <time>2024-11-05T16:34:34Z</time>
      </trkpt>
      <trkpt lat="45.86369" lon="1.25339">
        <ele>304.7</ele>
        <time>2024-11-05T16:34:35Z</time>
      </trkpt>
      <trkpt lat="45.8637" lon="1.25335">
        <ele>304.8</ele>
        <time>2024-11-05T16:34:36Z</time>
      </trkpt>
      <trkpt lat="45.8637" lon="1.2533">
        <ele>304.9</ele>
        <time>2024-11-05T16:34:37Z</time>
      </trkpt>
      <trkpt lat="45.8637" lon="1.25325">
        <ele>304.9</ele>
        <time>2024-11-05T16:34:38Z</time>
      </trkpt>
      <trkpt lat="45.8637" lon="1.2532">
        <ele>305</ele>
        <time>2024-11-05T16:34:39Z</time>
      </trkpt>
      <trkpt lat="45.8637" lon="1.25314">
        <ele>305.1</ele>
        <time>2024-11-05T16:34:40Z</time>
      </trkpt>
      <trkpt lat="45.8637" lon="1.25309">
        <ele>305.2</ele>
        <time>2024-11-05T16:34:41Z</time>
      </trkpt>
      <trkpt lat="45.86371" lon="1.25304">
        <ele>305.3</ele>
        <time>2024-11-05T16:34:42Z</time>
      </trkpt>
      <trkpt lat="45.86372" lon="1.25298">
        <ele>305.5</ele>
        <time>2024-11-05T16:34:43Z</time>
      </trkpt>
      <trkpt lat="45.86373" lon="1.25292">
        <ele>305.7</ele>
        <time>2024-11-05T16:34:44Z</time>
      </trkpt>
      <trkpt lat="45.86374" lon="1.25287">
        <ele>305.8</ele>
        <time>2024-11-05T16:34:45Z</time>
      </trkpt>
      <trkpt lat="45.86375" lon="1.25282">
        <ele>306</ele>
        <time>2024-11-05T16:34:46Z</time>
      </trkpt>
      <trkpt lat="45.86374" lon="1.25277">
        <ele>306.1</ele>
        <time>2024-11-05T16:34:47Z</time>
      </trkpt>
      <trkpt lat="45.86373" lon="1.25272">
        <ele>306.3</ele>
        <time>2024-11-05T16:34:48Z</time>
      </trkpt>
      <trkpt lat="45.86372" lon="1.25267">
        <ele>306.4</ele>
        <time>2024-11-05T16:34:49Z</time>
      </trkpt>
      <trkpt lat="45.8637" lon="1.25263">
        <ele>306.6</ele>
        <time>2024-11-05T16:34:50Z</time>
      </trkpt>
      <trkpt lat="45.86368" lon="1.25258">
        <ele>306.7</ele>
        <time>2024-11-05T16:34:51Z</time>
      </trkpt>
      <trkpt lat="45.86367" lon="1.25253">
        <ele>306.9</ele>
        <time>2024-11-05T16:34:52Z</time>
      </trkpt>
      <trkpt lat="45.86365" lon="1.25249">
        <ele>307</ele>
        <time>2024-11-05T16:34:53Z</time>
      </trkpt>
      <trkpt lat="45.86363" lon="1.25244">
        <ele>307.1</ele>
        <time>2024-11-05T16:34:54Z</time>
      </trkpt>
      <trkpt lat="45.86362" lon="1.25239">
        <ele>307.3</ele>
        <time>2024-11-05T16:34:55Z</time>
      </trkpt>
      <trkpt lat="45.8636" lon="1.25235">
        <ele>307.4</ele>
        <time>2024-11-05T16:34:56Z</time>
      </trkpt>
      <trkpt lat="45.86359" lon="1.2523">
        <ele>307.5</ele>
        <time>2024-11-05T16:34:57Z</time>
      </trkpt>
      <trkpt lat="45.86357" lon="1.25226">
        <ele>307.6</ele>
        <time>2024-11-05T16:34:58Z</time>
      </trkpt>
      <trkpt lat="45.86355" lon="1.25221">
        <ele>307.7</ele>
        <time>2024-11-05T16:34:59Z</time>
      </trkpt>
      <trkpt lat="45.86353" lon="1.25216">
        <ele>307.8</ele>
        <time>2024-11-05T16:35:00Z</time>
      </trkpt>
      <trkpt lat="45.86352" lon="1.25212">
        <ele>307.9</ele>
        <time>2024-11-05T16:35:01Z</time>
      </trkpt>
      <trkpt lat="45.86351" lon="1.25207">
        <ele>308</ele>
        <time>2024-11-05T16:35:02Z</time>
      </trkpt>
      <trkpt lat="45.86349" lon="1.25202">
        <ele>308.1</ele>
        <time>2024-11-05T16:35:03Z</time>
      </trkpt>
      <trkpt lat="45.86348" lon="1.25198">
        <ele>308.1</ele>
        <time>2024-11-05T16:35:04Z</time>
      </trkpt>
      <trkpt lat="45.86346" lon="1.25193">
        <ele>308.2</ele>
        <time>2024-11-05T16:35:05Z</time>
      </trkpt>
      <trkpt lat="45.86344" lon="1.25188">
        <ele>308.3</ele>
        <time>2024-11-05T16:35:06Z</time>
      </trkpt>
      <trkpt lat="45.86343" lon="1.25183">
        <ele>308.3</ele>
        <time>2024-11-05T16:35:07Z</time>
      </trkpt>
      <trkpt lat="45.86341" lon="1.25179">
        <ele>308.3</ele>
        <time>2024-11-05T16:35:08Z</time>
      </trkpt>
      <trkpt lat="45.86339" lon="1.25174">
        <ele>308.3</ele>
        <time>2024-11-05T16:35:09Z</time>
      </trkpt>
      <trkpt lat="45.86337" lon="1.2517">
        <ele>308.3</ele>
        <time>2024-11-05T16:35:10Z</time>
      </trkpt>
      <trkpt lat="45.86335" lon="1.25166">
        <ele>308.4</ele>
        <time>2024-11-05T16:35:11Z</time>
      </trkpt>
      <trkpt lat="45.86333" lon="1.25163">
        <ele>308.4</ele>
        <time>2024-11-05T16:35:12Z</time>
      </trkpt>
      <trkpt lat="45.86331" lon="1.2516">
        <ele>308.4</ele>
        <time>2024-11-05T16:35:13Z</time>
      </trkpt>
      <trkpt lat="45.8633" lon="1.25154">
        <ele>308.4</ele>
        <time>2024-11-05T16:35:15Z</time>
      </trkpt>
      <trkpt lat="45.86331" lon="1.25149">
        <ele>308.3</ele>
        <time>2024-11-05T16:35:16Z</time>
      </trkpt>
      <trkpt lat="45.86333" lon="1.25145">
        <ele>308.2</ele>
        <time>2024-11-05T16:35:17Z</time>
      </trkpt>
      <trkpt lat="45.86336" lon="1.25141">
        <ele>308.2</ele>
        <time>2024-11-05T16:35:18Z</time>
      </trkpt>
      <trkpt lat="45.86339" lon="1.25138">
        <ele>308.4</ele>
        <time>2024-11-05T16:35:19Z</time>
      </trkpt>
      <trkpt lat="45.86342" lon="1.25136">
        <ele>308.5</ele>
        <time>2024-11-05T16:35:20Z</time>
      </trkpt>
      <trkpt lat="45.86346" lon="1.25134">
        <ele>308.7</ele>
        <time>2024-11-05T16:35:21Z</time>
      </trkpt>
      <trkpt lat="45.86349" lon="1.25132">
        <ele>308.8</ele>
        <time>2024-11-05T16:35:22Z</time>
      </trkpt>
      <trkpt lat="45.86352" lon="1.2513">
        <ele>309</ele>
        <time>2024-11-05T16:35:23Z</time>
      </trkpt>
      <trkpt lat="45.86355" lon="1.25128">
        <ele>309.1</ele>
        <time>2024-11-05T16:35:24Z</time>
      </trkpt>
      <trkpt lat="45.86358" lon="1.25127">
        <ele>309.2</ele>
        <time>2024-11-05T16:35:25Z</time>
      </trkpt>
      <trkpt lat="45.86362" lon="1.25124">
        <ele>309.4</ele>
        <time>2024-11-05T16:35:26Z</time>
      </trkpt>
      <trkpt lat="45.86365" lon="1.25122">
        <ele>309.5</ele>
        <time>2024-11-05T16:35:27Z</time>
      </trkpt>
      <trkpt lat="45.86369" lon="1.2512">
        <ele>309.6</ele>
        <time>2024-11-05T16:35:28Z</time>
      </trkpt>
      <trkpt lat="45.86372" lon="1.25118">
        <ele>309.8</ele>
        <time>2024-11-05T16:35:29Z</time>
      </trkpt>
      <trkpt lat="45.86376" lon="1.25115">
        <ele>309.9</ele>
        <time>2024-11-05T16:35:30Z</time>
      </trkpt>
      <trkpt lat="45.86379" lon="1.25113">
        <ele>310</ele>
        <time>2024-11-05T16:35:31Z</time>
      </trkpt>
      <trkpt lat="45.86382" lon="1.25111">
        <ele>310.1</ele>
        <time>2024-11-05T16:35:32Z</time>
      </trkpt>
      <trkpt lat="45.86385" lon="1.25109">
        <ele>310.2</ele>
        <time>2024-11-05T16:35:33Z</time>
      </trkpt>
      <trkpt lat="45.86388" lon="1.25107">
        <ele>310.3</ele>
        <time>2024-11-05T16:35:34Z</time>
      </trkpt>
      <trkpt lat="45.86392" lon="1.25104">
        <ele>310.5</ele>
        <time>2024-11-05T16:35:35Z</time>
      </trkpt>
      <trkpt lat="45.86395" lon="1.25102">
        <ele>310.6</ele>
        <time>2024-11-05T16:35:36Z</time>
      </trkpt>
      <trkpt lat="45.86399" lon="1.25099">
        <ele>310.7</ele>
        <time>2024-11-05T16:35:37Z</time>
      </trkpt>
      <trkpt lat="45.86402" lon="1.25097">
        <ele>310.8</ele>
        <time>2024-11-05T16:35:38Z</time>
      </trkpt>
      <trkpt lat="45.86406" lon="1.25094">
        <ele>311</ele>
        <time>2024-11-05T16:35:39Z</time>
      </trkpt>
      <trkpt lat="45.86409" lon="1.25092">
        <ele>311.1</ele>
        <time>2024-11-05T16:35:40Z</time>
      </trkpt>
      <trkpt lat="45.86413" lon="1.2509">
        <ele>311.2</ele>
        <time>2024-11-05T16:35:41Z</time>
      </trkpt>
      <trkpt lat="45.86417" lon="1.25087">
        <ele>311.4</ele>
        <time>2024-11-05T16:35:42Z</time>
      </trkpt>
      <trkpt lat="45.8642" lon="1.25085">
        <ele>311.5</ele>
        <time>2024-11-05T16:35:43Z</time>
      </trkpt>
      <trkpt lat="45.86423" lon="1.25083">
        <ele>311.5</ele>
        <time>2024-11-05T16:35:44Z</time>
      </trkpt>
      <trkpt lat="45.86427" lon="1.2508">
        <ele>311.7</ele>
        <time>2024-11-05T16:35:45Z</time>
      </trkpt>
      <trkpt lat="45.8643" lon="1.25078">
        <ele>311.8</ele>
        <time>2024-11-05T16:35:46Z</time>
      </trkpt>
      <trkpt lat="45.86433" lon="1.25076">
        <ele>311.9</ele>
        <time>2024-11-05T16:35:47Z</time>
      </trkpt>
      <trkpt lat="45.86436" lon="1.25074">
        <ele>311.9</ele>
        <time>2024-11-05T16:35:48Z</time>
      </trkpt>
      <trkpt lat="45.8644" lon="1.25072">
        <ele>312.1</ele>
        <time>2024-11-05T16:35:49Z</time>
      </trkpt>
      <trkpt lat="45.86443" lon="1.2507">
        <ele>312.2</ele>
        <time>2024-11-05T16:35:50Z</time>
      </trkpt>
      <trkpt lat="45.86446" lon="1.25068">
        <ele>312.2</ele>
        <time>2024-11-05T16:35:51Z</time>
      </trkpt>
      <trkpt lat="45.8645" lon="1.25066">
        <ele>312.4</ele>
        <time>2024-11-05T16:35:52Z</time>
      </trkpt>
      <trkpt lat="45.86453" lon="1.25064">
        <ele>312.4</ele>
        <time>2024-11-05T16:35:53Z</time>
      </trkpt>
      <trkpt lat="45.86456" lon="1.25062">
        <ele>312.5</ele>
        <time>2024-11-05T16:35:54Z</time>
      </trkpt>
      <trkpt lat="45.8646" lon="1.2506">
        <ele>312.6</ele>
        <time>2024-11-05T16:35:55Z</time>
      </trkpt>
      <trkpt lat="45.86463" lon="1.25057">
        <ele>312.7</ele>
        <time>2024-11-05T16:35:56Z</time>
      </trkpt>
      <trkpt lat="45.86466" lon="1.25055">
        <ele>312.8</ele>
        <time>2024-11-05T16:35:57Z</time>
      </trkpt>
      <trkpt lat="45.86469" lon="1.25053">
        <ele>312.9</ele>
        <time>2024-11-05T16:35:58Z</time>
      </trkpt>
      <trkpt lat="45.86472" lon="1.25051">
        <ele>313</ele>
        <time>2024-11-05T16:35:59Z</time>
      </trkpt>
      <trkpt lat="45.86476" lon="1.25049">
        <ele>313.1</ele>
        <time>2024-11-05T16:36:00Z</time>
      </trkpt>
      <trkpt lat="45.86479" lon="1.25046">
        <ele>313.2</ele>
        <time>2024-11-05T16:36:01Z</time>
      </trkpt>
      <trkpt lat="45.86482" lon="1.25044">
        <ele>313.3</ele>
        <time>2024-11-05T16:36:02Z</time>
      </trkpt>
      <trkpt lat="45.86485" lon="1.25041">
        <ele>313.4</ele>
        <time>2024-11-05T16:36:03Z</time>
      </trkpt>
      <trkpt lat="45.86488" lon="1.25038">
        <ele>313.5</ele>
        <time>2024-11-05T16:36:04Z</time>
      </trkpt>
      <trkpt lat="45.86492" lon="1.25035">
        <ele>313.6</ele>
        <time>2024-11-05T16:36:05Z</time>
      </trkpt>
      <trkpt lat="45.86495" lon="1.25032">
        <ele>313.7</ele>
        <time>2024-11-05T16:36:06Z</time>
      </trkpt>
      <trkpt lat="45.86498" lon="1.25028">
        <ele>313.8</ele>
        <time>2024-11-05T16:36:07Z</time>
      </trkpt>
      <trkpt lat="45.86501" lon="1.25025">
        <ele>313.9</ele>
        <time>2024-11-05T16:36:08Z</time>
      </trkpt>
      <trkpt lat="45.86504" lon="1.25022">
        <ele>314</ele>
        <time>2024-11-05T16:36:09Z</time>
      </trkpt>
      <trkpt lat="45.86506" lon="1.25018">
        <ele>314.1</ele>
        <time>2024-11-05T16:36:10Z</time>
      </trkpt>
      <trkpt lat="45.86509" lon="1.25015">
        <ele>314.2</ele>
        <time>2024-11-05T16:36:11Z</time>
      </trkpt>
      <trkpt lat="45.86511" lon="1.2501">
        <ele>314.4</ele>
        <time>2024-11-05T16:36:12Z</time>
      </trkpt>
      <trkpt lat="45.86513" lon="1.25006">
        <ele>314.5</ele>
        <time>2024-11-05T16:36:13Z</time>
      </trkpt>
      <trkpt lat="45.86515" lon="1.25002">
        <ele>314.6</ele>
        <time>2024-11-05T16:36:14Z</time>
      </trkpt>
      <trkpt lat="45.86517" lon="1.24998">
        <ele>314.7</ele>
        <time>2024-11-05T16:36:15Z</time>
      </trkpt>
      <trkpt lat="45.86519" lon="1.24994">
        <ele>314.8</ele>
        <time>2024-11-05T16:36:16Z</time>
      </trkpt>
      <trkpt lat="45.86521" lon="1.24989">
        <ele>314.9</ele>
        <time>2024-11-05T16:36:17Z</time>
      </trkpt>
      <trkpt lat="45.86523" lon="1.24985">
        <ele>315</ele>
        <time>2024-11-05T16:36:18Z</time>
      </trkpt>
      <trkpt lat="45.86525" lon="1.2498">
        <ele>315</ele>
        <time>2024-11-05T16:36:19Z</time>
      </trkpt>
      <trkpt lat="45.86526" lon="1.24976">
        <ele>315.1</ele>
        <time>2024-11-05T16:36:20Z</time>
      </trkpt>
      <trkpt lat="45.86527" lon="1.24971">
        <ele>315.2</ele>
        <time>2024-11-05T16:36:21Z</time>
      </trkpt>
      <trkpt lat="45.86529" lon="1.24967">
        <ele>315.2</ele>
        <time>2024-11-05T16:36:22Z</time>
      </trkpt>
      <trkpt lat="45.8653" lon="1.24962">
        <ele>315.3</ele>
        <time>2024-11-05T16:36:23Z</time>
      </trkpt>
      <trkpt lat="45.86531" lon="1.24958">
        <ele>315.5</ele>
        <time>2024-11-05T16:36:24Z</time>
      </trkpt>
      <trkpt lat="45.86532" lon="1.24953">
        <ele>315.6</ele>
        <time>2024-11-05T16:36:25Z</time>
      </trkpt>
      <trkpt lat="45.86533" lon="1.24948">
        <ele>315.8</ele>
        <time>2024-11-05T16:36:26Z</time>
      </trkpt>
      <trkpt lat="45.86534" lon="1.24944">
        <ele>316</ele>
        <time>2024-11-05T16:36:27Z</time>
      </trkpt>
      <trkpt lat="45.86535" lon="1.2494">
        <ele>316.1</ele>
        <time>2024-11-05T16:36:28Z</time>
      </trkpt>
      <trkpt lat="45.86536" lon="1.24935">
        <ele>316.3</ele>
        <time>2024-11-05T16:36:29Z</time>
      </trkpt>
      <trkpt lat="45.86537" lon="1.24931">
        <ele>316.4</ele>
        <time>2024-11-05T16:36:30Z</time>
      </trkpt>
      <trkpt lat="45.86537" lon="1.24927">
        <ele>316.6</ele>
        <time>2024-11-05T16:36:31Z</time>
      </trkpt>
      <trkpt lat="45.86538" lon="1.24923">
        <ele>316.7</ele>
        <time>2024-11-05T16:36:32Z</time>
      </trkpt>
      <trkpt lat="45.86539" lon="1.24919">
        <ele>316.9</ele>
        <time>2024-11-05T16:36:33Z</time>
      </trkpt>
      <trkpt lat="45.8654" lon="1.24914">
        <ele>317.1</ele>
        <time>2024-11-05T16:36:34Z</time>
      </trkpt>
      <trkpt lat="45.86541" lon="1.2491">
        <ele>317.2</ele>
        <time>2024-11-05T16:36:35Z</time>
      </trkpt>
      <trkpt lat="45.86542" lon="1.24905">
        <ele>317.4</ele>
        <time>2024-11-05T16:36:36Z</time>
      </trkpt>
      <trkpt lat="45.86543" lon="1.249">
        <ele>317.6</ele>
        <time>2024-11-05T16:36:37Z</time>
      </trkpt>
      <trkpt lat="45.86544" lon="1.24896">
        <ele>317.7</ele>
        <time>2024-11-05T16:36:38Z</time>
      </trkpt>
      <trkpt lat="45.86546" lon="1.24891">
        <ele>317.9</ele>
        <time>2024-11-05T16:36:39Z</time>
      </trkpt>
      <trkpt lat="45.86547" lon="1.24887">
        <ele>318.1</ele>
        <time>2024-11-05T16:36:40Z</time>
      </trkpt>
      <trkpt lat="45.86549" lon="1.24882">
        <ele>318.3</ele>
        <time>2024-11-05T16:36:41Z</time>
      </trkpt>
      <trkpt lat="45.8655" lon="1.24877">
        <ele>318.4</ele>
        <time>2024-11-05T16:36:42Z</time>
      </trkpt>
      <trkpt lat="45.86551" lon="1.24873">
        <ele>318.6</ele>
        <time>2024-11-05T16:36:43Z</time>
      </trkpt>
      <trkpt lat="45.86552" lon="1.24868">
        <ele>318.7</ele>
        <time>2024-11-05T16:36:44Z</time>
      </trkpt>
      <trkpt lat="45.86553" lon="1.24863">
        <ele>318.9</ele>
        <time>2024-11-05T16:36:45Z</time>
      </trkpt>
      <trkpt lat="45.86553" lon="1.24859">
        <ele>319</ele>
        <time>2024-11-05T16:36:46Z</time>
      </trkpt>
      <trkpt lat="45.86554" lon="1.24854">
        <ele>319.2</ele>
        <time>2024-11-05T16:36:47Z</time>
      </trkpt>
      <trkpt lat="45.86555" lon="1.24849">
        <ele>319.4</ele>
        <time>2024-11-05T16:36:48Z</time>
      </trkpt>
      <trkpt lat="45.86556" lon="1.24844">
        <ele>319.6</ele>
        <time>2024-11-05T16:36:49Z</time>
      </trkpt>
      <trkpt lat="45.86556" lon="1.24839">
        <ele>319.8</ele>
        <time>2024-11-05T16:36:50Z</time>
      </trkpt>
      <trkpt lat="45.86557" lon="1.24835">
        <ele>319.9</ele>
        <time>2024-11-05T16:36:51Z</time>
      </trkpt>
      <trkpt lat="45.86558" lon="1.2483">
        <ele>320.1</ele>
        <time>2024-11-05T16:36:52Z</time>
      </trkpt>
      <trkpt lat="45.86558" lon="1.24826">
        <ele>320.2</ele>
        <time>2024-11-05T16:36:53Z</time>
      </trkpt>
      <trkpt lat="45.86559" lon="1.24821">
        <ele>320.4</ele>
        <time>2024-11-05T16:36:54Z</time>
      </trkpt>
      <trkpt lat="45.8656" lon="1.24817">
        <ele>320.6</ele>
        <time>2024-11-05T16:36:55Z</time>
      </trkpt>
      <trkpt lat="45.86562" lon="1.24812">
        <ele>320.8</ele>
        <time>2024-11-05T16:36:56Z</time>
      </trkpt>
      <trkpt lat="45.86563" lon="1.24808">
        <ele>321</ele>
        <time>2024-11-05T16:36:57Z</time>
      </trkpt>
      <trkpt lat="45.86564" lon="1.24804">
        <ele>321.1</ele>
        <time>2024-11-05T16:36:58Z</time>
      </trkpt>
      <trkpt lat="45.86565" lon="1.248">
        <ele>321.3</ele>
        <time>2024-11-05T16:36:59Z</time>
      </trkpt>
      <trkpt lat="45.86566" lon="1.24796">
        <ele>321.5</ele>
        <time>2024-11-05T16:37:00Z</time>
      </trkpt>
      <trkpt lat="45.86568" lon="1.24793">
        <ele>321.6</ele>
        <time>2024-11-05T16:37:01Z</time>
      </trkpt>
      <trkpt lat="45.8657" lon="1.2479">
        <ele>321.8</ele>
        <time>2024-11-05T16:37:02Z</time>
      </trkpt>
      <trkpt lat="45.86572" lon="1.24786">
        <ele>322</ele>
        <time>2024-11-05T16:37:03Z</time>
      </trkpt>
      <trkpt lat="45.86574" lon="1.24783">
        <ele>322.2</ele>
        <time>2024-11-05T16:37:04Z</time>
      </trkpt>
      <trkpt lat="45.86575" lon="1.24779">
        <ele>322.4</ele>
        <time>2024-11-05T16:37:05Z</time>
      </trkpt>
      <trkpt lat="45.86578" lon="1.24776">
        <ele>322.6</ele>
        <time>2024-11-05T16:37:06Z</time>
      </trkpt>
      <trkpt lat="45.8658" lon="1.24772">
        <ele>322.9</ele>
        <time>2024-11-05T16:37:07Z</time>
      </trkpt>
      <trkpt lat="45.86582" lon="1.24769">
        <ele>323.1</ele>
        <time>2024-11-05T16:37:08Z</time>
      </trkpt>
      <trkpt lat="45.86585" lon="1.24765">
        <ele>323.3</ele>
        <time>2024-11-05T16:37:10Z</time>
      </trkpt>
      <trkpt lat="45.86588" lon="1.24761">
        <ele>323.6</ele>
        <time>2024-11-05T16:37:11Z</time>
      </trkpt>
      <trkpt lat="45.8659" lon="1.24758">
        <ele>323.8</ele>
        <time>2024-11-05T16:37:12Z</time>
      </trkpt>
      <trkpt lat="45.86592" lon="1.24755">
        <ele>324</ele>
        <time>2024-11-05T16:37:13Z</time>
      </trkpt>
      <trkpt lat="45.86594" lon="1.24752">
        <ele>324.2</ele>
        <time>2024-11-05T16:37:14Z</time>
      </trkpt>
      <trkpt lat="45.86596" lon="1.24749">
        <ele>324.4</ele>
        <time>2024-11-05T16:37:15Z</time>
      </trkpt>
      <trkpt lat="45.86599" lon="1.24746">
        <ele>324.6</ele>
        <time>2024-11-05T16:37:16Z</time>
      </trkpt>
      <trkpt lat="45.86601" lon="1.24743">
        <ele>324.8</ele>
        <time>2024-11-05T16:37:17Z</time>
      </trkpt>
      <trkpt lat="45.86603" lon="1.24741">
        <ele>325</ele>
        <time>2024-11-05T16:37:18Z</time>
      </trkpt>
      <trkpt lat="45.86606" lon="1.24738">
        <ele>325.2</ele>
        <time>2024-11-05T16:37:19Z</time>
      </trkpt>
      <trkpt lat="45.86608" lon="1.24736">
        <ele>325.4</ele>
        <time>2024-11-05T16:37:20Z</time>
      </trkpt>
      <trkpt lat="45.86611" lon="1.24733">
        <ele>325.6</ele>
        <time>2024-11-05T16:37:21Z</time>
      </trkpt>
      <trkpt lat="45.86614" lon="1.2473">
        <ele>325.8</ele>
        <time>2024-11-05T16:37:23Z</time>
      </trkpt>
      <trkpt lat="45.86617" lon="1.24725">
        <ele>326.1</ele>
        <time>2024-11-05T16:37:25Z</time>
      </trkpt>
      <trkpt lat="45.86621" lon="1.24721">
        <ele>326.4</ele>
        <time>2024-11-05T16:37:27Z</time>
      </trkpt>
      <trkpt lat="45.86624" lon="1.24717">
        <ele>326.6</ele>
        <time>2024-11-05T16:37:28Z</time>
      </trkpt>
      <trkpt lat="45.86628" lon="1.24715">
        <ele>326.8</ele>
        <time>2024-11-05T16:37:30Z</time>
      </trkpt>
      <trkpt lat="45.86632" lon="1.24714">
        <ele>327</ele>
        <time>2024-11-05T16:37:32Z</time>
      </trkpt>
      <trkpt lat="45.86636" lon="1.24712">
        <ele>327.3</ele>
        <time>2024-11-05T16:37:34Z</time>
      </trkpt>
      <trkpt lat="45.8664" lon="1.24709">
        <ele>327.5</ele>
        <time>2024-11-05T16:37:36Z</time>
      </trkpt>
      <trkpt lat="45.86643" lon="1.24706">
        <ele>327.6</ele>
        <time>2024-11-05T16:37:37Z</time>
      </trkpt>
      <trkpt lat="45.86646" lon="1.24703">
        <ele>327.8</ele>
        <time>2024-11-05T16:37:38Z</time>
      </trkpt>
      <trkpt lat="45.86649" lon="1.247">
        <ele>328</ele>
        <time>2024-11-05T16:37:39Z</time>
      </trkpt>
      <trkpt lat="45.86652" lon="1.24696">
        <ele>328.1</ele>
        <time>2024-11-05T16:37:41Z</time>
      </trkpt>
      <trkpt lat="45.86656" lon="1.24693">
        <ele>328.3</ele>
        <time>2024-11-05T16:37:42Z</time>
      </trkpt>
      <trkpt lat="45.86658" lon="1.24691">
        <ele>328.4</ele>
        <time>2024-11-05T16:37:43Z</time>
      </trkpt>
      <trkpt lat="45.86661" lon="1.24688">
        <ele>328.6</ele>
        <time>2024-11-05T16:37:44Z</time>
      </trkpt>
      <trkpt lat="45.86664" lon="1.24686">
        <ele>328.7</ele>
        <time>2024-11-05T16:37:45Z</time>
      </trkpt>
      <trkpt lat="45.86667" lon="1.24683">
        <ele>328.9</ele>
        <time>2024-11-05T16:37:46Z</time>
      </trkpt>
      <trkpt lat="45.8667" lon="1.24681">
        <ele>329</ele>
        <time>2024-11-05T16:37:47Z</time>
      </trkpt>
      <trkpt lat="45.86673" lon="1.24678">
        <ele>329.2</ele>
        <time>2024-11-05T16:37:48Z</time>
      </trkpt>
      <trkpt lat="45.86675" lon="1.24675">
        <ele>329.3</ele>
        <time>2024-11-05T16:37:49Z</time>
      </trkpt>
      <trkpt lat="45.86678" lon="1.24672">
        <ele>329.4</ele>
        <time>2024-11-05T16:37:50Z</time>
      </trkpt>
      <trkpt lat="45.86681" lon="1.24669">
        <ele>329.6</ele>
        <time>2024-11-05T16:37:51Z</time>
      </trkpt>
      <trkpt lat="45.86684" lon="1.24666">
        <ele>329.7</ele>
        <time>2024-11-05T16:37:52Z</time>
      </trkpt>
      <trkpt lat="45.86687" lon="1.24664">
        <ele>329.8</ele>
        <time>2024-11-05T16:37:53Z</time>
      </trkpt>
      <trkpt lat="45.86689" lon="1.24661">
        <ele>330</ele>
        <time>2024-11-05T16:37:54Z</time>
      </trkpt>
      <trkpt lat="45.86692" lon="1.24657">
        <ele>330.1</ele>
        <time>2024-11-05T16:37:55Z</time>
      </trkpt>
      <trkpt lat="45.86695" lon="1.24654">
        <ele>330.2</ele>
        <time>2024-11-05T16:37:56Z</time>
      </trkpt>
      <trkpt lat="45.86697" lon="1.24651">
        <ele>330.3</ele>
        <time>2024-11-05T16:37:57Z</time>
      </trkpt>
      <trkpt lat="45.867" lon="1.24647">
        <ele>330.4</ele>
        <time>2024-11-05T16:37:58Z</time>
      </trkpt>
      <trkpt lat="45.86702" lon="1.24644">
        <ele>330.5</ele>
        <time>2024-11-05T16:37:59Z</time>
      </trkpt>
      <trkpt lat="45.86705" lon="1.2464">
        <ele>330.6</ele>
        <time>2024-11-05T16:38:00Z</time>
      </trkpt>
      <trkpt lat="45.86707" lon="1.24636">
        <ele>330.7</ele>
        <time>2024-11-05T16:38:01Z</time>
      </trkpt>
      <trkpt lat="45.86709" lon="1.24632">
        <ele>330.8</ele>
        <time>2024-11-05T16:38:02Z</time>
      </trkpt>
      <trkpt lat="45.86711" lon="1.24628">
        <ele>330.9</ele>
        <time>2024-11-05T16:38:03Z</time>
      </trkpt>
      <trkpt lat="45.86713" lon="1.24625">
        <ele>331</ele>
        <time>2024-11-05T16:38:04Z</time>
      </trkpt>
      <trkpt lat="45.86714" lon="1.24621">
        <ele>331.1</ele>
        <time>2024-11-05T16:38:05Z</time>
      </trkpt>
      <trkpt lat="45.86715" lon="1.24618">
        <ele>331.2</ele>
        <time>2024-11-05T16:38:06Z</time>
      </trkpt>
      <trkpt lat="45.86717" lon="1.24614">
        <ele>331.3</ele>
        <time>2024-11-05T16:38:07Z</time>
      </trkpt>
      <trkpt lat="45.86718" lon="1.2461">
        <ele>331.4</ele>
        <time>2024-11-05T16:38:08Z</time>
      </trkpt>
      <trkpt lat="45.86719" lon="1.24605">
        <ele>331.5</ele>
        <time>2024-11-05T16:38:10Z</time>
      </trkpt>
      <trkpt lat="45.86721" lon="1.246">
        <ele>331.6</ele>
        <time>2024-11-05T16:38:11Z</time>
      </trkpt>
      <trkpt lat="45.86722" lon="1.24596">
        <ele>331.7</ele>
        <time>2024-11-05T16:38:12Z</time>
      </trkpt>
      <trkpt lat="45.86724" lon="1.24592">
        <ele>331.9</ele>
        <time>2024-11-05T16:38:13Z</time>
      </trkpt>
      <trkpt lat="45.86725" lon="1.24588">
        <ele>332</ele>
        <time>2024-11-05T16:38:14Z</time>
      </trkpt>
      <trkpt lat="45.86727" lon="1.24584">
        <ele>332.1</ele>
        <time>2024-11-05T16:38:15Z</time>
      </trkpt>
      <trkpt lat="45.86729" lon="1.2458">
        <ele>332.3</ele>
        <time>2024-11-05T16:38:16Z</time>
      </trkpt>
      <trkpt lat="45.8673" lon="1.24576">
        <ele>332.4</ele>
        <time>2024-11-05T16:38:17Z</time>
      </trkpt>
      <trkpt lat="45.86731" lon="1.24572">
        <ele>332.5</ele>
        <time>2024-11-05T16:38:18Z</time>
      </trkpt>
      <trkpt lat="45.86733" lon="1.24568">
        <ele>332.6</ele>
        <time>2024-11-05T16:38:19Z</time>
      </trkpt>
      <trkpt lat="45.86734" lon="1.24563">
        <ele>332.7</ele>
        <time>2024-11-05T16:38:20Z</time>
      </trkpt>
      <trkpt lat="45.86735" lon="1.24558">
        <ele>332.9</ele>
        <time>2024-11-05T16:38:21Z</time>
      </trkpt>
      <trkpt lat="45.86737" lon="1.24553">
        <ele>333</ele>
        <time>2024-11-05T16:38:22Z</time>
      </trkpt>
      <trkpt lat="45.86738" lon="1.24549">
        <ele>333.1</ele>
        <time>2024-11-05T16:38:23Z</time>
      </trkpt>
      <trkpt lat="45.8674" lon="1.24544">
        <ele>333.2</ele>
        <time>2024-11-05T16:38:24Z</time>
      </trkpt>
      <trkpt lat="45.86742" lon="1.24539">
        <ele>333.4</ele>
        <time>2024-11-05T16:38:25Z</time>
      </trkpt>
      <trkpt lat="45.86743" lon="1.24534">
        <ele>333.5</ele>
        <time>2024-11-05T16:38:26Z</time>
      </trkpt>
      <trkpt lat="45.86745" lon="1.24529">
        <ele>333.6</ele>
        <time>2024-11-05T16:38:27Z</time>
      </trkpt>
      <trkpt lat="45.86746" lon="1.24525">
        <ele>333.7</ele>
        <time>2024-11-05T16:38:28Z</time>
      </trkpt>
      <trkpt lat="45.86747" lon="1.2452">
        <ele>333.8</ele>
        <time>2024-11-05T16:38:29Z</time>
      </trkpt>
      <trkpt lat="45.86748" lon="1.24515">
        <ele>333.9</ele>
        <time>2024-11-05T16:38:30Z</time>
      </trkpt>
      <trkpt lat="45.86749" lon="1.2451">
        <ele>334.1</ele>
        <time>2024-11-05T16:38:31Z</time>
      </trkpt>
      <trkpt lat="45.8675" lon="1.24505">
        <ele>334.2</ele>
        <time>2024-11-05T16:38:32Z</time>
      </trkpt>
      <trkpt lat="45.86751" lon="1.245">
        <ele>334.3</ele>
        <time>2024-11-05T16:38:33Z</time>
      </trkpt>
      <trkpt lat="45.86751" lon="1.24495">
        <ele>334.3</ele>
        <time>2024-11-05T16:38:34Z</time>
      </trkpt>
      <trkpt lat="45.86751" lon="1.2449">
        <ele>334.4</ele>
        <time>2024-11-05T16:38:35Z</time>
      </trkpt>
      <trkpt lat="45.86751" lon="1.24485">
        <ele>334.5</ele>
        <time>2024-11-05T16:38:36Z</time>
      </trkpt>
      <trkpt lat="45.86751" lon="1.2448">
        <ele>334.6</ele>
        <time>2024-11-05T16:38:37Z</time>
      </trkpt>
      <trkpt lat="45.86752" lon="1.24475">
        <ele>334.7</ele>
        <time>2024-11-05T16:38:38Z</time>
      </trkpt>
      <trkpt lat="45.86752" lon="1.24471">
        <ele>334.8</ele>
        <time>2024-11-05T16:38:39Z</time>
      </trkpt>
      <trkpt lat="45.86752" lon="1.24465">
        <ele>334.9</ele>
        <time>2024-11-05T16:38:40Z</time>
      </trkpt>
      <trkpt lat="45.86752" lon="1.2446">
        <ele>335</ele>
        <time>2024-11-05T16:38:41Z</time>
      </trkpt>
      <trkpt lat="45.86751" lon="1.24455">
        <ele>335.1</ele>
        <time>2024-11-05T16:38:42Z</time>
      </trkpt>
      <trkpt lat="45.86752" lon="1.24449">
        <ele>335.3</ele>
        <time>2024-11-05T16:38:43Z</time>
      </trkpt>
      <trkpt lat="45.86751" lon="1.24444">
        <ele>335.4</ele>
        <time>2024-11-05T16:38:44Z</time>
      </trkpt>
      <trkpt lat="45.86751" lon="1.24438">
        <ele>335.5</ele>
        <time>2024-11-05T16:38:45Z</time>
      </trkpt>
      <trkpt lat="45.86751" lon="1.24433">
        <ele>335.6</ele>
        <time>2024-11-05T16:38:46Z</time>
      </trkpt>
      <trkpt lat="45.86751" lon="1.24428">
        <ele>335.7</ele>
        <time>2024-11-05T16:38:47Z</time>
      </trkpt>
      <trkpt lat="45.86751" lon="1.24422">
        <ele>335.8</ele>
        <time>2024-11-05T16:38:48Z</time>
      </trkpt>
      <trkpt lat="45.86751" lon="1.24417">
        <ele>335.9</ele>
        <time>2024-11-05T16:38:49Z</time>
      </trkpt>
      <trkpt lat="45.86752" lon="1.24412">
        <ele>336</ele>
        <time>2024-11-05T16:38:50Z</time>
      </trkpt>
      <trkpt lat="45.86752" lon="1.24407">
        <ele>336.1</ele>
        <time>2024-11-05T16:38:51Z</time>
      </trkpt>
      <trkpt lat="45.86751" lon="1.24401">
        <ele>336.3</ele>
        <time>2024-11-05T16:38:52Z</time>
      </trkpt>
      <trkpt lat="45.86751" lon="1.24395">
        <ele>336.4</ele>
        <time>2024-11-05T16:38:53Z</time>
      </trkpt>
      <trkpt lat="45.86751" lon="1.2439">
        <ele>336.5</ele>
        <time>2024-11-05T16:38:54Z</time>
      </trkpt>
      <trkpt lat="45.86751" lon="1.24384">
        <ele>336.7</ele>
        <time>2024-11-05T16:38:55Z</time>
      </trkpt>
      <trkpt lat="45.86751" lon="1.24378">
        <ele>336.9</ele>
        <time>2024-11-05T16:38:56Z</time>
      </trkpt>
      <trkpt lat="45.86751" lon="1.24373">
        <ele>337</ele>
        <time>2024-11-05T16:38:57Z</time>
      </trkpt>
      <trkpt lat="45.8675" lon="1.24368">
        <ele>337.1</ele>
        <time>2024-11-05T16:38:58Z</time>
      </trkpt>
      <trkpt lat="45.8675" lon="1.24362">
        <ele>337.3</ele>
        <time>2024-11-05T16:38:59Z</time>
      </trkpt>
      <trkpt lat="45.86751" lon="1.24357">
        <ele>337.4</ele>
        <time>2024-11-05T16:39:00Z</time>
      </trkpt>
      <trkpt lat="45.86751" lon="1.24352">
        <ele>337.6</ele>
        <time>2024-11-05T16:39:01Z</time>
      </trkpt>
      <trkpt lat="45.86751" lon="1.24347">
        <ele>337.7</ele>
        <time>2024-11-05T16:39:02Z</time>
      </trkpt>
      <trkpt lat="45.86751" lon="1.24342">
        <ele>337.8</ele>
        <time>2024-11-05T16:39:03Z</time>
      </trkpt>
      <trkpt lat="45.86751" lon="1.24337">
        <ele>337.9</ele>
        <time>2024-11-05T16:39:04Z</time>
      </trkpt>
      <trkpt lat="45.86751" lon="1.24332">
        <ele>338.1</ele>
        <time>2024-11-05T16:39:05Z</time>
      </trkpt>
      <trkpt lat="45.86751" lon="1.24327">
        <ele>338.2</ele>
        <time>2024-11-05T16:39:06Z</time>
      </trkpt>
      <trkpt lat="45.86751" lon="1.24322">
        <ele>338.4</ele>
        <time>2024-11-05T16:39:07Z</time>
      </trkpt>
      <trkpt lat="45.86751" lon="1.24317">
        <ele>338.5</ele>
        <time>2024-11-05T16:39:08Z</time>
      </trkpt>
      <trkpt lat="45.86751" lon="1.24311">
        <ele>338.7</ele>
        <time>2024-11-05T16:39:09Z</time>
      </trkpt>
      <trkpt lat="45.86751" lon="1.24306">
        <ele>338.8</ele>
        <time>2024-11-05T16:39:10Z</time>
      </trkpt>
      <trkpt lat="45.86751" lon="1.243">
        <ele>339</ele>
        <time>2024-11-05T16:39:11Z</time>
      </trkpt>
      <trkpt lat="45.86751" lon="1.24294">
        <ele>339.2</ele>
        <time>2024-11-05T16:39:12Z</time>
      </trkpt>
      <trkpt lat="45.86751" lon="1.24289">
        <ele>339.3</ele>
        <time>2024-11-05T16:39:13Z</time>
      </trkpt>
      <trkpt lat="45.86751" lon="1.24283">
        <ele>339.5</ele>
        <time>2024-11-05T16:39:14Z</time>
      </trkpt>
      <trkpt lat="45.86751" lon="1.24278">
        <ele>339.7</ele>
        <time>2024-11-05T16:39:15Z</time>
      </trkpt>
      <trkpt lat="45.86751" lon="1.24272">
        <ele>339.9</ele>
        <time>2024-11-05T16:39:16Z</time>
      </trkpt>
      <trkpt lat="45.86752" lon="1.24266">
        <ele>340.1</ele>
        <time>2024-11-05T16:39:17Z</time>
      </trkpt>
      <trkpt lat="45.86751" lon="1.24261">
        <ele>340.2</ele>
        <time>2024-11-05T16:39:18Z</time>
      </trkpt>
      <trkpt lat="45.86751" lon="1.24254">
        <ele>340.5</ele>
        <time>2024-11-05T16:39:19Z</time>
      </trkpt>
      <trkpt lat="45.86751" lon="1.24248">
        <ele>340.7</ele>
        <time>2024-11-05T16:39:20Z</time>
      </trkpt>
      <trkpt lat="45.86751" lon="1.24242">
        <ele>340.9</ele>
        <time>2024-11-05T16:39:21Z</time>
      </trkpt>
      <trkpt lat="45.86751" lon="1.24237">
        <ele>341</ele>
        <time>2024-11-05T16:39:22Z</time>
      </trkpt>
      <trkpt lat="45.86752" lon="1.24231">
        <ele>341.2</ele>
        <time>2024-11-05T16:39:23Z</time>
      </trkpt>
      <trkpt lat="45.86752" lon="1.24226">
        <ele>341.4</ele>
        <time>2024-11-05T16:39:24Z</time>
      </trkpt>
      <trkpt lat="45.86752" lon="1.24221">
        <ele>341.5</ele>
        <time>2024-11-05T16:39:25Z</time>
      </trkpt>
      <trkpt lat="45.86752" lon="1.24216">
        <ele>341.7</ele>
        <time>2024-11-05T16:39:26Z</time>
      </trkpt>
      <trkpt lat="45.86752" lon="1.24211">
        <ele>341.9</ele>
        <time>2024-11-05T16:39:27Z</time>
      </trkpt>
      <trkpt lat="45.86752" lon="1.24205">
        <ele>342.1</ele>
        <time>2024-11-05T16:39:28Z</time>
      </trkpt>
      <trkpt lat="45.86751" lon="1.242">
        <ele>342.2</ele>
        <time>2024-11-05T16:39:29Z</time>
      </trkpt>
      <trkpt lat="45.86751" lon="1.24194">
        <ele>342.4</ele>
        <time>2024-11-05T16:39:30Z</time>
      </trkpt>
      <trkpt lat="45.86751" lon="1.24188">
        <ele>342.6</ele>
        <time>2024-11-05T16:39:31Z</time>
      </trkpt>
      <trkpt lat="45.86751" lon="1.24183">
        <ele>342.7</ele>
        <time>2024-11-05T16:39:32Z</time>
      </trkpt>
      <trkpt lat="45.86751" lon="1.24178">
        <ele>342.9</ele>
        <time>2024-11-05T16:39:33Z</time>
      </trkpt>
      <trkpt lat="45.86751" lon="1.24172">
        <ele>343</ele>
        <time>2024-11-05T16:39:34Z</time>
      </trkpt>
      <trkpt lat="45.86751" lon="1.24167">
        <ele>343.2</ele>
        <time>2024-11-05T16:39:35Z</time>
      </trkpt>
      <trkpt lat="45.86751" lon="1.24162">
        <ele>343.3</ele>
        <time>2024-11-05T16:39:36Z</time>
      </trkpt>
      <trkpt lat="45.86751" lon="1.24157">
        <ele>343.4</ele>
        <time>2024-11-05T16:39:37Z</time>
      </trkpt>
      <trkpt lat="45.8675" lon="1.24152">
        <ele>343.5</ele>
        <time>2024-11-05T16:39:38Z</time>
      </trkpt>
      <trkpt lat="45.8675" lon="1.24147">
        <ele>343.7</ele>
        <time>2024-11-05T16:39:39Z</time>
      </trkpt>
      <trkpt lat="45.8675" lon="1.24141">
        <ele>343.8</ele>
        <time>2024-11-05T16:39:40Z</time>
      </trkpt>
      <trkpt lat="45.8675" lon="1.24136">
        <ele>343.9</ele>
        <time>2024-11-05T16:39:41Z</time>
      </trkpt>
      <trkpt lat="45.8675" lon="1.2413">
        <ele>344</ele>
        <time>2024-11-05T16:39:42Z</time>
      </trkpt>
      <trkpt lat="45.8675" lon="1.24124">
        <ele>344.2</ele>
        <time>2024-11-05T16:39:43Z</time>
      </trkpt>
      <trkpt lat="45.8675" lon="1.24119">
        <ele>344.3</ele>
        <time>2024-11-05T16:39:44Z</time>
      </trkpt>
      <trkpt lat="45.8675" lon="1.24113">
        <ele>344.4</ele>
        <time>2024-11-05T16:39:45Z</time>
      </trkpt>
      <trkpt lat="45.86749" lon="1.24107">
        <ele>344.5</ele>
        <time>2024-11-05T16:39:46Z</time>
      </trkpt>
      <trkpt lat="45.86749" lon="1.24101">
        <ele>344.6</ele>
        <time>2024-11-05T16:39:47Z</time>
      </trkpt>
      <trkpt lat="45.86749" lon="1.24095">
        <ele>344.7</ele>
        <time>2024-11-05T16:39:48Z</time>
      </trkpt>
      <trkpt lat="45.86749" lon="1.24089">
        <ele>344.8</ele>
        <time>2024-11-05T16:39:49Z</time>
      </trkpt>
      <trkpt lat="45.86749" lon="1.24083">
        <ele>344.9</ele>
        <time>2024-11-05T16:39:50Z</time>
      </trkpt>
      <trkpt lat="45.86749" lon="1.24078">
        <ele>344.9</ele>
        <time>2024-11-05T16:39:51Z</time>
      </trkpt>
      <trkpt lat="45.86749" lon="1.24072">
        <ele>345</ele>
        <time>2024-11-05T16:39:52Z</time>
      </trkpt>
      <trkpt lat="45.86749" lon="1.24065">
        <ele>345.1</ele>
        <time>2024-11-05T16:39:53Z</time>
      </trkpt>
      <trkpt lat="45.86748" lon="1.24059">
        <ele>345.2</ele>
        <time>2024-11-05T16:39:54Z</time>
      </trkpt>
      <trkpt lat="45.86748" lon="1.24053">
        <ele>345.3</ele>
        <time>2024-11-05T16:39:55Z</time>
      </trkpt>
      <trkpt lat="45.86748" lon="1.24047">
        <ele>345.4</ele>
        <time>2024-11-05T16:39:56Z</time>
      </trkpt>
      <trkpt lat="45.86748" lon="1.24042">
        <ele>345.4</ele>
        <time>2024-11-05T16:39:57Z</time>
      </trkpt>
      <trkpt lat="45.86748" lon="1.24036">
        <ele>345.5</ele>
        <time>2024-11-05T16:39:58Z</time>
      </trkpt>
      <trkpt lat="45.86748" lon="1.2403">
        <ele>345.6</ele>
        <time>2024-11-05T16:39:59Z</time>
      </trkpt>
      <trkpt lat="45.86748" lon="1.24025">
        <ele>345.6</ele>
        <time>2024-11-05T16:40:00Z</time>
      </trkpt>
      <trkpt lat="45.86748" lon="1.24019">
        <ele>345.6</ele>
        <time>2024-11-05T16:40:01Z</time>
      </trkpt>
      <trkpt lat="45.86748" lon="1.24013">
        <ele>345.7</ele>
        <time>2024-11-05T16:40:02Z</time>
      </trkpt>
      <trkpt lat="45.86748" lon="1.24008">
        <ele>345.7</ele>
        <time>2024-11-05T16:40:03Z</time>
      </trkpt>
      <trkpt lat="45.86748" lon="1.24002">
        <ele>345.7</ele>
        <time>2024-11-05T16:40:04Z</time>
      </trkpt>
      <trkpt lat="45.86748" lon="1.23996">
        <ele>345.7</ele>
        <time>2024-11-05T16:40:05Z</time>
      </trkpt>
      <trkpt lat="45.86747" lon="1.2399">
        <ele>345.7</ele>
        <time>2024-11-05T16:40:06Z</time>
      </trkpt>
      <trkpt lat="45.86747" lon="1.23984">
        <ele>345.8</ele>
        <time>2024-11-05T16:40:07Z</time>
      </trkpt>
      <trkpt lat="45.86747" lon="1.23977">
        <ele>345.8</ele>
        <time>2024-11-05T16:40:08Z</time>
      </trkpt>
      <trkpt lat="45.86748" lon="1.23972">
        <ele>345.8</ele>
        <time>2024-11-05T16:40:09Z</time>
      </trkpt>
      <trkpt lat="45.86749" lon="1.23966">
        <ele>345.8</ele>
        <time>2024-11-05T16:40:10Z</time>
      </trkpt>
      <trkpt lat="45.86749" lon="1.23961">
        <ele>345.9</ele>
        <time>2024-11-05T16:40:11Z</time>
      </trkpt>
      <trkpt lat="45.86749" lon="1.23955">
        <ele>345.9</ele>
        <time>2024-11-05T16:40:12Z</time>
      </trkpt>
      <trkpt lat="45.86748" lon="1.2395">
        <ele>345.9</ele>
        <time>2024-11-05T16:40:13Z</time>
      </trkpt>
      <trkpt lat="45.86748" lon="1.23945">
        <ele>345.9</ele>
        <time>2024-11-05T16:40:14Z</time>
      </trkpt>
      <trkpt lat="45.86747" lon="1.2394">
        <ele>345.9</ele>
        <time>2024-11-05T16:40:15Z</time>
      </trkpt>
      <trkpt lat="45.86747" lon="1.23936">
        <ele>345.9</ele>
        <time>2024-11-05T16:40:16Z</time>
      </trkpt>
      <trkpt lat="45.86746" lon="1.23931">
        <ele>346</ele>
        <time>2024-11-05T16:40:17Z</time>
      </trkpt>
      <trkpt lat="45.86746" lon="1.23927">
        <ele>346</ele>
        <time>2024-11-05T16:40:18Z</time>
      </trkpt>
      <trkpt lat="45.86745" lon="1.23922">
        <ele>346</ele>
        <time>2024-11-05T16:40:20Z</time>
      </trkpt>
      <trkpt lat="45.86745" lon="1.23915">
        <ele>346</ele>
        <time>2024-11-05T16:40:22Z</time>
      </trkpt>
      <trkpt lat="45.86745" lon="1.2391">
        <ele>346.1</ele>
        <time>2024-11-05T16:40:23Z</time>
      </trkpt>
      <trkpt lat="45.86745" lon="1.23905">
        <ele>346.1</ele>
        <time>2024-11-05T16:40:24Z</time>
      </trkpt>
      <trkpt lat="45.86745" lon="1.23899">
        <ele>346.2</ele>
        <time>2024-11-05T16:40:25Z</time>
      </trkpt>
      <trkpt lat="45.86746" lon="1.23894">
        <ele>346.2</ele>
        <time>2024-11-05T16:40:26Z</time>
      </trkpt>
      <trkpt lat="45.86746" lon="1.23889">
        <ele>346.2</ele>
        <time>2024-11-05T16:40:27Z</time>
      </trkpt>
      <trkpt lat="45.86746" lon="1.23883">
        <ele>346.3</ele>
        <time>2024-11-05T16:40:28Z</time>
      </trkpt>
      <trkpt lat="45.86747" lon="1.23878">
        <ele>346.3</ele>
        <time>2024-11-05T16:40:29Z</time>
      </trkpt>
      <trkpt lat="45.86747" lon="1.23872">
        <ele>346.4</ele>
        <time>2024-11-05T16:40:30Z</time>
      </trkpt>
      <trkpt lat="45.86748" lon="1.23867">
        <ele>346.4</ele>
        <time>2024-11-05T16:40:31Z</time>
      </trkpt>
      <trkpt lat="45.86748" lon="1.23861">
        <ele>346.5</ele>
        <time>2024-11-05T16:40:32Z</time>
      </trkpt>
      <trkpt lat="45.86748" lon="1.23857">
        <ele>346.5</ele>
        <time>2024-11-05T16:40:33Z</time>
      </trkpt>
      <trkpt lat="45.86749" lon="1.2385">
        <ele>346.6</ele>
        <time>2024-11-05T16:40:35Z</time>
      </trkpt>
      <trkpt lat="45.86748" lon="1.23845">
        <ele>346.6</ele>
        <time>2024-11-05T16:40:37Z</time>
      </trkpt>
      <trkpt lat="45.86746" lon="1.23841">
        <ele>346.6</ele>
        <time>2024-11-05T16:40:38Z</time>
      </trkpt>
      <trkpt lat="45.86743" lon="1.23838">
        <ele>346.6</ele>
        <time>2024-11-05T16:40:39Z</time>
      </trkpt>
      <trkpt lat="45.86739" lon="1.23837">
        <ele>346.4</ele>
        <time>2024-11-05T16:40:40Z</time>
      </trkpt>
      <trkpt lat="45.86735" lon="1.23836">
        <ele>346.3</ele>
        <time>2024-11-05T16:40:41Z</time>
      </trkpt>
      <trkpt lat="45.86729" lon="1.23835">
        <ele>346</ele>
        <time>2024-11-05T16:40:42Z</time>
      </trkpt>
      <trkpt lat="45.86724" lon="1.23834">
        <ele>345.8</ele>
        <time>2024-11-05T16:40:43Z</time>
      </trkpt>
      <trkpt lat="45.86718" lon="1.23832">
        <ele>345.5</ele>
        <time>2024-11-05T16:40:44Z</time>
      </trkpt>
      <trkpt lat="45.86712" lon="1.23832">
        <ele>345.2</ele>
        <time>2024-11-05T16:40:45Z</time>
      </trkpt>
      <trkpt lat="45.86707" lon="1.23831">
        <ele>344.9</ele>
        <time>2024-11-05T16:40:46Z</time>
      </trkpt>
      <trkpt lat="45.86702" lon="1.2383">
        <ele>344.7</ele>
        <time>2024-11-05T16:40:47Z</time>
      </trkpt>
      <trkpt lat="45.86697" lon="1.2383">
        <ele>344.4</ele>
        <time>2024-11-05T16:40:48Z</time>
      </trkpt>
      <trkpt lat="45.86692" lon="1.23829">
        <ele>344.1</ele>
        <time>2024-11-05T16:40:49Z</time>
      </trkpt>
      <trkpt lat="45.86687" lon="1.23829">
        <ele>343.8</ele>
        <time>2024-11-05T16:40:50Z</time>
      </trkpt>
      <trkpt lat="45.86683" lon="1.23828">
        <ele>343.6</ele>
        <time>2024-11-05T16:40:51Z</time>
      </trkpt>
      <trkpt lat="45.86678" lon="1.23827">
        <ele>343.4</ele>
        <time>2024-11-05T16:40:52Z</time>
      </trkpt>
      <trkpt lat="45.86674" lon="1.23827">
        <ele>343.1</ele>
        <time>2024-11-05T16:40:53Z</time>
      </trkpt>
      <trkpt lat="45.86669" lon="1.23827">
        <ele>342.9</ele>
        <time>2024-11-05T16:40:54Z</time>
      </trkpt>
      <trkpt lat="45.86665" lon="1.23827">
        <ele>342.7</ele>
        <time>2024-11-05T16:40:55Z</time>
      </trkpt>
      <trkpt lat="45.86661" lon="1.23827">
        <ele>342.5</ele>
        <time>2024-11-05T16:40:56Z</time>
      </trkpt>
      <trkpt lat="45.86658" lon="1.23828">
        <ele>342.4</ele>
        <time>2024-11-05T16:40:57Z</time>
      </trkpt>
      <trkpt lat="45.86654" lon="1.23828">
        <ele>342.2</ele>
        <time>2024-11-05T16:40:58Z</time>
      </trkpt>
      <trkpt lat="45.8665" lon="1.23828">
        <ele>342.1</ele>
        <time>2024-11-05T16:40:59Z</time>
      </trkpt>
      <trkpt lat="45.86646" lon="1.23829">
        <ele>342</ele>
        <time>2024-11-05T16:41:00Z</time>
      </trkpt>
      <trkpt lat="45.86642" lon="1.23828">
        <ele>341.8</ele>
        <time>2024-11-05T16:41:01Z</time>
      </trkpt>
      <trkpt lat="45.86637" lon="1.23828">
        <ele>341.7</ele>
        <time>2024-11-05T16:41:02Z</time>
      </trkpt>
      <trkpt lat="45.86632" lon="1.23828">
        <ele>341.5</ele>
        <time>2024-11-05T16:41:03Z</time>
      </trkpt>
      <trkpt lat="45.86628" lon="1.23827">
        <ele>341.4</ele>
        <time>2024-11-05T16:41:04Z</time>
      </trkpt>
      <trkpt lat="45.86623" lon="1.23827">
        <ele>341.3</ele>
        <time>2024-11-05T16:41:05Z</time>
      </trkpt>
      <trkpt lat="45.86617" lon="1.23827">
        <ele>341.1</ele>
        <time>2024-11-05T16:41:06Z</time>
      </trkpt>
      <trkpt lat="45.86612" lon="1.23826">
        <ele>341</ele>
        <time>2024-11-05T16:41:07Z</time>
      </trkpt>
      <trkpt lat="45.86608" lon="1.23825">
        <ele>340.9</ele>
        <time>2024-11-05T16:41:08Z</time>
      </trkpt>
      <trkpt lat="45.86603" lon="1.23824">
        <ele>340.8</ele>
        <time>2024-11-05T16:41:09Z</time>
      </trkpt>
      <trkpt lat="45.86598" lon="1.23824">
        <ele>340.8</ele>
        <time>2024-11-05T16:41:10Z</time>
      </trkpt>
      <trkpt lat="45.86593" lon="1.23825">
        <ele>340.7</ele>
        <time>2024-11-05T16:41:11Z</time>
      </trkpt>
      <trkpt lat="45.86589" lon="1.23824">
        <ele>340.6</ele>
        <time>2024-11-05T16:41:12Z</time>
      </trkpt>
      <trkpt lat="45.86583" lon="1.23824">
        <ele>340.5</ele>
        <time>2024-11-05T16:41:13Z</time>
      </trkpt>
      <trkpt lat="45.86578" lon="1.23823">
        <ele>340.4</ele>
        <time>2024-11-05T16:41:14Z</time>
      </trkpt>
      <trkpt lat="45.86573" lon="1.23822">
        <ele>340.3</ele>
        <time>2024-11-05T16:41:15Z</time>
      </trkpt>
      <trkpt lat="45.86568" lon="1.23822">
        <ele>340.2</ele>
        <time>2024-11-05T16:41:16Z</time>
      </trkpt>
      <trkpt lat="45.86563" lon="1.23822">
        <ele>340.1</ele>
        <time>2024-11-05T16:41:17Z</time>
      </trkpt>
      <trkpt lat="45.86559" lon="1.23821">
        <ele>340</ele>
        <time>2024-11-05T16:41:18Z</time>
      </trkpt>
      <trkpt lat="45.86555" lon="1.23819">
        <ele>340</ele>
        <time>2024-11-05T16:41:20Z</time>
      </trkpt>
      <trkpt lat="45.86553" lon="1.23814">
        <ele>339.9</ele>
        <time>2024-11-05T16:41:27Z</time>
      </trkpt>
      <trkpt lat="45.86551" lon="1.2381">
        <ele>339.8</ele>
        <time>2024-11-05T16:41:28Z</time>
      </trkpt>
      <trkpt lat="45.86548" lon="1.23807">
        <ele>339.8</ele>
        <time>2024-11-05T16:41:29Z</time>
      </trkpt>
      <trkpt lat="45.86544" lon="1.23806">
        <ele>339.7</ele>
        <time>2024-11-05T16:41:30Z</time>
      </trkpt>
      <trkpt lat="45.8654" lon="1.23805">
        <ele>339.6</ele>
        <time>2024-11-05T16:41:31Z</time>
      </trkpt>
      <trkpt lat="45.86535" lon="1.23804">
        <ele>339.6</ele>
        <time>2024-11-05T16:41:32Z</time>
      </trkpt>
      <trkpt lat="45.86531" lon="1.23803">
        <ele>339.5</ele>
        <time>2024-11-05T16:41:33Z</time>
      </trkpt>
      <trkpt lat="45.86526" lon="1.23803">
        <ele>339.4</ele>
        <time>2024-11-05T16:41:34Z</time>
      </trkpt>
      <trkpt lat="45.86523" lon="1.23801">
        <ele>339.4</ele>
        <time>2024-11-05T16:41:36Z</time>
      </trkpt>
      <trkpt lat="45.86521" lon="1.23797">
        <ele>339.3</ele>
        <time>2024-11-05T16:41:37Z</time>
      </trkpt>
      <trkpt lat="45.8652" lon="1.23792">
        <ele>339.2</ele>
        <time>2024-11-05T16:41:38Z</time>
      </trkpt>
      <trkpt lat="45.8652" lon="1.23788">
        <ele>339.2</ele>
        <time>2024-11-05T16:41:39Z</time>
      </trkpt>
      <trkpt lat="45.86519" lon="1.23784">
        <ele>339.1</ele>
        <time>2024-11-05T16:41:40Z</time>
      </trkpt>
      <trkpt lat="45.86517" lon="1.2378">
        <ele>339.1</ele>
        <time>2024-11-05T16:41:43Z</time>
      </trkpt>
      <trkpt lat="45.86514" lon="1.23779">
        <ele>339</ele>
        <time>2024-11-05T16:41:45Z</time>
      </trkpt>
      <trkpt lat="45.86512" lon="1.23781">
        <ele>339</ele>
        <time>2024-11-05T16:41:47Z</time>
      </trkpt>
      <trkpt lat="45.86511" lon="1.23785">
        <ele>339</ele>
        <time>2024-11-05T16:41:50Z</time>
      </trkpt>
      <trkpt lat="45.86512" lon="1.23785">
        <ele>338.9</ele>
        <time>2024-11-05T16:42:45Z</time>
      </trkpt>
      <trkpt lat="45.86513" lon="1.23787">
        <ele>338.9</ele>
        <time>2024-11-05T16:43:17Z</time>
      </trkpt>
      <trkpt lat="45.86513" lon="1.23785">
        <ele>338.9</ele>
        <time>2024-11-05T16:45:24Z</time>
      </trkpt>
      <trkpt lat="45.86512" lon="1.23782">
        <ele>338.9</ele>
        <time>2024-11-05T16:45:27Z</time>
      </trkpt>
      <trkpt lat="45.86511" lon="1.23777">
        <ele>338.8</ele>
        <time>2024-11-05T16:45:42Z</time>
      </trkpt>
    </trkseg>
  </trk>
</gpx>